<?xml version="1.0" encoding="UTF-8" standalone="no" ?>
<gpx xmlns="http://www.topografix.com/GPX/1/1" xmlns:xsi="http://www.w3.org/2001/XMLSchema-instance" xsi:schemaLocation="http://www.topografix.com/GPX/1/1 http://www.topografix.com/GPX/1/1/gpx.xsd" version="1.1" creator="VisuGPX - https://www.visugpx.com">
  <metadata>
    <name>cHATEAU aRNOUX</name>
  </metadata>
  <trk>
    <name><![CDATA[cHATEAU aRNOUX_1]]></name>
    <trkseg>
      <trkpt lat="44.09489" lon="5.99844">
        <ele>518</ele>
        <time>2021-03-30T13:05:26.000Z</time>
      </trkpt>
      <trkpt lat="44.09483" lon="5.99845">
        <ele>518.9</ele>
      </trkpt>
      <trkpt lat="44.09482" lon="5.99826">
        <ele>520.1</ele>
      </trkpt>
      <trkpt lat="44.09481" lon="5.99806">
        <ele>521</ele>
      </trkpt>
      <trkpt lat="44.09476" lon="5.99745">
        <ele>524.2</ele>
      </trkpt>
      <trkpt lat="44.09475" lon="5.9973">
        <ele>525.3</ele>
      </trkpt>
      <trkpt lat="44.09463" lon="5.99659">
        <ele>530.7</ele>
      </trkpt>
      <trkpt lat="44.09459" lon="5.99641">
        <ele>531</ele>
      </trkpt>
      <trkpt lat="44.09454" lon="5.99626">
        <ele>531.4</ele>
      </trkpt>
      <trkpt lat="44.09442" lon="5.99604">
        <ele>532.4</ele>
      </trkpt>
      <trkpt lat="44.09422" lon="5.99572">
        <ele>533.9</ele>
      </trkpt>
      <trkpt lat="44.09419" lon="5.99564">
        <ele>534</ele>
      </trkpt>
      <trkpt lat="44.09408" lon="5.9953">
        <ele>534.5</ele>
      </trkpt>
      <trkpt lat="44.09402" lon="5.99512">
        <ele>534.6</ele>
      </trkpt>
      <trkpt lat="44.09388" lon="5.99486">
        <ele>535</ele>
      </trkpt>
      <trkpt lat="44.09384" lon="5.99478">
        <ele>535.1</ele>
      </trkpt>
      <trkpt lat="44.09372" lon="5.99459">
        <ele>535.4</ele>
      </trkpt>
      <trkpt lat="44.09342" lon="5.99424">
        <ele>536.6</ele>
      </trkpt>
      <trkpt lat="44.09336" lon="5.99415">
        <ele>536.6</ele>
      </trkpt>
      <trkpt lat="44.09326" lon="5.99396">
        <ele>536.7</ele>
      </trkpt>
      <trkpt lat="44.09304" lon="5.99352">
        <ele>536.7</ele>
      </trkpt>
      <trkpt lat="44.09294" lon="5.99337">
        <ele>537</ele>
      </trkpt>
      <trkpt lat="44.09283" lon="5.9932">
        <ele>537.6</ele>
      </trkpt>
      <trkpt lat="44.09273" lon="5.99296">
        <ele>537.5</ele>
      </trkpt>
      <trkpt lat="44.09271" lon="5.9929">
        <ele>537.3</ele>
      </trkpt>
      <trkpt lat="44.09264" lon="5.99263">
        <ele>536.2</ele>
      </trkpt>
      <trkpt lat="44.09263" lon="5.99254">
        <ele>535.7</ele>
      </trkpt>
      <trkpt lat="44.09263" lon="5.99231">
        <ele>535.2</ele>
      </trkpt>
      <trkpt lat="44.09262" lon="5.9917">
        <ele>533.9</ele>
      </trkpt>
      <trkpt lat="44.09262" lon="5.99153">
        <ele>534</ele>
      </trkpt>
      <trkpt lat="44.09262" lon="5.99127">
        <ele>534.3</ele>
      </trkpt>
      <trkpt lat="44.09262" lon="5.99102">
        <ele>534.6</ele>
      </trkpt>
      <trkpt lat="44.09263" lon="5.99053">
        <ele>535.8</ele>
      </trkpt>
      <trkpt lat="44.09265" lon="5.99003">
        <ele>537.7</ele>
      </trkpt>
      <trkpt lat="44.09267" lon="5.9898">
        <ele>538.9</ele>
      </trkpt>
      <trkpt lat="44.09274" lon="5.98947">
        <ele>540.9</ele>
      </trkpt>
      <trkpt lat="44.09277" lon="5.98925">
        <ele>542</ele>
      </trkpt>
      <trkpt lat="44.09277" lon="5.98917">
        <ele>542.3</ele>
      </trkpt>
      <trkpt lat="44.09274" lon="5.9891">
        <ele>542.8</ele>
      </trkpt>
      <trkpt lat="44.09267" lon="5.98905">
        <ele>533.6</ele>
        <time>2021-03-30T11:45:12.000Z</time>
      </trkpt>
      <trkpt lat="44.09272" lon="5.98905">
        <ele>533.6</ele>
        <time>2021-03-30T11:45:13.000Z</time>
      </trkpt>
      <trkpt lat="44.09278" lon="5.98895">
        <ele>533.6</ele>
        <time>2021-03-30T11:45:15.000Z</time>
      </trkpt>
      <trkpt lat="44.09279" lon="5.98889">
        <ele>533.4</ele>
        <time>2021-03-30T11:45:16.000Z</time>
      </trkpt>
      <trkpt lat="44.09279" lon="5.98883">
        <ele>533.2</ele>
        <time>2021-03-30T11:45:17.000Z</time>
      </trkpt>
      <trkpt lat="44.09281" lon="5.98871">
        <ele>532.8</ele>
        <time>2021-03-30T11:45:19.000Z</time>
      </trkpt>
      <trkpt lat="44.09281" lon="5.98865">
        <ele>532.6</ele>
        <time>2021-03-30T11:45:20.000Z</time>
      </trkpt>
      <trkpt lat="44.09282" lon="5.98859">
        <ele>532.2</ele>
        <time>2021-03-30T11:45:21.000Z</time>
      </trkpt>
      <trkpt lat="44.09285" lon="5.98848">
        <ele>531.6</ele>
        <time>2021-03-30T11:45:23.000Z</time>
      </trkpt>
      <trkpt lat="44.09286" lon="5.98842">
        <ele>531.4</ele>
        <time>2021-03-30T11:45:24.000Z</time>
      </trkpt>
      <trkpt lat="44.09287" lon="5.98836">
        <ele>531.2</ele>
        <time>2021-03-30T11:45:25.000Z</time>
      </trkpt>
      <trkpt lat="44.09287" lon="5.98826">
        <ele>530.8</ele>
        <time>2021-03-30T11:45:27.000Z</time>
      </trkpt>
      <trkpt lat="44.09287" lon="5.98822">
        <ele>530.6</ele>
        <time>2021-03-30T11:45:28.000Z</time>
      </trkpt>
      <trkpt lat="44.09287" lon="5.98814">
        <ele>530.2</ele>
        <time>2021-03-30T11:45:30.000Z</time>
      </trkpt>
      <trkpt lat="44.09288" lon="5.98811">
        <ele>530</ele>
        <time>2021-03-30T11:45:31.000Z</time>
      </trkpt>
      <trkpt lat="44.09288" lon="5.98807">
        <ele>529.8</ele>
        <time>2021-03-30T11:45:32.000Z</time>
      </trkpt>
      <trkpt lat="44.0929" lon="5.98801">
        <ele>529.6</ele>
        <time>2021-03-30T11:45:34.000Z</time>
      </trkpt>
      <trkpt lat="44.0929" lon="5.98798">
        <ele>529.6</ele>
        <time>2021-03-30T11:45:35.000Z</time>
      </trkpt>
      <trkpt lat="44.0929" lon="5.98796">
        <ele>529.4</ele>
        <time>2021-03-30T11:45:36.000Z</time>
      </trkpt>
      <trkpt lat="44.0929" lon="5.98793">
        <ele>529</ele>
        <time>2021-03-30T11:45:38.000Z</time>
      </trkpt>
      <trkpt lat="44.09291" lon="5.9879">
        <ele>528.8</ele>
        <time>2021-03-30T11:45:39.000Z</time>
      </trkpt>
      <trkpt lat="44.09293" lon="5.98786">
        <ele>528.6</ele>
        <time>2021-03-30T11:45:41.000Z</time>
      </trkpt>
      <trkpt lat="44.09294" lon="5.98783">
        <ele>528.4</ele>
        <time>2021-03-30T11:45:42.000Z</time>
      </trkpt>
      <trkpt lat="44.09295" lon="5.98781">
        <ele>528.4</ele>
        <time>2021-03-30T11:45:43.000Z</time>
      </trkpt>
      <trkpt lat="44.09296" lon="5.98777">
        <ele>528.6</ele>
        <time>2021-03-30T11:45:45.000Z</time>
      </trkpt>
      <trkpt lat="44.09297" lon="5.98775">
        <ele>528.6</ele>
        <time>2021-03-30T11:45:46.000Z</time>
      </trkpt>
      <trkpt lat="44.09298" lon="5.98774">
        <ele>528.8</ele>
        <time>2021-03-30T11:45:47.000Z</time>
      </trkpt>
      <trkpt lat="44.09301" lon="5.9877">
        <ele>529.2</ele>
        <time>2021-03-30T11:45:49.000Z</time>
      </trkpt>
      <trkpt lat="44.09303" lon="5.98767">
        <ele>529.4</ele>
        <time>2021-03-30T11:45:50.000Z</time>
      </trkpt>
      <trkpt lat="44.09305" lon="5.98762">
        <ele>529.8</ele>
        <time>2021-03-30T11:45:52.000Z</time>
      </trkpt>
      <trkpt lat="44.09306" lon="5.9876">
        <ele>530</ele>
        <time>2021-03-30T11:45:53.000Z</time>
      </trkpt>
      <trkpt lat="44.09308" lon="5.98758">
        <ele>530.2</ele>
        <time>2021-03-30T11:45:54.000Z</time>
      </trkpt>
      <trkpt lat="44.09311" lon="5.98754">
        <ele>530.6</ele>
        <time>2021-03-30T11:45:56.000Z</time>
      </trkpt>
      <trkpt lat="44.09312" lon="5.98752">
        <ele>530.8</ele>
        <time>2021-03-30T11:45:57.000Z</time>
      </trkpt>
      <trkpt lat="44.09314" lon="5.98749">
        <ele>531.2</ele>
        <time>2021-03-30T11:45:58.000Z</time>
      </trkpt>
      <trkpt lat="44.09317" lon="5.98745">
        <ele>531.6</ele>
        <time>2021-03-30T11:46:00.000Z</time>
      </trkpt>
      <trkpt lat="44.09319" lon="5.98742">
        <ele>532</ele>
        <time>2021-03-30T11:46:01.000Z</time>
      </trkpt>
      <trkpt lat="44.0932" lon="5.98739">
        <ele>532.2</ele>
        <time>2021-03-30T11:46:02.000Z</time>
      </trkpt>
      <trkpt lat="44.09323" lon="5.98734">
        <ele>532.8</ele>
        <time>2021-03-30T11:46:04.000Z</time>
      </trkpt>
      <trkpt lat="44.09324" lon="5.9873">
        <ele>533</ele>
        <time>2021-03-30T11:46:05.000Z</time>
      </trkpt>
      <trkpt lat="44.09325" lon="5.98723">
        <ele>533.6</ele>
        <time>2021-03-30T11:46:07.000Z</time>
      </trkpt>
      <trkpt lat="44.09327" lon="5.98719">
        <ele>534</ele>
        <time>2021-03-30T11:46:08.000Z</time>
      </trkpt>
      <trkpt lat="44.09327" lon="5.98716">
        <ele>534.2</ele>
        <time>2021-03-30T11:46:09.000Z</time>
      </trkpt>
      <trkpt lat="44.09329" lon="5.9871">
        <ele>534.8</ele>
        <time>2021-03-30T11:46:11.000Z</time>
      </trkpt>
      <trkpt lat="44.0933" lon="5.98707">
        <ele>535.2</ele>
        <time>2021-03-30T11:46:12.000Z</time>
      </trkpt>
      <trkpt lat="44.09331" lon="5.98703">
        <ele>535.4</ele>
        <time>2021-03-30T11:46:13.000Z</time>
      </trkpt>
      <trkpt lat="44.09333" lon="5.98696">
        <ele>536.2</ele>
        <time>2021-03-30T11:46:15.000Z</time>
      </trkpt>
      <trkpt lat="44.09335" lon="5.98692">
        <ele>536.4</ele>
        <time>2021-03-30T11:46:16.000Z</time>
      </trkpt>
      <trkpt lat="44.09338" lon="5.98684">
        <ele>537</ele>
        <time>2021-03-30T11:46:18.000Z</time>
      </trkpt>
      <trkpt lat="44.0934" lon="5.98681">
        <ele>537.4</ele>
        <time>2021-03-30T11:46:19.000Z</time>
      </trkpt>
      <trkpt lat="44.09341" lon="5.98678">
        <ele>537.6</ele>
        <time>2021-03-30T11:46:20.000Z</time>
      </trkpt>
      <trkpt lat="44.09345" lon="5.98671">
        <ele>538.4</ele>
        <time>2021-03-30T11:46:22.000Z</time>
      </trkpt>
      <trkpt lat="44.09346" lon="5.98667">
        <ele>538.6</ele>
        <time>2021-03-30T11:46:23.000Z</time>
      </trkpt>
      <trkpt lat="44.09348" lon="5.98663">
        <ele>539</ele>
        <time>2021-03-30T11:46:24.000Z</time>
      </trkpt>
      <trkpt lat="44.09351" lon="5.98655">
        <ele>539.6</ele>
        <time>2021-03-30T11:46:26.000Z</time>
      </trkpt>
      <trkpt lat="44.09354" lon="5.98651">
        <ele>540</ele>
        <time>2021-03-30T11:46:27.000Z</time>
      </trkpt>
      <trkpt lat="44.09358" lon="5.98644">
        <ele>540.6</ele>
        <time>2021-03-30T11:46:29.000Z</time>
      </trkpt>
      <trkpt lat="44.09361" lon="5.98641">
        <ele>541</ele>
        <time>2021-03-30T11:46:30.000Z</time>
      </trkpt>
      <trkpt lat="44.09363" lon="5.98638">
        <ele>541.4</ele>
        <time>2021-03-30T11:46:31.000Z</time>
      </trkpt>
      <trkpt lat="44.09367" lon="5.98632">
        <ele>542</ele>
        <time>2021-03-30T11:46:33.000Z</time>
      </trkpt>
      <trkpt lat="44.09369" lon="5.98629">
        <ele>542.2</ele>
        <time>2021-03-30T11:46:34.000Z</time>
      </trkpt>
      <trkpt lat="44.0937" lon="5.98625">
        <ele>542.6</ele>
        <time>2021-03-30T11:46:35.000Z</time>
      </trkpt>
      <trkpt lat="44.09373" lon="5.98617">
        <ele>543.2</ele>
        <time>2021-03-30T11:46:37.000Z</time>
      </trkpt>
      <trkpt lat="44.09375" lon="5.98614">
        <ele>543.4</ele>
        <time>2021-03-30T11:46:38.000Z</time>
      </trkpt>
      <trkpt lat="44.09379" lon="5.98606">
        <ele>544</ele>
        <time>2021-03-30T11:46:40.000Z</time>
      </trkpt>
      <trkpt lat="44.09381" lon="5.98603">
        <ele>544.2</ele>
        <time>2021-03-30T11:46:41.000Z</time>
      </trkpt>
      <trkpt lat="44.09382" lon="5.98599">
        <ele>544.2</ele>
        <time>2021-03-30T11:46:42.000Z</time>
      </trkpt>
      <trkpt lat="44.09386" lon="5.98592">
        <ele>544.6</ele>
        <time>2021-03-30T11:46:44.000Z</time>
      </trkpt>
      <trkpt lat="44.09388" lon="5.98589">
        <ele>544.8</ele>
        <time>2021-03-30T11:46:45.000Z</time>
      </trkpt>
      <trkpt lat="44.0939" lon="5.98586">
        <ele>545</ele>
        <time>2021-03-30T11:46:46.000Z</time>
      </trkpt>
      <trkpt lat="44.09393" lon="5.98578">
        <ele>545.4</ele>
        <time>2021-03-30T11:46:48.000Z</time>
      </trkpt>
      <trkpt lat="44.09394" lon="5.98575">
        <ele>545.6</ele>
        <time>2021-03-30T11:46:49.000Z</time>
      </trkpt>
      <trkpt lat="44.09395" lon="5.98573">
        <ele>545.8</ele>
        <time>2021-03-30T11:46:50.000Z</time>
      </trkpt>
      <trkpt lat="44.09397" lon="5.98567">
        <ele>546.6</ele>
        <time>2021-03-30T11:46:52.000Z</time>
      </trkpt>
      <trkpt lat="44.09398" lon="5.98565">
        <ele>546.8</ele>
        <time>2021-03-30T11:46:53.000Z</time>
      </trkpt>
      <trkpt lat="44.094" lon="5.98559">
        <ele>547.2</ele>
        <time>2021-03-30T11:46:55.000Z</time>
      </trkpt>
      <trkpt lat="44.09401" lon="5.98557">
        <ele>547.6</ele>
        <time>2021-03-30T11:46:56.000Z</time>
      </trkpt>
      <trkpt lat="44.09403" lon="5.98554">
        <ele>547.8</ele>
        <time>2021-03-30T11:46:57.000Z</time>
      </trkpt>
      <trkpt lat="44.09406" lon="5.98548">
        <ele>548.4</ele>
        <time>2021-03-30T11:46:59.000Z</time>
      </trkpt>
      <trkpt lat="44.09407" lon="5.98545">
        <ele>548.6</ele>
        <time>2021-03-30T11:47:00.000Z</time>
      </trkpt>
      <trkpt lat="44.09409" lon="5.98541">
        <ele>548.8</ele>
        <time>2021-03-30T11:47:01.000Z</time>
      </trkpt>
      <trkpt lat="44.09412" lon="5.98534">
        <ele>549.2</ele>
        <time>2021-03-30T11:47:03.000Z</time>
      </trkpt>
      <trkpt lat="44.09413" lon="5.9853">
        <ele>549.4</ele>
        <time>2021-03-30T11:47:04.000Z</time>
      </trkpt>
      <trkpt lat="44.09413" lon="5.98523">
        <ele>550</ele>
        <time>2021-03-30T11:47:06.000Z</time>
      </trkpt>
      <trkpt lat="44.09413" lon="5.98518">
        <ele>550.4</ele>
        <time>2021-03-30T11:47:07.000Z</time>
      </trkpt>
      <trkpt lat="44.09414" lon="5.98514">
        <ele>550.6</ele>
        <time>2021-03-30T11:47:08.000Z</time>
      </trkpt>
      <trkpt lat="44.09416" lon="5.98507">
        <ele>551.2</ele>
        <time>2021-03-30T11:47:10.000Z</time>
      </trkpt>
      <trkpt lat="44.09416" lon="5.98504">
        <ele>551.4</ele>
        <time>2021-03-30T11:47:11.000Z</time>
      </trkpt>
      <trkpt lat="44.09416" lon="5.985">
        <ele>551.8</ele>
        <time>2021-03-30T11:47:12.000Z</time>
      </trkpt>
      <trkpt lat="44.09417" lon="5.98494">
        <ele>552.4</ele>
        <time>2021-03-30T11:47:14.000Z</time>
      </trkpt>
      <trkpt lat="44.09417" lon="5.98491">
        <ele>552.8</ele>
        <time>2021-03-30T11:47:15.000Z</time>
      </trkpt>
      <trkpt lat="44.09417" lon="5.98485">
        <ele>553.4</ele>
        <time>2021-03-30T11:47:17.000Z</time>
      </trkpt>
      <trkpt lat="44.09417" lon="5.98482">
        <ele>553.6</ele>
        <time>2021-03-30T11:47:18.000Z</time>
      </trkpt>
      <trkpt lat="44.09417" lon="5.98479">
        <ele>554</ele>
        <time>2021-03-30T11:47:19.000Z</time>
      </trkpt>
      <trkpt lat="44.09419" lon="5.98477">
        <ele>554.6</ele>
        <time>2021-03-30T11:47:21.000Z</time>
      </trkpt>
      <trkpt lat="44.09419" lon="5.98477">
        <ele>554.8</ele>
        <time>2021-03-30T11:47:22.000Z</time>
      </trkpt>
      <trkpt lat="44.09419" lon="5.98477">
        <ele>555.2</ele>
        <time>2021-03-30T11:47:23.000Z</time>
      </trkpt>
      <trkpt lat="44.09419" lon="5.98477">
        <ele>555.6</ele>
        <time>2021-03-30T11:47:25.000Z</time>
      </trkpt>
      <trkpt lat="44.09419" lon="5.98477">
        <ele>556</ele>
        <time>2021-03-30T11:47:26.000Z</time>
      </trkpt>
      <trkpt lat="44.09419" lon="5.98477">
        <ele>556.2</ele>
        <time>2021-03-30T11:47:27.000Z</time>
      </trkpt>
      <trkpt lat="44.09419" lon="5.98477">
        <ele>556.4</ele>
        <time>2021-03-30T11:47:29.000Z</time>
      </trkpt>
      <trkpt lat="44.09419" lon="5.98477">
        <ele>556.4</ele>
        <time>2021-03-30T11:47:30.000Z</time>
      </trkpt>
      <trkpt lat="44.09419" lon="5.98477">
        <ele>556.6</ele>
        <time>2021-03-30T11:47:32.000Z</time>
      </trkpt>
      <trkpt lat="44.09419" lon="5.98477">
        <ele>556.8</ele>
        <time>2021-03-30T11:47:33.000Z</time>
      </trkpt>
      <trkpt lat="44.09419" lon="5.98477">
        <ele>556.8</ele>
        <time>2021-03-30T11:47:34.000Z</time>
      </trkpt>
      <trkpt lat="44.09419" lon="5.98477">
        <ele>556.8</ele>
        <time>2021-03-30T11:47:36.000Z</time>
      </trkpt>
      <trkpt lat="44.09419" lon="5.98477">
        <ele>557</ele>
        <time>2021-03-30T11:47:37.000Z</time>
      </trkpt>
      <trkpt lat="44.09419" lon="5.98477">
        <ele>557</ele>
        <time>2021-03-30T11:47:38.000Z</time>
      </trkpt>
      <trkpt lat="44.09419" lon="5.98477">
        <ele>557.4</ele>
        <time>2021-03-30T11:47:40.000Z</time>
      </trkpt>
      <trkpt lat="44.09419" lon="5.98477">
        <ele>557.6</ele>
        <time>2021-03-30T11:47:41.000Z</time>
      </trkpt>
      <trkpt lat="44.09419" lon="5.98477">
        <ele>557.8</ele>
        <time>2021-03-30T11:47:43.000Z</time>
      </trkpt>
      <trkpt lat="44.09419" lon="5.98477">
        <ele>558</ele>
        <time>2021-03-30T11:47:44.000Z</time>
      </trkpt>
      <trkpt lat="44.09418" lon="5.98472">
        <ele>558</ele>
        <time>2021-03-30T11:47:45.000Z</time>
      </trkpt>
      <trkpt lat="44.09417" lon="5.98467">
        <ele>558.4</ele>
        <time>2021-03-30T11:47:47.000Z</time>
      </trkpt>
      <trkpt lat="44.09417" lon="5.98464">
        <ele>558.4</ele>
        <time>2021-03-30T11:47:48.000Z</time>
      </trkpt>
      <trkpt lat="44.09416" lon="5.9846">
        <ele>558.6</ele>
        <time>2021-03-30T11:47:49.000Z</time>
      </trkpt>
      <trkpt lat="44.09416" lon="5.98454">
        <ele>558.8</ele>
        <time>2021-03-30T11:47:51.000Z</time>
      </trkpt>
      <trkpt lat="44.09416" lon="5.98451">
        <ele>558.8</ele>
        <time>2021-03-30T11:47:52.000Z</time>
      </trkpt>
      <trkpt lat="44.09415" lon="5.98446">
        <ele>558.8</ele>
        <time>2021-03-30T11:47:54.000Z</time>
      </trkpt>
      <trkpt lat="44.09415" lon="5.98443">
        <ele>558.8</ele>
        <time>2021-03-30T11:47:55.000Z</time>
      </trkpt>
      <trkpt lat="44.09414" lon="5.9844">
        <ele>558.8</ele>
        <time>2021-03-30T11:47:56.000Z</time>
      </trkpt>
      <trkpt lat="44.09413" lon="5.98434">
        <ele>558.8</ele>
        <time>2021-03-30T11:47:58.000Z</time>
      </trkpt>
      <trkpt lat="44.09413" lon="5.98431">
        <ele>559</ele>
        <time>2021-03-30T11:47:59.000Z</time>
      </trkpt>
      <trkpt lat="44.09413" lon="5.98428">
        <ele>559</ele>
        <time>2021-03-30T11:48:00.000Z</time>
      </trkpt>
      <trkpt lat="44.09412" lon="5.98421">
        <ele>559.2</ele>
        <time>2021-03-30T11:48:02.000Z</time>
      </trkpt>
      <trkpt lat="44.09412" lon="5.98418">
        <ele>559.4</ele>
        <time>2021-03-30T11:48:03.000Z</time>
      </trkpt>
      <trkpt lat="44.09411" lon="5.98415">
        <ele>559.4</ele>
        <time>2021-03-30T11:48:04.000Z</time>
      </trkpt>
      <trkpt lat="44.09411" lon="5.98408">
        <ele>559.6</ele>
        <time>2021-03-30T11:48:06.000Z</time>
      </trkpt>
      <trkpt lat="44.09411" lon="5.98405">
        <ele>559.6</ele>
        <time>2021-03-30T11:48:07.000Z</time>
      </trkpt>
      <trkpt lat="44.0941" lon="5.98398">
        <ele>559.8</ele>
        <time>2021-03-30T11:48:09.000Z</time>
      </trkpt>
      <trkpt lat="44.0941" lon="5.98394">
        <ele>560</ele>
        <time>2021-03-30T11:48:10.000Z</time>
      </trkpt>
      <trkpt lat="44.0941" lon="5.98391">
        <ele>560</ele>
        <time>2021-03-30T11:48:11.000Z</time>
      </trkpt>
      <trkpt lat="44.09412" lon="5.98386">
        <ele>560.2</ele>
        <time>2021-03-30T11:48:13.000Z</time>
      </trkpt>
      <trkpt lat="44.09413" lon="5.98384">
        <ele>560.2</ele>
        <time>2021-03-30T11:48:14.000Z</time>
      </trkpt>
      <trkpt lat="44.09414" lon="5.98383">
        <ele>560.2</ele>
        <time>2021-03-30T11:48:15.000Z</time>
      </trkpt>
      <trkpt lat="44.09415" lon="5.98384">
        <ele>560.4</ele>
        <time>2021-03-30T11:48:17.000Z</time>
      </trkpt>
      <trkpt lat="44.09416" lon="5.98386">
        <ele>560.4</ele>
        <time>2021-03-30T11:48:18.000Z</time>
      </trkpt>
      <trkpt lat="44.09419" lon="5.98389">
        <ele>560.4</ele>
        <time>2021-03-30T11:48:20.000Z</time>
      </trkpt>
      <trkpt lat="44.09422" lon="5.98389">
        <ele>560.4</ele>
        <time>2021-03-30T11:48:21.000Z</time>
      </trkpt>
      <trkpt lat="44.09424" lon="5.9839">
        <ele>560.4</ele>
        <time>2021-03-30T11:48:22.000Z</time>
      </trkpt>
      <trkpt lat="44.09429" lon="5.98394">
        <ele>560.6</ele>
        <time>2021-03-30T11:48:24.000Z</time>
      </trkpt>
      <trkpt lat="44.09432" lon="5.98397">
        <ele>560.6</ele>
        <time>2021-03-30T11:48:25.000Z</time>
      </trkpt>
      <trkpt lat="44.09434" lon="5.98398">
        <ele>560.6</ele>
        <time>2021-03-30T11:48:26.000Z</time>
      </trkpt>
      <trkpt lat="44.0944" lon="5.98401">
        <ele>560.6</ele>
        <time>2021-03-30T11:48:28.000Z</time>
      </trkpt>
      <trkpt lat="44.09441" lon="5.98404">
        <ele>560.6</ele>
        <time>2021-03-30T11:48:29.000Z</time>
      </trkpt>
      <trkpt lat="44.09444" lon="5.98411">
        <ele>560.6</ele>
        <time>2021-03-30T11:48:31.000Z</time>
      </trkpt>
      <trkpt lat="44.09443" lon="5.98413">
        <ele>560.4</ele>
        <time>2021-03-30T11:48:32.000Z</time>
      </trkpt>
      <trkpt lat="44.09443" lon="5.98415">
        <ele>560.4</ele>
        <time>2021-03-30T11:48:33.000Z</time>
      </trkpt>
      <trkpt lat="44.09443" lon="5.98418">
        <ele>560.6</ele>
        <time>2021-03-30T11:48:35.000Z</time>
      </trkpt>
      <trkpt lat="44.09443" lon="5.9842">
        <ele>560.6</ele>
        <time>2021-03-30T11:48:36.000Z</time>
      </trkpt>
      <trkpt lat="44.09442" lon="5.98421">
        <ele>560.6</ele>
        <time>2021-03-30T11:48:37.000Z</time>
      </trkpt>
      <trkpt lat="44.09443" lon="5.98426">
        <ele>560.6</ele>
        <time>2021-03-30T11:48:39.000Z</time>
      </trkpt>
      <trkpt lat="44.09445" lon="5.9843">
        <ele>560.4</ele>
        <time>2021-03-30T11:48:40.000Z</time>
      </trkpt>
      <trkpt lat="44.09446" lon="5.98438">
        <ele>560.2</ele>
        <time>2021-03-30T11:48:42.000Z</time>
      </trkpt>
      <trkpt lat="44.09446" lon="5.98442">
        <ele>560</ele>
        <time>2021-03-30T11:48:43.000Z</time>
      </trkpt>
      <trkpt lat="44.09447" lon="5.98447">
        <ele>559.8</ele>
        <time>2021-03-30T11:48:44.000Z</time>
      </trkpt>
      <trkpt lat="44.09447" lon="5.98456">
        <ele>559.4</ele>
        <time>2021-03-30T11:48:46.000Z</time>
      </trkpt>
      <trkpt lat="44.09448" lon="5.9846">
        <ele>559.4</ele>
        <time>2021-03-30T11:48:47.000Z</time>
      </trkpt>
      <trkpt lat="44.09448" lon="5.98465">
        <ele>559.2</ele>
        <time>2021-03-30T11:48:48.000Z</time>
      </trkpt>
      <trkpt lat="44.09449" lon="5.98471">
        <ele>559.2</ele>
        <time>2021-03-30T11:48:50.000Z</time>
      </trkpt>
      <trkpt lat="44.09451" lon="5.98473">
        <ele>559</ele>
        <time>2021-03-30T11:48:51.000Z</time>
      </trkpt>
      <trkpt lat="44.09451" lon="5.98476">
        <ele>559</ele>
        <time>2021-03-30T11:48:52.000Z</time>
      </trkpt>
      <trkpt lat="44.09454" lon="5.98479">
        <ele>559</ele>
        <time>2021-03-30T11:48:54.000Z</time>
      </trkpt>
      <trkpt lat="44.09455" lon="5.98479">
        <ele>559</ele>
        <time>2021-03-30T11:48:55.000Z</time>
      </trkpt>
      <trkpt lat="44.09458" lon="5.98475">
        <ele>558.8</ele>
        <time>2021-03-30T11:48:57.000Z</time>
      </trkpt>
      <trkpt lat="44.09459" lon="5.98473">
        <ele>558.6</ele>
        <time>2021-03-30T11:48:58.000Z</time>
      </trkpt>
      <trkpt lat="44.0946" lon="5.98471">
        <ele>558.4</ele>
        <time>2021-03-30T11:48:59.000Z</time>
      </trkpt>
      <trkpt lat="44.09461" lon="5.98467">
        <ele>558</ele>
        <time>2021-03-30T11:49:01.000Z</time>
      </trkpt>
      <trkpt lat="44.09462" lon="5.98464">
        <ele>558</ele>
        <time>2021-03-30T11:49:02.000Z</time>
      </trkpt>
      <trkpt lat="44.09463" lon="5.98461">
        <ele>557.8</ele>
        <time>2021-03-30T11:49:03.000Z</time>
      </trkpt>
      <trkpt lat="44.09465" lon="5.98455">
        <ele>557.4</ele>
        <time>2021-03-30T11:49:05.000Z</time>
      </trkpt>
      <trkpt lat="44.09467" lon="5.98453">
        <ele>557.2</ele>
        <time>2021-03-30T11:49:06.000Z</time>
      </trkpt>
      <trkpt lat="44.0947" lon="5.98448">
        <ele>556.6</ele>
        <time>2021-03-30T11:49:08.000Z</time>
      </trkpt>
      <trkpt lat="44.09472" lon="5.98445">
        <ele>556.4</ele>
        <time>2021-03-30T11:49:09.000Z</time>
      </trkpt>
      <trkpt lat="44.09473" lon="5.98442">
        <ele>556.2</ele>
        <time>2021-03-30T11:49:10.000Z</time>
      </trkpt>
      <trkpt lat="44.09475" lon="5.98437">
        <ele>556.2</ele>
        <time>2021-03-30T11:49:12.000Z</time>
      </trkpt>
      <trkpt lat="44.09476" lon="5.98434">
        <ele>556.2</ele>
        <time>2021-03-30T11:49:13.000Z</time>
      </trkpt>
      <trkpt lat="44.09477" lon="5.98432">
        <ele>556.2</ele>
        <time>2021-03-30T11:49:14.000Z</time>
      </trkpt>
      <trkpt lat="44.09477" lon="5.98427">
        <ele>556.4</ele>
        <time>2021-03-30T11:49:16.000Z</time>
      </trkpt>
      <trkpt lat="44.09478" lon="5.98424">
        <ele>556.6</ele>
        <time>2021-03-30T11:49:17.000Z</time>
      </trkpt>
      <trkpt lat="44.0948" lon="5.98418">
        <ele>556.8</ele>
        <time>2021-03-30T11:49:19.000Z</time>
      </trkpt>
      <trkpt lat="44.09481" lon="5.98416">
        <ele>557</ele>
        <time>2021-03-30T11:49:20.000Z</time>
      </trkpt>
      <trkpt lat="44.09482" lon="5.98414">
        <ele>557.2</ele>
        <time>2021-03-30T11:49:21.000Z</time>
      </trkpt>
      <trkpt lat="44.09485" lon="5.9841">
        <ele>557.6</ele>
        <time>2021-03-30T11:49:23.000Z</time>
      </trkpt>
      <trkpt lat="44.09487" lon="5.98408">
        <ele>557.8</ele>
        <time>2021-03-30T11:49:24.000Z</time>
      </trkpt>
      <trkpt lat="44.09489" lon="5.98407">
        <ele>558</ele>
        <time>2021-03-30T11:49:25.000Z</time>
      </trkpt>
      <trkpt lat="44.09494" lon="5.98404">
        <ele>558.4</ele>
        <time>2021-03-30T11:49:27.000Z</time>
      </trkpt>
      <trkpt lat="44.09496" lon="5.98403">
        <ele>558.6</ele>
        <time>2021-03-30T11:49:28.000Z</time>
      </trkpt>
      <trkpt lat="44.09498" lon="5.98401">
        <ele>558.8</ele>
        <time>2021-03-30T11:49:29.000Z</time>
      </trkpt>
      <trkpt lat="44.09501" lon="5.98395">
        <ele>559</ele>
        <time>2021-03-30T11:49:31.000Z</time>
      </trkpt>
      <trkpt lat="44.09502" lon="5.98392">
        <ele>559</ele>
        <time>2021-03-30T11:49:32.000Z</time>
      </trkpt>
      <trkpt lat="44.09504" lon="5.98386">
        <ele>559.2</ele>
        <time>2021-03-30T11:49:34.000Z</time>
      </trkpt>
      <trkpt lat="44.09505" lon="5.98384">
        <ele>559.4</ele>
        <time>2021-03-30T11:49:35.000Z</time>
      </trkpt>
      <trkpt lat="44.09507" lon="5.98384">
        <ele>559.4</ele>
        <time>2021-03-30T11:49:36.000Z</time>
      </trkpt>
      <trkpt lat="44.09522" lon="5.98385">
        <ele>565.2</ele>
        <time>2021-03-30T11:51:46.000Z</time>
      </trkpt>
      <trkpt lat="44.09521" lon="5.98384">
        <ele>565.2</ele>
        <time>2021-03-30T11:51:47.000Z</time>
      </trkpt>
      <trkpt lat="44.09522" lon="5.98383">
        <ele>565</ele>
        <time>2021-03-30T11:51:48.000Z</time>
      </trkpt>
      <trkpt lat="44.09523" lon="5.98378">
        <ele>565</ele>
        <time>2021-03-30T11:51:50.000Z</time>
      </trkpt>
      <trkpt lat="44.09523" lon="5.98376">
        <ele>565</ele>
        <time>2021-03-30T11:51:51.000Z</time>
      </trkpt>
      <trkpt lat="44.09523" lon="5.98371">
        <ele>565</ele>
        <time>2021-03-30T11:51:53.000Z</time>
      </trkpt>
      <trkpt lat="44.09523" lon="5.9837">
        <ele>565</ele>
        <time>2021-03-30T11:51:54.000Z</time>
      </trkpt>
      <trkpt lat="44.09524" lon="5.98368">
        <ele>565</ele>
        <time>2021-03-30T11:51:55.000Z</time>
      </trkpt>
      <trkpt lat="44.09527" lon="5.98367">
        <ele>565</ele>
        <time>2021-03-30T11:51:57.000Z</time>
      </trkpt>
      <trkpt lat="44.09529" lon="5.98366">
        <ele>565.2</ele>
        <time>2021-03-30T11:51:58.000Z</time>
      </trkpt>
      <trkpt lat="44.09531" lon="5.98364">
        <ele>565.2</ele>
        <time>2021-03-30T11:51:59.000Z</time>
      </trkpt>
      <trkpt lat="44.09535" lon="5.9836">
        <ele>565.2</ele>
        <time>2021-03-30T11:52:01.000Z</time>
      </trkpt>
      <trkpt lat="44.09536" lon="5.98359">
        <ele>565.2</ele>
        <time>2021-03-30T11:52:02.000Z</time>
      </trkpt>
      <trkpt lat="44.0954" lon="5.98357">
        <ele>565.2</ele>
        <time>2021-03-30T11:52:04.000Z</time>
      </trkpt>
      <trkpt lat="44.09542" lon="5.98356">
        <ele>565.2</ele>
        <time>2021-03-30T11:52:05.000Z</time>
      </trkpt>
      <trkpt lat="44.09544" lon="5.98354">
        <ele>565.2</ele>
        <time>2021-03-30T11:52:06.000Z</time>
      </trkpt>
      <trkpt lat="44.09548" lon="5.9835">
        <ele>565.2</ele>
        <time>2021-03-30T11:52:08.000Z</time>
      </trkpt>
      <trkpt lat="44.0955" lon="5.98348">
        <ele>565.4</ele>
        <time>2021-03-30T11:52:09.000Z</time>
      </trkpt>
      <trkpt lat="44.09551" lon="5.98347">
        <ele>565.4</ele>
        <time>2021-03-30T11:52:10.000Z</time>
      </trkpt>
      <trkpt lat="44.09555" lon="5.98345">
        <ele>565.6</ele>
        <time>2021-03-30T11:52:12.000Z</time>
      </trkpt>
      <trkpt lat="44.09557" lon="5.98344">
        <ele>565.6</ele>
        <time>2021-03-30T11:52:13.000Z</time>
      </trkpt>
      <trkpt lat="44.09559" lon="5.98344">
        <ele>565.8</ele>
        <time>2021-03-30T11:52:14.000Z</time>
      </trkpt>
      <trkpt lat="44.09563" lon="5.98343">
        <ele>566.2</ele>
        <time>2021-03-30T11:52:16.000Z</time>
      </trkpt>
      <trkpt lat="44.09566" lon="5.98343">
        <ele>566.2</ele>
        <time>2021-03-30T11:52:17.000Z</time>
      </trkpt>
      <trkpt lat="44.09572" lon="5.98341">
        <ele>566.6</ele>
        <time>2021-03-30T11:52:19.000Z</time>
      </trkpt>
      <trkpt lat="44.09575" lon="5.98339">
        <ele>566.6</ele>
        <time>2021-03-30T11:52:20.000Z</time>
      </trkpt>
      <trkpt lat="44.09577" lon="5.98338">
        <ele>566.8</ele>
        <time>2021-03-30T11:52:21.000Z</time>
      </trkpt>
      <trkpt lat="44.09581" lon="5.98336">
        <ele>567.2</ele>
        <time>2021-03-30T11:52:23.000Z</time>
      </trkpt>
      <trkpt lat="44.09582" lon="5.98336">
        <ele>567.2</ele>
        <time>2021-03-30T11:52:24.000Z</time>
      </trkpt>
      <trkpt lat="44.09583" lon="5.98338">
        <ele>567.2</ele>
        <time>2021-03-30T11:52:25.000Z</time>
      </trkpt>
      <trkpt lat="44.09588" lon="5.98339">
        <ele>567.4</ele>
        <time>2021-03-30T11:52:27.000Z</time>
      </trkpt>
      <trkpt lat="44.09591" lon="5.98339">
        <ele>567.4</ele>
        <time>2021-03-30T11:52:28.000Z</time>
      </trkpt>
      <trkpt lat="44.09596" lon="5.98338">
        <ele>567.6</ele>
        <time>2021-03-30T11:52:30.000Z</time>
      </trkpt>
      <trkpt lat="44.096" lon="5.98339">
        <ele>567.8</ele>
        <time>2021-03-30T11:52:31.000Z</time>
      </trkpt>
      <trkpt lat="44.09602" lon="5.9834">
        <ele>567.8</ele>
        <time>2021-03-30T11:52:32.000Z</time>
      </trkpt>
      <trkpt lat="44.09608" lon="5.98344">
        <ele>568</ele>
        <time>2021-03-30T11:52:34.000Z</time>
      </trkpt>
      <trkpt lat="44.0961" lon="5.98344">
        <ele>568.2</ele>
        <time>2021-03-30T11:52:35.000Z</time>
      </trkpt>
      <trkpt lat="44.09613" lon="5.98344">
        <ele>568.2</ele>
        <time>2021-03-30T11:52:36.000Z</time>
      </trkpt>
      <trkpt lat="44.09619" lon="5.98341">
        <ele>568.4</ele>
        <time>2021-03-30T11:52:38.000Z</time>
      </trkpt>
      <trkpt lat="44.09621" lon="5.98339">
        <ele>568.4</ele>
        <time>2021-03-30T11:52:39.000Z</time>
      </trkpt>
      <trkpt lat="44.09626" lon="5.98335">
        <ele>568.6</ele>
        <time>2021-03-30T11:52:41.000Z</time>
      </trkpt>
      <trkpt lat="44.09628" lon="5.98334">
        <ele>568.6</ele>
        <time>2021-03-30T11:52:42.000Z</time>
      </trkpt>
      <trkpt lat="44.09631" lon="5.98333">
        <ele>568.6</ele>
        <time>2021-03-30T11:52:43.000Z</time>
      </trkpt>
      <trkpt lat="44.09636" lon="5.98332">
        <ele>568.8</ele>
        <time>2021-03-30T11:52:45.000Z</time>
      </trkpt>
      <trkpt lat="44.09639" lon="5.98333">
        <ele>568.8</ele>
        <time>2021-03-30T11:52:46.000Z</time>
      </trkpt>
      <trkpt lat="44.0964" lon="5.98336">
        <ele>569</ele>
        <time>2021-03-30T11:52:47.000Z</time>
      </trkpt>
      <trkpt lat="44.09643" lon="5.98341">
        <ele>569</ele>
        <time>2021-03-30T11:52:49.000Z</time>
      </trkpt>
      <trkpt lat="44.09646" lon="5.98343">
        <ele>569</ele>
        <time>2021-03-30T11:52:50.000Z</time>
      </trkpt>
      <trkpt lat="44.09651" lon="5.98347">
        <ele>569.2</ele>
        <time>2021-03-30T11:52:52.000Z</time>
      </trkpt>
      <trkpt lat="44.09654" lon="5.98349">
        <ele>569.4</ele>
        <time>2021-03-30T11:52:53.000Z</time>
      </trkpt>
      <trkpt lat="44.09657" lon="5.9835">
        <ele>569.4</ele>
        <time>2021-03-30T11:52:54.000Z</time>
      </trkpt>
      <trkpt lat="44.09662" lon="5.9835">
        <ele>569.6</ele>
        <time>2021-03-30T11:52:56.000Z</time>
      </trkpt>
      <trkpt lat="44.09664" lon="5.98349">
        <ele>569.6</ele>
        <time>2021-03-30T11:52:57.000Z</time>
      </trkpt>
      <trkpt lat="44.09665" lon="5.98347">
        <ele>569.6</ele>
        <time>2021-03-30T11:52:58.000Z</time>
      </trkpt>
      <trkpt lat="44.09668" lon="5.98343">
        <ele>569.8</ele>
        <time>2021-03-30T11:53:00.000Z</time>
      </trkpt>
      <trkpt lat="44.0967" lon="5.98344">
        <ele>569.8</ele>
        <time>2021-03-30T11:53:01.000Z</time>
      </trkpt>
      <trkpt lat="44.09671" lon="5.98345">
        <ele>569.8</ele>
        <time>2021-03-30T11:53:02.000Z</time>
      </trkpt>
      <trkpt lat="44.09675" lon="5.98347">
        <ele>570</ele>
        <time>2021-03-30T11:53:04.000Z</time>
      </trkpt>
      <trkpt lat="44.09677" lon="5.98347">
        <ele>570</ele>
        <time>2021-03-30T11:53:05.000Z</time>
      </trkpt>
      <trkpt lat="44.09681" lon="5.98347">
        <ele>570.2</ele>
        <time>2021-03-30T11:53:07.000Z</time>
      </trkpt>
      <trkpt lat="44.09683" lon="5.98347">
        <ele>570.4</ele>
        <time>2021-03-30T11:53:08.000Z</time>
      </trkpt>
      <trkpt lat="44.09685" lon="5.98347">
        <ele>570.6</ele>
        <time>2021-03-30T11:53:09.000Z</time>
      </trkpt>
      <trkpt lat="44.09689" lon="5.98345">
        <ele>570.8</ele>
        <time>2021-03-30T11:53:11.000Z</time>
      </trkpt>
      <trkpt lat="44.09691" lon="5.98345">
        <ele>570.8</ele>
        <time>2021-03-30T11:53:12.000Z</time>
      </trkpt>
      <trkpt lat="44.09692" lon="5.98344">
        <ele>571</ele>
        <time>2021-03-30T11:53:13.000Z</time>
      </trkpt>
      <trkpt lat="44.09695" lon="5.98344">
        <ele>571.4</ele>
        <time>2021-03-30T11:53:15.000Z</time>
      </trkpt>
      <trkpt lat="44.09697" lon="5.98343">
        <ele>571.6</ele>
        <time>2021-03-30T11:53:16.000Z</time>
      </trkpt>
      <trkpt lat="44.09699" lon="5.98342">
        <ele>571.8</ele>
        <time>2021-03-30T11:53:18.000Z</time>
      </trkpt>
      <trkpt lat="44.09699" lon="5.98342">
        <ele>571.8</ele>
        <time>2021-03-30T11:53:19.000Z</time>
      </trkpt>
      <trkpt lat="44.09699" lon="5.98342">
        <ele>571.6</ele>
        <time>2021-03-30T11:53:20.000Z</time>
      </trkpt>
      <trkpt lat="44.09699" lon="5.98339">
        <ele>571.6</ele>
        <time>2021-03-30T11:53:22.000Z</time>
      </trkpt>
      <trkpt lat="44.097" lon="5.98337">
        <ele>571.4</ele>
        <time>2021-03-30T11:53:23.000Z</time>
      </trkpt>
      <trkpt lat="44.09702" lon="5.98335">
        <ele>571.4</ele>
        <time>2021-03-30T11:53:24.000Z</time>
      </trkpt>
      <trkpt lat="44.09704" lon="5.98332">
        <ele>571.4</ele>
        <time>2021-03-30T11:53:26.000Z</time>
      </trkpt>
      <trkpt lat="44.09706" lon="5.98331">
        <ele>571.4</ele>
        <time>2021-03-30T11:53:27.000Z</time>
      </trkpt>
      <trkpt lat="44.09709" lon="5.98328">
        <ele>571.4</ele>
        <time>2021-03-30T11:53:29.000Z</time>
      </trkpt>
      <trkpt lat="44.0971" lon="5.98326">
        <ele>571.4</ele>
        <time>2021-03-30T11:53:30.000Z</time>
      </trkpt>
      <trkpt lat="44.09711" lon="5.98324">
        <ele>571.4</ele>
        <time>2021-03-30T11:53:31.000Z</time>
      </trkpt>
      <trkpt lat="44.09714" lon="5.98322">
        <ele>571.6</ele>
        <time>2021-03-30T11:53:33.000Z</time>
      </trkpt>
      <trkpt lat="44.09715" lon="5.98322">
        <ele>571.8</ele>
        <time>2021-03-30T11:53:34.000Z</time>
      </trkpt>
      <trkpt lat="44.09716" lon="5.98321">
        <ele>572</ele>
        <time>2021-03-30T11:53:35.000Z</time>
      </trkpt>
      <trkpt lat="44.09718" lon="5.98317">
        <ele>572.2</ele>
        <time>2021-03-30T11:53:37.000Z</time>
      </trkpt>
      <trkpt lat="44.09719" lon="5.98315">
        <ele>572.4</ele>
        <time>2021-03-30T11:53:38.000Z</time>
      </trkpt>
      <trkpt lat="44.0972" lon="5.98313">
        <ele>572.6</ele>
        <time>2021-03-30T11:53:39.000Z</time>
      </trkpt>
      <trkpt lat="44.09723" lon="5.98309">
        <ele>572.8</ele>
        <time>2021-03-30T11:53:41.000Z</time>
      </trkpt>
      <trkpt lat="44.09724" lon="5.98307">
        <ele>573</ele>
        <time>2021-03-30T11:53:42.000Z</time>
      </trkpt>
      <trkpt lat="44.09728" lon="5.98307">
        <ele>573.2</ele>
        <time>2021-03-30T11:53:44.000Z</time>
      </trkpt>
      <trkpt lat="44.0973" lon="5.98308">
        <ele>573.2</ele>
        <time>2021-03-30T11:53:45.000Z</time>
      </trkpt>
      <trkpt lat="44.09732" lon="5.98308">
        <ele>573.4</ele>
        <time>2021-03-30T11:53:46.000Z</time>
      </trkpt>
      <trkpt lat="44.09738" lon="5.98308">
        <ele>573.6</ele>
        <time>2021-03-30T11:53:48.000Z</time>
      </trkpt>
      <trkpt lat="44.0974" lon="5.98308">
        <ele>573.6</ele>
        <time>2021-03-30T11:53:49.000Z</time>
      </trkpt>
      <trkpt lat="44.09743" lon="5.98309">
        <ele>573.8</ele>
        <time>2021-03-30T11:53:50.000Z</time>
      </trkpt>
      <trkpt lat="44.09749" lon="5.98312">
        <ele>574</ele>
        <time>2021-03-30T11:53:52.000Z</time>
      </trkpt>
      <trkpt lat="44.09753" lon="5.98313">
        <ele>574.2</ele>
        <time>2021-03-30T11:53:53.000Z</time>
      </trkpt>
      <trkpt lat="44.0976" lon="5.98311">
        <ele>574.4</ele>
        <time>2021-03-30T11:53:55.000Z</time>
      </trkpt>
      <trkpt lat="44.09762" lon="5.98309">
        <ele>574.6</ele>
        <time>2021-03-30T11:53:56.000Z</time>
      </trkpt>
      <trkpt lat="44.09763" lon="5.98307">
        <ele>574.6</ele>
        <time>2021-03-30T11:53:57.000Z</time>
      </trkpt>
      <trkpt lat="44.09767" lon="5.98304">
        <ele>574.8</ele>
        <time>2021-03-30T11:53:59.000Z</time>
      </trkpt>
      <trkpt lat="44.09768" lon="5.98303">
        <ele>574.8</ele>
        <time>2021-03-30T11:54:00.000Z</time>
      </trkpt>
      <trkpt lat="44.0977" lon="5.98303">
        <ele>574.8</ele>
        <time>2021-03-30T11:54:01.000Z</time>
      </trkpt>
      <trkpt lat="44.09776" lon="5.98305">
        <ele>575.2</ele>
        <time>2021-03-30T11:54:03.000Z</time>
      </trkpt>
      <trkpt lat="44.09779" lon="5.98306">
        <ele>575.2</ele>
        <time>2021-03-30T11:54:04.000Z</time>
      </trkpt>
      <trkpt lat="44.09786" lon="5.98305">
        <ele>575.6</ele>
        <time>2021-03-30T11:54:06.000Z</time>
      </trkpt>
      <trkpt lat="44.09789" lon="5.98303">
        <ele>575.6</ele>
        <time>2021-03-30T11:54:07.000Z</time>
      </trkpt>
      <trkpt lat="44.09792" lon="5.98302">
        <ele>575.8</ele>
        <time>2021-03-30T11:54:08.000Z</time>
      </trkpt>
      <trkpt lat="44.09797" lon="5.98298">
        <ele>576</ele>
        <time>2021-03-30T11:54:10.000Z</time>
      </trkpt>
      <trkpt lat="44.098" lon="5.98298">
        <ele>576</ele>
        <time>2021-03-30T11:54:11.000Z</time>
      </trkpt>
      <trkpt lat="44.09803" lon="5.983">
        <ele>576.2</ele>
        <time>2021-03-30T11:54:12.000Z</time>
      </trkpt>
      <trkpt lat="44.09808" lon="5.98303">
        <ele>576.4</ele>
        <time>2021-03-30T11:54:14.000Z</time>
      </trkpt>
      <trkpt lat="44.0981" lon="5.98306">
        <ele>576.6</ele>
        <time>2021-03-30T11:54:15.000Z</time>
      </trkpt>
      <trkpt lat="44.09811" lon="5.98309">
        <ele>576.6</ele>
        <time>2021-03-30T11:54:16.000Z</time>
      </trkpt>
      <trkpt lat="44.09817" lon="5.98313">
        <ele>576.8</ele>
        <time>2021-03-30T11:54:18.000Z</time>
      </trkpt>
      <trkpt lat="44.0982" lon="5.98313">
        <ele>576.8</ele>
        <time>2021-03-30T11:54:19.000Z</time>
      </trkpt>
      <trkpt lat="44.09824" lon="5.98313">
        <ele>577</ele>
        <time>2021-03-30T11:54:21.000Z</time>
      </trkpt>
      <trkpt lat="44.09826" lon="5.98313">
        <ele>577</ele>
        <time>2021-03-30T11:54:22.000Z</time>
      </trkpt>
      <trkpt lat="44.09829" lon="5.98314">
        <ele>577</ele>
        <time>2021-03-30T11:54:23.000Z</time>
      </trkpt>
      <trkpt lat="44.09834" lon="5.98314">
        <ele>577.2</ele>
        <time>2021-03-30T11:54:25.000Z</time>
      </trkpt>
      <trkpt lat="44.09835" lon="5.98316">
        <ele>577.4</ele>
        <time>2021-03-30T11:54:26.000Z</time>
      </trkpt>
      <trkpt lat="44.09835" lon="5.98318">
        <ele>577.4</ele>
        <time>2021-03-30T11:54:27.000Z</time>
      </trkpt>
      <trkpt lat="44.09837" lon="5.98324">
        <ele>577.4</ele>
        <time>2021-03-30T11:54:29.000Z</time>
      </trkpt>
      <trkpt lat="44.09838" lon="5.98326">
        <ele>577.2</ele>
        <time>2021-03-30T11:54:30.000Z</time>
      </trkpt>
      <trkpt lat="44.0984" lon="5.98332">
        <ele>577.2</ele>
        <time>2021-03-30T11:54:32.000Z</time>
      </trkpt>
      <trkpt lat="44.09842" lon="5.98334">
        <ele>577</ele>
        <time>2021-03-30T11:54:33.000Z</time>
      </trkpt>
      <trkpt lat="44.09843" lon="5.98335">
        <ele>577</ele>
        <time>2021-03-30T11:54:34.000Z</time>
      </trkpt>
      <trkpt lat="44.09844" lon="5.98335">
        <ele>577</ele>
        <time>2021-03-30T11:54:36.000Z</time>
      </trkpt>
      <trkpt lat="44.09844" lon="5.98335">
        <ele>577.2</ele>
        <time>2021-03-30T11:54:37.000Z</time>
      </trkpt>
      <trkpt lat="44.09844" lon="5.98335">
        <ele>577.2</ele>
        <time>2021-03-30T11:54:38.000Z</time>
      </trkpt>
      <trkpt lat="44.09844" lon="5.98335">
        <ele>577.2</ele>
        <time>2021-03-30T11:54:40.000Z</time>
      </trkpt>
      <trkpt lat="44.09844" lon="5.98335">
        <ele>577.2</ele>
        <time>2021-03-30T11:54:41.000Z</time>
      </trkpt>
      <trkpt lat="44.09844" lon="5.98335">
        <ele>577.4</ele>
        <time>2021-03-30T11:54:43.000Z</time>
      </trkpt>
      <trkpt lat="44.09844" lon="5.98335">
        <ele>577.4</ele>
        <time>2021-03-30T11:54:44.000Z</time>
      </trkpt>
      <trkpt lat="44.09844" lon="5.98335">
        <ele>577.4</ele>
        <time>2021-03-30T11:54:45.000Z</time>
      </trkpt>
      <trkpt lat="44.09844" lon="5.98335">
        <ele>577.4</ele>
        <time>2021-03-30T11:54:47.000Z</time>
      </trkpt>
      <trkpt lat="44.09847" lon="5.98338">
        <ele>577.4</ele>
        <time>2021-03-30T11:54:48.000Z</time>
      </trkpt>
      <trkpt lat="44.0985" lon="5.98339">
        <ele>577.4</ele>
        <time>2021-03-30T11:54:49.000Z</time>
      </trkpt>
      <trkpt lat="44.09854" lon="5.98338">
        <ele>577.4</ele>
        <time>2021-03-30T11:54:51.000Z</time>
      </trkpt>
      <trkpt lat="44.09857" lon="5.98338">
        <ele>577.6</ele>
        <time>2021-03-30T11:54:52.000Z</time>
      </trkpt>
      <trkpt lat="44.09863" lon="5.98337">
        <ele>577.8</ele>
        <time>2021-03-30T11:54:54.000Z</time>
      </trkpt>
      <trkpt lat="44.09866" lon="5.98337">
        <ele>578</ele>
        <time>2021-03-30T11:54:55.000Z</time>
      </trkpt>
      <trkpt lat="44.09869" lon="5.98337">
        <ele>578</ele>
        <time>2021-03-30T11:54:56.000Z</time>
      </trkpt>
      <trkpt lat="44.09876" lon="5.98336">
        <ele>578.2</ele>
        <time>2021-03-30T11:54:58.000Z</time>
      </trkpt>
      <trkpt lat="44.09878" lon="5.98335">
        <ele>578.2</ele>
        <time>2021-03-30T11:54:59.000Z</time>
      </trkpt>
      <trkpt lat="44.0988" lon="5.98333">
        <ele>578.4</ele>
        <time>2021-03-30T11:55:00.000Z</time>
      </trkpt>
      <trkpt lat="44.09884" lon="5.98329">
        <ele>578.4</ele>
        <time>2021-03-30T11:55:02.000Z</time>
      </trkpt>
      <trkpt lat="44.09885" lon="5.98328">
        <ele>578.6</ele>
        <time>2021-03-30T11:55:03.000Z</time>
      </trkpt>
      <trkpt lat="44.09886" lon="5.98326">
        <ele>578.6</ele>
        <time>2021-03-30T11:55:04.000Z</time>
      </trkpt>
      <trkpt lat="44.09888" lon="5.98322">
        <ele>578.6</ele>
        <time>2021-03-30T11:55:06.000Z</time>
      </trkpt>
      <trkpt lat="44.09889" lon="5.98322">
        <ele>578.8</ele>
        <time>2021-03-30T11:55:07.000Z</time>
      </trkpt>
      <trkpt lat="44.09889" lon="5.98325">
        <ele>578.8</ele>
        <time>2021-03-30T11:55:09.000Z</time>
      </trkpt>
      <trkpt lat="44.09888" lon="5.98326">
        <ele>578.8</ele>
        <time>2021-03-30T11:55:10.000Z</time>
      </trkpt>
      <trkpt lat="44.09888" lon="5.98328">
        <ele>578.6</ele>
        <time>2021-03-30T11:55:11.000Z</time>
      </trkpt>
      <trkpt lat="44.0989" lon="5.98331">
        <ele>578.6</ele>
        <time>2021-03-30T11:55:13.000Z</time>
      </trkpt>
      <trkpt lat="44.09893" lon="5.98331">
        <ele>578.8</ele>
        <time>2021-03-30T11:55:14.000Z</time>
      </trkpt>
      <trkpt lat="44.09895" lon="5.9833">
        <ele>578.8</ele>
        <time>2021-03-30T11:55:15.000Z</time>
      </trkpt>
      <trkpt lat="44.099" lon="5.98327">
        <ele>578.8</ele>
        <time>2021-03-30T11:55:17.000Z</time>
      </trkpt>
      <trkpt lat="44.09902" lon="5.98325">
        <ele>578.8</ele>
        <time>2021-03-30T11:55:18.000Z</time>
      </trkpt>
      <trkpt lat="44.09907" lon="5.98323">
        <ele>578.8</ele>
        <time>2021-03-30T11:55:20.000Z</time>
      </trkpt>
      <trkpt lat="44.0991" lon="5.98322">
        <ele>579</ele>
        <time>2021-03-30T11:55:21.000Z</time>
      </trkpt>
      <trkpt lat="44.09913" lon="5.98321">
        <ele>579</ele>
        <time>2021-03-30T11:55:22.000Z</time>
      </trkpt>
      <trkpt lat="44.09918" lon="5.98318">
        <ele>579.2</ele>
        <time>2021-03-30T11:55:24.000Z</time>
      </trkpt>
      <trkpt lat="44.09921" lon="5.98318">
        <ele>579.2</ele>
        <time>2021-03-30T11:55:25.000Z</time>
      </trkpt>
      <trkpt lat="44.09924" lon="5.98318">
        <ele>579.4</ele>
        <time>2021-03-30T11:55:26.000Z</time>
      </trkpt>
      <trkpt lat="44.0993" lon="5.98315">
        <ele>579.6</ele>
        <time>2021-03-30T11:55:28.000Z</time>
      </trkpt>
      <trkpt lat="44.09933" lon="5.98315">
        <ele>579.6</ele>
        <time>2021-03-30T11:55:29.000Z</time>
      </trkpt>
      <trkpt lat="44.09939" lon="5.98314">
        <ele>580</ele>
        <time>2021-03-30T11:55:31.000Z</time>
      </trkpt>
      <trkpt lat="44.09942" lon="5.98314">
        <ele>580</ele>
        <time>2021-03-30T11:55:32.000Z</time>
      </trkpt>
      <trkpt lat="44.09945" lon="5.98313">
        <ele>580.2</ele>
        <time>2021-03-30T11:55:33.000Z</time>
      </trkpt>
      <trkpt lat="44.09951" lon="5.98311">
        <ele>580.4</ele>
        <time>2021-03-30T11:55:35.000Z</time>
      </trkpt>
      <trkpt lat="44.09953" lon="5.98311">
        <ele>580.6</ele>
        <time>2021-03-30T11:55:36.000Z</time>
      </trkpt>
      <trkpt lat="44.09956" lon="5.9831">
        <ele>580.8</ele>
        <time>2021-03-30T11:55:37.000Z</time>
      </trkpt>
      <trkpt lat="44.09961" lon="5.98308">
        <ele>581</ele>
        <time>2021-03-30T11:55:39.000Z</time>
      </trkpt>
      <trkpt lat="44.09964" lon="5.98307">
        <ele>581.2</ele>
        <time>2021-03-30T11:55:40.000Z</time>
      </trkpt>
      <trkpt lat="44.09967" lon="5.98307">
        <ele>581.4</ele>
        <time>2021-03-30T11:55:41.000Z</time>
      </trkpt>
      <trkpt lat="44.09973" lon="5.98304">
        <ele>581.4</ele>
        <time>2021-03-30T11:55:43.000Z</time>
      </trkpt>
      <trkpt lat="44.09975" lon="5.98302">
        <ele>581.4</ele>
        <time>2021-03-30T11:55:44.000Z</time>
      </trkpt>
      <trkpt lat="44.0998" lon="5.98299">
        <ele>581.6</ele>
        <time>2021-03-30T11:55:46.000Z</time>
      </trkpt>
      <trkpt lat="44.09982" lon="5.98298">
        <ele>581.6</ele>
        <time>2021-03-30T11:55:47.000Z</time>
      </trkpt>
      <trkpt lat="44.09984" lon="5.98298">
        <ele>581.8</ele>
        <time>2021-03-30T11:55:48.000Z</time>
      </trkpt>
      <trkpt lat="44.0999" lon="5.98297">
        <ele>582</ele>
        <time>2021-03-30T11:55:50.000Z</time>
      </trkpt>
      <trkpt lat="44.09993" lon="5.98296">
        <ele>582.2</ele>
        <time>2021-03-30T11:55:51.000Z</time>
      </trkpt>
      <trkpt lat="44.09996" lon="5.98295">
        <ele>582.4</ele>
        <time>2021-03-30T11:55:52.000Z</time>
      </trkpt>
      <trkpt lat="44.10003" lon="5.98293">
        <ele>582.8</ele>
        <time>2021-03-30T11:55:54.000Z</time>
      </trkpt>
      <trkpt lat="44.10006" lon="5.98293">
        <ele>583</ele>
        <time>2021-03-30T11:55:55.000Z</time>
      </trkpt>
      <trkpt lat="44.1001" lon="5.9829">
        <ele>583.4</ele>
        <time>2021-03-30T11:55:57.000Z</time>
      </trkpt>
      <trkpt lat="44.10012" lon="5.98289">
        <ele>583.6</ele>
        <time>2021-03-30T11:55:58.000Z</time>
      </trkpt>
      <trkpt lat="44.10015" lon="5.98288">
        <ele>583.8</ele>
        <time>2021-03-30T11:55:59.000Z</time>
      </trkpt>
      <trkpt lat="44.1002" lon="5.98287">
        <ele>584.2</ele>
        <time>2021-03-30T11:56:01.000Z</time>
      </trkpt>
      <trkpt lat="44.10024" lon="5.98287">
        <ele>584.4</ele>
        <time>2021-03-30T11:56:02.000Z</time>
      </trkpt>
      <trkpt lat="44.10026" lon="5.98286">
        <ele>584.6</ele>
        <time>2021-03-30T11:56:03.000Z</time>
      </trkpt>
      <trkpt lat="44.10032" lon="5.98285">
        <ele>585</ele>
        <time>2021-03-30T11:56:05.000Z</time>
      </trkpt>
      <trkpt lat="44.10035" lon="5.98285">
        <ele>585.4</ele>
        <time>2021-03-30T11:56:06.000Z</time>
      </trkpt>
      <trkpt lat="44.10041" lon="5.98287">
        <ele>585.8</ele>
        <time>2021-03-30T11:56:08.000Z</time>
      </trkpt>
      <trkpt lat="44.10043" lon="5.98287">
        <ele>586</ele>
        <time>2021-03-30T11:56:09.000Z</time>
      </trkpt>
      <trkpt lat="44.10046" lon="5.98288">
        <ele>586.4</ele>
        <time>2021-03-30T11:56:10.000Z</time>
      </trkpt>
      <trkpt lat="44.10052" lon="5.9829">
        <ele>587</ele>
        <time>2021-03-30T11:56:12.000Z</time>
      </trkpt>
      <trkpt lat="44.10055" lon="5.98292">
        <ele>587.2</ele>
        <time>2021-03-30T11:56:13.000Z</time>
      </trkpt>
      <trkpt lat="44.10058" lon="5.98294">
        <ele>587.4</ele>
        <time>2021-03-30T11:56:14.000Z</time>
      </trkpt>
      <trkpt lat="44.10064" lon="5.98293">
        <ele>587.8</ele>
        <time>2021-03-30T11:56:16.000Z</time>
      </trkpt>
      <trkpt lat="44.10067" lon="5.98292">
        <ele>587.8</ele>
        <time>2021-03-30T11:56:17.000Z</time>
      </trkpt>
      <trkpt lat="44.1007" lon="5.98291">
        <ele>587.8</ele>
        <time>2021-03-30T11:56:18.000Z</time>
      </trkpt>
      <trkpt lat="44.10075" lon="5.98289">
        <ele>587.6</ele>
        <time>2021-03-30T11:56:20.000Z</time>
      </trkpt>
      <trkpt lat="44.10077" lon="5.98288">
        <ele>587.6</ele>
        <time>2021-03-30T11:56:21.000Z</time>
      </trkpt>
      <trkpt lat="44.10083" lon="5.98287">
        <ele>587.4</ele>
        <time>2021-03-30T11:56:23.000Z</time>
      </trkpt>
      <trkpt lat="44.10085" lon="5.98286">
        <ele>587.4</ele>
        <time>2021-03-30T11:56:24.000Z</time>
      </trkpt>
      <trkpt lat="44.10088" lon="5.98286">
        <ele>587.6</ele>
        <time>2021-03-30T11:56:25.000Z</time>
      </trkpt>
      <trkpt lat="44.10093" lon="5.98283">
        <ele>587.6</ele>
        <time>2021-03-30T11:56:27.000Z</time>
      </trkpt>
      <trkpt lat="44.10096" lon="5.98283">
        <ele>587.6</ele>
        <time>2021-03-30T11:56:28.000Z</time>
      </trkpt>
      <trkpt lat="44.10098" lon="5.98282">
        <ele>587.4</ele>
        <time>2021-03-30T11:56:29.000Z</time>
      </trkpt>
      <trkpt lat="44.10103" lon="5.98281">
        <ele>587</ele>
        <time>2021-03-30T11:56:31.000Z</time>
      </trkpt>
      <trkpt lat="44.10106" lon="5.9828">
        <ele>587</ele>
        <time>2021-03-30T11:56:32.000Z</time>
      </trkpt>
      <trkpt lat="44.10111" lon="5.98278">
        <ele>587</ele>
        <time>2021-03-30T11:56:34.000Z</time>
      </trkpt>
      <trkpt lat="44.10114" lon="5.98276">
        <ele>587</ele>
        <time>2021-03-30T11:56:35.000Z</time>
      </trkpt>
      <trkpt lat="44.10116" lon="5.98274">
        <ele>586.8</ele>
        <time>2021-03-30T11:56:36.000Z</time>
      </trkpt>
      <trkpt lat="44.1012" lon="5.9827">
        <ele>586.6</ele>
        <time>2021-03-30T11:56:38.000Z</time>
      </trkpt>
      <trkpt lat="44.10122" lon="5.98268">
        <ele>586.6</ele>
        <time>2021-03-30T11:56:39.000Z</time>
      </trkpt>
      <trkpt lat="44.10124" lon="5.98265">
        <ele>586.4</ele>
        <time>2021-03-30T11:56:40.000Z</time>
      </trkpt>
      <trkpt lat="44.10127" lon="5.98259">
        <ele>586</ele>
        <time>2021-03-30T11:56:42.000Z</time>
      </trkpt>
      <trkpt lat="44.10128" lon="5.98257">
        <ele>585.8</ele>
        <time>2021-03-30T11:56:43.000Z</time>
      </trkpt>
      <trkpt lat="44.10131" lon="5.98251">
        <ele>585.4</ele>
        <time>2021-03-30T11:56:45.000Z</time>
      </trkpt>
      <trkpt lat="44.10132" lon="5.98248">
        <ele>585.2</ele>
        <time>2021-03-30T11:56:46.000Z</time>
      </trkpt>
      <trkpt lat="44.10133" lon="5.98245">
        <ele>585</ele>
        <time>2021-03-30T11:56:47.000Z</time>
      </trkpt>
      <trkpt lat="44.10135" lon="5.98239">
        <ele>584.6</ele>
        <time>2021-03-30T11:56:49.000Z</time>
      </trkpt>
      <trkpt lat="44.10136" lon="5.98236">
        <ele>584.4</ele>
        <time>2021-03-30T11:56:50.000Z</time>
      </trkpt>
      <trkpt lat="44.10137" lon="5.98232">
        <ele>584.2</ele>
        <time>2021-03-30T11:56:51.000Z</time>
      </trkpt>
      <trkpt lat="44.1014" lon="5.98226">
        <ele>583.8</ele>
        <time>2021-03-30T11:56:53.000Z</time>
      </trkpt>
      <trkpt lat="44.10141" lon="5.98224">
        <ele>583.6</ele>
        <time>2021-03-30T11:56:54.000Z</time>
      </trkpt>
      <trkpt lat="44.10143" lon="5.98218">
        <ele>583.2</ele>
        <time>2021-03-30T11:56:56.000Z</time>
      </trkpt>
      <trkpt lat="44.10145" lon="5.98216">
        <ele>583</ele>
        <time>2021-03-30T11:56:57.000Z</time>
      </trkpt>
      <trkpt lat="44.10146" lon="5.98213">
        <ele>582.8</ele>
        <time>2021-03-30T11:56:58.000Z</time>
      </trkpt>
      <trkpt lat="44.10149" lon="5.98207">
        <ele>582.4</ele>
        <time>2021-03-30T11:57:00.000Z</time>
      </trkpt>
      <trkpt lat="44.1015" lon="5.98205">
        <ele>582.2</ele>
        <time>2021-03-30T11:57:01.000Z</time>
      </trkpt>
      <trkpt lat="44.10152" lon="5.98203">
        <ele>582</ele>
        <time>2021-03-30T11:57:02.000Z</time>
      </trkpt>
      <trkpt lat="44.10156" lon="5.98198">
        <ele>581.6</ele>
        <time>2021-03-30T11:57:04.000Z</time>
      </trkpt>
      <trkpt lat="44.10158" lon="5.98197">
        <ele>581.6</ele>
        <time>2021-03-30T11:57:05.000Z</time>
      </trkpt>
      <trkpt lat="44.1016" lon="5.98195">
        <ele>581.8</ele>
        <time>2021-03-30T11:57:06.000Z</time>
      </trkpt>
      <trkpt lat="44.10164" lon="5.98192">
        <ele>581.8</ele>
        <time>2021-03-30T11:57:08.000Z</time>
      </trkpt>
      <trkpt lat="44.10166" lon="5.9819">
        <ele>581.6</ele>
        <time>2021-03-30T11:57:09.000Z</time>
      </trkpt>
      <trkpt lat="44.1017" lon="5.98187">
        <ele>581.6</ele>
        <time>2021-03-30T11:57:11.000Z</time>
      </trkpt>
      <trkpt lat="44.10172" lon="5.98186">
        <ele>581.6</ele>
        <time>2021-03-30T11:57:12.000Z</time>
      </trkpt>
      <trkpt lat="44.10173" lon="5.98185">
        <ele>581.8</ele>
        <time>2021-03-30T11:57:13.000Z</time>
      </trkpt>
      <trkpt lat="44.10177" lon="5.98184">
        <ele>582</ele>
        <time>2021-03-30T11:57:15.000Z</time>
      </trkpt>
      <trkpt lat="44.10178" lon="5.98183">
        <ele>582.2</ele>
        <time>2021-03-30T11:57:16.000Z</time>
      </trkpt>
      <trkpt lat="44.1018" lon="5.98183">
        <ele>582.4</ele>
        <time>2021-03-30T11:57:17.000Z</time>
      </trkpt>
      <trkpt lat="44.10185" lon="5.98182">
        <ele>582.8</ele>
        <time>2021-03-30T11:57:19.000Z</time>
      </trkpt>
      <trkpt lat="44.10187" lon="5.98181">
        <ele>583</ele>
        <time>2021-03-30T11:57:20.000Z</time>
      </trkpt>
      <trkpt lat="44.1018" lon="5.98183">
        <ele>620.3</ele>
      </trkpt>
      <trkpt lat="44.10184" lon="5.98158">
        <ele>622.3</ele>
      </trkpt>
      <trkpt lat="44.10183" lon="5.98126">
        <ele>624.8</ele>
      </trkpt>
      <trkpt lat="44.10154" lon="5.98086">
        <ele>627.8</ele>
      </trkpt>
      <trkpt lat="44.10141" lon="5.98068">
        <ele>629.5</ele>
      </trkpt>
      <trkpt lat="44.10134" lon="5.98063">
        <ele>630</ele>
      </trkpt>
      <trkpt lat="44.10139" lon="5.98067">
        <ele>629.7</ele>
      </trkpt>
      <trkpt lat="44.10146" lon="5.98048">
        <ele>631.7</ele>
      </trkpt>
      <trkpt lat="44.10153" lon="5.98036">
        <ele>633.2</ele>
      </trkpt>
      <trkpt lat="44.1018" lon="5.98028">
        <ele>635</ele>
      </trkpt>
      <trkpt lat="44.10198" lon="5.98021">
        <ele>636.4</ele>
      </trkpt>
      <trkpt lat="44.10239" lon="5.98002">
        <ele>640.2</ele>
      </trkpt>
      <trkpt lat="44.10247" lon="5.97996">
        <ele>641.5</ele>
      </trkpt>
      <trkpt lat="44.1026" lon="5.97981">
        <ele>644.9</ele>
      </trkpt>
      <trkpt lat="44.10272" lon="5.97965">
        <ele>648.2</ele>
      </trkpt>
      <trkpt lat="44.10272" lon="5.97961">
        <ele>648.8</ele>
      </trkpt>
      <trkpt lat="44.10271" lon="5.97959">
        <ele>649.2</ele>
      </trkpt>
      <trkpt lat="44.10268" lon="5.97953">
        <ele>650</ele>
      </trkpt>
      <trkpt lat="44.10266" lon="5.97953">
        <ele>650</ele>
      </trkpt>
      <trkpt lat="44.10242" lon="5.97949">
        <ele>649.9</ele>
      </trkpt>
      <trkpt lat="44.10228" lon="5.97942">
        <ele>650.6</ele>
      </trkpt>
      <trkpt lat="44.10211" lon="5.97932">
        <ele>651.9</ele>
      </trkpt>
      <trkpt lat="44.10155" lon="5.97898">
        <ele>654.7</ele>
      </trkpt>
      <trkpt lat="44.10137" lon="5.97886">
        <ele>654.9</ele>
      </trkpt>
      <trkpt lat="44.10134" lon="5.97883">
        <ele>655.3</ele>
      </trkpt>
      <trkpt lat="44.10132" lon="5.97866">
        <ele>657.7</ele>
      </trkpt>
      <trkpt lat="44.10133" lon="5.97861">
        <ele>658.7</ele>
      </trkpt>
      <trkpt lat="44.10139" lon="5.97855">
        <ele>659.9</ele>
      </trkpt>
      <trkpt lat="44.10167" lon="5.97845">
        <ele>663.3</ele>
      </trkpt>
      <trkpt lat="44.10189" lon="5.97836">
        <ele>666.2</ele>
      </trkpt>
      <trkpt lat="44.10223" lon="5.97822">
        <ele>671</ele>
      </trkpt>
      <trkpt lat="44.10233" lon="5.97818">
        <ele>672.3</ele>
      </trkpt>
      <trkpt lat="44.1025" lon="5.97813">
        <ele>674.5</ele>
      </trkpt>
      <trkpt lat="44.10253" lon="5.9781">
        <ele>674.9</ele>
      </trkpt>
      <trkpt lat="44.10253" lon="5.97808">
        <ele>675.3</ele>
      </trkpt>
      <trkpt lat="44.10252" lon="5.97803">
        <ele>676</ele>
      </trkpt>
      <trkpt lat="44.10249" lon="5.97802">
        <ele>676.2</ele>
      </trkpt>
      <trkpt lat="44.10247" lon="5.97803">
        <ele>675.9</ele>
      </trkpt>
      <trkpt lat="44.1022" lon="5.97802">
        <ele>674.2</ele>
      </trkpt>
      <trkpt lat="44.10215" lon="5.97798">
        <ele>674.5</ele>
      </trkpt>
      <trkpt lat="44.10212" lon="5.97794">
        <ele>674.8</ele>
      </trkpt>
      <trkpt lat="44.102" lon="5.97762">
        <ele>679.4</ele>
      </trkpt>
      <trkpt lat="44.10198" lon="5.97757">
        <ele>680.2</ele>
      </trkpt>
      <trkpt lat="44.10198" lon="5.97751">
        <ele>681.2</ele>
      </trkpt>
      <trkpt lat="44.10201" lon="5.97735">
        <ele>684.2</ele>
      </trkpt>
      <trkpt lat="44.10204" lon="5.97729">
        <ele>685.5</ele>
      </trkpt>
      <trkpt lat="44.10215" lon="5.9772">
        <ele>687.9</ele>
      </trkpt>
      <trkpt lat="44.10218" lon="5.97718">
        <ele>688.5</ele>
      </trkpt>
      <trkpt lat="44.1022" lon="5.97717">
        <ele>688.8</ele>
      </trkpt>
      <trkpt lat="44.10225" lon="5.97719">
        <ele>688.8</ele>
      </trkpt>
      <trkpt lat="44.10228" lon="5.97723">
        <ele>688.4</ele>
      </trkpt>
      <trkpt lat="44.10229" lon="5.97727">
        <ele>687.7</ele>
      </trkpt>
      <trkpt lat="44.1023" lon="5.97737">
        <ele>685.9</ele>
      </trkpt>
      <trkpt lat="44.10232" lon="5.97741">
        <ele>685.4</ele>
      </trkpt>
      <trkpt lat="44.10241" lon="5.97746">
        <ele>685.1</ele>
      </trkpt>
      <trkpt lat="44.10262" lon="5.97753">
        <ele>684.4</ele>
      </trkpt>
      <trkpt lat="44.10269" lon="5.97753">
        <ele>684.3</ele>
      </trkpt>
      <trkpt lat="44.10276" lon="5.9775">
        <ele>684.8</ele>
      </trkpt>
      <trkpt lat="44.10277" lon="5.97747">
        <ele>685.2</ele>
      </trkpt>
      <trkpt lat="44.10278" lon="5.97744">
        <ele>685.7</ele>
      </trkpt>
      <trkpt lat="44.10279" lon="5.97738">
        <ele>686.9</ele>
      </trkpt>
      <trkpt lat="44.10279" lon="5.97735">
        <ele>687.5</ele>
      </trkpt>
      <trkpt lat="44.10277" lon="5.97731">
        <ele>688.2</ele>
      </trkpt>
      <trkpt lat="44.10264" lon="5.97718">
        <ele>690.6</ele>
      </trkpt>
      <trkpt lat="44.1026" lon="5.97712">
        <ele>691.7</ele>
      </trkpt>
      <trkpt lat="44.10252" lon="5.97675">
        <ele>698.5</ele>
      </trkpt>
      <trkpt lat="44.1025" lon="5.9765">
        <ele>702.6</ele>
      </trkpt>
      <trkpt lat="44.10247" lon="5.97631">
        <ele>705.3</ele>
      </trkpt>
      <trkpt lat="44.10238" lon="5.97615">
        <ele>706.7</ele>
      </trkpt>
      <trkpt lat="44.10219" lon="5.9759">
        <ele>707.4</ele>
      </trkpt>
      <trkpt lat="44.10209" lon="5.97572">
        <ele>706.3</ele>
      </trkpt>
      <trkpt lat="44.10209" lon="5.97567">
        <ele>706.1</ele>
      </trkpt>
      <trkpt lat="44.1021" lon="5.97563">
        <ele>706.2</ele>
      </trkpt>
      <trkpt lat="44.10216" lon="5.97558">
        <ele>707.3</ele>
      </trkpt>
      <trkpt lat="44.1022" lon="5.97558">
        <ele>707.9</ele>
      </trkpt>
      <trkpt lat="44.10234" lon="5.97565">
        <ele>710.5</ele>
      </trkpt>
      <trkpt lat="44.1025" lon="5.97568">
        <ele>713.4</ele>
      </trkpt>
      <trkpt lat="44.10254" lon="5.97566">
        <ele>713.5</ele>
      </trkpt>
      <trkpt lat="44.10257" lon="5.97564">
        <ele>713.7</ele>
      </trkpt>
      <trkpt lat="44.10267" lon="5.97565">
        <ele>714</ele>
      </trkpt>
      <trkpt lat="44.1032" lon="5.97572">
        <ele>714.9</ele>
      </trkpt>
      <trkpt lat="44.10355" lon="5.97578">
        <ele>713.1</ele>
      </trkpt>
      <trkpt lat="44.10373" lon="5.9757">
        <ele>712.6</ele>
      </trkpt>
      <trkpt lat="44.10386" lon="5.97571">
        <ele>711.5</ele>
      </trkpt>
      <trkpt lat="44.10408" lon="5.97572">
        <ele>709.9</ele>
      </trkpt>
      <trkpt lat="44.10431" lon="5.97576">
        <ele>706.2</ele>
      </trkpt>
      <trkpt lat="44.10435" lon="5.97581">
        <ele>705.5</ele>
      </trkpt>
      <trkpt lat="44.10457" lon="5.97614">
        <ele>700.4</ele>
      </trkpt>
      <trkpt lat="44.10466" lon="5.9763">
        <ele>699.5</ele>
      </trkpt>
      <trkpt lat="44.10477" lon="5.97655">
        <ele>699.9</ele>
      </trkpt>
      <trkpt lat="44.10479" lon="5.97669">
        <ele>700.3</ele>
      </trkpt>
      <trkpt lat="44.10481" lon="5.97672">
        <ele>700.3</ele>
      </trkpt>
      <trkpt lat="44.10487" lon="5.97674">
        <ele>700.7</ele>
      </trkpt>
      <trkpt lat="44.10491" lon="5.97668">
        <ele>701.3</ele>
      </trkpt>
      <trkpt lat="44.10495" lon="5.97659">
        <ele>700.9</ele>
      </trkpt>
      <trkpt lat="44.10502" lon="5.97652">
        <ele>700</ele>
      </trkpt>
      <trkpt lat="44.10508" lon="5.97662">
        <ele>699.6</ele>
      </trkpt>
      <trkpt lat="44.10529" lon="5.97684">
        <ele>696</ele>
      </trkpt>
      <trkpt lat="44.10542" lon="5.97694">
        <ele>694.2</ele>
      </trkpt>
      <trkpt lat="44.10569" lon="5.97723">
        <ele>693.2</ele>
      </trkpt>
      <trkpt lat="44.10592" lon="5.97733">
        <ele>692.2</ele>
      </trkpt>
      <trkpt lat="44.10607" lon="5.97742">
        <ele>691.8</ele>
      </trkpt>
      <trkpt lat="44.10609" lon="5.97744">
        <ele>692.1</ele>
      </trkpt>
      <trkpt lat="44.10616" lon="5.97751">
        <ele>692.3</ele>
      </trkpt>
      <trkpt lat="44.10621" lon="5.97751">
        <ele>691.7</ele>
      </trkpt>
      <trkpt lat="44.10633" lon="5.97758">
        <ele>689.4</ele>
      </trkpt>
      <trkpt lat="44.10653" lon="5.97765">
        <ele>686.2</ele>
      </trkpt>
      <trkpt lat="44.10657" lon="5.97769">
        <ele>685.3</ele>
      </trkpt>
      <trkpt lat="44.1068" lon="5.97772">
        <ele>683.1</ele>
      </trkpt>
      <trkpt lat="44.10683" lon="5.97768">
        <ele>683.4</ele>
      </trkpt>
      <trkpt lat="44.10689" lon="5.9776">
        <ele>684.3</ele>
      </trkpt>
      <trkpt lat="44.10702" lon="5.97761">
        <ele>683.3</ele>
      </trkpt>
      <trkpt lat="44.1071" lon="5.97761">
        <ele>682.9</ele>
      </trkpt>
      <trkpt lat="44.10718" lon="5.97769">
        <ele>681.3</ele>
      </trkpt>
      <trkpt lat="44.10737" lon="5.97769">
        <ele>680.2</ele>
      </trkpt>
      <trkpt lat="44.10744" lon="5.97774">
        <ele>679.1</ele>
      </trkpt>
      <trkpt lat="44.10758" lon="5.9777">
        <ele>678.4</ele>
      </trkpt>
      <trkpt lat="44.10763" lon="5.97775">
        <ele>677.1</ele>
      </trkpt>
      <trkpt lat="44.10771" lon="5.97777">
        <ele>676</ele>
      </trkpt>
      <trkpt lat="44.10787" lon="5.97774">
        <ele>674.5</ele>
      </trkpt>
      <trkpt lat="44.10792" lon="5.97776">
        <ele>673.7</ele>
      </trkpt>
      <trkpt lat="44.10816" lon="5.9777">
        <ele>671.4</ele>
      </trkpt>
      <trkpt lat="44.10843" lon="5.97777">
        <ele>667.6</ele>
      </trkpt>
      <trkpt lat="44.10854" lon="5.97781">
        <ele>666</ele>
      </trkpt>
      <trkpt lat="44.1088" lon="5.97791">
        <ele>663</ele>
      </trkpt>
      <trkpt lat="44.10885" lon="5.97793">
        <ele>662.5</ele>
      </trkpt>
      <trkpt lat="44.10895" lon="5.97795">
        <ele>661.6</ele>
      </trkpt>
      <trkpt lat="44.10917" lon="5.97794">
        <ele>659.7</ele>
      </trkpt>
      <trkpt lat="44.10929" lon="5.97792">
        <ele>659.4</ele>
      </trkpt>
      <trkpt lat="44.10943" lon="5.9779">
        <ele>659.1</ele>
      </trkpt>
      <trkpt lat="44.10962" lon="5.97794">
        <ele>659.2</ele>
      </trkpt>
      <trkpt lat="44.10985" lon="5.97799">
        <ele>659.6</ele>
      </trkpt>
      <trkpt lat="44.10993" lon="5.978">
        <ele>659.6</ele>
      </trkpt>
      <trkpt lat="44.1101" lon="5.9781">
        <ele>659.7</ele>
      </trkpt>
      <trkpt lat="44.11026" lon="5.97832">
        <ele>661.2</ele>
      </trkpt>
      <trkpt lat="44.11047" lon="5.97856">
        <ele>658.8</ele>
      </trkpt>
      <trkpt lat="44.1105" lon="5.97859">
        <ele>658.6</ele>
      </trkpt>
      <trkpt lat="44.11061" lon="5.97867">
        <ele>658.4</ele>
      </trkpt>
      <trkpt lat="44.1109" lon="5.97874">
        <ele>658.1</ele>
      </trkpt>
      <trkpt lat="44.11101" lon="5.97875">
        <ele>656.8</ele>
      </trkpt>
      <trkpt lat="44.11107" lon="5.97876">
        <ele>656.3</ele>
      </trkpt>
      <trkpt lat="44.11121" lon="5.9788">
        <ele>655.1</ele>
      </trkpt>
      <trkpt lat="44.11132" lon="5.97886">
        <ele>654.8</ele>
      </trkpt>
      <trkpt lat="44.11153" lon="5.97896">
        <ele>654.4</ele>
      </trkpt>
      <trkpt lat="44.11162" lon="5.97897">
        <ele>653.6</ele>
      </trkpt>
      <trkpt lat="44.11177" lon="5.979">
        <ele>651.8</ele>
      </trkpt>
      <trkpt lat="44.11188" lon="5.97901">
        <ele>649.6</ele>
      </trkpt>
      <trkpt lat="44.11198" lon="5.979">
        <ele>647.4</ele>
      </trkpt>
      <trkpt lat="44.11206" lon="5.97906">
        <ele>646.7</ele>
      </trkpt>
      <trkpt lat="44.11226" lon="5.97902">
        <ele>642</ele>
      </trkpt>
      <trkpt lat="44.11234" lon="5.97903">
        <ele>640.5</ele>
      </trkpt>
      <trkpt lat="44.11253" lon="5.97895">
        <ele>635.5</ele>
      </trkpt>
      <trkpt lat="44.11273" lon="5.9789">
        <ele>630.9</ele>
      </trkpt>
      <trkpt lat="44.11287" lon="5.97889">
        <ele>627.9</ele>
      </trkpt>
      <trkpt lat="44.11303" lon="5.97892">
        <ele>625</ele>
      </trkpt>
      <trkpt lat="44.11311" lon="5.97895">
        <ele>623.6</ele>
      </trkpt>
      <trkpt lat="44.11322" lon="5.97891">
        <ele>621</ele>
      </trkpt>
      <trkpt lat="44.11341" lon="5.97876">
        <ele>616.7</ele>
      </trkpt>
      <trkpt lat="44.1135" lon="5.97872">
        <ele>614.8</ele>
      </trkpt>
      <trkpt lat="44.11367" lon="5.97861">
        <ele>611</ele>
      </trkpt>
      <trkpt lat="44.11371" lon="5.97855">
        <ele>609.8</ele>
      </trkpt>
      <trkpt lat="44.11374" lon="5.97853">
        <ele>609.2</ele>
      </trkpt>
      <trkpt lat="44.1138" lon="5.97854">
        <ele>608.2</ele>
      </trkpt>
      <trkpt lat="44.11394" lon="5.97867">
        <ele>606.2</ele>
      </trkpt>
      <trkpt lat="44.11405" lon="5.97873">
        <ele>604.6</ele>
      </trkpt>
      <trkpt lat="44.1142" lon="5.97894">
        <ele>602.8</ele>
      </trkpt>
      <trkpt lat="44.11432" lon="5.97903">
        <ele>600.9</ele>
      </trkpt>
      <trkpt lat="44.11456" lon="5.97932">
        <ele>597</ele>
      </trkpt>
      <trkpt lat="44.11481" lon="5.97957">
        <ele>593.4</ele>
      </trkpt>
      <trkpt lat="44.11493" lon="5.97968">
        <ele>592.6</ele>
      </trkpt>
      <trkpt lat="44.11526" lon="5.97971">
        <ele>588.2</ele>
      </trkpt>
      <trkpt lat="44.11539" lon="5.97975">
        <ele>586.4</ele>
      </trkpt>
      <trkpt lat="44.11546" lon="5.97981">
        <ele>585.9</ele>
      </trkpt>
      <trkpt lat="44.11559" lon="5.97982">
        <ele>584</ele>
      </trkpt>
      <trkpt lat="44.11563" lon="5.97976">
        <ele>582.6</ele>
      </trkpt>
      <trkpt lat="44.11577" lon="5.97972">
        <ele>580</ele>
      </trkpt>
      <trkpt lat="44.11596" lon="5.97966">
        <ele>575.1</ele>
      </trkpt>
      <trkpt lat="44.11603" lon="5.97968">
        <ele>573.8</ele>
      </trkpt>
      <trkpt lat="44.11618" lon="5.97971">
        <ele>570.5</ele>
      </trkpt>
      <trkpt lat="44.11636" lon="5.97957">
        <ele>565</ele>
      </trkpt>
      <trkpt lat="44.11638" lon="5.97957">
        <ele>564.4</ele>
      </trkpt>
      <trkpt lat="44.11642" lon="5.9796">
        <ele>563.8</ele>
      </trkpt>
      <trkpt lat="44.11642" lon="5.97961">
        <ele>563.9</ele>
      </trkpt>
      <trkpt lat="44.11643" lon="5.97963">
        <ele>563.9</ele>
      </trkpt>
      <trkpt lat="44.11633" lon="5.98001">
        <ele>569.3</ele>
      </trkpt>
      <trkpt lat="44.11622" lon="5.98029">
        <ele>568.7</ele>
      </trkpt>
      <trkpt lat="44.11604" lon="5.98075">
        <ele>567.6</ele>
      </trkpt>
      <trkpt lat="44.11591" lon="5.98098">
        <ele>567.8</ele>
      </trkpt>
      <trkpt lat="44.1159" lon="5.981">
        <ele>567.8</ele>
      </trkpt>
      <trkpt lat="44.11564" lon="5.98144">
        <ele>564.7</ele>
      </trkpt>
      <trkpt lat="44.11554" lon="5.98162">
        <ele>562.9</ele>
      </trkpt>
      <trkpt lat="44.11542" lon="5.98178">
        <ele>561.7</ele>
      </trkpt>
      <trkpt lat="44.11526" lon="5.98192">
        <ele>561.1</ele>
      </trkpt>
      <trkpt lat="44.11525" lon="5.98198">
        <ele>560.3</ele>
      </trkpt>
      <trkpt lat="44.11525" lon="5.98204">
        <ele>559.4</ele>
      </trkpt>
      <trkpt lat="44.1153" lon="5.98214">
        <ele>557.3</ele>
      </trkpt>
      <trkpt lat="44.1153" lon="5.98219">
        <ele>556.5</ele>
      </trkpt>
      <trkpt lat="44.11532" lon="5.98231">
        <ele>554.4</ele>
      </trkpt>
      <trkpt lat="44.11537" lon="5.98234">
        <ele>553.4</ele>
      </trkpt>
      <trkpt lat="44.11542" lon="5.98235">
        <ele>552.9</ele>
      </trkpt>
      <trkpt lat="44.11551" lon="5.98235">
        <ele>552</ele>
      </trkpt>
      <trkpt lat="44.11554" lon="5.98237">
        <ele>551.4</ele>
      </trkpt>
      <trkpt lat="44.11557" lon="5.98235">
        <ele>551.5</ele>
      </trkpt>
      <trkpt lat="44.11623" lon="5.9817">
        <ele>549.6</ele>
      </trkpt>
      <trkpt lat="44.11651" lon="5.98141">
        <ele>546.7</ele>
      </trkpt>
      <trkpt lat="44.11688" lon="5.98107">
        <ele>541.9</ele>
      </trkpt>
      <trkpt lat="44.11697" lon="5.98098">
        <ele>540.6</ele>
      </trkpt>
      <trkpt lat="44.11707" lon="5.98085">
        <ele>539.2</ele>
      </trkpt>
      <trkpt lat="44.11722" lon="5.98058">
        <ele>537.3</ele>
      </trkpt>
      <trkpt lat="44.11728" lon="5.98047">
        <ele>536.5</ele>
      </trkpt>
      <trkpt lat="44.11733" lon="5.98042">
        <ele>535.3</ele>
      </trkpt>
      <trkpt lat="44.11741" lon="5.98039">
        <ele>533.3</ele>
      </trkpt>
      <trkpt lat="44.11761" lon="5.98037">
        <ele>527.8</ele>
      </trkpt>
      <trkpt lat="44.11774" lon="5.9803">
        <ele>524.7</ele>
      </trkpt>
      <trkpt lat="44.11786" lon="5.98017">
        <ele>521.8</ele>
      </trkpt>
      <trkpt lat="44.11795" lon="5.9801">
        <ele>519.3</ele>
      </trkpt>
      <trkpt lat="44.11821" lon="5.97995">
        <ele>511.9</ele>
      </trkpt>
      <trkpt lat="44.11829" lon="5.97993">
        <ele>509.3</ele>
      </trkpt>
      <trkpt lat="44.11838" lon="5.97993">
        <ele>507.3</ele>
      </trkpt>
      <trkpt lat="44.11867" lon="5.97994">
        <ele>502.3</ele>
      </trkpt>
      <trkpt lat="44.11878" lon="5.97996">
        <ele>500.5</ele>
      </trkpt>
      <trkpt lat="44.11887" lon="5.97999">
        <ele>498.9</ele>
      </trkpt>
      <trkpt lat="44.11907" lon="5.98015">
        <ele>495.9</ele>
      </trkpt>
      <trkpt lat="44.11877" lon="5.97995">
        <ele>501.6</ele>
        <time>2021-03-30T13:20:27.000Z</time>
      </trkpt>
      <trkpt lat="44.11877" lon="5.97991">
        <ele>501.6</ele>
        <time>2021-03-30T13:20:29.000Z</time>
      </trkpt>
      <trkpt lat="44.11876" lon="5.97989">
        <ele>501.6</ele>
        <time>2021-03-30T13:20:30.000Z</time>
      </trkpt>
      <trkpt lat="44.11876" lon="5.97988">
        <ele>501.6</ele>
        <time>2021-03-30T13:20:31.000Z</time>
      </trkpt>
      <trkpt lat="44.1187" lon="5.97987">
        <ele>501.8</ele>
        <time>2021-03-30T13:22:09.000Z</time>
      </trkpt>
      <trkpt lat="44.1187" lon="5.97985">
        <ele>501.6</ele>
        <time>2021-03-30T13:22:10.000Z</time>
      </trkpt>
      <trkpt lat="44.1187" lon="5.97983">
        <ele>501.6</ele>
        <time>2021-03-30T13:22:11.000Z</time>
      </trkpt>
      <trkpt lat="44.11868" lon="5.97979">
        <ele>501.6</ele>
        <time>2021-03-30T13:22:13.000Z</time>
      </trkpt>
      <trkpt lat="44.11867" lon="5.97977">
        <ele>501.4</ele>
        <time>2021-03-30T13:22:14.000Z</time>
      </trkpt>
      <trkpt lat="44.11864" lon="5.97974">
        <ele>501.2</ele>
        <time>2021-03-30T13:22:16.000Z</time>
      </trkpt>
      <trkpt lat="44.11864" lon="5.97974">
        <ele>501</ele>
        <time>2021-03-30T13:22:17.000Z</time>
      </trkpt>
      <trkpt lat="44.11864" lon="5.97974">
        <ele>501</ele>
        <time>2021-03-30T13:22:18.000Z</time>
      </trkpt>
      <trkpt lat="44.11864" lon="5.97974">
        <ele>500.8</ele>
        <time>2021-03-30T13:22:20.000Z</time>
      </trkpt>
      <trkpt lat="44.11864" lon="5.97974">
        <ele>500.8</ele>
        <time>2021-03-30T13:22:21.000Z</time>
      </trkpt>
      <trkpt lat="44.11864" lon="5.97974">
        <ele>500.8</ele>
        <time>2021-03-30T13:22:22.000Z</time>
      </trkpt>
      <trkpt lat="44.11864" lon="5.97974">
        <ele>500.6</ele>
        <time>2021-03-30T13:22:24.000Z</time>
      </trkpt>
      <trkpt lat="44.11863" lon="5.97972">
        <ele>500.6</ele>
        <time>2021-03-30T13:22:25.000Z</time>
      </trkpt>
      <trkpt lat="44.11862" lon="5.97965">
        <ele>500.4</ele>
        <time>2021-03-30T13:22:27.000Z</time>
      </trkpt>
      <trkpt lat="44.11861" lon="5.97963">
        <ele>500.2</ele>
        <time>2021-03-30T13:22:28.000Z</time>
      </trkpt>
      <trkpt lat="44.11861" lon="5.97962">
        <ele>500.2</ele>
        <time>2021-03-30T13:22:29.000Z</time>
      </trkpt>
      <trkpt lat="44.11859" lon="5.9796">
        <ele>500.2</ele>
        <time>2021-03-30T13:22:31.000Z</time>
      </trkpt>
      <trkpt lat="44.11858" lon="5.97958">
        <ele>500.2</ele>
        <time>2021-03-30T13:22:32.000Z</time>
      </trkpt>
      <trkpt lat="44.11857" lon="5.97956">
        <ele>500</ele>
        <time>2021-03-30T13:22:33.000Z</time>
      </trkpt>
      <trkpt lat="44.11855" lon="5.97951">
        <ele>500</ele>
        <time>2021-03-30T13:22:35.000Z</time>
      </trkpt>
      <trkpt lat="44.11853" lon="5.97948">
        <ele>499.8</ele>
        <time>2021-03-30T13:22:36.000Z</time>
      </trkpt>
      <trkpt lat="44.1185" lon="5.97947">
        <ele>499.8</ele>
        <time>2021-03-30T13:22:38.000Z</time>
      </trkpt>
      <trkpt lat="44.11848" lon="5.97949">
        <ele>499.8</ele>
        <time>2021-03-30T13:22:39.000Z</time>
      </trkpt>
      <trkpt lat="44.11848" lon="5.97951">
        <ele>499.8</ele>
        <time>2021-03-30T13:22:40.000Z</time>
      </trkpt>
      <trkpt lat="44.11844" lon="5.97954">
        <ele>499.4</ele>
        <time>2021-03-30T13:22:42.000Z</time>
      </trkpt>
      <trkpt lat="44.11843" lon="5.97952">
        <ele>499.2</ele>
        <time>2021-03-30T13:22:43.000Z</time>
      </trkpt>
      <trkpt lat="44.11842" lon="5.97949">
        <ele>498.8</ele>
        <time>2021-03-30T13:22:44.000Z</time>
      </trkpt>
      <trkpt lat="44.11842" lon="5.97941">
        <ele>498.2</ele>
        <time>2021-03-30T13:22:46.000Z</time>
      </trkpt>
      <trkpt lat="44.11841" lon="5.97938">
        <ele>497.8</ele>
        <time>2021-03-30T13:22:47.000Z</time>
      </trkpt>
      <trkpt lat="44.1184" lon="5.97936">
        <ele>497.6</ele>
        <time>2021-03-30T13:22:48.000Z</time>
      </trkpt>
      <trkpt lat="44.11837" lon="5.97934">
        <ele>497</ele>
        <time>2021-03-30T13:22:50.000Z</time>
      </trkpt>
      <trkpt lat="44.11836" lon="5.97931">
        <ele>496.8</ele>
        <time>2021-03-30T13:22:51.000Z</time>
      </trkpt>
      <trkpt lat="44.11837" lon="5.97929">
        <ele>496.4</ele>
        <time>2021-03-30T13:22:53.000Z</time>
      </trkpt>
      <trkpt lat="44.11837" lon="5.97929">
        <ele>496.4</ele>
        <time>2021-03-30T13:22:54.000Z</time>
      </trkpt>
      <trkpt lat="44.11837" lon="5.9793">
        <ele>496.2</ele>
        <time>2021-03-30T13:22:55.000Z</time>
      </trkpt>
      <trkpt lat="44.11837" lon="5.9793">
        <ele>496.4</ele>
        <time>2021-03-30T13:22:57.000Z</time>
      </trkpt>
      <trkpt lat="44.11837" lon="5.9793">
        <ele>496.4</ele>
        <time>2021-03-30T13:22:58.000Z</time>
      </trkpt>
      <trkpt lat="44.11837" lon="5.9793">
        <ele>496.2</ele>
        <time>2021-03-30T13:22:59.000Z</time>
      </trkpt>
      <trkpt lat="44.11837" lon="5.9793">
        <ele>496.2</ele>
        <time>2021-03-30T13:23:01.000Z</time>
      </trkpt>
      <trkpt lat="44.11837" lon="5.9793">
        <ele>496</ele>
        <time>2021-03-30T13:23:02.000Z</time>
      </trkpt>
      <trkpt lat="44.11837" lon="5.9793">
        <ele>495.6</ele>
        <time>2021-03-30T13:23:04.000Z</time>
      </trkpt>
      <trkpt lat="44.11837" lon="5.9793">
        <ele>495.6</ele>
        <time>2021-03-30T13:23:05.000Z</time>
      </trkpt>
      <trkpt lat="44.11837" lon="5.9793">
        <ele>495.4</ele>
        <time>2021-03-30T13:23:06.000Z</time>
      </trkpt>
      <trkpt lat="44.11837" lon="5.9793">
        <ele>495</ele>
        <time>2021-03-30T13:23:08.000Z</time>
      </trkpt>
      <trkpt lat="44.11837" lon="5.9793">
        <ele>494.6</ele>
        <time>2021-03-30T13:23:09.000Z</time>
      </trkpt>
      <trkpt lat="44.11837" lon="5.9793">
        <ele>494.2</ele>
        <time>2021-03-30T13:23:10.000Z</time>
      </trkpt>
      <trkpt lat="44.11837" lon="5.9793">
        <ele>493.6</ele>
        <time>2021-03-30T13:23:12.000Z</time>
      </trkpt>
      <trkpt lat="44.11837" lon="5.9793">
        <ele>493.4</ele>
        <time>2021-03-30T13:23:13.000Z</time>
      </trkpt>
      <trkpt lat="44.11837" lon="5.9793">
        <ele>493</ele>
        <time>2021-03-30T13:23:15.000Z</time>
      </trkpt>
      <trkpt lat="44.11837" lon="5.9793">
        <ele>492.8</ele>
        <time>2021-03-30T13:23:16.000Z</time>
      </trkpt>
      <trkpt lat="44.11837" lon="5.9793">
        <ele>492.6</ele>
        <time>2021-03-30T13:23:17.000Z</time>
      </trkpt>
      <trkpt lat="44.11837" lon="5.9793">
        <ele>492</ele>
        <time>2021-03-30T13:23:19.000Z</time>
      </trkpt>
      <trkpt lat="44.11837" lon="5.9793">
        <ele>491.8</ele>
        <time>2021-03-30T13:23:20.000Z</time>
      </trkpt>
      <trkpt lat="44.11837" lon="5.9793">
        <ele>491.6</ele>
        <time>2021-03-30T13:23:21.000Z</time>
      </trkpt>
      <trkpt lat="44.11837" lon="5.9793">
        <ele>491.4</ele>
        <time>2021-03-30T13:23:23.000Z</time>
      </trkpt>
      <trkpt lat="44.11837" lon="5.9793">
        <ele>491.2</ele>
        <time>2021-03-30T13:23:24.000Z</time>
      </trkpt>
      <trkpt lat="44.11837" lon="5.9793">
        <ele>491</ele>
        <time>2021-03-30T13:23:25.000Z</time>
      </trkpt>
      <trkpt lat="44.11837" lon="5.9793">
        <ele>490.6</ele>
        <time>2021-03-30T13:23:27.000Z</time>
      </trkpt>
      <trkpt lat="44.11837" lon="5.9793">
        <ele>490.2</ele>
        <time>2021-03-30T13:23:28.000Z</time>
      </trkpt>
      <trkpt lat="44.11836" lon="5.97929">
        <ele>489.8</ele>
        <time>2021-03-30T13:23:30.000Z</time>
      </trkpt>
      <trkpt lat="44.11837" lon="5.97927">
        <ele>489.6</ele>
        <time>2021-03-30T13:23:31.000Z</time>
      </trkpt>
      <trkpt lat="44.11837" lon="5.97927">
        <ele>489.4</ele>
        <time>2021-03-30T13:23:32.000Z</time>
      </trkpt>
      <trkpt lat="44.11837" lon="5.97926">
        <ele>489</ele>
        <time>2021-03-30T13:23:34.000Z</time>
      </trkpt>
      <trkpt lat="44.11837" lon="5.97926">
        <ele>488.8</ele>
        <time>2021-03-30T13:23:35.000Z</time>
      </trkpt>
      <trkpt lat="44.11837" lon="5.97926">
        <ele>488.6</ele>
        <time>2021-03-30T13:23:36.000Z</time>
      </trkpt>
      <trkpt lat="44.11837" lon="5.97926">
        <ele>488.6</ele>
        <time>2021-03-30T13:23:38.000Z</time>
      </trkpt>
      <trkpt lat="44.1184" lon="5.97926">
        <ele>488.6</ele>
        <time>2021-03-30T13:23:39.000Z</time>
      </trkpt>
      <trkpt lat="44.11844" lon="5.97925">
        <ele>488.6</ele>
        <time>2021-03-30T13:23:41.000Z</time>
      </trkpt>
      <trkpt lat="44.11845" lon="5.97924">
        <ele>488.6</ele>
        <time>2021-03-30T13:23:42.000Z</time>
      </trkpt>
      <trkpt lat="44.11845" lon="5.97922">
        <ele>488.6</ele>
        <time>2021-03-30T13:23:43.000Z</time>
      </trkpt>
      <trkpt lat="44.11844" lon="5.97917">
        <ele>488.6</ele>
        <time>2021-03-30T13:23:45.000Z</time>
      </trkpt>
      <trkpt lat="44.11844" lon="5.97915">
        <ele>488.6</ele>
        <time>2021-03-30T13:23:46.000Z</time>
      </trkpt>
      <trkpt lat="44.11842" lon="5.97913">
        <ele>488.8</ele>
        <time>2021-03-30T13:23:47.000Z</time>
      </trkpt>
      <trkpt lat="44.1184" lon="5.97908">
        <ele>489.2</ele>
        <time>2021-03-30T13:23:49.000Z</time>
      </trkpt>
      <trkpt lat="44.1184" lon="5.97906">
        <ele>489.4</ele>
        <time>2021-03-30T13:23:50.000Z</time>
      </trkpt>
      <trkpt lat="44.11841" lon="5.97902">
        <ele>489.8</ele>
        <time>2021-03-30T13:23:52.000Z</time>
      </trkpt>
      <trkpt lat="44.1184" lon="5.979">
        <ele>490</ele>
        <time>2021-03-30T13:23:53.000Z</time>
      </trkpt>
      <trkpt lat="44.1184" lon="5.97897">
        <ele>490.2</ele>
        <time>2021-03-30T13:23:54.000Z</time>
      </trkpt>
      <trkpt lat="44.11838" lon="5.97893">
        <ele>490.4</ele>
        <time>2021-03-30T13:23:56.000Z</time>
      </trkpt>
      <trkpt lat="44.11837" lon="5.97891">
        <ele>490.8</ele>
        <time>2021-03-30T13:23:57.000Z</time>
      </trkpt>
      <trkpt lat="44.11837" lon="5.97888">
        <ele>491</ele>
        <time>2021-03-30T13:23:58.000Z</time>
      </trkpt>
      <trkpt lat="44.11838" lon="5.97883">
        <ele>491.2</ele>
        <time>2021-03-30T13:24:00.000Z</time>
      </trkpt>
      <trkpt lat="44.11838" lon="5.97881">
        <ele>491.4</ele>
        <time>2021-03-30T13:24:01.000Z</time>
      </trkpt>
      <trkpt lat="44.11839" lon="5.97879">
        <ele>491.4</ele>
        <time>2021-03-30T13:24:02.000Z</time>
      </trkpt>
      <trkpt lat="44.11842" lon="5.97876">
        <ele>491.6</ele>
        <time>2021-03-30T13:24:04.000Z</time>
      </trkpt>
      <trkpt lat="44.11844" lon="5.97874">
        <ele>491.6</ele>
        <time>2021-03-30T13:24:05.000Z</time>
      </trkpt>
      <trkpt lat="44.1185" lon="5.97873">
        <ele>491.6</ele>
        <time>2021-03-30T13:24:07.000Z</time>
      </trkpt>
      <trkpt lat="44.11854" lon="5.97872">
        <ele>491.8</ele>
        <time>2021-03-30T13:24:08.000Z</time>
      </trkpt>
      <trkpt lat="44.11859" lon="5.97871">
        <ele>492</ele>
        <time>2021-03-30T13:24:09.000Z</time>
      </trkpt>
      <trkpt lat="44.11868" lon="5.9787">
        <ele>492.2</ele>
        <time>2021-03-30T13:24:11.000Z</time>
      </trkpt>
      <trkpt lat="44.11871" lon="5.97869">
        <ele>492.2</ele>
        <time>2021-03-30T13:24:12.000Z</time>
      </trkpt>
      <trkpt lat="44.11874" lon="5.97867">
        <ele>492.2</ele>
        <time>2021-03-30T13:24:13.000Z</time>
      </trkpt>
      <trkpt lat="44.11877" lon="5.97866">
        <ele>492.4</ele>
        <time>2021-03-30T13:24:15.000Z</time>
      </trkpt>
      <trkpt lat="44.11881" lon="5.97865">
        <ele>492.6</ele>
        <time>2021-03-30T13:24:16.000Z</time>
      </trkpt>
      <trkpt lat="44.11887" lon="5.97865">
        <ele>492.6</ele>
        <time>2021-03-30T13:24:18.000Z</time>
      </trkpt>
      <trkpt lat="44.11889" lon="5.97864">
        <ele>492.6</ele>
        <time>2021-03-30T13:24:19.000Z</time>
      </trkpt>
      <trkpt lat="44.1189" lon="5.97863">
        <ele>492.6</ele>
        <time>2021-03-30T13:24:20.000Z</time>
      </trkpt>
      <trkpt lat="44.11893" lon="5.9786">
        <ele>492.2</ele>
        <time>2021-03-30T13:24:22.000Z</time>
      </trkpt>
      <trkpt lat="44.11895" lon="5.97859">
        <ele>492</ele>
        <time>2021-03-30T13:24:23.000Z</time>
      </trkpt>
      <trkpt lat="44.11895" lon="5.97859">
        <ele>491.8</ele>
        <time>2021-03-30T13:24:24.000Z</time>
      </trkpt>
      <trkpt lat="44.11896" lon="5.97859">
        <ele>491.8</ele>
        <time>2021-03-30T13:24:26.000Z</time>
      </trkpt>
      <trkpt lat="44.11896" lon="5.97859">
        <ele>491.8</ele>
        <time>2021-03-30T13:24:27.000Z</time>
      </trkpt>
      <trkpt lat="44.11896" lon="5.97859">
        <ele>492</ele>
        <time>2021-03-30T13:24:29.000Z</time>
      </trkpt>
      <trkpt lat="44.11896" lon="5.97862">
        <ele>491.8</ele>
        <time>2021-03-30T13:24:30.000Z</time>
      </trkpt>
      <trkpt lat="44.11896" lon="5.97864">
        <ele>491.8</ele>
        <time>2021-03-30T13:24:31.000Z</time>
      </trkpt>
      <trkpt lat="44.11896" lon="5.97869">
        <ele>491.4</ele>
        <time>2021-03-30T13:24:33.000Z</time>
      </trkpt>
      <trkpt lat="44.11897" lon="5.97873">
        <ele>491.2</ele>
        <time>2021-03-30T13:24:34.000Z</time>
      </trkpt>
      <trkpt lat="44.11897" lon="5.97878">
        <ele>491.2</ele>
        <time>2021-03-30T13:24:35.000Z</time>
      </trkpt>
      <trkpt lat="44.11899" lon="5.97889">
        <ele>491.2</ele>
        <time>2021-03-30T13:24:37.000Z</time>
      </trkpt>
      <trkpt lat="44.11899" lon="5.97894">
        <ele>491</ele>
        <time>2021-03-30T13:24:38.000Z</time>
      </trkpt>
      <trkpt lat="44.11899" lon="5.97901">
        <ele>491</ele>
        <time>2021-03-30T13:24:40.000Z</time>
      </trkpt>
      <trkpt lat="44.11899" lon="5.97903">
        <ele>491</ele>
        <time>2021-03-30T13:24:41.000Z</time>
      </trkpt>
      <trkpt lat="44.11899" lon="5.97904">
        <ele>491</ele>
        <time>2021-03-30T13:24:42.000Z</time>
      </trkpt>
      <trkpt lat="44.11899" lon="5.97906">
        <ele>490.6</ele>
        <time>2021-03-30T13:24:44.000Z</time>
      </trkpt>
      <trkpt lat="44.119" lon="5.97909">
        <ele>490.6</ele>
        <time>2021-03-30T13:24:45.000Z</time>
      </trkpt>
      <trkpt lat="44.11901" lon="5.97911">
        <ele>490.6</ele>
        <time>2021-03-30T13:24:46.000Z</time>
      </trkpt>
      <trkpt lat="44.11904" lon="5.97913">
        <ele>490.8</ele>
        <time>2021-03-30T13:24:48.000Z</time>
      </trkpt>
      <trkpt lat="44.11905" lon="5.97913">
        <ele>490.8</ele>
        <time>2021-03-30T13:24:49.000Z</time>
      </trkpt>
      <trkpt lat="44.11906" lon="5.97911">
        <ele>490.8</ele>
        <time>2021-03-30T13:24:50.000Z</time>
      </trkpt>
      <trkpt lat="44.11908" lon="5.97907">
        <ele>490.8</ele>
        <time>2021-03-30T13:24:52.000Z</time>
      </trkpt>
      <trkpt lat="44.1191" lon="5.97903">
        <ele>490.6</ele>
        <time>2021-03-30T13:24:53.000Z</time>
      </trkpt>
      <trkpt lat="44.11916" lon="5.97896">
        <ele>490.6</ele>
        <time>2021-03-30T13:24:55.000Z</time>
      </trkpt>
      <trkpt lat="44.11919" lon="5.97894">
        <ele>490.6</ele>
        <time>2021-03-30T13:24:56.000Z</time>
      </trkpt>
      <trkpt lat="44.11922" lon="5.97892">
        <ele>490.6</ele>
        <time>2021-03-30T13:24:57.000Z</time>
      </trkpt>
      <trkpt lat="44.11927" lon="5.9789">
        <ele>490.4</ele>
        <time>2021-03-30T13:24:59.000Z</time>
      </trkpt>
      <trkpt lat="44.1193" lon="5.97891">
        <ele>490.4</ele>
        <time>2021-03-30T13:25:00.000Z</time>
      </trkpt>
      <trkpt lat="44.11932" lon="5.97895">
        <ele>490.4</ele>
        <time>2021-03-30T13:25:01.000Z</time>
      </trkpt>
      <trkpt lat="44.11935" lon="5.97903">
        <ele>490.4</ele>
        <time>2021-03-30T13:25:03.000Z</time>
      </trkpt>
      <trkpt lat="44.11936" lon="5.97905">
        <ele>490.2</ele>
        <time>2021-03-30T13:25:04.000Z</time>
      </trkpt>
      <trkpt lat="44.11939" lon="5.97905">
        <ele>490.2</ele>
        <time>2021-03-30T13:25:06.000Z</time>
      </trkpt>
      <trkpt lat="44.11941" lon="5.97905">
        <ele>490.2</ele>
        <time>2021-03-30T13:25:07.000Z</time>
      </trkpt>
      <trkpt lat="44.11943" lon="5.97905">
        <ele>490</ele>
        <time>2021-03-30T13:25:08.000Z</time>
      </trkpt>
      <trkpt lat="44.11948" lon="5.97907">
        <ele>490</ele>
        <time>2021-03-30T13:25:10.000Z</time>
      </trkpt>
      <trkpt lat="44.11953" lon="5.97906">
        <ele>490</ele>
        <time>2021-03-30T13:25:11.000Z</time>
      </trkpt>
      <trkpt lat="44.11957" lon="5.97903">
        <ele>489.8</ele>
        <time>2021-03-30T13:25:12.000Z</time>
      </trkpt>
      <trkpt lat="44.11963" lon="5.97899">
        <ele>489.6</ele>
        <time>2021-03-30T13:25:14.000Z</time>
      </trkpt>
      <trkpt lat="44.11964" lon="5.97897">
        <ele>489.4</ele>
        <time>2021-03-30T13:25:15.000Z</time>
      </trkpt>
      <trkpt lat="44.11964" lon="5.97892">
        <ele>489.2</ele>
        <time>2021-03-30T13:25:17.000Z</time>
      </trkpt>
      <trkpt lat="44.11963" lon="5.97888">
        <ele>489.2</ele>
        <time>2021-03-30T13:25:18.000Z</time>
      </trkpt>
      <trkpt lat="44.11962" lon="5.97886">
        <ele>489</ele>
        <time>2021-03-30T13:25:19.000Z</time>
      </trkpt>
      <trkpt lat="44.11963" lon="5.97884">
        <ele>488.8</ele>
        <time>2021-03-30T13:25:21.000Z</time>
      </trkpt>
      <trkpt lat="44.11964" lon="5.97882">
        <ele>488.6</ele>
        <time>2021-03-30T13:25:22.000Z</time>
      </trkpt>
      <trkpt lat="44.11966" lon="5.9788">
        <ele>488.4</ele>
        <time>2021-03-30T13:25:23.000Z</time>
      </trkpt>
      <trkpt lat="44.1197" lon="5.97877">
        <ele>488</ele>
        <time>2021-03-30T13:25:25.000Z</time>
      </trkpt>
      <trkpt lat="44.11972" lon="5.97876">
        <ele>487.8</ele>
        <time>2021-03-30T13:25:26.000Z</time>
      </trkpt>
      <trkpt lat="44.11974" lon="5.97873">
        <ele>487.6</ele>
        <time>2021-03-30T13:25:27.000Z</time>
      </trkpt>
      <trkpt lat="44.11977" lon="5.97865">
        <ele>487.4</ele>
        <time>2021-03-30T13:25:29.000Z</time>
      </trkpt>
      <trkpt lat="44.11978" lon="5.97862">
        <ele>487.2</ele>
        <time>2021-03-30T13:25:30.000Z</time>
      </trkpt>
      <trkpt lat="44.1198" lon="5.97857">
        <ele>487.4</ele>
        <time>2021-03-30T13:25:32.000Z</time>
      </trkpt>
      <trkpt lat="44.11981" lon="5.97854">
        <ele>487.4</ele>
        <time>2021-03-30T13:25:33.000Z</time>
      </trkpt>
      <trkpt lat="44.11983" lon="5.97851">
        <ele>487.2</ele>
        <time>2021-03-30T13:25:34.000Z</time>
      </trkpt>
      <trkpt lat="44.11984" lon="5.97843">
        <ele>487.2</ele>
        <time>2021-03-30T13:25:36.000Z</time>
      </trkpt>
      <trkpt lat="44.11985" lon="5.97839">
        <ele>487.2</ele>
        <time>2021-03-30T13:25:37.000Z</time>
      </trkpt>
      <trkpt lat="44.11986" lon="5.97832">
        <ele>487</ele>
        <time>2021-03-30T13:25:38.000Z</time>
      </trkpt>
      <trkpt lat="44.11988" lon="5.9782">
        <ele>486.6</ele>
        <time>2021-03-30T13:25:40.000Z</time>
      </trkpt>
      <trkpt lat="44.11989" lon="5.97815">
        <ele>486.2</ele>
        <time>2021-03-30T13:25:41.000Z</time>
      </trkpt>
      <trkpt lat="44.1199" lon="5.97806">
        <ele>485.6</ele>
        <time>2021-03-30T13:25:43.000Z</time>
      </trkpt>
      <trkpt lat="44.11991" lon="5.97802">
        <ele>485.2</ele>
        <time>2021-03-30T13:25:44.000Z</time>
      </trkpt>
      <trkpt lat="44.11992" lon="5.97799">
        <ele>484.8</ele>
        <time>2021-03-30T13:25:45.000Z</time>
      </trkpt>
      <trkpt lat="44.11995" lon="5.97793">
        <ele>484</ele>
        <time>2021-03-30T13:25:47.000Z</time>
      </trkpt>
      <trkpt lat="44.11997" lon="5.97792">
        <ele>483.6</ele>
        <time>2021-03-30T13:25:48.000Z</time>
      </trkpt>
      <trkpt lat="44.11999" lon="5.9779">
        <ele>483.2</ele>
        <time>2021-03-30T13:25:49.000Z</time>
      </trkpt>
      <trkpt lat="44.12004" lon="5.97791">
        <ele>482.8</ele>
        <time>2021-03-30T13:25:51.000Z</time>
      </trkpt>
      <trkpt lat="44.12006" lon="5.97792">
        <ele>482.6</ele>
        <time>2021-03-30T13:25:52.000Z</time>
      </trkpt>
      <trkpt lat="44.12011" lon="5.97796">
        <ele>482.2</ele>
        <time>2021-03-30T13:25:54.000Z</time>
      </trkpt>
      <trkpt lat="44.12012" lon="5.97799">
        <ele>482</ele>
        <time>2021-03-30T13:25:55.000Z</time>
      </trkpt>
      <trkpt lat="44.12014" lon="5.97801">
        <ele>481.8</ele>
        <time>2021-03-30T13:25:56.000Z</time>
      </trkpt>
      <trkpt lat="44.12018" lon="5.97808">
        <ele>481.4</ele>
        <time>2021-03-30T13:25:58.000Z</time>
      </trkpt>
      <trkpt lat="44.1202" lon="5.97811">
        <ele>481.2</ele>
        <time>2021-03-30T13:25:59.000Z</time>
      </trkpt>
      <trkpt lat="44.12022" lon="5.97815">
        <ele>481</ele>
        <time>2021-03-30T13:26:00.000Z</time>
      </trkpt>
      <trkpt lat="44.12024" lon="5.97825">
        <ele>480.8</ele>
        <time>2021-03-30T13:26:02.000Z</time>
      </trkpt>
      <trkpt lat="44.12023" lon="5.97829">
        <ele>480.6</ele>
        <time>2021-03-30T13:26:03.000Z</time>
      </trkpt>
      <trkpt lat="44.12024" lon="5.97833">
        <ele>480.4</ele>
        <time>2021-03-30T13:26:04.000Z</time>
      </trkpt>
      <trkpt lat="44.12024" lon="5.97841">
        <ele>480</ele>
        <time>2021-03-30T13:26:06.000Z</time>
      </trkpt>
      <trkpt lat="44.12024" lon="5.97845">
        <ele>479.8</ele>
        <time>2021-03-30T13:26:07.000Z</time>
      </trkpt>
      <trkpt lat="44.12024" lon="5.97852">
        <ele>479.4</ele>
        <time>2021-03-30T13:26:09.000Z</time>
      </trkpt>
      <trkpt lat="44.12023" lon="5.97856">
        <ele>479.4</ele>
        <time>2021-03-30T13:26:10.000Z</time>
      </trkpt>
      <trkpt lat="44.12023" lon="5.9786">
        <ele>479.2</ele>
        <time>2021-03-30T13:26:11.000Z</time>
      </trkpt>
      <trkpt lat="44.12023" lon="5.97869">
        <ele>479</ele>
        <time>2021-03-30T13:26:13.000Z</time>
      </trkpt>
      <trkpt lat="44.12023" lon="5.97873">
        <ele>479</ele>
        <time>2021-03-30T13:26:14.000Z</time>
      </trkpt>
      <trkpt lat="44.12022" lon="5.97877">
        <ele>479</ele>
        <time>2021-03-30T13:26:15.000Z</time>
      </trkpt>
      <trkpt lat="44.12018" lon="5.97885">
        <ele>478.6</ele>
        <time>2021-03-30T13:26:17.000Z</time>
      </trkpt>
      <trkpt lat="44.12016" lon="5.9789">
        <ele>478.4</ele>
        <time>2021-03-30T13:26:18.000Z</time>
      </trkpt>
      <trkpt lat="44.12013" lon="5.979">
        <ele>478.2</ele>
        <time>2021-03-30T13:26:20.000Z</time>
      </trkpt>
      <trkpt lat="44.12013" lon="5.97905">
        <ele>478.2</ele>
        <time>2021-03-30T13:26:21.000Z</time>
      </trkpt>
      <trkpt lat="44.12013" lon="5.9791">
        <ele>478</ele>
        <time>2021-03-30T13:26:22.000Z</time>
      </trkpt>
      <trkpt lat="44.12013" lon="5.97916">
        <ele>477.8</ele>
        <time>2021-03-30T13:26:24.000Z</time>
      </trkpt>
      <trkpt lat="44.12014" lon="5.9792">
        <ele>477.8</ele>
        <time>2021-03-30T13:26:25.000Z</time>
      </trkpt>
      <trkpt lat="44.12016" lon="5.97923">
        <ele>477.8</ele>
        <time>2021-03-30T13:26:26.000Z</time>
      </trkpt>
      <trkpt lat="44.12019" lon="5.97928">
        <ele>477.8</ele>
        <time>2021-03-30T13:26:28.000Z</time>
      </trkpt>
      <trkpt lat="44.12022" lon="5.97931">
        <ele>477.8</ele>
        <time>2021-03-30T13:26:29.000Z</time>
      </trkpt>
      <trkpt lat="44.12027" lon="5.97935">
        <ele>477.8</ele>
        <time>2021-03-30T13:26:31.000Z</time>
      </trkpt>
      <trkpt lat="44.1203" lon="5.97938">
        <ele>477.8</ele>
        <time>2021-03-30T13:26:32.000Z</time>
      </trkpt>
      <trkpt lat="44.12033" lon="5.9794">
        <ele>478</ele>
        <time>2021-03-30T13:26:33.000Z</time>
      </trkpt>
      <trkpt lat="44.12038" lon="5.97945">
        <ele>478</ele>
        <time>2021-03-30T13:26:35.000Z</time>
      </trkpt>
      <trkpt lat="44.1204" lon="5.97949">
        <ele>478</ele>
        <time>2021-03-30T13:26:36.000Z</time>
      </trkpt>
      <trkpt lat="44.12041" lon="5.97953">
        <ele>478</ele>
        <time>2021-03-30T13:26:37.000Z</time>
      </trkpt>
      <trkpt lat="44.12042" lon="5.97959">
        <ele>478</ele>
        <time>2021-03-30T13:26:39.000Z</time>
      </trkpt>
      <trkpt lat="44.12042" lon="5.97961">
        <ele>477.8</ele>
        <time>2021-03-30T13:26:40.000Z</time>
      </trkpt>
      <trkpt lat="44.12043" lon="5.97965">
        <ele>477.4</ele>
        <time>2021-03-30T13:26:42.000Z</time>
      </trkpt>
      <trkpt lat="44.12044" lon="5.97966">
        <ele>477.4</ele>
        <time>2021-03-30T13:26:43.000Z</time>
      </trkpt>
      <trkpt lat="44.12045" lon="5.97965">
        <ele>477.2</ele>
        <time>2021-03-30T13:26:44.000Z</time>
      </trkpt>
      <trkpt lat="44.12044" lon="5.97961">
        <ele>476.6</ele>
        <time>2021-03-30T13:26:46.000Z</time>
      </trkpt>
      <trkpt lat="44.12043" lon="5.97958">
        <ele>476.2</ele>
        <time>2021-03-30T13:26:47.000Z</time>
      </trkpt>
      <trkpt lat="44.12043" lon="5.97954">
        <ele>475.8</ele>
        <time>2021-03-30T13:26:48.000Z</time>
      </trkpt>
      <trkpt lat="44.12042" lon="5.97947">
        <ele>475</ele>
        <time>2021-03-30T13:26:50.000Z</time>
      </trkpt>
      <trkpt lat="44.12041" lon="5.97943">
        <ele>474.6</ele>
        <time>2021-03-30T13:26:51.000Z</time>
      </trkpt>
      <trkpt lat="44.12041" lon="5.97939">
        <ele>474.4</ele>
        <time>2021-03-30T13:26:52.000Z</time>
      </trkpt>
      <trkpt lat="44.12041" lon="5.97931">
        <ele>473.8</ele>
        <time>2021-03-30T13:26:54.000Z</time>
      </trkpt>
      <trkpt lat="44.12041" lon="5.97928">
        <ele>473.6</ele>
        <time>2021-03-30T13:26:55.000Z</time>
      </trkpt>
      <trkpt lat="44.12042" lon="5.9792">
        <ele>473</ele>
        <time>2021-03-30T13:26:57.000Z</time>
      </trkpt>
      <trkpt lat="44.12044" lon="5.97917">
        <ele>472.8</ele>
        <time>2021-03-30T13:26:58.000Z</time>
      </trkpt>
      <trkpt lat="44.12046" lon="5.97915">
        <ele>472.4</ele>
        <time>2021-03-30T13:26:59.000Z</time>
      </trkpt>
      <trkpt lat="44.1205" lon="5.97915">
        <ele>472</ele>
        <time>2021-03-30T13:27:01.000Z</time>
      </trkpt>
      <trkpt lat="44.12052" lon="5.97917">
        <ele>472</ele>
        <time>2021-03-30T13:27:02.000Z</time>
      </trkpt>
      <trkpt lat="44.12053" lon="5.97919">
        <ele>472</ele>
        <time>2021-03-30T13:27:03.000Z</time>
      </trkpt>
      <trkpt lat="44.1205" lon="5.97921">
        <ele>479.5</ele>
      </trkpt>
      <trkpt lat="44.12041" lon="5.9791">
        <ele>479.2</ele>
      </trkpt>
      <trkpt lat="44.12042" lon="5.979">
        <ele>479.7</ele>
      </trkpt>
      <trkpt lat="44.12042" lon="5.97892">
        <ele>479.9</ele>
      </trkpt>
      <trkpt lat="44.12038" lon="5.97871">
        <ele>480.2</ele>
      </trkpt>
      <trkpt lat="44.12037" lon="5.97859">
        <ele>480.5</ele>
      </trkpt>
      <trkpt lat="44.12036" lon="5.9785">
        <ele>480.7</ele>
      </trkpt>
      <trkpt lat="44.12037" lon="5.9783">
        <ele>481.4</ele>
      </trkpt>
      <trkpt lat="44.12037" lon="5.97821">
        <ele>481.5</ele>
      </trkpt>
      <trkpt lat="44.12038" lon="5.97806">
        <ele>481.7</ele>
      </trkpt>
      <trkpt lat="44.12038" lon="5.978">
        <ele>481.8</ele>
      </trkpt>
      <trkpt lat="44.12035" lon="5.97795">
        <ele>481.6</ele>
      </trkpt>
      <trkpt lat="44.12032" lon="5.97785">
        <ele>481.3</ele>
      </trkpt>
      <trkpt lat="44.1203" lon="5.97781">
        <ele>481.2</ele>
      </trkpt>
      <trkpt lat="44.12029" lon="5.97773">
        <ele>481.2</ele>
      </trkpt>
      <trkpt lat="44.1202" lon="5.97765">
        <ele>480.5</ele>
      </trkpt>
      <trkpt lat="44.12014" lon="5.97766">
        <ele>479.9</ele>
      </trkpt>
      <trkpt lat="44.12006" lon="5.97769">
        <ele>479.1</ele>
      </trkpt>
      <trkpt lat="44.11991" lon="5.97768">
        <ele>479.2</ele>
      </trkpt>
      <trkpt lat="44.11986" lon="5.97768">
        <ele>479.4</ele>
      </trkpt>
      <trkpt lat="44.11966" lon="5.97759">
        <ele>480.4</ele>
      </trkpt>
      <trkpt lat="44.11958" lon="5.9775">
        <ele>480.5</ele>
      </trkpt>
      <trkpt lat="44.11953" lon="5.97745">
        <ele>480.6</ele>
      </trkpt>
      <trkpt lat="44.11942" lon="5.97712">
        <ele>479.9</ele>
      </trkpt>
      <trkpt lat="44.11948" lon="5.9764">
        <ele>480.6</ele>
        <time>2021-03-30T10:11:42.000Z</time>
      </trkpt>
      <trkpt lat="44.11947" lon="5.97645">
        <ele>480.2</ele>
        <time>2021-03-30T10:11:43.000Z</time>
      </trkpt>
      <trkpt lat="44.11945" lon="5.97649">
        <ele>480</ele>
        <time>2021-03-30T10:11:44.000Z</time>
      </trkpt>
      <trkpt lat="44.11944" lon="5.97653">
        <ele>479.6</ele>
        <time>2021-03-30T10:11:45.000Z</time>
      </trkpt>
      <trkpt lat="44.11942" lon="5.97659">
        <ele>479.4</ele>
        <time>2021-03-30T10:11:47.000Z</time>
      </trkpt>
      <trkpt lat="44.11941" lon="5.9766">
        <ele>479.2</ele>
        <time>2021-03-30T10:11:48.000Z</time>
      </trkpt>
      <trkpt lat="44.1194" lon="5.97662">
        <ele>479.2</ele>
        <time>2021-03-30T10:11:49.000Z</time>
      </trkpt>
      <trkpt lat="44.11938" lon="5.97666">
        <ele>479</ele>
        <time>2021-03-30T10:11:51.000Z</time>
      </trkpt>
      <trkpt lat="44.11936" lon="5.97667">
        <ele>478.8</ele>
        <time>2021-03-30T10:11:52.000Z</time>
      </trkpt>
      <trkpt lat="44.11935" lon="5.97668">
        <ele>478.8</ele>
        <time>2021-03-30T10:11:53.000Z</time>
      </trkpt>
      <trkpt lat="44.11933" lon="5.97669">
        <ele>478.6</ele>
        <time>2021-03-30T10:11:55.000Z</time>
      </trkpt>
      <trkpt lat="44.11933" lon="5.9767">
        <ele>478.4</ele>
        <time>2021-03-30T10:11:56.000Z</time>
      </trkpt>
      <trkpt lat="44.11933" lon="5.9767">
        <ele>478.2</ele>
        <time>2021-03-30T10:11:58.000Z</time>
      </trkpt>
      <trkpt lat="44.11933" lon="5.9767">
        <ele>478</ele>
        <time>2021-03-30T10:11:59.000Z</time>
      </trkpt>
      <trkpt lat="44.11933" lon="5.9767">
        <ele>477.8</ele>
        <time>2021-03-30T10:12:00.000Z</time>
      </trkpt>
      <trkpt lat="44.11933" lon="5.9767">
        <ele>477.6</ele>
        <time>2021-03-30T10:12:02.000Z</time>
      </trkpt>
      <trkpt lat="44.11933" lon="5.9767">
        <ele>477.4</ele>
        <time>2021-03-30T10:12:03.000Z</time>
      </trkpt>
      <trkpt lat="44.11933" lon="5.9767">
        <ele>477.2</ele>
        <time>2021-03-30T10:12:04.000Z</time>
      </trkpt>
      <trkpt lat="44.11933" lon="5.9767">
        <ele>477</ele>
        <time>2021-03-30T10:12:06.000Z</time>
      </trkpt>
      <trkpt lat="44.11933" lon="5.9767">
        <ele>476.8</ele>
        <time>2021-03-30T10:12:07.000Z</time>
      </trkpt>
      <trkpt lat="44.11931" lon="5.97671">
        <ele>476.6</ele>
        <time>2021-03-30T10:12:08.000Z</time>
      </trkpt>
      <trkpt lat="44.11928" lon="5.97673">
        <ele>476</ele>
        <time>2021-03-30T10:12:10.000Z</time>
      </trkpt>
      <trkpt lat="44.11927" lon="5.97673">
        <ele>475.8</ele>
        <time>2021-03-30T10:12:11.000Z</time>
      </trkpt>
      <trkpt lat="44.11924" lon="5.97673">
        <ele>475</ele>
        <time>2021-03-30T10:12:13.000Z</time>
      </trkpt>
      <trkpt lat="44.11923" lon="5.97673">
        <ele>474.6</ele>
        <time>2021-03-30T10:12:14.000Z</time>
      </trkpt>
      <trkpt lat="44.11923" lon="5.97673">
        <ele>474.4</ele>
        <time>2021-03-30T10:12:15.000Z</time>
      </trkpt>
      <trkpt lat="44.11923" lon="5.97673">
        <ele>473.8</ele>
        <time>2021-03-30T10:12:17.000Z</time>
      </trkpt>
      <trkpt lat="44.11923" lon="5.97673">
        <ele>473.4</ele>
        <time>2021-03-30T10:12:18.000Z</time>
      </trkpt>
      <trkpt lat="44.11921" lon="5.97673">
        <ele>473.2</ele>
        <time>2021-03-30T10:12:19.000Z</time>
      </trkpt>
      <trkpt lat="44.11919" lon="5.97672">
        <ele>472.8</ele>
        <time>2021-03-30T10:12:21.000Z</time>
      </trkpt>
      <trkpt lat="44.11918" lon="5.97672">
        <ele>472.8</ele>
        <time>2021-03-30T10:12:22.000Z</time>
      </trkpt>
      <trkpt lat="44.11916" lon="5.9767">
        <ele>472.6</ele>
        <time>2021-03-30T10:12:24.000Z</time>
      </trkpt>
      <trkpt lat="44.11914" lon="5.97669">
        <ele>472.6</ele>
        <time>2021-03-30T10:12:25.000Z</time>
      </trkpt>
      <trkpt lat="44.11913" lon="5.97668">
        <ele>472.6</ele>
        <time>2021-03-30T10:12:26.000Z</time>
      </trkpt>
      <trkpt lat="44.1191" lon="5.97665">
        <ele>472.8</ele>
        <time>2021-03-30T10:12:28.000Z</time>
      </trkpt>
      <trkpt lat="44.11909" lon="5.97664">
        <ele>472.8</ele>
        <time>2021-03-30T10:12:29.000Z</time>
      </trkpt>
      <trkpt lat="44.11907" lon="5.97663">
        <ele>472.8</ele>
        <time>2021-03-30T10:12:30.000Z</time>
      </trkpt>
      <trkpt lat="44.11903" lon="5.97663">
        <ele>473</ele>
        <time>2021-03-30T10:12:32.000Z</time>
      </trkpt>
      <trkpt lat="44.11902" lon="5.97664">
        <ele>473</ele>
        <time>2021-03-30T10:12:33.000Z</time>
      </trkpt>
      <trkpt lat="44.11897" lon="5.97665">
        <ele>472.8</ele>
        <time>2021-03-30T10:12:35.000Z</time>
      </trkpt>
      <trkpt lat="44.11895" lon="5.97666">
        <ele>472.8</ele>
        <time>2021-03-30T10:12:36.000Z</time>
      </trkpt>
      <trkpt lat="44.11893" lon="5.97667">
        <ele>472.6</ele>
        <time>2021-03-30T10:12:37.000Z</time>
      </trkpt>
      <trkpt lat="44.1189" lon="5.9767">
        <ele>472.2</ele>
        <time>2021-03-30T10:12:39.000Z</time>
      </trkpt>
      <trkpt lat="44.11889" lon="5.97671">
        <ele>472</ele>
        <time>2021-03-30T10:12:40.000Z</time>
      </trkpt>
      <trkpt lat="44.11887" lon="5.97672">
        <ele>472</ele>
        <time>2021-03-30T10:12:41.000Z</time>
      </trkpt>
      <trkpt lat="44.11882" lon="5.97673">
        <ele>471.4</ele>
        <time>2021-03-30T10:12:43.000Z</time>
      </trkpt>
      <trkpt lat="44.11881" lon="5.97673">
        <ele>471.2</ele>
        <time>2021-03-30T10:12:44.000Z</time>
      </trkpt>
      <trkpt lat="44.11876" lon="5.97671">
        <ele>470.8</ele>
        <time>2021-03-30T10:12:46.000Z</time>
      </trkpt>
      <trkpt lat="44.11874" lon="5.97671">
        <ele>470.8</ele>
        <time>2021-03-30T10:12:47.000Z</time>
      </trkpt>
      <trkpt lat="44.11873" lon="5.97671">
        <ele>470.6</ele>
        <time>2021-03-30T10:12:48.000Z</time>
      </trkpt>
      <trkpt lat="44.1187" lon="5.97671">
        <ele>470.8</ele>
        <time>2021-03-30T10:12:50.000Z</time>
      </trkpt>
      <trkpt lat="44.11869" lon="5.97669">
        <ele>470.8</ele>
        <time>2021-03-30T10:12:51.000Z</time>
      </trkpt>
      <trkpt lat="44.11867" lon="5.97667">
        <ele>470.8</ele>
        <time>2021-03-30T10:12:52.000Z</time>
      </trkpt>
      <trkpt lat="44.11864" lon="5.97662">
        <ele>470.8</ele>
        <time>2021-03-30T10:12:54.000Z</time>
      </trkpt>
      <trkpt lat="44.11862" lon="5.97659">
        <ele>470.6</ele>
        <time>2021-03-30T10:12:55.000Z</time>
      </trkpt>
      <trkpt lat="44.11861" lon="5.97657">
        <ele>470.6</ele>
        <time>2021-03-30T10:12:56.000Z</time>
      </trkpt>
      <trkpt lat="44.11859" lon="5.97652">
        <ele>470.6</ele>
        <time>2021-03-30T10:12:58.000Z</time>
      </trkpt>
      <trkpt lat="44.11858" lon="5.97651">
        <ele>470.4</ele>
        <time>2021-03-30T10:12:59.000Z</time>
      </trkpt>
      <trkpt lat="44.11855" lon="5.97646">
        <ele>470.2</ele>
        <time>2021-03-30T10:13:01.000Z</time>
      </trkpt>
      <trkpt lat="44.11855" lon="5.97645">
        <ele>470.2</ele>
        <time>2021-03-30T10:13:02.000Z</time>
      </trkpt>
      <trkpt lat="44.11854" lon="5.97645">
        <ele>470.2</ele>
        <time>2021-03-30T10:13:03.000Z</time>
      </trkpt>
      <trkpt lat="44.11853" lon="5.97645">
        <ele>470.2</ele>
        <time>2021-03-30T10:13:05.000Z</time>
      </trkpt>
      <trkpt lat="44.11853" lon="5.97645">
        <ele>470.2</ele>
        <time>2021-03-30T10:13:06.000Z</time>
      </trkpt>
      <trkpt lat="44.11853" lon="5.97645">
        <ele>470.4</ele>
        <time>2021-03-30T10:13:07.000Z</time>
      </trkpt>
      <trkpt lat="44.11853" lon="5.97645">
        <ele>470.6</ele>
        <time>2021-03-30T10:13:09.000Z</time>
      </trkpt>
      <trkpt lat="44.11853" lon="5.97645">
        <ele>470.6</ele>
        <time>2021-03-30T10:13:10.000Z</time>
      </trkpt>
      <trkpt lat="44.11853" lon="5.97645">
        <ele>470.8</ele>
        <time>2021-03-30T10:13:12.000Z</time>
      </trkpt>
      <trkpt lat="44.11853" lon="5.97645">
        <ele>471</ele>
        <time>2021-03-30T10:13:13.000Z</time>
      </trkpt>
      <trkpt lat="44.11853" lon="5.97645">
        <ele>471</ele>
        <time>2021-03-30T10:13:14.000Z</time>
      </trkpt>
      <trkpt lat="44.11852" lon="5.97643">
        <ele>471.4</ele>
        <time>2021-03-30T10:13:16.000Z</time>
      </trkpt>
      <trkpt lat="44.11852" lon="5.97642">
        <ele>471.4</ele>
        <time>2021-03-30T10:13:17.000Z</time>
      </trkpt>
      <trkpt lat="44.11852" lon="5.97642">
        <ele>471.6</ele>
        <time>2021-03-30T10:13:18.000Z</time>
      </trkpt>
      <trkpt lat="44.11852" lon="5.97642">
        <ele>471.8</ele>
        <time>2021-03-30T10:13:20.000Z</time>
      </trkpt>
      <trkpt lat="44.11853" lon="5.97641">
        <ele>472</ele>
        <time>2021-03-30T10:13:21.000Z</time>
      </trkpt>
      <trkpt lat="44.11853" lon="5.97639">
        <ele>472</ele>
        <time>2021-03-30T10:13:23.000Z</time>
      </trkpt>
      <trkpt lat="44.11853" lon="5.97638">
        <ele>472</ele>
        <time>2021-03-30T10:13:24.000Z</time>
      </trkpt>
      <trkpt lat="44.11854" lon="5.97638">
        <ele>472</ele>
        <time>2021-03-30T10:13:25.000Z</time>
      </trkpt>
      <trkpt lat="44.11854" lon="5.97638">
        <ele>471.6</ele>
        <time>2021-03-30T10:13:27.000Z</time>
      </trkpt>
      <trkpt lat="44.11854" lon="5.97638">
        <ele>471.4</ele>
        <time>2021-03-30T10:13:28.000Z</time>
      </trkpt>
      <trkpt lat="44.11854" lon="5.97638">
        <ele>471.2</ele>
        <time>2021-03-30T10:13:29.000Z</time>
      </trkpt>
      <trkpt lat="44.11854" lon="5.97638">
        <ele>470.6</ele>
        <time>2021-03-30T10:13:31.000Z</time>
      </trkpt>
      <trkpt lat="44.11854" lon="5.97638">
        <ele>470.2</ele>
        <time>2021-03-30T10:13:32.000Z</time>
      </trkpt>
      <trkpt lat="44.11854" lon="5.97638">
        <ele>470</ele>
        <time>2021-03-30T10:13:33.000Z</time>
      </trkpt>
      <trkpt lat="44.11854" lon="5.97638">
        <ele>469.4</ele>
        <time>2021-03-30T10:13:35.000Z</time>
      </trkpt>
      <trkpt lat="44.11854" lon="5.97638">
        <ele>469</ele>
        <time>2021-03-30T10:13:36.000Z</time>
      </trkpt>
      <trkpt lat="44.11854" lon="5.97638">
        <ele>468.2</ele>
        <time>2021-03-30T10:13:38.000Z</time>
      </trkpt>
      <trkpt lat="44.11854" lon="5.97638">
        <ele>468</ele>
        <time>2021-03-30T10:13:39.000Z</time>
      </trkpt>
      <trkpt lat="44.11854" lon="5.97638">
        <ele>467.6</ele>
        <time>2021-03-30T10:13:40.000Z</time>
      </trkpt>
      <trkpt lat="44.11854" lon="5.97637">
        <ele>467.2</ele>
        <time>2021-03-30T10:13:42.000Z</time>
      </trkpt>
      <trkpt lat="44.11853" lon="5.97637">
        <ele>467</ele>
        <time>2021-03-30T10:13:43.000Z</time>
      </trkpt>
      <trkpt lat="44.11853" lon="5.97637">
        <ele>466.8</ele>
        <time>2021-03-30T10:13:44.000Z</time>
      </trkpt>
      <trkpt lat="44.11853" lon="5.97637">
        <ele>466.8</ele>
        <time>2021-03-30T10:13:46.000Z</time>
      </trkpt>
      <trkpt lat="44.11853" lon="5.97637">
        <ele>466.6</ele>
        <time>2021-03-30T10:13:47.000Z</time>
      </trkpt>
      <trkpt lat="44.11853" lon="5.97634">
        <ele>466.4</ele>
        <time>2021-03-30T10:13:49.000Z</time>
      </trkpt>
      <trkpt lat="44.11852" lon="5.97632">
        <ele>466</ele>
        <time>2021-03-30T10:13:50.000Z</time>
      </trkpt>
      <trkpt lat="44.11851" lon="5.97631">
        <ele>465.8</ele>
        <time>2021-03-30T10:13:51.000Z</time>
      </trkpt>
      <trkpt lat="44.11849" lon="5.97626">
        <ele>465</ele>
        <time>2021-03-30T10:13:53.000Z</time>
      </trkpt>
      <trkpt lat="44.11848" lon="5.97624">
        <ele>464.8</ele>
        <time>2021-03-30T10:13:54.000Z</time>
      </trkpt>
      <trkpt lat="44.11848" lon="5.97621">
        <ele>464.6</ele>
        <time>2021-03-30T10:13:55.000Z</time>
      </trkpt>
      <trkpt lat="44.11846" lon="5.97616">
        <ele>464.4</ele>
        <time>2021-03-30T10:13:57.000Z</time>
      </trkpt>
      <trkpt lat="44.11845" lon="5.97613">
        <ele>464.4</ele>
        <time>2021-03-30T10:13:58.000Z</time>
      </trkpt>
      <trkpt lat="44.11843" lon="5.97606">
        <ele>464.4</ele>
        <time>2021-03-30T10:14:00.000Z</time>
      </trkpt>
      <trkpt lat="44.11843" lon="5.97602">
        <ele>464.4</ele>
        <time>2021-03-30T10:14:01.000Z</time>
      </trkpt>
      <trkpt lat="44.11843" lon="5.97599">
        <ele>464.4</ele>
        <time>2021-03-30T10:14:02.000Z</time>
      </trkpt>
      <trkpt lat="44.11844" lon="5.97593">
        <ele>464.2</ele>
        <time>2021-03-30T10:14:04.000Z</time>
      </trkpt>
      <trkpt lat="44.11844" lon="5.97591">
        <ele>464.2</ele>
        <time>2021-03-30T10:14:05.000Z</time>
      </trkpt>
      <trkpt lat="44.11845" lon="5.97588">
        <ele>464.2</ele>
        <time>2021-03-30T10:14:06.000Z</time>
      </trkpt>
      <trkpt lat="44.11847" lon="5.97581">
        <ele>464.4</ele>
        <time>2021-03-30T10:14:08.000Z</time>
      </trkpt>
      <trkpt lat="44.11848" lon="5.97579">
        <ele>464.6</ele>
        <time>2021-03-30T10:14:09.000Z</time>
      </trkpt>
      <trkpt lat="44.11847" lon="5.97577">
        <ele>464.6</ele>
        <time>2021-03-30T10:14:10.000Z</time>
      </trkpt>
      <trkpt lat="44.11847" lon="5.97572">
        <ele>464.8</ele>
        <time>2021-03-30T10:14:12.000Z</time>
      </trkpt>
      <trkpt lat="44.11847" lon="5.97569">
        <ele>465</ele>
        <time>2021-03-30T10:14:13.000Z</time>
      </trkpt>
      <trkpt lat="44.11846" lon="5.97565">
        <ele>465.2</ele>
        <time>2021-03-30T10:14:15.000Z</time>
      </trkpt>
      <trkpt lat="44.11845" lon="5.97563">
        <ele>465.2</ele>
        <time>2021-03-30T10:14:16.000Z</time>
      </trkpt>
      <trkpt lat="44.11844" lon="5.9756">
        <ele>465.4</ele>
        <time>2021-03-30T10:14:17.000Z</time>
      </trkpt>
      <trkpt lat="44.11843" lon="5.97556">
        <ele>465.8</ele>
        <time>2021-03-30T10:14:19.000Z</time>
      </trkpt>
      <trkpt lat="44.11842" lon="5.97554">
        <ele>466</ele>
        <time>2021-03-30T10:14:20.000Z</time>
      </trkpt>
      <trkpt lat="44.11842" lon="5.97553">
        <ele>466</ele>
        <time>2021-03-30T10:14:21.000Z</time>
      </trkpt>
      <trkpt lat="44.11841" lon="5.97552">
        <ele>466.4</ele>
        <time>2021-03-30T10:14:23.000Z</time>
      </trkpt>
      <trkpt lat="44.11841" lon="5.97551">
        <ele>466.8</ele>
        <time>2021-03-30T10:14:24.000Z</time>
      </trkpt>
      <trkpt lat="44.11841" lon="5.97551">
        <ele>467.2</ele>
        <time>2021-03-30T10:14:26.000Z</time>
      </trkpt>
      <trkpt lat="44.11841" lon="5.97551">
        <ele>467.4</ele>
        <time>2021-03-30T10:14:27.000Z</time>
      </trkpt>
      <trkpt lat="44.11841" lon="5.97551">
        <ele>467.6</ele>
        <time>2021-03-30T10:14:28.000Z</time>
      </trkpt>
      <trkpt lat="44.1184" lon="5.97545">
        <ele>468</ele>
        <time>2021-03-30T10:14:30.000Z</time>
      </trkpt>
      <trkpt lat="44.1184" lon="5.97542">
        <ele>468</ele>
        <time>2021-03-30T10:14:31.000Z</time>
      </trkpt>
      <trkpt lat="44.11839" lon="5.97539">
        <ele>468.2</ele>
        <time>2021-03-30T10:14:32.000Z</time>
      </trkpt>
      <trkpt lat="44.11838" lon="5.97536">
        <ele>468.6</ele>
        <time>2021-03-30T10:14:34.000Z</time>
      </trkpt>
      <trkpt lat="44.11837" lon="5.97535">
        <ele>468.8</ele>
        <time>2021-03-30T10:14:35.000Z</time>
      </trkpt>
      <trkpt lat="44.11836" lon="5.97531">
        <ele>469</ele>
        <time>2021-03-30T10:14:37.000Z</time>
      </trkpt>
      <trkpt lat="44.11835" lon="5.97528">
        <ele>469.2</ele>
        <time>2021-03-30T10:14:38.000Z</time>
      </trkpt>
      <trkpt lat="44.11834" lon="5.97526">
        <ele>469.4</ele>
        <time>2021-03-30T10:14:39.000Z</time>
      </trkpt>
      <trkpt lat="44.11832" lon="5.97524">
        <ele>470</ele>
        <time>2021-03-30T10:14:41.000Z</time>
      </trkpt>
      <trkpt lat="44.11831" lon="5.97522">
        <ele>470.2</ele>
        <time>2021-03-30T10:14:42.000Z</time>
      </trkpt>
      <trkpt lat="44.1183" lon="5.9752">
        <ele>470.4</ele>
        <time>2021-03-30T10:14:43.000Z</time>
      </trkpt>
      <trkpt lat="44.11828" lon="5.97517">
        <ele>470.8</ele>
        <time>2021-03-30T10:14:45.000Z</time>
      </trkpt>
      <trkpt lat="44.11827" lon="5.97516">
        <ele>471</ele>
        <time>2021-03-30T10:14:46.000Z</time>
      </trkpt>
      <trkpt lat="44.11826" lon="5.97513">
        <ele>471.2</ele>
        <time>2021-03-30T10:14:48.000Z</time>
      </trkpt>
      <trkpt lat="44.11826" lon="5.97513">
        <ele>471.4</ele>
        <time>2021-03-30T10:14:49.000Z</time>
      </trkpt>
      <trkpt lat="44.11825" lon="5.97512">
        <ele>471.6</ele>
        <time>2021-03-30T10:14:50.000Z</time>
      </trkpt>
      <trkpt lat="44.11824" lon="5.97511">
        <ele>471.8</ele>
        <time>2021-03-30T10:14:52.000Z</time>
      </trkpt>
      <trkpt lat="44.11823" lon="5.9751">
        <ele>471.8</ele>
        <time>2021-03-30T10:14:53.000Z</time>
      </trkpt>
      <trkpt lat="44.11823" lon="5.97508">
        <ele>471.6</ele>
        <time>2021-03-30T10:14:54.000Z</time>
      </trkpt>
      <trkpt lat="44.11823" lon="5.97505">
        <ele>471.6</ele>
        <time>2021-03-30T10:14:56.000Z</time>
      </trkpt>
      <trkpt lat="44.11823" lon="5.97505">
        <ele>471.4</ele>
        <time>2021-03-30T10:14:57.000Z</time>
      </trkpt>
      <trkpt lat="44.11823" lon="5.97505">
        <ele>471.4</ele>
        <time>2021-03-30T10:14:58.000Z</time>
      </trkpt>
      <trkpt lat="44.11823" lon="5.97505">
        <ele>471.6</ele>
        <time>2021-03-30T10:15:00.000Z</time>
      </trkpt>
      <trkpt lat="44.11823" lon="5.97505">
        <ele>471.4</ele>
        <time>2021-03-30T10:15:01.000Z</time>
      </trkpt>
      <trkpt lat="44.11823" lon="5.97505">
        <ele>471.4</ele>
        <time>2021-03-30T10:15:03.000Z</time>
      </trkpt>
      <trkpt lat="44.11821" lon="5.97504">
        <ele>471.2</ele>
        <time>2021-03-30T10:15:04.000Z</time>
      </trkpt>
      <trkpt lat="44.11821" lon="5.97503">
        <ele>471.2</ele>
        <time>2021-03-30T10:15:05.000Z</time>
      </trkpt>
      <trkpt lat="44.1182" lon="5.97502">
        <ele>471.2</ele>
        <time>2021-03-30T10:15:07.000Z</time>
      </trkpt>
      <trkpt lat="44.1182" lon="5.97501">
        <ele>471.2</ele>
        <time>2021-03-30T10:15:08.000Z</time>
      </trkpt>
      <trkpt lat="44.1182" lon="5.97501">
        <ele>471</ele>
        <time>2021-03-30T10:15:09.000Z</time>
      </trkpt>
      <trkpt lat="44.1182" lon="5.975">
        <ele>470.8</ele>
        <time>2021-03-30T10:15:11.000Z</time>
      </trkpt>
      <trkpt lat="44.1182" lon="5.975">
        <ele>470.6</ele>
        <time>2021-03-30T10:15:12.000Z</time>
      </trkpt>
      <trkpt lat="44.1182" lon="5.975">
        <ele>470.4</ele>
        <time>2021-03-30T10:15:14.000Z</time>
      </trkpt>
      <trkpt lat="44.1182" lon="5.975">
        <ele>470.2</ele>
        <time>2021-03-30T10:15:15.000Z</time>
      </trkpt>
      <trkpt lat="44.11819" lon="5.97499">
        <ele>470</ele>
        <time>2021-03-30T10:15:16.000Z</time>
      </trkpt>
      <trkpt lat="44.11818" lon="5.97495">
        <ele>469.6</ele>
        <time>2021-03-30T10:15:18.000Z</time>
      </trkpt>
      <trkpt lat="44.11818" lon="5.97492">
        <ele>469.6</ele>
        <time>2021-03-30T10:15:19.000Z</time>
      </trkpt>
      <trkpt lat="44.11818" lon="5.9749">
        <ele>469.4</ele>
        <time>2021-03-30T10:15:20.000Z</time>
      </trkpt>
      <trkpt lat="44.11816" lon="5.97484">
        <ele>469.2</ele>
        <time>2021-03-30T10:15:22.000Z</time>
      </trkpt>
      <trkpt lat="44.11814" lon="5.97482">
        <ele>469</ele>
        <time>2021-03-30T10:15:23.000Z</time>
      </trkpt>
      <trkpt lat="44.11811" lon="5.97479">
        <ele>468.8</ele>
        <time>2021-03-30T10:15:25.000Z</time>
      </trkpt>
      <trkpt lat="44.1181" lon="5.97477">
        <ele>468.8</ele>
        <time>2021-03-30T10:15:26.000Z</time>
      </trkpt>
      <trkpt lat="44.11808" lon="5.97475">
        <ele>468.8</ele>
        <time>2021-03-30T10:15:27.000Z</time>
      </trkpt>
      <trkpt lat="44.11808" lon="5.97471">
        <ele>468.8</ele>
        <time>2021-03-30T10:15:29.000Z</time>
      </trkpt>
      <trkpt lat="44.11808" lon="5.97469">
        <ele>469</ele>
        <time>2021-03-30T10:15:30.000Z</time>
      </trkpt>
      <trkpt lat="44.11809" lon="5.97466">
        <ele>469</ele>
        <time>2021-03-30T10:15:31.000Z</time>
      </trkpt>
      <trkpt lat="44.11811" lon="5.9746">
        <ele>469.4</ele>
        <time>2021-03-30T10:15:33.000Z</time>
      </trkpt>
      <trkpt lat="44.11811" lon="5.97458">
        <ele>469.4</ele>
        <time>2021-03-30T10:15:34.000Z</time>
      </trkpt>
      <trkpt lat="44.11811" lon="5.97455">
        <ele>469.6</ele>
        <time>2021-03-30T10:15:35.000Z</time>
      </trkpt>
      <trkpt lat="44.11811" lon="5.9745">
        <ele>469.8</ele>
        <time>2021-03-30T10:15:37.000Z</time>
      </trkpt>
      <trkpt lat="44.11811" lon="5.97447">
        <ele>469.8</ele>
        <time>2021-03-30T10:15:38.000Z</time>
      </trkpt>
      <trkpt lat="44.11811" lon="5.97441">
        <ele>470</ele>
        <time>2021-03-30T10:15:40.000Z</time>
      </trkpt>
      <trkpt lat="44.1181" lon="5.97437">
        <ele>470.2</ele>
        <time>2021-03-30T10:15:41.000Z</time>
      </trkpt>
      <trkpt lat="44.1181" lon="5.97434">
        <ele>470.4</ele>
        <time>2021-03-30T10:15:42.000Z</time>
      </trkpt>
      <trkpt lat="44.11807" lon="5.9743">
        <ele>471</ele>
        <time>2021-03-30T10:15:44.000Z</time>
      </trkpt>
      <trkpt lat="44.11806" lon="5.97428">
        <ele>471.2</ele>
        <time>2021-03-30T10:15:45.000Z</time>
      </trkpt>
      <trkpt lat="44.11804" lon="5.97427">
        <ele>471.4</ele>
        <time>2021-03-30T10:15:46.000Z</time>
      </trkpt>
      <trkpt lat="44.11802" lon="5.97424">
        <ele>471.8</ele>
        <time>2021-03-30T10:15:48.000Z</time>
      </trkpt>
      <trkpt lat="44.11799" lon="5.97423">
        <ele>472</ele>
        <time>2021-03-30T10:15:49.000Z</time>
      </trkpt>
      <trkpt lat="44.11795" lon="5.97423">
        <ele>471.8</ele>
        <time>2021-03-30T10:15:51.000Z</time>
      </trkpt>
      <trkpt lat="44.11794" lon="5.97424">
        <ele>471.8</ele>
        <time>2021-03-30T10:15:52.000Z</time>
      </trkpt>
      <trkpt lat="44.11792" lon="5.97425">
        <ele>471.6</ele>
        <time>2021-03-30T10:15:53.000Z</time>
      </trkpt>
      <trkpt lat="44.11789" lon="5.97429">
        <ele>471.6</ele>
        <time>2021-03-30T10:15:55.000Z</time>
      </trkpt>
      <trkpt lat="44.11787" lon="5.9743">
        <ele>471.6</ele>
        <time>2021-03-30T10:15:56.000Z</time>
      </trkpt>
      <trkpt lat="44.11786" lon="5.9743">
        <ele>471.4</ele>
        <time>2021-03-30T10:15:57.000Z</time>
      </trkpt>
      <trkpt lat="44.11781" lon="5.97431">
        <ele>471.2</ele>
        <time>2021-03-30T10:15:59.000Z</time>
      </trkpt>
      <trkpt lat="44.11779" lon="5.97431">
        <ele>471.2</ele>
        <time>2021-03-30T10:16:00.000Z</time>
      </trkpt>
      <trkpt lat="44.11776" lon="5.97433">
        <ele>471</ele>
        <time>2021-03-30T10:16:02.000Z</time>
      </trkpt>
      <trkpt lat="44.11774" lon="5.97434">
        <ele>471</ele>
        <time>2021-03-30T10:16:03.000Z</time>
      </trkpt>
      <trkpt lat="44.11773" lon="5.97434">
        <ele>471</ele>
        <time>2021-03-30T10:16:04.000Z</time>
      </trkpt>
      <trkpt lat="44.11765" lon="5.97428">
        <ele>472.8</ele>
        <time>2021-03-30T10:16:28.000Z</time>
      </trkpt>
      <trkpt lat="44.11763" lon="5.97428">
        <ele>473</ele>
        <time>2021-03-30T10:16:29.000Z</time>
      </trkpt>
      <trkpt lat="44.11762" lon="5.97428">
        <ele>473.2</ele>
        <time>2021-03-30T10:16:30.000Z</time>
      </trkpt>
      <trkpt lat="44.11758" lon="5.97426">
        <ele>473.4</ele>
        <time>2021-03-30T10:16:32.000Z</time>
      </trkpt>
      <trkpt lat="44.11757" lon="5.97425">
        <ele>473.6</ele>
        <time>2021-03-30T10:16:33.000Z</time>
      </trkpt>
      <trkpt lat="44.11756" lon="5.97423">
        <ele>473.8</ele>
        <time>2021-03-30T10:16:34.000Z</time>
      </trkpt>
      <trkpt lat="44.11753" lon="5.9742">
        <ele>474</ele>
        <time>2021-03-30T10:16:36.000Z</time>
      </trkpt>
      <trkpt lat="44.11751" lon="5.97419">
        <ele>474.2</ele>
        <time>2021-03-30T10:16:37.000Z</time>
      </trkpt>
      <trkpt lat="44.11749" lon="5.97416">
        <ele>474.6</ele>
        <time>2021-03-30T10:16:39.000Z</time>
      </trkpt>
      <trkpt lat="44.11748" lon="5.97414">
        <ele>474.8</ele>
        <time>2021-03-30T10:16:40.000Z</time>
      </trkpt>
      <trkpt lat="44.11746" lon="5.97413">
        <ele>475</ele>
        <time>2021-03-30T10:16:41.000Z</time>
      </trkpt>
      <trkpt lat="44.11744" lon="5.9741">
        <ele>475.6</ele>
        <time>2021-03-30T10:16:43.000Z</time>
      </trkpt>
      <trkpt lat="44.11743" lon="5.97408">
        <ele>475.8</ele>
        <time>2021-03-30T10:16:44.000Z</time>
      </trkpt>
      <trkpt lat="44.11742" lon="5.97406">
        <ele>476</ele>
        <time>2021-03-30T10:16:45.000Z</time>
      </trkpt>
      <trkpt lat="44.1174" lon="5.97402">
        <ele>476.6</ele>
        <time>2021-03-30T10:16:47.000Z</time>
      </trkpt>
      <trkpt lat="44.11739" lon="5.97399">
        <ele>476.8</ele>
        <time>2021-03-30T10:16:48.000Z</time>
      </trkpt>
      <trkpt lat="44.11736" lon="5.97395">
        <ele>477.2</ele>
        <time>2021-03-30T10:16:50.000Z</time>
      </trkpt>
      <trkpt lat="44.11735" lon="5.97394">
        <ele>477.4</ele>
        <time>2021-03-30T10:16:51.000Z</time>
      </trkpt>
      <trkpt lat="44.11734" lon="5.97392">
        <ele>477.4</ele>
        <time>2021-03-30T10:16:52.000Z</time>
      </trkpt>
      <trkpt lat="44.11731" lon="5.97389">
        <ele>477.8</ele>
        <time>2021-03-30T10:16:54.000Z</time>
      </trkpt>
      <trkpt lat="44.1173" lon="5.97388">
        <ele>478</ele>
        <time>2021-03-30T10:16:55.000Z</time>
      </trkpt>
      <trkpt lat="44.11729" lon="5.97385">
        <ele>478.2</ele>
        <time>2021-03-30T10:16:56.000Z</time>
      </trkpt>
      <trkpt lat="44.11729" lon="5.9738">
        <ele>478.2</ele>
        <time>2021-03-30T10:16:58.000Z</time>
      </trkpt>
      <trkpt lat="44.11729" lon="5.97378">
        <ele>478.4</ele>
        <time>2021-03-30T10:16:59.000Z</time>
      </trkpt>
      <trkpt lat="44.11726" lon="5.97374">
        <ele>478.8</ele>
        <time>2021-03-30T10:17:01.000Z</time>
      </trkpt>
      <trkpt lat="44.11725" lon="5.97373">
        <ele>479</ele>
        <time>2021-03-30T10:17:02.000Z</time>
      </trkpt>
      <trkpt lat="44.11725" lon="5.97373">
        <ele>479.4</ele>
        <time>2021-03-30T10:17:03.000Z</time>
      </trkpt>
      <trkpt lat="44.11725" lon="5.97373">
        <ele>480</ele>
        <time>2021-03-30T10:17:05.000Z</time>
      </trkpt>
      <trkpt lat="44.11725" lon="5.97373">
        <ele>480.2</ele>
        <time>2021-03-30T10:17:06.000Z</time>
      </trkpt>
      <trkpt lat="44.11725" lon="5.97373">
        <ele>480.6</ele>
        <time>2021-03-30T10:17:07.000Z</time>
      </trkpt>
      <trkpt lat="44.11725" lon="5.97373">
        <ele>481</ele>
        <time>2021-03-30T10:17:09.000Z</time>
      </trkpt>
      <trkpt lat="44.11725" lon="5.97373">
        <ele>481.2</ele>
        <time>2021-03-30T10:17:10.000Z</time>
      </trkpt>
      <trkpt lat="44.11725" lon="5.97373">
        <ele>481.8</ele>
        <time>2021-03-30T10:17:12.000Z</time>
      </trkpt>
      <trkpt lat="44.11725" lon="5.97373">
        <ele>482</ele>
        <time>2021-03-30T10:17:13.000Z</time>
      </trkpt>
      <trkpt lat="44.11725" lon="5.97373">
        <ele>482.2</ele>
        <time>2021-03-30T10:17:14.000Z</time>
      </trkpt>
      <trkpt lat="44.11725" lon="5.97373">
        <ele>482.6</ele>
        <time>2021-03-30T10:17:16.000Z</time>
      </trkpt>
      <trkpt lat="44.11725" lon="5.97373">
        <ele>482.8</ele>
        <time>2021-03-30T10:17:17.000Z</time>
      </trkpt>
      <trkpt lat="44.11725" lon="5.97373">
        <ele>483</ele>
        <time>2021-03-30T10:17:18.000Z</time>
      </trkpt>
      <trkpt lat="44.11725" lon="5.97373">
        <ele>483.2</ele>
        <time>2021-03-30T10:17:20.000Z</time>
      </trkpt>
      <trkpt lat="44.11725" lon="5.97373">
        <ele>483.4</ele>
        <time>2021-03-30T10:17:21.000Z</time>
      </trkpt>
      <trkpt lat="44.11721" lon="5.97371">
        <ele>483.6</ele>
        <time>2021-03-30T10:17:22.000Z</time>
      </trkpt>
      <trkpt lat="44.11718" lon="5.9737">
        <ele>484</ele>
        <time>2021-03-30T10:17:24.000Z</time>
      </trkpt>
      <trkpt lat="44.11717" lon="5.97371">
        <ele>484.2</ele>
        <time>2021-03-30T10:17:25.000Z</time>
      </trkpt>
      <trkpt lat="44.11713" lon="5.97371">
        <ele>484.6</ele>
        <time>2021-03-30T10:17:27.000Z</time>
      </trkpt>
      <trkpt lat="44.11712" lon="5.97371">
        <ele>484.8</ele>
        <time>2021-03-30T10:17:28.000Z</time>
      </trkpt>
      <trkpt lat="44.1171" lon="5.9737">
        <ele>485</ele>
        <time>2021-03-30T10:17:29.000Z</time>
      </trkpt>
      <trkpt lat="44.11706" lon="5.97369">
        <ele>485.6</ele>
        <time>2021-03-30T10:17:31.000Z</time>
      </trkpt>
      <trkpt lat="44.11704" lon="5.97369">
        <ele>486</ele>
        <time>2021-03-30T10:17:32.000Z</time>
      </trkpt>
      <trkpt lat="44.11703" lon="5.97369">
        <ele>486.4</ele>
        <time>2021-03-30T10:17:33.000Z</time>
      </trkpt>
      <trkpt lat="44.11699" lon="5.97369">
        <ele>487</ele>
        <time>2021-03-30T10:17:35.000Z</time>
      </trkpt>
      <trkpt lat="44.11697" lon="5.97369">
        <ele>487.4</ele>
        <time>2021-03-30T10:17:36.000Z</time>
      </trkpt>
      <trkpt lat="44.11694" lon="5.9737">
        <ele>488</ele>
        <time>2021-03-30T10:17:38.000Z</time>
      </trkpt>
      <trkpt lat="44.11692" lon="5.97369">
        <ele>488.4</ele>
        <time>2021-03-30T10:17:39.000Z</time>
      </trkpt>
      <trkpt lat="44.1169" lon="5.9737">
        <ele>488.8</ele>
        <time>2021-03-30T10:17:40.000Z</time>
      </trkpt>
      <trkpt lat="44.11686" lon="5.97371">
        <ele>489.6</ele>
        <time>2021-03-30T10:17:42.000Z</time>
      </trkpt>
      <trkpt lat="44.11683" lon="5.97372">
        <ele>490</ele>
        <time>2021-03-30T10:17:43.000Z</time>
      </trkpt>
      <trkpt lat="44.11681" lon="5.97373">
        <ele>490.2</ele>
        <time>2021-03-30T10:17:44.000Z</time>
      </trkpt>
      <trkpt lat="44.11677" lon="5.97377">
        <ele>490.8</ele>
        <time>2021-03-30T10:17:46.000Z</time>
      </trkpt>
      <trkpt lat="44.11674" lon="5.97378">
        <ele>491.2</ele>
        <time>2021-03-30T10:17:47.000Z</time>
      </trkpt>
      <trkpt lat="44.11668" lon="5.97378">
        <ele>491.6</ele>
        <time>2021-03-30T10:17:49.000Z</time>
      </trkpt>
      <trkpt lat="44.11665" lon="5.97378">
        <ele>491.8</ele>
        <time>2021-03-30T10:17:50.000Z</time>
      </trkpt>
      <trkpt lat="44.11663" lon="5.97378">
        <ele>491.8</ele>
        <time>2021-03-30T10:17:51.000Z</time>
      </trkpt>
      <trkpt lat="44.11657" lon="5.97378">
        <ele>492</ele>
        <time>2021-03-30T10:17:53.000Z</time>
      </trkpt>
      <trkpt lat="44.11654" lon="5.97377">
        <ele>492</ele>
        <time>2021-03-30T10:17:54.000Z</time>
      </trkpt>
      <trkpt lat="44.11651" lon="5.97377">
        <ele>492.2</ele>
        <time>2021-03-30T10:17:55.000Z</time>
      </trkpt>
      <trkpt lat="44.11645" lon="5.97378">
        <ele>492.4</ele>
        <time>2021-03-30T10:17:57.000Z</time>
      </trkpt>
      <trkpt lat="44.11642" lon="5.97378">
        <ele>492.4</ele>
        <time>2021-03-30T10:17:58.000Z</time>
      </trkpt>
      <trkpt lat="44.1164" lon="5.97379">
        <ele>492.6</ele>
        <time>2021-03-30T10:17:59.000Z</time>
      </trkpt>
      <trkpt lat="44.11636" lon="5.9738">
        <ele>492.8</ele>
        <time>2021-03-30T10:18:01.000Z</time>
      </trkpt>
      <trkpt lat="44.11634" lon="5.9738">
        <ele>493</ele>
        <time>2021-03-30T10:18:02.000Z</time>
      </trkpt>
      <trkpt lat="44.1163" lon="5.97381">
        <ele>493.2</ele>
        <time>2021-03-30T10:18:04.000Z</time>
      </trkpt>
      <trkpt lat="44.11628" lon="5.97382">
        <ele>493.2</ele>
        <time>2021-03-30T10:18:05.000Z</time>
      </trkpt>
      <trkpt lat="44.11625" lon="5.97382">
        <ele>493.2</ele>
        <time>2021-03-30T10:18:06.000Z</time>
      </trkpt>
      <trkpt lat="44.1162" lon="5.97383">
        <ele>493.2</ele>
        <time>2021-03-30T10:18:08.000Z</time>
      </trkpt>
      <trkpt lat="44.11618" lon="5.97384">
        <ele>493.2</ele>
        <time>2021-03-30T10:18:09.000Z</time>
      </trkpt>
      <trkpt lat="44.11616" lon="5.97385">
        <ele>493.2</ele>
        <time>2021-03-30T10:18:10.000Z</time>
      </trkpt>
      <trkpt lat="44.11612" lon="5.97385">
        <ele>493.4</ele>
        <time>2021-03-30T10:18:12.000Z</time>
      </trkpt>
      <trkpt lat="44.1161" lon="5.97384">
        <ele>493.4</ele>
        <time>2021-03-30T10:18:13.000Z</time>
      </trkpt>
      <trkpt lat="44.11608" lon="5.9738">
        <ele>493.6</ele>
        <time>2021-03-30T10:18:15.000Z</time>
      </trkpt>
      <trkpt lat="44.11607" lon="5.97378">
        <ele>493.6</ele>
        <time>2021-03-30T10:18:16.000Z</time>
      </trkpt>
      <trkpt lat="44.11606" lon="5.97376">
        <ele>493.8</ele>
        <time>2021-03-30T10:18:17.000Z</time>
      </trkpt>
      <trkpt lat="44.11603" lon="5.97373">
        <ele>494.2</ele>
        <time>2021-03-30T10:18:19.000Z</time>
      </trkpt>
      <trkpt lat="44.11602" lon="5.97371">
        <ele>494.6</ele>
        <time>2021-03-30T10:18:20.000Z</time>
      </trkpt>
      <trkpt lat="44.116" lon="5.97369">
        <ele>494.8</ele>
        <time>2021-03-30T10:18:21.000Z</time>
      </trkpt>
      <trkpt lat="44.11596" lon="5.97366">
        <ele>495.2</ele>
        <time>2021-03-30T10:18:23.000Z</time>
      </trkpt>
      <trkpt lat="44.11595" lon="5.97365">
        <ele>495.4</ele>
        <time>2021-03-30T10:18:24.000Z</time>
      </trkpt>
      <trkpt lat="44.11589" lon="5.97364">
        <ele>496</ele>
        <time>2021-03-30T10:18:26.000Z</time>
      </trkpt>
      <trkpt lat="44.11587" lon="5.97364">
        <ele>496.2</ele>
        <time>2021-03-30T10:18:27.000Z</time>
      </trkpt>
      <trkpt lat="44.11584" lon="5.97364">
        <ele>496.6</ele>
        <time>2021-03-30T10:18:28.000Z</time>
      </trkpt>
      <trkpt lat="44.1158" lon="5.97364">
        <ele>497.2</ele>
        <time>2021-03-30T10:18:30.000Z</time>
      </trkpt>
      <trkpt lat="44.11578" lon="5.97364">
        <ele>497.4</ele>
        <time>2021-03-30T10:18:31.000Z</time>
      </trkpt>
      <trkpt lat="44.11576" lon="5.97365">
        <ele>497.8</ele>
        <time>2021-03-30T10:18:32.000Z</time>
      </trkpt>
      <trkpt lat="44.11572" lon="5.97368">
        <ele>498.4</ele>
        <time>2021-03-30T10:18:34.000Z</time>
      </trkpt>
      <trkpt lat="44.1157" lon="5.9737">
        <ele>498.8</ele>
        <time>2021-03-30T10:18:35.000Z</time>
      </trkpt>
      <trkpt lat="44.11569" lon="5.97372">
        <ele>499</ele>
        <time>2021-03-30T10:18:36.000Z</time>
      </trkpt>
      <trkpt lat="44.11568" lon="5.97377">
        <ele>499.8</ele>
        <time>2021-03-30T10:18:38.000Z</time>
      </trkpt>
      <trkpt lat="44.11569" lon="5.97379">
        <ele>500.2</ele>
        <time>2021-03-30T10:18:39.000Z</time>
      </trkpt>
      <trkpt lat="44.11568" lon="5.97385">
        <ele>501</ele>
        <time>2021-03-30T10:18:41.000Z</time>
      </trkpt>
      <trkpt lat="44.11568" lon="5.97388">
        <ele>501.2</ele>
        <time>2021-03-30T10:18:42.000Z</time>
      </trkpt>
      <trkpt lat="44.11566" lon="5.97391">
        <ele>501.4</ele>
        <time>2021-03-30T10:18:43.000Z</time>
      </trkpt>
      <trkpt lat="44.11562" lon="5.97395">
        <ele>501.8</ele>
        <time>2021-03-30T10:18:45.000Z</time>
      </trkpt>
      <trkpt lat="44.11559" lon="5.97398">
        <ele>502</ele>
        <time>2021-03-30T10:18:46.000Z</time>
      </trkpt>
      <trkpt lat="44.11557" lon="5.974">
        <ele>502.2</ele>
        <time>2021-03-30T10:18:47.000Z</time>
      </trkpt>
      <trkpt lat="44.11553" lon="5.97402">
        <ele>502.8</ele>
        <time>2021-03-30T10:18:49.000Z</time>
      </trkpt>
      <trkpt lat="44.11551" lon="5.97403">
        <ele>503.2</ele>
        <time>2021-03-30T10:18:50.000Z</time>
      </trkpt>
      <trkpt lat="44.11546" lon="5.97404">
        <ele>503.6</ele>
        <time>2021-03-30T10:18:52.000Z</time>
      </trkpt>
      <trkpt lat="44.11543" lon="5.97405">
        <ele>503.8</ele>
        <time>2021-03-30T10:18:53.000Z</time>
      </trkpt>
      <trkpt lat="44.11541" lon="5.97405">
        <ele>503.8</ele>
        <time>2021-03-30T10:18:54.000Z</time>
      </trkpt>
      <trkpt lat="44.11535" lon="5.97405">
        <ele>504.4</ele>
        <time>2021-03-30T10:18:56.000Z</time>
      </trkpt>
      <trkpt lat="44.11532" lon="5.97405">
        <ele>504.4</ele>
        <time>2021-03-30T10:18:57.000Z</time>
      </trkpt>
      <trkpt lat="44.11529" lon="5.97404">
        <ele>504.4</ele>
        <time>2021-03-30T10:18:58.000Z</time>
      </trkpt>
      <trkpt lat="44.11521" lon="5.97406">
        <ele>504.4</ele>
        <time>2021-03-30T10:19:00.000Z</time>
      </trkpt>
      <trkpt lat="44.11516" lon="5.97408">
        <ele>504.4</ele>
        <time>2021-03-30T10:19:01.000Z</time>
      </trkpt>
      <trkpt lat="44.11509" lon="5.97412">
        <ele>504.4</ele>
        <time>2021-03-30T10:19:03.000Z</time>
      </trkpt>
      <trkpt lat="44.11506" lon="5.97414">
        <ele>504.4</ele>
        <time>2021-03-30T10:19:04.000Z</time>
      </trkpt>
      <trkpt lat="44.11504" lon="5.97415">
        <ele>504.4</ele>
        <time>2021-03-30T10:19:05.000Z</time>
      </trkpt>
      <trkpt lat="44.11503" lon="5.97416">
        <ele>504.4</ele>
        <time>2021-03-30T10:19:07.000Z</time>
      </trkpt>
      <trkpt lat="44.11503" lon="5.97416">
        <ele>504.4</ele>
        <time>2021-03-30T10:19:08.000Z</time>
      </trkpt>
      <trkpt lat="44.11503" lon="5.97416">
        <ele>504.6</ele>
        <time>2021-03-30T10:19:09.000Z</time>
      </trkpt>
      <trkpt lat="44.11503" lon="5.97416">
        <ele>504.6</ele>
        <time>2021-03-30T10:19:11.000Z</time>
      </trkpt>
      <trkpt lat="44.11503" lon="5.97416">
        <ele>504.8</ele>
        <time>2021-03-30T10:19:12.000Z</time>
      </trkpt>
      <trkpt lat="44.11503" lon="5.97416">
        <ele>504.8</ele>
        <time>2021-03-30T10:19:14.000Z</time>
      </trkpt>
      <trkpt lat="44.11502" lon="5.97416">
        <ele>505</ele>
        <time>2021-03-30T10:19:15.000Z</time>
      </trkpt>
      <trkpt lat="44.11501" lon="5.97415">
        <ele>505</ele>
        <time>2021-03-30T10:19:16.000Z</time>
      </trkpt>
      <trkpt lat="44.11498" lon="5.97413">
        <ele>505.2</ele>
        <time>2021-03-30T10:19:18.000Z</time>
      </trkpt>
      <trkpt lat="44.11496" lon="5.97413">
        <ele>505.4</ele>
        <time>2021-03-30T10:19:19.000Z</time>
      </trkpt>
      <trkpt lat="44.11494" lon="5.97412">
        <ele>505.6</ele>
        <time>2021-03-30T10:19:20.000Z</time>
      </trkpt>
      <trkpt lat="44.11491" lon="5.97411">
        <ele>506</ele>
        <time>2021-03-30T10:19:22.000Z</time>
      </trkpt>
      <trkpt lat="44.11489" lon="5.9741">
        <ele>506.2</ele>
        <time>2021-03-30T10:19:23.000Z</time>
      </trkpt>
      <trkpt lat="44.11487" lon="5.9741">
        <ele>506.4</ele>
        <time>2021-03-30T10:19:24.000Z</time>
      </trkpt>
      <trkpt lat="44.11482" lon="5.97409">
        <ele>506.8</ele>
        <time>2021-03-30T10:19:26.000Z</time>
      </trkpt>
      <trkpt lat="44.1148" lon="5.97409">
        <ele>507</ele>
        <time>2021-03-30T10:19:27.000Z</time>
      </trkpt>
      <trkpt lat="44.11475" lon="5.9741">
        <ele>507.6</ele>
        <time>2021-03-30T10:19:29.000Z</time>
      </trkpt>
      <trkpt lat="44.11473" lon="5.9741">
        <ele>507.8</ele>
        <time>2021-03-30T10:19:30.000Z</time>
      </trkpt>
      <trkpt lat="44.11472" lon="5.97408">
        <ele>508</ele>
        <time>2021-03-30T10:19:31.000Z</time>
      </trkpt>
      <trkpt lat="44.11469" lon="5.97405">
        <ele>508.4</ele>
        <time>2021-03-30T10:19:33.000Z</time>
      </trkpt>
      <trkpt lat="44.11467" lon="5.97405">
        <ele>508.8</ele>
        <time>2021-03-30T10:19:34.000Z</time>
      </trkpt>
      <trkpt lat="44.11465" lon="5.97404">
        <ele>509</ele>
        <time>2021-03-30T10:19:35.000Z</time>
      </trkpt>
      <trkpt lat="44.1146" lon="5.97404">
        <ele>509.6</ele>
        <time>2021-03-30T10:19:37.000Z</time>
      </trkpt>
      <trkpt lat="44.11457" lon="5.97403">
        <ele>510</ele>
        <time>2021-03-30T10:19:38.000Z</time>
      </trkpt>
      <trkpt lat="44.11453" lon="5.97402">
        <ele>510.8</ele>
        <time>2021-03-30T10:19:40.000Z</time>
      </trkpt>
      <trkpt lat="44.11452" lon="5.97401">
        <ele>511</ele>
        <time>2021-03-30T10:19:41.000Z</time>
      </trkpt>
      <trkpt lat="44.1145" lon="5.97401">
        <ele>511.4</ele>
        <time>2021-03-30T10:19:42.000Z</time>
      </trkpt>
      <trkpt lat="44.11446" lon="5.97401">
        <ele>512.2</ele>
        <time>2021-03-30T10:19:44.000Z</time>
      </trkpt>
      <trkpt lat="44.11443" lon="5.97402">
        <ele>512.6</ele>
        <time>2021-03-30T10:19:45.000Z</time>
      </trkpt>
      <trkpt lat="44.1144" lon="5.97403">
        <ele>513</ele>
        <time>2021-03-30T10:19:46.000Z</time>
      </trkpt>
      <trkpt lat="44.11436" lon="5.97404">
        <ele>513.6</ele>
        <time>2021-03-30T10:19:48.000Z</time>
      </trkpt>
      <trkpt lat="44.11434" lon="5.97405">
        <ele>514</ele>
        <time>2021-03-30T10:19:49.000Z</time>
      </trkpt>
      <trkpt lat="44.11429" lon="5.97405">
        <ele>514.8</ele>
        <time>2021-03-30T10:19:51.000Z</time>
      </trkpt>
      <trkpt lat="44.11427" lon="5.97406">
        <ele>515</ele>
        <time>2021-03-30T10:19:52.000Z</time>
      </trkpt>
      <trkpt lat="44.11424" lon="5.97407">
        <ele>515.4</ele>
        <time>2021-03-30T10:19:53.000Z</time>
      </trkpt>
      <trkpt lat="44.1142" lon="5.97408">
        <ele>516.2</ele>
        <time>2021-03-30T10:19:55.000Z</time>
      </trkpt>
      <trkpt lat="44.11418" lon="5.97408">
        <ele>516.6</ele>
        <time>2021-03-30T10:19:56.000Z</time>
      </trkpt>
      <trkpt lat="44.11416" lon="5.97408">
        <ele>517</ele>
        <time>2021-03-30T10:19:57.000Z</time>
      </trkpt>
      <trkpt lat="44.11411" lon="5.97409">
        <ele>517.6</ele>
        <time>2021-03-30T10:19:59.000Z</time>
      </trkpt>
      <trkpt lat="44.11409" lon="5.9741">
        <ele>518</ele>
        <time>2021-03-30T10:20:00.000Z</time>
      </trkpt>
      <trkpt lat="44.11406" lon="5.9741">
        <ele>518.4</ele>
        <time>2021-03-30T10:20:01.000Z</time>
      </trkpt>
      <trkpt lat="44.11401" lon="5.97412">
        <ele>519</ele>
        <time>2021-03-30T10:20:03.000Z</time>
      </trkpt>
      <trkpt lat="44.11398" lon="5.97413">
        <ele>519.2</ele>
        <time>2021-03-30T10:20:04.000Z</time>
      </trkpt>
      <trkpt lat="44.11393" lon="5.97417">
        <ele>520</ele>
        <time>2021-03-30T10:20:06.000Z</time>
      </trkpt>
      <trkpt lat="44.11391" lon="5.97418">
        <ele>520.4</ele>
        <time>2021-03-30T10:20:07.000Z</time>
      </trkpt>
      <trkpt lat="44.11388" lon="5.97418">
        <ele>520.6</ele>
        <time>2021-03-30T10:20:08.000Z</time>
      </trkpt>
      <trkpt lat="44.11384" lon="5.97417">
        <ele>521.4</ele>
        <time>2021-03-30T10:20:10.000Z</time>
      </trkpt>
      <trkpt lat="44.11382" lon="5.97416">
        <ele>521.6</ele>
        <time>2021-03-30T10:20:11.000Z</time>
      </trkpt>
      <trkpt lat="44.11381" lon="5.97414">
        <ele>522</ele>
        <time>2021-03-30T10:20:12.000Z</time>
      </trkpt>
      <trkpt lat="44.11378" lon="5.9741">
        <ele>522.4</ele>
        <time>2021-03-30T10:20:14.000Z</time>
      </trkpt>
      <trkpt lat="44.11376" lon="5.97409">
        <ele>522.6</ele>
        <time>2021-03-30T10:20:15.000Z</time>
      </trkpt>
      <trkpt lat="44.11371" lon="5.97405">
        <ele>523</ele>
        <time>2021-03-30T10:20:17.000Z</time>
      </trkpt>
      <trkpt lat="44.11369" lon="5.97403">
        <ele>523.2</ele>
        <time>2021-03-30T10:20:18.000Z</time>
      </trkpt>
      <trkpt lat="44.11366" lon="5.97402">
        <ele>523.2</ele>
        <time>2021-03-30T10:20:19.000Z</time>
      </trkpt>
      <trkpt lat="44.11361" lon="5.974">
        <ele>523.6</ele>
        <time>2021-03-30T10:20:21.000Z</time>
      </trkpt>
      <trkpt lat="44.11359" lon="5.97399">
        <ele>523.6</ele>
        <time>2021-03-30T10:20:22.000Z</time>
      </trkpt>
      <trkpt lat="44.11356" lon="5.97399">
        <ele>523.8</ele>
        <time>2021-03-30T10:20:23.000Z</time>
      </trkpt>
      <trkpt lat="44.1135" lon="5.97396">
        <ele>523.8</ele>
        <time>2021-03-30T10:20:25.000Z</time>
      </trkpt>
      <trkpt lat="44.11348" lon="5.97393">
        <ele>523.6</ele>
        <time>2021-03-30T10:20:26.000Z</time>
      </trkpt>
      <trkpt lat="44.11343" lon="5.97388">
        <ele>523.6</ele>
        <time>2021-03-30T10:20:28.000Z</time>
      </trkpt>
      <trkpt lat="44.11341" lon="5.97387">
        <ele>523.4</ele>
        <time>2021-03-30T10:20:29.000Z</time>
      </trkpt>
      <trkpt lat="44.11338" lon="5.97386">
        <ele>523.4</ele>
        <time>2021-03-30T10:20:30.000Z</time>
      </trkpt>
      <trkpt lat="44.11333" lon="5.97385">
        <ele>523.8</ele>
        <time>2021-03-30T10:20:32.000Z</time>
      </trkpt>
      <trkpt lat="44.1133" lon="5.97385">
        <ele>523.8</ele>
        <time>2021-03-30T10:20:33.000Z</time>
      </trkpt>
      <trkpt lat="44.11329" lon="5.97385">
        <ele>524</ele>
        <time>2021-03-30T10:20:34.000Z</time>
      </trkpt>
      <trkpt lat="44.11325" lon="5.97383">
        <ele>524.4</ele>
        <time>2021-03-30T10:20:36.000Z</time>
      </trkpt>
      <trkpt lat="44.11324" lon="5.97381">
        <ele>524.8</ele>
        <time>2021-03-30T10:20:37.000Z</time>
      </trkpt>
      <trkpt lat="44.11322" lon="5.97379">
        <ele>525</ele>
        <time>2021-03-30T10:20:38.000Z</time>
      </trkpt>
      <trkpt lat="44.11319" lon="5.97374">
        <ele>525.4</ele>
        <time>2021-03-30T10:20:40.000Z</time>
      </trkpt>
      <trkpt lat="44.11317" lon="5.97372">
        <ele>525.8</ele>
        <time>2021-03-30T10:20:41.000Z</time>
      </trkpt>
      <trkpt lat="44.11315" lon="5.97365">
        <ele>526.2</ele>
        <time>2021-03-30T10:20:43.000Z</time>
      </trkpt>
      <trkpt lat="44.11313" lon="5.97362">
        <ele>526.4</ele>
        <time>2021-03-30T10:20:44.000Z</time>
      </trkpt>
      <trkpt lat="44.11311" lon="5.9736">
        <ele>526.6</ele>
        <time>2021-03-30T10:20:45.000Z</time>
      </trkpt>
      <trkpt lat="44.11306" lon="5.97357">
        <ele>526.6</ele>
        <time>2021-03-30T10:20:47.000Z</time>
      </trkpt>
      <trkpt lat="44.11304" lon="5.97356">
        <ele>526.6</ele>
        <time>2021-03-30T10:20:48.000Z</time>
      </trkpt>
      <trkpt lat="44.11301" lon="5.97354">
        <ele>526.6</ele>
        <time>2021-03-30T10:20:49.000Z</time>
      </trkpt>
      <trkpt lat="44.11297" lon="5.97352">
        <ele>527</ele>
        <time>2021-03-30T10:20:51.000Z</time>
      </trkpt>
      <trkpt lat="44.11294" lon="5.97351">
        <ele>527</ele>
        <time>2021-03-30T10:20:52.000Z</time>
      </trkpt>
      <trkpt lat="44.11289" lon="5.9735">
        <ele>527.2</ele>
        <time>2021-03-30T10:20:54.000Z</time>
      </trkpt>
      <trkpt lat="44.11286" lon="5.9735">
        <ele>527.4</ele>
        <time>2021-03-30T10:20:55.000Z</time>
      </trkpt>
      <trkpt lat="44.11284" lon="5.97349">
        <ele>527.4</ele>
        <time>2021-03-30T10:20:56.000Z</time>
      </trkpt>
      <trkpt lat="44.11279" lon="5.97347">
        <ele>527.4</ele>
        <time>2021-03-30T10:20:58.000Z</time>
      </trkpt>
      <trkpt lat="44.11276" lon="5.97346">
        <ele>527.4</ele>
        <time>2021-03-30T10:20:59.000Z</time>
      </trkpt>
      <trkpt lat="44.11273" lon="5.97346">
        <ele>527.4</ele>
        <time>2021-03-30T10:21:00.000Z</time>
      </trkpt>
      <trkpt lat="44.11267" lon="5.97346">
        <ele>527.4</ele>
        <time>2021-03-30T10:21:02.000Z</time>
      </trkpt>
      <trkpt lat="44.11264" lon="5.97346">
        <ele>527.4</ele>
        <time>2021-03-30T10:21:03.000Z</time>
      </trkpt>
      <trkpt lat="44.11258" lon="5.97347">
        <ele>527.2</ele>
        <time>2021-03-30T10:21:05.000Z</time>
      </trkpt>
      <trkpt lat="44.11255" lon="5.97348">
        <ele>527.2</ele>
        <time>2021-03-30T10:21:06.000Z</time>
      </trkpt>
      <trkpt lat="44.11251" lon="5.97349">
        <ele>527.2</ele>
        <time>2021-03-30T10:21:07.000Z</time>
      </trkpt>
      <trkpt lat="44.11245" lon="5.9735">
        <ele>527.2</ele>
        <time>2021-03-30T10:21:09.000Z</time>
      </trkpt>
      <trkpt lat="44.11242" lon="5.97351">
        <ele>527.2</ele>
        <time>2021-03-30T10:21:10.000Z</time>
      </trkpt>
      <trkpt lat="44.11238" lon="5.97351">
        <ele>527.2</ele>
        <time>2021-03-30T10:21:11.000Z</time>
      </trkpt>
      <trkpt lat="44.11232" lon="5.97351">
        <ele>527.2</ele>
        <time>2021-03-30T10:21:13.000Z</time>
      </trkpt>
      <trkpt lat="44.11229" lon="5.9735">
        <ele>527</ele>
        <time>2021-03-30T10:21:14.000Z</time>
      </trkpt>
      <trkpt lat="44.11222" lon="5.97349">
        <ele>526.8</ele>
        <time>2021-03-30T10:21:16.000Z</time>
      </trkpt>
      <trkpt lat="44.11219" lon="5.97348">
        <ele>526.8</ele>
        <time>2021-03-30T10:21:17.000Z</time>
      </trkpt>
      <trkpt lat="44.11216" lon="5.97347">
        <ele>526.6</ele>
        <time>2021-03-30T10:21:18.000Z</time>
      </trkpt>
      <trkpt lat="44.11211" lon="5.97346">
        <ele>526.6</ele>
        <time>2021-03-30T10:21:20.000Z</time>
      </trkpt>
      <trkpt lat="44.11209" lon="5.97345">
        <ele>526.6</ele>
        <time>2021-03-30T10:21:21.000Z</time>
      </trkpt>
      <trkpt lat="44.11207" lon="5.97344">
        <ele>526.4</ele>
        <time>2021-03-30T10:21:22.000Z</time>
      </trkpt>
      <trkpt lat="44.11202" lon="5.97342">
        <ele>526.4</ele>
        <time>2021-03-30T10:21:24.000Z</time>
      </trkpt>
      <trkpt lat="44.11199" lon="5.97341">
        <ele>526.4</ele>
        <time>2021-03-30T10:21:25.000Z</time>
      </trkpt>
      <trkpt lat="44.11197" lon="5.9734">
        <ele>526.4</ele>
        <time>2021-03-30T10:21:26.000Z</time>
      </trkpt>
      <trkpt lat="44.11191" lon="5.9734">
        <ele>526.6</ele>
        <time>2021-03-30T10:21:28.000Z</time>
      </trkpt>
      <trkpt lat="44.11188" lon="5.97341">
        <ele>526.6</ele>
        <time>2021-03-30T10:21:29.000Z</time>
      </trkpt>
      <trkpt lat="44.11182" lon="5.97342">
        <ele>526.8</ele>
        <time>2021-03-30T10:21:31.000Z</time>
      </trkpt>
      <trkpt lat="44.11179" lon="5.97341">
        <ele>526.8</ele>
        <time>2021-03-30T10:21:32.000Z</time>
      </trkpt>
      <trkpt lat="44.11176" lon="5.9734">
        <ele>526.8</ele>
        <time>2021-03-30T10:21:33.000Z</time>
      </trkpt>
      <trkpt lat="44.1117" lon="5.97338">
        <ele>526.8</ele>
        <time>2021-03-30T10:21:35.000Z</time>
      </trkpt>
      <trkpt lat="44.11167" lon="5.97337">
        <ele>527</ele>
        <time>2021-03-30T10:21:36.000Z</time>
      </trkpt>
      <trkpt lat="44.11164" lon="5.97336">
        <ele>527</ele>
        <time>2021-03-30T10:21:37.000Z</time>
      </trkpt>
      <trkpt lat="44.11158" lon="5.97333">
        <ele>527</ele>
        <time>2021-03-30T10:21:39.000Z</time>
      </trkpt>
      <trkpt lat="44.11156" lon="5.97332">
        <ele>527.2</ele>
        <time>2021-03-30T10:21:40.000Z</time>
      </trkpt>
      <trkpt lat="44.1115" lon="5.9733">
        <ele>527.2</ele>
        <time>2021-03-30T10:21:42.000Z</time>
      </trkpt>
      <trkpt lat="44.11147" lon="5.97329">
        <ele>527.4</ele>
        <time>2021-03-30T10:21:43.000Z</time>
      </trkpt>
      <trkpt lat="44.11144" lon="5.97329">
        <ele>527.4</ele>
        <time>2021-03-30T10:21:44.000Z</time>
      </trkpt>
      <trkpt lat="44.11138" lon="5.97327">
        <ele>527.6</ele>
        <time>2021-03-30T10:21:46.000Z</time>
      </trkpt>
      <trkpt lat="44.11135" lon="5.97327">
        <ele>527.6</ele>
        <time>2021-03-30T10:21:47.000Z</time>
      </trkpt>
      <trkpt lat="44.11131" lon="5.97327">
        <ele>527.8</ele>
        <time>2021-03-30T10:21:48.000Z</time>
      </trkpt>
      <trkpt lat="44.11125" lon="5.97328">
        <ele>528</ele>
        <time>2021-03-30T10:21:50.000Z</time>
      </trkpt>
      <trkpt lat="44.11123" lon="5.97328">
        <ele>528.2</ele>
        <time>2021-03-30T10:21:51.000Z</time>
      </trkpt>
      <trkpt lat="44.11118" lon="5.97328">
        <ele>528.8</ele>
        <time>2021-03-30T10:21:53.000Z</time>
      </trkpt>
      <trkpt lat="44.11116" lon="5.97329">
        <ele>529</ele>
        <time>2021-03-30T10:21:54.000Z</time>
      </trkpt>
      <trkpt lat="44.11113" lon="5.9733">
        <ele>529.2</ele>
        <time>2021-03-30T10:21:55.000Z</time>
      </trkpt>
      <trkpt lat="44.11107" lon="5.97333">
        <ele>529.4</ele>
        <time>2021-03-30T10:21:57.000Z</time>
      </trkpt>
      <trkpt lat="44.11105" lon="5.97335">
        <ele>529.4</ele>
        <time>2021-03-30T10:21:58.000Z</time>
      </trkpt>
      <trkpt lat="44.11103" lon="5.97336">
        <ele>529.6</ele>
        <time>2021-03-30T10:21:59.000Z</time>
      </trkpt>
      <trkpt lat="44.111" lon="5.97335">
        <ele>529.8</ele>
        <time>2021-03-30T10:22:01.000Z</time>
      </trkpt>
      <trkpt lat="44.11099" lon="5.97333">
        <ele>529.8</ele>
        <time>2021-03-30T10:22:02.000Z</time>
      </trkpt>
      <trkpt lat="44.11099" lon="5.97331">
        <ele>530</ele>
        <time>2021-03-30T10:22:03.000Z</time>
      </trkpt>
      <trkpt lat="44.111" lon="5.97327">
        <ele>530.2</ele>
        <time>2021-03-30T10:22:05.000Z</time>
      </trkpt>
      <trkpt lat="44.111" lon="5.97324">
        <ele>530.4</ele>
        <time>2021-03-30T10:22:06.000Z</time>
      </trkpt>
      <trkpt lat="44.11102" lon="5.9732">
        <ele>531</ele>
        <time>2021-03-30T10:22:08.000Z</time>
      </trkpt>
      <trkpt lat="44.11104" lon="5.97318">
        <ele>531.2</ele>
        <time>2021-03-30T10:22:09.000Z</time>
      </trkpt>
      <trkpt lat="44.11105" lon="5.97315">
        <ele>531.6</ele>
        <time>2021-03-30T10:22:10.000Z</time>
      </trkpt>
      <trkpt lat="44.11108" lon="5.97308">
        <ele>532.2</ele>
        <time>2021-03-30T10:22:12.000Z</time>
      </trkpt>
      <trkpt lat="44.11109" lon="5.97305">
        <ele>532.6</ele>
        <time>2021-03-30T10:22:13.000Z</time>
      </trkpt>
      <trkpt lat="44.11108" lon="5.97302">
        <ele>532.8</ele>
        <time>2021-03-30T10:22:14.000Z</time>
      </trkpt>
      <trkpt lat="44.11104" lon="5.97299">
        <ele>533.6</ele>
        <time>2021-03-30T10:22:16.000Z</time>
      </trkpt>
      <trkpt lat="44.11102" lon="5.97298">
        <ele>533.8</ele>
        <time>2021-03-30T10:22:17.000Z</time>
      </trkpt>
      <trkpt lat="44.11098" lon="5.97294">
        <ele>534.6</ele>
        <time>2021-03-30T10:22:19.000Z</time>
      </trkpt>
      <trkpt lat="44.11097" lon="5.97291">
        <ele>535</ele>
        <time>2021-03-30T10:22:20.000Z</time>
      </trkpt>
      <trkpt lat="44.11096" lon="5.97289">
        <ele>535.4</ele>
        <time>2021-03-30T10:22:21.000Z</time>
      </trkpt>
      <trkpt lat="44.11097" lon="5.97286">
        <ele>536.2</ele>
        <time>2021-03-30T10:22:23.000Z</time>
      </trkpt>
      <trkpt lat="44.11098" lon="5.97284">
        <ele>536.6</ele>
        <time>2021-03-30T10:22:24.000Z</time>
      </trkpt>
      <trkpt lat="44.11099" lon="5.9728">
        <ele>537</ele>
        <time>2021-03-30T10:22:25.000Z</time>
      </trkpt>
      <trkpt lat="44.11099" lon="5.97271">
        <ele>537.4</ele>
        <time>2021-03-30T10:22:27.000Z</time>
      </trkpt>
      <trkpt lat="44.111" lon="5.97266">
        <ele>537.6</ele>
        <time>2021-03-30T10:22:28.000Z</time>
      </trkpt>
      <trkpt lat="44.11103" lon="5.97259">
        <ele>538</ele>
        <time>2021-03-30T10:22:30.000Z</time>
      </trkpt>
      <trkpt lat="44.11105" lon="5.97256">
        <ele>538.2</ele>
        <time>2021-03-30T10:22:31.000Z</time>
      </trkpt>
      <trkpt lat="44.11105" lon="5.97253">
        <ele>538.4</ele>
        <time>2021-03-30T10:22:32.000Z</time>
      </trkpt>
      <trkpt lat="44.11108" lon="5.97246">
        <ele>538.8</ele>
        <time>2021-03-30T10:22:34.000Z</time>
      </trkpt>
      <trkpt lat="44.1111" lon="5.97242">
        <ele>539</ele>
        <time>2021-03-30T10:22:35.000Z</time>
      </trkpt>
      <trkpt lat="44.11111" lon="5.97238">
        <ele>539.4</ele>
        <time>2021-03-30T10:22:36.000Z</time>
      </trkpt>
      <trkpt lat="44.11112" lon="5.97228">
        <ele>539.4</ele>
        <time>2021-03-30T10:22:38.000Z</time>
      </trkpt>
      <trkpt lat="44.11112" lon="5.97223">
        <ele>539.4</ele>
        <time>2021-03-30T10:22:39.000Z</time>
      </trkpt>
      <trkpt lat="44.11112" lon="5.97218">
        <ele>539.4</ele>
        <time>2021-03-30T10:22:40.000Z</time>
      </trkpt>
      <trkpt lat="44.11112" lon="5.97206">
        <ele>539.4</ele>
        <time>2021-03-30T10:22:42.000Z</time>
      </trkpt>
      <trkpt lat="44.11112" lon="5.972">
        <ele>539.4</ele>
        <time>2021-03-30T10:22:43.000Z</time>
      </trkpt>
      <trkpt lat="44.11113" lon="5.97191">
        <ele>539.6</ele>
        <time>2021-03-30T10:22:45.000Z</time>
      </trkpt>
      <trkpt lat="44.11114" lon="5.97188">
        <ele>539.6</ele>
        <time>2021-03-30T10:22:46.000Z</time>
      </trkpt>
      <trkpt lat="44.11116" lon="5.97186">
        <ele>539.6</ele>
        <time>2021-03-30T10:22:47.000Z</time>
      </trkpt>
      <trkpt lat="44.11121" lon="5.97182">
        <ele>540</ele>
        <time>2021-03-30T10:22:49.000Z</time>
      </trkpt>
      <trkpt lat="44.11124" lon="5.97179">
        <ele>540.2</ele>
        <time>2021-03-30T10:22:50.000Z</time>
      </trkpt>
      <trkpt lat="44.11125" lon="5.97176">
        <ele>540.2</ele>
        <time>2021-03-30T10:22:51.000Z</time>
      </trkpt>
      <trkpt lat="44.11127" lon="5.97169">
        <ele>540.4</ele>
        <time>2021-03-30T10:22:53.000Z</time>
      </trkpt>
      <trkpt lat="44.11128" lon="5.97166">
        <ele>540.6</ele>
        <time>2021-03-30T10:22:54.000Z</time>
      </trkpt>
      <trkpt lat="44.11128" lon="5.97158">
        <ele>540.8</ele>
        <time>2021-03-30T10:22:56.000Z</time>
      </trkpt>
      <trkpt lat="44.11127" lon="5.97153">
        <ele>540.8</ele>
        <time>2021-03-30T10:22:57.000Z</time>
      </trkpt>
      <trkpt lat="44.11127" lon="5.97149">
        <ele>540.8</ele>
        <time>2021-03-30T10:22:58.000Z</time>
      </trkpt>
      <trkpt lat="44.11128" lon="5.97143">
        <ele>540.8</ele>
        <time>2021-03-30T10:23:00.000Z</time>
      </trkpt>
      <trkpt lat="44.11128" lon="5.9714">
        <ele>541</ele>
        <time>2021-03-30T10:23:01.000Z</time>
      </trkpt>
      <trkpt lat="44.11128" lon="5.97136">
        <ele>541.2</ele>
        <time>2021-03-30T10:23:02.000Z</time>
      </trkpt>
      <trkpt lat="44.11127" lon="5.97128">
        <ele>541.4</ele>
        <time>2021-03-30T10:23:04.000Z</time>
      </trkpt>
      <trkpt lat="44.11127" lon="5.97124">
        <ele>541.6</ele>
        <time>2021-03-30T10:23:05.000Z</time>
      </trkpt>
      <trkpt lat="44.11124" lon="5.97117">
        <ele>542</ele>
        <time>2021-03-30T10:23:07.000Z</time>
      </trkpt>
      <trkpt lat="44.11123" lon="5.97114">
        <ele>542.2</ele>
        <time>2021-03-30T10:23:08.000Z</time>
      </trkpt>
      <trkpt lat="44.1112" lon="5.97113">
        <ele>542.4</ele>
        <time>2021-03-30T10:23:09.000Z</time>
      </trkpt>
      <trkpt lat="44.11115" lon="5.97113">
        <ele>542.6</ele>
        <time>2021-03-30T10:23:11.000Z</time>
      </trkpt>
      <trkpt lat="44.11112" lon="5.97114">
        <ele>542.8</ele>
        <time>2021-03-30T10:23:12.000Z</time>
      </trkpt>
      <trkpt lat="44.1111" lon="5.97116">
        <ele>543</ele>
        <time>2021-03-30T10:23:13.000Z</time>
      </trkpt>
      <trkpt lat="44.11105" lon="5.97117">
        <ele>543.2</ele>
        <time>2021-03-30T10:23:15.000Z</time>
      </trkpt>
      <trkpt lat="44.11103" lon="5.97117">
        <ele>543.4</ele>
        <time>2021-03-30T10:23:16.000Z</time>
      </trkpt>
      <trkpt lat="44.11095" lon="5.97117">
        <ele>543.6</ele>
        <time>2021-03-30T10:23:18.000Z</time>
      </trkpt>
      <trkpt lat="44.11092" lon="5.97117">
        <ele>543.4</ele>
        <time>2021-03-30T10:23:19.000Z</time>
      </trkpt>
      <trkpt lat="44.11089" lon="5.97115">
        <ele>543.4</ele>
        <time>2021-03-30T10:23:20.000Z</time>
      </trkpt>
      <trkpt lat="44.11084" lon="5.97112">
        <ele>543</ele>
        <time>2021-03-30T10:23:22.000Z</time>
      </trkpt>
      <trkpt lat="44.11079" lon="5.97111">
        <ele>542.6</ele>
        <time>2021-03-30T10:23:23.000Z</time>
      </trkpt>
      <trkpt lat="44.11076" lon="5.97112">
        <ele>542.4</ele>
        <time>2021-03-30T10:23:24.000Z</time>
      </trkpt>
      <trkpt lat="44.11071" lon="5.9711">
        <ele>542</ele>
        <time>2021-03-30T10:23:26.000Z</time>
      </trkpt>
      <trkpt lat="44.1107" lon="5.97108">
        <ele>541.8</ele>
        <time>2021-03-30T10:23:27.000Z</time>
      </trkpt>
      <trkpt lat="44.11069" lon="5.97107">
        <ele>541.6</ele>
        <time>2021-03-30T10:23:28.000Z</time>
      </trkpt>
      <trkpt lat="44.11065" lon="5.97108">
        <ele>541</ele>
        <time>2021-03-30T10:23:30.000Z</time>
      </trkpt>
      <trkpt lat="44.11063" lon="5.97109">
        <ele>540.6</ele>
        <time>2021-03-30T10:23:31.000Z</time>
      </trkpt>
      <trkpt lat="44.1106" lon="5.97111">
        <ele>540.2</ele>
        <time>2021-03-30T10:23:33.000Z</time>
      </trkpt>
      <trkpt lat="44.1106" lon="5.97112">
        <ele>540</ele>
        <time>2021-03-30T10:23:34.000Z</time>
      </trkpt>
      <trkpt lat="44.11059" lon="5.9711">
        <ele>539.8</ele>
        <time>2021-03-30T10:23:35.000Z</time>
      </trkpt>
      <trkpt lat="44.11055" lon="5.97107">
        <ele>539.4</ele>
        <time>2021-03-30T10:23:37.000Z</time>
      </trkpt>
      <trkpt lat="44.11054" lon="5.97106">
        <ele>539.4</ele>
        <time>2021-03-30T10:23:38.000Z</time>
      </trkpt>
      <trkpt lat="44.11054" lon="5.97105">
        <ele>539.4</ele>
        <time>2021-03-30T10:23:39.000Z</time>
      </trkpt>
      <trkpt lat="44.11052" lon="5.97102">
        <ele>539.6</ele>
        <time>2021-03-30T10:23:41.000Z</time>
      </trkpt>
      <trkpt lat="44.11051" lon="5.971">
        <ele>539.6</ele>
        <time>2021-03-30T10:23:42.000Z</time>
      </trkpt>
      <trkpt lat="44.11049" lon="5.97095">
        <ele>539.8</ele>
        <time>2021-03-30T10:23:44.000Z</time>
      </trkpt>
      <trkpt lat="44.11048" lon="5.97093">
        <ele>540</ele>
        <time>2021-03-30T10:23:45.000Z</time>
      </trkpt>
      <trkpt lat="44.11047" lon="5.9709">
        <ele>540.2</ele>
        <time>2021-03-30T10:23:46.000Z</time>
      </trkpt>
      <trkpt lat="44.11045" lon="5.97085">
        <ele>540.4</ele>
        <time>2021-03-30T10:23:48.000Z</time>
      </trkpt>
      <trkpt lat="44.11044" lon="5.97082">
        <ele>540.6</ele>
        <time>2021-03-30T10:23:49.000Z</time>
      </trkpt>
      <trkpt lat="44.11042" lon="5.9708">
        <ele>540.6</ele>
        <time>2021-03-30T10:23:50.000Z</time>
      </trkpt>
      <trkpt lat="44.11039" lon="5.97078">
        <ele>540.8</ele>
        <time>2021-03-30T10:23:52.000Z</time>
      </trkpt>
      <trkpt lat="44.11037" lon="5.97077">
        <ele>541</ele>
        <time>2021-03-30T10:23:53.000Z</time>
      </trkpt>
      <trkpt lat="44.11034" lon="5.97074">
        <ele>541.2</ele>
        <time>2021-03-30T10:23:55.000Z</time>
      </trkpt>
      <trkpt lat="44.11032" lon="5.97073">
        <ele>541.4</ele>
        <time>2021-03-30T10:23:56.000Z</time>
      </trkpt>
      <trkpt lat="44.1103" lon="5.97072">
        <ele>541.6</ele>
        <time>2021-03-30T10:23:57.000Z</time>
      </trkpt>
      <trkpt lat="44.11026" lon="5.9707">
        <ele>541.6</ele>
        <time>2021-03-30T10:23:59.000Z</time>
      </trkpt>
      <trkpt lat="44.11023" lon="5.97069">
        <ele>541.6</ele>
        <time>2021-03-30T10:24:00.000Z</time>
      </trkpt>
      <trkpt lat="44.1102" lon="5.97069">
        <ele>541.2</ele>
        <time>2021-03-30T10:24:01.000Z</time>
      </trkpt>
      <trkpt lat="44.11013" lon="5.97069">
        <ele>540.8</ele>
        <time>2021-03-30T10:24:03.000Z</time>
      </trkpt>
      <trkpt lat="44.11009" lon="5.9707">
        <ele>540.6</ele>
        <time>2021-03-30T10:24:04.000Z</time>
      </trkpt>
      <trkpt lat="44.11005" lon="5.97071">
        <ele>540.6</ele>
        <time>2021-03-30T10:24:05.000Z</time>
      </trkpt>
      <trkpt lat="44.11002" lon="5.97071">
        <ele>540.4</ele>
        <time>2021-03-30T10:24:07.000Z</time>
      </trkpt>
      <trkpt lat="44.11" lon="5.97071">
        <ele>540</ele>
        <time>2021-03-30T10:24:08.000Z</time>
      </trkpt>
      <trkpt lat="44.10999" lon="5.97071">
        <ele>539.4</ele>
        <time>2021-03-30T10:24:10.000Z</time>
      </trkpt>
      <trkpt lat="44.10998" lon="5.97071">
        <ele>539</ele>
        <time>2021-03-30T10:24:11.000Z</time>
      </trkpt>
      <trkpt lat="44.10998" lon="5.9707">
        <ele>538.6</ele>
        <time>2021-03-30T10:24:12.000Z</time>
      </trkpt>
      <trkpt lat="44.10998" lon="5.9707">
        <ele>537.6</ele>
        <time>2021-03-30T10:24:14.000Z</time>
      </trkpt>
      <trkpt lat="44.10998" lon="5.9707">
        <ele>537.2</ele>
        <time>2021-03-30T10:24:15.000Z</time>
      </trkpt>
      <trkpt lat="44.10998" lon="5.9707">
        <ele>536.8</ele>
        <time>2021-03-30T10:24:16.000Z</time>
      </trkpt>
      <trkpt lat="44.10998" lon="5.9707">
        <ele>535.8</ele>
        <time>2021-03-30T10:24:18.000Z</time>
      </trkpt>
      <trkpt lat="44.10998" lon="5.9707">
        <ele>535.2</ele>
        <time>2021-03-30T10:24:19.000Z</time>
      </trkpt>
      <trkpt lat="44.10998" lon="5.9707">
        <ele>534.2</ele>
        <time>2021-03-30T10:24:21.000Z</time>
      </trkpt>
      <trkpt lat="44.10997" lon="5.9707">
        <ele>533.6</ele>
        <time>2021-03-30T10:24:22.000Z</time>
      </trkpt>
      <trkpt lat="44.10997" lon="5.9707">
        <ele>533</ele>
        <time>2021-03-30T10:24:23.000Z</time>
      </trkpt>
      <trkpt lat="44.10996" lon="5.97071">
        <ele>532</ele>
        <time>2021-03-30T10:24:25.000Z</time>
      </trkpt>
      <trkpt lat="44.10996" lon="5.97071">
        <ele>531.4</ele>
        <time>2021-03-30T10:24:26.000Z</time>
      </trkpt>
      <trkpt lat="44.10995" lon="5.97071">
        <ele>530.8</ele>
        <time>2021-03-30T10:24:27.000Z</time>
      </trkpt>
      <trkpt lat="44.10995" lon="5.97071">
        <ele>529.8</ele>
        <time>2021-03-30T10:24:29.000Z</time>
      </trkpt>
      <trkpt lat="44.10994" lon="5.97071">
        <ele>529.2</ele>
        <time>2021-03-30T10:24:30.000Z</time>
      </trkpt>
      <trkpt lat="44.10994" lon="5.97071">
        <ele>528.2</ele>
        <time>2021-03-30T10:24:32.000Z</time>
      </trkpt>
      <trkpt lat="44.10994" lon="5.97071">
        <ele>527.6</ele>
        <time>2021-03-30T10:24:33.000Z</time>
      </trkpt>
      <trkpt lat="44.10994" lon="5.97071">
        <ele>527.2</ele>
        <time>2021-03-30T10:24:34.000Z</time>
      </trkpt>
      <trkpt lat="44.10994" lon="5.97071">
        <ele>526.2</ele>
        <time>2021-03-30T10:24:36.000Z</time>
      </trkpt>
      <trkpt lat="44.10994" lon="5.97071">
        <ele>525.6</ele>
        <time>2021-03-30T10:24:37.000Z</time>
      </trkpt>
      <trkpt lat="44.10994" lon="5.97071">
        <ele>525</ele>
        <time>2021-03-30T10:24:38.000Z</time>
      </trkpt>
      <trkpt lat="44.1099" lon="5.97071">
        <ele>524</ele>
        <time>2021-03-30T10:24:40.000Z</time>
      </trkpt>
      <trkpt lat="44.10988" lon="5.97071">
        <ele>523.6</ele>
        <time>2021-03-30T10:24:41.000Z</time>
      </trkpt>
      <trkpt lat="44.10986" lon="5.97072">
        <ele>523.4</ele>
        <time>2021-03-30T10:24:42.000Z</time>
      </trkpt>
      <trkpt lat="44.10986" lon="5.97071">
        <ele>523.4</ele>
        <time>2021-03-30T10:24:44.000Z</time>
      </trkpt>
      <trkpt lat="44.10985" lon="5.97071">
        <ele>523.4</ele>
        <time>2021-03-30T10:24:45.000Z</time>
      </trkpt>
      <trkpt lat="44.10985" lon="5.97072">
        <ele>523.4</ele>
        <time>2021-03-30T10:24:47.000Z</time>
      </trkpt>
      <trkpt lat="44.10985" lon="5.97072">
        <ele>523.6</ele>
        <time>2021-03-30T10:24:48.000Z</time>
      </trkpt>
      <trkpt lat="44.10985" lon="5.97072">
        <ele>523.8</ele>
        <time>2021-03-30T10:24:49.000Z</time>
      </trkpt>
      <trkpt lat="44.10985" lon="5.97072">
        <ele>524</ele>
        <time>2021-03-30T10:24:51.000Z</time>
      </trkpt>
      <trkpt lat="44.10985" lon="5.97072">
        <ele>524</ele>
        <time>2021-03-30T10:24:52.000Z</time>
      </trkpt>
      <trkpt lat="44.10985" lon="5.97072">
        <ele>524.2</ele>
        <time>2021-03-30T10:24:53.000Z</time>
      </trkpt>
      <trkpt lat="44.10985" lon="5.97072">
        <ele>524.4</ele>
        <time>2021-03-30T10:24:55.000Z</time>
      </trkpt>
      <trkpt lat="44.10985" lon="5.97072">
        <ele>524.6</ele>
        <time>2021-03-30T10:24:56.000Z</time>
      </trkpt>
      <trkpt lat="44.10985" lon="5.97072">
        <ele>524.8</ele>
        <time>2021-03-30T10:24:58.000Z</time>
      </trkpt>
      <trkpt lat="44.10985" lon="5.97072">
        <ele>525</ele>
        <time>2021-03-30T10:24:59.000Z</time>
      </trkpt>
      <trkpt lat="44.10985" lon="5.97072">
        <ele>525</ele>
        <time>2021-03-30T10:25:00.000Z</time>
      </trkpt>
      <trkpt lat="44.10985" lon="5.97072">
        <ele>525.4</ele>
        <time>2021-03-30T10:25:02.000Z</time>
      </trkpt>
      <trkpt lat="44.10985" lon="5.97072">
        <ele>525.6</ele>
        <time>2021-03-30T10:25:03.000Z</time>
      </trkpt>
      <trkpt lat="44.10985" lon="5.97072">
        <ele>525.8</ele>
        <time>2021-03-30T10:25:04.000Z</time>
      </trkpt>
      <trkpt lat="44.10985" lon="5.97072">
        <ele>526.2</ele>
        <time>2021-03-30T10:25:06.000Z</time>
      </trkpt>
      <trkpt lat="44.10985" lon="5.97072">
        <ele>526.4</ele>
        <time>2021-03-30T10:25:07.000Z</time>
      </trkpt>
      <trkpt lat="44.10985" lon="5.97072">
        <ele>526.8</ele>
        <time>2021-03-30T10:25:09.000Z</time>
      </trkpt>
      <trkpt lat="44.10985" lon="5.97074">
        <ele>526.8</ele>
        <time>2021-03-30T10:25:10.000Z</time>
      </trkpt>
      <trkpt lat="44.10985" lon="5.97075">
        <ele>527</ele>
        <time>2021-03-30T10:25:11.000Z</time>
      </trkpt>
      <trkpt lat="44.10982" lon="5.97076">
        <ele>527.2</ele>
        <time>2021-03-30T10:25:13.000Z</time>
      </trkpt>
      <trkpt lat="44.1098" lon="5.97076">
        <ele>527.4</ele>
        <time>2021-03-30T10:25:14.000Z</time>
      </trkpt>
      <trkpt lat="44.10979" lon="5.97076">
        <ele>527.6</ele>
        <time>2021-03-30T10:25:15.000Z</time>
      </trkpt>
      <trkpt lat="44.10978" lon="5.97075">
        <ele>528</ele>
        <time>2021-03-30T10:25:17.000Z</time>
      </trkpt>
      <trkpt lat="44.10977" lon="5.97075">
        <ele>528.2</ele>
        <time>2021-03-30T10:25:18.000Z</time>
      </trkpt>
      <trkpt lat="44.10977" lon="5.97075">
        <ele>528.4</ele>
        <time>2021-03-30T10:25:20.000Z</time>
      </trkpt>
      <trkpt lat="44.10977" lon="5.97075">
        <ele>528.4</ele>
        <time>2021-03-30T10:25:21.000Z</time>
      </trkpt>
      <trkpt lat="44.10977" lon="5.97075">
        <ele>528.4</ele>
        <time>2021-03-30T10:25:22.000Z</time>
      </trkpt>
      <trkpt lat="44.10977" lon="5.97075">
        <ele>528.6</ele>
        <time>2021-03-30T10:25:24.000Z</time>
      </trkpt>
      <trkpt lat="44.10977" lon="5.97075">
        <ele>528.6</ele>
        <time>2021-03-30T10:25:25.000Z</time>
      </trkpt>
      <trkpt lat="44.10977" lon="5.97074">
        <ele>528.8</ele>
        <time>2021-03-30T10:25:26.000Z</time>
      </trkpt>
      <trkpt lat="44.10978" lon="5.97072">
        <ele>529</ele>
        <time>2021-03-30T10:25:28.000Z</time>
      </trkpt>
      <trkpt lat="44.10977" lon="5.97071">
        <ele>529</ele>
        <time>2021-03-30T10:25:29.000Z</time>
      </trkpt>
      <trkpt lat="44.10977" lon="5.9707">
        <ele>529.2</ele>
        <time>2021-03-30T10:25:30.000Z</time>
      </trkpt>
      <trkpt lat="44.10977" lon="5.9707">
        <ele>529.6</ele>
        <time>2021-03-30T10:25:32.000Z</time>
      </trkpt>
      <trkpt lat="44.10977" lon="5.97069">
        <ele>529.8</ele>
        <time>2021-03-30T10:25:33.000Z</time>
      </trkpt>
      <trkpt lat="44.10976" lon="5.97067">
        <ele>530.4</ele>
        <time>2021-03-30T10:25:35.000Z</time>
      </trkpt>
      <trkpt lat="44.10977" lon="5.97066">
        <ele>530.6</ele>
        <time>2021-03-30T10:25:36.000Z</time>
      </trkpt>
      <trkpt lat="44.10976" lon="5.97066">
        <ele>530.8</ele>
        <time>2021-03-30T10:25:37.000Z</time>
      </trkpt>
      <trkpt lat="44.10977" lon="5.97065">
        <ele>531.2</ele>
        <time>2021-03-30T10:25:39.000Z</time>
      </trkpt>
      <trkpt lat="44.10977" lon="5.97064">
        <ele>531.4</ele>
        <time>2021-03-30T10:25:40.000Z</time>
      </trkpt>
      <trkpt lat="44.10977" lon="5.97064">
        <ele>531.6</ele>
        <time>2021-03-30T10:25:41.000Z</time>
      </trkpt>
      <trkpt lat="44.10977" lon="5.97064">
        <ele>532.2</ele>
        <time>2021-03-30T10:25:43.000Z</time>
      </trkpt>
      <trkpt lat="44.10977" lon="5.97064">
        <ele>532.4</ele>
        <time>2021-03-30T10:25:44.000Z</time>
      </trkpt>
      <trkpt lat="44.10978" lon="5.97061">
        <ele>532.8</ele>
        <time>2021-03-30T10:25:46.000Z</time>
      </trkpt>
      <trkpt lat="44.10979" lon="5.97059">
        <ele>533</ele>
        <time>2021-03-30T10:25:47.000Z</time>
      </trkpt>
      <trkpt lat="44.1098" lon="5.97057">
        <ele>533.2</ele>
        <time>2021-03-30T10:25:48.000Z</time>
      </trkpt>
      <trkpt lat="44.10981" lon="5.97053">
        <ele>533.4</ele>
        <time>2021-03-30T10:25:50.000Z</time>
      </trkpt>
      <trkpt lat="44.10983" lon="5.97051">
        <ele>533.8</ele>
        <time>2021-03-30T10:25:51.000Z</time>
      </trkpt>
      <trkpt lat="44.10983" lon="5.97049">
        <ele>534</ele>
        <time>2021-03-30T10:25:52.000Z</time>
      </trkpt>
      <trkpt lat="44.10984" lon="5.97042">
        <ele>534.6</ele>
        <time>2021-03-30T10:25:54.000Z</time>
      </trkpt>
      <trkpt lat="44.10984" lon="5.97038">
        <ele>534.8</ele>
        <time>2021-03-30T10:25:55.000Z</time>
      </trkpt>
      <trkpt lat="44.10984" lon="5.97032">
        <ele>535.6</ele>
        <time>2021-03-30T10:25:57.000Z</time>
      </trkpt>
      <trkpt lat="44.10984" lon="5.97029">
        <ele>536</ele>
        <time>2021-03-30T10:25:58.000Z</time>
      </trkpt>
      <trkpt lat="44.10983" lon="5.97027">
        <ele>536.4</ele>
        <time>2021-03-30T10:25:59.000Z</time>
      </trkpt>
      <trkpt lat="44.10982" lon="5.97022">
        <ele>537.2</ele>
        <time>2021-03-30T10:26:01.000Z</time>
      </trkpt>
      <trkpt lat="44.10981" lon="5.9702">
        <ele>537.6</ele>
        <time>2021-03-30T10:26:02.000Z</time>
      </trkpt>
      <trkpt lat="44.10979" lon="5.97018">
        <ele>538</ele>
        <time>2021-03-30T10:26:03.000Z</time>
      </trkpt>
      <trkpt lat="44.10976" lon="5.97014">
        <ele>538.6</ele>
        <time>2021-03-30T10:26:05.000Z</time>
      </trkpt>
      <trkpt lat="44.10975" lon="5.97012">
        <ele>539</ele>
        <time>2021-03-30T10:26:06.000Z</time>
      </trkpt>
      <trkpt lat="44.10973" lon="5.97009">
        <ele>539.2</ele>
        <time>2021-03-30T10:26:07.000Z</time>
      </trkpt>
      <trkpt lat="44.1097" lon="5.97003">
        <ele>539.8</ele>
        <time>2021-03-30T10:26:09.000Z</time>
      </trkpt>
      <trkpt lat="44.10969" lon="5.96999">
        <ele>540.2</ele>
        <time>2021-03-30T10:26:10.000Z</time>
      </trkpt>
      <trkpt lat="44.10966" lon="5.96996">
        <ele>540.8</ele>
        <time>2021-03-30T10:26:12.000Z</time>
      </trkpt>
      <trkpt lat="44.10964" lon="5.96996">
        <ele>541.2</ele>
        <time>2021-03-30T10:26:13.000Z</time>
      </trkpt>
      <trkpt lat="44.10962" lon="5.96995">
        <ele>541.6</ele>
        <time>2021-03-30T10:26:14.000Z</time>
      </trkpt>
      <trkpt lat="44.10958" lon="5.96993">
        <ele>542.2</ele>
        <time>2021-03-30T10:26:16.000Z</time>
      </trkpt>
      <trkpt lat="44.10956" lon="5.96992">
        <ele>542.6</ele>
        <time>2021-03-30T10:26:17.000Z</time>
      </trkpt>
      <trkpt lat="44.10954" lon="5.96991">
        <ele>543</ele>
        <time>2021-03-30T10:26:18.000Z</time>
      </trkpt>
      <trkpt lat="44.10949" lon="5.96989">
        <ele>544</ele>
        <time>2021-03-30T10:26:20.000Z</time>
      </trkpt>
      <trkpt lat="44.10947" lon="5.96988">
        <ele>544.4</ele>
        <time>2021-03-30T10:26:21.000Z</time>
      </trkpt>
      <trkpt lat="44.10943" lon="5.96986">
        <ele>545.2</ele>
        <time>2021-03-30T10:26:23.000Z</time>
      </trkpt>
      <trkpt lat="44.10941" lon="5.96985">
        <ele>545.4</ele>
        <time>2021-03-30T10:26:24.000Z</time>
      </trkpt>
      <trkpt lat="44.10938" lon="5.96985">
        <ele>545.8</ele>
        <time>2021-03-30T10:26:25.000Z</time>
      </trkpt>
      <trkpt lat="44.10933" lon="5.96985">
        <ele>546.6</ele>
        <time>2021-03-30T10:26:27.000Z</time>
      </trkpt>
      <trkpt lat="44.10931" lon="5.96985">
        <ele>547</ele>
        <time>2021-03-30T10:26:28.000Z</time>
      </trkpt>
      <trkpt lat="44.1093" lon="5.96985">
        <ele>547.4</ele>
        <time>2021-03-30T10:26:29.000Z</time>
      </trkpt>
      <trkpt lat="44.10925" lon="5.96984">
        <ele>548</ele>
        <time>2021-03-30T10:26:31.000Z</time>
      </trkpt>
      <trkpt lat="44.10923" lon="5.96983">
        <ele>548.4</ele>
        <time>2021-03-30T10:26:32.000Z</time>
      </trkpt>
      <trkpt lat="44.1092" lon="5.96981">
        <ele>549</ele>
        <time>2021-03-30T10:26:34.000Z</time>
      </trkpt>
      <trkpt lat="44.10918" lon="5.9698">
        <ele>549.2</ele>
        <time>2021-03-30T10:26:35.000Z</time>
      </trkpt>
      <trkpt lat="44.10916" lon="5.96979">
        <ele>549.6</ele>
        <time>2021-03-30T10:26:36.000Z</time>
      </trkpt>
      <trkpt lat="44.10911" lon="5.96977">
        <ele>550.2</ele>
        <time>2021-03-30T10:26:38.000Z</time>
      </trkpt>
      <trkpt lat="44.10909" lon="5.96976">
        <ele>550.6</ele>
        <time>2021-03-30T10:26:39.000Z</time>
      </trkpt>
      <trkpt lat="44.10906" lon="5.96975">
        <ele>550.8</ele>
        <time>2021-03-30T10:26:40.000Z</time>
      </trkpt>
      <trkpt lat="44.10901" lon="5.96972">
        <ele>551.6</ele>
        <time>2021-03-30T10:26:42.000Z</time>
      </trkpt>
      <trkpt lat="44.10898" lon="5.96971">
        <ele>552</ele>
        <time>2021-03-30T10:26:43.000Z</time>
      </trkpt>
      <trkpt lat="44.10894" lon="5.96969">
        <ele>552.6</ele>
        <time>2021-03-30T10:26:45.000Z</time>
      </trkpt>
      <trkpt lat="44.10892" lon="5.96969">
        <ele>553</ele>
        <time>2021-03-30T10:26:46.000Z</time>
      </trkpt>
      <trkpt lat="44.10889" lon="5.96969">
        <ele>553.4</ele>
        <time>2021-03-30T10:26:47.000Z</time>
      </trkpt>
      <trkpt lat="44.10885" lon="5.96966">
        <ele>554.2</ele>
        <time>2021-03-30T10:26:49.000Z</time>
      </trkpt>
      <trkpt lat="44.10883" lon="5.96963">
        <ele>554.4</ele>
        <time>2021-03-30T10:26:50.000Z</time>
      </trkpt>
      <trkpt lat="44.1088" lon="5.96961">
        <ele>554.6</ele>
        <time>2021-03-30T10:26:51.000Z</time>
      </trkpt>
      <trkpt lat="44.10874" lon="5.9696">
        <ele>555.2</ele>
        <time>2021-03-30T10:26:53.000Z</time>
      </trkpt>
      <trkpt lat="44.10872" lon="5.9696">
        <ele>555.4</ele>
        <time>2021-03-30T10:26:54.000Z</time>
      </trkpt>
      <trkpt lat="44.10869" lon="5.9696">
        <ele>555.8</ele>
        <time>2021-03-30T10:26:55.000Z</time>
      </trkpt>
      <trkpt lat="44.10864" lon="5.96958">
        <ele>556.4</ele>
        <time>2021-03-30T10:26:57.000Z</time>
      </trkpt>
      <trkpt lat="44.10861" lon="5.96957">
        <ele>556.8</ele>
        <time>2021-03-30T10:26:58.000Z</time>
      </trkpt>
      <trkpt lat="44.10856" lon="5.96956">
        <ele>557.4</ele>
        <time>2021-03-30T10:27:00.000Z</time>
      </trkpt>
      <trkpt lat="44.10853" lon="5.96955">
        <ele>557.8</ele>
        <time>2021-03-30T10:27:01.000Z</time>
      </trkpt>
      <trkpt lat="44.10851" lon="5.96954">
        <ele>558.2</ele>
        <time>2021-03-30T10:27:02.000Z</time>
      </trkpt>
      <trkpt lat="44.10846" lon="5.96953">
        <ele>558.8</ele>
        <time>2021-03-30T10:27:04.000Z</time>
      </trkpt>
      <trkpt lat="44.10843" lon="5.96952">
        <ele>559.2</ele>
        <time>2021-03-30T10:27:05.000Z</time>
      </trkpt>
      <trkpt lat="44.1084" lon="5.96952">
        <ele>559.4</ele>
        <time>2021-03-30T10:27:06.000Z</time>
      </trkpt>
      <trkpt lat="44.10833" lon="5.9695">
        <ele>560.2</ele>
        <time>2021-03-30T10:27:08.000Z</time>
      </trkpt>
      <trkpt lat="44.1083" lon="5.9695">
        <ele>560.4</ele>
        <time>2021-03-30T10:27:09.000Z</time>
      </trkpt>
      <trkpt lat="44.10823" lon="5.96951">
        <ele>561.2</ele>
        <time>2021-03-30T10:27:11.000Z</time>
      </trkpt>
      <trkpt lat="44.1082" lon="5.96951">
        <ele>561.6</ele>
        <time>2021-03-30T10:27:12.000Z</time>
      </trkpt>
      <trkpt lat="44.10817" lon="5.96952">
        <ele>561.8</ele>
        <time>2021-03-30T10:27:13.000Z</time>
      </trkpt>
      <trkpt lat="44.10812" lon="5.96953">
        <ele>562.6</ele>
        <time>2021-03-30T10:27:15.000Z</time>
      </trkpt>
      <trkpt lat="44.10809" lon="5.96954">
        <ele>563</ele>
        <time>2021-03-30T10:27:16.000Z</time>
      </trkpt>
      <trkpt lat="44.10807" lon="5.96955">
        <ele>563.4</ele>
        <time>2021-03-30T10:27:17.000Z</time>
      </trkpt>
      <trkpt lat="44.10804" lon="5.96958">
        <ele>564</ele>
        <time>2021-03-30T10:27:19.000Z</time>
      </trkpt>
      <trkpt lat="44.10801" lon="5.9696">
        <ele>564.4</ele>
        <time>2021-03-30T10:27:20.000Z</time>
      </trkpt>
      <trkpt lat="44.10796" lon="5.96962">
        <ele>565</ele>
        <time>2021-03-30T10:27:22.000Z</time>
      </trkpt>
      <trkpt lat="44.10793" lon="5.96963">
        <ele>565.4</ele>
        <time>2021-03-30T10:27:23.000Z</time>
      </trkpt>
      <trkpt lat="44.10789" lon="5.96963">
        <ele>565.6</ele>
        <time>2021-03-30T10:27:24.000Z</time>
      </trkpt>
      <trkpt lat="44.10783" lon="5.96965">
        <ele>566.2</ele>
        <time>2021-03-30T10:27:26.000Z</time>
      </trkpt>
      <trkpt lat="44.10781" lon="5.96966">
        <ele>566.6</ele>
        <time>2021-03-30T10:27:27.000Z</time>
      </trkpt>
      <trkpt lat="44.1078" lon="5.96968">
        <ele>567</ele>
        <time>2021-03-30T10:27:28.000Z</time>
      </trkpt>
      <trkpt lat="44.10777" lon="5.9697">
        <ele>567.8</ele>
        <time>2021-03-30T10:27:30.000Z</time>
      </trkpt>
      <trkpt lat="44.10775" lon="5.9697">
        <ele>568.2</ele>
        <time>2021-03-30T10:27:31.000Z</time>
      </trkpt>
      <trkpt lat="44.10775" lon="5.96971">
        <ele>568.6</ele>
        <time>2021-03-30T10:27:32.000Z</time>
      </trkpt>
      <trkpt lat="44.10774" lon="5.96971">
        <ele>569.2</ele>
        <time>2021-03-30T10:27:34.000Z</time>
      </trkpt>
      <trkpt lat="44.10774" lon="5.96971">
        <ele>569.6</ele>
        <time>2021-03-30T10:27:35.000Z</time>
      </trkpt>
      <trkpt lat="44.10774" lon="5.96971">
        <ele>570.2</ele>
        <time>2021-03-30T10:27:37.000Z</time>
      </trkpt>
      <trkpt lat="44.10774" lon="5.96971">
        <ele>570.4</ele>
        <time>2021-03-30T10:27:38.000Z</time>
      </trkpt>
      <trkpt lat="44.10774" lon="5.96971">
        <ele>570.6</ele>
        <time>2021-03-30T10:27:39.000Z</time>
      </trkpt>
      <trkpt lat="44.10774" lon="5.96971">
        <ele>571</ele>
        <time>2021-03-30T10:27:41.000Z</time>
      </trkpt>
      <trkpt lat="44.10774" lon="5.96971">
        <ele>571.4</ele>
        <time>2021-03-30T10:27:42.000Z</time>
      </trkpt>
      <trkpt lat="44.10774" lon="5.96971">
        <ele>571.6</ele>
        <time>2021-03-30T10:27:43.000Z</time>
      </trkpt>
      <trkpt lat="44.10772" lon="5.96974">
        <ele>572</ele>
        <time>2021-03-30T10:27:45.000Z</time>
      </trkpt>
      <trkpt lat="44.10772" lon="5.96975">
        <ele>572.2</ele>
        <time>2021-03-30T10:27:46.000Z</time>
      </trkpt>
      <trkpt lat="44.1077" lon="5.96976">
        <ele>572.6</ele>
        <time>2021-03-30T10:27:48.000Z</time>
      </trkpt>
      <trkpt lat="44.1077" lon="5.96976">
        <ele>572.6</ele>
        <time>2021-03-30T10:27:49.000Z</time>
      </trkpt>
      <trkpt lat="44.1077" lon="5.96976">
        <ele>572.8</ele>
        <time>2021-03-30T10:27:50.000Z</time>
      </trkpt>
      <trkpt lat="44.10769" lon="5.96976">
        <ele>573</ele>
        <time>2021-03-30T10:27:52.000Z</time>
      </trkpt>
      <trkpt lat="44.10769" lon="5.96976">
        <ele>573.2</ele>
        <time>2021-03-30T10:27:53.000Z</time>
      </trkpt>
      <trkpt lat="44.10768" lon="5.96976">
        <ele>573.2</ele>
        <time>2021-03-30T10:27:54.000Z</time>
      </trkpt>
      <trkpt lat="44.10767" lon="5.96976">
        <ele>573.4</ele>
        <time>2021-03-30T10:27:56.000Z</time>
      </trkpt>
      <trkpt lat="44.10767" lon="5.96976">
        <ele>573.4</ele>
        <time>2021-03-30T10:27:57.000Z</time>
      </trkpt>
      <trkpt lat="44.10767" lon="5.96976">
        <ele>573.4</ele>
        <time>2021-03-30T10:27:59.000Z</time>
      </trkpt>
      <trkpt lat="44.10767" lon="5.96976">
        <ele>573.6</ele>
        <time>2021-03-30T10:28:00.000Z</time>
      </trkpt>
      <trkpt lat="44.10767" lon="5.96976">
        <ele>573.6</ele>
        <time>2021-03-30T10:28:01.000Z</time>
      </trkpt>
      <trkpt lat="44.10767" lon="5.96976">
        <ele>573.6</ele>
        <time>2021-03-30T10:28:03.000Z</time>
      </trkpt>
      <trkpt lat="44.10767" lon="5.96976">
        <ele>573.6</ele>
        <time>2021-03-30T10:28:04.000Z</time>
      </trkpt>
      <trkpt lat="44.10767" lon="5.96976">
        <ele>573.8</ele>
        <time>2021-03-30T10:28:05.000Z</time>
      </trkpt>
      <trkpt lat="44.10767" lon="5.96976">
        <ele>573.8</ele>
        <time>2021-03-30T10:28:07.000Z</time>
      </trkpt>
      <trkpt lat="44.10767" lon="5.96976">
        <ele>573.8</ele>
        <time>2021-03-30T10:28:08.000Z</time>
      </trkpt>
      <trkpt lat="44.10767" lon="5.96976">
        <ele>573.8</ele>
        <time>2021-03-30T10:28:09.000Z</time>
      </trkpt>
      <trkpt lat="44.10767" lon="5.96976">
        <ele>574</ele>
        <time>2021-03-30T10:28:11.000Z</time>
      </trkpt>
      <trkpt lat="44.10767" lon="5.96976">
        <ele>574</ele>
        <time>2021-03-30T10:28:12.000Z</time>
      </trkpt>
      <trkpt lat="44.10767" lon="5.96976">
        <ele>574.2</ele>
        <time>2021-03-30T10:28:14.000Z</time>
      </trkpt>
      <trkpt lat="44.10767" lon="5.96976">
        <ele>574.2</ele>
        <time>2021-03-30T10:28:15.000Z</time>
      </trkpt>
      <trkpt lat="44.10767" lon="5.96976">
        <ele>574.2</ele>
        <time>2021-03-30T10:28:16.000Z</time>
      </trkpt>
      <trkpt lat="44.10767" lon="5.96976">
        <ele>574.4</ele>
        <time>2021-03-30T10:28:18.000Z</time>
      </trkpt>
      <trkpt lat="44.10767" lon="5.96976">
        <ele>574.4</ele>
        <time>2021-03-30T10:28:19.000Z</time>
      </trkpt>
      <trkpt lat="44.10767" lon="5.96976">
        <ele>574.6</ele>
        <time>2021-03-30T10:28:20.000Z</time>
      </trkpt>
      <trkpt lat="44.10767" lon="5.96976">
        <ele>574.6</ele>
        <time>2021-03-30T10:28:22.000Z</time>
      </trkpt>
      <trkpt lat="44.10767" lon="5.96976">
        <ele>574.6</ele>
        <time>2021-03-30T10:28:23.000Z</time>
      </trkpt>
      <trkpt lat="44.10767" lon="5.96976">
        <ele>574.6</ele>
        <time>2021-03-30T10:28:25.000Z</time>
      </trkpt>
      <trkpt lat="44.10767" lon="5.96976">
        <ele>574.8</ele>
        <time>2021-03-30T10:28:26.000Z</time>
      </trkpt>
      <trkpt lat="44.10767" lon="5.96976">
        <ele>574.8</ele>
        <time>2021-03-30T10:28:27.000Z</time>
      </trkpt>
      <trkpt lat="44.10767" lon="5.96976">
        <ele>574.8</ele>
        <time>2021-03-30T10:28:29.000Z</time>
      </trkpt>
      <trkpt lat="44.10767" lon="5.96976">
        <ele>575</ele>
        <time>2021-03-30T10:28:30.000Z</time>
      </trkpt>
      <trkpt lat="44.10767" lon="5.96976">
        <ele>575</ele>
        <time>2021-03-30T10:28:31.000Z</time>
      </trkpt>
      <trkpt lat="44.10767" lon="5.96976">
        <ele>575</ele>
        <time>2021-03-30T10:28:33.000Z</time>
      </trkpt>
      <trkpt lat="44.10767" lon="5.96976">
        <ele>575</ele>
        <time>2021-03-30T10:28:34.000Z</time>
      </trkpt>
      <trkpt lat="44.10767" lon="5.96976">
        <ele>575.2</ele>
        <time>2021-03-30T10:28:36.000Z</time>
      </trkpt>
      <trkpt lat="44.10767" lon="5.96976">
        <ele>575.2</ele>
        <time>2021-03-30T10:28:37.000Z</time>
      </trkpt>
      <trkpt lat="44.10767" lon="5.96976">
        <ele>575.2</ele>
        <time>2021-03-30T10:28:38.000Z</time>
      </trkpt>
      <trkpt lat="44.10767" lon="5.96976">
        <ele>575.2</ele>
        <time>2021-03-30T10:28:40.000Z</time>
      </trkpt>
      <trkpt lat="44.10767" lon="5.96976">
        <ele>575.2</ele>
        <time>2021-03-30T10:28:41.000Z</time>
      </trkpt>
      <trkpt lat="44.10767" lon="5.96976">
        <ele>575</ele>
        <time>2021-03-30T10:28:42.000Z</time>
      </trkpt>
      <trkpt lat="44.10767" lon="5.96976">
        <ele>575</ele>
        <time>2021-03-30T10:28:44.000Z</time>
      </trkpt>
      <trkpt lat="44.10767" lon="5.96976">
        <ele>575</ele>
        <time>2021-03-30T10:28:45.000Z</time>
      </trkpt>
      <trkpt lat="44.10767" lon="5.96976">
        <ele>575</ele>
        <time>2021-03-30T10:28:47.000Z</time>
      </trkpt>
      <trkpt lat="44.10767" lon="5.96976">
        <ele>574.8</ele>
        <time>2021-03-30T10:28:48.000Z</time>
      </trkpt>
      <trkpt lat="44.10767" lon="5.96976">
        <ele>574.8</ele>
        <time>2021-03-30T10:28:49.000Z</time>
      </trkpt>
      <trkpt lat="44.10767" lon="5.96976">
        <ele>574.6</ele>
        <time>2021-03-30T10:28:51.000Z</time>
      </trkpt>
      <trkpt lat="44.10766" lon="5.96977">
        <ele>574.6</ele>
        <time>2021-03-30T10:28:52.000Z</time>
      </trkpt>
      <trkpt lat="44.10765" lon="5.96978">
        <ele>574.6</ele>
        <time>2021-03-30T10:28:53.000Z</time>
      </trkpt>
      <trkpt lat="44.10762" lon="5.96978">
        <ele>574.6</ele>
        <time>2021-03-30T10:28:55.000Z</time>
      </trkpt>
      <trkpt lat="44.10761" lon="5.96979">
        <ele>574.6</ele>
        <time>2021-03-30T10:28:56.000Z</time>
      </trkpt>
      <trkpt lat="44.1076" lon="5.96979">
        <ele>574.6</ele>
        <time>2021-03-30T10:28:57.000Z</time>
      </trkpt>
      <trkpt lat="44.10756" lon="5.96979">
        <ele>574.6</ele>
        <time>2021-03-30T10:28:59.000Z</time>
      </trkpt>
      <trkpt lat="44.10753" lon="5.96979">
        <ele>574.6</ele>
        <time>2021-03-30T10:29:00.000Z</time>
      </trkpt>
      <trkpt lat="44.10749" lon="5.9698">
        <ele>574.8</ele>
        <time>2021-03-30T10:29:02.000Z</time>
      </trkpt>
      <trkpt lat="44.10748" lon="5.9698">
        <ele>574.8</ele>
        <time>2021-03-30T10:29:03.000Z</time>
      </trkpt>
      <trkpt lat="44.10746" lon="5.9698">
        <ele>574.8</ele>
        <time>2021-03-30T10:29:04.000Z</time>
      </trkpt>
      <trkpt lat="44.10743" lon="5.96981">
        <ele>575</ele>
        <time>2021-03-30T10:29:06.000Z</time>
      </trkpt>
      <trkpt lat="44.10741" lon="5.96981">
        <ele>575.2</ele>
        <time>2021-03-30T10:29:07.000Z</time>
      </trkpt>
      <trkpt lat="44.1074" lon="5.96983">
        <ele>575.4</ele>
        <time>2021-03-30T10:29:08.000Z</time>
      </trkpt>
      <trkpt lat="44.10736" lon="5.96984">
        <ele>575.8</ele>
        <time>2021-03-30T10:29:10.000Z</time>
      </trkpt>
      <trkpt lat="44.10733" lon="5.96984">
        <ele>576</ele>
        <time>2021-03-30T10:29:11.000Z</time>
      </trkpt>
      <trkpt lat="44.10729" lon="5.96985">
        <ele>576.2</ele>
        <time>2021-03-30T10:29:13.000Z</time>
      </trkpt>
      <trkpt lat="44.10726" lon="5.96985">
        <ele>576.4</ele>
        <time>2021-03-30T10:29:14.000Z</time>
      </trkpt>
      <trkpt lat="44.10724" lon="5.96984">
        <ele>576.6</ele>
        <time>2021-03-30T10:29:15.000Z</time>
      </trkpt>
      <trkpt lat="44.10719" lon="5.96982">
        <ele>576.8</ele>
        <time>2021-03-30T10:29:17.000Z</time>
      </trkpt>
      <trkpt lat="44.10716" lon="5.96981">
        <ele>576.8</ele>
        <time>2021-03-30T10:29:18.000Z</time>
      </trkpt>
      <trkpt lat="44.10714" lon="5.96981">
        <ele>576.8</ele>
        <time>2021-03-30T10:29:19.000Z</time>
      </trkpt>
      <trkpt lat="44.10709" lon="5.96981">
        <ele>577.2</ele>
        <time>2021-03-30T10:29:21.000Z</time>
      </trkpt>
      <trkpt lat="44.10706" lon="5.96982">
        <ele>577.2</ele>
        <time>2021-03-30T10:29:22.000Z</time>
      </trkpt>
      <trkpt lat="44.107" lon="5.96983">
        <ele>577.6</ele>
        <time>2021-03-30T10:29:24.000Z</time>
      </trkpt>
      <trkpt lat="44.10697" lon="5.96983">
        <ele>577.8</ele>
        <time>2021-03-30T10:29:25.000Z</time>
      </trkpt>
      <trkpt lat="44.10694" lon="5.96983">
        <ele>578</ele>
        <time>2021-03-30T10:29:26.000Z</time>
      </trkpt>
      <trkpt lat="44.10689" lon="5.96983">
        <ele>578.4</ele>
        <time>2021-03-30T10:29:28.000Z</time>
      </trkpt>
      <trkpt lat="44.10688" lon="5.96983">
        <ele>578.6</ele>
        <time>2021-03-30T10:29:29.000Z</time>
      </trkpt>
      <trkpt lat="44.10686" lon="5.96982">
        <ele>579</ele>
        <time>2021-03-30T10:29:30.000Z</time>
      </trkpt>
      <trkpt lat="44.10682" lon="5.96981">
        <ele>579.4</ele>
        <time>2021-03-30T10:29:32.000Z</time>
      </trkpt>
      <trkpt lat="44.1068" lon="5.9698">
        <ele>579.6</ele>
        <time>2021-03-30T10:29:33.000Z</time>
      </trkpt>
      <trkpt lat="44.10677" lon="5.9698">
        <ele>579.8</ele>
        <time>2021-03-30T10:29:34.000Z</time>
      </trkpt>
      <trkpt lat="44.10673" lon="5.9698">
        <ele>580.4</ele>
        <time>2021-03-30T10:29:36.000Z</time>
      </trkpt>
      <trkpt lat="44.10671" lon="5.96979">
        <ele>580.6</ele>
        <time>2021-03-30T10:29:37.000Z</time>
      </trkpt>
      <trkpt lat="44.10666" lon="5.9698">
        <ele>581.2</ele>
        <time>2021-03-30T10:29:39.000Z</time>
      </trkpt>
      <trkpt lat="44.10664" lon="5.9698">
        <ele>581.6</ele>
        <time>2021-03-30T10:29:40.000Z</time>
      </trkpt>
      <trkpt lat="44.10662" lon="5.9698">
        <ele>581.8</ele>
        <time>2021-03-30T10:29:41.000Z</time>
      </trkpt>
      <trkpt lat="44.10658" lon="5.96981">
        <ele>582.6</ele>
        <time>2021-03-30T10:29:43.000Z</time>
      </trkpt>
      <trkpt lat="44.10656" lon="5.96982">
        <ele>583</ele>
        <time>2021-03-30T10:29:44.000Z</time>
      </trkpt>
      <trkpt lat="44.10654" lon="5.96982">
        <ele>583.2</ele>
        <time>2021-03-30T10:29:45.000Z</time>
      </trkpt>
      <trkpt lat="44.10651" lon="5.96983">
        <ele>583.8</ele>
        <time>2021-03-30T10:29:47.000Z</time>
      </trkpt>
      <trkpt lat="44.10649" lon="5.96983">
        <ele>584.2</ele>
        <time>2021-03-30T10:29:48.000Z</time>
      </trkpt>
      <trkpt lat="44.10648" lon="5.96983">
        <ele>585</ele>
        <time>2021-03-30T10:29:50.000Z</time>
      </trkpt>
      <trkpt lat="44.10647" lon="5.96983">
        <ele>585.2</ele>
        <time>2021-03-30T10:29:51.000Z</time>
      </trkpt>
      <trkpt lat="44.10646" lon="5.96983">
        <ele>585.6</ele>
        <time>2021-03-30T10:29:52.000Z</time>
      </trkpt>
      <trkpt lat="44.10644" lon="5.96983">
        <ele>586.2</ele>
        <time>2021-03-30T10:29:54.000Z</time>
      </trkpt>
      <trkpt lat="44.10643" lon="5.96983">
        <ele>586.4</ele>
        <time>2021-03-30T10:29:55.000Z</time>
      </trkpt>
      <trkpt lat="44.10643" lon="5.96984">
        <ele>586.8</ele>
        <time>2021-03-30T10:29:56.000Z</time>
      </trkpt>
      <trkpt lat="44.10642" lon="5.96984">
        <ele>587.2</ele>
        <time>2021-03-30T10:29:58.000Z</time>
      </trkpt>
      <trkpt lat="44.10642" lon="5.96984">
        <ele>587.6</ele>
        <time>2021-03-30T10:29:59.000Z</time>
      </trkpt>
      <trkpt lat="44.10642" lon="5.96984">
        <ele>587.8</ele>
        <time>2021-03-30T10:30:01.000Z</time>
      </trkpt>
      <trkpt lat="44.10639" lon="5.96984">
        <ele>588</ele>
        <time>2021-03-30T10:30:02.000Z</time>
      </trkpt>
      <trkpt lat="44.10637" lon="5.96986">
        <ele>588.2</ele>
        <time>2021-03-30T10:30:03.000Z</time>
      </trkpt>
      <trkpt lat="44.10634" lon="5.96988">
        <ele>588.6</ele>
        <time>2021-03-30T10:30:05.000Z</time>
      </trkpt>
      <trkpt lat="44.10632" lon="5.96989">
        <ele>588.8</ele>
        <time>2021-03-30T10:30:06.000Z</time>
      </trkpt>
      <trkpt lat="44.10629" lon="5.96989">
        <ele>589</ele>
        <time>2021-03-30T10:30:07.000Z</time>
      </trkpt>
      <trkpt lat="44.10623" lon="5.96989">
        <ele>589.2</ele>
        <time>2021-03-30T10:30:09.000Z</time>
      </trkpt>
      <trkpt lat="44.1062" lon="5.96988">
        <ele>589.2</ele>
        <time>2021-03-30T10:30:10.000Z</time>
      </trkpt>
      <trkpt lat="44.10618" lon="5.96987">
        <ele>589.2</ele>
        <time>2021-03-30T10:30:11.000Z</time>
      </trkpt>
      <trkpt lat="44.10615" lon="5.96984">
        <ele>589.4</ele>
        <time>2021-03-30T10:30:13.000Z</time>
      </trkpt>
      <trkpt lat="44.10613" lon="5.96983">
        <ele>589.6</ele>
        <time>2021-03-30T10:30:14.000Z</time>
      </trkpt>
      <trkpt lat="44.10609" lon="5.96982">
        <ele>589.6</ele>
        <time>2021-03-30T10:30:16.000Z</time>
      </trkpt>
      <trkpt lat="44.10606" lon="5.96983">
        <ele>589.8</ele>
        <time>2021-03-30T10:30:17.000Z</time>
      </trkpt>
      <trkpt lat="44.10604" lon="5.96983">
        <ele>589.8</ele>
        <time>2021-03-30T10:30:18.000Z</time>
      </trkpt>
      <trkpt lat="44.10599" lon="5.96983">
        <ele>590</ele>
        <time>2021-03-30T10:30:20.000Z</time>
      </trkpt>
      <trkpt lat="44.10597" lon="5.96983">
        <ele>589.8</ele>
        <time>2021-03-30T10:30:21.000Z</time>
      </trkpt>
      <trkpt lat="44.10594" lon="5.96982">
        <ele>589.8</ele>
        <time>2021-03-30T10:30:22.000Z</time>
      </trkpt>
      <trkpt lat="44.1059" lon="5.96979">
        <ele>590</ele>
        <time>2021-03-30T10:30:24.000Z</time>
      </trkpt>
      <trkpt lat="44.10588" lon="5.96978">
        <ele>590.2</ele>
        <time>2021-03-30T10:30:25.000Z</time>
      </trkpt>
      <trkpt lat="44.10583" lon="5.96977">
        <ele>590.4</ele>
        <time>2021-03-30T10:30:27.000Z</time>
      </trkpt>
      <trkpt lat="44.1058" lon="5.96977">
        <ele>590.4</ele>
        <time>2021-03-30T10:30:28.000Z</time>
      </trkpt>
      <trkpt lat="44.10578" lon="5.96977">
        <ele>590.6</ele>
        <time>2021-03-30T10:30:29.000Z</time>
      </trkpt>
      <trkpt lat="44.10573" lon="5.96976">
        <ele>590.8</ele>
        <time>2021-03-30T10:30:31.000Z</time>
      </trkpt>
      <trkpt lat="44.10571" lon="5.96975">
        <ele>591</ele>
        <time>2021-03-30T10:30:32.000Z</time>
      </trkpt>
      <trkpt lat="44.10568" lon="5.96974">
        <ele>591</ele>
        <time>2021-03-30T10:30:33.000Z</time>
      </trkpt>
      <trkpt lat="44.10564" lon="5.96973">
        <ele>591.2</ele>
        <time>2021-03-30T10:30:35.000Z</time>
      </trkpt>
      <trkpt lat="44.10562" lon="5.96973">
        <ele>591.2</ele>
        <time>2021-03-30T10:30:36.000Z</time>
      </trkpt>
      <trkpt lat="44.10556" lon="5.96972">
        <ele>591.2</ele>
        <time>2021-03-30T10:30:38.000Z</time>
      </trkpt>
      <trkpt lat="44.10554" lon="5.9697">
        <ele>591</ele>
        <time>2021-03-30T10:30:39.000Z</time>
      </trkpt>
      <trkpt lat="44.10551" lon="5.96969">
        <ele>591</ele>
        <time>2021-03-30T10:30:40.000Z</time>
      </trkpt>
      <trkpt lat="44.10546" lon="5.96967">
        <ele>591</ele>
        <time>2021-03-30T10:30:42.000Z</time>
      </trkpt>
      <trkpt lat="44.10544" lon="5.96964">
        <ele>591</ele>
        <time>2021-03-30T10:30:43.000Z</time>
      </trkpt>
      <trkpt lat="44.10542" lon="5.96962">
        <ele>590.8</ele>
        <time>2021-03-30T10:30:44.000Z</time>
      </trkpt>
      <trkpt lat="44.10538" lon="5.96958">
        <ele>590.6</ele>
        <time>2021-03-30T10:30:46.000Z</time>
      </trkpt>
      <trkpt lat="44.10536" lon="5.96957">
        <ele>590.6</ele>
        <time>2021-03-30T10:30:47.000Z</time>
      </trkpt>
      <trkpt lat="44.10531" lon="5.96955">
        <ele>590.6</ele>
        <time>2021-03-30T10:30:49.000Z</time>
      </trkpt>
      <trkpt lat="44.10529" lon="5.96954">
        <ele>590.6</ele>
        <time>2021-03-30T10:30:50.000Z</time>
      </trkpt>
      <trkpt lat="44.10527" lon="5.96953">
        <ele>590.8</ele>
        <time>2021-03-30T10:30:51.000Z</time>
      </trkpt>
      <trkpt lat="44.10522" lon="5.96952">
        <ele>590.8</ele>
        <time>2021-03-30T10:30:53.000Z</time>
      </trkpt>
      <trkpt lat="44.10519" lon="5.96951">
        <ele>590.8</ele>
        <time>2021-03-30T10:30:54.000Z</time>
      </trkpt>
      <trkpt lat="44.10517" lon="5.9695">
        <ele>590.8</ele>
        <time>2021-03-30T10:30:55.000Z</time>
      </trkpt>
      <trkpt lat="44.10511" lon="5.9695">
        <ele>590.6</ele>
        <time>2021-03-30T10:30:57.000Z</time>
      </trkpt>
      <trkpt lat="44.10508" lon="5.96949">
        <ele>590.6</ele>
        <time>2021-03-30T10:30:58.000Z</time>
      </trkpt>
      <trkpt lat="44.10505" lon="5.96949">
        <ele>590.6</ele>
        <time>2021-03-30T10:30:59.000Z</time>
      </trkpt>
      <trkpt lat="44.10499" lon="5.96949">
        <ele>590.6</ele>
        <time>2021-03-30T10:31:01.000Z</time>
      </trkpt>
      <trkpt lat="44.10496" lon="5.96949">
        <ele>590.8</ele>
        <time>2021-03-30T10:31:02.000Z</time>
      </trkpt>
      <trkpt lat="44.1049" lon="5.96949">
        <ele>590.8</ele>
        <time>2021-03-30T10:31:04.000Z</time>
      </trkpt>
      <trkpt lat="44.10487" lon="5.96948">
        <ele>590.8</ele>
        <time>2021-03-30T10:31:05.000Z</time>
      </trkpt>
      <trkpt lat="44.10485" lon="5.96948">
        <ele>590.8</ele>
        <time>2021-03-30T10:31:06.000Z</time>
      </trkpt>
      <trkpt lat="44.1048" lon="5.96945">
        <ele>591</ele>
        <time>2021-03-30T10:31:08.000Z</time>
      </trkpt>
      <trkpt lat="44.10477" lon="5.96944">
        <ele>591.2</ele>
        <time>2021-03-30T10:31:09.000Z</time>
      </trkpt>
      <trkpt lat="44.10475" lon="5.96943">
        <ele>591.4</ele>
        <time>2021-03-30T10:31:10.000Z</time>
      </trkpt>
      <trkpt lat="44.10471" lon="5.9694">
        <ele>591.8</ele>
        <time>2021-03-30T10:31:12.000Z</time>
      </trkpt>
      <trkpt lat="44.1047" lon="5.96938">
        <ele>592</ele>
        <time>2021-03-30T10:31:13.000Z</time>
      </trkpt>
      <trkpt lat="44.10468" lon="5.96934">
        <ele>592.6</ele>
        <time>2021-03-30T10:31:15.000Z</time>
      </trkpt>
      <trkpt lat="44.10468" lon="5.96932">
        <ele>592.8</ele>
        <time>2021-03-30T10:31:16.000Z</time>
      </trkpt>
      <trkpt lat="44.10466" lon="5.9693">
        <ele>593.2</ele>
        <time>2021-03-30T10:31:17.000Z</time>
      </trkpt>
      <trkpt lat="44.10463" lon="5.96924">
        <ele>593.8</ele>
        <time>2021-03-30T10:31:19.000Z</time>
      </trkpt>
      <trkpt lat="44.10461" lon="5.96922">
        <ele>594.2</ele>
        <time>2021-03-30T10:31:20.000Z</time>
      </trkpt>
      <trkpt lat="44.10459" lon="5.96919">
        <ele>594.6</ele>
        <time>2021-03-30T10:31:21.000Z</time>
      </trkpt>
      <trkpt lat="44.10455" lon="5.96916">
        <ele>595.6</ele>
        <time>2021-03-30T10:31:23.000Z</time>
      </trkpt>
      <trkpt lat="44.10453" lon="5.96914">
        <ele>596</ele>
        <time>2021-03-30T10:31:24.000Z</time>
      </trkpt>
      <trkpt lat="44.10449" lon="5.96912">
        <ele>596.8</ele>
        <time>2021-03-30T10:31:26.000Z</time>
      </trkpt>
      <trkpt lat="44.10447" lon="5.96911">
        <ele>597</ele>
        <time>2021-03-30T10:31:27.000Z</time>
      </trkpt>
      <trkpt lat="44.10445" lon="5.96911">
        <ele>597.4</ele>
        <time>2021-03-30T10:31:28.000Z</time>
      </trkpt>
      <trkpt lat="44.10441" lon="5.96908">
        <ele>598.2</ele>
        <time>2021-03-30T10:31:30.000Z</time>
      </trkpt>
      <trkpt lat="44.10439" lon="5.96906">
        <ele>598.6</ele>
        <time>2021-03-30T10:31:31.000Z</time>
      </trkpt>
      <trkpt lat="44.10438" lon="5.96904">
        <ele>599</ele>
        <time>2021-03-30T10:31:32.000Z</time>
      </trkpt>
      <trkpt lat="44.10433" lon="5.96902">
        <ele>599.4</ele>
        <time>2021-03-30T10:31:34.000Z</time>
      </trkpt>
      <trkpt lat="44.10431" lon="5.969">
        <ele>599.8</ele>
        <time>2021-03-30T10:31:35.000Z</time>
      </trkpt>
      <trkpt lat="44.10428" lon="5.96899">
        <ele>600</ele>
        <time>2021-03-30T10:31:36.000Z</time>
      </trkpt>
      <trkpt lat="44.10423" lon="5.96898">
        <ele>600.4</ele>
        <time>2021-03-30T10:31:38.000Z</time>
      </trkpt>
      <trkpt lat="44.1042" lon="5.96897">
        <ele>600.6</ele>
        <time>2021-03-30T10:31:39.000Z</time>
      </trkpt>
      <trkpt lat="44.10414" lon="5.96895">
        <ele>600.8</ele>
        <time>2021-03-30T10:31:41.000Z</time>
      </trkpt>
      <trkpt lat="44.10412" lon="5.96893">
        <ele>601</ele>
        <time>2021-03-30T10:31:42.000Z</time>
      </trkpt>
      <trkpt lat="44.10409" lon="5.96892">
        <ele>601</ele>
        <time>2021-03-30T10:31:43.000Z</time>
      </trkpt>
      <trkpt lat="44.10403" lon="5.96888">
        <ele>601.4</ele>
        <time>2021-03-30T10:31:45.000Z</time>
      </trkpt>
      <trkpt lat="44.104" lon="5.96887">
        <ele>601.4</ele>
        <time>2021-03-30T10:31:46.000Z</time>
      </trkpt>
      <trkpt lat="44.10399" lon="5.96885">
        <ele>601.6</ele>
        <time>2021-03-30T10:31:47.000Z</time>
      </trkpt>
      <trkpt lat="44.10394" lon="5.96882">
        <ele>601.6</ele>
        <time>2021-03-30T10:31:49.000Z</time>
      </trkpt>
      <trkpt lat="44.10392" lon="5.96881">
        <ele>601.6</ele>
        <time>2021-03-30T10:31:50.000Z</time>
      </trkpt>
      <trkpt lat="44.10386" lon="5.9688">
        <ele>601.4</ele>
        <time>2021-03-30T10:31:52.000Z</time>
      </trkpt>
      <trkpt lat="44.10383" lon="5.96879">
        <ele>601.2</ele>
        <time>2021-03-30T10:31:53.000Z</time>
      </trkpt>
      <trkpt lat="44.10379" lon="5.96879">
        <ele>601.2</ele>
        <time>2021-03-30T10:31:54.000Z</time>
      </trkpt>
      <trkpt lat="44.10374" lon="5.96878">
        <ele>601.4</ele>
        <time>2021-03-30T10:31:56.000Z</time>
      </trkpt>
      <trkpt lat="44.10373" lon="5.96879">
        <ele>601.4</ele>
        <time>2021-03-30T10:31:57.000Z</time>
      </trkpt>
      <trkpt lat="44.10372" lon="5.96879">
        <ele>601.6</ele>
        <time>2021-03-30T10:31:58.000Z</time>
      </trkpt>
      <trkpt lat="44.10371" lon="5.96878">
        <ele>601.8</ele>
        <time>2021-03-30T10:32:00.000Z</time>
      </trkpt>
      <trkpt lat="44.10371" lon="5.96878">
        <ele>601.8</ele>
        <time>2021-03-30T10:32:01.000Z</time>
      </trkpt>
      <trkpt lat="44.1037" lon="5.96878">
        <ele>601.8</ele>
        <time>2021-03-30T10:32:03.000Z</time>
      </trkpt>
      <trkpt lat="44.10369" lon="5.96878">
        <ele>601.8</ele>
        <time>2021-03-30T10:32:04.000Z</time>
      </trkpt>
      <trkpt lat="44.10367" lon="5.96878">
        <ele>601.8</ele>
        <time>2021-03-30T10:32:05.000Z</time>
      </trkpt>
      <trkpt lat="44.10363" lon="5.96876">
        <ele>601.4</ele>
        <time>2021-03-30T10:32:07.000Z</time>
      </trkpt>
      <trkpt lat="44.10362" lon="5.96874">
        <ele>601.4</ele>
        <time>2021-03-30T10:32:08.000Z</time>
      </trkpt>
      <trkpt lat="44.10362" lon="5.96872">
        <ele>601.2</ele>
        <time>2021-03-30T10:32:09.000Z</time>
      </trkpt>
      <trkpt lat="44.1036" lon="5.96868">
        <ele>601.4</ele>
        <time>2021-03-30T10:32:11.000Z</time>
      </trkpt>
      <trkpt lat="44.1036" lon="5.96868">
        <ele>601.4</ele>
        <time>2021-03-30T10:32:12.000Z</time>
      </trkpt>
      <trkpt lat="44.1036" lon="5.96868">
        <ele>601.6</ele>
        <time>2021-03-30T10:32:13.000Z</time>
      </trkpt>
      <trkpt lat="44.1036" lon="5.96867">
        <ele>602</ele>
        <time>2021-03-30T10:32:15.000Z</time>
      </trkpt>
      <trkpt lat="44.1036" lon="5.96867">
        <ele>602.4</ele>
        <time>2021-03-30T10:32:16.000Z</time>
      </trkpt>
      <trkpt lat="44.1036" lon="5.96867">
        <ele>602.6</ele>
        <time>2021-03-30T10:32:18.000Z</time>
      </trkpt>
      <trkpt lat="44.1036" lon="5.96867">
        <ele>602.8</ele>
        <time>2021-03-30T10:32:19.000Z</time>
      </trkpt>
      <trkpt lat="44.1036" lon="5.96867">
        <ele>602.8</ele>
        <time>2021-03-30T10:32:20.000Z</time>
      </trkpt>
      <trkpt lat="44.1036" lon="5.96867">
        <ele>603</ele>
        <time>2021-03-30T10:32:22.000Z</time>
      </trkpt>
      <trkpt lat="44.1036" lon="5.96867">
        <ele>603.2</ele>
        <time>2021-03-30T10:32:23.000Z</time>
      </trkpt>
      <trkpt lat="44.1036" lon="5.96867">
        <ele>603.2</ele>
        <time>2021-03-30T10:32:24.000Z</time>
      </trkpt>
      <trkpt lat="44.1036" lon="5.96867">
        <ele>603.8</ele>
        <time>2021-03-30T10:32:26.000Z</time>
      </trkpt>
      <trkpt lat="44.1036" lon="5.96867">
        <ele>604</ele>
        <time>2021-03-30T10:32:27.000Z</time>
      </trkpt>
      <trkpt lat="44.1036" lon="5.96867">
        <ele>604.4</ele>
        <time>2021-03-30T10:32:29.000Z</time>
      </trkpt>
      <trkpt lat="44.1036" lon="5.96867">
        <ele>604.6</ele>
        <time>2021-03-30T10:32:30.000Z</time>
      </trkpt>
      <trkpt lat="44.1036" lon="5.96867">
        <ele>604.8</ele>
        <time>2021-03-30T10:32:31.000Z</time>
      </trkpt>
      <trkpt lat="44.1036" lon="5.96867">
        <ele>605.4</ele>
        <time>2021-03-30T10:32:33.000Z</time>
      </trkpt>
      <trkpt lat="44.1036" lon="5.96867">
        <ele>605.8</ele>
        <time>2021-03-30T10:32:34.000Z</time>
      </trkpt>
      <trkpt lat="44.1036" lon="5.96867">
        <ele>606</ele>
        <time>2021-03-30T10:32:35.000Z</time>
      </trkpt>
      <trkpt lat="44.1036" lon="5.96867">
        <ele>606.4</ele>
        <time>2021-03-30T10:32:37.000Z</time>
      </trkpt>
      <trkpt lat="44.1036" lon="5.96867">
        <ele>606.4</ele>
        <time>2021-03-30T10:32:38.000Z</time>
      </trkpt>
      <trkpt lat="44.1036" lon="5.96867">
        <ele>606.2</ele>
        <time>2021-03-30T10:32:40.000Z</time>
      </trkpt>
      <trkpt lat="44.10359" lon="5.96864">
        <ele>606</ele>
        <time>2021-03-30T10:32:41.000Z</time>
      </trkpt>
      <trkpt lat="44.1036" lon="5.96862">
        <ele>605.8</ele>
        <time>2021-03-30T10:32:42.000Z</time>
      </trkpt>
      <trkpt lat="44.10363" lon="5.96859">
        <ele>605.8</ele>
        <time>2021-03-30T10:32:44.000Z</time>
      </trkpt>
      <trkpt lat="44.10364" lon="5.96857">
        <ele>605.8</ele>
        <time>2021-03-30T10:32:45.000Z</time>
      </trkpt>
      <trkpt lat="44.10365" lon="5.96856">
        <ele>606</ele>
        <time>2021-03-30T10:32:46.000Z</time>
      </trkpt>
      <trkpt lat="44.10369" lon="5.96853">
        <ele>606.6</ele>
        <time>2021-03-30T10:32:48.000Z</time>
      </trkpt>
      <trkpt lat="44.10371" lon="5.96851">
        <ele>606.8</ele>
        <time>2021-03-30T10:32:49.000Z</time>
      </trkpt>
      <trkpt lat="44.10373" lon="5.96847">
        <ele>607.2</ele>
        <time>2021-03-30T10:32:51.000Z</time>
      </trkpt>
      <trkpt lat="44.10373" lon="5.96845">
        <ele>607.4</ele>
        <time>2021-03-30T10:32:52.000Z</time>
      </trkpt>
      <trkpt lat="44.10372" lon="5.96843">
        <ele>607.4</ele>
        <time>2021-03-30T10:32:53.000Z</time>
      </trkpt>
      <trkpt lat="44.10367" lon="5.96837">
        <ele>607.2</ele>
        <time>2021-03-30T10:32:55.000Z</time>
      </trkpt>
      <trkpt lat="44.10364" lon="5.96836">
        <ele>607.4</ele>
        <time>2021-03-30T10:32:56.000Z</time>
      </trkpt>
      <trkpt lat="44.10362" lon="5.96836">
        <ele>607.4</ele>
        <time>2021-03-30T10:32:57.000Z</time>
      </trkpt>
      <trkpt lat="44.10358" lon="5.96836">
        <ele>607.6</ele>
        <time>2021-03-30T10:32:59.000Z</time>
      </trkpt>
      <trkpt lat="44.10356" lon="5.96836">
        <ele>607.8</ele>
        <time>2021-03-30T10:33:00.000Z</time>
      </trkpt>
      <trkpt lat="44.10354" lon="5.96836">
        <ele>608</ele>
        <time>2021-03-30T10:33:01.000Z</time>
      </trkpt>
      <trkpt lat="44.1035" lon="5.96834">
        <ele>608.2</ele>
        <time>2021-03-30T10:33:03.000Z</time>
      </trkpt>
      <trkpt lat="44.10349" lon="5.96833">
        <ele>608.4</ele>
        <time>2021-03-30T10:33:04.000Z</time>
      </trkpt>
      <trkpt lat="44.10346" lon="5.96829">
        <ele>608.8</ele>
        <time>2021-03-30T10:33:06.000Z</time>
      </trkpt>
      <trkpt lat="44.10344" lon="5.96828">
        <ele>609</ele>
        <time>2021-03-30T10:33:07.000Z</time>
      </trkpt>
      <trkpt lat="44.10342" lon="5.96827">
        <ele>609.4</ele>
        <time>2021-03-30T10:33:08.000Z</time>
      </trkpt>
      <trkpt lat="44.10339" lon="5.96822">
        <ele>610</ele>
        <time>2021-03-30T10:33:10.000Z</time>
      </trkpt>
      <trkpt lat="44.10338" lon="5.96819">
        <ele>610.2</ele>
        <time>2021-03-30T10:33:11.000Z</time>
      </trkpt>
      <trkpt lat="44.10337" lon="5.96818">
        <ele>610.4</ele>
        <time>2021-03-30T10:33:12.000Z</time>
      </trkpt>
      <trkpt lat="44.10335" lon="5.96815">
        <ele>611</ele>
        <time>2021-03-30T10:33:14.000Z</time>
      </trkpt>
      <trkpt lat="44.10333" lon="5.96814">
        <ele>611.2</ele>
        <time>2021-03-30T10:33:15.000Z</time>
      </trkpt>
      <trkpt lat="44.10328" lon="5.96811">
        <ele>611.8</ele>
        <time>2021-03-30T10:33:17.000Z</time>
      </trkpt>
      <trkpt lat="44.10326" lon="5.96811">
        <ele>612</ele>
        <time>2021-03-30T10:33:18.000Z</time>
      </trkpt>
      <trkpt lat="44.10323" lon="5.96811">
        <ele>612.4</ele>
        <time>2021-03-30T10:33:19.000Z</time>
      </trkpt>
      <trkpt lat="44.10318" lon="5.96808">
        <ele>613</ele>
        <time>2021-03-30T10:33:21.000Z</time>
      </trkpt>
      <trkpt lat="44.10317" lon="5.96806">
        <ele>613.4</ele>
        <time>2021-03-30T10:33:22.000Z</time>
      </trkpt>
      <trkpt lat="44.10315" lon="5.96803">
        <ele>613.6</ele>
        <time>2021-03-30T10:33:23.000Z</time>
      </trkpt>
      <trkpt lat="44.10312" lon="5.96798">
        <ele>614.4</ele>
        <time>2021-03-30T10:33:25.000Z</time>
      </trkpt>
      <trkpt lat="44.10309" lon="5.96796">
        <ele>614.6</ele>
        <time>2021-03-30T10:33:26.000Z</time>
      </trkpt>
      <trkpt lat="44.10305" lon="5.96791">
        <ele>615</ele>
        <time>2021-03-30T10:33:28.000Z</time>
      </trkpt>
      <trkpt lat="44.10303" lon="5.96789">
        <ele>615.2</ele>
        <time>2021-03-30T10:33:29.000Z</time>
      </trkpt>
      <trkpt lat="44.103" lon="5.96785">
        <ele>615.4</ele>
        <time>2021-03-30T10:33:30.000Z</time>
      </trkpt>
      <trkpt lat="44.10294" lon="5.96782">
        <ele>616</ele>
        <time>2021-03-30T10:33:32.000Z</time>
      </trkpt>
      <trkpt lat="44.10292" lon="5.9678">
        <ele>616.2</ele>
        <time>2021-03-30T10:33:33.000Z</time>
      </trkpt>
      <trkpt lat="44.10289" lon="5.96778">
        <ele>616.4</ele>
        <time>2021-03-30T10:33:34.000Z</time>
      </trkpt>
      <trkpt lat="44.10286" lon="5.96772">
        <ele>616.8</ele>
        <time>2021-03-30T10:33:36.000Z</time>
      </trkpt>
      <trkpt lat="44.10283" lon="5.9677">
        <ele>617.2</ele>
        <time>2021-03-30T10:33:37.000Z</time>
      </trkpt>
      <trkpt lat="44.1028" lon="5.96767">
        <ele>617.2</ele>
        <time>2021-03-30T10:33:38.000Z</time>
      </trkpt>
      <trkpt lat="44.10275" lon="5.96763">
        <ele>617.6</ele>
        <time>2021-03-30T10:33:40.000Z</time>
      </trkpt>
      <trkpt lat="44.10273" lon="5.96761">
        <ele>617.8</ele>
        <time>2021-03-30T10:33:41.000Z</time>
      </trkpt>
      <trkpt lat="44.10268" lon="5.96756">
        <ele>618.2</ele>
        <time>2021-03-30T10:33:43.000Z</time>
      </trkpt>
      <trkpt lat="44.10265" lon="5.96753">
        <ele>618.2</ele>
        <time>2021-03-30T10:33:44.000Z</time>
      </trkpt>
      <trkpt lat="44.10263" lon="5.9675">
        <ele>618.4</ele>
        <time>2021-03-30T10:33:45.000Z</time>
      </trkpt>
      <trkpt lat="44.10258" lon="5.96746">
        <ele>618.6</ele>
        <time>2021-03-30T10:33:47.000Z</time>
      </trkpt>
      <trkpt lat="44.10255" lon="5.96743">
        <ele>618.8</ele>
        <time>2021-03-30T10:33:48.000Z</time>
      </trkpt>
      <trkpt lat="44.10254" lon="5.9674">
        <ele>618.8</ele>
        <time>2021-03-30T10:33:49.000Z</time>
      </trkpt>
      <trkpt lat="44.10249" lon="5.96736">
        <ele>619</ele>
        <time>2021-03-30T10:33:51.000Z</time>
      </trkpt>
      <trkpt lat="44.10246" lon="5.96734">
        <ele>619.2</ele>
        <time>2021-03-30T10:33:52.000Z</time>
      </trkpt>
      <trkpt lat="44.10242" lon="5.96728">
        <ele>619.4</ele>
        <time>2021-03-30T10:33:54.000Z</time>
      </trkpt>
      <trkpt lat="44.10239" lon="5.96725">
        <ele>619.6</ele>
        <time>2021-03-30T10:33:55.000Z</time>
      </trkpt>
      <trkpt lat="44.10237" lon="5.96722">
        <ele>619.8</ele>
        <time>2021-03-30T10:33:56.000Z</time>
      </trkpt>
      <trkpt lat="44.10232" lon="5.96716">
        <ele>620.2</ele>
        <time>2021-03-30T10:33:58.000Z</time>
      </trkpt>
      <trkpt lat="44.10229" lon="5.96713">
        <ele>620.4</ele>
        <time>2021-03-30T10:33:59.000Z</time>
      </trkpt>
      <trkpt lat="44.10226" lon="5.9671">
        <ele>620.6</ele>
        <time>2021-03-30T10:34:00.000Z</time>
      </trkpt>
      <trkpt lat="44.10222" lon="5.96706">
        <ele>621</ele>
        <time>2021-03-30T10:34:02.000Z</time>
      </trkpt>
      <trkpt lat="44.10219" lon="5.96704">
        <ele>621.4</ele>
        <time>2021-03-30T10:34:03.000Z</time>
      </trkpt>
      <trkpt lat="44.10215" lon="5.967">
        <ele>621.6</ele>
        <time>2021-03-30T10:34:05.000Z</time>
      </trkpt>
      <trkpt lat="44.10213" lon="5.96697">
        <ele>621.8</ele>
        <time>2021-03-30T10:34:06.000Z</time>
      </trkpt>
      <trkpt lat="44.10211" lon="5.96694">
        <ele>622</ele>
        <time>2021-03-30T10:34:07.000Z</time>
      </trkpt>
      <trkpt lat="44.10207" lon="5.96688">
        <ele>622.2</ele>
        <time>2021-03-30T10:34:09.000Z</time>
      </trkpt>
      <trkpt lat="44.10205" lon="5.96686">
        <ele>622.4</ele>
        <time>2021-03-30T10:34:10.000Z</time>
      </trkpt>
      <trkpt lat="44.10202" lon="5.96684">
        <ele>622.8</ele>
        <time>2021-03-30T10:34:11.000Z</time>
      </trkpt>
      <trkpt lat="44.10199" lon="5.96678">
        <ele>623.2</ele>
        <time>2021-03-30T10:34:13.000Z</time>
      </trkpt>
      <trkpt lat="44.10197" lon="5.96676">
        <ele>623.6</ele>
        <time>2021-03-30T10:34:14.000Z</time>
      </trkpt>
      <trkpt lat="44.10195" lon="5.96673">
        <ele>623.8</ele>
        <time>2021-03-30T10:34:15.000Z</time>
      </trkpt>
      <trkpt lat="44.1019" lon="5.96669">
        <ele>624.2</ele>
        <time>2021-03-30T10:34:17.000Z</time>
      </trkpt>
      <trkpt lat="44.10188" lon="5.96667">
        <ele>624.4</ele>
        <time>2021-03-30T10:34:18.000Z</time>
      </trkpt>
      <trkpt lat="44.10184" lon="5.96662">
        <ele>625</ele>
        <time>2021-03-30T10:34:20.000Z</time>
      </trkpt>
      <trkpt lat="44.10182" lon="5.9666">
        <ele>625.2</ele>
        <time>2021-03-30T10:34:21.000Z</time>
      </trkpt>
      <trkpt lat="44.1018" lon="5.96658">
        <ele>625.4</ele>
        <time>2021-03-30T10:34:22.000Z</time>
      </trkpt>
      <trkpt lat="44.10177" lon="5.96657">
        <ele>626</ele>
        <time>2021-03-30T10:34:24.000Z</time>
      </trkpt>
      <trkpt lat="44.10174" lon="5.96657">
        <ele>626.4</ele>
        <time>2021-03-30T10:34:25.000Z</time>
      </trkpt>
      <trkpt lat="44.10172" lon="5.96657">
        <ele>626.6</ele>
        <time>2021-03-30T10:34:26.000Z</time>
      </trkpt>
      <trkpt lat="44.10166" lon="5.9666">
        <ele>627.2</ele>
        <time>2021-03-30T10:34:28.000Z</time>
      </trkpt>
      <trkpt lat="44.10163" lon="5.96661">
        <ele>627.6</ele>
        <time>2021-03-30T10:34:29.000Z</time>
      </trkpt>
      <trkpt lat="44.10158" lon="5.96665">
        <ele>628.2</ele>
        <time>2021-03-30T10:34:31.000Z</time>
      </trkpt>
      <trkpt lat="44.10156" lon="5.96666">
        <ele>628.6</ele>
        <time>2021-03-30T10:34:32.000Z</time>
      </trkpt>
      <trkpt lat="44.10153" lon="5.96666">
        <ele>628.8</ele>
        <time>2021-03-30T10:34:33.000Z</time>
      </trkpt>
      <trkpt lat="44.10152" lon="5.96662">
        <ele>629.4</ele>
        <time>2021-03-30T10:34:35.000Z</time>
      </trkpt>
      <trkpt lat="44.10151" lon="5.9666">
        <ele>629.6</ele>
        <time>2021-03-30T10:34:36.000Z</time>
      </trkpt>
      <trkpt lat="44.1015" lon="5.96657">
        <ele>629.8</ele>
        <time>2021-03-30T10:34:37.000Z</time>
      </trkpt>
      <trkpt lat="44.10146" lon="5.96656">
        <ele>630.4</ele>
        <time>2021-03-30T10:34:39.000Z</time>
      </trkpt>
      <trkpt lat="44.10143" lon="5.96656">
        <ele>630.8</ele>
        <time>2021-03-30T10:34:40.000Z</time>
      </trkpt>
      <trkpt lat="44.10138" lon="5.96658">
        <ele>631.6</ele>
        <time>2021-03-30T10:34:42.000Z</time>
      </trkpt>
      <trkpt lat="44.10136" lon="5.96659">
        <ele>632.2</ele>
        <time>2021-03-30T10:34:43.000Z</time>
      </trkpt>
      <trkpt lat="44.10133" lon="5.9666">
        <ele>632.8</ele>
        <time>2021-03-30T10:34:44.000Z</time>
      </trkpt>
      <trkpt lat="44.10128" lon="5.96661">
        <ele>633.8</ele>
        <time>2021-03-30T10:34:46.000Z</time>
      </trkpt>
      <trkpt lat="44.10126" lon="5.96662">
        <ele>634.4</ele>
        <time>2021-03-30T10:34:47.000Z</time>
      </trkpt>
      <trkpt lat="44.10123" lon="5.96662">
        <ele>634.8</ele>
        <time>2021-03-30T10:34:48.000Z</time>
      </trkpt>
      <trkpt lat="44.1012" lon="5.96663">
        <ele>636</ele>
        <time>2021-03-30T10:34:50.000Z</time>
      </trkpt>
      <trkpt lat="44.10118" lon="5.96664">
        <ele>636.4</ele>
        <time>2021-03-30T10:34:51.000Z</time>
      </trkpt>
      <trkpt lat="44.10115" lon="5.96666">
        <ele>637.4</ele>
        <time>2021-03-30T10:34:53.000Z</time>
      </trkpt>
      <trkpt lat="44.10114" lon="5.96666">
        <ele>637.8</ele>
        <time>2021-03-30T10:34:54.000Z</time>
      </trkpt>
      <trkpt lat="44.10113" lon="5.96665">
        <ele>638.4</ele>
        <time>2021-03-30T10:34:55.000Z</time>
      </trkpt>
      <trkpt lat="44.10112" lon="5.96665">
        <ele>639.4</ele>
        <time>2021-03-30T10:34:57.000Z</time>
      </trkpt>
      <trkpt lat="44.10112" lon="5.96665">
        <ele>640</ele>
        <time>2021-03-30T10:34:58.000Z</time>
      </trkpt>
      <trkpt lat="44.10112" lon="5.96665">
        <ele>640.4</ele>
        <time>2021-03-30T10:34:59.000Z</time>
      </trkpt>
      <trkpt lat="44.10112" lon="5.96665">
        <ele>641.4</ele>
        <time>2021-03-30T10:35:01.000Z</time>
      </trkpt>
      <trkpt lat="44.10112" lon="5.96663">
        <ele>642</ele>
        <time>2021-03-30T10:35:02.000Z</time>
      </trkpt>
      <trkpt lat="44.10111" lon="5.96661">
        <ele>642.4</ele>
        <time>2021-03-30T10:35:03.000Z</time>
      </trkpt>
      <trkpt lat="44.10108" lon="5.96657">
        <ele>643.2</ele>
        <time>2021-03-30T10:35:05.000Z</time>
      </trkpt>
      <trkpt lat="44.10106" lon="5.96656">
        <ele>643.6</ele>
        <time>2021-03-30T10:35:06.000Z</time>
      </trkpt>
      <trkpt lat="44.10102" lon="5.96653">
        <ele>644.4</ele>
        <time>2021-03-30T10:35:08.000Z</time>
      </trkpt>
      <trkpt lat="44.101" lon="5.9665">
        <ele>644.8</ele>
        <time>2021-03-30T10:35:09.000Z</time>
      </trkpt>
      <trkpt lat="44.10098" lon="5.96648">
        <ele>645.2</ele>
        <time>2021-03-30T10:35:10.000Z</time>
      </trkpt>
      <trkpt lat="44.10092" lon="5.96644">
        <ele>645.8</ele>
        <time>2021-03-30T10:35:12.000Z</time>
      </trkpt>
      <trkpt lat="44.10088" lon="5.96643">
        <ele>646.2</ele>
        <time>2021-03-30T10:35:13.000Z</time>
      </trkpt>
      <trkpt lat="44.10085" lon="5.96643">
        <ele>646.4</ele>
        <time>2021-03-30T10:35:14.000Z</time>
      </trkpt>
      <trkpt lat="44.10078" lon="5.96646">
        <ele>646.6</ele>
        <time>2021-03-30T10:35:16.000Z</time>
      </trkpt>
      <trkpt lat="44.10074" lon="5.96649">
        <ele>646.8</ele>
        <time>2021-03-30T10:35:17.000Z</time>
      </trkpt>
      <trkpt lat="44.10068" lon="5.96656">
        <ele>647</ele>
        <time>2021-03-30T10:35:19.000Z</time>
      </trkpt>
      <trkpt lat="44.10065" lon="5.9666">
        <ele>647</ele>
        <time>2021-03-30T10:35:20.000Z</time>
      </trkpt>
      <trkpt lat="44.10063" lon="5.96664">
        <ele>647.2</ele>
        <time>2021-03-30T10:35:21.000Z</time>
      </trkpt>
      <trkpt lat="44.10057" lon="5.96665">
        <ele>647</ele>
        <time>2021-03-30T10:35:23.000Z</time>
      </trkpt>
      <trkpt lat="44.10053" lon="5.96663">
        <ele>647</ele>
        <time>2021-03-30T10:35:24.000Z</time>
      </trkpt>
      <trkpt lat="44.1005" lon="5.96661">
        <ele>647</ele>
        <time>2021-03-30T10:35:25.000Z</time>
      </trkpt>
      <trkpt lat="44.10044" lon="5.96655">
        <ele>646.8</ele>
        <time>2021-03-30T10:35:27.000Z</time>
      </trkpt>
      <trkpt lat="44.10042" lon="5.96651">
        <ele>646.8</ele>
        <time>2021-03-30T10:35:28.000Z</time>
      </trkpt>
      <trkpt lat="44.1004" lon="5.96643">
        <ele>646.8</ele>
        <time>2021-03-30T10:35:30.000Z</time>
      </trkpt>
      <trkpt lat="44.10037" lon="5.96637">
        <ele>646.8</ele>
        <time>2021-03-30T10:35:31.000Z</time>
      </trkpt>
      <trkpt lat="44.10033" lon="5.96631">
        <ele>646.8</ele>
        <time>2021-03-30T10:35:32.000Z</time>
      </trkpt>
      <trkpt lat="44.10028" lon="5.96621">
        <ele>646.6</ele>
        <time>2021-03-30T10:35:34.000Z</time>
      </trkpt>
      <trkpt lat="44.10028" lon="5.96617">
        <ele>646.6</ele>
        <time>2021-03-30T10:35:35.000Z</time>
      </trkpt>
      <trkpt lat="44.10027" lon="5.96614">
        <ele>646.4</ele>
        <time>2021-03-30T10:35:36.000Z</time>
      </trkpt>
      <trkpt lat="44.10025" lon="5.96608">
        <ele>646.2</ele>
        <time>2021-03-30T10:35:38.000Z</time>
      </trkpt>
      <trkpt lat="44.10025" lon="5.96606">
        <ele>646</ele>
        <time>2021-03-30T10:35:39.000Z</time>
      </trkpt>
      <trkpt lat="44.10024" lon="5.96604">
        <ele>646</ele>
        <time>2021-03-30T10:35:40.000Z</time>
      </trkpt>
      <trkpt lat="44.10021" lon="5.96598">
        <ele>645.6</ele>
        <time>2021-03-30T10:35:42.000Z</time>
      </trkpt>
      <trkpt lat="44.10019" lon="5.96595">
        <ele>645.6</ele>
        <time>2021-03-30T10:35:43.000Z</time>
      </trkpt>
      <trkpt lat="44.10015" lon="5.96588">
        <ele>645.4</ele>
        <time>2021-03-30T10:35:45.000Z</time>
      </trkpt>
      <trkpt lat="44.10012" lon="5.96585">
        <ele>645.2</ele>
        <time>2021-03-30T10:35:46.000Z</time>
      </trkpt>
      <trkpt lat="44.10009" lon="5.96581">
        <ele>645</ele>
        <time>2021-03-30T10:35:47.000Z</time>
      </trkpt>
      <trkpt lat="44.10005" lon="5.96577">
        <ele>644.8</ele>
        <time>2021-03-30T10:35:49.000Z</time>
      </trkpt>
      <trkpt lat="44.10003" lon="5.96573">
        <ele>644.6</ele>
        <time>2021-03-30T10:35:50.000Z</time>
      </trkpt>
      <trkpt lat="44.1" lon="5.96569">
        <ele>644.4</ele>
        <time>2021-03-30T10:35:51.000Z</time>
      </trkpt>
      <trkpt lat="44.09996" lon="5.96562">
        <ele>644</ele>
        <time>2021-03-30T10:35:53.000Z</time>
      </trkpt>
      <trkpt lat="44.09994" lon="5.96556">
        <ele>644</ele>
        <time>2021-03-30T10:35:54.000Z</time>
      </trkpt>
      <trkpt lat="44.09989" lon="5.96549">
        <ele>643.6</ele>
        <time>2021-03-30T10:35:56.000Z</time>
      </trkpt>
      <trkpt lat="44.09988" lon="5.96549">
        <ele>643.4</ele>
        <time>2021-03-30T10:35:57.000Z</time>
      </trkpt>
      <trkpt lat="44.09987" lon="5.96551">
        <ele>643.2</ele>
        <time>2021-03-30T10:35:58.000Z</time>
      </trkpt>
      <trkpt lat="44.09981" lon="5.96555">
        <ele>643.2</ele>
        <time>2021-03-30T10:36:00.000Z</time>
      </trkpt>
      <trkpt lat="44.09977" lon="5.96557">
        <ele>643.2</ele>
        <time>2021-03-30T10:36:01.000Z</time>
      </trkpt>
      <trkpt lat="44.09973" lon="5.9656">
        <ele>643.2</ele>
        <time>2021-03-30T10:36:02.000Z</time>
      </trkpt>
      <trkpt lat="44.09965" lon="5.96565">
        <ele>643.2</ele>
        <time>2021-03-30T10:36:04.000Z</time>
      </trkpt>
      <trkpt lat="44.09963" lon="5.96567">
        <ele>643.2</ele>
        <time>2021-03-30T10:36:05.000Z</time>
      </trkpt>
      <trkpt lat="44.09956" lon="5.96575">
        <ele>643.2</ele>
        <time>2021-03-30T10:36:07.000Z</time>
      </trkpt>
      <trkpt lat="44.09952" lon="5.96578">
        <ele>643.2</ele>
        <time>2021-03-30T10:36:08.000Z</time>
      </trkpt>
      <trkpt lat="44.09949" lon="5.9658">
        <ele>643.2</ele>
        <time>2021-03-30T10:36:09.000Z</time>
      </trkpt>
      <trkpt lat="44.09943" lon="5.96585">
        <ele>643.4</ele>
        <time>2021-03-30T10:36:11.000Z</time>
      </trkpt>
      <trkpt lat="44.0994" lon="5.96587">
        <ele>643.4</ele>
        <time>2021-03-30T10:36:12.000Z</time>
      </trkpt>
      <trkpt lat="44.09937" lon="5.96589">
        <ele>643.4</ele>
        <time>2021-03-30T10:36:13.000Z</time>
      </trkpt>
      <trkpt lat="44.09929" lon="5.96594">
        <ele>643.4</ele>
        <time>2021-03-30T10:36:15.000Z</time>
      </trkpt>
      <trkpt lat="44.09926" lon="5.96595">
        <ele>643.4</ele>
        <time>2021-03-30T10:36:16.000Z</time>
      </trkpt>
      <trkpt lat="44.09922" lon="5.96597">
        <ele>643.4</ele>
        <time>2021-03-30T10:36:17.000Z</time>
      </trkpt>
      <trkpt lat="44.09913" lon="5.96601">
        <ele>643.6</ele>
        <time>2021-03-30T10:36:19.000Z</time>
      </trkpt>
      <trkpt lat="44.09909" lon="5.96604">
        <ele>643.6</ele>
        <time>2021-03-30T10:36:20.000Z</time>
      </trkpt>
      <trkpt lat="44.09902" lon="5.96607">
        <ele>643.6</ele>
        <time>2021-03-30T10:36:22.000Z</time>
      </trkpt>
      <trkpt lat="44.09898" lon="5.96609">
        <ele>643.6</ele>
        <time>2021-03-30T10:36:23.000Z</time>
      </trkpt>
      <trkpt lat="44.09894" lon="5.9661">
        <ele>643.8</ele>
        <time>2021-03-30T10:36:24.000Z</time>
      </trkpt>
      <trkpt lat="44.0989" lon="5.96617">
        <ele>644.4</ele>
        <time>2021-03-30T10:36:26.000Z</time>
      </trkpt>
      <trkpt lat="44.09888" lon="5.9662">
        <ele>644.6</ele>
        <time>2021-03-30T10:36:27.000Z</time>
      </trkpt>
      <trkpt lat="44.09885" lon="5.96623">
        <ele>644.6</ele>
        <time>2021-03-30T10:36:28.000Z</time>
      </trkpt>
      <trkpt lat="44.09879" lon="5.96631">
        <ele>644.6</ele>
        <time>2021-03-30T10:36:30.000Z</time>
      </trkpt>
      <trkpt lat="44.09877" lon="5.96635">
        <ele>644.6</ele>
        <time>2021-03-30T10:36:31.000Z</time>
      </trkpt>
      <trkpt lat="44.09871" lon="5.96644">
        <ele>644.6</ele>
        <time>2021-03-30T10:36:33.000Z</time>
      </trkpt>
      <trkpt lat="44.09868" lon="5.96649">
        <ele>644.6</ele>
        <time>2021-03-30T10:36:34.000Z</time>
      </trkpt>
      <trkpt lat="44.09866" lon="5.96653">
        <ele>644.6</ele>
        <time>2021-03-30T10:36:35.000Z</time>
      </trkpt>
      <trkpt lat="44.09866" lon="5.96662">
        <ele>645</ele>
        <time>2021-03-30T10:36:37.000Z</time>
      </trkpt>
      <trkpt lat="44.09866" lon="5.96665">
        <ele>645.2</ele>
        <time>2021-03-30T10:36:38.000Z</time>
      </trkpt>
      <trkpt lat="44.09865" lon="5.96669">
        <ele>645.4</ele>
        <time>2021-03-30T10:36:39.000Z</time>
      </trkpt>
      <trkpt lat="44.09864" lon="5.96677">
        <ele>646</ele>
        <time>2021-03-30T10:36:41.000Z</time>
      </trkpt>
      <trkpt lat="44.09862" lon="5.96681">
        <ele>646.2</ele>
        <time>2021-03-30T10:36:42.000Z</time>
      </trkpt>
      <trkpt lat="44.0986" lon="5.9669">
        <ele>646.6</ele>
        <time>2021-03-30T10:36:44.000Z</time>
      </trkpt>
      <trkpt lat="44.0986" lon="5.96695">
        <ele>646.8</ele>
        <time>2021-03-30T10:36:45.000Z</time>
      </trkpt>
      <trkpt lat="44.09861" lon="5.96699">
        <ele>647</ele>
        <time>2021-03-30T10:36:46.000Z</time>
      </trkpt>
      <trkpt lat="44.09863" lon="5.96709">
        <ele>647.4</ele>
        <time>2021-03-30T10:36:48.000Z</time>
      </trkpt>
      <trkpt lat="44.09864" lon="5.96713">
        <ele>647.4</ele>
        <time>2021-03-30T10:36:49.000Z</time>
      </trkpt>
      <trkpt lat="44.09866" lon="5.96717">
        <ele>647.6</ele>
        <time>2021-03-30T10:36:50.000Z</time>
      </trkpt>
      <trkpt lat="44.09866" lon="5.96723">
        <ele>648</ele>
        <time>2021-03-30T10:36:52.000Z</time>
      </trkpt>
      <trkpt lat="44.09864" lon="5.96725">
        <ele>648.2</ele>
        <time>2021-03-30T10:36:53.000Z</time>
      </trkpt>
      <trkpt lat="44.0986" lon="5.96729">
        <ele>648.4</ele>
        <time>2021-03-30T10:36:55.000Z</time>
      </trkpt>
      <trkpt lat="44.09858" lon="5.96729">
        <ele>648.6</ele>
        <time>2021-03-30T10:36:56.000Z</time>
      </trkpt>
      <trkpt lat="44.09855" lon="5.9673">
        <ele>648.6</ele>
        <time>2021-03-30T10:36:57.000Z</time>
      </trkpt>
      <trkpt lat="44.0985" lon="5.96735">
        <ele>648.6</ele>
        <time>2021-03-30T10:36:59.000Z</time>
      </trkpt>
      <trkpt lat="44.09847" lon="5.96737">
        <ele>648.6</ele>
        <time>2021-03-30T10:37:00.000Z</time>
      </trkpt>
      <trkpt lat="44.09846" lon="5.96738">
        <ele>648.6</ele>
        <time>2021-03-30T10:37:01.000Z</time>
      </trkpt>
      <trkpt lat="44.09846" lon="5.96738">
        <ele>648.8</ele>
        <time>2021-03-30T10:37:03.000Z</time>
      </trkpt>
      <trkpt lat="44.09846" lon="5.96738">
        <ele>648.8</ele>
        <time>2021-03-30T10:37:04.000Z</time>
      </trkpt>
      <trkpt lat="44.09846" lon="5.96738">
        <ele>648.8</ele>
        <time>2021-03-30T10:37:05.000Z</time>
      </trkpt>
      <trkpt lat="44.09846" lon="5.96738">
        <ele>649</ele>
        <time>2021-03-30T10:37:07.000Z</time>
      </trkpt>
      <trkpt lat="44.09846" lon="5.96738">
        <ele>649</ele>
        <time>2021-03-30T10:37:08.000Z</time>
      </trkpt>
      <trkpt lat="44.09846" lon="5.96738">
        <ele>649</ele>
        <time>2021-03-30T10:37:10.000Z</time>
      </trkpt>
      <trkpt lat="44.09846" lon="5.96738">
        <ele>649.2</ele>
        <time>2021-03-30T10:37:11.000Z</time>
      </trkpt>
      <trkpt lat="44.09846" lon="5.96738">
        <ele>649.2</ele>
        <time>2021-03-30T10:37:12.000Z</time>
      </trkpt>
      <trkpt lat="44.09846" lon="5.96738">
        <ele>649.2</ele>
        <time>2021-03-30T10:37:14.000Z</time>
      </trkpt>
      <trkpt lat="44.09846" lon="5.96738">
        <ele>649.2</ele>
        <time>2021-03-30T10:37:15.000Z</time>
      </trkpt>
      <trkpt lat="44.09846" lon="5.96738">
        <ele>649</ele>
        <time>2021-03-30T10:37:16.000Z</time>
      </trkpt>
      <trkpt lat="44.09846" lon="5.96738">
        <ele>649</ele>
        <time>2021-03-30T10:37:18.000Z</time>
      </trkpt>
      <trkpt lat="44.09846" lon="5.96738">
        <ele>648.8</ele>
        <time>2021-03-30T10:37:19.000Z</time>
      </trkpt>
      <trkpt lat="44.09846" lon="5.96738">
        <ele>648.8</ele>
        <time>2021-03-30T10:37:21.000Z</time>
      </trkpt>
      <trkpt lat="44.09846" lon="5.96738">
        <ele>648.6</ele>
        <time>2021-03-30T10:37:22.000Z</time>
      </trkpt>
      <trkpt lat="44.09846" lon="5.96738">
        <ele>648.6</ele>
        <time>2021-03-30T10:37:23.000Z</time>
      </trkpt>
      <trkpt lat="44.09846" lon="5.96738">
        <ele>648.4</ele>
        <time>2021-03-30T10:37:25.000Z</time>
      </trkpt>
      <trkpt lat="44.09846" lon="5.96738">
        <ele>648.4</ele>
        <time>2021-03-30T10:37:26.000Z</time>
      </trkpt>
      <trkpt lat="44.09846" lon="5.96738">
        <ele>648.4</ele>
        <time>2021-03-30T10:37:27.000Z</time>
      </trkpt>
      <trkpt lat="44.09846" lon="5.96738">
        <ele>648.2</ele>
        <time>2021-03-30T10:37:29.000Z</time>
      </trkpt>
      <trkpt lat="44.09846" lon="5.96738">
        <ele>648.2</ele>
        <time>2021-03-30T10:37:30.000Z</time>
      </trkpt>
      <trkpt lat="44.09846" lon="5.96738">
        <ele>648.2</ele>
        <time>2021-03-30T10:37:32.000Z</time>
      </trkpt>
      <trkpt lat="44.09846" lon="5.96738">
        <ele>648</ele>
        <time>2021-03-30T10:37:33.000Z</time>
      </trkpt>
      <trkpt lat="44.09846" lon="5.96738">
        <ele>648</ele>
        <time>2021-03-30T10:37:34.000Z</time>
      </trkpt>
      <trkpt lat="44.09846" lon="5.96738">
        <ele>648</ele>
        <time>2021-03-30T10:37:36.000Z</time>
      </trkpt>
      <trkpt lat="44.09846" lon="5.96738">
        <ele>647.8</ele>
        <time>2021-03-30T10:37:37.000Z</time>
      </trkpt>
      <trkpt lat="44.09846" lon="5.96738">
        <ele>647.8</ele>
        <time>2021-03-30T10:37:38.000Z</time>
      </trkpt>
      <trkpt lat="44.09846" lon="5.96738">
        <ele>647.6</ele>
        <time>2021-03-30T10:37:40.000Z</time>
      </trkpt>
      <trkpt lat="44.09846" lon="5.96738">
        <ele>647.6</ele>
        <time>2021-03-30T10:37:41.000Z</time>
      </trkpt>
      <trkpt lat="44.09846" lon="5.96738">
        <ele>647.6</ele>
        <time>2021-03-30T10:37:42.000Z</time>
      </trkpt>
      <trkpt lat="44.09846" lon="5.96738">
        <ele>647.4</ele>
        <time>2021-03-30T10:37:44.000Z</time>
      </trkpt>
      <trkpt lat="44.09846" lon="5.96738">
        <ele>647.4</ele>
        <time>2021-03-30T10:37:45.000Z</time>
      </trkpt>
      <trkpt lat="44.09846" lon="5.96738">
        <ele>647.4</ele>
        <time>2021-03-30T10:37:47.000Z</time>
      </trkpt>
      <trkpt lat="44.09846" lon="5.96738">
        <ele>647.2</ele>
        <time>2021-03-30T10:37:48.000Z</time>
      </trkpt>
      <trkpt lat="44.09846" lon="5.96738">
        <ele>647.2</ele>
        <time>2021-03-30T10:37:49.000Z</time>
      </trkpt>
      <trkpt lat="44.09846" lon="5.96738">
        <ele>647</ele>
        <time>2021-03-30T10:37:51.000Z</time>
      </trkpt>
      <trkpt lat="44.09846" lon="5.96738">
        <ele>647</ele>
        <time>2021-03-30T10:37:52.000Z</time>
      </trkpt>
      <trkpt lat="44.09846" lon="5.96738">
        <ele>647</ele>
        <time>2021-03-30T10:37:53.000Z</time>
      </trkpt>
      <trkpt lat="44.09846" lon="5.96738">
        <ele>647</ele>
        <time>2021-03-30T10:37:55.000Z</time>
      </trkpt>
      <trkpt lat="44.09846" lon="5.96738">
        <ele>647</ele>
        <time>2021-03-30T10:37:56.000Z</time>
      </trkpt>
      <trkpt lat="44.09846" lon="5.96738">
        <ele>646.8</ele>
        <time>2021-03-30T10:37:58.000Z</time>
      </trkpt>
      <trkpt lat="44.09846" lon="5.96738">
        <ele>646.8</ele>
        <time>2021-03-30T10:37:59.000Z</time>
      </trkpt>
      <trkpt lat="44.09846" lon="5.96738">
        <ele>646.8</ele>
        <time>2021-03-30T10:38:00.000Z</time>
      </trkpt>
      <trkpt lat="44.09846" lon="5.96738">
        <ele>646.6</ele>
        <time>2021-03-30T10:38:02.000Z</time>
      </trkpt>
      <trkpt lat="44.09846" lon="5.96738">
        <ele>646.6</ele>
        <time>2021-03-30T10:38:03.000Z</time>
      </trkpt>
      <trkpt lat="44.09846" lon="5.96738">
        <ele>646.6</ele>
        <time>2021-03-30T10:38:04.000Z</time>
      </trkpt>
      <trkpt lat="44.09846" lon="5.96738">
        <ele>646.4</ele>
        <time>2021-03-30T10:38:06.000Z</time>
      </trkpt>
      <trkpt lat="44.09846" lon="5.96738">
        <ele>646.4</ele>
        <time>2021-03-30T10:38:07.000Z</time>
      </trkpt>
      <trkpt lat="44.09846" lon="5.96738">
        <ele>646.2</ele>
        <time>2021-03-30T10:38:09.000Z</time>
      </trkpt>
      <trkpt lat="44.09846" lon="5.96738">
        <ele>646.2</ele>
        <time>2021-03-30T10:38:10.000Z</time>
      </trkpt>
      <trkpt lat="44.09846" lon="5.96738">
        <ele>646</ele>
        <time>2021-03-30T10:38:11.000Z</time>
      </trkpt>
      <trkpt lat="44.09846" lon="5.96738">
        <ele>646</ele>
        <time>2021-03-30T10:38:13.000Z</time>
      </trkpt>
      <trkpt lat="44.09846" lon="5.96738">
        <ele>645.8</ele>
        <time>2021-03-30T10:38:14.000Z</time>
      </trkpt>
      <trkpt lat="44.09846" lon="5.96738">
        <ele>645.8</ele>
        <time>2021-03-30T10:38:15.000Z</time>
      </trkpt>
      <trkpt lat="44.09846" lon="5.96738">
        <ele>645.6</ele>
        <time>2021-03-30T10:38:17.000Z</time>
      </trkpt>
      <trkpt lat="44.09846" lon="5.96738">
        <ele>645.6</ele>
        <time>2021-03-30T10:38:18.000Z</time>
      </trkpt>
      <trkpt lat="44.09846" lon="5.96738">
        <ele>645.4</ele>
        <time>2021-03-30T10:38:19.000Z</time>
      </trkpt>
      <trkpt lat="44.09846" lon="5.96738">
        <ele>645.2</ele>
        <time>2021-03-30T10:38:21.000Z</time>
      </trkpt>
      <trkpt lat="44.09846" lon="5.96738">
        <ele>645</ele>
        <time>2021-03-30T10:38:22.000Z</time>
      </trkpt>
      <trkpt lat="44.09846" lon="5.96738">
        <ele>644.8</ele>
        <time>2021-03-30T10:38:24.000Z</time>
      </trkpt>
      <trkpt lat="44.09846" lon="5.96738">
        <ele>644.8</ele>
        <time>2021-03-30T10:38:25.000Z</time>
      </trkpt>
      <trkpt lat="44.09846" lon="5.96738">
        <ele>644.6</ele>
        <time>2021-03-30T10:38:26.000Z</time>
      </trkpt>
      <trkpt lat="44.09846" lon="5.96738">
        <ele>644.4</ele>
        <time>2021-03-30T10:38:28.000Z</time>
      </trkpt>
      <trkpt lat="44.09846" lon="5.96738">
        <ele>644.4</ele>
        <time>2021-03-30T10:38:29.000Z</time>
      </trkpt>
      <trkpt lat="44.09846" lon="5.96738">
        <ele>644.4</ele>
        <time>2021-03-30T10:38:30.000Z</time>
      </trkpt>
      <trkpt lat="44.09846" lon="5.96738">
        <ele>644.2</ele>
        <time>2021-03-30T10:38:32.000Z</time>
      </trkpt>
      <trkpt lat="44.09846" lon="5.96738">
        <ele>644.2</ele>
        <time>2021-03-30T10:38:33.000Z</time>
      </trkpt>
      <trkpt lat="44.09846" lon="5.96738">
        <ele>644.2</ele>
        <time>2021-03-30T10:38:35.000Z</time>
      </trkpt>
      <trkpt lat="44.09846" lon="5.96738">
        <ele>644</ele>
        <time>2021-03-30T10:38:36.000Z</time>
      </trkpt>
      <trkpt lat="44.09846" lon="5.96738">
        <ele>644</ele>
        <time>2021-03-30T10:38:37.000Z</time>
      </trkpt>
      <trkpt lat="44.09846" lon="5.96738">
        <ele>644</ele>
        <time>2021-03-30T10:38:39.000Z</time>
      </trkpt>
      <trkpt lat="44.09846" lon="5.96738">
        <ele>643.8</ele>
        <time>2021-03-30T10:38:40.000Z</time>
      </trkpt>
      <trkpt lat="44.09846" lon="5.96738">
        <ele>643.8</ele>
        <time>2021-03-30T10:38:41.000Z</time>
      </trkpt>
      <trkpt lat="44.09846" lon="5.96738">
        <ele>643.8</ele>
        <time>2021-03-30T10:38:43.000Z</time>
      </trkpt>
      <trkpt lat="44.09846" lon="5.96738">
        <ele>643.8</ele>
        <time>2021-03-30T10:38:44.000Z</time>
      </trkpt>
      <trkpt lat="44.09846" lon="5.96738">
        <ele>643.8</ele>
        <time>2021-03-30T10:38:46.000Z</time>
      </trkpt>
      <trkpt lat="44.09846" lon="5.96738">
        <ele>643.8</ele>
        <time>2021-03-30T10:38:47.000Z</time>
      </trkpt>
      <trkpt lat="44.09846" lon="5.96738">
        <ele>643.8</ele>
        <time>2021-03-30T10:38:48.000Z</time>
      </trkpt>
      <trkpt lat="44.09846" lon="5.96738">
        <ele>644</ele>
        <time>2021-03-30T10:38:50.000Z</time>
      </trkpt>
      <trkpt lat="44.09846" lon="5.96738">
        <ele>644</ele>
        <time>2021-03-30T10:38:51.000Z</time>
      </trkpt>
      <trkpt lat="44.09846" lon="5.96738">
        <ele>644</ele>
        <time>2021-03-30T10:38:52.000Z</time>
      </trkpt>
      <trkpt lat="44.09846" lon="5.96738">
        <ele>644</ele>
        <time>2021-03-30T10:38:54.000Z</time>
      </trkpt>
      <trkpt lat="44.09846" lon="5.96738">
        <ele>644</ele>
        <time>2021-03-30T10:38:55.000Z</time>
      </trkpt>
      <trkpt lat="44.09846" lon="5.96738">
        <ele>644</ele>
        <time>2021-03-30T10:38:57.000Z</time>
      </trkpt>
      <trkpt lat="44.09846" lon="5.96738">
        <ele>644</ele>
        <time>2021-03-30T10:38:58.000Z</time>
      </trkpt>
      <trkpt lat="44.09846" lon="5.96738">
        <ele>644</ele>
        <time>2021-03-30T10:38:59.000Z</time>
      </trkpt>
      <trkpt lat="44.09846" lon="5.96738">
        <ele>644</ele>
        <time>2021-03-30T10:39:01.000Z</time>
      </trkpt>
      <trkpt lat="44.09846" lon="5.96738">
        <ele>644</ele>
        <time>2021-03-30T10:39:02.000Z</time>
      </trkpt>
      <trkpt lat="44.09846" lon="5.96738">
        <ele>644</ele>
        <time>2021-03-30T10:39:03.000Z</time>
      </trkpt>
      <trkpt lat="44.09846" lon="5.96738">
        <ele>644</ele>
        <time>2021-03-30T10:39:05.000Z</time>
      </trkpt>
      <trkpt lat="44.09846" lon="5.96738">
        <ele>644</ele>
        <time>2021-03-30T10:39:06.000Z</time>
      </trkpt>
      <trkpt lat="44.09846" lon="5.96738">
        <ele>644</ele>
        <time>2021-03-30T10:39:07.000Z</time>
      </trkpt>
      <trkpt lat="44.09846" lon="5.96738">
        <ele>644.2</ele>
        <time>2021-03-30T10:39:09.000Z</time>
      </trkpt>
      <trkpt lat="44.09846" lon="5.96738">
        <ele>644.2</ele>
        <time>2021-03-30T10:39:10.000Z</time>
      </trkpt>
      <trkpt lat="44.09846" lon="5.96738">
        <ele>644.4</ele>
        <time>2021-03-30T10:39:12.000Z</time>
      </trkpt>
      <trkpt lat="44.09846" lon="5.96738">
        <ele>644.6</ele>
        <time>2021-03-30T10:39:13.000Z</time>
      </trkpt>
      <trkpt lat="44.09846" lon="5.96738">
        <ele>644.6</ele>
        <time>2021-03-30T10:39:14.000Z</time>
      </trkpt>
      <trkpt lat="44.09846" lon="5.96738">
        <ele>644.8</ele>
        <time>2021-03-30T10:39:16.000Z</time>
      </trkpt>
      <trkpt lat="44.09846" lon="5.96738">
        <ele>645</ele>
        <time>2021-03-30T10:39:17.000Z</time>
      </trkpt>
      <trkpt lat="44.09846" lon="5.96738">
        <ele>645</ele>
        <time>2021-03-30T10:39:18.000Z</time>
      </trkpt>
      <trkpt lat="44.09846" lon="5.96738">
        <ele>645.2</ele>
        <time>2021-03-30T10:39:20.000Z</time>
      </trkpt>
      <trkpt lat="44.09846" lon="5.96738">
        <ele>645.4</ele>
        <time>2021-03-30T10:39:21.000Z</time>
      </trkpt>
      <trkpt lat="44.09846" lon="5.96738">
        <ele>645</ele>
        <time>2021-03-30T10:39:23.000Z</time>
      </trkpt>
      <trkpt lat="44.09846" lon="5.96738">
        <ele>644.8</ele>
        <time>2021-03-30T10:39:24.000Z</time>
      </trkpt>
      <trkpt lat="44.09846" lon="5.96738">
        <ele>644.6</ele>
        <time>2021-03-30T10:39:25.000Z</time>
      </trkpt>
      <trkpt lat="44.09846" lon="5.96738">
        <ele>645</ele>
        <time>2021-03-30T10:39:27.000Z</time>
      </trkpt>
      <trkpt lat="44.09846" lon="5.96738">
        <ele>644.8</ele>
        <time>2021-03-30T10:39:28.000Z</time>
      </trkpt>
      <trkpt lat="44.09846" lon="5.96738">
        <ele>644.8</ele>
        <time>2021-03-30T10:39:29.000Z</time>
      </trkpt>
      <trkpt lat="44.09846" lon="5.96738">
        <ele>645</ele>
        <time>2021-03-30T10:39:31.000Z</time>
      </trkpt>
      <trkpt lat="44.09846" lon="5.96738">
        <ele>645</ele>
        <time>2021-03-30T10:39:32.000Z</time>
      </trkpt>
      <trkpt lat="44.09845" lon="5.96738">
        <ele>645</ele>
        <time>2021-03-30T10:39:34.000Z</time>
      </trkpt>
      <trkpt lat="44.09844" lon="5.96738">
        <ele>645</ele>
        <time>2021-03-30T10:39:35.000Z</time>
      </trkpt>
      <trkpt lat="44.09842" lon="5.96738">
        <ele>645</ele>
        <time>2021-03-30T10:39:36.000Z</time>
      </trkpt>
      <trkpt lat="44.09837" lon="5.96738">
        <ele>644.8</ele>
        <time>2021-03-30T10:39:38.000Z</time>
      </trkpt>
      <trkpt lat="44.09834" lon="5.96738">
        <ele>644.8</ele>
        <time>2021-03-30T10:39:39.000Z</time>
      </trkpt>
      <trkpt lat="44.09829" lon="5.96736">
        <ele>644.8</ele>
        <time>2021-03-30T10:39:40.000Z</time>
      </trkpt>
      <trkpt lat="44.09822" lon="5.96731">
        <ele>644.4</ele>
        <time>2021-03-30T10:39:42.000Z</time>
      </trkpt>
      <trkpt lat="44.09818" lon="5.96731">
        <ele>644.2</ele>
        <time>2021-03-30T10:39:43.000Z</time>
      </trkpt>
      <trkpt lat="44.09815" lon="5.9673">
        <ele>644</ele>
        <time>2021-03-30T10:39:44.000Z</time>
      </trkpt>
      <trkpt lat="44.09809" lon="5.96725">
        <ele>643.8</ele>
        <time>2021-03-30T10:39:46.000Z</time>
      </trkpt>
      <trkpt lat="44.09807" lon="5.9672">
        <ele>643.6</ele>
        <time>2021-03-30T10:39:47.000Z</time>
      </trkpt>
      <trkpt lat="44.09801" lon="5.96716">
        <ele>643.4</ele>
        <time>2021-03-30T10:39:49.000Z</time>
      </trkpt>
      <trkpt lat="44.09799" lon="5.96719">
        <ele>643.2</ele>
        <time>2021-03-30T10:39:50.000Z</time>
      </trkpt>
      <trkpt lat="44.09797" lon="5.96721">
        <ele>643.2</ele>
        <time>2021-03-30T10:39:51.000Z</time>
      </trkpt>
      <trkpt lat="44.09797" lon="5.96724">
        <ele>643.4</ele>
        <time>2021-03-30T10:39:53.000Z</time>
      </trkpt>
      <trkpt lat="44.09797" lon="5.96725">
        <ele>643.6</ele>
        <time>2021-03-30T10:39:54.000Z</time>
      </trkpt>
      <trkpt lat="44.09797" lon="5.96727">
        <ele>643.8</ele>
        <time>2021-03-30T10:39:55.000Z</time>
      </trkpt>
      <trkpt lat="44.09797" lon="5.96727">
        <ele>644.2</ele>
        <time>2021-03-30T10:39:57.000Z</time>
      </trkpt>
      <trkpt lat="44.09797" lon="5.96727">
        <ele>644.6</ele>
        <time>2021-03-30T10:39:58.000Z</time>
      </trkpt>
      <trkpt lat="44.09797" lon="5.96727">
        <ele>645</ele>
        <time>2021-03-30T10:40:00.000Z</time>
      </trkpt>
      <trkpt lat="44.09797" lon="5.96728">
        <ele>645.2</ele>
        <time>2021-03-30T10:40:01.000Z</time>
      </trkpt>
      <trkpt lat="44.09796" lon="5.96728">
        <ele>645.4</ele>
        <time>2021-03-30T10:40:02.000Z</time>
      </trkpt>
      <trkpt lat="44.09796" lon="5.96728">
        <ele>645.6</ele>
        <time>2021-03-30T10:40:04.000Z</time>
      </trkpt>
      <trkpt lat="44.09796" lon="5.96728">
        <ele>645.6</ele>
        <time>2021-03-30T10:40:05.000Z</time>
      </trkpt>
      <trkpt lat="44.09796" lon="5.96728">
        <ele>645.8</ele>
        <time>2021-03-30T10:40:06.000Z</time>
      </trkpt>
      <trkpt lat="44.09796" lon="5.96728">
        <ele>646</ele>
        <time>2021-03-30T10:40:08.000Z</time>
      </trkpt>
      <trkpt lat="44.09796" lon="5.96728">
        <ele>646</ele>
        <time>2021-03-30T10:40:09.000Z</time>
      </trkpt>
      <trkpt lat="44.09796" lon="5.96728">
        <ele>646</ele>
        <time>2021-03-30T10:40:11.000Z</time>
      </trkpt>
      <trkpt lat="44.09796" lon="5.96728">
        <ele>646</ele>
        <time>2021-03-30T10:40:12.000Z</time>
      </trkpt>
      <trkpt lat="44.09796" lon="5.96728">
        <ele>646</ele>
        <time>2021-03-30T10:40:13.000Z</time>
      </trkpt>
      <trkpt lat="44.09795" lon="5.96728">
        <ele>645.8</ele>
        <time>2021-03-30T10:40:15.000Z</time>
      </trkpt>
      <trkpt lat="44.09793" lon="5.96729">
        <ele>645.8</ele>
        <time>2021-03-30T10:40:16.000Z</time>
      </trkpt>
      <trkpt lat="44.0979" lon="5.96731">
        <ele>645.6</ele>
        <time>2021-03-30T10:40:17.000Z</time>
      </trkpt>
      <trkpt lat="44.09785" lon="5.96733">
        <ele>645.2</ele>
        <time>2021-03-30T10:40:19.000Z</time>
      </trkpt>
      <trkpt lat="44.09782" lon="5.96732">
        <ele>645</ele>
        <time>2021-03-30T10:40:20.000Z</time>
      </trkpt>
      <trkpt lat="44.0978" lon="5.96732">
        <ele>644.6</ele>
        <time>2021-03-30T10:40:21.000Z</time>
      </trkpt>
      <trkpt lat="44.09772" lon="5.96732">
        <ele>644</ele>
        <time>2021-03-30T10:40:23.000Z</time>
      </trkpt>
      <trkpt lat="44.09768" lon="5.96732">
        <ele>643.8</ele>
        <time>2021-03-30T10:40:24.000Z</time>
      </trkpt>
      <trkpt lat="44.0976" lon="5.96734">
        <ele>643.2</ele>
        <time>2021-03-30T10:40:26.000Z</time>
      </trkpt>
      <trkpt lat="44.09757" lon="5.96734">
        <ele>643</ele>
        <time>2021-03-30T10:40:27.000Z</time>
      </trkpt>
      <trkpt lat="44.09756" lon="5.96734">
        <ele>643</ele>
        <time>2021-03-30T10:40:28.000Z</time>
      </trkpt>
      <trkpt lat="44.09753" lon="5.96734">
        <ele>643</ele>
        <time>2021-03-30T10:40:30.000Z</time>
      </trkpt>
      <trkpt lat="44.09752" lon="5.96735">
        <ele>643</ele>
        <time>2021-03-30T10:40:31.000Z</time>
      </trkpt>
      <trkpt lat="44.0975" lon="5.96736">
        <ele>643</ele>
        <time>2021-03-30T10:40:32.000Z</time>
      </trkpt>
      <trkpt lat="44.09746" lon="5.96741">
        <ele>643.2</ele>
        <time>2021-03-30T10:40:34.000Z</time>
      </trkpt>
      <trkpt lat="44.09745" lon="5.96744">
        <ele>643.2</ele>
        <time>2021-03-30T10:40:35.000Z</time>
      </trkpt>
      <trkpt lat="44.09741" lon="5.9675">
        <ele>643.4</ele>
        <time>2021-03-30T10:40:37.000Z</time>
      </trkpt>
      <trkpt lat="44.09739" lon="5.96752">
        <ele>643.4</ele>
        <time>2021-03-30T10:40:38.000Z</time>
      </trkpt>
      <trkpt lat="44.09736" lon="5.96754">
        <ele>643.2</ele>
        <time>2021-03-30T10:40:39.000Z</time>
      </trkpt>
      <trkpt lat="44.09732" lon="5.96759">
        <ele>643.4</ele>
        <time>2021-03-30T10:40:41.000Z</time>
      </trkpt>
      <trkpt lat="44.09731" lon="5.96762">
        <ele>643.4</ele>
        <time>2021-03-30T10:40:42.000Z</time>
      </trkpt>
      <trkpt lat="44.09731" lon="5.96765">
        <ele>643.6</ele>
        <time>2021-03-30T10:40:43.000Z</time>
      </trkpt>
      <trkpt lat="44.09728" lon="5.9677">
        <ele>644</ele>
        <time>2021-03-30T10:40:45.000Z</time>
      </trkpt>
      <trkpt lat="44.09726" lon="5.96772">
        <ele>644.2</ele>
        <time>2021-03-30T10:40:46.000Z</time>
      </trkpt>
      <trkpt lat="44.09721" lon="5.96776">
        <ele>644.4</ele>
        <time>2021-03-30T10:40:48.000Z</time>
      </trkpt>
      <trkpt lat="44.0972" lon="5.96779">
        <ele>644.6</ele>
        <time>2021-03-30T10:40:49.000Z</time>
      </trkpt>
      <trkpt lat="44.09719" lon="5.96781">
        <ele>644.8</ele>
        <time>2021-03-30T10:40:50.000Z</time>
      </trkpt>
      <trkpt lat="44.09716" lon="5.96784">
        <ele>645.2</ele>
        <time>2021-03-30T10:40:52.000Z</time>
      </trkpt>
      <trkpt lat="44.09715" lon="5.96785">
        <ele>645.4</ele>
        <time>2021-03-30T10:40:53.000Z</time>
      </trkpt>
      <trkpt lat="44.09713" lon="5.96786">
        <ele>645.6</ele>
        <time>2021-03-30T10:40:54.000Z</time>
      </trkpt>
      <trkpt lat="44.09709" lon="5.96789">
        <ele>646.2</ele>
        <time>2021-03-30T10:40:56.000Z</time>
      </trkpt>
      <trkpt lat="44.09707" lon="5.96792">
        <ele>646.4</ele>
        <time>2021-03-30T10:40:57.000Z</time>
      </trkpt>
      <trkpt lat="44.09707" lon="5.96797">
        <ele>647.2</ele>
        <time>2021-03-30T10:40:59.000Z</time>
      </trkpt>
      <trkpt lat="44.09706" lon="5.968">
        <ele>647.6</ele>
        <time>2021-03-30T10:41:00.000Z</time>
      </trkpt>
      <trkpt lat="44.09705" lon="5.96804">
        <ele>647.8</ele>
        <time>2021-03-30T10:41:01.000Z</time>
      </trkpt>
      <trkpt lat="44.09703" lon="5.96811">
        <ele>648.4</ele>
        <time>2021-03-30T10:41:03.000Z</time>
      </trkpt>
      <trkpt lat="44.09703" lon="5.96813">
        <ele>648.8</ele>
        <time>2021-03-30T10:41:04.000Z</time>
      </trkpt>
      <trkpt lat="44.09702" lon="5.96816">
        <ele>649.2</ele>
        <time>2021-03-30T10:41:05.000Z</time>
      </trkpt>
      <trkpt lat="44.09699" lon="5.96819">
        <ele>649.6</ele>
        <time>2021-03-30T10:41:07.000Z</time>
      </trkpt>
      <trkpt lat="44.09697" lon="5.9682">
        <ele>649.8</ele>
        <time>2021-03-30T10:41:08.000Z</time>
      </trkpt>
      <trkpt lat="44.09695" lon="5.96821">
        <ele>650</ele>
        <time>2021-03-30T10:41:09.000Z</time>
      </trkpt>
      <trkpt lat="44.09691" lon="5.96822">
        <ele>650.2</ele>
        <time>2021-03-30T10:41:11.000Z</time>
      </trkpt>
      <trkpt lat="44.09687" lon="5.96823">
        <ele>650</ele>
        <time>2021-03-30T10:41:12.000Z</time>
      </trkpt>
      <trkpt lat="44.09681" lon="5.96826">
        <ele>649.8</ele>
        <time>2021-03-30T10:41:14.000Z</time>
      </trkpt>
      <trkpt lat="44.09678" lon="5.96826">
        <ele>649.6</ele>
        <time>2021-03-30T10:41:15.000Z</time>
      </trkpt>
      <trkpt lat="44.09675" lon="5.96827">
        <ele>649.8</ele>
        <time>2021-03-30T10:41:16.000Z</time>
      </trkpt>
      <trkpt lat="44.0967" lon="5.96828">
        <ele>649.6</ele>
        <time>2021-03-30T10:41:18.000Z</time>
      </trkpt>
      <trkpt lat="44.09668" lon="5.96827">
        <ele>649.4</ele>
        <time>2021-03-30T10:41:19.000Z</time>
      </trkpt>
      <trkpt lat="44.09665" lon="5.96827">
        <ele>649.4</ele>
        <time>2021-03-30T10:41:20.000Z</time>
      </trkpt>
      <trkpt lat="44.0966" lon="5.96831">
        <ele>649</ele>
        <time>2021-03-30T10:41:22.000Z</time>
      </trkpt>
      <trkpt lat="44.09658" lon="5.96833">
        <ele>648.8</ele>
        <time>2021-03-30T10:41:23.000Z</time>
      </trkpt>
      <trkpt lat="44.09655" lon="5.96837">
        <ele>648.8</ele>
        <time>2021-03-30T10:41:25.000Z</time>
      </trkpt>
      <trkpt lat="44.09654" lon="5.96839">
        <ele>648.8</ele>
        <time>2021-03-30T10:41:26.000Z</time>
      </trkpt>
      <trkpt lat="44.09653" lon="5.96842">
        <ele>649</ele>
        <time>2021-03-30T10:41:27.000Z</time>
      </trkpt>
      <trkpt lat="44.09651" lon="5.96846">
        <ele>649.6</ele>
        <time>2021-03-30T10:41:29.000Z</time>
      </trkpt>
      <trkpt lat="44.0965" lon="5.96849">
        <ele>649.8</ele>
        <time>2021-03-30T10:41:30.000Z</time>
      </trkpt>
      <trkpt lat="44.09647" lon="5.96853">
        <ele>649.8</ele>
        <time>2021-03-30T10:41:31.000Z</time>
      </trkpt>
      <trkpt lat="44.09644" lon="5.96858">
        <ele>650</ele>
        <time>2021-03-30T10:41:33.000Z</time>
      </trkpt>
      <trkpt lat="44.09643" lon="5.96861">
        <ele>650.4</ele>
        <time>2021-03-30T10:41:34.000Z</time>
      </trkpt>
      <trkpt lat="44.09641" lon="5.96865">
        <ele>651</ele>
        <time>2021-03-30T10:41:36.000Z</time>
      </trkpt>
      <trkpt lat="44.0964" lon="5.96866">
        <ele>651.2</ele>
        <time>2021-03-30T10:41:37.000Z</time>
      </trkpt>
      <trkpt lat="44.09638" lon="5.96866">
        <ele>651.2</ele>
        <time>2021-03-30T10:41:38.000Z</time>
      </trkpt>
      <trkpt lat="44.09633" lon="5.96865">
        <ele>651.2</ele>
        <time>2021-03-30T10:41:40.000Z</time>
      </trkpt>
      <trkpt lat="44.09631" lon="5.96864">
        <ele>651.2</ele>
        <time>2021-03-30T10:41:41.000Z</time>
      </trkpt>
      <trkpt lat="44.09628" lon="5.96862">
        <ele>651.2</ele>
        <time>2021-03-30T10:41:42.000Z</time>
      </trkpt>
      <trkpt lat="44.09625" lon="5.96859">
        <ele>651.2</ele>
        <time>2021-03-30T10:41:44.000Z</time>
      </trkpt>
      <trkpt lat="44.09622" lon="5.96855">
        <ele>651</ele>
        <time>2021-03-30T10:41:45.000Z</time>
      </trkpt>
      <trkpt lat="44.0962" lon="5.96851">
        <ele>651</ele>
        <time>2021-03-30T10:41:46.000Z</time>
      </trkpt>
      <trkpt lat="44.09615" lon="5.96844">
        <ele>650.8</ele>
        <time>2021-03-30T10:41:48.000Z</time>
      </trkpt>
      <trkpt lat="44.09612" lon="5.96841">
        <ele>650.6</ele>
        <time>2021-03-30T10:41:49.000Z</time>
      </trkpt>
      <trkpt lat="44.09606" lon="5.96839">
        <ele>650.8</ele>
        <time>2021-03-30T10:41:51.000Z</time>
      </trkpt>
      <trkpt lat="44.09604" lon="5.96839">
        <ele>650.8</ele>
        <time>2021-03-30T10:41:52.000Z</time>
      </trkpt>
      <trkpt lat="44.09601" lon="5.96839">
        <ele>650.8</ele>
        <time>2021-03-30T10:41:53.000Z</time>
      </trkpt>
      <trkpt lat="44.09596" lon="5.9684">
        <ele>650.4</ele>
        <time>2021-03-30T10:41:55.000Z</time>
      </trkpt>
      <trkpt lat="44.09595" lon="5.9684">
        <ele>650.4</ele>
        <time>2021-03-30T10:41:56.000Z</time>
      </trkpt>
      <trkpt lat="44.09593" lon="5.96841">
        <ele>650.2</ele>
        <time>2021-03-30T10:41:57.000Z</time>
      </trkpt>
      <trkpt lat="44.09589" lon="5.96843">
        <ele>649.8</ele>
        <time>2021-03-30T10:41:59.000Z</time>
      </trkpt>
      <trkpt lat="44.09587" lon="5.96846">
        <ele>649.4</ele>
        <time>2021-03-30T10:42:00.000Z</time>
      </trkpt>
      <trkpt lat="44.09581" lon="5.96854">
        <ele>648.8</ele>
        <time>2021-03-30T10:42:02.000Z</time>
      </trkpt>
      <trkpt lat="44.0958" lon="5.96856">
        <ele>648.4</ele>
        <time>2021-03-30T10:42:03.000Z</time>
      </trkpt>
      <trkpt lat="44.09578" lon="5.96856">
        <ele>648</ele>
        <time>2021-03-30T10:42:04.000Z</time>
      </trkpt>
      <trkpt lat="44.09572" lon="5.96857">
        <ele>647.4</ele>
        <time>2021-03-30T10:42:06.000Z</time>
      </trkpt>
      <trkpt lat="44.09568" lon="5.96857">
        <ele>647</ele>
        <time>2021-03-30T10:42:07.000Z</time>
      </trkpt>
      <trkpt lat="44.09566" lon="5.96858">
        <ele>646.8</ele>
        <time>2021-03-30T10:42:08.000Z</time>
      </trkpt>
      <trkpt lat="44.09561" lon="5.96861">
        <ele>646.4</ele>
        <time>2021-03-30T10:42:10.000Z</time>
      </trkpt>
      <trkpt lat="44.09559" lon="5.96863">
        <ele>646.2</ele>
        <time>2021-03-30T10:42:11.000Z</time>
      </trkpt>
      <trkpt lat="44.09552" lon="5.96862">
        <ele>645.6</ele>
        <time>2021-03-30T10:42:13.000Z</time>
      </trkpt>
      <trkpt lat="44.0955" lon="5.96862">
        <ele>645.4</ele>
        <time>2021-03-30T10:42:14.000Z</time>
      </trkpt>
      <trkpt lat="44.09548" lon="5.96862">
        <ele>645</ele>
        <time>2021-03-30T10:42:15.000Z</time>
      </trkpt>
      <trkpt lat="44.09541" lon="5.96864">
        <ele>644.4</ele>
        <time>2021-03-30T10:42:17.000Z</time>
      </trkpt>
      <trkpt lat="44.09537" lon="5.96867">
        <ele>644</ele>
        <time>2021-03-30T10:42:18.000Z</time>
      </trkpt>
      <trkpt lat="44.09534" lon="5.96871">
        <ele>643.6</ele>
        <time>2021-03-30T10:42:19.000Z</time>
      </trkpt>
      <trkpt lat="44.09527" lon="5.9688">
        <ele>643</ele>
        <time>2021-03-30T10:42:21.000Z</time>
      </trkpt>
      <trkpt lat="44.09523" lon="5.96881">
        <ele>642.6</ele>
        <time>2021-03-30T10:42:22.000Z</time>
      </trkpt>
      <trkpt lat="44.09519" lon="5.9688">
        <ele>642.2</ele>
        <time>2021-03-30T10:42:23.000Z</time>
      </trkpt>
      <trkpt lat="44.09512" lon="5.96878">
        <ele>641.2</ele>
        <time>2021-03-30T10:42:25.000Z</time>
      </trkpt>
      <trkpt lat="44.09508" lon="5.9688">
        <ele>640.8</ele>
        <time>2021-03-30T10:42:26.000Z</time>
      </trkpt>
      <trkpt lat="44.09503" lon="5.96882">
        <ele>640</ele>
        <time>2021-03-30T10:42:28.000Z</time>
      </trkpt>
      <trkpt lat="44.09502" lon="5.96881">
        <ele>639.6</ele>
        <time>2021-03-30T10:42:29.000Z</time>
      </trkpt>
      <trkpt lat="44.095" lon="5.96879">
        <ele>639.4</ele>
        <time>2021-03-30T10:42:30.000Z</time>
      </trkpt>
      <trkpt lat="44.09495" lon="5.96875">
        <ele>638.6</ele>
        <time>2021-03-30T10:42:32.000Z</time>
      </trkpt>
      <trkpt lat="44.09492" lon="5.96874">
        <ele>638.4</ele>
        <time>2021-03-30T10:42:33.000Z</time>
      </trkpt>
      <trkpt lat="44.09489" lon="5.96874">
        <ele>638</ele>
        <time>2021-03-30T10:42:34.000Z</time>
      </trkpt>
      <trkpt lat="44.09483" lon="5.96874">
        <ele>637.2</ele>
        <time>2021-03-30T10:42:36.000Z</time>
      </trkpt>
      <trkpt lat="44.0948" lon="5.96875">
        <ele>637</ele>
        <time>2021-03-30T10:42:37.000Z</time>
      </trkpt>
      <trkpt lat="44.09476" lon="5.96877">
        <ele>636.6</ele>
        <time>2021-03-30T10:42:39.000Z</time>
      </trkpt>
      <trkpt lat="44.09475" lon="5.96878">
        <ele>636.4</ele>
        <time>2021-03-30T10:42:40.000Z</time>
      </trkpt>
      <trkpt lat="44.09473" lon="5.96878">
        <ele>636.4</ele>
        <time>2021-03-30T10:42:41.000Z</time>
      </trkpt>
      <trkpt lat="44.09469" lon="5.96879">
        <ele>636.4</ele>
        <time>2021-03-30T10:42:43.000Z</time>
      </trkpt>
      <trkpt lat="44.09466" lon="5.9688">
        <ele>636.4</ele>
        <time>2021-03-30T10:42:44.000Z</time>
      </trkpt>
      <trkpt lat="44.09464" lon="5.96881">
        <ele>636.4</ele>
        <time>2021-03-30T10:42:45.000Z</time>
      </trkpt>
      <trkpt lat="44.09459" lon="5.96884">
        <ele>636.6</ele>
        <time>2021-03-30T10:42:47.000Z</time>
      </trkpt>
      <trkpt lat="44.09457" lon="5.96886">
        <ele>636.6</ele>
        <time>2021-03-30T10:42:48.000Z</time>
      </trkpt>
      <trkpt lat="44.09453" lon="5.9689">
        <ele>636.4</ele>
        <time>2021-03-30T10:42:50.000Z</time>
      </trkpt>
      <trkpt lat="44.0945" lon="5.96892">
        <ele>636.4</ele>
        <time>2021-03-30T10:42:51.000Z</time>
      </trkpt>
      <trkpt lat="44.09447" lon="5.96894">
        <ele>636.2</ele>
        <time>2021-03-30T10:42:52.000Z</time>
      </trkpt>
      <trkpt lat="44.09443" lon="5.96898">
        <ele>636</ele>
        <time>2021-03-30T10:42:54.000Z</time>
      </trkpt>
      <trkpt lat="44.09442" lon="5.96901">
        <ele>636</ele>
        <time>2021-03-30T10:42:55.000Z</time>
      </trkpt>
      <trkpt lat="44.09443" lon="5.96904">
        <ele>636</ele>
        <time>2021-03-30T10:42:56.000Z</time>
      </trkpt>
      <trkpt lat="44.09446" lon="5.9691">
        <ele>636.2</ele>
        <time>2021-03-30T10:42:58.000Z</time>
      </trkpt>
      <trkpt lat="44.09447" lon="5.96913">
        <ele>636.2</ele>
        <time>2021-03-30T10:42:59.000Z</time>
      </trkpt>
      <trkpt lat="44.09447" lon="5.9692">
        <ele>636.4</ele>
        <time>2021-03-30T10:43:01.000Z</time>
      </trkpt>
      <trkpt lat="44.09447" lon="5.96923">
        <ele>636.6</ele>
        <time>2021-03-30T10:43:02.000Z</time>
      </trkpt>
      <trkpt lat="44.09446" lon="5.96927">
        <ele>636.8</ele>
        <time>2021-03-30T10:43:03.000Z</time>
      </trkpt>
      <trkpt lat="44.09446" lon="5.96933">
        <ele>637.2</ele>
        <time>2021-03-30T10:43:05.000Z</time>
      </trkpt>
      <trkpt lat="44.09446" lon="5.96937">
        <ele>637.4</ele>
        <time>2021-03-30T10:43:06.000Z</time>
      </trkpt>
      <trkpt lat="44.09446" lon="5.9694">
        <ele>637.6</ele>
        <time>2021-03-30T10:43:07.000Z</time>
      </trkpt>
      <trkpt lat="44.09445" lon="5.96945">
        <ele>637.8</ele>
        <time>2021-03-30T10:43:09.000Z</time>
      </trkpt>
      <trkpt lat="44.09444" lon="5.96949">
        <ele>638</ele>
        <time>2021-03-30T10:43:10.000Z</time>
      </trkpt>
      <trkpt lat="44.09442" lon="5.96954">
        <ele>638</ele>
        <time>2021-03-30T10:43:11.000Z</time>
      </trkpt>
      <trkpt lat="44.09441" lon="5.96964">
        <ele>638.2</ele>
        <time>2021-03-30T10:43:13.000Z</time>
      </trkpt>
      <trkpt lat="44.0944" lon="5.96966">
        <ele>638</ele>
        <time>2021-03-30T10:43:14.000Z</time>
      </trkpt>
      <trkpt lat="44.09434" lon="5.96971">
        <ele>637.8</ele>
        <time>2021-03-30T10:43:16.000Z</time>
      </trkpt>
      <trkpt lat="44.09431" lon="5.96973">
        <ele>637.6</ele>
        <time>2021-03-30T10:43:17.000Z</time>
      </trkpt>
      <trkpt lat="44.09428" lon="5.96974">
        <ele>637.6</ele>
        <time>2021-03-30T10:43:18.000Z</time>
      </trkpt>
      <trkpt lat="44.09423" lon="5.96981">
        <ele>637.4</ele>
        <time>2021-03-30T10:43:20.000Z</time>
      </trkpt>
      <trkpt lat="44.09422" lon="5.96984">
        <ele>637.2</ele>
        <time>2021-03-30T10:43:21.000Z</time>
      </trkpt>
      <trkpt lat="44.09423" lon="5.96989">
        <ele>637</ele>
        <time>2021-03-30T10:43:22.000Z</time>
      </trkpt>
      <trkpt lat="44.09425" lon="5.96997">
        <ele>636.4</ele>
        <time>2021-03-30T10:43:24.000Z</time>
      </trkpt>
      <trkpt lat="44.09425" lon="5.97">
        <ele>636.2</ele>
        <time>2021-03-30T10:43:25.000Z</time>
      </trkpt>
      <trkpt lat="44.09425" lon="5.97007">
        <ele>635.6</ele>
        <time>2021-03-30T10:43:27.000Z</time>
      </trkpt>
      <trkpt lat="44.09423" lon="5.9701">
        <ele>635.4</ele>
        <time>2021-03-30T10:43:28.000Z</time>
      </trkpt>
      <trkpt lat="44.0942" lon="5.97012">
        <ele>635</ele>
        <time>2021-03-30T10:43:29.000Z</time>
      </trkpt>
      <trkpt lat="44.09414" lon="5.97016">
        <ele>634.6</ele>
        <time>2021-03-30T10:43:31.000Z</time>
      </trkpt>
      <trkpt lat="44.09413" lon="5.97018">
        <ele>634.6</ele>
        <time>2021-03-30T10:43:32.000Z</time>
      </trkpt>
      <trkpt lat="44.09411" lon="5.9702">
        <ele>634.4</ele>
        <time>2021-03-30T10:43:33.000Z</time>
      </trkpt>
      <trkpt lat="44.09406" lon="5.97021">
        <ele>634.6</ele>
        <time>2021-03-30T10:43:35.000Z</time>
      </trkpt>
      <trkpt lat="44.09404" lon="5.97023">
        <ele>634.6</ele>
        <time>2021-03-30T10:43:36.000Z</time>
      </trkpt>
      <trkpt lat="44.09401" lon="5.97026">
        <ele>634.6</ele>
        <time>2021-03-30T10:43:38.000Z</time>
      </trkpt>
      <trkpt lat="44.09398" lon="5.97028">
        <ele>634.6</ele>
        <time>2021-03-30T10:43:39.000Z</time>
      </trkpt>
      <trkpt lat="44.09397" lon="5.97031">
        <ele>634.6</ele>
        <time>2021-03-30T10:43:40.000Z</time>
      </trkpt>
      <trkpt lat="44.09398" lon="5.97036">
        <ele>634.6</ele>
        <time>2021-03-30T10:43:42.000Z</time>
      </trkpt>
      <trkpt lat="44.09399" lon="5.97038">
        <ele>634.6</ele>
        <time>2021-03-30T10:43:43.000Z</time>
      </trkpt>
      <trkpt lat="44.09399" lon="5.97041">
        <ele>634.6</ele>
        <time>2021-03-30T10:43:44.000Z</time>
      </trkpt>
      <trkpt lat="44.09398" lon="5.97048">
        <ele>634.8</ele>
        <time>2021-03-30T10:43:46.000Z</time>
      </trkpt>
      <trkpt lat="44.09397" lon="5.97051">
        <ele>634.8</ele>
        <time>2021-03-30T10:43:47.000Z</time>
      </trkpt>
      <trkpt lat="44.09396" lon="5.97054">
        <ele>634.8</ele>
        <time>2021-03-30T10:43:48.000Z</time>
      </trkpt>
      <trkpt lat="44.09395" lon="5.9706">
        <ele>635</ele>
        <time>2021-03-30T10:43:50.000Z</time>
      </trkpt>
      <trkpt lat="44.09395" lon="5.97062">
        <ele>634.8</ele>
        <time>2021-03-30T10:43:51.000Z</time>
      </trkpt>
      <trkpt lat="44.09392" lon="5.97068">
        <ele>634.6</ele>
        <time>2021-03-30T10:43:53.000Z</time>
      </trkpt>
      <trkpt lat="44.09389" lon="5.97072">
        <ele>634.6</ele>
        <time>2021-03-30T10:43:54.000Z</time>
      </trkpt>
      <trkpt lat="44.09386" lon="5.97076">
        <ele>634.4</ele>
        <time>2021-03-30T10:43:55.000Z</time>
      </trkpt>
      <trkpt lat="44.09378" lon="5.97086">
        <ele>634</ele>
        <time>2021-03-30T10:43:57.000Z</time>
      </trkpt>
      <trkpt lat="44.09375" lon="5.97091">
        <ele>634</ele>
        <time>2021-03-30T10:43:58.000Z</time>
      </trkpt>
      <trkpt lat="44.09373" lon="5.97096">
        <ele>633.8</ele>
        <time>2021-03-30T10:43:59.000Z</time>
      </trkpt>
      <trkpt lat="44.09369" lon="5.97104">
        <ele>633.8</ele>
        <time>2021-03-30T10:44:01.000Z</time>
      </trkpt>
      <trkpt lat="44.09366" lon="5.97108">
        <ele>633.6</ele>
        <time>2021-03-30T10:44:02.000Z</time>
      </trkpt>
      <trkpt lat="44.09358" lon="5.97118">
        <ele>633.2</ele>
        <time>2021-03-30T10:44:04.000Z</time>
      </trkpt>
      <trkpt lat="44.09355" lon="5.97124">
        <ele>633</ele>
        <time>2021-03-30T10:44:05.000Z</time>
      </trkpt>
      <trkpt lat="44.09354" lon="5.97129">
        <ele>632.8</ele>
        <time>2021-03-30T10:44:06.000Z</time>
      </trkpt>
      <trkpt lat="44.09349" lon="5.9714">
        <ele>632.4</ele>
        <time>2021-03-30T10:44:08.000Z</time>
      </trkpt>
      <trkpt lat="44.09347" lon="5.97144">
        <ele>632.2</ele>
        <time>2021-03-30T10:44:09.000Z</time>
      </trkpt>
      <trkpt lat="44.09344" lon="5.97148">
        <ele>632</ele>
        <time>2021-03-30T10:44:10.000Z</time>
      </trkpt>
      <trkpt lat="44.0934" lon="5.97157">
        <ele>631.2</ele>
        <time>2021-03-30T10:44:12.000Z</time>
      </trkpt>
      <trkpt lat="44.09337" lon="5.97162">
        <ele>630.8</ele>
        <time>2021-03-30T10:44:13.000Z</time>
      </trkpt>
      <trkpt lat="44.09333" lon="5.97167">
        <ele>630</ele>
        <time>2021-03-30T10:44:15.000Z</time>
      </trkpt>
      <trkpt lat="44.09331" lon="5.97169">
        <ele>629.6</ele>
        <time>2021-03-30T10:44:16.000Z</time>
      </trkpt>
      <trkpt lat="44.0933" lon="5.97171">
        <ele>629.2</ele>
        <time>2021-03-30T10:44:17.000Z</time>
      </trkpt>
      <trkpt lat="44.09327" lon="5.97171">
        <ele>628.4</ele>
        <time>2021-03-30T10:44:19.000Z</time>
      </trkpt>
      <trkpt lat="44.09326" lon="5.9717">
        <ele>628.2</ele>
        <time>2021-03-30T10:44:20.000Z</time>
      </trkpt>
      <trkpt lat="44.09326" lon="5.97168">
        <ele>628</ele>
        <time>2021-03-30T10:44:21.000Z</time>
      </trkpt>
      <trkpt lat="44.09325" lon="5.97164">
        <ele>627.8</ele>
        <time>2021-03-30T10:44:23.000Z</time>
      </trkpt>
      <trkpt lat="44.09325" lon="5.97162">
        <ele>627.8</ele>
        <time>2021-03-30T10:44:24.000Z</time>
      </trkpt>
      <trkpt lat="44.09325" lon="5.9716">
        <ele>627.6</ele>
        <time>2021-03-30T10:44:25.000Z</time>
      </trkpt>
      <trkpt lat="44.09324" lon="5.97157">
        <ele>627.4</ele>
        <time>2021-03-30T10:44:27.000Z</time>
      </trkpt>
      <trkpt lat="44.09321" lon="5.97155">
        <ele>627.4</ele>
        <time>2021-03-30T10:44:28.000Z</time>
      </trkpt>
      <trkpt lat="44.09316" lon="5.97153">
        <ele>627.4</ele>
        <time>2021-03-30T10:44:30.000Z</time>
      </trkpt>
      <trkpt lat="44.09314" lon="5.97153">
        <ele>627.4</ele>
        <time>2021-03-30T10:44:31.000Z</time>
      </trkpt>
      <trkpt lat="44.09311" lon="5.97153">
        <ele>627.4</ele>
        <time>2021-03-30T10:44:32.000Z</time>
      </trkpt>
      <trkpt lat="44.09304" lon="5.97154">
        <ele>627.2</ele>
        <time>2021-03-30T10:44:34.000Z</time>
      </trkpt>
      <trkpt lat="44.09302" lon="5.97155">
        <ele>627</ele>
        <time>2021-03-30T10:44:35.000Z</time>
      </trkpt>
      <trkpt lat="44.093" lon="5.97157">
        <ele>627</ele>
        <time>2021-03-30T10:44:36.000Z</time>
      </trkpt>
      <trkpt lat="44.09298" lon="5.97164">
        <ele>626.8</ele>
        <time>2021-03-30T10:44:38.000Z</time>
      </trkpt>
      <trkpt lat="44.09298" lon="5.97167">
        <ele>626.8</ele>
        <time>2021-03-30T10:44:39.000Z</time>
      </trkpt>
      <trkpt lat="44.09297" lon="5.97174">
        <ele>626.8</ele>
        <time>2021-03-30T10:44:41.000Z</time>
      </trkpt>
      <trkpt lat="44.09296" lon="5.97177">
        <ele>626.6</ele>
        <time>2021-03-30T10:44:42.000Z</time>
      </trkpt>
      <trkpt lat="44.09295" lon="5.97179">
        <ele>626.6</ele>
        <time>2021-03-30T10:44:43.000Z</time>
      </trkpt>
      <trkpt lat="44.0929" lon="5.97184">
        <ele>626.4</ele>
        <time>2021-03-30T10:44:45.000Z</time>
      </trkpt>
      <trkpt lat="44.09288" lon="5.97187">
        <ele>626.4</ele>
        <time>2021-03-30T10:44:46.000Z</time>
      </trkpt>
      <trkpt lat="44.09287" lon="5.97189">
        <ele>626.4</ele>
        <time>2021-03-30T10:44:47.000Z</time>
      </trkpt>
      <trkpt lat="44.09282" lon="5.97193">
        <ele>626.4</ele>
        <time>2021-03-30T10:44:49.000Z</time>
      </trkpt>
      <trkpt lat="44.0928" lon="5.97195">
        <ele>626.2</ele>
        <time>2021-03-30T10:44:50.000Z</time>
      </trkpt>
      <trkpt lat="44.09275" lon="5.97199">
        <ele>626</ele>
        <time>2021-03-30T10:44:52.000Z</time>
      </trkpt>
      <trkpt lat="44.09272" lon="5.97201">
        <ele>626</ele>
        <time>2021-03-30T10:44:53.000Z</time>
      </trkpt>
      <trkpt lat="44.09269" lon="5.97204">
        <ele>625.8</ele>
        <time>2021-03-30T10:44:54.000Z</time>
      </trkpt>
      <trkpt lat="44.09264" lon="5.97208">
        <ele>625.8</ele>
        <time>2021-03-30T10:44:56.000Z</time>
      </trkpt>
      <trkpt lat="44.09261" lon="5.9721">
        <ele>625.6</ele>
        <time>2021-03-30T10:44:57.000Z</time>
      </trkpt>
      <trkpt lat="44.09258" lon="5.97211">
        <ele>625.6</ele>
        <time>2021-03-30T10:44:58.000Z</time>
      </trkpt>
      <trkpt lat="44.09255" lon="5.97216">
        <ele>625.6</ele>
        <time>2021-03-30T10:45:00.000Z</time>
      </trkpt>
      <trkpt lat="44.09256" lon="5.97217">
        <ele>625.8</ele>
        <time>2021-03-30T10:45:01.000Z</time>
      </trkpt>
      <trkpt lat="44.0926" lon="5.97219">
        <ele>625.8</ele>
        <time>2021-03-30T10:45:03.000Z</time>
      </trkpt>
      <trkpt lat="44.09263" lon="5.9722">
        <ele>625.8</ele>
        <time>2021-03-30T10:45:04.000Z</time>
      </trkpt>
      <trkpt lat="44.09266" lon="5.9722">
        <ele>626</ele>
        <time>2021-03-30T10:45:05.000Z</time>
      </trkpt>
      <trkpt lat="44.09272" lon="5.97222">
        <ele>626</ele>
        <time>2021-03-30T10:45:07.000Z</time>
      </trkpt>
      <trkpt lat="44.09275" lon="5.97223">
        <ele>626</ele>
        <time>2021-03-30T10:45:08.000Z</time>
      </trkpt>
      <trkpt lat="44.09278" lon="5.97225">
        <ele>625.8</ele>
        <time>2021-03-30T10:45:09.000Z</time>
      </trkpt>
      <trkpt lat="44.09283" lon="5.97229">
        <ele>625.6</ele>
        <time>2021-03-30T10:45:11.000Z</time>
      </trkpt>
      <trkpt lat="44.09286" lon="5.97229">
        <ele>625.6</ele>
        <time>2021-03-30T10:45:12.000Z</time>
      </trkpt>
      <trkpt lat="44.0929" lon="5.97229">
        <ele>625.6</ele>
        <time>2021-03-30T10:45:13.000Z</time>
      </trkpt>
      <trkpt lat="44.09295" lon="5.97233">
        <ele>625.6</ele>
        <time>2021-03-30T10:45:15.000Z</time>
      </trkpt>
      <trkpt lat="44.09298" lon="5.97235">
        <ele>625.6</ele>
        <time>2021-03-30T10:45:16.000Z</time>
      </trkpt>
      <trkpt lat="44.09304" lon="5.97239">
        <ele>625.6</ele>
        <time>2021-03-30T10:45:18.000Z</time>
      </trkpt>
      <trkpt lat="44.09306" lon="5.97241">
        <ele>625.6</ele>
        <time>2021-03-30T10:45:19.000Z</time>
      </trkpt>
      <trkpt lat="44.09309" lon="5.97243">
        <ele>625.6</ele>
        <time>2021-03-30T10:45:20.000Z</time>
      </trkpt>
      <trkpt lat="44.09313" lon="5.97244">
        <ele>625.8</ele>
        <time>2021-03-30T10:45:22.000Z</time>
      </trkpt>
      <trkpt lat="44.09315" lon="5.97246">
        <ele>625.8</ele>
        <time>2021-03-30T10:45:23.000Z</time>
      </trkpt>
      <trkpt lat="44.09317" lon="5.97247">
        <ele>625.8</ele>
        <time>2021-03-30T10:45:24.000Z</time>
      </trkpt>
      <trkpt lat="44.09322" lon="5.9725">
        <ele>625.6</ele>
        <time>2021-03-30T10:45:26.000Z</time>
      </trkpt>
      <trkpt lat="44.09324" lon="5.97252">
        <ele>625.6</ele>
        <time>2021-03-30T10:45:27.000Z</time>
      </trkpt>
      <trkpt lat="44.09325" lon="5.97256">
        <ele>625.4</ele>
        <time>2021-03-30T10:45:29.000Z</time>
      </trkpt>
      <trkpt lat="44.09325" lon="5.97259">
        <ele>625.4</ele>
        <time>2021-03-30T10:45:30.000Z</time>
      </trkpt>
      <trkpt lat="44.09324" lon="5.97261">
        <ele>625.4</ele>
        <time>2021-03-30T10:45:31.000Z</time>
      </trkpt>
      <trkpt lat="44.0932" lon="5.97262">
        <ele>625.4</ele>
        <time>2021-03-30T10:45:33.000Z</time>
      </trkpt>
      <trkpt lat="44.09318" lon="5.97261">
        <ele>625.4</ele>
        <time>2021-03-30T10:45:34.000Z</time>
      </trkpt>
      <trkpt lat="44.09315" lon="5.9726">
        <ele>625.4</ele>
        <time>2021-03-30T10:45:35.000Z</time>
      </trkpt>
      <trkpt lat="44.09309" lon="5.97258">
        <ele>625.4</ele>
        <time>2021-03-30T10:45:37.000Z</time>
      </trkpt>
      <trkpt lat="44.09306" lon="5.97258">
        <ele>625.4</ele>
        <time>2021-03-30T10:45:38.000Z</time>
      </trkpt>
      <trkpt lat="44.093" lon="5.97257">
        <ele>625.4</ele>
        <time>2021-03-30T10:45:40.000Z</time>
      </trkpt>
      <trkpt lat="44.09297" lon="5.97257">
        <ele>625.2</ele>
        <time>2021-03-30T10:45:41.000Z</time>
      </trkpt>
      <trkpt lat="44.09294" lon="5.97258">
        <ele>625.2</ele>
        <time>2021-03-30T10:45:42.000Z</time>
      </trkpt>
      <trkpt lat="44.09288" lon="5.9726">
        <ele>625.2</ele>
        <time>2021-03-30T10:45:44.000Z</time>
      </trkpt>
      <trkpt lat="44.09287" lon="5.97262">
        <ele>625.2</ele>
        <time>2021-03-30T10:45:45.000Z</time>
      </trkpt>
      <trkpt lat="44.09284" lon="5.97262">
        <ele>625.2</ele>
        <time>2021-03-30T10:45:46.000Z</time>
      </trkpt>
      <trkpt lat="44.09278" lon="5.97259">
        <ele>625.2</ele>
        <time>2021-03-30T10:45:48.000Z</time>
      </trkpt>
      <trkpt lat="44.09274" lon="5.97256">
        <ele>625</ele>
        <time>2021-03-30T10:45:49.000Z</time>
      </trkpt>
      <trkpt lat="44.0927" lon="5.97254">
        <ele>625</ele>
        <time>2021-03-30T10:45:50.000Z</time>
      </trkpt>
      <trkpt lat="44.09262" lon="5.97254">
        <ele>624.8</ele>
        <time>2021-03-30T10:45:52.000Z</time>
      </trkpt>
      <trkpt lat="44.09259" lon="5.97256">
        <ele>624.8</ele>
        <time>2021-03-30T10:45:53.000Z</time>
      </trkpt>
      <trkpt lat="44.09258" lon="5.97256">
        <ele>625</ele>
        <time>2021-03-30T10:45:55.000Z</time>
      </trkpt>
      <trkpt lat="44.09258" lon="5.97256">
        <ele>625.2</ele>
        <time>2021-03-30T10:45:56.000Z</time>
      </trkpt>
      <trkpt lat="44.09258" lon="5.97256">
        <ele>625.2</ele>
        <time>2021-03-30T10:45:57.000Z</time>
      </trkpt>
      <trkpt lat="44.09258" lon="5.97256">
        <ele>625.4</ele>
        <time>2021-03-30T10:45:59.000Z</time>
      </trkpt>
      <trkpt lat="44.09258" lon="5.97256">
        <ele>625.4</ele>
        <time>2021-03-30T10:46:00.000Z</time>
      </trkpt>
      <trkpt lat="44.09258" lon="5.97256">
        <ele>625.4</ele>
        <time>2021-03-30T10:46:01.000Z</time>
      </trkpt>
      <trkpt lat="44.09258" lon="5.97256">
        <ele>625.6</ele>
        <time>2021-03-30T10:46:03.000Z</time>
      </trkpt>
      <trkpt lat="44.09258" lon="5.97256">
        <ele>625.6</ele>
        <time>2021-03-30T10:46:04.000Z</time>
      </trkpt>
      <trkpt lat="44.09258" lon="5.97256">
        <ele>625.6</ele>
        <time>2021-03-30T10:46:06.000Z</time>
      </trkpt>
      <trkpt lat="44.09258" lon="5.97256">
        <ele>625.4</ele>
        <time>2021-03-30T10:46:07.000Z</time>
      </trkpt>
      <trkpt lat="44.09258" lon="5.97256">
        <ele>625.4</ele>
        <time>2021-03-30T10:46:08.000Z</time>
      </trkpt>
      <trkpt lat="44.09258" lon="5.97256">
        <ele>625.4</ele>
        <time>2021-03-30T10:46:10.000Z</time>
      </trkpt>
      <trkpt lat="44.09258" lon="5.97256">
        <ele>625.4</ele>
        <time>2021-03-30T10:46:11.000Z</time>
      </trkpt>
      <trkpt lat="44.09258" lon="5.97256">
        <ele>625.2</ele>
        <time>2021-03-30T10:46:12.000Z</time>
      </trkpt>
      <trkpt lat="44.09258" lon="5.97257">
        <ele>625</ele>
        <time>2021-03-30T10:46:14.000Z</time>
      </trkpt>
      <trkpt lat="44.09258" lon="5.97257">
        <ele>625</ele>
        <time>2021-03-30T10:46:15.000Z</time>
      </trkpt>
      <trkpt lat="44.09258" lon="5.97257">
        <ele>625</ele>
        <time>2021-03-30T10:46:17.000Z</time>
      </trkpt>
      <trkpt lat="44.09258" lon="5.97257">
        <ele>624.8</ele>
        <time>2021-03-30T10:46:18.000Z</time>
      </trkpt>
      <trkpt lat="44.09258" lon="5.97257">
        <ele>624.6</ele>
        <time>2021-03-30T10:46:19.000Z</time>
      </trkpt>
      <trkpt lat="44.09258" lon="5.97257">
        <ele>624.4</ele>
        <time>2021-03-30T10:46:21.000Z</time>
      </trkpt>
      <trkpt lat="44.09258" lon="5.97257">
        <ele>624.4</ele>
        <time>2021-03-30T10:46:22.000Z</time>
      </trkpt>
      <trkpt lat="44.09258" lon="5.97257">
        <ele>624.2</ele>
        <time>2021-03-30T10:46:23.000Z</time>
      </trkpt>
      <trkpt lat="44.09258" lon="5.97257">
        <ele>623.8</ele>
        <time>2021-03-30T10:46:25.000Z</time>
      </trkpt>
      <trkpt lat="44.09258" lon="5.97257">
        <ele>623.8</ele>
        <time>2021-03-30T10:46:26.000Z</time>
      </trkpt>
      <trkpt lat="44.09258" lon="5.97257">
        <ele>623.8</ele>
        <time>2021-03-30T10:46:27.000Z</time>
      </trkpt>
      <trkpt lat="44.09258" lon="5.97257">
        <ele>623.6</ele>
        <time>2021-03-30T10:46:29.000Z</time>
      </trkpt>
      <trkpt lat="44.09258" lon="5.97257">
        <ele>623.4</ele>
        <time>2021-03-30T10:46:30.000Z</time>
      </trkpt>
      <trkpt lat="44.09258" lon="5.97257">
        <ele>623.2</ele>
        <time>2021-03-30T10:46:32.000Z</time>
      </trkpt>
      <trkpt lat="44.09258" lon="5.97257">
        <ele>623.2</ele>
        <time>2021-03-30T10:46:33.000Z</time>
      </trkpt>
      <trkpt lat="44.09258" lon="5.97257">
        <ele>623</ele>
        <time>2021-03-30T10:46:34.000Z</time>
      </trkpt>
      <trkpt lat="44.09258" lon="5.97257">
        <ele>623</ele>
        <time>2021-03-30T10:46:36.000Z</time>
      </trkpt>
      <trkpt lat="44.09258" lon="5.97257">
        <ele>622.8</ele>
        <time>2021-03-30T10:46:37.000Z</time>
      </trkpt>
      <trkpt lat="44.09258" lon="5.97257">
        <ele>622.8</ele>
        <time>2021-03-30T10:46:38.000Z</time>
      </trkpt>
      <trkpt lat="44.09259" lon="5.97259">
        <ele>622.8</ele>
        <time>2021-03-30T10:46:40.000Z</time>
      </trkpt>
      <trkpt lat="44.0926" lon="5.97261">
        <ele>622.8</ele>
        <time>2021-03-30T10:46:41.000Z</time>
      </trkpt>
      <trkpt lat="44.09263" lon="5.97263">
        <ele>623</ele>
        <time>2021-03-30T10:46:43.000Z</time>
      </trkpt>
      <trkpt lat="44.09264" lon="5.97264">
        <ele>623</ele>
        <time>2021-03-30T10:46:44.000Z</time>
      </trkpt>
      <trkpt lat="44.09265" lon="5.97267">
        <ele>623</ele>
        <time>2021-03-30T10:46:45.000Z</time>
      </trkpt>
      <trkpt lat="44.09266" lon="5.9727">
        <ele>623</ele>
        <time>2021-03-30T10:46:47.000Z</time>
      </trkpt>
      <trkpt lat="44.09267" lon="5.97272">
        <ele>623.2</ele>
        <time>2021-03-30T10:46:48.000Z</time>
      </trkpt>
      <trkpt lat="44.09269" lon="5.97274">
        <ele>623.4</ele>
        <time>2021-03-30T10:46:49.000Z</time>
      </trkpt>
      <trkpt lat="44.09271" lon="5.97279">
        <ele>624</ele>
        <time>2021-03-30T10:46:51.000Z</time>
      </trkpt>
      <trkpt lat="44.09273" lon="5.97281">
        <ele>624.2</ele>
        <time>2021-03-30T10:46:52.000Z</time>
      </trkpt>
      <trkpt lat="44.09275" lon="5.97283">
        <ele>624.8</ele>
        <time>2021-03-30T10:46:54.000Z</time>
      </trkpt>
      <trkpt lat="44.09275" lon="5.97284">
        <ele>625</ele>
        <time>2021-03-30T10:46:55.000Z</time>
      </trkpt>
      <trkpt lat="44.09275" lon="5.97284">
        <ele>625.4</ele>
        <time>2021-03-30T10:46:56.000Z</time>
      </trkpt>
      <trkpt lat="44.09275" lon="5.97284">
        <ele>626</ele>
        <time>2021-03-30T10:46:58.000Z</time>
      </trkpt>
      <trkpt lat="44.09275" lon="5.97284">
        <ele>626.4</ele>
        <time>2021-03-30T10:46:59.000Z</time>
      </trkpt>
      <trkpt lat="44.09275" lon="5.97284">
        <ele>626.6</ele>
        <time>2021-03-30T10:47:00.000Z</time>
      </trkpt>
      <trkpt lat="44.09275" lon="5.97284">
        <ele>627.4</ele>
        <time>2021-03-30T10:47:02.000Z</time>
      </trkpt>
      <trkpt lat="44.09275" lon="5.97284">
        <ele>627.6</ele>
        <time>2021-03-30T10:47:03.000Z</time>
      </trkpt>
      <trkpt lat="44.09275" lon="5.97284">
        <ele>628</ele>
        <time>2021-03-30T10:47:05.000Z</time>
      </trkpt>
      <trkpt lat="44.09275" lon="5.97284">
        <ele>628.2</ele>
        <time>2021-03-30T10:47:06.000Z</time>
      </trkpt>
      <trkpt lat="44.09275" lon="5.97284">
        <ele>628.2</ele>
        <time>2021-03-30T10:47:07.000Z</time>
      </trkpt>
      <trkpt lat="44.09275" lon="5.97284">
        <ele>628</ele>
        <time>2021-03-30T10:47:09.000Z</time>
      </trkpt>
      <trkpt lat="44.09275" lon="5.97284">
        <ele>628.2</ele>
        <time>2021-03-30T10:47:10.000Z</time>
      </trkpt>
      <trkpt lat="44.09275" lon="5.97284">
        <ele>628.4</ele>
        <time>2021-03-30T10:47:11.000Z</time>
      </trkpt>
      <trkpt lat="44.09275" lon="5.97284">
        <ele>628.8</ele>
        <time>2021-03-30T10:47:13.000Z</time>
      </trkpt>
      <trkpt lat="44.09275" lon="5.97284">
        <ele>629</ele>
        <time>2021-03-30T10:47:14.000Z</time>
      </trkpt>
      <trkpt lat="44.09275" lon="5.97284">
        <ele>629.2</ele>
        <time>2021-03-30T10:47:15.000Z</time>
      </trkpt>
      <trkpt lat="44.09275" lon="5.97284">
        <ele>629.8</ele>
        <time>2021-03-30T10:47:17.000Z</time>
      </trkpt>
      <trkpt lat="44.09275" lon="5.97284">
        <ele>629.8</ele>
        <time>2021-03-30T10:47:18.000Z</time>
      </trkpt>
      <trkpt lat="44.09275" lon="5.97284">
        <ele>630</ele>
        <time>2021-03-30T10:47:20.000Z</time>
      </trkpt>
      <trkpt lat="44.09275" lon="5.97284">
        <ele>630.2</ele>
        <time>2021-03-30T10:47:21.000Z</time>
      </trkpt>
      <trkpt lat="44.09275" lon="5.97284">
        <ele>630.4</ele>
        <time>2021-03-30T10:47:22.000Z</time>
      </trkpt>
      <trkpt lat="44.09275" lon="5.97284">
        <ele>630.8</ele>
        <time>2021-03-30T10:47:24.000Z</time>
      </trkpt>
      <trkpt lat="44.09275" lon="5.97284">
        <ele>630.8</ele>
        <time>2021-03-30T10:47:25.000Z</time>
      </trkpt>
      <trkpt lat="44.09275" lon="5.97284">
        <ele>630.6</ele>
        <time>2021-03-30T10:47:26.000Z</time>
      </trkpt>
      <trkpt lat="44.09275" lon="5.97284">
        <ele>630.4</ele>
        <time>2021-03-30T10:47:28.000Z</time>
      </trkpt>
      <trkpt lat="44.09275" lon="5.97284">
        <ele>630.2</ele>
        <time>2021-03-30T10:47:29.000Z</time>
      </trkpt>
      <trkpt lat="44.09277" lon="5.97288">
        <ele>630</ele>
        <time>2021-03-30T10:47:31.000Z</time>
      </trkpt>
      <trkpt lat="44.09277" lon="5.97289">
        <ele>629.8</ele>
        <time>2021-03-30T10:47:32.000Z</time>
      </trkpt>
      <trkpt lat="44.09278" lon="5.9729">
        <ele>630</ele>
        <time>2021-03-30T10:47:33.000Z</time>
      </trkpt>
      <trkpt lat="44.09278" lon="5.9729">
        <ele>630.2</ele>
        <time>2021-03-30T10:47:35.000Z</time>
      </trkpt>
      <trkpt lat="44.09278" lon="5.9729">
        <ele>630.2</ele>
        <time>2021-03-30T10:47:36.000Z</time>
      </trkpt>
      <trkpt lat="44.09278" lon="5.9729">
        <ele>630.4</ele>
        <time>2021-03-30T10:47:37.000Z</time>
      </trkpt>
      <trkpt lat="44.09278" lon="5.9729">
        <ele>630.6</ele>
        <time>2021-03-30T10:47:39.000Z</time>
      </trkpt>
      <trkpt lat="44.09278" lon="5.9729">
        <ele>630.8</ele>
        <time>2021-03-30T10:47:40.000Z</time>
      </trkpt>
      <trkpt lat="44.09278" lon="5.9729">
        <ele>631.4</ele>
        <time>2021-03-30T10:47:42.000Z</time>
      </trkpt>
      <trkpt lat="44.09278" lon="5.9729">
        <ele>631.6</ele>
        <time>2021-03-30T10:47:43.000Z</time>
      </trkpt>
      <trkpt lat="44.09279" lon="5.97291">
        <ele>631.8</ele>
        <time>2021-03-30T10:47:44.000Z</time>
      </trkpt>
      <trkpt lat="44.09279" lon="5.97292">
        <ele>632.2</ele>
        <time>2021-03-30T10:47:46.000Z</time>
      </trkpt>
      <trkpt lat="44.09279" lon="5.97292">
        <ele>632.4</ele>
        <time>2021-03-30T10:47:47.000Z</time>
      </trkpt>
      <trkpt lat="44.09279" lon="5.97292">
        <ele>632.4</ele>
        <time>2021-03-30T10:47:48.000Z</time>
      </trkpt>
      <trkpt lat="44.09279" lon="5.97292">
        <ele>632.8</ele>
        <time>2021-03-30T10:47:50.000Z</time>
      </trkpt>
      <trkpt lat="44.09279" lon="5.97292">
        <ele>633</ele>
        <time>2021-03-30T10:47:51.000Z</time>
      </trkpt>
      <trkpt lat="44.09279" lon="5.97292">
        <ele>633.2</ele>
        <time>2021-03-30T10:47:52.000Z</time>
      </trkpt>
      <trkpt lat="44.09279" lon="5.97292">
        <ele>633.8</ele>
        <time>2021-03-30T10:47:54.000Z</time>
      </trkpt>
      <trkpt lat="44.09279" lon="5.97292">
        <ele>634</ele>
        <time>2021-03-30T10:47:55.000Z</time>
      </trkpt>
      <trkpt lat="44.09282" lon="5.97293">
        <ele>634.6</ele>
        <time>2021-03-30T10:47:57.000Z</time>
      </trkpt>
      <trkpt lat="44.09284" lon="5.97294">
        <ele>634.8</ele>
        <time>2021-03-30T10:47:58.000Z</time>
      </trkpt>
      <trkpt lat="44.09287" lon="5.97296">
        <ele>634.8</ele>
        <time>2021-03-30T10:47:59.000Z</time>
      </trkpt>
      <trkpt lat="44.0929" lon="5.97301">
        <ele>634.8</ele>
        <time>2021-03-30T10:48:01.000Z</time>
      </trkpt>
      <trkpt lat="44.09292" lon="5.97302">
        <ele>635</ele>
        <time>2021-03-30T10:48:02.000Z</time>
      </trkpt>
      <trkpt lat="44.09294" lon="5.97304">
        <ele>635</ele>
        <time>2021-03-30T10:48:03.000Z</time>
      </trkpt>
      <trkpt lat="44.09298" lon="5.97306">
        <ele>635.2</ele>
        <time>2021-03-30T10:48:05.000Z</time>
      </trkpt>
      <trkpt lat="44.09299" lon="5.97307">
        <ele>635.2</ele>
        <time>2021-03-30T10:48:06.000Z</time>
      </trkpt>
      <trkpt lat="44.09301" lon="5.97309">
        <ele>635.4</ele>
        <time>2021-03-30T10:48:08.000Z</time>
      </trkpt>
      <trkpt lat="44.09301" lon="5.97309">
        <ele>635.8</ele>
        <time>2021-03-30T10:48:09.000Z</time>
      </trkpt>
      <trkpt lat="44.09301" lon="5.97309">
        <ele>636</ele>
        <time>2021-03-30T10:48:10.000Z</time>
      </trkpt>
      <trkpt lat="44.09302" lon="5.9731">
        <ele>636.8</ele>
        <time>2021-03-30T10:48:12.000Z</time>
      </trkpt>
      <trkpt lat="44.09303" lon="5.9731">
        <ele>637</ele>
        <time>2021-03-30T10:48:13.000Z</time>
      </trkpt>
      <trkpt lat="44.09303" lon="5.9731">
        <ele>637.4</ele>
        <time>2021-03-30T10:48:14.000Z</time>
      </trkpt>
      <trkpt lat="44.09303" lon="5.97311">
        <ele>638</ele>
        <time>2021-03-30T10:48:16.000Z</time>
      </trkpt>
      <trkpt lat="44.09304" lon="5.97312">
        <ele>638.4</ele>
        <time>2021-03-30T10:48:17.000Z</time>
      </trkpt>
      <trkpt lat="44.09305" lon="5.97313">
        <ele>638.8</ele>
        <time>2021-03-30T10:48:19.000Z</time>
      </trkpt>
      <trkpt lat="44.09305" lon="5.97314">
        <ele>639</ele>
        <time>2021-03-30T10:48:20.000Z</time>
      </trkpt>
      <trkpt lat="44.09306" lon="5.97314">
        <ele>639</ele>
        <time>2021-03-30T10:48:21.000Z</time>
      </trkpt>
      <trkpt lat="44.09307" lon="5.97315">
        <ele>639</ele>
        <time>2021-03-30T10:48:23.000Z</time>
      </trkpt>
      <trkpt lat="44.09308" lon="5.97316">
        <ele>639</ele>
        <time>2021-03-30T10:48:24.000Z</time>
      </trkpt>
      <trkpt lat="44.09308" lon="5.97316">
        <ele>639</ele>
        <time>2021-03-30T10:48:25.000Z</time>
      </trkpt>
      <trkpt lat="44.09309" lon="5.97317">
        <ele>638.8</ele>
        <time>2021-03-30T10:48:27.000Z</time>
      </trkpt>
      <trkpt lat="44.09309" lon="5.97318">
        <ele>638.6</ele>
        <time>2021-03-30T10:48:28.000Z</time>
      </trkpt>
      <trkpt lat="44.09309" lon="5.97318">
        <ele>638.6</ele>
        <time>2021-03-30T10:48:29.000Z</time>
      </trkpt>
      <trkpt lat="44.09309" lon="5.97318">
        <ele>638.6</ele>
        <time>2021-03-30T10:48:31.000Z</time>
      </trkpt>
      <trkpt lat="44.09309" lon="5.97318">
        <ele>638.6</ele>
        <time>2021-03-30T10:48:32.000Z</time>
      </trkpt>
      <trkpt lat="44.09309" lon="5.97318">
        <ele>638.6</ele>
        <time>2021-03-30T10:48:34.000Z</time>
      </trkpt>
      <trkpt lat="44.09309" lon="5.97318">
        <ele>638.6</ele>
        <time>2021-03-30T10:48:35.000Z</time>
      </trkpt>
      <trkpt lat="44.09309" lon="5.97318">
        <ele>638.6</ele>
        <time>2021-03-30T10:48:36.000Z</time>
      </trkpt>
      <trkpt lat="44.0931" lon="5.9732">
        <ele>638.4</ele>
        <time>2021-03-30T10:48:38.000Z</time>
      </trkpt>
      <trkpt lat="44.0931" lon="5.97321">
        <ele>638.4</ele>
        <time>2021-03-30T10:48:39.000Z</time>
      </trkpt>
      <trkpt lat="44.0931" lon="5.97321">
        <ele>638.2</ele>
        <time>2021-03-30T10:48:40.000Z</time>
      </trkpt>
      <trkpt lat="44.0931" lon="5.97321">
        <ele>638</ele>
        <time>2021-03-30T10:48:42.000Z</time>
      </trkpt>
      <trkpt lat="44.0931" lon="5.97321">
        <ele>638</ele>
        <time>2021-03-30T10:48:43.000Z</time>
      </trkpt>
      <trkpt lat="44.0931" lon="5.97321">
        <ele>638.2</ele>
        <time>2021-03-30T10:48:45.000Z</time>
      </trkpt>
      <trkpt lat="44.09309" lon="5.97321">
        <ele>638.2</ele>
        <time>2021-03-30T10:48:46.000Z</time>
      </trkpt>
      <trkpt lat="44.09309" lon="5.97323">
        <ele>638.2</ele>
        <time>2021-03-30T10:48:47.000Z</time>
      </trkpt>
      <trkpt lat="44.09309" lon="5.97323">
        <ele>638.6</ele>
        <time>2021-03-30T10:48:49.000Z</time>
      </trkpt>
      <trkpt lat="44.09309" lon="5.97323">
        <ele>638.6</ele>
        <time>2021-03-30T10:48:50.000Z</time>
      </trkpt>
      <trkpt lat="44.0931" lon="5.97324">
        <ele>638.8</ele>
        <time>2021-03-30T10:48:51.000Z</time>
      </trkpt>
      <trkpt lat="44.0931" lon="5.97325">
        <ele>638.8</ele>
        <time>2021-03-30T10:48:53.000Z</time>
      </trkpt>
      <trkpt lat="44.0931" lon="5.97325">
        <ele>638.8</ele>
        <time>2021-03-30T10:48:54.000Z</time>
      </trkpt>
      <trkpt lat="44.0931" lon="5.97325">
        <ele>639</ele>
        <time>2021-03-30T10:48:56.000Z</time>
      </trkpt>
      <trkpt lat="44.0931" lon="5.97325">
        <ele>639.2</ele>
        <time>2021-03-30T10:48:57.000Z</time>
      </trkpt>
      <trkpt lat="44.0931" lon="5.97325">
        <ele>639.2</ele>
        <time>2021-03-30T10:48:58.000Z</time>
      </trkpt>
      <trkpt lat="44.0931" lon="5.97325">
        <ele>639.4</ele>
        <time>2021-03-30T10:49:00.000Z</time>
      </trkpt>
      <trkpt lat="44.0931" lon="5.97325">
        <ele>639.6</ele>
        <time>2021-03-30T10:49:01.000Z</time>
      </trkpt>
      <trkpt lat="44.0931" lon="5.97325">
        <ele>639.6</ele>
        <time>2021-03-30T10:49:02.000Z</time>
      </trkpt>
      <trkpt lat="44.0931" lon="5.97325">
        <ele>640</ele>
        <time>2021-03-30T10:49:04.000Z</time>
      </trkpt>
      <trkpt lat="44.0931" lon="5.97325">
        <ele>640.2</ele>
        <time>2021-03-30T10:49:05.000Z</time>
      </trkpt>
      <trkpt lat="44.0931" lon="5.97325">
        <ele>640</ele>
        <time>2021-03-30T10:49:07.000Z</time>
      </trkpt>
      <trkpt lat="44.0931" lon="5.97325">
        <ele>640</ele>
        <time>2021-03-30T10:49:08.000Z</time>
      </trkpt>
      <trkpt lat="44.0931" lon="5.97325">
        <ele>640</ele>
        <time>2021-03-30T10:49:09.000Z</time>
      </trkpt>
      <trkpt lat="44.0931" lon="5.97325">
        <ele>639.8</ele>
        <time>2021-03-30T10:49:11.000Z</time>
      </trkpt>
      <trkpt lat="44.0931" lon="5.97325">
        <ele>639.8</ele>
        <time>2021-03-30T10:49:12.000Z</time>
      </trkpt>
      <trkpt lat="44.09311" lon="5.97325">
        <ele>639.8</ele>
        <time>2021-03-30T10:49:13.000Z</time>
      </trkpt>
      <trkpt lat="44.09314" lon="5.97329">
        <ele>639.6</ele>
        <time>2021-03-30T10:49:15.000Z</time>
      </trkpt>
      <trkpt lat="44.09315" lon="5.97331">
        <ele>639.6</ele>
        <time>2021-03-30T10:49:16.000Z</time>
      </trkpt>
      <trkpt lat="44.09316" lon="5.97333">
        <ele>639.6</ele>
        <time>2021-03-30T10:49:17.000Z</time>
      </trkpt>
      <trkpt lat="44.09316" lon="5.97341">
        <ele>639.8</ele>
        <time>2021-03-30T10:49:19.000Z</time>
      </trkpt>
      <trkpt lat="44.09316" lon="5.97344">
        <ele>640</ele>
        <time>2021-03-30T10:49:20.000Z</time>
      </trkpt>
      <trkpt lat="44.09317" lon="5.97347">
        <ele>640.2</ele>
        <time>2021-03-30T10:49:22.000Z</time>
      </trkpt>
      <trkpt lat="44.09319" lon="5.97347">
        <ele>640.4</ele>
        <time>2021-03-30T10:49:23.000Z</time>
      </trkpt>
      <trkpt lat="44.0932" lon="5.97346">
        <ele>640.6</ele>
        <time>2021-03-30T10:49:24.000Z</time>
      </trkpt>
      <trkpt lat="44.09323" lon="5.97346">
        <ele>641.2</ele>
        <time>2021-03-30T10:49:26.000Z</time>
      </trkpt>
      <trkpt lat="44.09325" lon="5.97346">
        <ele>641.6</ele>
        <time>2021-03-30T10:49:27.000Z</time>
      </trkpt>
      <trkpt lat="44.09328" lon="5.97346">
        <ele>642</ele>
        <time>2021-03-30T10:49:28.000Z</time>
      </trkpt>
      <trkpt lat="44.09332" lon="5.97347">
        <ele>642.6</ele>
        <time>2021-03-30T10:49:30.000Z</time>
      </trkpt>
      <trkpt lat="44.09334" lon="5.97347">
        <ele>643</ele>
        <time>2021-03-30T10:49:31.000Z</time>
      </trkpt>
      <trkpt lat="44.09338" lon="5.97347">
        <ele>643.8</ele>
        <time>2021-03-30T10:49:33.000Z</time>
      </trkpt>
      <trkpt lat="44.09339" lon="5.97348">
        <ele>644.2</ele>
        <time>2021-03-30T10:49:34.000Z</time>
      </trkpt>
      <trkpt lat="44.09341" lon="5.97348">
        <ele>644.6</ele>
        <time>2021-03-30T10:49:35.000Z</time>
      </trkpt>
      <trkpt lat="44.09346" lon="5.97349">
        <ele>645.4</ele>
        <time>2021-03-30T10:49:37.000Z</time>
      </trkpt>
      <trkpt lat="44.09348" lon="5.9735">
        <ele>645.8</ele>
        <time>2021-03-30T10:49:38.000Z</time>
      </trkpt>
      <trkpt lat="44.09351" lon="5.9735">
        <ele>646.2</ele>
        <time>2021-03-30T10:49:39.000Z</time>
      </trkpt>
      <trkpt lat="44.09356" lon="5.97351">
        <ele>647.2</ele>
        <time>2021-03-30T10:49:41.000Z</time>
      </trkpt>
      <trkpt lat="44.09359" lon="5.97351">
        <ele>647.8</ele>
        <time>2021-03-30T10:49:42.000Z</time>
      </trkpt>
      <trkpt lat="44.09365" lon="5.97351">
        <ele>648.8</ele>
        <time>2021-03-30T10:49:44.000Z</time>
      </trkpt>
      <trkpt lat="44.09367" lon="5.97352">
        <ele>649.4</ele>
        <time>2021-03-30T10:49:45.000Z</time>
      </trkpt>
      <trkpt lat="44.0937" lon="5.97352">
        <ele>649.8</ele>
        <time>2021-03-30T10:49:46.000Z</time>
      </trkpt>
      <trkpt lat="44.09375" lon="5.97355">
        <ele>650.8</ele>
        <time>2021-03-30T10:49:48.000Z</time>
      </trkpt>
      <trkpt lat="44.09377" lon="5.97355">
        <ele>651.2</ele>
        <time>2021-03-30T10:49:49.000Z</time>
      </trkpt>
      <trkpt lat="44.0938" lon="5.97355">
        <ele>651.6</ele>
        <time>2021-03-30T10:49:50.000Z</time>
      </trkpt>
      <trkpt lat="44.09385" lon="5.97355">
        <ele>652.6</ele>
        <time>2021-03-30T10:49:52.000Z</time>
      </trkpt>
      <trkpt lat="44.09388" lon="5.97354">
        <ele>653.2</ele>
        <time>2021-03-30T10:49:53.000Z</time>
      </trkpt>
      <trkpt lat="44.0939" lon="5.97354">
        <ele>653.8</ele>
        <time>2021-03-30T10:49:54.000Z</time>
      </trkpt>
      <trkpt lat="44.09396" lon="5.97355">
        <ele>654.8</ele>
        <time>2021-03-30T10:49:56.000Z</time>
      </trkpt>
      <trkpt lat="44.09398" lon="5.97357">
        <ele>655.2</ele>
        <time>2021-03-30T10:49:57.000Z</time>
      </trkpt>
      <trkpt lat="44.09403" lon="5.97361">
        <ele>655.8</ele>
        <time>2021-03-30T10:49:59.000Z</time>
      </trkpt>
      <trkpt lat="44.09406" lon="5.97363">
        <ele>656.2</ele>
        <time>2021-03-30T10:50:00.000Z</time>
      </trkpt>
      <trkpt lat="44.09408" lon="5.97364">
        <ele>656.4</ele>
        <time>2021-03-30T10:50:01.000Z</time>
      </trkpt>
      <trkpt lat="44.09412" lon="5.97364">
        <ele>657</ele>
        <time>2021-03-30T10:50:03.000Z</time>
      </trkpt>
      <trkpt lat="44.09415" lon="5.97363">
        <ele>657.4</ele>
        <time>2021-03-30T10:50:04.000Z</time>
      </trkpt>
      <trkpt lat="44.09417" lon="5.97362">
        <ele>657.8</ele>
        <time>2021-03-30T10:50:05.000Z</time>
      </trkpt>
      <trkpt lat="44.09421" lon="5.9736">
        <ele>658.8</ele>
        <time>2021-03-30T10:50:07.000Z</time>
      </trkpt>
      <trkpt lat="44.09423" lon="5.97359">
        <ele>659.2</ele>
        <time>2021-03-30T10:50:08.000Z</time>
      </trkpt>
      <trkpt lat="44.09429" lon="5.97357">
        <ele>660</ele>
        <time>2021-03-30T10:50:10.000Z</time>
      </trkpt>
      <trkpt lat="44.09432" lon="5.97355">
        <ele>660.6</ele>
        <time>2021-03-30T10:50:11.000Z</time>
      </trkpt>
      <trkpt lat="44.09434" lon="5.97354">
        <ele>661</ele>
        <time>2021-03-30T10:50:12.000Z</time>
      </trkpt>
      <trkpt lat="44.09438" lon="5.97352">
        <ele>662</ele>
        <time>2021-03-30T10:50:14.000Z</time>
      </trkpt>
      <trkpt lat="44.0944" lon="5.9735">
        <ele>662.4</ele>
        <time>2021-03-30T10:50:15.000Z</time>
      </trkpt>
      <trkpt lat="44.09442" lon="5.97348">
        <ele>662.8</ele>
        <time>2021-03-30T10:50:16.000Z</time>
      </trkpt>
      <trkpt lat="44.09446" lon="5.97344">
        <ele>663.4</ele>
        <time>2021-03-30T10:50:18.000Z</time>
      </trkpt>
      <trkpt lat="44.09447" lon="5.97342">
        <ele>663.6</ele>
        <time>2021-03-30T10:50:19.000Z</time>
      </trkpt>
      <trkpt lat="44.0945" lon="5.97338">
        <ele>664.2</ele>
        <time>2021-03-30T10:50:21.000Z</time>
      </trkpt>
      <trkpt lat="44.09452" lon="5.97336">
        <ele>664.4</ele>
        <time>2021-03-30T10:50:22.000Z</time>
      </trkpt>
      <trkpt lat="44.09454" lon="5.97334">
        <ele>664.8</ele>
        <time>2021-03-30T10:50:23.000Z</time>
      </trkpt>
      <trkpt lat="44.09458" lon="5.97329">
        <ele>665.4</ele>
        <time>2021-03-30T10:50:25.000Z</time>
      </trkpt>
      <trkpt lat="44.0946" lon="5.97327">
        <ele>665.8</ele>
        <time>2021-03-30T10:50:26.000Z</time>
      </trkpt>
      <trkpt lat="44.09463" lon="5.97325">
        <ele>666</ele>
        <time>2021-03-30T10:50:27.000Z</time>
      </trkpt>
      <trkpt lat="44.09468" lon="5.97321">
        <ele>666.8</ele>
        <time>2021-03-30T10:50:29.000Z</time>
      </trkpt>
      <trkpt lat="44.0947" lon="5.97319">
        <ele>667</ele>
        <time>2021-03-30T10:50:30.000Z</time>
      </trkpt>
      <trkpt lat="44.09473" lon="5.97317">
        <ele>667.4</ele>
        <time>2021-03-30T10:50:31.000Z</time>
      </trkpt>
      <trkpt lat="44.09478" lon="5.97314">
        <ele>668</ele>
        <time>2021-03-30T10:50:33.000Z</time>
      </trkpt>
      <trkpt lat="44.0948" lon="5.97312">
        <ele>668.2</ele>
        <time>2021-03-30T10:50:34.000Z</time>
      </trkpt>
      <trkpt lat="44.09485" lon="5.97309">
        <ele>669</ele>
        <time>2021-03-30T10:50:36.000Z</time>
      </trkpt>
      <trkpt lat="44.09487" lon="5.97307">
        <ele>669.4</ele>
        <time>2021-03-30T10:50:37.000Z</time>
      </trkpt>
      <trkpt lat="44.09489" lon="5.97306">
        <ele>669.6</ele>
        <time>2021-03-30T10:50:38.000Z</time>
      </trkpt>
      <trkpt lat="44.09492" lon="5.97305">
        <ele>670.4</ele>
        <time>2021-03-30T10:50:40.000Z</time>
      </trkpt>
      <trkpt lat="44.09494" lon="5.97304">
        <ele>670.6</ele>
        <time>2021-03-30T10:50:41.000Z</time>
      </trkpt>
      <trkpt lat="44.09495" lon="5.97304">
        <ele>670.8</ele>
        <time>2021-03-30T10:50:42.000Z</time>
      </trkpt>
      <trkpt lat="44.09496" lon="5.97304">
        <ele>671.2</ele>
        <time>2021-03-30T10:50:44.000Z</time>
      </trkpt>
      <trkpt lat="44.09496" lon="5.97304">
        <ele>671.2</ele>
        <time>2021-03-30T10:50:45.000Z</time>
      </trkpt>
      <trkpt lat="44.09496" lon="5.97304">
        <ele>671.4</ele>
        <time>2021-03-30T10:50:47.000Z</time>
      </trkpt>
      <trkpt lat="44.09496" lon="5.97304">
        <ele>671.6</ele>
        <time>2021-03-30T10:50:48.000Z</time>
      </trkpt>
      <trkpt lat="44.09496" lon="5.97304">
        <ele>671.8</ele>
        <time>2021-03-30T10:50:49.000Z</time>
      </trkpt>
      <trkpt lat="44.09496" lon="5.97304">
        <ele>672.2</ele>
        <time>2021-03-30T10:50:51.000Z</time>
      </trkpt>
      <trkpt lat="44.09496" lon="5.97304">
        <ele>672.4</ele>
        <time>2021-03-30T10:50:52.000Z</time>
      </trkpt>
      <trkpt lat="44.09496" lon="5.97304">
        <ele>672.6</ele>
        <time>2021-03-30T10:50:53.000Z</time>
      </trkpt>
      <trkpt lat="44.09496" lon="5.97304">
        <ele>673</ele>
        <time>2021-03-30T10:50:55.000Z</time>
      </trkpt>
      <trkpt lat="44.09496" lon="5.97304">
        <ele>673.2</ele>
        <time>2021-03-30T10:50:56.000Z</time>
      </trkpt>
      <trkpt lat="44.09496" lon="5.97304">
        <ele>673.2</ele>
        <time>2021-03-30T10:50:58.000Z</time>
      </trkpt>
      <trkpt lat="44.09496" lon="5.97304">
        <ele>673.4</ele>
        <time>2021-03-30T10:50:59.000Z</time>
      </trkpt>
      <trkpt lat="44.09496" lon="5.97304">
        <ele>673.4</ele>
        <time>2021-03-30T10:51:00.000Z</time>
      </trkpt>
      <trkpt lat="44.09496" lon="5.97304">
        <ele>673.4</ele>
        <time>2021-03-30T10:51:02.000Z</time>
      </trkpt>
      <trkpt lat="44.09496" lon="5.97304">
        <ele>673.4</ele>
        <time>2021-03-30T10:51:03.000Z</time>
      </trkpt>
      <trkpt lat="44.09496" lon="5.97304">
        <ele>673.2</ele>
        <time>2021-03-30T10:51:04.000Z</time>
      </trkpt>
      <trkpt lat="44.09496" lon="5.97304">
        <ele>673.2</ele>
        <time>2021-03-30T10:51:06.000Z</time>
      </trkpt>
      <trkpt lat="44.09496" lon="5.97304">
        <ele>673</ele>
        <time>2021-03-30T10:51:07.000Z</time>
      </trkpt>
      <trkpt lat="44.09496" lon="5.97304">
        <ele>672.8</ele>
        <time>2021-03-30T10:51:09.000Z</time>
      </trkpt>
      <trkpt lat="44.09496" lon="5.97304">
        <ele>672.6</ele>
        <time>2021-03-30T10:51:10.000Z</time>
      </trkpt>
      <trkpt lat="44.09496" lon="5.97304">
        <ele>672.4</ele>
        <time>2021-03-30T10:51:11.000Z</time>
      </trkpt>
      <trkpt lat="44.09496" lon="5.97304">
        <ele>672.2</ele>
        <time>2021-03-30T10:51:13.000Z</time>
      </trkpt>
      <trkpt lat="44.09496" lon="5.97304">
        <ele>672</ele>
        <time>2021-03-30T10:51:14.000Z</time>
      </trkpt>
      <trkpt lat="44.09496" lon="5.97304">
        <ele>671.8</ele>
        <time>2021-03-30T10:51:15.000Z</time>
      </trkpt>
      <trkpt lat="44.09496" lon="5.97304">
        <ele>671.6</ele>
        <time>2021-03-30T10:51:17.000Z</time>
      </trkpt>
      <trkpt lat="44.09496" lon="5.97304">
        <ele>671.4</ele>
        <time>2021-03-30T10:51:18.000Z</time>
      </trkpt>
      <trkpt lat="44.09496" lon="5.97304">
        <ele>671.4</ele>
        <time>2021-03-30T10:51:19.000Z</time>
      </trkpt>
      <trkpt lat="44.09496" lon="5.97304">
        <ele>671.6</ele>
        <time>2021-03-30T10:51:21.000Z</time>
      </trkpt>
      <trkpt lat="44.09496" lon="5.97304">
        <ele>671.6</ele>
        <time>2021-03-30T10:51:22.000Z</time>
      </trkpt>
      <trkpt lat="44.09496" lon="5.97304">
        <ele>671.8</ele>
        <time>2021-03-30T10:51:24.000Z</time>
      </trkpt>
      <trkpt lat="44.09496" lon="5.97304">
        <ele>672</ele>
        <time>2021-03-30T10:51:25.000Z</time>
      </trkpt>
      <trkpt lat="44.09496" lon="5.97304">
        <ele>672.2</ele>
        <time>2021-03-30T10:51:26.000Z</time>
      </trkpt>
      <trkpt lat="44.09496" lon="5.97304">
        <ele>672.4</ele>
        <time>2021-03-30T10:51:28.000Z</time>
      </trkpt>
      <trkpt lat="44.09496" lon="5.97304">
        <ele>672.4</ele>
        <time>2021-03-30T10:51:29.000Z</time>
      </trkpt>
      <trkpt lat="44.09496" lon="5.97304">
        <ele>672.6</ele>
        <time>2021-03-30T10:51:30.000Z</time>
      </trkpt>
      <trkpt lat="44.09496" lon="5.97304">
        <ele>673</ele>
        <time>2021-03-30T10:51:32.000Z</time>
      </trkpt>
      <trkpt lat="44.09496" lon="5.97304">
        <ele>673.2</ele>
        <time>2021-03-30T10:51:33.000Z</time>
      </trkpt>
      <trkpt lat="44.09496" lon="5.97304">
        <ele>673.4</ele>
        <time>2021-03-30T10:51:35.000Z</time>
      </trkpt>
      <trkpt lat="44.09496" lon="5.97304">
        <ele>673.6</ele>
        <time>2021-03-30T10:51:36.000Z</time>
      </trkpt>
      <trkpt lat="44.09496" lon="5.97304">
        <ele>673.8</ele>
        <time>2021-03-30T10:51:37.000Z</time>
      </trkpt>
      <trkpt lat="44.09496" lon="5.97304">
        <ele>674.2</ele>
        <time>2021-03-30T10:51:39.000Z</time>
      </trkpt>
      <trkpt lat="44.09496" lon="5.97304">
        <ele>674.4</ele>
        <time>2021-03-30T10:51:40.000Z</time>
      </trkpt>
      <trkpt lat="44.09496" lon="5.97304">
        <ele>674.4</ele>
        <time>2021-03-30T10:51:41.000Z</time>
      </trkpt>
      <trkpt lat="44.09496" lon="5.97304">
        <ele>675</ele>
        <time>2021-03-30T10:51:43.000Z</time>
      </trkpt>
      <trkpt lat="44.09496" lon="5.97304">
        <ele>675.2</ele>
        <time>2021-03-30T10:51:44.000Z</time>
      </trkpt>
      <trkpt lat="44.09496" lon="5.97304">
        <ele>675.6</ele>
        <time>2021-03-30T10:51:46.000Z</time>
      </trkpt>
      <trkpt lat="44.09496" lon="5.97304">
        <ele>675.8</ele>
        <time>2021-03-30T10:51:47.000Z</time>
      </trkpt>
      <trkpt lat="44.09496" lon="5.97304">
        <ele>676</ele>
        <time>2021-03-30T10:51:48.000Z</time>
      </trkpt>
      <trkpt lat="44.09496" lon="5.97304">
        <ele>676.4</ele>
        <time>2021-03-30T10:51:50.000Z</time>
      </trkpt>
      <trkpt lat="44.09496" lon="5.97304">
        <ele>676.4</ele>
        <time>2021-03-30T10:51:51.000Z</time>
      </trkpt>
      <trkpt lat="44.09496" lon="5.97304">
        <ele>676.6</ele>
        <time>2021-03-30T10:51:52.000Z</time>
      </trkpt>
      <trkpt lat="44.09496" lon="5.97304">
        <ele>677</ele>
        <time>2021-03-30T10:51:54.000Z</time>
      </trkpt>
      <trkpt lat="44.09496" lon="5.97304">
        <ele>677.2</ele>
        <time>2021-03-30T10:51:55.000Z</time>
      </trkpt>
      <trkpt lat="44.09496" lon="5.97304">
        <ele>677.4</ele>
        <time>2021-03-30T10:51:56.000Z</time>
      </trkpt>
      <trkpt lat="44.09496" lon="5.97304">
        <ele>677.8</ele>
        <time>2021-03-30T10:51:58.000Z</time>
      </trkpt>
      <trkpt lat="44.09496" lon="5.97304">
        <ele>678</ele>
        <time>2021-03-30T10:51:59.000Z</time>
      </trkpt>
      <trkpt lat="44.09496" lon="5.97304">
        <ele>678.4</ele>
        <time>2021-03-30T10:52:01.000Z</time>
      </trkpt>
      <trkpt lat="44.09496" lon="5.97304">
        <ele>678.6</ele>
        <time>2021-03-30T10:52:02.000Z</time>
      </trkpt>
      <trkpt lat="44.09496" lon="5.97304">
        <ele>678.8</ele>
        <time>2021-03-30T10:52:03.000Z</time>
      </trkpt>
      <trkpt lat="44.09496" lon="5.97304">
        <ele>679</ele>
        <time>2021-03-30T10:52:05.000Z</time>
      </trkpt>
      <trkpt lat="44.09496" lon="5.97304">
        <ele>679</ele>
        <time>2021-03-30T10:52:06.000Z</time>
      </trkpt>
      <trkpt lat="44.09496" lon="5.97304">
        <ele>679.2</ele>
        <time>2021-03-30T10:52:07.000Z</time>
      </trkpt>
      <trkpt lat="44.09496" lon="5.97304">
        <ele>679.4</ele>
        <time>2021-03-30T10:52:09.000Z</time>
      </trkpt>
      <trkpt lat="44.09496" lon="5.97304">
        <ele>679.4</ele>
        <time>2021-03-30T10:52:10.000Z</time>
      </trkpt>
      <trkpt lat="44.09496" lon="5.97304">
        <ele>679.4</ele>
        <time>2021-03-30T10:52:12.000Z</time>
      </trkpt>
      <trkpt lat="44.09496" lon="5.97304">
        <ele>679.6</ele>
        <time>2021-03-30T10:52:13.000Z</time>
      </trkpt>
      <trkpt lat="44.09496" lon="5.97304">
        <ele>679.6</ele>
        <time>2021-03-30T10:52:14.000Z</time>
      </trkpt>
      <trkpt lat="44.09496" lon="5.97304">
        <ele>679.8</ele>
        <time>2021-03-30T10:52:16.000Z</time>
      </trkpt>
      <trkpt lat="44.09496" lon="5.97304">
        <ele>679.8</ele>
        <time>2021-03-30T10:52:17.000Z</time>
      </trkpt>
      <trkpt lat="44.09496" lon="5.97304">
        <ele>680</ele>
        <time>2021-03-30T10:52:18.000Z</time>
      </trkpt>
      <trkpt lat="44.09496" lon="5.97304">
        <ele>680</ele>
        <time>2021-03-30T10:52:20.000Z</time>
      </trkpt>
      <trkpt lat="44.09496" lon="5.97304">
        <ele>680</ele>
        <time>2021-03-30T10:52:21.000Z</time>
      </trkpt>
      <trkpt lat="44.09496" lon="5.97304">
        <ele>680</ele>
        <time>2021-03-30T10:52:23.000Z</time>
      </trkpt>
      <trkpt lat="44.09496" lon="5.97304">
        <ele>680</ele>
        <time>2021-03-30T10:52:24.000Z</time>
      </trkpt>
      <trkpt lat="44.09496" lon="5.97304">
        <ele>680</ele>
        <time>2021-03-30T10:52:25.000Z</time>
      </trkpt>
      <trkpt lat="44.09496" lon="5.97304">
        <ele>680</ele>
        <time>2021-03-30T10:52:27.000Z</time>
      </trkpt>
      <trkpt lat="44.09496" lon="5.97304">
        <ele>680</ele>
        <time>2021-03-30T10:52:28.000Z</time>
      </trkpt>
      <trkpt lat="44.09496" lon="5.97304">
        <ele>680</ele>
        <time>2021-03-30T10:52:29.000Z</time>
      </trkpt>
      <trkpt lat="44.09496" lon="5.97304">
        <ele>679.8</ele>
        <time>2021-03-30T10:52:31.000Z</time>
      </trkpt>
      <trkpt lat="44.09496" lon="5.97304">
        <ele>679.6</ele>
        <time>2021-03-30T10:52:32.000Z</time>
      </trkpt>
      <trkpt lat="44.09496" lon="5.97304">
        <ele>679.6</ele>
        <time>2021-03-30T10:52:33.000Z</time>
      </trkpt>
      <trkpt lat="44.09496" lon="5.97304">
        <ele>679.4</ele>
        <time>2021-03-30T10:52:35.000Z</time>
      </trkpt>
      <trkpt lat="44.09496" lon="5.97304">
        <ele>679.4</ele>
        <time>2021-03-30T10:52:36.000Z</time>
      </trkpt>
      <trkpt lat="44.09496" lon="5.97304">
        <ele>679.2</ele>
        <time>2021-03-30T10:52:38.000Z</time>
      </trkpt>
      <trkpt lat="44.09496" lon="5.97304">
        <ele>679.2</ele>
        <time>2021-03-30T10:52:39.000Z</time>
      </trkpt>
      <trkpt lat="44.09496" lon="5.97304">
        <ele>679.2</ele>
        <time>2021-03-30T10:52:40.000Z</time>
      </trkpt>
      <trkpt lat="44.09496" lon="5.97304">
        <ele>678.8</ele>
        <time>2021-03-30T10:52:42.000Z</time>
      </trkpt>
      <trkpt lat="44.09496" lon="5.97304">
        <ele>678.6</ele>
        <time>2021-03-30T10:52:43.000Z</time>
      </trkpt>
      <trkpt lat="44.09496" lon="5.97304">
        <ele>678.4</ele>
        <time>2021-03-30T10:52:44.000Z</time>
      </trkpt>
      <trkpt lat="44.09496" lon="5.97304">
        <ele>678.4</ele>
        <time>2021-03-30T10:52:46.000Z</time>
      </trkpt>
      <trkpt lat="44.09496" lon="5.97304">
        <ele>678.4</ele>
        <time>2021-03-30T10:52:47.000Z</time>
      </trkpt>
      <trkpt lat="44.09496" lon="5.97304">
        <ele>678.6</ele>
        <time>2021-03-30T10:52:49.000Z</time>
      </trkpt>
      <trkpt lat="44.09496" lon="5.97304">
        <ele>678.6</ele>
        <time>2021-03-30T10:52:50.000Z</time>
      </trkpt>
      <trkpt lat="44.09496" lon="5.97304">
        <ele>678.6</ele>
        <time>2021-03-30T10:52:51.000Z</time>
      </trkpt>
      <trkpt lat="44.09496" lon="5.97304">
        <ele>678.8</ele>
        <time>2021-03-30T10:52:53.000Z</time>
      </trkpt>
      <trkpt lat="44.09496" lon="5.97304">
        <ele>678.8</ele>
        <time>2021-03-30T10:52:54.000Z</time>
      </trkpt>
      <trkpt lat="44.09496" lon="5.97304">
        <ele>679</ele>
        <time>2021-03-30T10:52:55.000Z</time>
      </trkpt>
      <trkpt lat="44.09496" lon="5.97304">
        <ele>679</ele>
        <time>2021-03-30T10:52:57.000Z</time>
      </trkpt>
      <trkpt lat="44.09496" lon="5.97304">
        <ele>679</ele>
        <time>2021-03-30T10:52:58.000Z</time>
      </trkpt>
      <trkpt lat="44.09496" lon="5.97304">
        <ele>678.8</ele>
        <time>2021-03-30T10:53:00.000Z</time>
      </trkpt>
      <trkpt lat="44.09496" lon="5.97304">
        <ele>679</ele>
        <time>2021-03-30T10:53:01.000Z</time>
      </trkpt>
      <trkpt lat="44.09496" lon="5.97304">
        <ele>679</ele>
        <time>2021-03-30T10:53:02.000Z</time>
      </trkpt>
      <trkpt lat="44.09496" lon="5.97304">
        <ele>679.2</ele>
        <time>2021-03-30T10:53:04.000Z</time>
      </trkpt>
      <trkpt lat="44.09496" lon="5.97304">
        <ele>679.2</ele>
        <time>2021-03-30T10:53:05.000Z</time>
      </trkpt>
      <trkpt lat="44.09496" lon="5.97304">
        <ele>679</ele>
        <time>2021-03-30T10:53:06.000Z</time>
      </trkpt>
      <trkpt lat="44.09496" lon="5.97304">
        <ele>678.8</ele>
        <time>2021-03-30T10:53:08.000Z</time>
      </trkpt>
      <trkpt lat="44.09496" lon="5.97304">
        <ele>678.8</ele>
        <time>2021-03-30T10:53:09.000Z</time>
      </trkpt>
      <trkpt lat="44.09496" lon="5.97304">
        <ele>679</ele>
        <time>2021-03-30T10:53:11.000Z</time>
      </trkpt>
      <trkpt lat="44.09496" lon="5.97304">
        <ele>679</ele>
        <time>2021-03-30T10:53:12.000Z</time>
      </trkpt>
      <trkpt lat="44.09496" lon="5.97304">
        <ele>679</ele>
        <time>2021-03-30T10:53:13.000Z</time>
      </trkpt>
      <trkpt lat="44.09496" lon="5.97304">
        <ele>679</ele>
        <time>2021-03-30T10:53:15.000Z</time>
      </trkpt>
      <trkpt lat="44.09496" lon="5.97304">
        <ele>679</ele>
        <time>2021-03-30T10:53:16.000Z</time>
      </trkpt>
      <trkpt lat="44.09496" lon="5.97304">
        <ele>678.8</ele>
        <time>2021-03-30T10:53:17.000Z</time>
      </trkpt>
      <trkpt lat="44.09496" lon="5.97304">
        <ele>678.2</ele>
        <time>2021-03-30T10:53:19.000Z</time>
      </trkpt>
      <trkpt lat="44.09496" lon="5.97304">
        <ele>678</ele>
        <time>2021-03-30T10:53:20.000Z</time>
      </trkpt>
      <trkpt lat="44.09496" lon="5.97304">
        <ele>677.8</ele>
        <time>2021-03-30T10:53:21.000Z</time>
      </trkpt>
      <trkpt lat="44.09496" lon="5.97304">
        <ele>677.4</ele>
        <time>2021-03-30T10:53:23.000Z</time>
      </trkpt>
      <trkpt lat="44.09496" lon="5.97304">
        <ele>677.2</ele>
        <time>2021-03-30T10:53:24.000Z</time>
      </trkpt>
      <trkpt lat="44.09496" lon="5.97304">
        <ele>676.6</ele>
        <time>2021-03-30T10:53:26.000Z</time>
      </trkpt>
      <trkpt lat="44.09496" lon="5.97304">
        <ele>676.4</ele>
        <time>2021-03-30T10:53:27.000Z</time>
      </trkpt>
      <trkpt lat="44.09496" lon="5.97304">
        <ele>676</ele>
        <time>2021-03-30T10:53:28.000Z</time>
      </trkpt>
      <trkpt lat="44.09496" lon="5.97304">
        <ele>675.4</ele>
        <time>2021-03-30T10:53:30.000Z</time>
      </trkpt>
      <trkpt lat="44.09496" lon="5.97304">
        <ele>675</ele>
        <time>2021-03-30T10:53:31.000Z</time>
      </trkpt>
      <trkpt lat="44.09496" lon="5.97304">
        <ele>674.8</ele>
        <time>2021-03-30T10:53:32.000Z</time>
      </trkpt>
      <trkpt lat="44.09496" lon="5.97304">
        <ele>674.6</ele>
        <time>2021-03-30T10:53:34.000Z</time>
      </trkpt>
      <trkpt lat="44.09496" lon="5.97304">
        <ele>674.4</ele>
        <time>2021-03-30T10:53:35.000Z</time>
      </trkpt>
      <trkpt lat="44.09497" lon="5.97304">
        <ele>674</ele>
        <time>2021-03-30T10:53:37.000Z</time>
      </trkpt>
      <trkpt lat="44.09499" lon="5.97305">
        <ele>673.6</ele>
        <time>2021-03-30T10:53:38.000Z</time>
      </trkpt>
      <trkpt lat="44.095" lon="5.97305">
        <ele>673.2</ele>
        <time>2021-03-30T10:53:39.000Z</time>
      </trkpt>
      <trkpt lat="44.09504" lon="5.97308">
        <ele>672.6</ele>
        <time>2021-03-30T10:53:41.000Z</time>
      </trkpt>
      <trkpt lat="44.09506" lon="5.97309">
        <ele>672.4</ele>
        <time>2021-03-30T10:53:42.000Z</time>
      </trkpt>
      <trkpt lat="44.09507" lon="5.97311">
        <ele>672</ele>
        <time>2021-03-30T10:53:43.000Z</time>
      </trkpt>
      <trkpt lat="44.09511" lon="5.97315">
        <ele>671.4</ele>
        <time>2021-03-30T10:53:45.000Z</time>
      </trkpt>
      <trkpt lat="44.09514" lon="5.97318">
        <ele>671.2</ele>
        <time>2021-03-30T10:53:46.000Z</time>
      </trkpt>
      <trkpt lat="44.09518" lon="5.97322">
        <ele>670.8</ele>
        <time>2021-03-30T10:53:48.000Z</time>
      </trkpt>
      <trkpt lat="44.09521" lon="5.97323">
        <ele>670.6</ele>
        <time>2021-03-30T10:53:49.000Z</time>
      </trkpt>
      <trkpt lat="44.09523" lon="5.97324">
        <ele>670.4</ele>
        <time>2021-03-30T10:53:50.000Z</time>
      </trkpt>
      <trkpt lat="44.09528" lon="5.97326">
        <ele>670.2</ele>
        <time>2021-03-30T10:53:52.000Z</time>
      </trkpt>
      <trkpt lat="44.09529" lon="5.97326">
        <ele>670</ele>
        <time>2021-03-30T10:53:53.000Z</time>
      </trkpt>
      <trkpt lat="44.09531" lon="5.97328">
        <ele>670</ele>
        <time>2021-03-30T10:53:54.000Z</time>
      </trkpt>
      <trkpt lat="44.09536" lon="5.97332">
        <ele>669.6</ele>
        <time>2021-03-30T10:53:56.000Z</time>
      </trkpt>
      <trkpt lat="44.09539" lon="5.97334">
        <ele>669.4</ele>
        <time>2021-03-30T10:53:57.000Z</time>
      </trkpt>
      <trkpt lat="44.09543" lon="5.97335">
        <ele>669.2</ele>
        <time>2021-03-30T10:53:58.000Z</time>
      </trkpt>
      <trkpt lat="44.09549" lon="5.97337">
        <ele>668.8</ele>
        <time>2021-03-30T10:54:00.000Z</time>
      </trkpt>
      <trkpt lat="44.09554" lon="5.97338">
        <ele>668.6</ele>
        <time>2021-03-30T10:54:01.000Z</time>
      </trkpt>
      <trkpt lat="44.09562" lon="5.97342">
        <ele>668.4</ele>
        <time>2021-03-30T10:54:03.000Z</time>
      </trkpt>
      <trkpt lat="44.09564" lon="5.97346">
        <ele>668.2</ele>
        <time>2021-03-30T10:54:04.000Z</time>
      </trkpt>
      <trkpt lat="44.09565" lon="5.97349">
        <ele>668</ele>
        <time>2021-03-30T10:54:05.000Z</time>
      </trkpt>
      <trkpt lat="44.09569" lon="5.97353">
        <ele>667.6</ele>
        <time>2021-03-30T10:54:07.000Z</time>
      </trkpt>
      <trkpt lat="44.09571" lon="5.97356">
        <ele>667.4</ele>
        <time>2021-03-30T10:54:08.000Z</time>
      </trkpt>
      <trkpt lat="44.09574" lon="5.97358">
        <ele>667.2</ele>
        <time>2021-03-30T10:54:09.000Z</time>
      </trkpt>
      <trkpt lat="44.09578" lon="5.97362">
        <ele>666.8</ele>
        <time>2021-03-30T10:54:11.000Z</time>
      </trkpt>
      <trkpt lat="44.0958" lon="5.97364">
        <ele>666.6</ele>
        <time>2021-03-30T10:54:12.000Z</time>
      </trkpt>
      <trkpt lat="44.09582" lon="5.9737">
        <ele>666.4</ele>
        <time>2021-03-30T10:54:14.000Z</time>
      </trkpt>
      <trkpt lat="44.09583" lon="5.97372">
        <ele>666.4</ele>
        <time>2021-03-30T10:54:15.000Z</time>
      </trkpt>
      <trkpt lat="44.09584" lon="5.97375">
        <ele>666.2</ele>
        <time>2021-03-30T10:54:16.000Z</time>
      </trkpt>
      <trkpt lat="44.09584" lon="5.97379">
        <ele>666.2</ele>
        <time>2021-03-30T10:54:18.000Z</time>
      </trkpt>
      <trkpt lat="44.09583" lon="5.97382">
        <ele>666</ele>
        <time>2021-03-30T10:54:19.000Z</time>
      </trkpt>
      <trkpt lat="44.09582" lon="5.97384">
        <ele>666</ele>
        <time>2021-03-30T10:54:20.000Z</time>
      </trkpt>
      <trkpt lat="44.09578" lon="5.97387">
        <ele>666</ele>
        <time>2021-03-30T10:54:22.000Z</time>
      </trkpt>
      <trkpt lat="44.09577" lon="5.97388">
        <ele>665.8</ele>
        <time>2021-03-30T10:54:23.000Z</time>
      </trkpt>
      <trkpt lat="44.09577" lon="5.9739">
        <ele>665.6</ele>
        <time>2021-03-30T10:54:25.000Z</time>
      </trkpt>
      <trkpt lat="44.09577" lon="5.9739">
        <ele>665.4</ele>
        <time>2021-03-30T10:54:26.000Z</time>
      </trkpt>
      <trkpt lat="44.09577" lon="5.9739">
        <ele>665.2</ele>
        <time>2021-03-30T10:54:27.000Z</time>
      </trkpt>
      <trkpt lat="44.09576" lon="5.97392">
        <ele>664.8</ele>
        <time>2021-03-30T10:54:29.000Z</time>
      </trkpt>
      <trkpt lat="44.09576" lon="5.97394">
        <ele>664.6</ele>
        <time>2021-03-30T10:54:30.000Z</time>
      </trkpt>
      <trkpt lat="44.09575" lon="5.97397">
        <ele>664.2</ele>
        <time>2021-03-30T10:54:31.000Z</time>
      </trkpt>
      <trkpt lat="44.09573" lon="5.97404">
        <ele>663.6</ele>
        <time>2021-03-30T10:54:33.000Z</time>
      </trkpt>
      <trkpt lat="44.09573" lon="5.97408">
        <ele>663.4</ele>
        <time>2021-03-30T10:54:34.000Z</time>
      </trkpt>
      <trkpt lat="44.09572" lon="5.97411">
        <ele>663</ele>
        <time>2021-03-30T10:54:35.000Z</time>
      </trkpt>
      <trkpt lat="44.09569" lon="5.97415">
        <ele>662.2</ele>
        <time>2021-03-30T10:54:37.000Z</time>
      </trkpt>
      <trkpt lat="44.09567" lon="5.97418">
        <ele>661.8</ele>
        <time>2021-03-30T10:54:38.000Z</time>
      </trkpt>
      <trkpt lat="44.09565" lon="5.97426">
        <ele>661.2</ele>
        <time>2021-03-30T10:54:40.000Z</time>
      </trkpt>
      <trkpt lat="44.09564" lon="5.9743">
        <ele>660.8</ele>
        <time>2021-03-30T10:54:41.000Z</time>
      </trkpt>
      <trkpt lat="44.09562" lon="5.97432">
        <ele>660.4</ele>
        <time>2021-03-30T10:54:42.000Z</time>
      </trkpt>
      <trkpt lat="44.09559" lon="5.97437">
        <ele>659.8</ele>
        <time>2021-03-30T10:54:44.000Z</time>
      </trkpt>
      <trkpt lat="44.09558" lon="5.9744">
        <ele>659.4</ele>
        <time>2021-03-30T10:54:45.000Z</time>
      </trkpt>
      <trkpt lat="44.09557" lon="5.97443">
        <ele>659.2</ele>
        <time>2021-03-30T10:54:46.000Z</time>
      </trkpt>
      <trkpt lat="44.09552" lon="5.97452">
        <ele>658.6</ele>
        <time>2021-03-30T10:54:48.000Z</time>
      </trkpt>
      <trkpt lat="44.0955" lon="5.97457">
        <ele>658.2</ele>
        <time>2021-03-30T10:54:49.000Z</time>
      </trkpt>
      <trkpt lat="44.09546" lon="5.97467">
        <ele>657.6</ele>
        <time>2021-03-30T10:54:51.000Z</time>
      </trkpt>
      <trkpt lat="44.09543" lon="5.97472">
        <ele>657.2</ele>
        <time>2021-03-30T10:54:52.000Z</time>
      </trkpt>
      <trkpt lat="44.09542" lon="5.97476">
        <ele>656.8</ele>
        <time>2021-03-30T10:54:53.000Z</time>
      </trkpt>
      <trkpt lat="44.09537" lon="5.97483">
        <ele>656</ele>
        <time>2021-03-30T10:54:55.000Z</time>
      </trkpt>
      <trkpt lat="44.09536" lon="5.97486">
        <ele>655.6</ele>
        <time>2021-03-30T10:54:56.000Z</time>
      </trkpt>
      <trkpt lat="44.09535" lon="5.9749">
        <ele>655.2</ele>
        <time>2021-03-30T10:54:57.000Z</time>
      </trkpt>
      <trkpt lat="44.09532" lon="5.97499">
        <ele>654.6</ele>
        <time>2021-03-30T10:54:59.000Z</time>
      </trkpt>
      <trkpt lat="44.0953" lon="5.97503">
        <ele>654.2</ele>
        <time>2021-03-30T10:55:00.000Z</time>
      </trkpt>
      <trkpt lat="44.09527" lon="5.97512">
        <ele>653.6</ele>
        <time>2021-03-30T10:55:02.000Z</time>
      </trkpt>
      <trkpt lat="44.09526" lon="5.97517">
        <ele>653.2</ele>
        <time>2021-03-30T10:55:03.000Z</time>
      </trkpt>
      <trkpt lat="44.09524" lon="5.97521">
        <ele>652.8</ele>
        <time>2021-03-30T10:55:04.000Z</time>
      </trkpt>
      <trkpt lat="44.0952" lon="5.97527">
        <ele>652</ele>
        <time>2021-03-30T10:55:06.000Z</time>
      </trkpt>
      <trkpt lat="44.09517" lon="5.9753">
        <ele>651.8</ele>
        <time>2021-03-30T10:55:07.000Z</time>
      </trkpt>
      <trkpt lat="44.09515" lon="5.97533">
        <ele>651.4</ele>
        <time>2021-03-30T10:55:08.000Z</time>
      </trkpt>
      <trkpt lat="44.09511" lon="5.97542">
        <ele>650.6</ele>
        <time>2021-03-30T10:55:10.000Z</time>
      </trkpt>
      <trkpt lat="44.0951" lon="5.97547">
        <ele>650.2</ele>
        <time>2021-03-30T10:55:11.000Z</time>
      </trkpt>
      <trkpt lat="44.09506" lon="5.97558">
        <ele>649.6</ele>
        <time>2021-03-30T10:55:13.000Z</time>
      </trkpt>
      <trkpt lat="44.09505" lon="5.97564">
        <ele>649.2</ele>
        <time>2021-03-30T10:55:14.000Z</time>
      </trkpt>
      <trkpt lat="44.09503" lon="5.97569">
        <ele>648.8</ele>
        <time>2021-03-30T10:55:15.000Z</time>
      </trkpt>
      <trkpt lat="44.095" lon="5.9758">
        <ele>648</ele>
        <time>2021-03-30T10:55:17.000Z</time>
      </trkpt>
      <trkpt lat="44.09498" lon="5.97585">
        <ele>647.4</ele>
        <time>2021-03-30T10:55:18.000Z</time>
      </trkpt>
      <trkpt lat="44.09496" lon="5.9759">
        <ele>647</ele>
        <time>2021-03-30T10:55:19.000Z</time>
      </trkpt>
      <trkpt lat="44.09489" lon="5.976">
        <ele>645.8</ele>
        <time>2021-03-30T10:55:21.000Z</time>
      </trkpt>
      <trkpt lat="44.09486" lon="5.97605">
        <ele>645.2</ele>
        <time>2021-03-30T10:55:22.000Z</time>
      </trkpt>
      <trkpt lat="44.09483" lon="5.9761">
        <ele>644.6</ele>
        <time>2021-03-30T10:55:23.000Z</time>
      </trkpt>
      <trkpt lat="44.09476" lon="5.97619">
        <ele>643.2</ele>
        <time>2021-03-30T10:55:25.000Z</time>
      </trkpt>
      <trkpt lat="44.09473" lon="5.97623">
        <ele>642.6</ele>
        <time>2021-03-30T10:55:26.000Z</time>
      </trkpt>
      <trkpt lat="44.0947" lon="5.9763">
        <ele>641.6</ele>
        <time>2021-03-30T10:55:28.000Z</time>
      </trkpt>
      <trkpt lat="44.09469" lon="5.97632">
        <ele>641</ele>
        <time>2021-03-30T10:55:29.000Z</time>
      </trkpt>
      <trkpt lat="44.09467" lon="5.97635">
        <ele>640.6</ele>
        <time>2021-03-30T10:55:30.000Z</time>
      </trkpt>
      <trkpt lat="44.09462" lon="5.97637">
        <ele>639.6</ele>
        <time>2021-03-30T10:55:32.000Z</time>
      </trkpt>
      <trkpt lat="44.0946" lon="5.97638">
        <ele>639.2</ele>
        <time>2021-03-30T10:55:33.000Z</time>
      </trkpt>
      <trkpt lat="44.09458" lon="5.97641">
        <ele>638.8</ele>
        <time>2021-03-30T10:55:34.000Z</time>
      </trkpt>
      <trkpt lat="44.09454" lon="5.97646">
        <ele>637.6</ele>
        <time>2021-03-30T10:55:36.000Z</time>
      </trkpt>
      <trkpt lat="44.09451" lon="5.97649">
        <ele>637.2</ele>
        <time>2021-03-30T10:55:37.000Z</time>
      </trkpt>
      <trkpt lat="44.09444" lon="5.97655">
        <ele>636</ele>
        <time>2021-03-30T10:55:39.000Z</time>
      </trkpt>
      <trkpt lat="44.09441" lon="5.97658">
        <ele>635.4</ele>
        <time>2021-03-30T10:55:40.000Z</time>
      </trkpt>
      <trkpt lat="44.09438" lon="5.97661">
        <ele>634.8</ele>
        <time>2021-03-30T10:55:41.000Z</time>
      </trkpt>
      <trkpt lat="44.09433" lon="5.97666">
        <ele>633.8</ele>
        <time>2021-03-30T10:55:43.000Z</time>
      </trkpt>
      <trkpt lat="44.09429" lon="5.97667">
        <ele>633.4</ele>
        <time>2021-03-30T10:55:44.000Z</time>
      </trkpt>
      <trkpt lat="44.09426" lon="5.9767">
        <ele>632.8</ele>
        <time>2021-03-30T10:55:45.000Z</time>
      </trkpt>
      <trkpt lat="44.09421" lon="5.97674">
        <ele>631.6</ele>
        <time>2021-03-30T10:55:47.000Z</time>
      </trkpt>
      <trkpt lat="44.09417" lon="5.97676">
        <ele>631.2</ele>
        <time>2021-03-30T10:55:48.000Z</time>
      </trkpt>
      <trkpt lat="44.09409" lon="5.97678">
        <ele>630</ele>
        <time>2021-03-30T10:55:50.000Z</time>
      </trkpt>
      <trkpt lat="44.09406" lon="5.97679">
        <ele>629.6</ele>
        <time>2021-03-30T10:55:51.000Z</time>
      </trkpt>
      <trkpt lat="44.09405" lon="5.9768">
        <ele>629</ele>
        <time>2021-03-30T10:55:52.000Z</time>
      </trkpt>
      <trkpt lat="44.09404" lon="5.9768">
        <ele>628</ele>
        <time>2021-03-30T10:55:54.000Z</time>
      </trkpt>
      <trkpt lat="44.09404" lon="5.9768">
        <ele>627.6</ele>
        <time>2021-03-30T10:55:55.000Z</time>
      </trkpt>
      <trkpt lat="44.09404" lon="5.9768">
        <ele>627.2</ele>
        <time>2021-03-30T10:55:56.000Z</time>
      </trkpt>
      <trkpt lat="44.09403" lon="5.97681">
        <ele>626.2</ele>
        <time>2021-03-30T10:55:58.000Z</time>
      </trkpt>
      <trkpt lat="44.09402" lon="5.97683">
        <ele>625.8</ele>
        <time>2021-03-30T10:55:59.000Z</time>
      </trkpt>
      <trkpt lat="44.094" lon="5.97685">
        <ele>625.4</ele>
        <time>2021-03-30T10:56:00.000Z</time>
      </trkpt>
      <trkpt lat="44.09399" lon="5.97688">
        <ele>624.2</ele>
        <time>2021-03-30T10:56:02.000Z</time>
      </trkpt>
      <trkpt lat="44.09399" lon="5.97689">
        <ele>623.8</ele>
        <time>2021-03-30T10:56:03.000Z</time>
      </trkpt>
      <trkpt lat="44.09396" lon="5.97695">
        <ele>622.6</ele>
        <time>2021-03-30T10:56:05.000Z</time>
      </trkpt>
      <trkpt lat="44.09395" lon="5.97698">
        <ele>622.2</ele>
        <time>2021-03-30T10:56:06.000Z</time>
      </trkpt>
      <trkpt lat="44.09392" lon="5.977">
        <ele>621.8</ele>
        <time>2021-03-30T10:56:07.000Z</time>
      </trkpt>
      <trkpt lat="44.09386" lon="5.97699">
        <ele>620.8</ele>
        <time>2021-03-30T10:56:09.000Z</time>
      </trkpt>
      <trkpt lat="44.09383" lon="5.97698">
        <ele>620.4</ele>
        <time>2021-03-30T10:56:10.000Z</time>
      </trkpt>
      <trkpt lat="44.0938" lon="5.97697">
        <ele>620</ele>
        <time>2021-03-30T10:56:11.000Z</time>
      </trkpt>
      <trkpt lat="44.09376" lon="5.97696">
        <ele>619.4</ele>
        <time>2021-03-30T10:56:13.000Z</time>
      </trkpt>
      <trkpt lat="44.09374" lon="5.97697">
        <ele>619.2</ele>
        <time>2021-03-30T10:56:14.000Z</time>
      </trkpt>
      <trkpt lat="44.09372" lon="5.97699">
        <ele>619</ele>
        <time>2021-03-30T10:56:16.000Z</time>
      </trkpt>
      <trkpt lat="44.0937" lon="5.97699">
        <ele>619</ele>
        <time>2021-03-30T10:56:17.000Z</time>
      </trkpt>
      <trkpt lat="44.09369" lon="5.97701">
        <ele>618.8</ele>
        <time>2021-03-30T10:56:18.000Z</time>
      </trkpt>
      <trkpt lat="44.09366" lon="5.97704">
        <ele>618.8</ele>
        <time>2021-03-30T10:56:20.000Z</time>
      </trkpt>
      <trkpt lat="44.09364" lon="5.97706">
        <ele>618.6</ele>
        <time>2021-03-30T10:56:21.000Z</time>
      </trkpt>
      <trkpt lat="44.09362" lon="5.97706">
        <ele>618.6</ele>
        <time>2021-03-30T10:56:22.000Z</time>
      </trkpt>
      <trkpt lat="44.09357" lon="5.97704">
        <ele>618.6</ele>
        <time>2021-03-30T10:56:24.000Z</time>
      </trkpt>
      <trkpt lat="44.09354" lon="5.97703">
        <ele>618.4</ele>
        <time>2021-03-30T10:56:25.000Z</time>
      </trkpt>
      <trkpt lat="44.09349" lon="5.97697">
        <ele>618.2</ele>
        <time>2021-03-30T10:56:27.000Z</time>
      </trkpt>
      <trkpt lat="44.09347" lon="5.97694">
        <ele>618</ele>
        <time>2021-03-30T10:56:28.000Z</time>
      </trkpt>
      <trkpt lat="44.09345" lon="5.97693">
        <ele>617.8</ele>
        <time>2021-03-30T10:56:29.000Z</time>
      </trkpt>
      <trkpt lat="44.09339" lon="5.9769">
        <ele>617.2</ele>
        <time>2021-03-30T10:56:31.000Z</time>
      </trkpt>
      <trkpt lat="44.09337" lon="5.97687">
        <ele>616.8</ele>
        <time>2021-03-30T10:56:32.000Z</time>
      </trkpt>
      <trkpt lat="44.09336" lon="5.97684">
        <ele>616.6</ele>
        <time>2021-03-30T10:56:33.000Z</time>
      </trkpt>
      <trkpt lat="44.09336" lon="5.97675">
        <ele>616</ele>
        <time>2021-03-30T10:56:35.000Z</time>
      </trkpt>
      <trkpt lat="44.09337" lon="5.97671">
        <ele>615.6</ele>
        <time>2021-03-30T10:56:36.000Z</time>
      </trkpt>
      <trkpt lat="44.09337" lon="5.97666">
        <ele>615.4</ele>
        <time>2021-03-30T10:56:37.000Z</time>
      </trkpt>
      <trkpt lat="44.09337" lon="5.97659">
        <ele>615</ele>
        <time>2021-03-30T10:56:39.000Z</time>
      </trkpt>
      <trkpt lat="44.09336" lon="5.97656">
        <ele>614.6</ele>
        <time>2021-03-30T10:56:40.000Z</time>
      </trkpt>
      <trkpt lat="44.09332" lon="5.97653">
        <ele>614.4</ele>
        <time>2021-03-30T10:56:42.000Z</time>
      </trkpt>
      <trkpt lat="44.09329" lon="5.97653">
        <ele>614.4</ele>
        <time>2021-03-30T10:56:43.000Z</time>
      </trkpt>
      <trkpt lat="44.09326" lon="5.97654">
        <ele>614.4</ele>
        <time>2021-03-30T10:56:44.000Z</time>
      </trkpt>
      <trkpt lat="44.0932" lon="5.97657">
        <ele>614.4</ele>
        <time>2021-03-30T10:56:46.000Z</time>
      </trkpt>
      <trkpt lat="44.09317" lon="5.97658">
        <ele>614.4</ele>
        <time>2021-03-30T10:56:47.000Z</time>
      </trkpt>
      <trkpt lat="44.09314" lon="5.97658">
        <ele>614.4</ele>
        <time>2021-03-30T10:56:48.000Z</time>
      </trkpt>
      <trkpt lat="44.09309" lon="5.9766">
        <ele>614.6</ele>
        <time>2021-03-30T10:56:50.000Z</time>
      </trkpt>
      <trkpt lat="44.09306" lon="5.97661">
        <ele>614.6</ele>
        <time>2021-03-30T10:56:51.000Z</time>
      </trkpt>
      <trkpt lat="44.09301" lon="5.97661">
        <ele>614.8</ele>
        <time>2021-03-30T10:56:53.000Z</time>
      </trkpt>
      <trkpt lat="44.09299" lon="5.97659">
        <ele>614.8</ele>
        <time>2021-03-30T10:56:54.000Z</time>
      </trkpt>
      <trkpt lat="44.09296" lon="5.97657">
        <ele>615</ele>
        <time>2021-03-30T10:56:55.000Z</time>
      </trkpt>
      <trkpt lat="44.09291" lon="5.97652">
        <ele>614.8</ele>
        <time>2021-03-30T10:56:57.000Z</time>
      </trkpt>
      <trkpt lat="44.09288" lon="5.97652">
        <ele>614.8</ele>
        <time>2021-03-30T10:56:58.000Z</time>
      </trkpt>
      <trkpt lat="44.09286" lon="5.97653">
        <ele>614.8</ele>
        <time>2021-03-30T10:56:59.000Z</time>
      </trkpt>
      <trkpt lat="44.09281" lon="5.97658">
        <ele>614.6</ele>
        <time>2021-03-30T10:57:01.000Z</time>
      </trkpt>
      <trkpt lat="44.09277" lon="5.97661">
        <ele>614.4</ele>
        <time>2021-03-30T10:57:02.000Z</time>
      </trkpt>
      <trkpt lat="44.0927" lon="5.97662">
        <ele>614.2</ele>
        <time>2021-03-30T10:57:04.000Z</time>
      </trkpt>
      <trkpt lat="44.09266" lon="5.97661">
        <ele>614</ele>
        <time>2021-03-30T10:57:05.000Z</time>
      </trkpt>
      <trkpt lat="44.09263" lon="5.97659">
        <ele>614</ele>
        <time>2021-03-30T10:57:06.000Z</time>
      </trkpt>
      <trkpt lat="44.09257" lon="5.97654">
        <ele>613.8</ele>
        <time>2021-03-30T10:57:08.000Z</time>
      </trkpt>
      <trkpt lat="44.09254" lon="5.97652">
        <ele>613.8</ele>
        <time>2021-03-30T10:57:09.000Z</time>
      </trkpt>
      <trkpt lat="44.09251" lon="5.97649">
        <ele>613.6</ele>
        <time>2021-03-30T10:57:10.000Z</time>
      </trkpt>
      <trkpt lat="44.09244" lon="5.97645">
        <ele>613.6</ele>
        <time>2021-03-30T10:57:12.000Z</time>
      </trkpt>
      <trkpt lat="44.09241" lon="5.97643">
        <ele>613.4</ele>
        <time>2021-03-30T10:57:13.000Z</time>
      </trkpt>
      <trkpt lat="44.09235" lon="5.97642">
        <ele>613.6</ele>
        <time>2021-03-30T10:57:15.000Z</time>
      </trkpt>
      <trkpt lat="44.09233" lon="5.97641">
        <ele>613.8</ele>
        <time>2021-03-30T10:57:16.000Z</time>
      </trkpt>
      <trkpt lat="44.09232" lon="5.97642">
        <ele>614</ele>
        <time>2021-03-30T10:57:17.000Z</time>
      </trkpt>
      <trkpt lat="44.09228" lon="5.97643">
        <ele>614.2</ele>
        <time>2021-03-30T10:57:19.000Z</time>
      </trkpt>
      <trkpt lat="44.09226" lon="5.97645">
        <ele>614.4</ele>
        <time>2021-03-30T10:57:20.000Z</time>
      </trkpt>
      <trkpt lat="44.09224" lon="5.97646">
        <ele>614.4</ele>
        <time>2021-03-30T10:57:21.000Z</time>
      </trkpt>
      <trkpt lat="44.09218" lon="5.97646">
        <ele>614.8</ele>
        <time>2021-03-30T10:57:23.000Z</time>
      </trkpt>
      <trkpt lat="44.09216" lon="5.97644">
        <ele>615</ele>
        <time>2021-03-30T10:57:24.000Z</time>
      </trkpt>
      <trkpt lat="44.09214" lon="5.97643">
        <ele>615.4</ele>
        <time>2021-03-30T10:57:25.000Z</time>
      </trkpt>
      <trkpt lat="44.09211" lon="5.97642">
        <ele>615.8</ele>
        <time>2021-03-30T10:57:27.000Z</time>
      </trkpt>
      <trkpt lat="44.09209" lon="5.97642">
        <ele>616.2</ele>
        <time>2021-03-30T10:57:28.000Z</time>
      </trkpt>
      <trkpt lat="44.09203" lon="5.97643">
        <ele>616.4</ele>
        <time>2021-03-30T10:57:30.000Z</time>
      </trkpt>
      <trkpt lat="44.092" lon="5.97643">
        <ele>616.4</ele>
        <time>2021-03-30T10:57:31.000Z</time>
      </trkpt>
      <trkpt lat="44.09197" lon="5.97642">
        <ele>616.6</ele>
        <time>2021-03-30T10:57:32.000Z</time>
      </trkpt>
      <trkpt lat="44.09192" lon="5.97642">
        <ele>617</ele>
        <time>2021-03-30T10:57:34.000Z</time>
      </trkpt>
      <trkpt lat="44.0919" lon="5.97642">
        <ele>617</ele>
        <time>2021-03-30T10:57:35.000Z</time>
      </trkpt>
      <trkpt lat="44.09187" lon="5.97644">
        <ele>617.2</ele>
        <time>2021-03-30T10:57:36.000Z</time>
      </trkpt>
      <trkpt lat="44.09181" lon="5.97641">
        <ele>617.4</ele>
        <time>2021-03-30T10:57:38.000Z</time>
      </trkpt>
      <trkpt lat="44.09179" lon="5.9764">
        <ele>617.6</ele>
        <time>2021-03-30T10:57:39.000Z</time>
      </trkpt>
      <trkpt lat="44.09174" lon="5.97636">
        <ele>617.8</ele>
        <time>2021-03-30T10:57:41.000Z</time>
      </trkpt>
      <trkpt lat="44.09171" lon="5.97634">
        <ele>617.8</ele>
        <time>2021-03-30T10:57:42.000Z</time>
      </trkpt>
      <trkpt lat="44.0917" lon="5.97631">
        <ele>618</ele>
        <time>2021-03-30T10:57:43.000Z</time>
      </trkpt>
      <trkpt lat="44.0917" lon="5.97625">
        <ele>618.2</ele>
        <time>2021-03-30T10:57:45.000Z</time>
      </trkpt>
      <trkpt lat="44.09171" lon="5.97622">
        <ele>618.2</ele>
        <time>2021-03-30T10:57:46.000Z</time>
      </trkpt>
      <trkpt lat="44.09172" lon="5.97619">
        <ele>618.4</ele>
        <time>2021-03-30T10:57:47.000Z</time>
      </trkpt>
      <trkpt lat="44.09172" lon="5.97613">
        <ele>618.8</ele>
        <time>2021-03-30T10:57:49.000Z</time>
      </trkpt>
      <trkpt lat="44.09171" lon="5.97609">
        <ele>619</ele>
        <time>2021-03-30T10:57:50.000Z</time>
      </trkpt>
      <trkpt lat="44.09173" lon="5.97604">
        <ele>619.2</ele>
        <time>2021-03-30T10:57:52.000Z</time>
      </trkpt>
      <trkpt lat="44.09175" lon="5.97601">
        <ele>619.4</ele>
        <time>2021-03-30T10:57:53.000Z</time>
      </trkpt>
      <trkpt lat="44.09176" lon="5.97599">
        <ele>619.4</ele>
        <time>2021-03-30T10:57:54.000Z</time>
      </trkpt>
      <trkpt lat="44.09179" lon="5.97594">
        <ele>619.8</ele>
        <time>2021-03-30T10:57:56.000Z</time>
      </trkpt>
      <trkpt lat="44.0918" lon="5.9759">
        <ele>619.8</ele>
        <time>2021-03-30T10:57:57.000Z</time>
      </trkpt>
      <trkpt lat="44.09179" lon="5.97587">
        <ele>620</ele>
        <time>2021-03-30T10:57:58.000Z</time>
      </trkpt>
      <trkpt lat="44.09175" lon="5.97582">
        <ele>620</ele>
        <time>2021-03-30T10:58:00.000Z</time>
      </trkpt>
      <trkpt lat="44.09173" lon="5.97579">
        <ele>620</ele>
        <time>2021-03-30T10:58:01.000Z</time>
      </trkpt>
      <trkpt lat="44.09171" lon="5.97576">
        <ele>620</ele>
        <time>2021-03-30T10:58:02.000Z</time>
      </trkpt>
      <trkpt lat="44.09167" lon="5.97575">
        <ele>620</ele>
        <time>2021-03-30T10:58:04.000Z</time>
      </trkpt>
      <trkpt lat="44.09164" lon="5.97574">
        <ele>619.8</ele>
        <time>2021-03-30T10:58:05.000Z</time>
      </trkpt>
      <trkpt lat="44.09158" lon="5.9757">
        <ele>619.8</ele>
        <time>2021-03-30T10:58:07.000Z</time>
      </trkpt>
      <trkpt lat="44.09156" lon="5.97567">
        <ele>619.8</ele>
        <time>2021-03-30T10:58:08.000Z</time>
      </trkpt>
      <trkpt lat="44.09154" lon="5.97565">
        <ele>619.6</ele>
        <time>2021-03-30T10:58:09.000Z</time>
      </trkpt>
      <trkpt lat="44.09148" lon="5.97562">
        <ele>619.4</ele>
        <time>2021-03-30T10:58:11.000Z</time>
      </trkpt>
      <trkpt lat="44.09146" lon="5.9756">
        <ele>619.2</ele>
        <time>2021-03-30T10:58:12.000Z</time>
      </trkpt>
      <trkpt lat="44.09143" lon="5.97557">
        <ele>619</ele>
        <time>2021-03-30T10:58:13.000Z</time>
      </trkpt>
      <trkpt lat="44.09135" lon="5.97554">
        <ele>618.8</ele>
        <time>2021-03-30T10:58:15.000Z</time>
      </trkpt>
      <trkpt lat="44.09132" lon="5.97555">
        <ele>618.8</ele>
        <time>2021-03-30T10:58:16.000Z</time>
      </trkpt>
      <trkpt lat="44.09124" lon="5.97558">
        <ele>618.6</ele>
        <time>2021-03-30T10:58:18.000Z</time>
      </trkpt>
      <trkpt lat="44.09121" lon="5.97559">
        <ele>618.6</ele>
        <time>2021-03-30T10:58:19.000Z</time>
      </trkpt>
      <trkpt lat="44.09117" lon="5.97559">
        <ele>618.6</ele>
        <time>2021-03-30T10:58:20.000Z</time>
      </trkpt>
      <trkpt lat="44.0911" lon="5.9756">
        <ele>618.4</ele>
        <time>2021-03-30T10:58:22.000Z</time>
      </trkpt>
      <trkpt lat="44.09106" lon="5.97562">
        <ele>618.2</ele>
        <time>2021-03-30T10:58:23.000Z</time>
      </trkpt>
      <trkpt lat="44.09102" lon="5.97564">
        <ele>618.2</ele>
        <time>2021-03-30T10:58:24.000Z</time>
      </trkpt>
      <trkpt lat="44.09094" lon="5.97564">
        <ele>618</ele>
        <time>2021-03-30T10:58:26.000Z</time>
      </trkpt>
      <trkpt lat="44.09091" lon="5.97563">
        <ele>618</ele>
        <time>2021-03-30T10:58:27.000Z</time>
      </trkpt>
      <trkpt lat="44.09085" lon="5.97562">
        <ele>618</ele>
        <time>2021-03-30T10:58:29.000Z</time>
      </trkpt>
      <trkpt lat="44.09081" lon="5.97561">
        <ele>618</ele>
        <time>2021-03-30T10:58:30.000Z</time>
      </trkpt>
      <trkpt lat="44.09078" lon="5.97559">
        <ele>618.2</ele>
        <time>2021-03-30T10:58:31.000Z</time>
      </trkpt>
      <trkpt lat="44.09074" lon="5.97555">
        <ele>618.2</ele>
        <time>2021-03-30T10:58:33.000Z</time>
      </trkpt>
      <trkpt lat="44.09071" lon="5.97553">
        <ele>618.2</ele>
        <time>2021-03-30T10:58:34.000Z</time>
      </trkpt>
      <trkpt lat="44.09068" lon="5.9755">
        <ele>618.2</ele>
        <time>2021-03-30T10:58:35.000Z</time>
      </trkpt>
      <trkpt lat="44.09061" lon="5.97547">
        <ele>618.4</ele>
        <time>2021-03-30T10:58:37.000Z</time>
      </trkpt>
      <trkpt lat="44.09058" lon="5.97545">
        <ele>618.4</ele>
        <time>2021-03-30T10:58:38.000Z</time>
      </trkpt>
      <trkpt lat="44.09054" lon="5.97543">
        <ele>618.4</ele>
        <time>2021-03-30T10:58:39.000Z</time>
      </trkpt>
      <trkpt lat="44.09048" lon="5.97538">
        <ele>618.6</ele>
        <time>2021-03-30T10:58:41.000Z</time>
      </trkpt>
      <trkpt lat="44.09045" lon="5.97536">
        <ele>618.8</ele>
        <time>2021-03-30T10:58:42.000Z</time>
      </trkpt>
      <trkpt lat="44.0904" lon="5.97535">
        <ele>619</ele>
        <time>2021-03-30T10:58:44.000Z</time>
      </trkpt>
      <trkpt lat="44.09037" lon="5.97535">
        <ele>619.2</ele>
        <time>2021-03-30T10:58:45.000Z</time>
      </trkpt>
      <trkpt lat="44.09033" lon="5.97534">
        <ele>619.2</ele>
        <time>2021-03-30T10:58:46.000Z</time>
      </trkpt>
      <trkpt lat="44.09024" lon="5.97533">
        <ele>619.4</ele>
        <time>2021-03-30T10:58:48.000Z</time>
      </trkpt>
      <trkpt lat="44.0902" lon="5.97532">
        <ele>619.4</ele>
        <time>2021-03-30T10:58:49.000Z</time>
      </trkpt>
      <trkpt lat="44.09016" lon="5.97531">
        <ele>619.6</ele>
        <time>2021-03-30T10:58:50.000Z</time>
      </trkpt>
      <trkpt lat="44.09008" lon="5.9753">
        <ele>619.8</ele>
        <time>2021-03-30T10:58:52.000Z</time>
      </trkpt>
      <trkpt lat="44.09005" lon="5.97528">
        <ele>619.8</ele>
        <time>2021-03-30T10:58:53.000Z</time>
      </trkpt>
      <trkpt lat="44.09" lon="5.97523">
        <ele>620</ele>
        <time>2021-03-30T10:58:55.000Z</time>
      </trkpt>
      <trkpt lat="44.08998" lon="5.97522">
        <ele>620</ele>
        <time>2021-03-30T10:58:56.000Z</time>
      </trkpt>
      <trkpt lat="44.08994" lon="5.97522">
        <ele>620.2</ele>
        <time>2021-03-30T10:58:57.000Z</time>
      </trkpt>
      <trkpt lat="44.08987" lon="5.97526">
        <ele>620.2</ele>
        <time>2021-03-30T10:58:59.000Z</time>
      </trkpt>
      <trkpt lat="44.08984" lon="5.9753">
        <ele>620.2</ele>
        <time>2021-03-30T10:59:00.000Z</time>
      </trkpt>
      <trkpt lat="44.08979" lon="5.97534">
        <ele>620.2</ele>
        <time>2021-03-30T10:59:01.000Z</time>
      </trkpt>
      <trkpt lat="44.08972" lon="5.97537">
        <ele>620</ele>
        <time>2021-03-30T10:59:03.000Z</time>
      </trkpt>
      <trkpt lat="44.08969" lon="5.97539">
        <ele>620</ele>
        <time>2021-03-30T10:59:04.000Z</time>
      </trkpt>
      <trkpt lat="44.08964" lon="5.97543">
        <ele>619.8</ele>
        <time>2021-03-30T10:59:06.000Z</time>
      </trkpt>
      <trkpt lat="44.08964" lon="5.97547">
        <ele>619.6</ele>
        <time>2021-03-30T10:59:07.000Z</time>
      </trkpt>
      <trkpt lat="44.08964" lon="5.97551">
        <ele>619.6</ele>
        <time>2021-03-30T10:59:08.000Z</time>
      </trkpt>
      <trkpt lat="44.08962" lon="5.97556">
        <ele>619.2</ele>
        <time>2021-03-30T10:59:10.000Z</time>
      </trkpt>
      <trkpt lat="44.0896" lon="5.97555">
        <ele>619.2</ele>
        <time>2021-03-30T10:59:11.000Z</time>
      </trkpt>
      <trkpt lat="44.08958" lon="5.97553">
        <ele>619</ele>
        <time>2021-03-30T10:59:12.000Z</time>
      </trkpt>
      <trkpt lat="44.08952" lon="5.97556">
        <ele>618.4</ele>
        <time>2021-03-30T10:59:14.000Z</time>
      </trkpt>
      <trkpt lat="44.08948" lon="5.97559">
        <ele>618.2</ele>
        <time>2021-03-30T10:59:15.000Z</time>
      </trkpt>
      <trkpt lat="44.08943" lon="5.97567">
        <ele>617.8</ele>
        <time>2021-03-30T10:59:17.000Z</time>
      </trkpt>
      <trkpt lat="44.0894" lon="5.97572">
        <ele>617.4</ele>
        <time>2021-03-30T10:59:18.000Z</time>
      </trkpt>
      <trkpt lat="44.08936" lon="5.97574">
        <ele>617.2</ele>
        <time>2021-03-30T10:59:19.000Z</time>
      </trkpt>
      <trkpt lat="44.08928" lon="5.97574">
        <ele>616.6</ele>
        <time>2021-03-30T10:59:21.000Z</time>
      </trkpt>
      <trkpt lat="44.08923" lon="5.97576">
        <ele>616.4</ele>
        <time>2021-03-30T10:59:22.000Z</time>
      </trkpt>
      <trkpt lat="44.0892" lon="5.97578">
        <ele>616.4</ele>
        <time>2021-03-30T10:59:23.000Z</time>
      </trkpt>
      <trkpt lat="44.0891" lon="5.97583">
        <ele>616</ele>
        <time>2021-03-30T10:59:25.000Z</time>
      </trkpt>
      <trkpt lat="44.08906" lon="5.97585">
        <ele>615.8</ele>
        <time>2021-03-30T10:59:26.000Z</time>
      </trkpt>
      <trkpt lat="44.08902" lon="5.97587">
        <ele>615.4</ele>
        <time>2021-03-30T10:59:27.000Z</time>
      </trkpt>
      <trkpt lat="44.08895" lon="5.97591">
        <ele>615</ele>
        <time>2021-03-30T10:59:29.000Z</time>
      </trkpt>
      <trkpt lat="44.08891" lon="5.97593">
        <ele>614.8</ele>
        <time>2021-03-30T10:59:30.000Z</time>
      </trkpt>
      <trkpt lat="44.08884" lon="5.97597">
        <ele>614.4</ele>
        <time>2021-03-30T10:59:32.000Z</time>
      </trkpt>
      <trkpt lat="44.0888" lon="5.976">
        <ele>614.2</ele>
        <time>2021-03-30T10:59:33.000Z</time>
      </trkpt>
      <trkpt lat="44.08876" lon="5.97601">
        <ele>614</ele>
        <time>2021-03-30T10:59:34.000Z</time>
      </trkpt>
      <trkpt lat="44.08867" lon="5.97605">
        <ele>613.6</ele>
        <time>2021-03-30T10:59:36.000Z</time>
      </trkpt>
      <trkpt lat="44.08863" lon="5.97606">
        <ele>613.4</ele>
        <time>2021-03-30T10:59:37.000Z</time>
      </trkpt>
      <trkpt lat="44.08859" lon="5.97607">
        <ele>613.2</ele>
        <time>2021-03-30T10:59:38.000Z</time>
      </trkpt>
      <trkpt lat="44.08851" lon="5.97613">
        <ele>612.6</ele>
        <time>2021-03-30T10:59:40.000Z</time>
      </trkpt>
      <trkpt lat="44.08847" lon="5.97615">
        <ele>612.4</ele>
        <time>2021-03-30T10:59:41.000Z</time>
      </trkpt>
      <trkpt lat="44.08841" lon="5.97619">
        <ele>612</ele>
        <time>2021-03-30T10:59:43.000Z</time>
      </trkpt>
      <trkpt lat="44.08838" lon="5.97622">
        <ele>611.8</ele>
        <time>2021-03-30T10:59:44.000Z</time>
      </trkpt>
      <trkpt lat="44.08836" lon="5.97623">
        <ele>611.8</ele>
        <time>2021-03-30T10:59:45.000Z</time>
      </trkpt>
      <trkpt lat="44.08831" lon="5.97627">
        <ele>611.6</ele>
        <time>2021-03-30T10:59:47.000Z</time>
      </trkpt>
      <trkpt lat="44.08827" lon="5.97629">
        <ele>611.4</ele>
        <time>2021-03-30T10:59:48.000Z</time>
      </trkpt>
      <trkpt lat="44.08823" lon="5.97631">
        <ele>611.4</ele>
        <time>2021-03-30T10:59:49.000Z</time>
      </trkpt>
      <trkpt lat="44.08814" lon="5.97633">
        <ele>611.2</ele>
        <time>2021-03-30T10:59:51.000Z</time>
      </trkpt>
      <trkpt lat="44.0881" lon="5.97634">
        <ele>611.2</ele>
        <time>2021-03-30T10:59:52.000Z</time>
      </trkpt>
      <trkpt lat="44.08803" lon="5.9764">
        <ele>611</ele>
        <time>2021-03-30T10:59:54.000Z</time>
      </trkpt>
      <trkpt lat="44.08799" lon="5.97644">
        <ele>610.8</ele>
        <time>2021-03-30T10:59:55.000Z</time>
      </trkpt>
      <trkpt lat="44.08794" lon="5.97649">
        <ele>610.6</ele>
        <time>2021-03-30T10:59:56.000Z</time>
      </trkpt>
      <trkpt lat="44.08787" lon="5.97658">
        <ele>610.4</ele>
        <time>2021-03-30T10:59:58.000Z</time>
      </trkpt>
      <trkpt lat="44.08785" lon="5.97663">
        <ele>610.2</ele>
        <time>2021-03-30T10:59:59.000Z</time>
      </trkpt>
      <trkpt lat="44.08783" lon="5.9767">
        <ele>610</ele>
        <time>2021-03-30T11:00:00.000Z</time>
      </trkpt>
      <trkpt lat="44.08778" lon="5.97685">
        <ele>609.6</ele>
        <time>2021-03-30T11:00:02.000Z</time>
      </trkpt>
      <trkpt lat="44.08776" lon="5.97692">
        <ele>609.6</ele>
        <time>2021-03-30T11:00:03.000Z</time>
      </trkpt>
      <trkpt lat="44.08777" lon="5.97701">
        <ele>609.4</ele>
        <time>2021-03-30T11:00:04.000Z</time>
      </trkpt>
      <trkpt lat="44.0878" lon="5.97714">
        <ele>609.2</ele>
        <time>2021-03-30T11:00:06.000Z</time>
      </trkpt>
      <trkpt lat="44.08783" lon="5.9772">
        <ele>609.2</ele>
        <time>2021-03-30T11:00:07.000Z</time>
      </trkpt>
      <trkpt lat="44.08788" lon="5.9773">
        <ele>609.2</ele>
        <time>2021-03-30T11:00:09.000Z</time>
      </trkpt>
      <trkpt lat="44.08791" lon="5.97734">
        <ele>609.2</ele>
        <time>2021-03-30T11:00:10.000Z</time>
      </trkpt>
      <trkpt lat="44.08793" lon="5.97739">
        <ele>609.2</ele>
        <time>2021-03-30T11:00:11.000Z</time>
      </trkpt>
      <trkpt lat="44.08796" lon="5.97749">
        <ele>609.2</ele>
        <time>2021-03-30T11:00:13.000Z</time>
      </trkpt>
      <trkpt lat="44.08794" lon="5.97754">
        <ele>609.2</ele>
        <time>2021-03-30T11:00:14.000Z</time>
      </trkpt>
      <trkpt lat="44.08792" lon="5.97757">
        <ele>609.4</ele>
        <time>2021-03-30T11:00:15.000Z</time>
      </trkpt>
      <trkpt lat="44.08785" lon="5.97761">
        <ele>609.2</ele>
        <time>2021-03-30T11:00:17.000Z</time>
      </trkpt>
      <trkpt lat="44.08781" lon="5.97763">
        <ele>609</ele>
        <time>2021-03-30T11:00:18.000Z</time>
      </trkpt>
      <trkpt lat="44.08772" lon="5.97767">
        <ele>608.6</ele>
        <time>2021-03-30T11:00:20.000Z</time>
      </trkpt>
      <trkpt lat="44.08767" lon="5.97769">
        <ele>608.4</ele>
        <time>2021-03-30T11:00:21.000Z</time>
      </trkpt>
      <trkpt lat="44.08762" lon="5.97772">
        <ele>608.2</ele>
        <time>2021-03-30T11:00:22.000Z</time>
      </trkpt>
      <trkpt lat="44.08752" lon="5.97777">
        <ele>608</ele>
        <time>2021-03-30T11:00:24.000Z</time>
      </trkpt>
      <trkpt lat="44.08746" lon="5.97779">
        <ele>607.8</ele>
        <time>2021-03-30T11:00:25.000Z</time>
      </trkpt>
      <trkpt lat="44.0874" lon="5.97781">
        <ele>607.6</ele>
        <time>2021-03-30T11:00:26.000Z</time>
      </trkpt>
      <trkpt lat="44.08727" lon="5.97785">
        <ele>607.4</ele>
        <time>2021-03-30T11:00:28.000Z</time>
      </trkpt>
      <trkpt lat="44.08722" lon="5.97786">
        <ele>607.2</ele>
        <time>2021-03-30T11:00:29.000Z</time>
      </trkpt>
      <trkpt lat="44.08712" lon="5.97786">
        <ele>606.8</ele>
        <time>2021-03-30T11:00:31.000Z</time>
      </trkpt>
      <trkpt lat="44.08708" lon="5.97787">
        <ele>606.4</ele>
        <time>2021-03-30T11:00:32.000Z</time>
      </trkpt>
      <trkpt lat="44.08705" lon="5.97789">
        <ele>606.2</ele>
        <time>2021-03-30T11:00:33.000Z</time>
      </trkpt>
      <trkpt lat="44.08699" lon="5.97794">
        <ele>605.2</ele>
        <time>2021-03-30T11:00:35.000Z</time>
      </trkpt>
      <trkpt lat="44.08696" lon="5.97797">
        <ele>604.8</ele>
        <time>2021-03-30T11:00:36.000Z</time>
      </trkpt>
      <trkpt lat="44.08692" lon="5.97799">
        <ele>604.4</ele>
        <time>2021-03-30T11:00:37.000Z</time>
      </trkpt>
      <trkpt lat="44.08686" lon="5.97801">
        <ele>603.8</ele>
        <time>2021-03-30T11:00:39.000Z</time>
      </trkpt>
      <trkpt lat="44.08682" lon="5.97803">
        <ele>603.2</ele>
        <time>2021-03-30T11:00:40.000Z</time>
      </trkpt>
      <trkpt lat="44.08678" lon="5.97805">
        <ele>602.8</ele>
        <time>2021-03-30T11:00:41.000Z</time>
      </trkpt>
      <trkpt lat="44.08673" lon="5.97809">
        <ele>601.8</ele>
        <time>2021-03-30T11:00:43.000Z</time>
      </trkpt>
      <trkpt lat="44.08672" lon="5.97809">
        <ele>601.4</ele>
        <time>2021-03-30T11:00:44.000Z</time>
      </trkpt>
      <trkpt lat="44.08672" lon="5.9781">
        <ele>600.8</ele>
        <time>2021-03-30T11:00:46.000Z</time>
      </trkpt>
      <trkpt lat="44.08672" lon="5.9781">
        <ele>600.8</ele>
        <time>2021-03-30T11:00:47.000Z</time>
      </trkpt>
      <trkpt lat="44.08672" lon="5.9781">
        <ele>600.6</ele>
        <time>2021-03-30T11:00:48.000Z</time>
      </trkpt>
      <trkpt lat="44.08669" lon="5.97818">
        <ele>600.2</ele>
        <time>2021-03-30T11:00:50.000Z</time>
      </trkpt>
      <trkpt lat="44.08667" lon="5.97822">
        <ele>599.8</ele>
        <time>2021-03-30T11:00:51.000Z</time>
      </trkpt>
      <trkpt lat="44.08665" lon="5.97827">
        <ele>599.4</ele>
        <time>2021-03-30T11:00:52.000Z</time>
      </trkpt>
      <trkpt lat="44.0866" lon="5.97837">
        <ele>598.4</ele>
        <time>2021-03-30T11:00:54.000Z</time>
      </trkpt>
      <trkpt lat="44.08657" lon="5.97842">
        <ele>598</ele>
        <time>2021-03-30T11:00:55.000Z</time>
      </trkpt>
      <trkpt lat="44.08649" lon="5.97849">
        <ele>597</ele>
        <time>2021-03-30T11:00:57.000Z</time>
      </trkpt>
      <trkpt lat="44.08645" lon="5.97851">
        <ele>596.4</ele>
        <time>2021-03-30T11:00:58.000Z</time>
      </trkpt>
      <trkpt lat="44.0864" lon="5.97852">
        <ele>595.8</ele>
        <time>2021-03-30T11:00:59.000Z</time>
      </trkpt>
      <trkpt lat="44.08631" lon="5.97854">
        <ele>594.6</ele>
        <time>2021-03-30T11:01:01.000Z</time>
      </trkpt>
      <trkpt lat="44.08628" lon="5.97852">
        <ele>594</ele>
        <time>2021-03-30T11:01:02.000Z</time>
      </trkpt>
      <trkpt lat="44.08623" lon="5.9785">
        <ele>589</ele>
        <time>2021-03-30T11:19:36.000Z</time>
      </trkpt>
      <trkpt lat="44.08623" lon="5.97845">
        <ele>588.8</ele>
        <time>2021-03-30T11:19:38.000Z</time>
      </trkpt>
      <trkpt lat="44.08622" lon="5.97842">
        <ele>588.6</ele>
        <time>2021-03-30T11:19:39.000Z</time>
      </trkpt>
      <trkpt lat="44.08621" lon="5.97836">
        <ele>588.2</ele>
        <time>2021-03-30T11:19:41.000Z</time>
      </trkpt>
      <trkpt lat="44.08621" lon="5.97834">
        <ele>588</ele>
        <time>2021-03-30T11:19:42.000Z</time>
      </trkpt>
      <trkpt lat="44.0862" lon="5.97831">
        <ele>587.6</ele>
        <time>2021-03-30T11:19:43.000Z</time>
      </trkpt>
      <trkpt lat="44.08618" lon="5.97825">
        <ele>587</ele>
        <time>2021-03-30T11:19:45.000Z</time>
      </trkpt>
      <trkpt lat="44.08617" lon="5.97823">
        <ele>586.8</ele>
        <time>2021-03-30T11:19:46.000Z</time>
      </trkpt>
      <trkpt lat="44.08616" lon="5.9782">
        <ele>586.6</ele>
        <time>2021-03-30T11:19:47.000Z</time>
      </trkpt>
      <trkpt lat="44.08614" lon="5.97815">
        <ele>586</ele>
        <time>2021-03-30T11:19:49.000Z</time>
      </trkpt>
      <trkpt lat="44.08612" lon="5.97812">
        <ele>585.8</ele>
        <time>2021-03-30T11:19:50.000Z</time>
      </trkpt>
      <trkpt lat="44.0861" lon="5.97807">
        <ele>585.4</ele>
        <time>2021-03-30T11:19:52.000Z</time>
      </trkpt>
      <trkpt lat="44.08609" lon="5.97804">
        <ele>585</ele>
        <time>2021-03-30T11:19:53.000Z</time>
      </trkpt>
      <trkpt lat="44.08608" lon="5.97802">
        <ele>584.8</ele>
        <time>2021-03-30T11:19:54.000Z</time>
      </trkpt>
      <trkpt lat="44.08605" lon="5.97796">
        <ele>584.2</ele>
        <time>2021-03-30T11:19:56.000Z</time>
      </trkpt>
      <trkpt lat="44.08604" lon="5.97794">
        <ele>583.8</ele>
        <time>2021-03-30T11:19:57.000Z</time>
      </trkpt>
      <trkpt lat="44.08602" lon="5.97791">
        <ele>583.4</ele>
        <time>2021-03-30T11:19:58.000Z</time>
      </trkpt>
      <trkpt lat="44.086" lon="5.97787">
        <ele>582.6</ele>
        <time>2021-03-30T11:20:00.000Z</time>
      </trkpt>
      <trkpt lat="44.08598" lon="5.97784">
        <ele>582.2</ele>
        <time>2021-03-30T11:20:01.000Z</time>
      </trkpt>
      <trkpt lat="44.08597" lon="5.97782">
        <ele>582</ele>
        <time>2021-03-30T11:20:02.000Z</time>
      </trkpt>
      <trkpt lat="44.08595" lon="5.97778">
        <ele>581.4</ele>
        <time>2021-03-30T11:20:04.000Z</time>
      </trkpt>
      <trkpt lat="44.08594" lon="5.97776">
        <ele>581.2</ele>
        <time>2021-03-30T11:20:05.000Z</time>
      </trkpt>
      <trkpt lat="44.08591" lon="5.97772">
        <ele>581</ele>
        <time>2021-03-30T11:20:07.000Z</time>
      </trkpt>
      <trkpt lat="44.0859" lon="5.9777">
        <ele>580.8</ele>
        <time>2021-03-30T11:20:08.000Z</time>
      </trkpt>
      <trkpt lat="44.08589" lon="5.97768">
        <ele>580.8</ele>
        <time>2021-03-30T11:20:09.000Z</time>
      </trkpt>
      <trkpt lat="44.08589" lon="5.97767">
        <ele>580.4</ele>
        <time>2021-03-30T11:20:11.000Z</time>
      </trkpt>
      <trkpt lat="44.08589" lon="5.97767">
        <ele>580</ele>
        <time>2021-03-30T11:20:12.000Z</time>
      </trkpt>
      <trkpt lat="44.08589" lon="5.97767">
        <ele>579.4</ele>
        <time>2021-03-30T11:20:13.000Z</time>
      </trkpt>
      <trkpt lat="44.08589" lon="5.97767">
        <ele>578.2</ele>
        <time>2021-03-30T11:20:15.000Z</time>
      </trkpt>
      <trkpt lat="44.08589" lon="5.97767">
        <ele>577.8</ele>
        <time>2021-03-30T11:20:16.000Z</time>
      </trkpt>
      <trkpt lat="44.08589" lon="5.97767">
        <ele>577.6</ele>
        <time>2021-03-30T11:20:18.000Z</time>
      </trkpt>
      <trkpt lat="44.08589" lon="5.97767">
        <ele>577.4</ele>
        <time>2021-03-30T11:20:19.000Z</time>
      </trkpt>
      <trkpt lat="44.08589" lon="5.97767">
        <ele>577.2</ele>
        <time>2021-03-30T11:20:20.000Z</time>
      </trkpt>
      <trkpt lat="44.08589" lon="5.97767">
        <ele>576.2</ele>
        <time>2021-03-30T11:20:22.000Z</time>
      </trkpt>
      <trkpt lat="44.08589" lon="5.97767">
        <ele>575.6</ele>
        <time>2021-03-30T11:20:23.000Z</time>
      </trkpt>
      <trkpt lat="44.08589" lon="5.97767">
        <ele>575.2</ele>
        <time>2021-03-30T11:20:24.000Z</time>
      </trkpt>
      <trkpt lat="44.08589" lon="5.97767">
        <ele>574.2</ele>
        <time>2021-03-30T11:20:26.000Z</time>
      </trkpt>
      <trkpt lat="44.08589" lon="5.97767">
        <ele>573.6</ele>
        <time>2021-03-30T11:20:27.000Z</time>
      </trkpt>
      <trkpt lat="44.08589" lon="5.97767">
        <ele>572.4</ele>
        <time>2021-03-30T11:20:29.000Z</time>
      </trkpt>
      <trkpt lat="44.08589" lon="5.97767">
        <ele>572.4</ele>
        <time>2021-03-30T11:20:30.000Z</time>
      </trkpt>
      <trkpt lat="44.08589" lon="5.97767">
        <ele>572.6</ele>
        <time>2021-03-30T11:20:31.000Z</time>
      </trkpt>
      <trkpt lat="44.08589" lon="5.97767">
        <ele>572.6</ele>
        <time>2021-03-30T11:20:33.000Z</time>
      </trkpt>
      <trkpt lat="44.08589" lon="5.97767">
        <ele>572.8</ele>
        <time>2021-03-30T11:20:34.000Z</time>
      </trkpt>
      <trkpt lat="44.08589" lon="5.97767">
        <ele>573</ele>
        <time>2021-03-30T11:20:35.000Z</time>
      </trkpt>
      <trkpt lat="44.08589" lon="5.97767">
        <ele>573</ele>
        <time>2021-03-30T11:20:37.000Z</time>
      </trkpt>
      <trkpt lat="44.08589" lon="5.97767">
        <ele>573</ele>
        <time>2021-03-30T11:20:38.000Z</time>
      </trkpt>
      <trkpt lat="44.08589" lon="5.97767">
        <ele>572.8</ele>
        <time>2021-03-30T11:20:39.000Z</time>
      </trkpt>
      <trkpt lat="44.08589" lon="5.97767">
        <ele>572.6</ele>
        <time>2021-03-30T11:20:41.000Z</time>
      </trkpt>
      <trkpt lat="44.08589" lon="5.97765">
        <ele>572.4</ele>
        <time>2021-03-30T11:20:42.000Z</time>
      </trkpt>
      <trkpt lat="44.08588" lon="5.97763">
        <ele>572</ele>
        <time>2021-03-30T11:20:44.000Z</time>
      </trkpt>
      <trkpt lat="44.08587" lon="5.97762">
        <ele>571.8</ele>
        <time>2021-03-30T11:20:45.000Z</time>
      </trkpt>
      <trkpt lat="44.08586" lon="5.9776">
        <ele>571.8</ele>
        <time>2021-03-30T11:20:46.000Z</time>
      </trkpt>
      <trkpt lat="44.08584" lon="5.97755">
        <ele>571.4</ele>
        <time>2021-03-30T11:20:48.000Z</time>
      </trkpt>
      <trkpt lat="44.08583" lon="5.97753">
        <ele>571.4</ele>
        <time>2021-03-30T11:20:49.000Z</time>
      </trkpt>
      <trkpt lat="44.08582" lon="5.97751">
        <ele>571.2</ele>
        <time>2021-03-30T11:20:50.000Z</time>
      </trkpt>
      <trkpt lat="44.08579" lon="5.97745">
        <ele>570.8</ele>
        <time>2021-03-30T11:20:52.000Z</time>
      </trkpt>
      <trkpt lat="44.08578" lon="5.97743">
        <ele>570.6</ele>
        <time>2021-03-30T11:20:53.000Z</time>
      </trkpt>
      <trkpt lat="44.08575" lon="5.97737">
        <ele>570.2</ele>
        <time>2021-03-30T11:20:55.000Z</time>
      </trkpt>
      <trkpt lat="44.08574" lon="5.97735">
        <ele>570</ele>
        <time>2021-03-30T11:20:56.000Z</time>
      </trkpt>
      <trkpt lat="44.08573" lon="5.97732">
        <ele>569.8</ele>
        <time>2021-03-30T11:20:57.000Z</time>
      </trkpt>
      <trkpt lat="44.0857" lon="5.97726">
        <ele>569.2</ele>
        <time>2021-03-30T11:20:59.000Z</time>
      </trkpt>
      <trkpt lat="44.08569" lon="5.97724">
        <ele>569.2</ele>
        <time>2021-03-30T11:21:00.000Z</time>
      </trkpt>
      <trkpt lat="44.08568" lon="5.97721">
        <ele>569</ele>
        <time>2021-03-30T11:21:01.000Z</time>
      </trkpt>
      <trkpt lat="44.08566" lon="5.97715">
        <ele>568.4</ele>
        <time>2021-03-30T11:21:03.000Z</time>
      </trkpt>
      <trkpt lat="44.08564" lon="5.97712">
        <ele>568.2</ele>
        <time>2021-03-30T11:21:04.000Z</time>
      </trkpt>
      <trkpt lat="44.08562" lon="5.97706">
        <ele>567.8</ele>
        <time>2021-03-30T11:21:06.000Z</time>
      </trkpt>
      <trkpt lat="44.0856" lon="5.97703">
        <ele>567.6</ele>
        <time>2021-03-30T11:21:07.000Z</time>
      </trkpt>
      <trkpt lat="44.08559" lon="5.97701">
        <ele>567.4</ele>
        <time>2021-03-30T11:21:08.000Z</time>
      </trkpt>
      <trkpt lat="44.08556" lon="5.97695">
        <ele>567</ele>
        <time>2021-03-30T11:21:10.000Z</time>
      </trkpt>
      <trkpt lat="44.08555" lon="5.97693">
        <ele>566.8</ele>
        <time>2021-03-30T11:21:11.000Z</time>
      </trkpt>
      <trkpt lat="44.08553" lon="5.9769">
        <ele>566.8</ele>
        <time>2021-03-30T11:21:12.000Z</time>
      </trkpt>
      <trkpt lat="44.0855" lon="5.97685">
        <ele>566.8</ele>
        <time>2021-03-30T11:21:14.000Z</time>
      </trkpt>
      <trkpt lat="44.08549" lon="5.97682">
        <ele>566.8</ele>
        <time>2021-03-30T11:21:15.000Z</time>
      </trkpt>
      <trkpt lat="44.08547" lon="5.97679">
        <ele>566.8</ele>
        <time>2021-03-30T11:21:16.000Z</time>
      </trkpt>
      <trkpt lat="44.08545" lon="5.97674">
        <ele>566.6</ele>
        <time>2021-03-30T11:21:18.000Z</time>
      </trkpt>
      <trkpt lat="44.08543" lon="5.97672">
        <ele>566.6</ele>
        <time>2021-03-30T11:21:19.000Z</time>
      </trkpt>
      <trkpt lat="44.08541" lon="5.97667">
        <ele>566.4</ele>
        <time>2021-03-30T11:21:21.000Z</time>
      </trkpt>
      <trkpt lat="44.08539" lon="5.97664">
        <ele>566.4</ele>
        <time>2021-03-30T11:21:22.000Z</time>
      </trkpt>
      <trkpt lat="44.08538" lon="5.97661">
        <ele>566.6</ele>
        <time>2021-03-30T11:21:23.000Z</time>
      </trkpt>
      <trkpt lat="44.08535" lon="5.97656">
        <ele>567</ele>
        <time>2021-03-30T11:21:25.000Z</time>
      </trkpt>
      <trkpt lat="44.08533" lon="5.97653">
        <ele>567.2</ele>
        <time>2021-03-30T11:21:26.000Z</time>
      </trkpt>
      <trkpt lat="44.08532" lon="5.9765">
        <ele>567.4</ele>
        <time>2021-03-30T11:21:27.000Z</time>
      </trkpt>
      <trkpt lat="44.08529" lon="5.97645">
        <ele>567.8</ele>
        <time>2021-03-30T11:21:29.000Z</time>
      </trkpt>
      <trkpt lat="44.08527" lon="5.97642">
        <ele>567.8</ele>
        <time>2021-03-30T11:21:30.000Z</time>
      </trkpt>
      <trkpt lat="44.08524" lon="5.97635">
        <ele>568</ele>
        <time>2021-03-30T11:21:32.000Z</time>
      </trkpt>
      <trkpt lat="44.08522" lon="5.97631">
        <ele>568</ele>
        <time>2021-03-30T11:21:33.000Z</time>
      </trkpt>
      <trkpt lat="44.08521" lon="5.97628">
        <ele>568</ele>
        <time>2021-03-30T11:21:34.000Z</time>
      </trkpt>
      <trkpt lat="44.08518" lon="5.97621">
        <ele>568.2</ele>
        <time>2021-03-30T11:21:36.000Z</time>
      </trkpt>
      <trkpt lat="44.08517" lon="5.97618">
        <ele>568.4</ele>
        <time>2021-03-30T11:21:37.000Z</time>
      </trkpt>
      <trkpt lat="44.08516" lon="5.97614">
        <ele>568.6</ele>
        <time>2021-03-30T11:21:38.000Z</time>
      </trkpt>
      <trkpt lat="44.08515" lon="5.97606">
        <ele>569</ele>
        <time>2021-03-30T11:21:40.000Z</time>
      </trkpt>
      <trkpt lat="44.08514" lon="5.97602">
        <ele>569.2</ele>
        <time>2021-03-30T11:21:41.000Z</time>
      </trkpt>
      <trkpt lat="44.08512" lon="5.97592">
        <ele>570</ele>
        <time>2021-03-30T11:21:43.000Z</time>
      </trkpt>
      <trkpt lat="44.08511" lon="5.97588">
        <ele>570.4</ele>
        <time>2021-03-30T11:21:44.000Z</time>
      </trkpt>
      <trkpt lat="44.08511" lon="5.97583">
        <ele>570.8</ele>
        <time>2021-03-30T11:21:45.000Z</time>
      </trkpt>
      <trkpt lat="44.08511" lon="5.97576">
        <ele>571.6</ele>
        <time>2021-03-30T11:21:47.000Z</time>
      </trkpt>
      <trkpt lat="44.08512" lon="5.97573">
        <ele>571.8</ele>
        <time>2021-03-30T11:21:48.000Z</time>
      </trkpt>
      <trkpt lat="44.08512" lon="5.97569">
        <ele>572</ele>
        <time>2021-03-30T11:21:49.000Z</time>
      </trkpt>
      <trkpt lat="44.08513" lon="5.97562">
        <ele>572.4</ele>
        <time>2021-03-30T11:21:51.000Z</time>
      </trkpt>
      <trkpt lat="44.08513" lon="5.97558">
        <ele>572.6</ele>
        <time>2021-03-30T11:21:52.000Z</time>
      </trkpt>
      <trkpt lat="44.08515" lon="5.9755">
        <ele>573.2</ele>
        <time>2021-03-30T11:21:54.000Z</time>
      </trkpt>
      <trkpt lat="44.08516" lon="5.97546">
        <ele>573.4</ele>
        <time>2021-03-30T11:21:55.000Z</time>
      </trkpt>
      <trkpt lat="44.08516" lon="5.97542">
        <ele>573.8</ele>
        <time>2021-03-30T11:21:56.000Z</time>
      </trkpt>
      <trkpt lat="44.08519" lon="5.97532">
        <ele>574</ele>
        <time>2021-03-30T11:21:58.000Z</time>
      </trkpt>
      <trkpt lat="44.08521" lon="5.97526">
        <ele>574.2</ele>
        <time>2021-03-30T11:21:59.000Z</time>
      </trkpt>
      <trkpt lat="44.08522" lon="5.9752">
        <ele>574.2</ele>
        <time>2021-03-30T11:22:00.000Z</time>
      </trkpt>
      <trkpt lat="44.08527" lon="5.97506">
        <ele>574.2</ele>
        <time>2021-03-30T11:22:02.000Z</time>
      </trkpt>
      <trkpt lat="44.0853" lon="5.97498">
        <ele>574.2</ele>
        <time>2021-03-30T11:22:03.000Z</time>
      </trkpt>
      <trkpt lat="44.08533" lon="5.97492">
        <ele>574.4</ele>
        <time>2021-03-30T11:22:04.000Z</time>
      </trkpt>
      <trkpt lat="44.08537" lon="5.97482">
        <ele>574.4</ele>
        <time>2021-03-30T11:22:06.000Z</time>
      </trkpt>
      <trkpt lat="44.08538" lon="5.97478">
        <ele>574.4</ele>
        <time>2021-03-30T11:22:07.000Z</time>
      </trkpt>
      <trkpt lat="44.0854" lon="5.9747">
        <ele>574.2</ele>
        <time>2021-03-30T11:22:09.000Z</time>
      </trkpt>
      <trkpt lat="44.08542" lon="5.97465">
        <ele>574.2</ele>
        <time>2021-03-30T11:22:10.000Z</time>
      </trkpt>
      <trkpt lat="44.08543" lon="5.9746">
        <ele>574.2</ele>
        <time>2021-03-30T11:22:11.000Z</time>
      </trkpt>
      <trkpt lat="44.08546" lon="5.97451">
        <ele>574</ele>
        <time>2021-03-30T11:22:13.000Z</time>
      </trkpt>
      <trkpt lat="44.08548" lon="5.97447">
        <ele>574</ele>
        <time>2021-03-30T11:22:14.000Z</time>
      </trkpt>
      <trkpt lat="44.08549" lon="5.97442">
        <ele>574</ele>
        <time>2021-03-30T11:22:15.000Z</time>
      </trkpt>
      <trkpt lat="44.08553" lon="5.97434">
        <ele>574</ele>
        <time>2021-03-30T11:22:17.000Z</time>
      </trkpt>
      <trkpt lat="44.08555" lon="5.9743">
        <ele>574</ele>
        <time>2021-03-30T11:22:18.000Z</time>
      </trkpt>
      <trkpt lat="44.08558" lon="5.97423">
        <ele>574.2</ele>
        <time>2021-03-30T11:22:20.000Z</time>
      </trkpt>
      <trkpt lat="44.08559" lon="5.9742">
        <ele>574.2</ele>
        <time>2021-03-30T11:22:21.000Z</time>
      </trkpt>
      <trkpt lat="44.0856" lon="5.97416">
        <ele>574.2</ele>
        <time>2021-03-30T11:22:22.000Z</time>
      </trkpt>
      <trkpt lat="44.08563" lon="5.97409">
        <ele>574.2</ele>
        <time>2021-03-30T11:22:24.000Z</time>
      </trkpt>
      <trkpt lat="44.08565" lon="5.97406">
        <ele>574</ele>
        <time>2021-03-30T11:22:25.000Z</time>
      </trkpt>
      <trkpt lat="44.08566" lon="5.97403">
        <ele>574</ele>
        <time>2021-03-30T11:22:26.000Z</time>
      </trkpt>
      <trkpt lat="44.08571" lon="5.97395">
        <ele>573.8</ele>
        <time>2021-03-30T11:22:28.000Z</time>
      </trkpt>
      <trkpt lat="44.08573" lon="5.97391">
        <ele>573.8</ele>
        <time>2021-03-30T11:22:29.000Z</time>
      </trkpt>
      <trkpt lat="44.08577" lon="5.9738">
        <ele>573.8</ele>
        <time>2021-03-30T11:22:31.000Z</time>
      </trkpt>
      <trkpt lat="44.08577" lon="5.97375">
        <ele>573.8</ele>
        <time>2021-03-30T11:22:32.000Z</time>
      </trkpt>
      <trkpt lat="44.08576" lon="5.9737">
        <ele>573.8</ele>
        <time>2021-03-30T11:22:33.000Z</time>
      </trkpt>
      <trkpt lat="44.08574" lon="5.97361">
        <ele>574</ele>
        <time>2021-03-30T11:22:35.000Z</time>
      </trkpt>
      <trkpt lat="44.08573" lon="5.97356">
        <ele>574</ele>
        <time>2021-03-30T11:22:36.000Z</time>
      </trkpt>
      <trkpt lat="44.08572" lon="5.97352">
        <ele>574</ele>
        <time>2021-03-30T11:22:37.000Z</time>
      </trkpt>
      <trkpt lat="44.08572" lon="5.97343">
        <ele>574.2</ele>
        <time>2021-03-30T11:22:39.000Z</time>
      </trkpt>
      <trkpt lat="44.08571" lon="5.9734">
        <ele>574.2</ele>
        <time>2021-03-30T11:22:40.000Z</time>
      </trkpt>
      <trkpt lat="44.0857" lon="5.97337">
        <ele>574.2</ele>
        <time>2021-03-30T11:22:41.000Z</time>
      </trkpt>
      <trkpt lat="44.08567" lon="5.97329">
        <ele>574.4</ele>
        <time>2021-03-30T11:22:43.000Z</time>
      </trkpt>
      <trkpt lat="44.08566" lon="5.97325">
        <ele>574.4</ele>
        <time>2021-03-30T11:22:44.000Z</time>
      </trkpt>
      <trkpt lat="44.08564" lon="5.97317">
        <ele>574.6</ele>
        <time>2021-03-30T11:22:46.000Z</time>
      </trkpt>
      <trkpt lat="44.08563" lon="5.97312">
        <ele>574.6</ele>
        <time>2021-03-30T11:22:47.000Z</time>
      </trkpt>
      <trkpt lat="44.08563" lon="5.97307">
        <ele>574.6</ele>
        <time>2021-03-30T11:22:48.000Z</time>
      </trkpt>
      <trkpt lat="44.08562" lon="5.97299">
        <ele>574.8</ele>
        <time>2021-03-30T11:22:50.000Z</time>
      </trkpt>
      <trkpt lat="44.08562" lon="5.97297">
        <ele>574.6</ele>
        <time>2021-03-30T11:22:51.000Z</time>
      </trkpt>
      <trkpt lat="44.08563" lon="5.97294">
        <ele>574.6</ele>
        <time>2021-03-30T11:22:52.000Z</time>
      </trkpt>
      <trkpt lat="44.08563" lon="5.9729">
        <ele>574.4</ele>
        <time>2021-03-30T11:22:54.000Z</time>
      </trkpt>
      <trkpt lat="44.08562" lon="5.97289">
        <ele>574.4</ele>
        <time>2021-03-30T11:22:55.000Z</time>
      </trkpt>
      <trkpt lat="44.08559" lon="5.97291">
        <ele>574.4</ele>
        <time>2021-03-30T11:22:57.000Z</time>
      </trkpt>
      <trkpt lat="44.08559" lon="5.97293">
        <ele>574.4</ele>
        <time>2021-03-30T11:22:58.000Z</time>
      </trkpt>
      <trkpt lat="44.08559" lon="5.97296">
        <ele>574.6</ele>
        <time>2021-03-30T11:22:59.000Z</time>
      </trkpt>
      <trkpt lat="44.08559" lon="5.97301">
        <ele>574.6</ele>
        <time>2021-03-30T11:23:01.000Z</time>
      </trkpt>
      <trkpt lat="44.08557" lon="5.97304">
        <ele>574.6</ele>
        <time>2021-03-30T11:23:02.000Z</time>
      </trkpt>
      <trkpt lat="44.08555" lon="5.97306">
        <ele>574.6</ele>
        <time>2021-03-30T11:23:03.000Z</time>
      </trkpt>
      <trkpt lat="44.08546" lon="5.97309">
        <ele>574.6</ele>
        <time>2021-03-30T11:23:05.000Z</time>
      </trkpt>
      <trkpt lat="44.08542" lon="5.97309">
        <ele>574.6</ele>
        <time>2021-03-30T11:23:06.000Z</time>
      </trkpt>
      <trkpt lat="44.08532" lon="5.97311">
        <ele>574.6</ele>
        <time>2021-03-30T11:23:08.000Z</time>
      </trkpt>
      <trkpt lat="44.08527" lon="5.97312">
        <ele>574.6</ele>
        <time>2021-03-30T11:23:09.000Z</time>
      </trkpt>
      <trkpt lat="44.08523" lon="5.97313">
        <ele>574.6</ele>
        <time>2021-03-30T11:23:10.000Z</time>
      </trkpt>
      <trkpt lat="44.08515" lon="5.97316">
        <ele>574.6</ele>
        <time>2021-03-30T11:23:12.000Z</time>
      </trkpt>
      <trkpt lat="44.08511" lon="5.97316">
        <ele>574.4</ele>
        <time>2021-03-30T11:23:13.000Z</time>
      </trkpt>
      <trkpt lat="44.08508" lon="5.97313">
        <ele>574.4</ele>
        <time>2021-03-30T11:23:14.000Z</time>
      </trkpt>
      <trkpt lat="44.08502" lon="5.97304">
        <ele>574.4</ele>
        <time>2021-03-30T11:23:16.000Z</time>
      </trkpt>
      <trkpt lat="44.08499" lon="5.973">
        <ele>574.4</ele>
        <time>2021-03-30T11:23:17.000Z</time>
      </trkpt>
      <trkpt lat="44.08495" lon="5.97297">
        <ele>574.4</ele>
        <time>2021-03-30T11:23:18.000Z</time>
      </trkpt>
      <trkpt lat="44.08487" lon="5.97297">
        <ele>574.4</ele>
        <time>2021-03-30T11:23:20.000Z</time>
      </trkpt>
      <trkpt lat="44.08483" lon="5.97298">
        <ele>574.4</ele>
        <time>2021-03-30T11:23:21.000Z</time>
      </trkpt>
      <trkpt lat="44.08476" lon="5.973">
        <ele>574.4</ele>
        <time>2021-03-30T11:23:23.000Z</time>
      </trkpt>
      <trkpt lat="44.08474" lon="5.97298">
        <ele>574.4</ele>
        <time>2021-03-30T11:23:24.000Z</time>
      </trkpt>
      <trkpt lat="44.08471" lon="5.97295">
        <ele>574.4</ele>
        <time>2021-03-30T11:23:25.000Z</time>
      </trkpt>
      <trkpt lat="44.08466" lon="5.97288">
        <ele>574.6</ele>
        <time>2021-03-30T11:23:27.000Z</time>
      </trkpt>
      <trkpt lat="44.08463" lon="5.97285">
        <ele>574.6</ele>
        <time>2021-03-30T11:23:28.000Z</time>
      </trkpt>
      <trkpt lat="44.0846" lon="5.97282">
        <ele>574.4</ele>
        <time>2021-03-30T11:23:29.000Z</time>
      </trkpt>
      <trkpt lat="44.08455" lon="5.97276">
        <ele>574.4</ele>
        <time>2021-03-30T11:23:31.000Z</time>
      </trkpt>
      <trkpt lat="44.08453" lon="5.97271">
        <ele>574.2</ele>
        <time>2021-03-30T11:23:32.000Z</time>
      </trkpt>
      <trkpt lat="44.0845" lon="5.97262">
        <ele>574.2</ele>
        <time>2021-03-30T11:23:34.000Z</time>
      </trkpt>
      <trkpt lat="44.08446" lon="5.97259">
        <ele>574.2</ele>
        <time>2021-03-30T11:23:35.000Z</time>
      </trkpt>
      <trkpt lat="44.08442" lon="5.97254">
        <ele>574.2</ele>
        <time>2021-03-30T11:23:36.000Z</time>
      </trkpt>
      <trkpt lat="44.08432" lon="5.97243">
        <ele>574</ele>
        <time>2021-03-30T11:23:38.000Z</time>
      </trkpt>
      <trkpt lat="44.08427" lon="5.97238">
        <ele>573.8</ele>
        <time>2021-03-30T11:23:39.000Z</time>
      </trkpt>
      <trkpt lat="44.08423" lon="5.97235">
        <ele>573.8</ele>
        <time>2021-03-30T11:23:40.000Z</time>
      </trkpt>
      <trkpt lat="44.08413" lon="5.97236">
        <ele>573.4</ele>
        <time>2021-03-30T11:23:42.000Z</time>
      </trkpt>
      <trkpt lat="44.08408" lon="5.97238">
        <ele>573.4</ele>
        <time>2021-03-30T11:23:43.000Z</time>
      </trkpt>
      <trkpt lat="44.08398" lon="5.97243">
        <ele>573</ele>
        <time>2021-03-30T11:23:45.000Z</time>
      </trkpt>
      <trkpt lat="44.08392" lon="5.97244">
        <ele>572.8</ele>
        <time>2021-03-30T11:23:46.000Z</time>
      </trkpt>
      <trkpt lat="44.08386" lon="5.97245">
        <ele>572.6</ele>
        <time>2021-03-30T11:23:47.000Z</time>
      </trkpt>
      <trkpt lat="44.08374" lon="5.97244">
        <ele>572.2</ele>
        <time>2021-03-30T11:23:49.000Z</time>
      </trkpt>
      <trkpt lat="44.08369" lon="5.97243">
        <ele>572</ele>
        <time>2021-03-30T11:23:50.000Z</time>
      </trkpt>
      <trkpt lat="44.08365" lon="5.97243">
        <ele>572</ele>
        <time>2021-03-30T11:23:51.000Z</time>
      </trkpt>
      <trkpt lat="44.08357" lon="5.97248">
        <ele>571.6</ele>
        <time>2021-03-30T11:23:53.000Z</time>
      </trkpt>
      <trkpt lat="44.08352" lon="5.97252">
        <ele>571.4</ele>
        <time>2021-03-30T11:23:54.000Z</time>
      </trkpt>
      <trkpt lat="44.08343" lon="5.97255">
        <ele>571</ele>
        <time>2021-03-30T11:23:56.000Z</time>
      </trkpt>
      <trkpt lat="44.08338" lon="5.97254">
        <ele>570.6</ele>
        <time>2021-03-30T11:23:57.000Z</time>
      </trkpt>
      <trkpt lat="44.08333" lon="5.97251">
        <ele>570.4</ele>
        <time>2021-03-30T11:23:58.000Z</time>
      </trkpt>
      <trkpt lat="44.08326" lon="5.97255">
        <ele>569.6</ele>
        <time>2021-03-30T11:24:00.000Z</time>
      </trkpt>
      <trkpt lat="44.08324" lon="5.97259">
        <ele>569.2</ele>
        <time>2021-03-30T11:24:01.000Z</time>
      </trkpt>
      <trkpt lat="44.08323" lon="5.97264">
        <ele>568.8</ele>
        <time>2021-03-30T11:24:02.000Z</time>
      </trkpt>
      <trkpt lat="44.08323" lon="5.97273">
        <ele>567.8</ele>
        <time>2021-03-30T11:24:04.000Z</time>
      </trkpt>
      <trkpt lat="44.08323" lon="5.97278">
        <ele>567.2</ele>
        <time>2021-03-30T11:24:05.000Z</time>
      </trkpt>
      <trkpt lat="44.08322" lon="5.97284">
        <ele>566.6</ele>
        <time>2021-03-30T11:24:06.000Z</time>
      </trkpt>
      <trkpt lat="44.0832" lon="5.97295">
        <ele>565.6</ele>
        <time>2021-03-30T11:24:08.000Z</time>
      </trkpt>
      <trkpt lat="44.08318" lon="5.973">
        <ele>565</ele>
        <time>2021-03-30T11:24:09.000Z</time>
      </trkpt>
      <trkpt lat="44.08315" lon="5.97309">
        <ele>564</ele>
        <time>2021-03-30T11:24:11.000Z</time>
      </trkpt>
      <trkpt lat="44.08313" lon="5.97309">
        <ele>563.6</ele>
        <time>2021-03-30T11:24:12.000Z</time>
      </trkpt>
      <trkpt lat="44.08311" lon="5.97309">
        <ele>563</ele>
        <time>2021-03-30T11:24:13.000Z</time>
      </trkpt>
      <trkpt lat="44.08308" lon="5.97308">
        <ele>562.4</ele>
        <time>2021-03-30T11:24:15.000Z</time>
      </trkpt>
      <trkpt lat="44.08307" lon="5.97309">
        <ele>562.2</ele>
        <time>2021-03-30T11:24:16.000Z</time>
      </trkpt>
      <trkpt lat="44.08305" lon="5.97309">
        <ele>562</ele>
        <time>2021-03-30T11:24:17.000Z</time>
      </trkpt>
      <trkpt lat="44.083" lon="5.97311">
        <ele>561.4</ele>
        <time>2021-03-30T11:24:19.000Z</time>
      </trkpt>
      <trkpt lat="44.08298" lon="5.97313">
        <ele>561.2</ele>
        <time>2021-03-30T11:24:20.000Z</time>
      </trkpt>
      <trkpt lat="44.08295" lon="5.97317">
        <ele>560.8</ele>
        <time>2021-03-30T11:24:22.000Z</time>
      </trkpt>
      <trkpt lat="44.08293" lon="5.97319">
        <ele>560.6</ele>
        <time>2021-03-30T11:24:23.000Z</time>
      </trkpt>
      <trkpt lat="44.08292" lon="5.97321">
        <ele>560.6</ele>
        <time>2021-03-30T11:24:24.000Z</time>
      </trkpt>
      <trkpt lat="44.08289" lon="5.97325">
        <ele>560.4</ele>
        <time>2021-03-30T11:24:26.000Z</time>
      </trkpt>
      <trkpt lat="44.08287" lon="5.97327">
        <ele>560.2</ele>
        <time>2021-03-30T11:24:27.000Z</time>
      </trkpt>
      <trkpt lat="44.08286" lon="5.97329">
        <ele>560</ele>
        <time>2021-03-30T11:24:28.000Z</time>
      </trkpt>
      <trkpt lat="44.08282" lon="5.97333">
        <ele>559.2</ele>
        <time>2021-03-30T11:24:30.000Z</time>
      </trkpt>
      <trkpt lat="44.08279" lon="5.97334">
        <ele>558.8</ele>
        <time>2021-03-30T11:24:31.000Z</time>
      </trkpt>
      <trkpt lat="44.08274" lon="5.97335">
        <ele>558.2</ele>
        <time>2021-03-30T11:24:33.000Z</time>
      </trkpt>
      <trkpt lat="44.08271" lon="5.97335">
        <ele>558.2</ele>
        <time>2021-03-30T11:24:34.000Z</time>
      </trkpt>
      <trkpt lat="44.08269" lon="5.97336">
        <ele>558</ele>
        <time>2021-03-30T11:24:35.000Z</time>
      </trkpt>
      <trkpt lat="44.08265" lon="5.97336">
        <ele>558</ele>
        <time>2021-03-30T11:24:37.000Z</time>
      </trkpt>
      <trkpt lat="44.08265" lon="5.97336">
        <ele>558</ele>
        <time>2021-03-30T11:24:38.000Z</time>
      </trkpt>
      <trkpt lat="44.08265" lon="5.97337">
        <ele>558</ele>
        <time>2021-03-30T11:24:39.000Z</time>
      </trkpt>
      <trkpt lat="44.08263" lon="5.97337">
        <ele>557.6</ele>
        <time>2021-03-30T11:24:41.000Z</time>
      </trkpt>
      <trkpt lat="44.08262" lon="5.97337">
        <ele>557.4</ele>
        <time>2021-03-30T11:24:42.000Z</time>
      </trkpt>
      <trkpt lat="44.08259" lon="5.97337">
        <ele>557</ele>
        <time>2021-03-30T11:24:43.000Z</time>
      </trkpt>
      <trkpt lat="44.08254" lon="5.97335">
        <ele>556.4</ele>
        <time>2021-03-30T11:24:45.000Z</time>
      </trkpt>
      <trkpt lat="44.0825" lon="5.97334">
        <ele>556.2</ele>
        <time>2021-03-30T11:24:46.000Z</time>
      </trkpt>
      <trkpt lat="44.08244" lon="5.97332">
        <ele>555.6</ele>
        <time>2021-03-30T11:24:48.000Z</time>
      </trkpt>
      <trkpt lat="44.08239" lon="5.97331">
        <ele>555.4</ele>
        <time>2021-03-30T11:24:49.000Z</time>
      </trkpt>
      <trkpt lat="44.08235" lon="5.97332">
        <ele>555.2</ele>
        <time>2021-03-30T11:24:50.000Z</time>
      </trkpt>
      <trkpt lat="44.08228" lon="5.97336">
        <ele>555</ele>
        <time>2021-03-30T11:24:52.000Z</time>
      </trkpt>
      <trkpt lat="44.08225" lon="5.97336">
        <ele>555</ele>
        <time>2021-03-30T11:24:53.000Z</time>
      </trkpt>
      <trkpt lat="44.08221" lon="5.97337">
        <ele>554.8</ele>
        <time>2021-03-30T11:24:54.000Z</time>
      </trkpt>
      <trkpt lat="44.08213" lon="5.97338">
        <ele>554.8</ele>
        <time>2021-03-30T11:24:56.000Z</time>
      </trkpt>
      <trkpt lat="44.0821" lon="5.97338">
        <ele>554.8</ele>
        <time>2021-03-30T11:24:57.000Z</time>
      </trkpt>
      <trkpt lat="44.08201" lon="5.97339">
        <ele>554.8</ele>
        <time>2021-03-30T11:24:59.000Z</time>
      </trkpt>
      <trkpt lat="44.08196" lon="5.9734">
        <ele>554.8</ele>
        <time>2021-03-30T11:25:00.000Z</time>
      </trkpt>
      <trkpt lat="44.08191" lon="5.9734">
        <ele>554.8</ele>
        <time>2021-03-30T11:25:01.000Z</time>
      </trkpt>
      <trkpt lat="44.08181" lon="5.9734">
        <ele>554.8</ele>
        <time>2021-03-30T11:25:03.000Z</time>
      </trkpt>
      <trkpt lat="44.08175" lon="5.97341">
        <ele>554.6</ele>
        <time>2021-03-30T11:25:04.000Z</time>
      </trkpt>
      <trkpt lat="44.0817" lon="5.97341">
        <ele>554.6</ele>
        <time>2021-03-30T11:25:05.000Z</time>
      </trkpt>
      <trkpt lat="44.0816" lon="5.97343">
        <ele>554.4</ele>
        <time>2021-03-30T11:25:07.000Z</time>
      </trkpt>
      <trkpt lat="44.08154" lon="5.97343">
        <ele>554.2</ele>
        <time>2021-03-30T11:25:08.000Z</time>
      </trkpt>
      <trkpt lat="44.08143" lon="5.97342">
        <ele>553.6</ele>
        <time>2021-03-30T11:25:10.000Z</time>
      </trkpt>
      <trkpt lat="44.08138" lon="5.97344">
        <ele>553.6</ele>
        <time>2021-03-30T11:25:11.000Z</time>
      </trkpt>
      <trkpt lat="44.08133" lon="5.97347">
        <ele>553.4</ele>
        <time>2021-03-30T11:25:12.000Z</time>
      </trkpt>
      <trkpt lat="44.08126" lon="5.97353">
        <ele>553.2</ele>
        <time>2021-03-30T11:25:14.000Z</time>
      </trkpt>
      <trkpt lat="44.08121" lon="5.97353">
        <ele>553</ele>
        <time>2021-03-30T11:25:15.000Z</time>
      </trkpt>
      <trkpt lat="44.08115" lon="5.97353">
        <ele>552.8</ele>
        <time>2021-03-30T11:25:16.000Z</time>
      </trkpt>
      <trkpt lat="44.08108" lon="5.97353">
        <ele>552.6</ele>
        <time>2021-03-30T11:25:18.000Z</time>
      </trkpt>
      <trkpt lat="44.08105" lon="5.97353">
        <ele>552.6</ele>
        <time>2021-03-30T11:25:19.000Z</time>
      </trkpt>
      <trkpt lat="44.08101" lon="5.97356">
        <ele>552.4</ele>
        <time>2021-03-30T11:25:20.000Z</time>
      </trkpt>
      <trkpt lat="44.08095" lon="5.97358">
        <ele>552</ele>
        <time>2021-03-30T11:25:22.000Z</time>
      </trkpt>
      <trkpt lat="44.08092" lon="5.97361">
        <ele>551.8</ele>
        <time>2021-03-30T11:25:23.000Z</time>
      </trkpt>
      <trkpt lat="44.08085" lon="5.97363">
        <ele>551.4</ele>
        <time>2021-03-30T11:25:25.000Z</time>
      </trkpt>
      <trkpt lat="44.0808" lon="5.97364">
        <ele>551.2</ele>
        <time>2021-03-30T11:25:26.000Z</time>
      </trkpt>
      <trkpt lat="44.08077" lon="5.97365">
        <ele>551</ele>
        <time>2021-03-30T11:25:27.000Z</time>
      </trkpt>
      <trkpt lat="44.08072" lon="5.9737">
        <ele>550.6</ele>
        <time>2021-03-30T11:25:29.000Z</time>
      </trkpt>
      <trkpt lat="44.0807" lon="5.97373">
        <ele>550.4</ele>
        <time>2021-03-30T11:25:30.000Z</time>
      </trkpt>
      <trkpt lat="44.08069" lon="5.97376">
        <ele>550.4</ele>
        <time>2021-03-30T11:25:31.000Z</time>
      </trkpt>
      <trkpt lat="44.08065" lon="5.97381">
        <ele>550</ele>
        <time>2021-03-30T11:25:33.000Z</time>
      </trkpt>
      <trkpt lat="44.08062" lon="5.97385">
        <ele>549.6</ele>
        <time>2021-03-30T11:25:34.000Z</time>
      </trkpt>
      <trkpt lat="44.08059" lon="5.97391">
        <ele>549.2</ele>
        <time>2021-03-30T11:25:36.000Z</time>
      </trkpt>
      <trkpt lat="44.08059" lon="5.97394">
        <ele>549</ele>
        <time>2021-03-30T11:25:37.000Z</time>
      </trkpt>
      <trkpt lat="44.08059" lon="5.97397">
        <ele>548.8</ele>
        <time>2021-03-30T11:25:38.000Z</time>
      </trkpt>
      <trkpt lat="44.08056" lon="5.974">
        <ele>548.2</ele>
        <time>2021-03-30T11:25:40.000Z</time>
      </trkpt>
      <trkpt lat="44.08053" lon="5.97399">
        <ele>547.8</ele>
        <time>2021-03-30T11:25:41.000Z</time>
      </trkpt>
      <trkpt lat="44.08049" lon="5.97399">
        <ele>547.2</ele>
        <time>2021-03-30T11:25:42.000Z</time>
      </trkpt>
      <trkpt lat="44.08043" lon="5.97402">
        <ele>546.4</ele>
        <time>2021-03-30T11:25:44.000Z</time>
      </trkpt>
      <trkpt lat="44.08042" lon="5.97403">
        <ele>546.2</ele>
        <time>2021-03-30T11:25:45.000Z</time>
      </trkpt>
      <trkpt lat="44.08037" lon="5.97405">
        <ele>545.8</ele>
        <time>2021-03-30T11:25:47.000Z</time>
      </trkpt>
      <trkpt lat="44.08033" lon="5.97406">
        <ele>545.6</ele>
        <time>2021-03-30T11:25:48.000Z</time>
      </trkpt>
      <trkpt lat="44.0803" lon="5.97406">
        <ele>545.4</ele>
        <time>2021-03-30T11:25:49.000Z</time>
      </trkpt>
      <trkpt lat="44.08026" lon="5.97406">
        <ele>545.2</ele>
        <time>2021-03-30T11:25:51.000Z</time>
      </trkpt>
      <trkpt lat="44.08024" lon="5.97407">
        <ele>545</ele>
        <time>2021-03-30T11:25:52.000Z</time>
      </trkpt>
      <trkpt lat="44.08021" lon="5.97406">
        <ele>544.8</ele>
        <time>2021-03-30T11:25:53.000Z</time>
      </trkpt>
      <trkpt lat="44.08018" lon="5.97403">
        <ele>544.6</ele>
        <time>2021-03-30T11:25:55.000Z</time>
      </trkpt>
      <trkpt lat="44.08017" lon="5.974">
        <ele>544.4</ele>
        <time>2021-03-30T11:25:56.000Z</time>
      </trkpt>
      <trkpt lat="44.08012" lon="5.97399">
        <ele>544.2</ele>
        <time>2021-03-30T11:25:58.000Z</time>
      </trkpt>
      <trkpt lat="44.0801" lon="5.974">
        <ele>543.8</ele>
        <time>2021-03-30T11:25:59.000Z</time>
      </trkpt>
      <trkpt lat="44.08007" lon="5.97402">
        <ele>543.6</ele>
        <time>2021-03-30T11:26:00.000Z</time>
      </trkpt>
      <trkpt lat="44.08" lon="5.97406">
        <ele>543.2</ele>
        <time>2021-03-30T11:26:02.000Z</time>
      </trkpt>
      <trkpt lat="44.07998" lon="5.97407">
        <ele>543</ele>
        <time>2021-03-30T11:26:03.000Z</time>
      </trkpt>
      <trkpt lat="44.07998" lon="5.97408">
        <ele>542.8</ele>
        <time>2021-03-30T11:26:04.000Z</time>
      </trkpt>
      <trkpt lat="44.07998" lon="5.97408">
        <ele>542.8</ele>
        <time>2021-03-30T11:26:06.000Z</time>
      </trkpt>
      <trkpt lat="44.07998" lon="5.97408">
        <ele>542.6</ele>
        <time>2021-03-30T11:26:07.000Z</time>
      </trkpt>
      <trkpt lat="44.07998" lon="5.97408">
        <ele>542.6</ele>
        <time>2021-03-30T11:26:08.000Z</time>
      </trkpt>
      <trkpt lat="44.07998" lon="5.97408">
        <ele>542.4</ele>
        <time>2021-03-30T11:26:10.000Z</time>
      </trkpt>
      <trkpt lat="44.07998" lon="5.97408">
        <ele>542.2</ele>
        <time>2021-03-30T11:26:11.000Z</time>
      </trkpt>
      <trkpt lat="44.07998" lon="5.9741">
        <ele>542</ele>
        <time>2021-03-30T11:26:13.000Z</time>
      </trkpt>
      <trkpt lat="44.07998" lon="5.97411">
        <ele>542</ele>
        <time>2021-03-30T11:26:14.000Z</time>
      </trkpt>
      <trkpt lat="44.07998" lon="5.97411">
        <ele>542</ele>
        <time>2021-03-30T11:26:15.000Z</time>
      </trkpt>
      <trkpt lat="44.07997" lon="5.97412">
        <ele>542</ele>
        <time>2021-03-30T11:26:17.000Z</time>
      </trkpt>
      <trkpt lat="44.07997" lon="5.97412">
        <ele>542</ele>
        <time>2021-03-30T11:26:18.000Z</time>
      </trkpt>
      <trkpt lat="44.07997" lon="5.97412">
        <ele>541.8</ele>
        <time>2021-03-30T11:26:19.000Z</time>
      </trkpt>
      <trkpt lat="44.07997" lon="5.97412">
        <ele>541.8</ele>
        <time>2021-03-30T11:26:21.000Z</time>
      </trkpt>
      <trkpt lat="44.07997" lon="5.97412">
        <ele>541.8</ele>
        <time>2021-03-30T11:26:22.000Z</time>
      </trkpt>
      <trkpt lat="44.07997" lon="5.97412">
        <ele>541.8</ele>
        <time>2021-03-30T11:26:24.000Z</time>
      </trkpt>
      <trkpt lat="44.07997" lon="5.97413">
        <ele>541.8</ele>
        <time>2021-03-30T11:26:25.000Z</time>
      </trkpt>
      <trkpt lat="44.07996" lon="5.97415">
        <ele>541.8</ele>
        <time>2021-03-30T11:26:26.000Z</time>
      </trkpt>
      <trkpt lat="44.07996" lon="5.97421">
        <ele>541.2</ele>
        <time>2021-03-30T11:26:28.000Z</time>
      </trkpt>
      <trkpt lat="44.07995" lon="5.97424">
        <ele>541</ele>
        <time>2021-03-30T11:26:29.000Z</time>
      </trkpt>
      <trkpt lat="44.07993" lon="5.97426">
        <ele>540.6</ele>
        <time>2021-03-30T11:26:30.000Z</time>
      </trkpt>
      <trkpt lat="44.07988" lon="5.97427">
        <ele>540.2</ele>
        <time>2021-03-30T11:26:32.000Z</time>
      </trkpt>
      <trkpt lat="44.07985" lon="5.97426">
        <ele>540</ele>
        <time>2021-03-30T11:26:33.000Z</time>
      </trkpt>
      <trkpt lat="44.0798" lon="5.97423">
        <ele>539.8</ele>
        <time>2021-03-30T11:26:35.000Z</time>
      </trkpt>
      <trkpt lat="44.07978" lon="5.97422">
        <ele>539.8</ele>
        <time>2021-03-30T11:26:36.000Z</time>
      </trkpt>
      <trkpt lat="44.07976" lon="5.9742">
        <ele>539.8</ele>
        <time>2021-03-30T11:26:37.000Z</time>
      </trkpt>
      <trkpt lat="44.07969" lon="5.97418">
        <ele>539.2</ele>
        <time>2021-03-30T11:26:39.000Z</time>
      </trkpt>
      <trkpt lat="44.07966" lon="5.97419">
        <ele>539</ele>
        <time>2021-03-30T11:26:40.000Z</time>
      </trkpt>
      <trkpt lat="44.07962" lon="5.97421">
        <ele>538.8</ele>
        <time>2021-03-30T11:26:41.000Z</time>
      </trkpt>
      <trkpt lat="44.07956" lon="5.97421">
        <ele>538.4</ele>
        <time>2021-03-30T11:26:43.000Z</time>
      </trkpt>
      <trkpt lat="44.07953" lon="5.97421">
        <ele>538.4</ele>
        <time>2021-03-30T11:26:44.000Z</time>
      </trkpt>
      <trkpt lat="44.07949" lon="5.97422">
        <ele>538.2</ele>
        <time>2021-03-30T11:26:45.000Z</time>
      </trkpt>
      <trkpt lat="44.07942" lon="5.97425">
        <ele>537.6</ele>
        <time>2021-03-30T11:26:47.000Z</time>
      </trkpt>
      <trkpt lat="44.07938" lon="5.97427">
        <ele>537.6</ele>
        <time>2021-03-30T11:26:48.000Z</time>
      </trkpt>
      <trkpt lat="44.0793" lon="5.97428">
        <ele>537.2</ele>
        <time>2021-03-30T11:26:50.000Z</time>
      </trkpt>
      <trkpt lat="44.07924" lon="5.97429">
        <ele>537.2</ele>
        <time>2021-03-30T11:26:51.000Z</time>
      </trkpt>
      <trkpt lat="44.07919" lon="5.9743">
        <ele>537</ele>
        <time>2021-03-30T11:26:52.000Z</time>
      </trkpt>
      <trkpt lat="44.07909" lon="5.9743">
        <ele>536.6</ele>
        <time>2021-03-30T11:26:54.000Z</time>
      </trkpt>
      <trkpt lat="44.07904" lon="5.97431">
        <ele>536.4</ele>
        <time>2021-03-30T11:26:55.000Z</time>
      </trkpt>
      <trkpt lat="44.07901" lon="5.97434">
        <ele>536.2</ele>
        <time>2021-03-30T11:26:56.000Z</time>
      </trkpt>
      <trkpt lat="44.07893" lon="5.97437">
        <ele>535.8</ele>
        <time>2021-03-30T11:26:58.000Z</time>
      </trkpt>
      <trkpt lat="44.0789" lon="5.97439">
        <ele>535.6</ele>
        <time>2021-03-30T11:26:59.000Z</time>
      </trkpt>
      <trkpt lat="44.07882" lon="5.97444">
        <ele>535</ele>
        <time>2021-03-30T11:27:01.000Z</time>
      </trkpt>
      <trkpt lat="44.07875" lon="5.97448">
        <ele>534.8</ele>
        <time>2021-03-30T11:27:02.000Z</time>
      </trkpt>
      <trkpt lat="44.07869" lon="5.97451">
        <ele>534.4</ele>
        <time>2021-03-30T11:27:03.000Z</time>
      </trkpt>
      <trkpt lat="44.07856" lon="5.97456">
        <ele>533.6</ele>
        <time>2021-03-30T11:27:05.000Z</time>
      </trkpt>
      <trkpt lat="44.07851" lon="5.9746">
        <ele>533.2</ele>
        <time>2021-03-30T11:27:06.000Z</time>
      </trkpt>
      <trkpt lat="44.07847" lon="5.97464">
        <ele>533</ele>
        <time>2021-03-30T11:27:07.000Z</time>
      </trkpt>
      <trkpt lat="44.07839" lon="5.97463">
        <ele>532.2</ele>
        <time>2021-03-30T11:27:09.000Z</time>
      </trkpt>
      <trkpt lat="44.07835" lon="5.97463">
        <ele>531.8</ele>
        <time>2021-03-30T11:27:10.000Z</time>
      </trkpt>
      <trkpt lat="44.07825" lon="5.97469">
        <ele>530.8</ele>
        <time>2021-03-30T11:27:12.000Z</time>
      </trkpt>
      <trkpt lat="44.07821" lon="5.97475">
        <ele>530.4</ele>
        <time>2021-03-30T11:27:13.000Z</time>
      </trkpt>
      <trkpt lat="44.07817" lon="5.97481">
        <ele>529.8</ele>
        <time>2021-03-30T11:27:14.000Z</time>
      </trkpt>
      <trkpt lat="44.0781" lon="5.97496">
        <ele>528.6</ele>
        <time>2021-03-30T11:27:16.000Z</time>
      </trkpt>
      <trkpt lat="44.07808" lon="5.97504">
        <ele>528</ele>
        <time>2021-03-30T11:27:17.000Z</time>
      </trkpt>
      <trkpt lat="44.07807" lon="5.97511">
        <ele>527.6</ele>
        <time>2021-03-30T11:27:18.000Z</time>
      </trkpt>
      <trkpt lat="44.07806" lon="5.97519">
        <ele>526.6</ele>
        <time>2021-03-30T11:27:20.000Z</time>
      </trkpt>
      <trkpt lat="44.07805" lon="5.97523">
        <ele>526</ele>
        <time>2021-03-30T11:27:21.000Z</time>
      </trkpt>
      <trkpt lat="44.07804" lon="5.97527">
        <ele>525.6</ele>
        <time>2021-03-30T11:27:22.000Z</time>
      </trkpt>
      <trkpt lat="44.07802" lon="5.97535">
        <ele>524.4</ele>
        <time>2021-03-30T11:27:24.000Z</time>
      </trkpt>
      <trkpt lat="44.07801" lon="5.9754">
        <ele>524</ele>
        <time>2021-03-30T11:27:25.000Z</time>
      </trkpt>
      <trkpt lat="44.078" lon="5.97549">
        <ele>523</ele>
        <time>2021-03-30T11:27:27.000Z</time>
      </trkpt>
      <trkpt lat="44.078" lon="5.97554">
        <ele>522.4</ele>
        <time>2021-03-30T11:27:28.000Z</time>
      </trkpt>
      <trkpt lat="44.07799" lon="5.97558">
        <ele>522</ele>
        <time>2021-03-30T11:27:29.000Z</time>
      </trkpt>
      <trkpt lat="44.07797" lon="5.97567">
        <ele>521.2</ele>
        <time>2021-03-30T11:27:31.000Z</time>
      </trkpt>
      <trkpt lat="44.07797" lon="5.97572">
        <ele>520.8</ele>
        <time>2021-03-30T11:27:32.000Z</time>
      </trkpt>
      <trkpt lat="44.07798" lon="5.97576">
        <ele>520.2</ele>
        <time>2021-03-30T11:27:33.000Z</time>
      </trkpt>
      <trkpt lat="44.07802" lon="5.97583">
        <ele>519.4</ele>
        <time>2021-03-30T11:27:35.000Z</time>
      </trkpt>
      <trkpt lat="44.07805" lon="5.97585">
        <ele>519</ele>
        <time>2021-03-30T11:27:36.000Z</time>
      </trkpt>
      <trkpt lat="44.07811" lon="5.97588">
        <ele>518.2</ele>
        <time>2021-03-30T11:27:38.000Z</time>
      </trkpt>
      <trkpt lat="44.07814" lon="5.97589">
        <ele>518</ele>
        <time>2021-03-30T11:27:39.000Z</time>
      </trkpt>
      <trkpt lat="44.07817" lon="5.97591">
        <ele>518</ele>
        <time>2021-03-30T11:27:40.000Z</time>
      </trkpt>
      <trkpt lat="44.07824" lon="5.97593">
        <ele>517.6</ele>
        <time>2021-03-30T11:27:42.000Z</time>
      </trkpt>
      <trkpt lat="44.07827" lon="5.97595">
        <ele>517.4</ele>
        <time>2021-03-30T11:27:43.000Z</time>
      </trkpt>
      <trkpt lat="44.07831" lon="5.97596">
        <ele>517.2</ele>
        <time>2021-03-30T11:27:44.000Z</time>
      </trkpt>
      <trkpt lat="44.07838" lon="5.976">
        <ele>517.2</ele>
        <time>2021-03-30T11:27:46.000Z</time>
      </trkpt>
      <trkpt lat="44.07842" lon="5.97602">
        <ele>517</ele>
        <time>2021-03-30T11:27:47.000Z</time>
      </trkpt>
      <trkpt lat="44.0785" lon="5.97605">
        <ele>516.8</ele>
        <time>2021-03-30T11:27:49.000Z</time>
      </trkpt>
      <trkpt lat="44.07854" lon="5.97606">
        <ele>516.8</ele>
        <time>2021-03-30T11:27:50.000Z</time>
      </trkpt>
      <trkpt lat="44.07858" lon="5.97608">
        <ele>516.8</ele>
        <time>2021-03-30T11:27:51.000Z</time>
      </trkpt>
      <trkpt lat="44.07867" lon="5.97612">
        <ele>516.8</ele>
        <time>2021-03-30T11:27:53.000Z</time>
      </trkpt>
      <trkpt lat="44.07871" lon="5.97615">
        <ele>516.8</ele>
        <time>2021-03-30T11:27:54.000Z</time>
      </trkpt>
      <trkpt lat="44.07875" lon="5.97617">
        <ele>516.6</ele>
        <time>2021-03-30T11:27:55.000Z</time>
      </trkpt>
      <trkpt lat="44.07884" lon="5.97623">
        <ele>516.4</ele>
        <time>2021-03-30T11:27:57.000Z</time>
      </trkpt>
      <trkpt lat="44.07888" lon="5.97625">
        <ele>516.4</ele>
        <time>2021-03-30T11:27:58.000Z</time>
      </trkpt>
      <trkpt lat="44.07896" lon="5.97629">
        <ele>516.6</ele>
        <time>2021-03-30T11:28:00.000Z</time>
      </trkpt>
      <trkpt lat="44.07901" lon="5.97631">
        <ele>516.6</ele>
        <time>2021-03-30T11:28:01.000Z</time>
      </trkpt>
      <trkpt lat="44.07905" lon="5.97633">
        <ele>516.8</ele>
        <time>2021-03-30T11:28:02.000Z</time>
      </trkpt>
      <trkpt lat="44.07914" lon="5.97634">
        <ele>517</ele>
        <time>2021-03-30T11:28:04.000Z</time>
      </trkpt>
      <trkpt lat="44.07918" lon="5.97634">
        <ele>517.4</ele>
        <time>2021-03-30T11:28:05.000Z</time>
      </trkpt>
      <trkpt lat="44.07922" lon="5.97633">
        <ele>517.6</ele>
        <time>2021-03-30T11:28:06.000Z</time>
      </trkpt>
      <trkpt lat="44.07929" lon="5.97632">
        <ele>518</ele>
        <time>2021-03-30T11:28:08.000Z</time>
      </trkpt>
      <trkpt lat="44.07932" lon="5.97632">
        <ele>518.2</ele>
        <time>2021-03-30T11:28:09.000Z</time>
      </trkpt>
      <trkpt lat="44.07936" lon="5.97632">
        <ele>518.6</ele>
        <time>2021-03-30T11:28:10.000Z</time>
      </trkpt>
      <trkpt lat="44.07943" lon="5.97632">
        <ele>519</ele>
        <time>2021-03-30T11:28:12.000Z</time>
      </trkpt>
      <trkpt lat="44.07946" lon="5.97633">
        <ele>519.2</ele>
        <time>2021-03-30T11:28:13.000Z</time>
      </trkpt>
      <trkpt lat="44.07954" lon="5.97635">
        <ele>519.6</ele>
        <time>2021-03-30T11:28:15.000Z</time>
      </trkpt>
      <trkpt lat="44.07958" lon="5.97635">
        <ele>520</ele>
        <time>2021-03-30T11:28:16.000Z</time>
      </trkpt>
      <trkpt lat="44.07961" lon="5.97635">
        <ele>520.2</ele>
        <time>2021-03-30T11:28:17.000Z</time>
      </trkpt>
      <trkpt lat="44.07969" lon="5.97635">
        <ele>520.6</ele>
        <time>2021-03-30T11:28:19.000Z</time>
      </trkpt>
      <trkpt lat="44.07972" lon="5.97635">
        <ele>521</ele>
        <time>2021-03-30T11:28:20.000Z</time>
      </trkpt>
      <trkpt lat="44.07976" lon="5.97635">
        <ele>521.2</ele>
        <time>2021-03-30T11:28:21.000Z</time>
      </trkpt>
      <trkpt lat="44.07983" lon="5.97636">
        <ele>521.8</ele>
        <time>2021-03-30T11:28:23.000Z</time>
      </trkpt>
      <trkpt lat="44.07987" lon="5.97637">
        <ele>522</ele>
        <time>2021-03-30T11:28:24.000Z</time>
      </trkpt>
      <trkpt lat="44.07995" lon="5.97638">
        <ele>522.6</ele>
        <time>2021-03-30T11:28:26.000Z</time>
      </trkpt>
      <trkpt lat="44.07999" lon="5.97638">
        <ele>522.8</ele>
        <time>2021-03-30T11:28:27.000Z</time>
      </trkpt>
      <trkpt lat="44.08003" lon="5.97638">
        <ele>523</ele>
        <time>2021-03-30T11:28:28.000Z</time>
      </trkpt>
      <trkpt lat="44.08011" lon="5.97636">
        <ele>523.4</ele>
        <time>2021-03-30T11:28:30.000Z</time>
      </trkpt>
      <trkpt lat="44.08015" lon="5.97634">
        <ele>523.6</ele>
        <time>2021-03-30T11:28:31.000Z</time>
      </trkpt>
      <trkpt lat="44.08019" lon="5.97632">
        <ele>523.8</ele>
        <time>2021-03-30T11:28:32.000Z</time>
      </trkpt>
      <trkpt lat="44.08025" lon="5.97628">
        <ele>524.2</ele>
        <time>2021-03-30T11:28:34.000Z</time>
      </trkpt>
      <trkpt lat="44.08029" lon="5.97626">
        <ele>524.4</ele>
        <time>2021-03-30T11:28:35.000Z</time>
      </trkpt>
      <trkpt lat="44.08036" lon="5.97626">
        <ele>524.8</ele>
        <time>2021-03-30T11:28:37.000Z</time>
      </trkpt>
      <trkpt lat="44.08039" lon="5.97625">
        <ele>525.2</ele>
        <time>2021-03-30T11:28:38.000Z</time>
      </trkpt>
      <trkpt lat="44.08043" lon="5.97625">
        <ele>525.4</ele>
        <time>2021-03-30T11:28:39.000Z</time>
      </trkpt>
      <trkpt lat="44.08049" lon="5.97623">
        <ele>526</ele>
        <time>2021-03-30T11:28:41.000Z</time>
      </trkpt>
      <trkpt lat="44.08052" lon="5.97622">
        <ele>526.4</ele>
        <time>2021-03-30T11:28:42.000Z</time>
      </trkpt>
      <trkpt lat="44.08056" lon="5.97621">
        <ele>526.6</ele>
        <time>2021-03-30T11:28:43.000Z</time>
      </trkpt>
      <trkpt lat="44.08061" lon="5.97619">
        <ele>527.2</ele>
        <time>2021-03-30T11:28:45.000Z</time>
      </trkpt>
      <trkpt lat="44.08064" lon="5.97619">
        <ele>527.6</ele>
        <time>2021-03-30T11:28:46.000Z</time>
      </trkpt>
      <trkpt lat="44.08067" lon="5.97619">
        <ele>528</ele>
        <time>2021-03-30T11:28:47.000Z</time>
      </trkpt>
      <trkpt lat="44.08071" lon="5.97619">
        <ele>528.6</ele>
        <time>2021-03-30T11:28:49.000Z</time>
      </trkpt>
      <trkpt lat="44.08073" lon="5.97618">
        <ele>529</ele>
        <time>2021-03-30T11:28:50.000Z</time>
      </trkpt>
      <trkpt lat="44.08077" lon="5.97618">
        <ele>529.8</ele>
        <time>2021-03-30T11:28:52.000Z</time>
      </trkpt>
      <trkpt lat="44.0808" lon="5.97618">
        <ele>530.2</ele>
        <time>2021-03-30T11:28:53.000Z</time>
      </trkpt>
      <trkpt lat="44.08082" lon="5.97618">
        <ele>530.6</ele>
        <time>2021-03-30T11:28:54.000Z</time>
      </trkpt>
      <trkpt lat="44.08087" lon="5.97619">
        <ele>531.4</ele>
        <time>2021-03-30T11:28:56.000Z</time>
      </trkpt>
      <trkpt lat="44.08089" lon="5.9762">
        <ele>531.8</ele>
        <time>2021-03-30T11:28:57.000Z</time>
      </trkpt>
      <trkpt lat="44.08092" lon="5.97621">
        <ele>532.2</ele>
        <time>2021-03-30T11:28:58.000Z</time>
      </trkpt>
      <trkpt lat="44.08096" lon="5.97623">
        <ele>532.8</ele>
        <time>2021-03-30T11:29:00.000Z</time>
      </trkpt>
      <trkpt lat="44.08098" lon="5.97624">
        <ele>533</ele>
        <time>2021-03-30T11:29:01.000Z</time>
      </trkpt>
      <trkpt lat="44.08102" lon="5.97627">
        <ele>533.2</ele>
        <time>2021-03-30T11:29:03.000Z</time>
      </trkpt>
      <trkpt lat="44.08105" lon="5.97629">
        <ele>533.4</ele>
        <time>2021-03-30T11:29:04.000Z</time>
      </trkpt>
      <trkpt lat="44.08108" lon="5.97631">
        <ele>533.4</ele>
        <time>2021-03-30T11:29:05.000Z</time>
      </trkpt>
      <trkpt lat="44.08113" lon="5.97634">
        <ele>534</ele>
        <time>2021-03-30T11:29:07.000Z</time>
      </trkpt>
      <trkpt lat="44.08116" lon="5.97636">
        <ele>534.2</ele>
        <time>2021-03-30T11:29:08.000Z</time>
      </trkpt>
      <trkpt lat="44.08118" lon="5.97637">
        <ele>534.4</ele>
        <time>2021-03-30T11:29:09.000Z</time>
      </trkpt>
      <trkpt lat="44.08124" lon="5.97639">
        <ele>535</ele>
        <time>2021-03-30T11:29:11.000Z</time>
      </trkpt>
      <trkpt lat="44.08127" lon="5.97641">
        <ele>535.4</ele>
        <time>2021-03-30T11:29:12.000Z</time>
      </trkpt>
      <trkpt lat="44.08133" lon="5.97643">
        <ele>536.2</ele>
        <time>2021-03-30T11:29:14.000Z</time>
      </trkpt>
      <trkpt lat="44.08135" lon="5.97645">
        <ele>536.4</ele>
        <time>2021-03-30T11:29:15.000Z</time>
      </trkpt>
      <trkpt lat="44.08138" lon="5.97646">
        <ele>536.8</ele>
        <time>2021-03-30T11:29:16.000Z</time>
      </trkpt>
      <trkpt lat="44.08145" lon="5.9765">
        <ele>537.2</ele>
        <time>2021-03-30T11:29:18.000Z</time>
      </trkpt>
      <trkpt lat="44.08148" lon="5.97651">
        <ele>537.6</ele>
        <time>2021-03-30T11:29:19.000Z</time>
      </trkpt>
      <trkpt lat="44.08151" lon="5.97652">
        <ele>537.8</ele>
        <time>2021-03-30T11:29:20.000Z</time>
      </trkpt>
      <trkpt lat="44.08157" lon="5.97655">
        <ele>538.4</ele>
        <time>2021-03-30T11:29:22.000Z</time>
      </trkpt>
      <trkpt lat="44.0816" lon="5.97655">
        <ele>538.6</ele>
        <time>2021-03-30T11:29:23.000Z</time>
      </trkpt>
      <trkpt lat="44.08164" lon="5.97656">
        <ele>539</ele>
        <time>2021-03-30T11:29:24.000Z</time>
      </trkpt>
      <trkpt lat="44.0817" lon="5.97658">
        <ele>539.6</ele>
        <time>2021-03-30T11:29:26.000Z</time>
      </trkpt>
      <trkpt lat="44.08173" lon="5.97659">
        <ele>539.8</ele>
        <time>2021-03-30T11:29:27.000Z</time>
      </trkpt>
      <trkpt lat="44.0818" lon="5.97661">
        <ele>540.2</ele>
        <time>2021-03-30T11:29:29.000Z</time>
      </trkpt>
      <trkpt lat="44.08183" lon="5.97663">
        <ele>540.6</ele>
        <time>2021-03-30T11:29:30.000Z</time>
      </trkpt>
      <trkpt lat="44.08187" lon="5.97664">
        <ele>540.6</ele>
        <time>2021-03-30T11:29:31.000Z</time>
      </trkpt>
      <trkpt lat="44.08192" lon="5.97666">
        <ele>541.2</ele>
        <time>2021-03-30T11:29:33.000Z</time>
      </trkpt>
      <trkpt lat="44.08195" lon="5.97667">
        <ele>541.4</ele>
        <time>2021-03-30T11:29:34.000Z</time>
      </trkpt>
      <trkpt lat="44.08198" lon="5.97668">
        <ele>541.6</ele>
        <time>2021-03-30T11:29:35.000Z</time>
      </trkpt>
      <trkpt lat="44.08204" lon="5.9767">
        <ele>542</ele>
        <time>2021-03-30T11:29:37.000Z</time>
      </trkpt>
      <trkpt lat="44.08208" lon="5.97671">
        <ele>542.2</ele>
        <time>2021-03-30T11:29:38.000Z</time>
      </trkpt>
      <trkpt lat="44.08214" lon="5.97673">
        <ele>542.8</ele>
        <time>2021-03-30T11:29:40.000Z</time>
      </trkpt>
      <trkpt lat="44.08217" lon="5.97674">
        <ele>543</ele>
        <time>2021-03-30T11:29:41.000Z</time>
      </trkpt>
      <trkpt lat="44.08221" lon="5.97676">
        <ele>543.2</ele>
        <time>2021-03-30T11:29:42.000Z</time>
      </trkpt>
      <trkpt lat="44.08227" lon="5.97677">
        <ele>543.6</ele>
        <time>2021-03-30T11:29:44.000Z</time>
      </trkpt>
      <trkpt lat="44.0823" lon="5.97678">
        <ele>543.8</ele>
        <time>2021-03-30T11:29:45.000Z</time>
      </trkpt>
      <trkpt lat="44.08232" lon="5.97678">
        <ele>544.2</ele>
        <time>2021-03-30T11:29:46.000Z</time>
      </trkpt>
      <trkpt lat="44.08235" lon="5.97679">
        <ele>544.4</ele>
        <time>2021-03-30T11:29:48.000Z</time>
      </trkpt>
      <trkpt lat="44.08237" lon="5.9768">
        <ele>544.6</ele>
        <time>2021-03-30T11:29:49.000Z</time>
      </trkpt>
      <trkpt lat="44.08238" lon="5.9768">
        <ele>545</ele>
        <time>2021-03-30T11:29:51.000Z</time>
      </trkpt>
      <trkpt lat="44.08238" lon="5.9768">
        <ele>545</ele>
        <time>2021-03-30T11:29:52.000Z</time>
      </trkpt>
      <trkpt lat="44.08238" lon="5.9768">
        <ele>545.2</ele>
        <time>2021-03-30T11:29:53.000Z</time>
      </trkpt>
      <trkpt lat="44.08238" lon="5.9768">
        <ele>545.6</ele>
        <time>2021-03-30T11:29:55.000Z</time>
      </trkpt>
      <trkpt lat="44.08238" lon="5.9768">
        <ele>545.6</ele>
        <time>2021-03-30T11:29:56.000Z</time>
      </trkpt>
      <trkpt lat="44.08238" lon="5.9768">
        <ele>545.8</ele>
        <time>2021-03-30T11:29:57.000Z</time>
      </trkpt>
      <trkpt lat="44.08238" lon="5.9768">
        <ele>546</ele>
        <time>2021-03-30T11:29:59.000Z</time>
      </trkpt>
      <trkpt lat="44.08238" lon="5.9768">
        <ele>546</ele>
        <time>2021-03-30T11:30:00.000Z</time>
      </trkpt>
      <trkpt lat="44.08238" lon="5.9768">
        <ele>546.2</ele>
        <time>2021-03-30T11:30:02.000Z</time>
      </trkpt>
      <trkpt lat="44.08238" lon="5.9768">
        <ele>546.2</ele>
        <time>2021-03-30T11:30:03.000Z</time>
      </trkpt>
      <trkpt lat="44.08238" lon="5.9768">
        <ele>546.2</ele>
        <time>2021-03-30T11:30:04.000Z</time>
      </trkpt>
      <trkpt lat="44.08238" lon="5.9768">
        <ele>546.2</ele>
        <time>2021-03-30T11:30:06.000Z</time>
      </trkpt>
      <trkpt lat="44.08238" lon="5.9768">
        <ele>546.2</ele>
        <time>2021-03-30T11:30:07.000Z</time>
      </trkpt>
      <trkpt lat="44.08238" lon="5.9768">
        <ele>546</ele>
        <time>2021-03-30T11:30:08.000Z</time>
      </trkpt>
      <trkpt lat="44.08238" lon="5.9768">
        <ele>545.8</ele>
        <time>2021-03-30T11:30:10.000Z</time>
      </trkpt>
      <trkpt lat="44.08238" lon="5.9768">
        <ele>545.6</ele>
        <time>2021-03-30T11:30:11.000Z</time>
      </trkpt>
      <trkpt lat="44.08238" lon="5.9768">
        <ele>545.4</ele>
        <time>2021-03-30T11:30:12.000Z</time>
      </trkpt>
      <trkpt lat="44.08238" lon="5.9768">
        <ele>545</ele>
        <time>2021-03-30T11:30:14.000Z</time>
      </trkpt>
      <trkpt lat="44.08238" lon="5.9768">
        <ele>544.8</ele>
        <time>2021-03-30T11:30:15.000Z</time>
      </trkpt>
      <trkpt lat="44.08238" lon="5.9768">
        <ele>544.2</ele>
        <time>2021-03-30T11:30:17.000Z</time>
      </trkpt>
      <trkpt lat="44.08238" lon="5.9768">
        <ele>544</ele>
        <time>2021-03-30T11:30:18.000Z</time>
      </trkpt>
      <trkpt lat="44.08238" lon="5.9768">
        <ele>543.6</ele>
        <time>2021-03-30T11:30:19.000Z</time>
      </trkpt>
      <trkpt lat="44.0824" lon="5.97685">
        <ele>543</ele>
        <time>2021-03-30T11:30:21.000Z</time>
      </trkpt>
      <trkpt lat="44.0824" lon="5.97689">
        <ele>542.6</ele>
        <time>2021-03-30T11:30:22.000Z</time>
      </trkpt>
      <trkpt lat="44.08241" lon="5.97691">
        <ele>542.2</ele>
        <time>2021-03-30T11:30:23.000Z</time>
      </trkpt>
      <trkpt lat="44.08241" lon="5.97698">
        <ele>541.8</ele>
        <time>2021-03-30T11:30:25.000Z</time>
      </trkpt>
      <trkpt lat="44.0824" lon="5.97702">
        <ele>541.4</ele>
        <time>2021-03-30T11:30:26.000Z</time>
      </trkpt>
      <trkpt lat="44.08239" lon="5.97711">
        <ele>541.2</ele>
        <time>2021-03-30T11:30:28.000Z</time>
      </trkpt>
      <trkpt lat="44.08239" lon="5.97716">
        <ele>541</ele>
        <time>2021-03-30T11:30:29.000Z</time>
      </trkpt>
      <trkpt lat="44.08238" lon="5.97721">
        <ele>540.8</ele>
        <time>2021-03-30T11:30:30.000Z</time>
      </trkpt>
      <trkpt lat="44.08239" lon="5.9773">
        <ele>540.4</ele>
        <time>2021-03-30T11:30:32.000Z</time>
      </trkpt>
      <trkpt lat="44.0824" lon="5.97735">
        <ele>540.2</ele>
        <time>2021-03-30T11:30:33.000Z</time>
      </trkpt>
      <trkpt lat="44.08241" lon="5.9774">
        <ele>540</ele>
        <time>2021-03-30T11:30:34.000Z</time>
      </trkpt>
      <trkpt lat="44.08245" lon="5.97748">
        <ele>539.6</ele>
        <time>2021-03-30T11:30:36.000Z</time>
      </trkpt>
      <trkpt lat="44.08248" lon="5.97751">
        <ele>539.4</ele>
        <time>2021-03-30T11:30:37.000Z</time>
      </trkpt>
      <trkpt lat="44.08255" lon="5.97753">
        <ele>539.2</ele>
        <time>2021-03-30T11:30:39.000Z</time>
      </trkpt>
      <trkpt lat="44.08259" lon="5.97754">
        <ele>539.2</ele>
        <time>2021-03-30T11:30:40.000Z</time>
      </trkpt>
      <trkpt lat="44.08263" lon="5.97755">
        <ele>539.2</ele>
        <time>2021-03-30T11:30:41.000Z</time>
      </trkpt>
      <trkpt lat="44.0827" lon="5.97757">
        <ele>539.6</ele>
        <time>2021-03-30T11:30:43.000Z</time>
      </trkpt>
      <trkpt lat="44.08273" lon="5.97758">
        <ele>539.6</ele>
        <time>2021-03-30T11:30:44.000Z</time>
      </trkpt>
      <trkpt lat="44.08276" lon="5.97759">
        <ele>539.8</ele>
        <time>2021-03-30T11:30:45.000Z</time>
      </trkpt>
      <trkpt lat="44.08283" lon="5.97762">
        <ele>540.2</ele>
        <time>2021-03-30T11:30:47.000Z</time>
      </trkpt>
      <trkpt lat="44.08286" lon="5.97763">
        <ele>540.4</ele>
        <time>2021-03-30T11:30:48.000Z</time>
      </trkpt>
      <trkpt lat="44.0829" lon="5.97765">
        <ele>540.6</ele>
        <time>2021-03-30T11:30:49.000Z</time>
      </trkpt>
      <trkpt lat="44.08297" lon="5.97769">
        <ele>540.8</ele>
        <time>2021-03-30T11:30:51.000Z</time>
      </trkpt>
      <trkpt lat="44.08299" lon="5.97772">
        <ele>541</ele>
        <time>2021-03-30T11:30:52.000Z</time>
      </trkpt>
      <trkpt lat="44.08305" lon="5.97777">
        <ele>541</ele>
        <time>2021-03-30T11:30:54.000Z</time>
      </trkpt>
      <trkpt lat="44.08307" lon="5.9778">
        <ele>541</ele>
        <time>2021-03-30T11:30:55.000Z</time>
      </trkpt>
      <trkpt lat="44.0831" lon="5.97783">
        <ele>541.2</ele>
        <time>2021-03-30T11:30:56.000Z</time>
      </trkpt>
      <trkpt lat="44.08315" lon="5.97788">
        <ele>541.4</ele>
        <time>2021-03-30T11:30:58.000Z</time>
      </trkpt>
      <trkpt lat="44.08318" lon="5.97791">
        <ele>541.4</ele>
        <time>2021-03-30T11:30:59.000Z</time>
      </trkpt>
      <trkpt lat="44.08321" lon="5.97793">
        <ele>541.4</ele>
        <time>2021-03-30T11:31:00.000Z</time>
      </trkpt>
      <trkpt lat="44.08326" lon="5.97798">
        <ele>541.6</ele>
        <time>2021-03-30T11:31:02.000Z</time>
      </trkpt>
      <trkpt lat="44.08329" lon="5.978">
        <ele>541.8</ele>
        <time>2021-03-30T11:31:03.000Z</time>
      </trkpt>
      <trkpt lat="44.08335" lon="5.97805">
        <ele>542.2</ele>
        <time>2021-03-30T11:31:05.000Z</time>
      </trkpt>
      <trkpt lat="44.08338" lon="5.97807">
        <ele>542.4</ele>
        <time>2021-03-30T11:31:06.000Z</time>
      </trkpt>
      <trkpt lat="44.08341" lon="5.9781">
        <ele>542.6</ele>
        <time>2021-03-30T11:31:07.000Z</time>
      </trkpt>
      <trkpt lat="44.08348" lon="5.97815">
        <ele>543.2</ele>
        <time>2021-03-30T11:31:09.000Z</time>
      </trkpt>
      <trkpt lat="44.08352" lon="5.97817">
        <ele>543.4</ele>
        <time>2021-03-30T11:31:10.000Z</time>
      </trkpt>
      <trkpt lat="44.08355" lon="5.97818">
        <ele>543.8</ele>
        <time>2021-03-30T11:31:11.000Z</time>
      </trkpt>
      <trkpt lat="44.08362" lon="5.97822">
        <ele>544.4</ele>
        <time>2021-03-30T11:31:13.000Z</time>
      </trkpt>
      <trkpt lat="44.08366" lon="5.97824">
        <ele>544.6</ele>
        <time>2021-03-30T11:31:14.000Z</time>
      </trkpt>
      <trkpt lat="44.08373" lon="5.97826">
        <ele>545.4</ele>
        <time>2021-03-30T11:31:16.000Z</time>
      </trkpt>
      <trkpt lat="44.08377" lon="5.97828">
        <ele>545.8</ele>
        <time>2021-03-30T11:31:17.000Z</time>
      </trkpt>
      <trkpt lat="44.08381" lon="5.97829">
        <ele>546.2</ele>
        <time>2021-03-30T11:31:18.000Z</time>
      </trkpt>
      <trkpt lat="44.08389" lon="5.97832">
        <ele>547</ele>
        <time>2021-03-30T11:31:20.000Z</time>
      </trkpt>
      <trkpt lat="44.08393" lon="5.97834">
        <ele>547.4</ele>
        <time>2021-03-30T11:31:21.000Z</time>
      </trkpt>
      <trkpt lat="44.08397" lon="5.97835">
        <ele>547.8</ele>
        <time>2021-03-30T11:31:22.000Z</time>
      </trkpt>
      <trkpt lat="44.08404" lon="5.97838">
        <ele>548.4</ele>
        <time>2021-03-30T11:31:24.000Z</time>
      </trkpt>
      <trkpt lat="44.08408" lon="5.97839">
        <ele>549</ele>
        <time>2021-03-30T11:31:25.000Z</time>
      </trkpt>
      <trkpt lat="44.08412" lon="5.97841">
        <ele>549.4</ele>
        <time>2021-03-30T11:31:26.000Z</time>
      </trkpt>
      <trkpt lat="44.0842" lon="5.97844">
        <ele>550.4</ele>
        <time>2021-03-30T11:31:28.000Z</time>
      </trkpt>
      <trkpt lat="44.08424" lon="5.97845">
        <ele>550.8</ele>
        <time>2021-03-30T11:31:29.000Z</time>
      </trkpt>
      <trkpt lat="44.08432" lon="5.97848">
        <ele>551.8</ele>
        <time>2021-03-30T11:31:31.000Z</time>
      </trkpt>
      <trkpt lat="44.08436" lon="5.97849">
        <ele>552.2</ele>
        <time>2021-03-30T11:31:32.000Z</time>
      </trkpt>
      <trkpt lat="44.0844" lon="5.97851">
        <ele>552.8</ele>
        <time>2021-03-30T11:31:33.000Z</time>
      </trkpt>
      <trkpt lat="44.08448" lon="5.97853">
        <ele>553.8</ele>
        <time>2021-03-30T11:31:35.000Z</time>
      </trkpt>
      <trkpt lat="44.08452" lon="5.97855">
        <ele>554.2</ele>
        <time>2021-03-30T11:31:36.000Z</time>
      </trkpt>
      <trkpt lat="44.08456" lon="5.97857">
        <ele>554.8</ele>
        <time>2021-03-30T11:31:37.000Z</time>
      </trkpt>
      <trkpt lat="44.08464" lon="5.9786">
        <ele>555.8</ele>
        <time>2021-03-30T11:31:39.000Z</time>
      </trkpt>
      <trkpt lat="44.08468" lon="5.97862">
        <ele>556.2</ele>
        <time>2021-03-30T11:31:40.000Z</time>
      </trkpt>
      <trkpt lat="44.08476" lon="5.97866">
        <ele>557</ele>
        <time>2021-03-30T11:31:42.000Z</time>
      </trkpt>
      <trkpt lat="44.08479" lon="5.97868">
        <ele>557.4</ele>
        <time>2021-03-30T11:31:43.000Z</time>
      </trkpt>
      <trkpt lat="44.08483" lon="5.97871">
        <ele>557.8</ele>
        <time>2021-03-30T11:31:44.000Z</time>
      </trkpt>
      <trkpt lat="44.08492" lon="5.97874">
        <ele>558.8</ele>
        <time>2021-03-30T11:31:46.000Z</time>
      </trkpt>
      <trkpt lat="44.08495" lon="5.97875">
        <ele>559.2</ele>
        <time>2021-03-30T11:31:47.000Z</time>
      </trkpt>
      <trkpt lat="44.085" lon="5.97877">
        <ele>559.6</ele>
        <time>2021-03-30T11:31:48.000Z</time>
      </trkpt>
      <trkpt lat="44.08508" lon="5.9788">
        <ele>560.6</ele>
        <time>2021-03-30T11:31:50.000Z</time>
      </trkpt>
      <trkpt lat="44.08512" lon="5.97881">
        <ele>561</ele>
        <time>2021-03-30T11:31:51.000Z</time>
      </trkpt>
      <trkpt lat="44.08521" lon="5.97883">
        <ele>562.2</ele>
        <time>2021-03-30T11:31:53.000Z</time>
      </trkpt>
      <trkpt lat="44.08525" lon="5.97884">
        <ele>562.6</ele>
        <time>2021-03-30T11:31:54.000Z</time>
      </trkpt>
      <trkpt lat="44.0853" lon="5.97884">
        <ele>563.2</ele>
        <time>2021-03-30T11:31:55.000Z</time>
      </trkpt>
      <trkpt lat="44.08538" lon="5.97887">
        <ele>564.2</ele>
        <time>2021-03-30T11:31:57.000Z</time>
      </trkpt>
      <trkpt lat="44.08543" lon="5.97888">
        <ele>564.6</ele>
        <time>2021-03-30T11:31:58.000Z</time>
      </trkpt>
      <trkpt lat="44.08547" lon="5.9789">
        <ele>565</ele>
        <time>2021-03-30T11:31:59.000Z</time>
      </trkpt>
      <trkpt lat="44.08555" lon="5.97892">
        <ele>565.8</ele>
        <time>2021-03-30T11:32:01.000Z</time>
      </trkpt>
      <trkpt lat="44.08559" lon="5.97892">
        <ele>566.2</ele>
        <time>2021-03-30T11:32:02.000Z</time>
      </trkpt>
      <trkpt lat="44.08567" lon="5.97893">
        <ele>567.2</ele>
        <time>2021-03-30T11:32:04.000Z</time>
      </trkpt>
      <trkpt lat="44.08572" lon="5.97894">
        <ele>567.6</ele>
        <time>2021-03-30T11:32:05.000Z</time>
      </trkpt>
      <trkpt lat="44.08576" lon="5.97895">
        <ele>568.2</ele>
        <time>2021-03-30T11:32:06.000Z</time>
      </trkpt>
      <trkpt lat="44.08584" lon="5.97895">
        <ele>569</ele>
        <time>2021-03-30T11:32:08.000Z</time>
      </trkpt>
      <trkpt lat="44.08587" lon="5.97895">
        <ele>569.4</ele>
        <time>2021-03-30T11:32:09.000Z</time>
      </trkpt>
      <trkpt lat="44.0859" lon="5.97896">
        <ele>569.8</ele>
        <time>2021-03-30T11:32:10.000Z</time>
      </trkpt>
      <trkpt lat="44.08592" lon="5.97901">
        <ele>570.4</ele>
        <time>2021-03-30T11:32:12.000Z</time>
      </trkpt>
      <trkpt lat="44.08592" lon="5.97904">
        <ele>570.8</ele>
        <time>2021-03-30T11:32:13.000Z</time>
      </trkpt>
      <trkpt lat="44.08591" lon="5.97906">
        <ele>571.2</ele>
        <time>2021-03-30T11:32:14.000Z</time>
      </trkpt>
      <trkpt lat="44.08588" lon="5.97911">
        <ele>571.6</ele>
        <time>2021-03-30T11:32:16.000Z</time>
      </trkpt>
      <trkpt lat="44.08586" lon="5.97913">
        <ele>571.6</ele>
        <time>2021-03-30T11:32:17.000Z</time>
      </trkpt>
      <trkpt lat="44.08579" lon="5.97918">
        <ele>571.8</ele>
        <time>2021-03-30T11:32:19.000Z</time>
      </trkpt>
      <trkpt lat="44.08575" lon="5.97919">
        <ele>571.8</ele>
        <time>2021-03-30T11:32:20.000Z</time>
      </trkpt>
      <trkpt lat="44.08572" lon="5.9792">
        <ele>571.8</ele>
        <time>2021-03-30T11:32:21.000Z</time>
      </trkpt>
      <trkpt lat="44.08564" lon="5.97923">
        <ele>571.8</ele>
        <time>2021-03-30T11:32:23.000Z</time>
      </trkpt>
      <trkpt lat="44.0856" lon="5.97925">
        <ele>571.8</ele>
        <time>2021-03-30T11:32:24.000Z</time>
      </trkpt>
      <trkpt lat="44.08557" lon="5.97927">
        <ele>571.8</ele>
        <time>2021-03-30T11:32:25.000Z</time>
      </trkpt>
      <trkpt lat="44.08549" lon="5.97932">
        <ele>571.8</ele>
        <time>2021-03-30T11:32:27.000Z</time>
      </trkpt>
      <trkpt lat="44.08546" lon="5.97932">
        <ele>571.6</ele>
        <time>2021-03-30T11:32:28.000Z</time>
      </trkpt>
      <trkpt lat="44.08539" lon="5.97931">
        <ele>571.6</ele>
        <time>2021-03-30T11:32:30.000Z</time>
      </trkpt>
      <trkpt lat="44.08535" lon="5.97929">
        <ele>571.6</ele>
        <time>2021-03-30T11:32:31.000Z</time>
      </trkpt>
      <trkpt lat="44.08531" lon="5.97928">
        <ele>571.6</ele>
        <time>2021-03-30T11:32:32.000Z</time>
      </trkpt>
      <trkpt lat="44.08522" lon="5.97927">
        <ele>571.6</ele>
        <time>2021-03-30T11:32:34.000Z</time>
      </trkpt>
      <trkpt lat="44.08518" lon="5.97927">
        <ele>571.6</ele>
        <time>2021-03-30T11:32:35.000Z</time>
      </trkpt>
      <trkpt lat="44.08513" lon="5.97926">
        <ele>571.6</ele>
        <time>2021-03-30T11:32:36.000Z</time>
      </trkpt>
      <trkpt lat="44.08503" lon="5.97926">
        <ele>571.6</ele>
        <time>2021-03-30T11:32:38.000Z</time>
      </trkpt>
      <trkpt lat="44.08499" lon="5.97926">
        <ele>571.6</ele>
        <time>2021-03-30T11:32:39.000Z</time>
      </trkpt>
      <trkpt lat="44.08496" lon="5.97927">
        <ele>571.4</ele>
        <time>2021-03-30T11:32:41.000Z</time>
      </trkpt>
      <trkpt lat="44.08495" lon="5.97927">
        <ele>571.2</ele>
        <time>2021-03-30T11:32:42.000Z</time>
      </trkpt>
      <trkpt lat="44.08495" lon="5.97927">
        <ele>571.2</ele>
        <time>2021-03-30T11:32:43.000Z</time>
      </trkpt>
      <trkpt lat="44.08495" lon="5.97927">
        <ele>571</ele>
        <time>2021-03-30T11:32:45.000Z</time>
      </trkpt>
      <trkpt lat="44.08495" lon="5.97927">
        <ele>571</ele>
        <time>2021-03-30T11:32:46.000Z</time>
      </trkpt>
      <trkpt lat="44.08495" lon="5.97927">
        <ele>570.8</ele>
        <time>2021-03-30T11:32:47.000Z</time>
      </trkpt>
      <trkpt lat="44.08495" lon="5.97927">
        <ele>570.4</ele>
        <time>2021-03-30T11:32:49.000Z</time>
      </trkpt>
      <trkpt lat="44.08495" lon="5.97927">
        <ele>570.2</ele>
        <time>2021-03-30T11:32:50.000Z</time>
      </trkpt>
      <trkpt lat="44.08495" lon="5.97927">
        <ele>570</ele>
        <time>2021-03-30T11:32:51.000Z</time>
      </trkpt>
      <trkpt lat="44.08495" lon="5.97927">
        <ele>569.4</ele>
        <time>2021-03-30T11:32:53.000Z</time>
      </trkpt>
      <trkpt lat="44.08495" lon="5.97927">
        <ele>569.4</ele>
        <time>2021-03-30T11:32:54.000Z</time>
      </trkpt>
      <trkpt lat="44.08495" lon="5.97927">
        <ele>568.8</ele>
        <time>2021-03-30T11:32:56.000Z</time>
      </trkpt>
      <trkpt lat="44.08495" lon="5.97927">
        <ele>568.6</ele>
        <time>2021-03-30T11:32:57.000Z</time>
      </trkpt>
      <trkpt lat="44.08495" lon="5.97927">
        <ele>568.4</ele>
        <time>2021-03-30T11:32:58.000Z</time>
      </trkpt>
      <trkpt lat="44.08495" lon="5.97927">
        <ele>567.8</ele>
        <time>2021-03-30T11:33:00.000Z</time>
      </trkpt>
      <trkpt lat="44.08495" lon="5.97927">
        <ele>567.6</ele>
        <time>2021-03-30T11:33:01.000Z</time>
      </trkpt>
      <trkpt lat="44.08495" lon="5.97927">
        <ele>567.2</ele>
        <time>2021-03-30T11:33:02.000Z</time>
      </trkpt>
      <trkpt lat="44.08495" lon="5.97927">
        <ele>566.6</ele>
        <time>2021-03-30T11:33:04.000Z</time>
      </trkpt>
      <trkpt lat="44.08495" lon="5.97927">
        <ele>566.2</ele>
        <time>2021-03-30T11:33:05.000Z</time>
      </trkpt>
      <trkpt lat="44.08495" lon="5.97927">
        <ele>565.6</ele>
        <time>2021-03-30T11:33:07.000Z</time>
      </trkpt>
      <trkpt lat="44.08495" lon="5.97927">
        <ele>565.4</ele>
        <time>2021-03-30T11:33:08.000Z</time>
      </trkpt>
      <trkpt lat="44.08495" lon="5.97927">
        <ele>565</ele>
        <time>2021-03-30T11:33:09.000Z</time>
      </trkpt>
      <trkpt lat="44.08495" lon="5.97927">
        <ele>564.2</ele>
        <time>2021-03-30T11:33:11.000Z</time>
      </trkpt>
      <trkpt lat="44.08495" lon="5.97927">
        <ele>564</ele>
        <time>2021-03-30T11:33:12.000Z</time>
      </trkpt>
      <trkpt lat="44.08495" lon="5.97927">
        <ele>563.6</ele>
        <time>2021-03-30T11:33:13.000Z</time>
      </trkpt>
      <trkpt lat="44.08495" lon="5.97927">
        <ele>563</ele>
        <time>2021-03-30T11:33:15.000Z</time>
      </trkpt>
      <trkpt lat="44.08495" lon="5.97927">
        <ele>562.6</ele>
        <time>2021-03-30T11:33:16.000Z</time>
      </trkpt>
      <trkpt lat="44.08495" lon="5.97927">
        <ele>562</ele>
        <time>2021-03-30T11:33:18.000Z</time>
      </trkpt>
      <trkpt lat="44.08495" lon="5.97927">
        <ele>561.8</ele>
        <time>2021-03-30T11:33:19.000Z</time>
      </trkpt>
      <trkpt lat="44.08495" lon="5.97927">
        <ele>561.4</ele>
        <time>2021-03-30T11:33:20.000Z</time>
      </trkpt>
      <trkpt lat="44.08495" lon="5.97927">
        <ele>560.8</ele>
        <time>2021-03-30T11:33:22.000Z</time>
      </trkpt>
      <trkpt lat="44.08495" lon="5.97927">
        <ele>560.6</ele>
        <time>2021-03-30T11:33:23.000Z</time>
      </trkpt>
      <trkpt lat="44.08495" lon="5.97927">
        <ele>560.4</ele>
        <time>2021-03-30T11:33:24.000Z</time>
      </trkpt>
      <trkpt lat="44.08495" lon="5.97927">
        <ele>559.8</ele>
        <time>2021-03-30T11:33:26.000Z</time>
      </trkpt>
      <trkpt lat="44.08495" lon="5.97927">
        <ele>559.6</ele>
        <time>2021-03-30T11:33:27.000Z</time>
      </trkpt>
      <trkpt lat="44.08495" lon="5.97927">
        <ele>559.4</ele>
        <time>2021-03-30T11:33:28.000Z</time>
      </trkpt>
      <trkpt lat="44.08495" lon="5.97927">
        <ele>558.8</ele>
        <time>2021-03-30T11:33:30.000Z</time>
      </trkpt>
      <trkpt lat="44.08495" lon="5.97927">
        <ele>558.4</ele>
        <time>2021-03-30T11:33:31.000Z</time>
      </trkpt>
      <trkpt lat="44.08495" lon="5.97927">
        <ele>558</ele>
        <time>2021-03-30T11:33:33.000Z</time>
      </trkpt>
      <trkpt lat="44.08495" lon="5.97927">
        <ele>557.6</ele>
        <time>2021-03-30T11:33:34.000Z</time>
      </trkpt>
      <trkpt lat="44.08495" lon="5.97927">
        <ele>557.4</ele>
        <time>2021-03-30T11:33:35.000Z</time>
      </trkpt>
      <trkpt lat="44.08495" lon="5.97927">
        <ele>557</ele>
        <time>2021-03-30T11:33:37.000Z</time>
      </trkpt>
      <trkpt lat="44.08495" lon="5.97927">
        <ele>556.8</ele>
        <time>2021-03-30T11:33:38.000Z</time>
      </trkpt>
      <trkpt lat="44.08495" lon="5.97927">
        <ele>556.4</ele>
        <time>2021-03-30T11:33:39.000Z</time>
      </trkpt>
      <trkpt lat="44.08495" lon="5.97927">
        <ele>556</ele>
        <time>2021-03-30T11:33:41.000Z</time>
      </trkpt>
      <trkpt lat="44.08495" lon="5.97927">
        <ele>555.6</ele>
        <time>2021-03-30T11:33:42.000Z</time>
      </trkpt>
      <trkpt lat="44.08495" lon="5.97927">
        <ele>555</ele>
        <time>2021-03-30T11:33:44.000Z</time>
      </trkpt>
      <trkpt lat="44.08495" lon="5.97927">
        <ele>554.8</ele>
        <time>2021-03-30T11:33:45.000Z</time>
      </trkpt>
      <trkpt lat="44.08495" lon="5.97927">
        <ele>554.6</ele>
        <time>2021-03-30T11:33:46.000Z</time>
      </trkpt>
      <trkpt lat="44.08488" lon="5.97928">
        <ele>554.4</ele>
        <time>2021-03-30T11:33:48.000Z</time>
      </trkpt>
      <trkpt lat="44.08486" lon="5.97929">
        <ele>554.2</ele>
        <time>2021-03-30T11:33:49.000Z</time>
      </trkpt>
      <trkpt lat="44.08483" lon="5.9793">
        <ele>554</ele>
        <time>2021-03-30T11:33:50.000Z</time>
      </trkpt>
      <trkpt lat="44.08476" lon="5.97933">
        <ele>553.6</ele>
        <time>2021-03-30T11:33:52.000Z</time>
      </trkpt>
      <trkpt lat="44.08472" lon="5.97933">
        <ele>553.6</ele>
        <time>2021-03-30T11:33:53.000Z</time>
      </trkpt>
      <trkpt lat="44.08464" lon="5.97933">
        <ele>553.8</ele>
        <time>2021-03-30T11:33:55.000Z</time>
      </trkpt>
      <trkpt lat="44.08461" lon="5.97933">
        <ele>554</ele>
        <time>2021-03-30T11:33:56.000Z</time>
      </trkpt>
      <trkpt lat="44.08457" lon="5.97932">
        <ele>554.2</ele>
        <time>2021-03-30T11:33:57.000Z</time>
      </trkpt>
      <trkpt lat="44.08452" lon="5.9793">
        <ele>554.6</ele>
        <time>2021-03-30T11:33:59.000Z</time>
      </trkpt>
      <trkpt lat="44.0845" lon="5.9793">
        <ele>555</ele>
        <time>2021-03-30T11:34:00.000Z</time>
      </trkpt>
      <trkpt lat="44.08448" lon="5.97931">
        <ele>555.4</ele>
        <time>2021-03-30T11:34:01.000Z</time>
      </trkpt>
      <trkpt lat="44.0844" lon="5.97933">
        <ele>555.8</ele>
        <time>2021-03-30T11:34:03.000Z</time>
      </trkpt>
      <trkpt lat="44.08437" lon="5.97935">
        <ele>556.2</ele>
        <time>2021-03-30T11:34:04.000Z</time>
      </trkpt>
      <trkpt lat="44.08428" lon="5.97939">
        <ele>556.6</ele>
        <time>2021-03-30T11:34:06.000Z</time>
      </trkpt>
      <trkpt lat="44.08425" lon="5.9794">
        <ele>557</ele>
        <time>2021-03-30T11:34:07.000Z</time>
      </trkpt>
      <trkpt lat="44.08422" lon="5.97941">
        <ele>557.2</ele>
        <time>2021-03-30T11:34:08.000Z</time>
      </trkpt>
      <trkpt lat="44.08414" lon="5.97939">
        <ele>557.6</ele>
        <time>2021-03-30T11:34:10.000Z</time>
      </trkpt>
      <trkpt lat="44.08409" lon="5.97939">
        <ele>558</ele>
        <time>2021-03-30T11:34:11.000Z</time>
      </trkpt>
      <trkpt lat="44.08405" lon="5.97939">
        <ele>558.2</ele>
        <time>2021-03-30T11:34:12.000Z</time>
      </trkpt>
      <trkpt lat="44.08398" lon="5.97938">
        <ele>559</ele>
        <time>2021-03-30T11:34:14.000Z</time>
      </trkpt>
      <trkpt lat="44.08394" lon="5.97938">
        <ele>559.4</ele>
        <time>2021-03-30T11:34:15.000Z</time>
      </trkpt>
      <trkpt lat="44.0839" lon="5.97939">
        <ele>560</ele>
        <time>2021-03-30T11:34:16.000Z</time>
      </trkpt>
      <trkpt lat="44.08382" lon="5.97936">
        <ele>560.8</ele>
        <time>2021-03-30T11:34:18.000Z</time>
      </trkpt>
      <trkpt lat="44.08377" lon="5.97935">
        <ele>561</ele>
        <time>2021-03-30T11:34:19.000Z</time>
      </trkpt>
      <trkpt lat="44.08368" lon="5.97936">
        <ele>561.6</ele>
        <time>2021-03-30T11:34:21.000Z</time>
      </trkpt>
      <trkpt lat="44.08364" lon="5.97937">
        <ele>562</ele>
        <time>2021-03-30T11:34:22.000Z</time>
      </trkpt>
      <trkpt lat="44.0836" lon="5.97937">
        <ele>562.4</ele>
        <time>2021-03-30T11:34:23.000Z</time>
      </trkpt>
      <trkpt lat="44.08353" lon="5.97939">
        <ele>563</ele>
        <time>2021-03-30T11:34:25.000Z</time>
      </trkpt>
      <trkpt lat="44.08351" lon="5.97942">
        <ele>563.4</ele>
        <time>2021-03-30T11:34:26.000Z</time>
      </trkpt>
      <trkpt lat="44.0835" lon="5.97944">
        <ele>563.8</ele>
        <time>2021-03-30T11:34:27.000Z</time>
      </trkpt>
      <trkpt lat="44.08352" lon="5.97947">
        <ele>564.8</ele>
        <time>2021-03-30T11:34:29.000Z</time>
      </trkpt>
      <trkpt lat="44.08352" lon="5.97949">
        <ele>565.2</ele>
        <time>2021-03-30T11:34:30.000Z</time>
      </trkpt>
      <trkpt lat="44.08353" lon="5.97956">
        <ele>565.8</ele>
        <time>2021-03-30T11:34:32.000Z</time>
      </trkpt>
      <trkpt lat="44.08354" lon="5.97958">
        <ele>566.2</ele>
        <time>2021-03-30T11:34:33.000Z</time>
      </trkpt>
      <trkpt lat="44.08357" lon="5.9796">
        <ele>566.6</ele>
        <time>2021-03-30T11:34:34.000Z</time>
      </trkpt>
      <trkpt lat="44.08361" lon="5.97963">
        <ele>567.4</ele>
        <time>2021-03-30T11:34:36.000Z</time>
      </trkpt>
      <trkpt lat="44.08364" lon="5.97965">
        <ele>567.8</ele>
        <time>2021-03-30T11:34:37.000Z</time>
      </trkpt>
      <trkpt lat="44.08366" lon="5.97965">
        <ele>568.2</ele>
        <time>2021-03-30T11:34:38.000Z</time>
      </trkpt>
      <trkpt lat="44.08372" lon="5.97967">
        <ele>569</ele>
        <time>2021-03-30T11:34:40.000Z</time>
      </trkpt>
      <trkpt lat="44.08374" lon="5.97969">
        <ele>569.4</ele>
        <time>2021-03-30T11:34:41.000Z</time>
      </trkpt>
      <trkpt lat="44.08379" lon="5.97973">
        <ele>570.2</ele>
        <time>2021-03-30T11:34:43.000Z</time>
      </trkpt>
      <trkpt lat="44.08382" lon="5.97974">
        <ele>570.6</ele>
        <time>2021-03-30T11:34:44.000Z</time>
      </trkpt>
      <trkpt lat="44.08384" lon="5.97977">
        <ele>571</ele>
        <time>2021-03-30T11:34:45.000Z</time>
      </trkpt>
      <trkpt lat="44.08384" lon="5.97984">
        <ele>571.4</ele>
        <time>2021-03-30T11:34:47.000Z</time>
      </trkpt>
      <trkpt lat="44.08381" lon="5.97985">
        <ele>571.6</ele>
        <time>2021-03-30T11:34:48.000Z</time>
      </trkpt>
      <trkpt lat="44.08378" lon="5.97985">
        <ele>571.6</ele>
        <time>2021-03-30T11:34:49.000Z</time>
      </trkpt>
      <trkpt lat="44.08372" lon="5.97988">
        <ele>572</ele>
        <time>2021-03-30T11:34:51.000Z</time>
      </trkpt>
      <trkpt lat="44.08369" lon="5.9799">
        <ele>572.2</ele>
        <time>2021-03-30T11:34:52.000Z</time>
      </trkpt>
      <trkpt lat="44.08365" lon="5.97991">
        <ele>572.4</ele>
        <time>2021-03-30T11:34:53.000Z</time>
      </trkpt>
      <trkpt lat="44.08359" lon="5.97992">
        <ele>573</ele>
        <time>2021-03-30T11:34:55.000Z</time>
      </trkpt>
      <trkpt lat="44.08356" lon="5.97993">
        <ele>573.2</ele>
        <time>2021-03-30T11:34:56.000Z</time>
      </trkpt>
      <trkpt lat="44.08354" lon="5.97998">
        <ele>574</ele>
        <time>2021-03-30T11:34:58.000Z</time>
      </trkpt>
      <trkpt lat="44.08353" lon="5.98">
        <ele>574.4</ele>
        <time>2021-03-30T11:34:59.000Z</time>
      </trkpt>
      <trkpt lat="44.08351" lon="5.98">
        <ele>574.8</ele>
        <time>2021-03-30T11:35:00.000Z</time>
      </trkpt>
      <trkpt lat="44.08346" lon="5.98002">
        <ele>575.6</ele>
        <time>2021-03-30T11:35:02.000Z</time>
      </trkpt>
      <trkpt lat="44.08344" lon="5.98003">
        <ele>575.8</ele>
        <time>2021-03-30T11:35:03.000Z</time>
      </trkpt>
      <trkpt lat="44.08341" lon="5.98005">
        <ele>576.2</ele>
        <time>2021-03-30T11:35:04.000Z</time>
      </trkpt>
      <trkpt lat="44.08334" lon="5.98008">
        <ele>576.8</ele>
        <time>2021-03-30T11:35:06.000Z</time>
      </trkpt>
      <trkpt lat="44.08331" lon="5.98008">
        <ele>577</ele>
        <time>2021-03-30T11:35:07.000Z</time>
      </trkpt>
      <trkpt lat="44.08324" lon="5.98008">
        <ele>577.2</ele>
        <time>2021-03-30T11:35:09.000Z</time>
      </trkpt>
      <trkpt lat="44.0832" lon="5.98008">
        <ele>577.2</ele>
        <time>2021-03-30T11:35:10.000Z</time>
      </trkpt>
      <trkpt lat="44.08316" lon="5.98008">
        <ele>577.4</ele>
        <time>2021-03-30T11:35:11.000Z</time>
      </trkpt>
      <trkpt lat="44.08309" lon="5.98009">
        <ele>577.4</ele>
        <time>2021-03-30T11:35:13.000Z</time>
      </trkpt>
      <trkpt lat="44.08305" lon="5.98009">
        <ele>577.6</ele>
        <time>2021-03-30T11:35:14.000Z</time>
      </trkpt>
      <trkpt lat="44.08301" lon="5.9801">
        <ele>577.6</ele>
        <time>2021-03-30T11:35:15.000Z</time>
      </trkpt>
      <trkpt lat="44.08294" lon="5.98011">
        <ele>578</ele>
        <time>2021-03-30T11:35:17.000Z</time>
      </trkpt>
      <trkpt lat="44.08291" lon="5.98012">
        <ele>578</ele>
        <time>2021-03-30T11:35:18.000Z</time>
      </trkpt>
      <trkpt lat="44.08286" lon="5.98018">
        <ele>578.2</ele>
        <time>2021-03-30T11:35:20.000Z</time>
      </trkpt>
      <trkpt lat="44.08284" lon="5.98021">
        <ele>578.4</ele>
        <time>2021-03-30T11:35:21.000Z</time>
      </trkpt>
      <trkpt lat="44.08281" lon="5.98024">
        <ele>578.6</ele>
        <time>2021-03-30T11:35:22.000Z</time>
      </trkpt>
      <trkpt lat="44.08276" lon="5.98028">
        <ele>579</ele>
        <time>2021-03-30T11:35:24.000Z</time>
      </trkpt>
      <trkpt lat="44.08275" lon="5.98029">
        <ele>579.4</ele>
        <time>2021-03-30T11:35:25.000Z</time>
      </trkpt>
      <trkpt lat="44.08272" lon="5.98031">
        <ele>579.6</ele>
        <time>2021-03-30T11:35:26.000Z</time>
      </trkpt>
      <trkpt lat="44.08268" lon="5.98035">
        <ele>580</ele>
        <time>2021-03-30T11:35:28.000Z</time>
      </trkpt>
      <trkpt lat="44.08265" lon="5.98036">
        <ele>580.2</ele>
        <time>2021-03-30T11:35:29.000Z</time>
      </trkpt>
      <trkpt lat="44.08261" lon="5.98036">
        <ele>580.4</ele>
        <time>2021-03-30T11:35:30.000Z</time>
      </trkpt>
      <trkpt lat="44.08254" lon="5.98038">
        <ele>581</ele>
        <time>2021-03-30T11:35:32.000Z</time>
      </trkpt>
      <trkpt lat="44.08251" lon="5.9804">
        <ele>581.2</ele>
        <time>2021-03-30T11:35:33.000Z</time>
      </trkpt>
      <trkpt lat="44.08247" lon="5.98043">
        <ele>581.6</ele>
        <time>2021-03-30T11:35:35.000Z</time>
      </trkpt>
      <trkpt lat="44.08245" lon="5.98044">
        <ele>582</ele>
        <time>2021-03-30T11:35:36.000Z</time>
      </trkpt>
      <trkpt lat="44.08244" lon="5.98044">
        <ele>582.2</ele>
        <time>2021-03-30T11:35:37.000Z</time>
      </trkpt>
      <trkpt lat="44.08243" lon="5.98045">
        <ele>582.4</ele>
        <time>2021-03-30T11:35:39.000Z</time>
      </trkpt>
      <trkpt lat="44.08243" lon="5.98045">
        <ele>582.4</ele>
        <time>2021-03-30T11:35:40.000Z</time>
      </trkpt>
      <trkpt lat="44.08243" lon="5.98045">
        <ele>582.4</ele>
        <time>2021-03-30T11:35:41.000Z</time>
      </trkpt>
      <trkpt lat="44.08243" lon="5.98045">
        <ele>582.4</ele>
        <time>2021-03-30T11:35:43.000Z</time>
      </trkpt>
      <trkpt lat="44.08243" lon="5.98045">
        <ele>582.4</ele>
        <time>2021-03-30T11:35:44.000Z</time>
      </trkpt>
      <trkpt lat="44.08243" lon="5.98045">
        <ele>582.4</ele>
        <time>2021-03-30T11:35:46.000Z</time>
      </trkpt>
      <trkpt lat="44.08243" lon="5.98045">
        <ele>582.4</ele>
        <time>2021-03-30T11:35:47.000Z</time>
      </trkpt>
      <trkpt lat="44.08241" lon="5.98047">
        <ele>582.4</ele>
        <time>2021-03-30T11:35:48.000Z</time>
      </trkpt>
      <trkpt lat="44.0824" lon="5.98052">
        <ele>582.2</ele>
        <time>2021-03-30T11:35:50.000Z</time>
      </trkpt>
      <trkpt lat="44.08238" lon="5.98054">
        <ele>582</ele>
        <time>2021-03-30T11:35:51.000Z</time>
      </trkpt>
      <trkpt lat="44.08236" lon="5.98054">
        <ele>582</ele>
        <time>2021-03-30T11:35:52.000Z</time>
      </trkpt>
      <trkpt lat="44.08234" lon="5.9805">
        <ele>581.8</ele>
        <time>2021-03-30T11:35:54.000Z</time>
      </trkpt>
      <trkpt lat="44.08235" lon="5.98048">
        <ele>581.8</ele>
        <time>2021-03-30T11:35:55.000Z</time>
      </trkpt>
      <trkpt lat="44.08238" lon="5.98047">
        <ele>581.8</ele>
        <time>2021-03-30T11:35:57.000Z</time>
      </trkpt>
      <trkpt lat="44.08241" lon="5.98048">
        <ele>581.8</ele>
        <time>2021-03-30T11:35:58.000Z</time>
      </trkpt>
      <trkpt lat="44.08243" lon="5.98049">
        <ele>581.8</ele>
        <time>2021-03-30T11:35:59.000Z</time>
      </trkpt>
      <trkpt lat="44.08247" lon="5.98053">
        <ele>581.8</ele>
        <time>2021-03-30T11:36:01.000Z</time>
      </trkpt>
      <trkpt lat="44.0825" lon="5.98054">
        <ele>581.8</ele>
        <time>2021-03-30T11:36:02.000Z</time>
      </trkpt>
      <trkpt lat="44.08253" lon="5.98055">
        <ele>581.8</ele>
        <time>2021-03-30T11:36:03.000Z</time>
      </trkpt>
      <trkpt lat="44.08258" lon="5.98057">
        <ele>582.2</ele>
        <time>2021-03-30T11:36:05.000Z</time>
      </trkpt>
      <trkpt lat="44.0826" lon="5.98059">
        <ele>582.4</ele>
        <time>2021-03-30T11:36:06.000Z</time>
      </trkpt>
      <trkpt lat="44.08266" lon="5.98062">
        <ele>582.8</ele>
        <time>2021-03-30T11:36:08.000Z</time>
      </trkpt>
      <trkpt lat="44.08269" lon="5.98063">
        <ele>582.8</ele>
        <time>2021-03-30T11:36:09.000Z</time>
      </trkpt>
      <trkpt lat="44.08271" lon="5.98064">
        <ele>583.2</ele>
        <time>2021-03-30T11:36:10.000Z</time>
      </trkpt>
      <trkpt lat="44.08277" lon="5.98066">
        <ele>583.8</ele>
        <time>2021-03-30T11:36:12.000Z</time>
      </trkpt>
      <trkpt lat="44.0828" lon="5.98066">
        <ele>584</ele>
        <time>2021-03-30T11:36:13.000Z</time>
      </trkpt>
      <trkpt lat="44.08283" lon="5.98067">
        <ele>584.4</ele>
        <time>2021-03-30T11:36:14.000Z</time>
      </trkpt>
      <trkpt lat="44.08289" lon="5.98068">
        <ele>584.8</ele>
        <time>2021-03-30T11:36:16.000Z</time>
      </trkpt>
      <trkpt lat="44.08292" lon="5.98067">
        <ele>585.2</ele>
        <time>2021-03-30T11:36:17.000Z</time>
      </trkpt>
      <trkpt lat="44.08295" lon="5.98066">
        <ele>585.6</ele>
        <time>2021-03-30T11:36:18.000Z</time>
      </trkpt>
      <trkpt lat="44.08301" lon="5.98065">
        <ele>586</ele>
        <time>2021-03-30T11:36:20.000Z</time>
      </trkpt>
      <trkpt lat="44.08305" lon="5.98065">
        <ele>586.4</ele>
        <time>2021-03-30T11:36:21.000Z</time>
      </trkpt>
      <trkpt lat="44.08312" lon="5.98065">
        <ele>587.4</ele>
        <time>2021-03-30T11:36:23.000Z</time>
      </trkpt>
      <trkpt lat="44.08315" lon="5.98066">
        <ele>587.6</ele>
        <time>2021-03-30T11:36:24.000Z</time>
      </trkpt>
      <trkpt lat="44.08318" lon="5.98067">
        <ele>588</ele>
        <time>2021-03-30T11:36:25.000Z</time>
      </trkpt>
      <trkpt lat="44.08326" lon="5.9807">
        <ele>588.8</ele>
        <time>2021-03-30T11:36:27.000Z</time>
      </trkpt>
      <trkpt lat="44.08329" lon="5.98071">
        <ele>589.2</ele>
        <time>2021-03-30T11:36:28.000Z</time>
      </trkpt>
      <trkpt lat="44.08333" lon="5.98073">
        <ele>589.6</ele>
        <time>2021-03-30T11:36:29.000Z</time>
      </trkpt>
      <trkpt lat="44.08341" lon="5.98076">
        <ele>590.2</ele>
        <time>2021-03-30T11:36:31.000Z</time>
      </trkpt>
      <trkpt lat="44.08344" lon="5.98078">
        <ele>590.6</ele>
        <time>2021-03-30T11:36:32.000Z</time>
      </trkpt>
      <trkpt lat="44.0835" lon="5.9808">
        <ele>591.4</ele>
        <time>2021-03-30T11:36:34.000Z</time>
      </trkpt>
      <trkpt lat="44.08354" lon="5.98081">
        <ele>591.8</ele>
        <time>2021-03-30T11:36:35.000Z</time>
      </trkpt>
      <trkpt lat="44.08358" lon="5.98081">
        <ele>592</ele>
        <time>2021-03-30T11:36:36.000Z</time>
      </trkpt>
      <trkpt lat="44.08366" lon="5.98083">
        <ele>592.8</ele>
        <time>2021-03-30T11:36:38.000Z</time>
      </trkpt>
      <trkpt lat="44.0837" lon="5.98084">
        <ele>593.2</ele>
        <time>2021-03-30T11:36:39.000Z</time>
      </trkpt>
      <trkpt lat="44.08374" lon="5.98084">
        <ele>593.6</ele>
        <time>2021-03-30T11:36:40.000Z</time>
      </trkpt>
      <trkpt lat="44.08381" lon="5.98082">
        <ele>594.4</ele>
        <time>2021-03-30T11:36:42.000Z</time>
      </trkpt>
      <trkpt lat="44.08384" lon="5.9808">
        <ele>594.8</ele>
        <time>2021-03-30T11:36:43.000Z</time>
      </trkpt>
      <trkpt lat="44.0839" lon="5.98079">
        <ele>595.4</ele>
        <time>2021-03-30T11:36:45.000Z</time>
      </trkpt>
      <trkpt lat="44.08394" lon="5.98081">
        <ele>595.8</ele>
        <time>2021-03-30T11:36:46.000Z</time>
      </trkpt>
      <trkpt lat="44.08397" lon="5.98084">
        <ele>596.2</ele>
        <time>2021-03-30T11:36:47.000Z</time>
      </trkpt>
      <trkpt lat="44.08404" lon="5.98085">
        <ele>596.8</ele>
        <time>2021-03-30T11:36:49.000Z</time>
      </trkpt>
      <trkpt lat="44.08407" lon="5.98085">
        <ele>597.2</ele>
        <time>2021-03-30T11:36:50.000Z</time>
      </trkpt>
      <trkpt lat="44.0841" lon="5.98086">
        <ele>597.4</ele>
        <time>2021-03-30T11:36:51.000Z</time>
      </trkpt>
      <trkpt lat="44.08415" lon="5.98089">
        <ele>598.2</ele>
        <time>2021-03-30T11:36:53.000Z</time>
      </trkpt>
      <trkpt lat="44.08418" lon="5.98091">
        <ele>598.6</ele>
        <time>2021-03-30T11:36:54.000Z</time>
      </trkpt>
      <trkpt lat="44.0842" lon="5.98092">
        <ele>599</ele>
        <time>2021-03-30T11:36:55.000Z</time>
      </trkpt>
      <trkpt lat="44.08426" lon="5.98093">
        <ele>599.8</ele>
        <time>2021-03-30T11:36:57.000Z</time>
      </trkpt>
      <trkpt lat="44.08429" lon="5.98094">
        <ele>600.2</ele>
        <time>2021-03-30T11:36:58.000Z</time>
      </trkpt>
      <trkpt lat="44.08435" lon="5.98094">
        <ele>601</ele>
        <time>2021-03-30T11:37:00.000Z</time>
      </trkpt>
      <trkpt lat="44.08438" lon="5.98095">
        <ele>601.2</ele>
        <time>2021-03-30T11:37:01.000Z</time>
      </trkpt>
      <trkpt lat="44.08441" lon="5.98096">
        <ele>601.6</ele>
        <time>2021-03-30T11:37:02.000Z</time>
      </trkpt>
      <trkpt lat="44.08447" lon="5.98097">
        <ele>602.2</ele>
        <time>2021-03-30T11:37:04.000Z</time>
      </trkpt>
      <trkpt lat="44.0845" lon="5.98097">
        <ele>602.4</ele>
        <time>2021-03-30T11:37:05.000Z</time>
      </trkpt>
      <trkpt lat="44.08453" lon="5.98099">
        <ele>602.8</ele>
        <time>2021-03-30T11:37:06.000Z</time>
      </trkpt>
      <trkpt lat="44.08459" lon="5.98101">
        <ele>603.2</ele>
        <time>2021-03-30T11:37:08.000Z</time>
      </trkpt>
      <trkpt lat="44.08461" lon="5.98101">
        <ele>603.6</ele>
        <time>2021-03-30T11:37:09.000Z</time>
      </trkpt>
      <trkpt lat="44.08467" lon="5.98101">
        <ele>604</ele>
        <time>2021-03-30T11:37:11.000Z</time>
      </trkpt>
      <trkpt lat="44.0847" lon="5.98102">
        <ele>604.2</ele>
        <time>2021-03-30T11:37:12.000Z</time>
      </trkpt>
      <trkpt lat="44.08473" lon="5.98103">
        <ele>604.4</ele>
        <time>2021-03-30T11:37:13.000Z</time>
      </trkpt>
      <trkpt lat="44.08478" lon="5.98107">
        <ele>604.8</ele>
        <time>2021-03-30T11:37:15.000Z</time>
      </trkpt>
      <trkpt lat="44.08481" lon="5.98108">
        <ele>605</ele>
        <time>2021-03-30T11:37:16.000Z</time>
      </trkpt>
      <trkpt lat="44.08483" lon="5.98109">
        <ele>605.4</ele>
        <time>2021-03-30T11:37:17.000Z</time>
      </trkpt>
      <trkpt lat="44.0849" lon="5.98109">
        <ele>605.8</ele>
        <time>2021-03-30T11:37:19.000Z</time>
      </trkpt>
      <trkpt lat="44.08493" lon="5.98109">
        <ele>606</ele>
        <time>2021-03-30T11:37:20.000Z</time>
      </trkpt>
      <trkpt lat="44.08498" lon="5.98111">
        <ele>606.4</ele>
        <time>2021-03-30T11:37:22.000Z</time>
      </trkpt>
      <trkpt lat="44.085" lon="5.98113">
        <ele>606.4</ele>
        <time>2021-03-30T11:37:23.000Z</time>
      </trkpt>
      <trkpt lat="44.08504" lon="5.98114">
        <ele>606.8</ele>
        <time>2021-03-30T11:37:24.000Z</time>
      </trkpt>
      <trkpt lat="44.0851" lon="5.98115">
        <ele>607.2</ele>
        <time>2021-03-30T11:37:26.000Z</time>
      </trkpt>
      <trkpt lat="44.08512" lon="5.98114">
        <ele>607.4</ele>
        <time>2021-03-30T11:37:27.000Z</time>
      </trkpt>
      <trkpt lat="44.08514" lon="5.98112">
        <ele>607.4</ele>
        <time>2021-03-30T11:37:28.000Z</time>
      </trkpt>
      <trkpt lat="44.08519" lon="5.98111">
        <ele>607.6</ele>
        <time>2021-03-30T11:37:30.000Z</time>
      </trkpt>
      <trkpt lat="44.08522" lon="5.98112">
        <ele>607.8</ele>
        <time>2021-03-30T11:37:31.000Z</time>
      </trkpt>
      <trkpt lat="44.08525" lon="5.98114">
        <ele>608</ele>
        <time>2021-03-30T11:37:32.000Z</time>
      </trkpt>
      <trkpt lat="44.08529" lon="5.98117">
        <ele>608.2</ele>
        <time>2021-03-30T11:37:34.000Z</time>
      </trkpt>
      <trkpt lat="44.08532" lon="5.98119">
        <ele>608.4</ele>
        <time>2021-03-30T11:37:35.000Z</time>
      </trkpt>
      <trkpt lat="44.08539" lon="5.98121">
        <ele>608.8</ele>
        <time>2021-03-30T11:37:37.000Z</time>
      </trkpt>
      <trkpt lat="44.08542" lon="5.98124">
        <ele>609</ele>
        <time>2021-03-30T11:37:38.000Z</time>
      </trkpt>
      <trkpt lat="44.08545" lon="5.98128">
        <ele>609</ele>
        <time>2021-03-30T11:37:39.000Z</time>
      </trkpt>
      <trkpt lat="44.08549" lon="5.98133">
        <ele>609.2</ele>
        <time>2021-03-30T11:37:41.000Z</time>
      </trkpt>
      <trkpt lat="44.08552" lon="5.98134">
        <ele>609.2</ele>
        <time>2021-03-30T11:37:42.000Z</time>
      </trkpt>
      <trkpt lat="44.08555" lon="5.98133">
        <ele>609.2</ele>
        <time>2021-03-30T11:37:43.000Z</time>
      </trkpt>
      <trkpt lat="44.08561" lon="5.98132">
        <ele>609.6</ele>
        <time>2021-03-30T11:37:45.000Z</time>
      </trkpt>
      <trkpt lat="44.08564" lon="5.98133">
        <ele>609.6</ele>
        <time>2021-03-30T11:37:46.000Z</time>
      </trkpt>
      <trkpt lat="44.08571" lon="5.98138">
        <ele>609.8</ele>
        <time>2021-03-30T11:37:48.000Z</time>
      </trkpt>
      <trkpt lat="44.08574" lon="5.9814">
        <ele>609.8</ele>
        <time>2021-03-30T11:37:49.000Z</time>
      </trkpt>
      <trkpt lat="44.08575" lon="5.98143">
        <ele>609.8</ele>
        <time>2021-03-30T11:37:50.000Z</time>
      </trkpt>
      <trkpt lat="44.08577" lon="5.9815">
        <ele>609.8</ele>
        <time>2021-03-30T11:37:52.000Z</time>
      </trkpt>
      <trkpt lat="44.0858" lon="5.98155">
        <ele>609.6</ele>
        <time>2021-03-30T11:37:53.000Z</time>
      </trkpt>
      <trkpt lat="44.08582" lon="5.98161">
        <ele>609.4</ele>
        <time>2021-03-30T11:37:54.000Z</time>
      </trkpt>
      <trkpt lat="44.0859" lon="5.98172">
        <ele>609.2</ele>
        <time>2021-03-30T11:37:56.000Z</time>
      </trkpt>
      <trkpt lat="44.08594" lon="5.98175">
        <ele>609</ele>
        <time>2021-03-30T11:37:57.000Z</time>
      </trkpt>
      <trkpt lat="44.08601" lon="5.98178">
        <ele>609</ele>
        <time>2021-03-30T11:37:59.000Z</time>
      </trkpt>
      <trkpt lat="44.08604" lon="5.98179">
        <ele>608.8</ele>
        <time>2021-03-30T11:38:00.000Z</time>
      </trkpt>
      <trkpt lat="44.08608" lon="5.9818">
        <ele>608.8</ele>
        <time>2021-03-30T11:38:01.000Z</time>
      </trkpt>
      <trkpt lat="44.08616" lon="5.98185">
        <ele>608.6</ele>
        <time>2021-03-30T11:38:03.000Z</time>
      </trkpt>
      <trkpt lat="44.08619" lon="5.98188">
        <ele>608.6</ele>
        <time>2021-03-30T11:38:04.000Z</time>
      </trkpt>
      <trkpt lat="44.08624" lon="5.98191">
        <ele>608.6</ele>
        <time>2021-03-30T11:38:05.000Z</time>
      </trkpt>
      <trkpt lat="44.08633" lon="5.98196">
        <ele>608.4</ele>
        <time>2021-03-30T11:38:07.000Z</time>
      </trkpt>
      <trkpt lat="44.08638" lon="5.98197">
        <ele>608.2</ele>
        <time>2021-03-30T11:38:08.000Z</time>
      </trkpt>
      <trkpt lat="44.08646" lon="5.982">
        <ele>608</ele>
        <time>2021-03-30T11:38:10.000Z</time>
      </trkpt>
      <trkpt lat="44.08651" lon="5.98203">
        <ele>607.8</ele>
        <time>2021-03-30T11:38:11.000Z</time>
      </trkpt>
      <trkpt lat="44.08656" lon="5.98206">
        <ele>607.6</ele>
        <time>2021-03-30T11:38:12.000Z</time>
      </trkpt>
      <trkpt lat="44.08666" lon="5.9821">
        <ele>607.2</ele>
        <time>2021-03-30T11:38:14.000Z</time>
      </trkpt>
      <trkpt lat="44.08671" lon="5.9821">
        <ele>607</ele>
        <time>2021-03-30T11:38:15.000Z</time>
      </trkpt>
      <trkpt lat="44.08677" lon="5.9821">
        <ele>606.8</ele>
        <time>2021-03-30T11:38:16.000Z</time>
      </trkpt>
      <trkpt lat="44.08685" lon="5.98217">
        <ele>606.4</ele>
        <time>2021-03-30T11:38:18.000Z</time>
      </trkpt>
      <trkpt lat="44.0869" lon="5.98221">
        <ele>606.2</ele>
        <time>2021-03-30T11:38:19.000Z</time>
      </trkpt>
      <trkpt lat="44.08695" lon="5.98224">
        <ele>606.2</ele>
        <time>2021-03-30T11:38:20.000Z</time>
      </trkpt>
      <trkpt lat="44.08702" lon="5.98231">
        <ele>605.8</ele>
        <time>2021-03-30T11:38:22.000Z</time>
      </trkpt>
      <trkpt lat="44.08706" lon="5.98235">
        <ele>605.6</ele>
        <time>2021-03-30T11:38:23.000Z</time>
      </trkpt>
      <trkpt lat="44.08714" lon="5.98242">
        <ele>605</ele>
        <time>2021-03-30T11:38:25.000Z</time>
      </trkpt>
      <trkpt lat="44.08719" lon="5.98244">
        <ele>604.8</ele>
        <time>2021-03-30T11:38:26.000Z</time>
      </trkpt>
      <trkpt lat="44.08723" lon="5.98247">
        <ele>604.4</ele>
        <time>2021-03-30T11:38:27.000Z</time>
      </trkpt>
      <trkpt lat="44.08732" lon="5.98253">
        <ele>603.6</ele>
        <time>2021-03-30T11:38:29.000Z</time>
      </trkpt>
      <trkpt lat="44.08736" lon="5.98255">
        <ele>603.2</ele>
        <time>2021-03-30T11:38:30.000Z</time>
      </trkpt>
      <trkpt lat="44.0874" lon="5.98256">
        <ele>603</ele>
        <time>2021-03-30T11:38:31.000Z</time>
      </trkpt>
      <trkpt lat="44.08747" lon="5.9826">
        <ele>602.2</ele>
        <time>2021-03-30T11:38:33.000Z</time>
      </trkpt>
      <trkpt lat="44.08749" lon="5.9826">
        <ele>601.8</ele>
        <time>2021-03-30T11:38:34.000Z</time>
      </trkpt>
      <trkpt lat="44.08753" lon="5.98256">
        <ele>601</ele>
        <time>2021-03-30T11:38:36.000Z</time>
      </trkpt>
      <trkpt lat="44.08758" lon="5.98253">
        <ele>573.2</ele>
        <time>2021-03-30T11:40:54.000Z</time>
      </trkpt>
      <trkpt lat="44.08761" lon="5.98256">
        <ele>573</ele>
        <time>2021-03-30T11:40:55.000Z</time>
      </trkpt>
      <trkpt lat="44.08767" lon="5.98261">
        <ele>573</ele>
        <time>2021-03-30T11:40:57.000Z</time>
      </trkpt>
      <trkpt lat="44.08769" lon="5.98265">
        <ele>572.8</ele>
        <time>2021-03-30T11:40:58.000Z</time>
      </trkpt>
      <trkpt lat="44.08771" lon="5.98268">
        <ele>572.8</ele>
        <time>2021-03-30T11:40:59.000Z</time>
      </trkpt>
      <trkpt lat="44.08777" lon="5.98274">
        <ele>572.6</ele>
        <time>2021-03-30T11:41:01.000Z</time>
      </trkpt>
      <trkpt lat="44.08779" lon="5.98277">
        <ele>572.6</ele>
        <time>2021-03-30T11:41:02.000Z</time>
      </trkpt>
      <trkpt lat="44.08785" lon="5.98283">
        <ele>572.4</ele>
        <time>2021-03-30T11:41:04.000Z</time>
      </trkpt>
      <trkpt lat="44.08788" lon="5.98286">
        <ele>572.2</ele>
        <time>2021-03-30T11:41:05.000Z</time>
      </trkpt>
      <trkpt lat="44.0879" lon="5.98288">
        <ele>572</ele>
        <time>2021-03-30T11:41:06.000Z</time>
      </trkpt>
      <trkpt lat="44.08794" lon="5.98294">
        <ele>571.8</ele>
        <time>2021-03-30T11:41:08.000Z</time>
      </trkpt>
      <trkpt lat="44.08797" lon="5.98297">
        <ele>571.6</ele>
        <time>2021-03-30T11:41:09.000Z</time>
      </trkpt>
      <trkpt lat="44.088" lon="5.983">
        <ele>571.6</ele>
        <time>2021-03-30T11:41:10.000Z</time>
      </trkpt>
      <trkpt lat="44.08807" lon="5.98307">
        <ele>571.2</ele>
        <time>2021-03-30T11:41:12.000Z</time>
      </trkpt>
      <trkpt lat="44.08809" lon="5.98311">
        <ele>571</ele>
        <time>2021-03-30T11:41:13.000Z</time>
      </trkpt>
      <trkpt lat="44.08813" lon="5.98314">
        <ele>570.8</ele>
        <time>2021-03-30T11:41:14.000Z</time>
      </trkpt>
      <trkpt lat="44.0882" lon="5.9832">
        <ele>570.4</ele>
        <time>2021-03-30T11:41:16.000Z</time>
      </trkpt>
      <trkpt lat="44.08823" lon="5.98324">
        <ele>570.2</ele>
        <time>2021-03-30T11:41:17.000Z</time>
      </trkpt>
      <trkpt lat="44.08826" lon="5.9833">
        <ele>569.4</ele>
        <time>2021-03-30T11:41:19.000Z</time>
      </trkpt>
      <trkpt lat="44.08827" lon="5.98333">
        <ele>569</ele>
        <time>2021-03-30T11:41:20.000Z</time>
      </trkpt>
      <trkpt lat="44.08826" lon="5.98336">
        <ele>568.6</ele>
        <time>2021-03-30T11:41:21.000Z</time>
      </trkpt>
      <trkpt lat="44.08825" lon="5.98343">
        <ele>567.6</ele>
        <time>2021-03-30T11:41:23.000Z</time>
      </trkpt>
      <trkpt lat="44.08825" lon="5.98347">
        <ele>567.2</ele>
        <time>2021-03-30T11:41:24.000Z</time>
      </trkpt>
      <trkpt lat="44.08826" lon="5.98352">
        <ele>566.6</ele>
        <time>2021-03-30T11:41:25.000Z</time>
      </trkpt>
      <trkpt lat="44.08826" lon="5.98363">
        <ele>565.4</ele>
        <time>2021-03-30T11:41:27.000Z</time>
      </trkpt>
      <trkpt lat="44.08827" lon="5.98368">
        <ele>564.6</ele>
        <time>2021-03-30T11:41:28.000Z</time>
      </trkpt>
      <trkpt lat="44.08828" lon="5.98374">
        <ele>563.2</ele>
        <time>2021-03-30T11:41:30.000Z</time>
      </trkpt>
      <trkpt lat="44.08828" lon="5.98377">
        <ele>562.4</ele>
        <time>2021-03-30T11:41:31.000Z</time>
      </trkpt>
      <trkpt lat="44.0883" lon="5.98381">
        <ele>561.6</ele>
        <time>2021-03-30T11:41:32.000Z</time>
      </trkpt>
      <trkpt lat="44.08829" lon="5.98389">
        <ele>560.2</ele>
        <time>2021-03-30T11:41:34.000Z</time>
      </trkpt>
      <trkpt lat="44.08829" lon="5.98393">
        <ele>559.4</ele>
        <time>2021-03-30T11:41:35.000Z</time>
      </trkpt>
      <trkpt lat="44.08829" lon="5.98396">
        <ele>558.8</ele>
        <time>2021-03-30T11:41:36.000Z</time>
      </trkpt>
      <trkpt lat="44.0883" lon="5.98405">
        <ele>557.4</ele>
        <time>2021-03-30T11:41:38.000Z</time>
      </trkpt>
      <trkpt lat="44.0883" lon="5.98409">
        <ele>556.6</ele>
        <time>2021-03-30T11:41:39.000Z</time>
      </trkpt>
      <trkpt lat="44.08831" lon="5.98416">
        <ele>555</ele>
        <time>2021-03-30T11:41:41.000Z</time>
      </trkpt>
      <trkpt lat="44.0883" lon="5.98419">
        <ele>554.2</ele>
        <time>2021-03-30T11:41:42.000Z</time>
      </trkpt>
      <trkpt lat="44.08831" lon="5.98422">
        <ele>553.4</ele>
        <time>2021-03-30T11:41:43.000Z</time>
      </trkpt>
      <trkpt lat="44.08833" lon="5.98426">
        <ele>551.6</ele>
        <time>2021-03-30T11:41:45.000Z</time>
      </trkpt>
      <trkpt lat="44.08835" lon="5.98426">
        <ele>551</ele>
        <time>2021-03-30T11:41:46.000Z</time>
      </trkpt>
      <trkpt lat="44.08836" lon="5.98426">
        <ele>550.4</ele>
        <time>2021-03-30T11:41:47.000Z</time>
      </trkpt>
      <trkpt lat="44.08842" lon="5.98425">
        <ele>549.2</ele>
        <time>2021-03-30T11:41:49.000Z</time>
      </trkpt>
      <trkpt lat="44.08844" lon="5.98424">
        <ele>548.6</ele>
        <time>2021-03-30T11:41:50.000Z</time>
      </trkpt>
      <trkpt lat="44.08844" lon="5.98424">
        <ele>548.2</ele>
        <time>2021-03-30T11:41:51.000Z</time>
      </trkpt>
      <trkpt lat="44.08844" lon="5.98424">
        <ele>547.4</ele>
        <time>2021-03-30T11:41:53.000Z</time>
      </trkpt>
      <trkpt lat="44.08844" lon="5.98424">
        <ele>547</ele>
        <time>2021-03-30T11:41:54.000Z</time>
      </trkpt>
      <trkpt lat="44.08844" lon="5.98424">
        <ele>546.2</ele>
        <time>2021-03-30T11:41:56.000Z</time>
      </trkpt>
      <trkpt lat="44.08844" lon="5.98424">
        <ele>545.8</ele>
        <time>2021-03-30T11:41:57.000Z</time>
      </trkpt>
      <trkpt lat="44.08844" lon="5.98424">
        <ele>545.4</ele>
        <time>2021-03-30T11:41:58.000Z</time>
      </trkpt>
      <trkpt lat="44.08844" lon="5.98424">
        <ele>544.8</ele>
        <time>2021-03-30T11:42:00.000Z</time>
      </trkpt>
      <trkpt lat="44.08844" lon="5.98424">
        <ele>544.4</ele>
        <time>2021-03-30T11:42:01.000Z</time>
      </trkpt>
      <trkpt lat="44.08844" lon="5.98424">
        <ele>544.2</ele>
        <time>2021-03-30T11:42:02.000Z</time>
      </trkpt>
      <trkpt lat="44.08844" lon="5.98424">
        <ele>543.6</ele>
        <time>2021-03-30T11:42:04.000Z</time>
      </trkpt>
      <trkpt lat="44.08845" lon="5.98423">
        <ele>543.2</ele>
        <time>2021-03-30T11:42:05.000Z</time>
      </trkpt>
      <trkpt lat="44.08847" lon="5.98418">
        <ele>542.4</ele>
        <time>2021-03-30T11:42:07.000Z</time>
      </trkpt>
      <trkpt lat="44.08848" lon="5.98416">
        <ele>541.8</ele>
        <time>2021-03-30T11:42:08.000Z</time>
      </trkpt>
      <trkpt lat="44.08849" lon="5.98413">
        <ele>541.4</ele>
        <time>2021-03-30T11:42:09.000Z</time>
      </trkpt>
      <trkpt lat="44.08851" lon="5.98406">
        <ele>540.2</ele>
        <time>2021-03-30T11:42:11.000Z</time>
      </trkpt>
      <trkpt lat="44.08852" lon="5.98402">
        <ele>539.8</ele>
        <time>2021-03-30T11:42:12.000Z</time>
      </trkpt>
      <trkpt lat="44.08853" lon="5.98398">
        <ele>539.4</ele>
        <time>2021-03-30T11:42:13.000Z</time>
      </trkpt>
      <trkpt lat="44.08856" lon="5.9839">
        <ele>538.8</ele>
        <time>2021-03-30T11:42:15.000Z</time>
      </trkpt>
      <trkpt lat="44.08859" lon="5.98387">
        <ele>538.4</ele>
        <time>2021-03-30T11:42:16.000Z</time>
      </trkpt>
      <trkpt lat="44.08866" lon="5.98381">
        <ele>538</ele>
        <time>2021-03-30T11:42:18.000Z</time>
      </trkpt>
      <trkpt lat="44.0887" lon="5.98379">
        <ele>537.8</ele>
        <time>2021-03-30T11:42:19.000Z</time>
      </trkpt>
      <trkpt lat="44.08875" lon="5.98376">
        <ele>537.6</ele>
        <time>2021-03-30T11:42:20.000Z</time>
      </trkpt>
      <trkpt lat="44.08883" lon="5.98371">
        <ele>537</ele>
        <time>2021-03-30T11:42:22.000Z</time>
      </trkpt>
      <trkpt lat="44.08886" lon="5.98367">
        <ele>536.8</ele>
        <time>2021-03-30T11:42:23.000Z</time>
      </trkpt>
      <trkpt lat="44.08888" lon="5.98362">
        <ele>536.4</ele>
        <time>2021-03-30T11:42:24.000Z</time>
      </trkpt>
      <trkpt lat="44.08891" lon="5.98353">
        <ele>535.6</ele>
        <time>2021-03-30T11:42:26.000Z</time>
      </trkpt>
      <trkpt lat="44.08893" lon="5.9835">
        <ele>535.2</ele>
        <time>2021-03-30T11:42:27.000Z</time>
      </trkpt>
      <trkpt lat="44.08896" lon="5.98349">
        <ele>534.2</ele>
        <time>2021-03-30T11:42:29.000Z</time>
      </trkpt>
      <trkpt lat="44.08897" lon="5.98351">
        <ele>533.6</ele>
        <time>2021-03-30T11:42:30.000Z</time>
      </trkpt>
      <trkpt lat="44.08898" lon="5.98354">
        <ele>533.2</ele>
        <time>2021-03-30T11:42:31.000Z</time>
      </trkpt>
      <trkpt lat="44.089" lon="5.98362">
        <ele>532.4</ele>
        <time>2021-03-30T11:42:33.000Z</time>
      </trkpt>
      <trkpt lat="44.08901" lon="5.98366">
        <ele>531.8</ele>
        <time>2021-03-30T11:42:34.000Z</time>
      </trkpt>
      <trkpt lat="44.08901" lon="5.98371">
        <ele>531.4</ele>
        <time>2021-03-30T11:42:35.000Z</time>
      </trkpt>
      <trkpt lat="44.08902" lon="5.9838">
        <ele>530.4</ele>
        <time>2021-03-30T11:42:37.000Z</time>
      </trkpt>
      <trkpt lat="44.08902" lon="5.98385">
        <ele>530</ele>
        <time>2021-03-30T11:42:38.000Z</time>
      </trkpt>
      <trkpt lat="44.08902" lon="5.9839">
        <ele>529.6</ele>
        <time>2021-03-30T11:42:39.000Z</time>
      </trkpt>
      <trkpt lat="44.08901" lon="5.98399">
        <ele>529</ele>
        <time>2021-03-30T11:42:41.000Z</time>
      </trkpt>
      <trkpt lat="44.089" lon="5.98403">
        <ele>528.6</ele>
        <time>2021-03-30T11:42:42.000Z</time>
      </trkpt>
      <trkpt lat="44.08899" lon="5.98411">
        <ele>528</ele>
        <time>2021-03-30T11:42:44.000Z</time>
      </trkpt>
      <trkpt lat="44.08898" lon="5.98415">
        <ele>527.8</ele>
        <time>2021-03-30T11:42:45.000Z</time>
      </trkpt>
      <trkpt lat="44.08897" lon="5.98419">
        <ele>527.8</ele>
        <time>2021-03-30T11:42:46.000Z</time>
      </trkpt>
      <trkpt lat="44.08896" lon="5.98426">
        <ele>527.6</ele>
        <time>2021-03-30T11:42:48.000Z</time>
      </trkpt>
      <trkpt lat="44.08896" lon="5.9843">
        <ele>527.6</ele>
        <time>2021-03-30T11:42:49.000Z</time>
      </trkpt>
      <trkpt lat="44.08896" lon="5.98434">
        <ele>527.6</ele>
        <time>2021-03-30T11:42:50.000Z</time>
      </trkpt>
      <trkpt lat="44.08896" lon="5.98442">
        <ele>527.6</ele>
        <time>2021-03-30T11:42:52.000Z</time>
      </trkpt>
      <trkpt lat="44.08896" lon="5.98447">
        <ele>527.6</ele>
        <time>2021-03-30T11:42:53.000Z</time>
      </trkpt>
      <trkpt lat="44.08896" lon="5.98456">
        <ele>527.6</ele>
        <time>2021-03-30T11:42:55.000Z</time>
      </trkpt>
      <trkpt lat="44.08895" lon="5.98461">
        <ele>527.6</ele>
        <time>2021-03-30T11:42:56.000Z</time>
      </trkpt>
      <trkpt lat="44.08894" lon="5.98466">
        <ele>527.4</ele>
        <time>2021-03-30T11:42:57.000Z</time>
      </trkpt>
      <trkpt lat="44.08889" lon="5.98474">
        <ele>527</ele>
        <time>2021-03-30T11:42:59.000Z</time>
      </trkpt>
      <trkpt lat="44.08887" lon="5.98477">
        <ele>527</ele>
        <time>2021-03-30T11:43:00.000Z</time>
      </trkpt>
      <trkpt lat="44.08884" lon="5.9848">
        <ele>526.8</ele>
        <time>2021-03-30T11:43:01.000Z</time>
      </trkpt>
      <trkpt lat="44.0888" lon="5.98487">
        <ele>526.4</ele>
        <time>2021-03-30T11:43:03.000Z</time>
      </trkpt>
      <trkpt lat="44.08878" lon="5.9849">
        <ele>526.4</ele>
        <time>2021-03-30T11:43:04.000Z</time>
      </trkpt>
      <trkpt lat="44.08874" lon="5.98498">
        <ele>526.2</ele>
        <time>2021-03-30T11:43:06.000Z</time>
      </trkpt>
      <trkpt lat="44.08872" lon="5.98502">
        <ele>526.2</ele>
        <time>2021-03-30T11:43:07.000Z</time>
      </trkpt>
      <trkpt lat="44.08871" lon="5.98506">
        <ele>526.2</ele>
        <time>2021-03-30T11:43:08.000Z</time>
      </trkpt>
      <trkpt lat="44.08869" lon="5.98514">
        <ele>526</ele>
        <time>2021-03-30T11:43:10.000Z</time>
      </trkpt>
      <trkpt lat="44.08868" lon="5.98517">
        <ele>525.8</ele>
        <time>2021-03-30T11:43:11.000Z</time>
      </trkpt>
      <trkpt lat="44.08867" lon="5.98521">
        <ele>525.6</ele>
        <time>2021-03-30T11:43:12.000Z</time>
      </trkpt>
      <trkpt lat="44.08864" lon="5.98527">
        <ele>525.2</ele>
        <time>2021-03-30T11:43:14.000Z</time>
      </trkpt>
      <trkpt lat="44.08863" lon="5.9853">
        <ele>525</ele>
        <time>2021-03-30T11:43:15.000Z</time>
      </trkpt>
      <trkpt lat="44.08862" lon="5.98534">
        <ele>525</ele>
        <time>2021-03-30T11:43:16.000Z</time>
      </trkpt>
      <trkpt lat="44.08858" lon="5.98541">
        <ele>524.6</ele>
        <time>2021-03-30T11:43:18.000Z</time>
      </trkpt>
      <trkpt lat="44.08856" lon="5.98544">
        <ele>524.6</ele>
        <time>2021-03-30T11:43:19.000Z</time>
      </trkpt>
      <trkpt lat="44.08852" lon="5.98551">
        <ele>524.4</ele>
        <time>2021-03-30T11:43:21.000Z</time>
      </trkpt>
      <trkpt lat="44.08851" lon="5.98555">
        <ele>524.2</ele>
        <time>2021-03-30T11:43:22.000Z</time>
      </trkpt>
      <trkpt lat="44.08848" lon="5.98558">
        <ele>524.2</ele>
        <time>2021-03-30T11:43:23.000Z</time>
      </trkpt>
      <trkpt lat="44.08843" lon="5.98563">
        <ele>524</ele>
        <time>2021-03-30T11:43:25.000Z</time>
      </trkpt>
      <trkpt lat="44.08841" lon="5.98566">
        <ele>523.8</ele>
        <time>2021-03-30T11:43:26.000Z</time>
      </trkpt>
      <trkpt lat="44.08839" lon="5.98569">
        <ele>523.8</ele>
        <time>2021-03-30T11:43:27.000Z</time>
      </trkpt>
      <trkpt lat="44.08835" lon="5.98575">
        <ele>523.6</ele>
        <time>2021-03-30T11:43:29.000Z</time>
      </trkpt>
      <trkpt lat="44.08833" lon="5.98579">
        <ele>523.6</ele>
        <time>2021-03-30T11:43:30.000Z</time>
      </trkpt>
      <trkpt lat="44.0883" lon="5.98586">
        <ele>523.4</ele>
        <time>2021-03-30T11:43:32.000Z</time>
      </trkpt>
      <trkpt lat="44.08828" lon="5.9859">
        <ele>523.4</ele>
        <time>2021-03-30T11:43:33.000Z</time>
      </trkpt>
      <trkpt lat="44.08826" lon="5.98594">
        <ele>523.4</ele>
        <time>2021-03-30T11:43:34.000Z</time>
      </trkpt>
      <trkpt lat="44.08823" lon="5.98602">
        <ele>523.2</ele>
        <time>2021-03-30T11:43:36.000Z</time>
      </trkpt>
      <trkpt lat="44.08822" lon="5.98605">
        <ele>522.8</ele>
        <time>2021-03-30T11:43:37.000Z</time>
      </trkpt>
      <trkpt lat="44.0882" lon="5.98609">
        <ele>522.8</ele>
        <time>2021-03-30T11:43:38.000Z</time>
      </trkpt>
      <trkpt lat="44.08818" lon="5.98617">
        <ele>523.2</ele>
        <time>2021-03-30T11:43:40.000Z</time>
      </trkpt>
      <trkpt lat="44.08817" lon="5.98621">
        <ele>523.4</ele>
        <time>2021-03-30T11:43:41.000Z</time>
      </trkpt>
      <trkpt lat="44.08814" lon="5.98629">
        <ele>523.4</ele>
        <time>2021-03-30T11:43:43.000Z</time>
      </trkpt>
      <trkpt lat="44.08812" lon="5.98632">
        <ele>523.4</ele>
        <time>2021-03-30T11:43:44.000Z</time>
      </trkpt>
      <trkpt lat="44.0881" lon="5.98635">
        <ele>523.2</ele>
        <time>2021-03-30T11:43:45.000Z</time>
      </trkpt>
      <trkpt lat="44.08807" lon="5.98643">
        <ele>523</ele>
        <time>2021-03-30T11:43:47.000Z</time>
      </trkpt>
      <trkpt lat="44.08805" lon="5.98647">
        <ele>522.6</ele>
        <time>2021-03-30T11:43:48.000Z</time>
      </trkpt>
      <trkpt lat="44.08804" lon="5.98652">
        <ele>522.4</ele>
        <time>2021-03-30T11:43:49.000Z</time>
      </trkpt>
      <trkpt lat="44.08803" lon="5.98661">
        <ele>522.2</ele>
        <time>2021-03-30T11:43:51.000Z</time>
      </trkpt>
      <trkpt lat="44.08804" lon="5.98666">
        <ele>522.2</ele>
        <time>2021-03-30T11:43:52.000Z</time>
      </trkpt>
      <trkpt lat="44.08806" lon="5.98671">
        <ele>522.2</ele>
        <time>2021-03-30T11:43:53.000Z</time>
      </trkpt>
      <trkpt lat="44.08811" lon="5.98679">
        <ele>522.2</ele>
        <time>2021-03-30T11:43:55.000Z</time>
      </trkpt>
      <trkpt lat="44.08815" lon="5.98683">
        <ele>522.2</ele>
        <time>2021-03-30T11:43:56.000Z</time>
      </trkpt>
      <trkpt lat="44.08823" lon="5.98688">
        <ele>522.8</ele>
        <time>2021-03-30T11:43:58.000Z</time>
      </trkpt>
      <trkpt lat="44.08826" lon="5.98691">
        <ele>523</ele>
        <time>2021-03-30T11:43:59.000Z</time>
      </trkpt>
      <trkpt lat="44.0883" lon="5.98693">
        <ele>523.4</ele>
        <time>2021-03-30T11:44:00.000Z</time>
      </trkpt>
      <trkpt lat="44.08838" lon="5.98699">
        <ele>524</ele>
        <time>2021-03-30T11:44:02.000Z</time>
      </trkpt>
      <trkpt lat="44.08842" lon="5.98701">
        <ele>524.4</ele>
        <time>2021-03-30T11:44:03.000Z</time>
      </trkpt>
      <trkpt lat="44.08846" lon="5.98704">
        <ele>524.8</ele>
        <time>2021-03-30T11:44:04.000Z</time>
      </trkpt>
      <trkpt lat="44.08854" lon="5.98709">
        <ele>525.6</ele>
        <time>2021-03-30T11:44:06.000Z</time>
      </trkpt>
      <trkpt lat="44.08859" lon="5.98712">
        <ele>526</ele>
        <time>2021-03-30T11:44:07.000Z</time>
      </trkpt>
      <trkpt lat="44.08867" lon="5.98718">
        <ele>526.8</ele>
        <time>2021-03-30T11:44:09.000Z</time>
      </trkpt>
      <trkpt lat="44.08871" lon="5.98721">
        <ele>527</ele>
        <time>2021-03-30T11:44:10.000Z</time>
      </trkpt>
      <trkpt lat="44.08875" lon="5.98723">
        <ele>527.4</ele>
        <time>2021-03-30T11:44:11.000Z</time>
      </trkpt>
      <trkpt lat="44.08884" lon="5.98729">
        <ele>528.2</ele>
        <time>2021-03-30T11:44:13.000Z</time>
      </trkpt>
      <trkpt lat="44.08888" lon="5.98731">
        <ele>528.6</ele>
        <time>2021-03-30T11:44:14.000Z</time>
      </trkpt>
      <trkpt lat="44.08892" lon="5.98734">
        <ele>529</ele>
        <time>2021-03-30T11:44:15.000Z</time>
      </trkpt>
      <trkpt lat="44.08901" lon="5.98739">
        <ele>529.8</ele>
        <time>2021-03-30T11:44:17.000Z</time>
      </trkpt>
      <trkpt lat="44.08905" lon="5.98742">
        <ele>530.2</ele>
        <time>2021-03-30T11:44:18.000Z</time>
      </trkpt>
      <trkpt lat="44.08913" lon="5.98748">
        <ele>531</ele>
        <time>2021-03-30T11:44:20.000Z</time>
      </trkpt>
      <trkpt lat="44.08916" lon="5.98751">
        <ele>531.4</ele>
        <time>2021-03-30T11:44:21.000Z</time>
      </trkpt>
      <trkpt lat="44.0892" lon="5.98755">
        <ele>531.6</ele>
        <time>2021-03-30T11:44:22.000Z</time>
      </trkpt>
      <trkpt lat="44.08928" lon="5.98761">
        <ele>531.8</ele>
        <time>2021-03-30T11:44:24.000Z</time>
      </trkpt>
      <trkpt lat="44.08933" lon="5.98766">
        <ele>531.8</ele>
        <time>2021-03-30T11:44:25.000Z</time>
      </trkpt>
      <trkpt lat="44.08937" lon="5.9877">
        <ele>532</ele>
        <time>2021-03-30T11:44:26.000Z</time>
      </trkpt>
      <trkpt lat="44.08946" lon="5.98781">
        <ele>532.2</ele>
        <time>2021-03-30T11:44:28.000Z</time>
      </trkpt>
      <trkpt lat="44.0895" lon="5.98786">
        <ele>532.2</ele>
        <time>2021-03-30T11:44:29.000Z</time>
      </trkpt>
      <trkpt lat="44.08961" lon="5.98798">
        <ele>532.6</ele>
        <time>2021-03-30T11:44:31.000Z</time>
      </trkpt>
      <trkpt lat="44.08966" lon="5.98804">
        <ele>532.6</ele>
        <time>2021-03-30T11:44:32.000Z</time>
      </trkpt>
      <trkpt lat="44.08972" lon="5.98812">
        <ele>532.8</ele>
        <time>2021-03-30T11:44:33.000Z</time>
      </trkpt>
      <trkpt lat="44.08984" lon="5.98827">
        <ele>532.6</ele>
        <time>2021-03-30T11:44:35.000Z</time>
      </trkpt>
      <trkpt lat="44.0899" lon="5.98836">
        <ele>532.4</ele>
        <time>2021-03-30T11:44:36.000Z</time>
      </trkpt>
      <trkpt lat="44.08996" lon="5.98845">
        <ele>532.4</ele>
        <time>2021-03-30T11:44:37.000Z</time>
      </trkpt>
      <trkpt lat="44.0901" lon="5.98863">
        <ele>532</ele>
        <time>2021-03-30T11:44:39.000Z</time>
      </trkpt>
      <trkpt lat="44.09017" lon="5.9887">
        <ele>532</ele>
        <time>2021-03-30T11:44:40.000Z</time>
      </trkpt>
      <trkpt lat="44.09026" lon="5.98877">
        <ele>531.8</ele>
        <time>2021-03-30T11:44:41.000Z</time>
      </trkpt>
      <trkpt lat="44.09043" lon="5.98888">
        <ele>531.6</ele>
        <time>2021-03-30T11:44:43.000Z</time>
      </trkpt>
      <trkpt lat="44.09052" lon="5.98892">
        <ele>531.6</ele>
        <time>2021-03-30T11:44:44.000Z</time>
      </trkpt>
      <trkpt lat="44.0907" lon="5.98901">
        <ele>531.6</ele>
        <time>2021-03-30T11:44:46.000Z</time>
      </trkpt>
      <trkpt lat="44.09079" lon="5.98906">
        <ele>531.6</ele>
        <time>2021-03-30T11:44:47.000Z</time>
      </trkpt>
      <trkpt lat="44.09089" lon="5.9891">
        <ele>531.6</ele>
        <time>2021-03-30T11:44:48.000Z</time>
      </trkpt>
      <trkpt lat="44.09106" lon="5.98917">
        <ele>532</ele>
        <time>2021-03-30T11:44:50.000Z</time>
      </trkpt>
      <trkpt lat="44.09115" lon="5.98921">
        <ele>532</ele>
        <time>2021-03-30T11:44:51.000Z</time>
      </trkpt>
      <trkpt lat="44.09123" lon="5.98925">
        <ele>532.2</ele>
        <time>2021-03-30T11:44:52.000Z</time>
      </trkpt>
      <trkpt lat="44.0914" lon="5.98932">
        <ele>532.4</ele>
        <time>2021-03-30T11:44:54.000Z</time>
      </trkpt>
      <trkpt lat="44.09148" lon="5.98934">
        <ele>532.6</ele>
        <time>2021-03-30T11:44:55.000Z</time>
      </trkpt>
      <trkpt lat="44.09166" lon="5.98938">
        <ele>532.8</ele>
        <time>2021-03-30T11:44:57.000Z</time>
      </trkpt>
      <trkpt lat="44.09174" lon="5.98938">
        <ele>533</ele>
        <time>2021-03-30T11:44:58.000Z</time>
      </trkpt>
      <trkpt lat="44.09182" lon="5.98936">
        <ele>533</ele>
        <time>2021-03-30T11:44:59.000Z</time>
      </trkpt>
      <trkpt lat="44.09197" lon="5.98928">
        <ele>533.2</ele>
        <time>2021-03-30T11:45:01.000Z</time>
      </trkpt>
      <trkpt lat="44.09204" lon="5.98924">
        <ele>533.2</ele>
        <time>2021-03-30T11:45:02.000Z</time>
      </trkpt>
      <trkpt lat="44.09211" lon="5.98919">
        <ele>533.2</ele>
        <time>2021-03-30T11:45:03.000Z</time>
      </trkpt>
      <trkpt lat="44.09224" lon="5.98909">
        <ele>533.4</ele>
        <time>2021-03-30T11:45:05.000Z</time>
      </trkpt>
      <trkpt lat="44.09231" lon="5.98905">
        <ele>533.4</ele>
        <time>2021-03-30T11:45:06.000Z</time>
      </trkpt>
      <trkpt lat="44.09244" lon="5.989">
        <ele>533.4</ele>
        <time>2021-03-30T11:45:08.000Z</time>
      </trkpt>
      <trkpt lat="44.0925" lon="5.98899">
        <ele>533.4</ele>
        <time>2021-03-30T11:45:09.000Z</time>
      </trkpt>
      <trkpt lat="44.09256" lon="5.989">
        <ele>533.4</ele>
        <time>2021-03-30T11:45:10.000Z</time>
      </trkpt>
      <trkpt lat="44.09267" lon="5.98905">
        <ele>533.6</ele>
        <time>2021-03-30T11:45:12.000Z</time>
      </trkpt>
      <trkpt lat="44.09267" lon="5.98906">
        <ele>542.7</ele>
      </trkpt>
      <trkpt lat="44.09274" lon="5.9891">
        <ele>542.8</ele>
      </trkpt>
      <trkpt lat="44.09277" lon="5.98925">
        <ele>542</ele>
      </trkpt>
      <trkpt lat="44.09275" lon="5.98938">
        <ele>541.3</ele>
      </trkpt>
      <trkpt lat="44.09274" lon="5.98947">
        <ele>540.9</ele>
      </trkpt>
      <trkpt lat="44.09285" lon="5.98949">
        <ele>541.9</ele>
      </trkpt>
      <trkpt lat="44.09293" lon="5.98948">
        <ele>542.7</ele>
      </trkpt>
      <trkpt lat="44.09316" lon="5.98938">
        <ele>545.1</ele>
      </trkpt>
      <trkpt lat="44.09323" lon="5.98932">
        <ele>545.8</ele>
      </trkpt>
      <trkpt lat="44.09327" lon="5.98929">
        <ele>546.3</ele>
      </trkpt>
      <trkpt lat="44.09333" lon="5.98926">
        <ele>546.9</ele>
      </trkpt>
      <trkpt lat="44.09356" lon="5.98921">
        <ele>549.1</ele>
      </trkpt>
      <trkpt lat="44.09365" lon="5.98918">
        <ele>550.1</ele>
      </trkpt>
      <trkpt lat="44.09397" lon="5.98883">
        <ele>553.3</ele>
      </trkpt>
      <trkpt lat="44.0941" lon="5.9887">
        <ele>554.1</ele>
      </trkpt>
      <trkpt lat="44.09438" lon="5.98846">
        <ele>557.4</ele>
      </trkpt>
      <trkpt lat="44.09457" lon="5.98831">
        <ele>560.3</ele>
      </trkpt>
      <trkpt lat="44.09477" lon="5.9881">
        <ele>563.6</ele>
      </trkpt>
      <trkpt lat="44.09487" lon="5.98798">
        <ele>564.6</ele>
      </trkpt>
      <trkpt lat="44.09493" lon="5.98788">
        <ele>564.9</ele>
      </trkpt>
      <trkpt lat="44.09498" lon="5.98779">
        <ele>564.9</ele>
      </trkpt>
      <trkpt lat="44.09505" lon="5.98759">
        <ele>565.6</ele>
      </trkpt>
      <trkpt lat="44.09517" lon="5.98723">
        <ele>569</ele>
      </trkpt>
      <trkpt lat="44.0953" lon="5.98684">
        <ele>570.9</ele>
      </trkpt>
      <trkpt lat="44.09535" lon="5.98677">
        <ele>571.3</ele>
      </trkpt>
      <trkpt lat="44.09541" lon="5.98669">
        <ele>571.5</ele>
      </trkpt>
      <trkpt lat="44.09576" lon="5.98634">
        <ele>572.9</ele>
      </trkpt>
      <trkpt lat="44.09593" lon="5.9861">
        <ele>572.7</ele>
      </trkpt>
      <trkpt lat="44.09605" lon="5.9859">
        <ele>572.1</ele>
      </trkpt>
      <trkpt lat="44.09611" lon="5.9857">
        <ele>572.3</ele>
      </trkpt>
      <trkpt lat="44.09615" lon="5.98564">
        <ele>572.6</ele>
      </trkpt>
      <trkpt lat="44.0963" lon="5.98548">
        <ele>573.3</ele>
      </trkpt>
      <trkpt lat="44.09715" lon="5.9848">
        <ele>577.7</ele>
      </trkpt>
      <trkpt lat="44.09744" lon="5.98453">
        <ele>581.7</ele>
      </trkpt>
      <trkpt lat="44.09801" lon="5.98403">
        <ele>586.6</ele>
      </trkpt>
      <trkpt lat="44.09825" lon="5.98388">
        <ele>588.4</ele>
      </trkpt>
      <trkpt lat="44.09861" lon="5.98368">
        <ele>591.5</ele>
      </trkpt>
      <trkpt lat="44.09916" lon="5.98343">
        <ele>596.3</ele>
      </trkpt>
      <trkpt lat="44.09995" lon="5.98316">
        <ele>602.4</ele>
      </trkpt>
      <trkpt lat="44.10045" lon="5.983">
        <ele>605.4</ele>
      </trkpt>
      <trkpt lat="44.10057" lon="5.98296">
        <ele>606</ele>
      </trkpt>
      <trkpt lat="44.10085" lon="5.98286">
        <ele>607.5</ele>
      </trkpt>
      <trkpt lat="44.10119" lon="5.98273">
        <ele>610.7</ele>
      </trkpt>
      <trkpt lat="44.10123" lon="5.98266">
        <ele>611.2</ele>
      </trkpt>
      <trkpt lat="44.10125" lon="5.98263">
        <ele>611.4</ele>
      </trkpt>
      <trkpt lat="44.10141" lon="5.98219">
        <ele>615.7</ele>
      </trkpt>
      <trkpt lat="44.10147" lon="5.9821">
        <ele>616.7</ele>
      </trkpt>
      <trkpt lat="44.10156" lon="5.98199">
        <ele>618</ele>
      </trkpt>
      <trkpt lat="44.10173" lon="5.98186">
        <ele>619.7</ele>
      </trkpt>
      <trkpt lat="44.1018" lon="5.98183">
        <ele>620.2</ele>
      </trkpt>
      <trkpt lat="44.1019" lon="5.98177">
        <ele>621.1</ele>
      </trkpt>
      <trkpt lat="44.10207" lon="5.98157">
        <ele>623.2</ele>
      </trkpt>
      <trkpt lat="44.10209" lon="5.98156">
        <ele>623.3</ele>
      </trkpt>
      <trkpt lat="44.10214" lon="5.98158">
        <ele>623.4</ele>
      </trkpt>
      <trkpt lat="44.10215" lon="5.98158">
        <ele>623.3</ele>
      </trkpt>
      <trkpt lat="44.10216" lon="5.9816">
        <ele>623.2</ele>
      </trkpt>
      <trkpt lat="44.10219" lon="5.9819">
        <ele>621.8</ele>
      </trkpt>
      <trkpt lat="44.1022" lon="5.98208">
        <ele>621</ele>
      </trkpt>
      <trkpt lat="44.10228" lon="5.98232">
        <ele>620.6</ele>
      </trkpt>
      <trkpt lat="44.10232" lon="5.9824">
        <ele>620.6</ele>
      </trkpt>
      <trkpt lat="44.10246" lon="5.98263">
        <ele>621.6</ele>
      </trkpt>
      <trkpt lat="44.10263" lon="5.9828">
        <ele>621.3</ele>
      </trkpt>
      <trkpt lat="44.10267" lon="5.98282">
        <ele>621.1</ele>
      </trkpt>
      <trkpt lat="44.10273" lon="5.98284">
        <ele>620.9</ele>
      </trkpt>
      <trkpt lat="44.10269" lon="5.98285">
        <ele>595.4</ele>
        <time>2021-03-30T11:58:06.000Z</time>
      </trkpt>
      <trkpt lat="44.1027" lon="5.98288">
        <ele>595.8</ele>
        <time>2021-03-30T11:58:07.000Z</time>
      </trkpt>
      <trkpt lat="44.10271" lon="5.98291">
        <ele>596.2</ele>
        <time>2021-03-30T11:58:08.000Z</time>
      </trkpt>
      <trkpt lat="44.10271" lon="5.98298">
        <ele>597</ele>
        <time>2021-03-30T11:58:10.000Z</time>
      </trkpt>
      <trkpt lat="44.1027" lon="5.983">
        <ele>597.4</ele>
        <time>2021-03-30T11:58:11.000Z</time>
      </trkpt>
      <trkpt lat="44.10268" lon="5.98304">
        <ele>598.2</ele>
        <time>2021-03-30T11:58:13.000Z</time>
      </trkpt>
      <trkpt lat="44.10267" lon="5.98305">
        <ele>598.6</ele>
        <time>2021-03-30T11:58:14.000Z</time>
      </trkpt>
      <trkpt lat="44.10265" lon="5.98306">
        <ele>599</ele>
        <time>2021-03-30T11:58:15.000Z</time>
      </trkpt>
      <trkpt lat="44.10262" lon="5.9831">
        <ele>599.8</ele>
        <time>2021-03-30T11:58:17.000Z</time>
      </trkpt>
      <trkpt lat="44.10261" lon="5.98313">
        <ele>600</ele>
        <time>2021-03-30T11:58:18.000Z</time>
      </trkpt>
      <trkpt lat="44.10259" lon="5.98315">
        <ele>600.4</ele>
        <time>2021-03-30T11:58:19.000Z</time>
      </trkpt>
      <trkpt lat="44.10255" lon="5.98314">
        <ele>601.2</ele>
        <time>2021-03-30T11:58:21.000Z</time>
      </trkpt>
      <trkpt lat="44.10253" lon="5.98314">
        <ele>601.6</ele>
        <time>2021-03-30T11:58:22.000Z</time>
      </trkpt>
      <trkpt lat="44.10249" lon="5.98314">
        <ele>602.2</ele>
        <time>2021-03-30T11:58:24.000Z</time>
      </trkpt>
      <trkpt lat="44.10248" lon="5.98315">
        <ele>602.4</ele>
        <time>2021-03-30T11:58:25.000Z</time>
      </trkpt>
      <trkpt lat="44.10248" lon="5.98315">
        <ele>602.6</ele>
        <time>2021-03-30T11:58:26.000Z</time>
      </trkpt>
      <trkpt lat="44.10247" lon="5.98316">
        <ele>602.8</ele>
        <time>2021-03-30T11:58:28.000Z</time>
      </trkpt>
      <trkpt lat="44.10247" lon="5.98316">
        <ele>602.8</ele>
        <time>2021-03-30T11:58:29.000Z</time>
      </trkpt>
      <trkpt lat="44.10247" lon="5.98316">
        <ele>602.8</ele>
        <time>2021-03-30T11:58:30.000Z</time>
      </trkpt>
      <trkpt lat="44.10247" lon="5.98316">
        <ele>603</ele>
        <time>2021-03-30T11:58:32.000Z</time>
      </trkpt>
      <trkpt lat="44.10247" lon="5.98316">
        <ele>603</ele>
        <time>2021-03-30T11:58:33.000Z</time>
      </trkpt>
      <trkpt lat="44.10247" lon="5.98316">
        <ele>603</ele>
        <time>2021-03-30T11:58:35.000Z</time>
      </trkpt>
      <trkpt lat="44.10247" lon="5.98316">
        <ele>602.8</ele>
        <time>2021-03-30T11:58:36.000Z</time>
      </trkpt>
      <trkpt lat="44.10247" lon="5.98316">
        <ele>602.8</ele>
        <time>2021-03-30T11:58:37.000Z</time>
      </trkpt>
      <trkpt lat="44.10247" lon="5.98316">
        <ele>603</ele>
        <time>2021-03-30T11:58:39.000Z</time>
      </trkpt>
      <trkpt lat="44.10247" lon="5.98316">
        <ele>603</ele>
        <time>2021-03-30T11:58:40.000Z</time>
      </trkpt>
      <trkpt lat="44.10247" lon="5.98316">
        <ele>603</ele>
        <time>2021-03-30T11:58:41.000Z</time>
      </trkpt>
      <trkpt lat="44.10247" lon="5.98316">
        <ele>603</ele>
        <time>2021-03-30T11:58:43.000Z</time>
      </trkpt>
      <trkpt lat="44.10247" lon="5.98316">
        <ele>602.8</ele>
        <time>2021-03-30T11:58:44.000Z</time>
      </trkpt>
      <trkpt lat="44.10247" lon="5.98316">
        <ele>602.6</ele>
        <time>2021-03-30T11:58:45.000Z</time>
      </trkpt>
      <trkpt lat="44.10247" lon="5.98316">
        <ele>602.4</ele>
        <time>2021-03-30T11:58:47.000Z</time>
      </trkpt>
      <trkpt lat="44.10247" lon="5.98316">
        <ele>602.4</ele>
        <time>2021-03-30T11:58:48.000Z</time>
      </trkpt>
      <trkpt lat="44.10247" lon="5.98316">
        <ele>602</ele>
        <time>2021-03-30T11:58:50.000Z</time>
      </trkpt>
      <trkpt lat="44.10247" lon="5.98316">
        <ele>602</ele>
        <time>2021-03-30T11:58:51.000Z</time>
      </trkpt>
      <trkpt lat="44.10247" lon="5.98316">
        <ele>601.8</ele>
        <time>2021-03-30T11:58:52.000Z</time>
      </trkpt>
      <trkpt lat="44.10243" lon="5.98313">
        <ele>601.8</ele>
        <time>2021-03-30T11:58:54.000Z</time>
      </trkpt>
      <trkpt lat="44.10241" lon="5.98311">
        <ele>601.8</ele>
        <time>2021-03-30T11:58:55.000Z</time>
      </trkpt>
      <trkpt lat="44.1024" lon="5.9831">
        <ele>602</ele>
        <time>2021-03-30T11:58:56.000Z</time>
      </trkpt>
      <trkpt lat="44.10235" lon="5.9831">
        <ele>602.2</ele>
        <time>2021-03-30T11:58:58.000Z</time>
      </trkpt>
      <trkpt lat="44.10232" lon="5.98311">
        <ele>602.2</ele>
        <time>2021-03-30T11:58:59.000Z</time>
      </trkpt>
      <trkpt lat="44.10225" lon="5.98314">
        <ele>602.4</ele>
        <time>2021-03-30T11:59:01.000Z</time>
      </trkpt>
      <trkpt lat="44.10222" lon="5.98315">
        <ele>602.6</ele>
        <time>2021-03-30T11:59:02.000Z</time>
      </trkpt>
      <trkpt lat="44.10218" lon="5.98317">
        <ele>602.6</ele>
        <time>2021-03-30T11:59:03.000Z</time>
      </trkpt>
      <trkpt lat="44.10212" lon="5.98317">
        <ele>602.8</ele>
        <time>2021-03-30T11:59:05.000Z</time>
      </trkpt>
      <trkpt lat="44.1021" lon="5.98316">
        <ele>602.8</ele>
        <time>2021-03-30T11:59:06.000Z</time>
      </trkpt>
      <trkpt lat="44.10207" lon="5.98316">
        <ele>603</ele>
        <time>2021-03-30T11:59:07.000Z</time>
      </trkpt>
      <trkpt lat="44.10201" lon="5.98316">
        <ele>603.4</ele>
        <time>2021-03-30T11:59:09.000Z</time>
      </trkpt>
      <trkpt lat="44.10197" lon="5.98316">
        <ele>603.6</ele>
        <time>2021-03-30T11:59:10.000Z</time>
      </trkpt>
      <trkpt lat="44.10189" lon="5.98318">
        <ele>603.8</ele>
        <time>2021-03-30T11:59:12.000Z</time>
      </trkpt>
      <trkpt lat="44.10186" lon="5.98321">
        <ele>604</ele>
        <time>2021-03-30T11:59:13.000Z</time>
      </trkpt>
      <trkpt lat="44.10183" lon="5.98323">
        <ele>604.2</ele>
        <time>2021-03-30T11:59:14.000Z</time>
      </trkpt>
      <trkpt lat="44.10177" lon="5.98326">
        <ele>604.2</ele>
        <time>2021-03-30T11:59:16.000Z</time>
      </trkpt>
      <trkpt lat="44.10174" lon="5.98328">
        <ele>604.2</ele>
        <time>2021-03-30T11:59:17.000Z</time>
      </trkpt>
      <trkpt lat="44.10173" lon="5.98332">
        <ele>604.2</ele>
        <time>2021-03-30T11:59:18.000Z</time>
      </trkpt>
      <trkpt lat="44.10173" lon="5.98339">
        <ele>604.4</ele>
        <time>2021-03-30T11:59:20.000Z</time>
      </trkpt>
      <trkpt lat="44.10172" lon="5.98343">
        <ele>604.4</ele>
        <time>2021-03-30T11:59:21.000Z</time>
      </trkpt>
      <trkpt lat="44.10172" lon="5.98348">
        <ele>604.4</ele>
        <time>2021-03-30T11:59:22.000Z</time>
      </trkpt>
      <trkpt lat="44.10172" lon="5.98356">
        <ele>604.4</ele>
        <time>2021-03-30T11:59:24.000Z</time>
      </trkpt>
      <trkpt lat="44.10173" lon="5.98359">
        <ele>604.6</ele>
        <time>2021-03-30T11:59:25.000Z</time>
      </trkpt>
      <trkpt lat="44.10176" lon="5.98363">
        <ele>604.8</ele>
        <time>2021-03-30T11:59:27.000Z</time>
      </trkpt>
      <trkpt lat="44.10178" lon="5.98364">
        <ele>605</ele>
        <time>2021-03-30T11:59:28.000Z</time>
      </trkpt>
      <trkpt lat="44.1018" lon="5.98365">
        <ele>605.2</ele>
        <time>2021-03-30T11:59:29.000Z</time>
      </trkpt>
      <trkpt lat="44.10182" lon="5.98369">
        <ele>605.6</ele>
        <time>2021-03-30T11:59:31.000Z</time>
      </trkpt>
      <trkpt lat="44.10182" lon="5.98371">
        <ele>605.6</ele>
        <time>2021-03-30T11:59:32.000Z</time>
      </trkpt>
      <trkpt lat="44.10182" lon="5.98375">
        <ele>605.8</ele>
        <time>2021-03-30T11:59:33.000Z</time>
      </trkpt>
      <trkpt lat="44.10181" lon="5.98382">
        <ele>605.8</ele>
        <time>2021-03-30T11:59:35.000Z</time>
      </trkpt>
      <trkpt lat="44.1018" lon="5.98387">
        <ele>605.6</ele>
        <time>2021-03-30T11:59:36.000Z</time>
      </trkpt>
      <trkpt lat="44.10181" lon="5.98394">
        <ele>605.6</ele>
        <time>2021-03-30T11:59:38.000Z</time>
      </trkpt>
      <trkpt lat="44.10181" lon="5.98398">
        <ele>605.6</ele>
        <time>2021-03-30T11:59:39.000Z</time>
      </trkpt>
      <trkpt lat="44.10181" lon="5.98402">
        <ele>605.6</ele>
        <time>2021-03-30T11:59:40.000Z</time>
      </trkpt>
      <trkpt lat="44.10181" lon="5.98411">
        <ele>605.4</ele>
        <time>2021-03-30T11:59:42.000Z</time>
      </trkpt>
      <trkpt lat="44.10181" lon="5.98415">
        <ele>605.4</ele>
        <time>2021-03-30T11:59:43.000Z</time>
      </trkpt>
      <trkpt lat="44.1018" lon="5.98418">
        <ele>605.4</ele>
        <time>2021-03-30T11:59:44.000Z</time>
      </trkpt>
      <trkpt lat="44.10177" lon="5.98419">
        <ele>605.2</ele>
        <time>2021-03-30T11:59:46.000Z</time>
      </trkpt>
      <trkpt lat="44.10173" lon="5.98419">
        <ele>605</ele>
        <time>2021-03-30T11:59:47.000Z</time>
      </trkpt>
      <trkpt lat="44.10165" lon="5.98417">
        <ele>604.6</ele>
        <time>2021-03-30T11:59:49.000Z</time>
      </trkpt>
      <trkpt lat="44.1016" lon="5.98415">
        <ele>604.2</ele>
        <time>2021-03-30T11:59:50.000Z</time>
      </trkpt>
      <trkpt lat="44.10156" lon="5.98414">
        <ele>604</ele>
        <time>2021-03-30T11:59:51.000Z</time>
      </trkpt>
      <trkpt lat="44.10149" lon="5.98418">
        <ele>603.6</ele>
        <time>2021-03-30T11:59:53.000Z</time>
      </trkpt>
      <trkpt lat="44.10146" lon="5.98421">
        <ele>603.4</ele>
        <time>2021-03-30T11:59:54.000Z</time>
      </trkpt>
      <trkpt lat="44.10144" lon="5.98424">
        <ele>603.2</ele>
        <time>2021-03-30T11:59:55.000Z</time>
      </trkpt>
      <trkpt lat="44.10139" lon="5.98429">
        <ele>603</ele>
        <time>2021-03-30T11:59:57.000Z</time>
      </trkpt>
      <trkpt lat="44.10135" lon="5.98431">
        <ele>602.8</ele>
        <time>2021-03-30T11:59:58.000Z</time>
      </trkpt>
      <trkpt lat="44.10127" lon="5.98431">
        <ele>602.4</ele>
        <time>2021-03-30T12:00:00.000Z</time>
      </trkpt>
      <trkpt lat="44.10125" lon="5.9843">
        <ele>602.2</ele>
        <time>2021-03-30T12:00:01.000Z</time>
      </trkpt>
      <trkpt lat="44.10125" lon="5.98427">
        <ele>602</ele>
        <time>2021-03-30T12:00:02.000Z</time>
      </trkpt>
      <trkpt lat="44.1012" lon="5.98422">
        <ele>601.6</ele>
        <time>2021-03-30T12:00:04.000Z</time>
      </trkpt>
      <trkpt lat="44.10115" lon="5.98422">
        <ele>601.4</ele>
        <time>2021-03-30T12:00:05.000Z</time>
      </trkpt>
      <trkpt lat="44.10111" lon="5.98424">
        <ele>601.2</ele>
        <time>2021-03-30T12:00:06.000Z</time>
      </trkpt>
      <trkpt lat="44.10103" lon="5.98426">
        <ele>600.6</ele>
        <time>2021-03-30T12:00:08.000Z</time>
      </trkpt>
      <trkpt lat="44.10099" lon="5.98428">
        <ele>600.4</ele>
        <time>2021-03-30T12:00:09.000Z</time>
      </trkpt>
      <trkpt lat="44.10094" lon="5.98428">
        <ele>600</ele>
        <time>2021-03-30T12:00:10.000Z</time>
      </trkpt>
      <trkpt lat="44.10083" lon="5.98426">
        <ele>599.2</ele>
        <time>2021-03-30T12:00:12.000Z</time>
      </trkpt>
      <trkpt lat="44.10078" lon="5.98423">
        <ele>598.8</ele>
        <time>2021-03-30T12:00:13.000Z</time>
      </trkpt>
      <trkpt lat="44.10069" lon="5.98422">
        <ele>598</ele>
        <time>2021-03-30T12:00:15.000Z</time>
      </trkpt>
      <trkpt lat="44.10065" lon="5.98423">
        <ele>597.8</ele>
        <time>2021-03-30T12:00:16.000Z</time>
      </trkpt>
      <trkpt lat="44.10061" lon="5.98425">
        <ele>597.4</ele>
        <time>2021-03-30T12:00:17.000Z</time>
      </trkpt>
      <trkpt lat="44.10052" lon="5.98428">
        <ele>596.4</ele>
        <time>2021-03-30T12:00:19.000Z</time>
      </trkpt>
      <trkpt lat="44.10048" lon="5.98429">
        <ele>596</ele>
        <time>2021-03-30T12:00:20.000Z</time>
      </trkpt>
      <trkpt lat="44.10044" lon="5.9843">
        <ele>595.6</ele>
        <time>2021-03-30T12:00:21.000Z</time>
      </trkpt>
      <trkpt lat="44.10036" lon="5.98434">
        <ele>594.4</ele>
        <time>2021-03-30T12:00:23.000Z</time>
      </trkpt>
      <trkpt lat="44.10033" lon="5.98436">
        <ele>594</ele>
        <time>2021-03-30T12:00:24.000Z</time>
      </trkpt>
      <trkpt lat="44.10026" lon="5.9844">
        <ele>593</ele>
        <time>2021-03-30T12:00:26.000Z</time>
      </trkpt>
      <trkpt lat="44.10023" lon="5.98443">
        <ele>592.6</ele>
        <time>2021-03-30T12:00:27.000Z</time>
      </trkpt>
      <trkpt lat="44.1002" lon="5.98447">
        <ele>592</ele>
        <time>2021-03-30T12:00:28.000Z</time>
      </trkpt>
      <trkpt lat="44.10014" lon="5.98451">
        <ele>591.2</ele>
        <time>2021-03-30T12:00:30.000Z</time>
      </trkpt>
      <trkpt lat="44.10011" lon="5.98452">
        <ele>591</ele>
        <time>2021-03-30T12:00:31.000Z</time>
      </trkpt>
      <trkpt lat="44.10009" lon="5.98454">
        <ele>590.6</ele>
        <time>2021-03-30T12:00:32.000Z</time>
      </trkpt>
      <trkpt lat="44.10006" lon="5.9846">
        <ele>590.2</ele>
        <time>2021-03-30T12:00:34.000Z</time>
      </trkpt>
      <trkpt lat="44.10004" lon="5.98463">
        <ele>590</ele>
        <time>2021-03-30T12:00:35.000Z</time>
      </trkpt>
      <trkpt lat="44.09997" lon="5.98466">
        <ele>589.4</ele>
        <time>2021-03-30T12:00:37.000Z</time>
      </trkpt>
      <trkpt lat="44.09994" lon="5.98467">
        <ele>589</ele>
        <time>2021-03-30T12:00:38.000Z</time>
      </trkpt>
      <trkpt lat="44.0999" lon="5.98468">
        <ele>588.8</ele>
        <time>2021-03-30T12:00:39.000Z</time>
      </trkpt>
      <trkpt lat="44.09985" lon="5.98471">
        <ele>588.2</ele>
        <time>2021-03-30T12:00:41.000Z</time>
      </trkpt>
      <trkpt lat="44.09983" lon="5.98469">
        <ele>587.8</ele>
        <time>2021-03-30T12:00:42.000Z</time>
      </trkpt>
      <trkpt lat="44.09982" lon="5.98467">
        <ele>587.4</ele>
        <time>2021-03-30T12:00:43.000Z</time>
      </trkpt>
      <trkpt lat="44.09979" lon="5.98462">
        <ele>586.4</ele>
        <time>2021-03-30T12:00:45.000Z</time>
      </trkpt>
      <trkpt lat="44.09978" lon="5.98461">
        <ele>586</ele>
        <time>2021-03-30T12:00:46.000Z</time>
      </trkpt>
      <trkpt lat="44.09977" lon="5.98461">
        <ele>585.6</ele>
        <time>2021-03-30T12:00:47.000Z</time>
      </trkpt>
      <trkpt lat="44.09976" lon="5.98461">
        <ele>585</ele>
        <time>2021-03-30T12:00:49.000Z</time>
      </trkpt>
      <trkpt lat="44.09976" lon="5.98461">
        <ele>584.8</ele>
        <time>2021-03-30T12:00:50.000Z</time>
      </trkpt>
      <trkpt lat="44.09976" lon="5.98461">
        <ele>584.4</ele>
        <time>2021-03-30T12:00:52.000Z</time>
      </trkpt>
      <trkpt lat="44.09976" lon="5.98461">
        <ele>584.2</ele>
        <time>2021-03-30T12:00:53.000Z</time>
      </trkpt>
      <trkpt lat="44.0997" lon="5.98465">
        <ele>584.2</ele>
        <time>2021-03-30T12:00:54.000Z</time>
      </trkpt>
      <trkpt lat="44.09965" lon="5.98468">
        <ele>583.8</ele>
        <time>2021-03-30T12:00:56.000Z</time>
      </trkpt>
      <trkpt lat="44.09963" lon="5.9847">
        <ele>583.8</ele>
        <time>2021-03-30T12:00:57.000Z</time>
      </trkpt>
      <trkpt lat="44.0996" lon="5.98472">
        <ele>583.6</ele>
        <time>2021-03-30T12:00:58.000Z</time>
      </trkpt>
      <trkpt lat="44.09956" lon="5.98475">
        <ele>583.6</ele>
        <time>2021-03-30T12:01:00.000Z</time>
      </trkpt>
      <trkpt lat="44.09954" lon="5.98475">
        <ele>583.4</ele>
        <time>2021-03-30T12:01:01.000Z</time>
      </trkpt>
      <trkpt lat="44.09949" lon="5.98478">
        <ele>583.4</ele>
        <time>2021-03-30T12:01:03.000Z</time>
      </trkpt>
      <trkpt lat="44.09947" lon="5.98479">
        <ele>583.4</ele>
        <time>2021-03-30T12:01:04.000Z</time>
      </trkpt>
      <trkpt lat="44.09945" lon="5.9848">
        <ele>583.4</ele>
        <time>2021-03-30T12:01:05.000Z</time>
      </trkpt>
      <trkpt lat="44.09941" lon="5.98479">
        <ele>583.4</ele>
        <time>2021-03-30T12:01:07.000Z</time>
      </trkpt>
      <trkpt lat="44.09938" lon="5.98478">
        <ele>583.2</ele>
        <time>2021-03-30T12:01:08.000Z</time>
      </trkpt>
      <trkpt lat="44.09936" lon="5.98476">
        <ele>583.2</ele>
        <time>2021-03-30T12:01:09.000Z</time>
      </trkpt>
      <trkpt lat="44.0993" lon="5.98473">
        <ele>583.2</ele>
        <time>2021-03-30T12:01:11.000Z</time>
      </trkpt>
      <trkpt lat="44.09929" lon="5.98472">
        <ele>583.2</ele>
        <time>2021-03-30T12:01:12.000Z</time>
      </trkpt>
      <trkpt lat="44.09924" lon="5.98471">
        <ele>583.2</ele>
        <time>2021-03-30T12:01:14.000Z</time>
      </trkpt>
      <trkpt lat="44.09922" lon="5.98471">
        <ele>583</ele>
        <time>2021-03-30T12:01:15.000Z</time>
      </trkpt>
      <trkpt lat="44.09918" lon="5.9847">
        <ele>583</ele>
        <time>2021-03-30T12:01:16.000Z</time>
      </trkpt>
      <trkpt lat="44.09911" lon="5.98466">
        <ele>582.6</ele>
        <time>2021-03-30T12:01:18.000Z</time>
      </trkpt>
      <trkpt lat="44.09908" lon="5.98465">
        <ele>582.4</ele>
        <time>2021-03-30T12:01:19.000Z</time>
      </trkpt>
      <trkpt lat="44.09905" lon="5.98465">
        <ele>582.2</ele>
        <time>2021-03-30T12:01:20.000Z</time>
      </trkpt>
      <trkpt lat="44.09899" lon="5.98468">
        <ele>581.8</ele>
        <time>2021-03-30T12:01:22.000Z</time>
      </trkpt>
      <trkpt lat="44.09896" lon="5.98469">
        <ele>581.6</ele>
        <time>2021-03-30T12:01:23.000Z</time>
      </trkpt>
      <trkpt lat="44.09894" lon="5.98472">
        <ele>581.4</ele>
        <time>2021-03-30T12:01:24.000Z</time>
      </trkpt>
      <trkpt lat="44.09892" lon="5.98477">
        <ele>580.8</ele>
        <time>2021-03-30T12:01:26.000Z</time>
      </trkpt>
      <trkpt lat="44.09891" lon="5.9848">
        <ele>580.4</ele>
        <time>2021-03-30T12:01:27.000Z</time>
      </trkpt>
      <trkpt lat="44.09887" lon="5.98487">
        <ele>579.8</ele>
        <time>2021-03-30T12:01:29.000Z</time>
      </trkpt>
      <trkpt lat="44.09884" lon="5.98491">
        <ele>579.4</ele>
        <time>2021-03-30T12:01:30.000Z</time>
      </trkpt>
      <trkpt lat="44.0988" lon="5.98496">
        <ele>579.2</ele>
        <time>2021-03-30T12:01:31.000Z</time>
      </trkpt>
      <trkpt lat="44.09876" lon="5.98505">
        <ele>578.8</ele>
        <time>2021-03-30T12:01:33.000Z</time>
      </trkpt>
      <trkpt lat="44.09875" lon="5.98509">
        <ele>578.6</ele>
        <time>2021-03-30T12:01:34.000Z</time>
      </trkpt>
      <trkpt lat="44.09874" lon="5.98513">
        <ele>578.4</ele>
        <time>2021-03-30T12:01:35.000Z</time>
      </trkpt>
      <trkpt lat="44.09874" lon="5.9852">
        <ele>577.8</ele>
        <time>2021-03-30T12:01:37.000Z</time>
      </trkpt>
      <trkpt lat="44.09873" lon="5.98523">
        <ele>577.6</ele>
        <time>2021-03-30T12:01:38.000Z</time>
      </trkpt>
      <trkpt lat="44.09871" lon="5.98523">
        <ele>577</ele>
        <time>2021-03-30T12:01:40.000Z</time>
      </trkpt>
      <trkpt lat="44.09868" lon="5.98522">
        <ele>576.6</ele>
        <time>2021-03-30T12:01:41.000Z</time>
      </trkpt>
      <trkpt lat="44.09865" lon="5.98522">
        <ele>576.4</ele>
        <time>2021-03-30T12:01:42.000Z</time>
      </trkpt>
      <trkpt lat="44.0986" lon="5.98521">
        <ele>576.2</ele>
        <time>2021-03-30T12:01:44.000Z</time>
      </trkpt>
      <trkpt lat="44.09858" lon="5.98521">
        <ele>575.8</ele>
        <time>2021-03-30T12:01:45.000Z</time>
      </trkpt>
      <trkpt lat="44.09855" lon="5.98522">
        <ele>575.6</ele>
        <time>2021-03-30T12:01:46.000Z</time>
      </trkpt>
      <trkpt lat="44.09846" lon="5.98525">
        <ele>575</ele>
        <time>2021-03-30T12:01:48.000Z</time>
      </trkpt>
      <trkpt lat="44.09843" lon="5.98526">
        <ele>575</ele>
        <time>2021-03-30T12:01:49.000Z</time>
      </trkpt>
      <trkpt lat="44.0984" lon="5.98526">
        <ele>574.8</ele>
        <time>2021-03-30T12:01:51.000Z</time>
      </trkpt>
      <trkpt lat="44.09839" lon="5.98525">
        <ele>574.6</ele>
        <time>2021-03-30T12:01:52.000Z</time>
      </trkpt>
      <trkpt lat="44.09837" lon="5.98522">
        <ele>574.4</ele>
        <time>2021-03-30T12:01:53.000Z</time>
      </trkpt>
      <trkpt lat="44.0983" lon="5.98521">
        <ele>574</ele>
        <time>2021-03-30T12:01:55.000Z</time>
      </trkpt>
      <trkpt lat="44.09827" lon="5.98522">
        <ele>573.8</ele>
        <time>2021-03-30T12:01:56.000Z</time>
      </trkpt>
      <trkpt lat="44.09824" lon="5.98522">
        <ele>573.6</ele>
        <time>2021-03-30T12:01:57.000Z</time>
      </trkpt>
      <trkpt lat="44.09818" lon="5.98524">
        <ele>573.2</ele>
        <time>2021-03-30T12:01:59.000Z</time>
      </trkpt>
      <trkpt lat="44.09815" lon="5.98526">
        <ele>573</ele>
        <time>2021-03-30T12:02:00.000Z</time>
      </trkpt>
      <trkpt lat="44.09808" lon="5.9853">
        <ele>572.6</ele>
        <time>2021-03-30T12:02:02.000Z</time>
      </trkpt>
      <trkpt lat="44.09804" lon="5.98531">
        <ele>572.6</ele>
        <time>2021-03-30T12:02:03.000Z</time>
      </trkpt>
      <trkpt lat="44.09801" lon="5.98534">
        <ele>572.4</ele>
        <time>2021-03-30T12:02:04.000Z</time>
      </trkpt>
      <trkpt lat="44.09796" lon="5.98533">
        <ele>571.8</ele>
        <time>2021-03-30T12:02:06.000Z</time>
      </trkpt>
      <trkpt lat="44.09793" lon="5.98531">
        <ele>571.4</ele>
        <time>2021-03-30T12:02:07.000Z</time>
      </trkpt>
      <trkpt lat="44.09789" lon="5.98528">
        <ele>570.8</ele>
        <time>2021-03-30T12:02:08.000Z</time>
      </trkpt>
      <trkpt lat="44.09782" lon="5.98522">
        <ele>569.8</ele>
        <time>2021-03-30T12:02:10.000Z</time>
      </trkpt>
      <trkpt lat="44.09779" lon="5.98519">
        <ele>569.4</ele>
        <time>2021-03-30T12:02:11.000Z</time>
      </trkpt>
      <trkpt lat="44.09776" lon="5.98517">
        <ele>569</ele>
        <time>2021-03-30T12:02:12.000Z</time>
      </trkpt>
      <trkpt lat="44.0977" lon="5.98513">
        <ele>568.6</ele>
        <time>2021-03-30T12:02:14.000Z</time>
      </trkpt>
      <trkpt lat="44.09769" lon="5.98512">
        <ele>568.4</ele>
        <time>2021-03-30T12:02:15.000Z</time>
      </trkpt>
      <trkpt lat="44.09764" lon="5.9851">
        <ele>568</ele>
        <time>2021-03-30T12:02:17.000Z</time>
      </trkpt>
      <trkpt lat="44.09761" lon="5.98511">
        <ele>567.6</ele>
        <time>2021-03-30T12:02:18.000Z</time>
      </trkpt>
      <trkpt lat="44.09758" lon="5.98512">
        <ele>567.4</ele>
        <time>2021-03-30T12:02:19.000Z</time>
      </trkpt>
      <trkpt lat="44.09752" lon="5.98511">
        <ele>567</ele>
        <time>2021-03-30T12:02:21.000Z</time>
      </trkpt>
      <trkpt lat="44.09748" lon="5.98511">
        <ele>566.8</ele>
        <time>2021-03-30T12:02:22.000Z</time>
      </trkpt>
      <trkpt lat="44.09744" lon="5.98511">
        <ele>566.8</ele>
        <time>2021-03-30T12:02:23.000Z</time>
      </trkpt>
      <trkpt lat="44.09739" lon="5.98513">
        <ele>566.8</ele>
        <time>2021-03-30T12:02:25.000Z</time>
      </trkpt>
      <trkpt lat="44.09736" lon="5.98515">
        <ele>566.8</ele>
        <time>2021-03-30T12:02:26.000Z</time>
      </trkpt>
      <trkpt lat="44.09729" lon="5.98519">
        <ele>566.8</ele>
        <time>2021-03-30T12:02:28.000Z</time>
      </trkpt>
      <trkpt lat="44.09726" lon="5.98521">
        <ele>566.8</ele>
        <time>2021-03-30T12:02:29.000Z</time>
      </trkpt>
      <trkpt lat="44.09723" lon="5.98522">
        <ele>566.8</ele>
        <time>2021-03-30T12:02:30.000Z</time>
      </trkpt>
      <trkpt lat="44.09717" lon="5.98524">
        <ele>567</ele>
        <time>2021-03-30T12:02:32.000Z</time>
      </trkpt>
      <trkpt lat="44.09713" lon="5.98525">
        <ele>567</ele>
        <time>2021-03-30T12:02:33.000Z</time>
      </trkpt>
      <trkpt lat="44.09708" lon="5.98525">
        <ele>567</ele>
        <time>2021-03-30T12:02:34.000Z</time>
      </trkpt>
      <trkpt lat="44.097" lon="5.98528">
        <ele>567</ele>
        <time>2021-03-30T12:02:36.000Z</time>
      </trkpt>
      <trkpt lat="44.09697" lon="5.9853">
        <ele>567</ele>
        <time>2021-03-30T12:02:37.000Z</time>
      </trkpt>
      <trkpt lat="44.0969" lon="5.98533">
        <ele>567</ele>
        <time>2021-03-30T12:02:39.000Z</time>
      </trkpt>
      <trkpt lat="44.09686" lon="5.98535">
        <ele>567</ele>
        <time>2021-03-30T12:02:40.000Z</time>
      </trkpt>
      <trkpt lat="44.09684" lon="5.98537">
        <ele>567</ele>
        <time>2021-03-30T12:02:41.000Z</time>
      </trkpt>
      <trkpt lat="44.09677" lon="5.98544">
        <ele>566.8</ele>
        <time>2021-03-30T12:02:43.000Z</time>
      </trkpt>
      <trkpt lat="44.09673" lon="5.98546">
        <ele>566.6</ele>
        <time>2021-03-30T12:02:44.000Z</time>
      </trkpt>
      <trkpt lat="44.09668" lon="5.98548">
        <ele>566.4</ele>
        <time>2021-03-30T12:02:45.000Z</time>
      </trkpt>
      <trkpt lat="44.09658" lon="5.98551">
        <ele>565.8</ele>
        <time>2021-03-30T12:02:47.000Z</time>
      </trkpt>
      <trkpt lat="44.09654" lon="5.98553">
        <ele>565.6</ele>
        <time>2021-03-30T12:02:48.000Z</time>
      </trkpt>
      <trkpt lat="44.09649" lon="5.98554">
        <ele>565.6</ele>
        <time>2021-03-30T12:02:49.000Z</time>
      </trkpt>
      <trkpt lat="44.0964" lon="5.98556">
        <ele>565.2</ele>
        <time>2021-03-30T12:02:51.000Z</time>
      </trkpt>
      <trkpt lat="44.09636" lon="5.98557">
        <ele>565.2</ele>
        <time>2021-03-30T12:02:52.000Z</time>
      </trkpt>
      <trkpt lat="44.09628" lon="5.9856">
        <ele>564.6</ele>
        <time>2021-03-30T12:02:54.000Z</time>
      </trkpt>
      <trkpt lat="44.09623" lon="5.98564">
        <ele>564.4</ele>
        <time>2021-03-30T12:02:55.000Z</time>
      </trkpt>
      <trkpt lat="44.0962" lon="5.98569">
        <ele>564</ele>
        <time>2021-03-30T12:02:56.000Z</time>
      </trkpt>
      <trkpt lat="44.09614" lon="5.98583">
        <ele>563.4</ele>
        <time>2021-03-30T12:02:58.000Z</time>
      </trkpt>
      <trkpt lat="44.09611" lon="5.9859">
        <ele>563</ele>
        <time>2021-03-30T12:02:59.000Z</time>
      </trkpt>
      <trkpt lat="44.09608" lon="5.98595">
        <ele>562.6</ele>
        <time>2021-03-30T12:03:00.000Z</time>
      </trkpt>
      <trkpt lat="44.09601" lon="5.98605">
        <ele>562</ele>
        <time>2021-03-30T12:03:02.000Z</time>
      </trkpt>
      <trkpt lat="44.09598" lon="5.9861">
        <ele>562</ele>
        <time>2021-03-30T12:03:03.000Z</time>
      </trkpt>
      <trkpt lat="44.09592" lon="5.98619">
        <ele>561.6</ele>
        <time>2021-03-30T12:03:05.000Z</time>
      </trkpt>
      <trkpt lat="44.09589" lon="5.98623">
        <ele>561.4</ele>
        <time>2021-03-30T12:03:06.000Z</time>
      </trkpt>
      <trkpt lat="44.09585" lon="5.98628">
        <ele>561.2</ele>
        <time>2021-03-30T12:03:07.000Z</time>
      </trkpt>
      <trkpt lat="44.09577" lon="5.98636">
        <ele>560.6</ele>
        <time>2021-03-30T12:03:09.000Z</time>
      </trkpt>
      <trkpt lat="44.09573" lon="5.98641">
        <ele>560.2</ele>
        <time>2021-03-30T12:03:10.000Z</time>
      </trkpt>
      <trkpt lat="44.0957" lon="5.98645">
        <ele>560</ele>
        <time>2021-03-30T12:03:11.000Z</time>
      </trkpt>
      <trkpt lat="44.09561" lon="5.98654">
        <ele>559.2</ele>
        <time>2021-03-30T12:03:13.000Z</time>
      </trkpt>
      <trkpt lat="44.09557" lon="5.98658">
        <ele>559</ele>
        <time>2021-03-30T12:03:14.000Z</time>
      </trkpt>
      <trkpt lat="44.09548" lon="5.98667">
        <ele>558.2</ele>
        <time>2021-03-30T12:03:16.000Z</time>
      </trkpt>
      <trkpt lat="44.09544" lon="5.98671">
        <ele>557.8</ele>
        <time>2021-03-30T12:03:17.000Z</time>
      </trkpt>
      <trkpt lat="44.0954" lon="5.98676">
        <ele>557.4</ele>
        <time>2021-03-30T12:03:18.000Z</time>
      </trkpt>
      <trkpt lat="44.09533" lon="5.98687">
        <ele>556.8</ele>
        <time>2021-03-30T12:03:20.000Z</time>
      </trkpt>
      <trkpt lat="44.0953" lon="5.98693">
        <ele>556.4</ele>
        <time>2021-03-30T12:03:21.000Z</time>
      </trkpt>
      <trkpt lat="44.09528" lon="5.987">
        <ele>556</ele>
        <time>2021-03-30T12:03:22.000Z</time>
      </trkpt>
      <trkpt lat="44.09524" lon="5.98714">
        <ele>555.4</ele>
        <time>2021-03-30T12:03:24.000Z</time>
      </trkpt>
      <trkpt lat="44.09521" lon="5.98722">
        <ele>555</ele>
        <time>2021-03-30T12:03:25.000Z</time>
      </trkpt>
      <trkpt lat="44.09519" lon="5.98729">
        <ele>554.8</ele>
        <time>2021-03-30T12:03:26.000Z</time>
      </trkpt>
      <trkpt lat="44.09514" lon="5.98744">
        <ele>554.2</ele>
        <time>2021-03-30T12:03:28.000Z</time>
      </trkpt>
      <trkpt lat="44.09512" lon="5.98751">
        <ele>554</ele>
        <time>2021-03-30T12:03:29.000Z</time>
      </trkpt>
      <trkpt lat="44.09506" lon="5.98766">
        <ele>553.6</ele>
        <time>2021-03-30T12:03:31.000Z</time>
      </trkpt>
      <trkpt lat="44.09504" lon="5.98773">
        <ele>553.4</ele>
        <time>2021-03-30T12:03:32.000Z</time>
      </trkpt>
      <trkpt lat="44.09501" lon="5.98781">
        <ele>553.2</ele>
        <time>2021-03-30T12:03:33.000Z</time>
      </trkpt>
      <trkpt lat="44.09495" lon="5.98795">
        <ele>552.6</ele>
        <time>2021-03-30T12:03:35.000Z</time>
      </trkpt>
      <trkpt lat="44.09491" lon="5.98801">
        <ele>552.4</ele>
        <time>2021-03-30T12:03:36.000Z</time>
      </trkpt>
      <trkpt lat="44.09487" lon="5.98806">
        <ele>552.2</ele>
        <time>2021-03-30T12:03:37.000Z</time>
      </trkpt>
      <trkpt lat="44.0948" lon="5.98815">
        <ele>551.6</ele>
        <time>2021-03-30T12:03:39.000Z</time>
      </trkpt>
      <trkpt lat="44.09476" lon="5.9882">
        <ele>551.4</ele>
        <time>2021-03-30T12:03:40.000Z</time>
      </trkpt>
      <trkpt lat="44.09468" lon="5.98828">
        <ele>551</ele>
        <time>2021-03-30T12:03:42.000Z</time>
      </trkpt>
      <trkpt lat="44.09464" lon="5.98832">
        <ele>550.6</ele>
        <time>2021-03-30T12:03:43.000Z</time>
      </trkpt>
      <trkpt lat="44.09459" lon="5.98836">
        <ele>550.4</ele>
        <time>2021-03-30T12:03:44.000Z</time>
      </trkpt>
      <trkpt lat="44.09451" lon="5.98843">
        <ele>550</ele>
        <time>2021-03-30T12:03:46.000Z</time>
      </trkpt>
      <trkpt lat="44.09448" lon="5.98847">
        <ele>549.8</ele>
        <time>2021-03-30T12:03:47.000Z</time>
      </trkpt>
      <trkpt lat="44.09446" lon="5.98849">
        <ele>549.4</ele>
        <time>2021-03-30T12:03:48.000Z</time>
      </trkpt>
      <trkpt lat="44.09444" lon="5.98853">
        <ele>549</ele>
        <time>2021-03-30T12:03:50.000Z</time>
      </trkpt>
      <trkpt lat="44.09444" lon="5.98854">
        <ele>548.6</ele>
        <time>2021-03-30T12:03:51.000Z</time>
      </trkpt>
      <trkpt lat="44.09443" lon="5.98855">
        <ele>548.2</ele>
        <time>2021-03-30T12:03:53.000Z</time>
      </trkpt>
      <trkpt lat="44.09443" lon="5.98856">
        <ele>548</ele>
        <time>2021-03-30T12:03:54.000Z</time>
      </trkpt>
      <trkpt lat="44.09443" lon="5.98856">
        <ele>547.8</ele>
        <time>2021-03-30T12:03:55.000Z</time>
      </trkpt>
      <trkpt lat="44.09443" lon="5.98856">
        <ele>547.4</ele>
        <time>2021-03-30T12:03:57.000Z</time>
      </trkpt>
      <trkpt lat="44.09443" lon="5.98856">
        <ele>547.2</ele>
        <time>2021-03-30T12:03:58.000Z</time>
      </trkpt>
      <trkpt lat="44.09443" lon="5.98856">
        <ele>547</ele>
        <time>2021-03-30T12:03:59.000Z</time>
      </trkpt>
      <trkpt lat="44.09443" lon="5.98856">
        <ele>546.6</ele>
        <time>2021-03-30T12:04:01.000Z</time>
      </trkpt>
      <trkpt lat="44.09443" lon="5.98856">
        <ele>546.4</ele>
        <time>2021-03-30T12:04:02.000Z</time>
      </trkpt>
      <trkpt lat="44.09443" lon="5.98856">
        <ele>546</ele>
        <time>2021-03-30T12:04:04.000Z</time>
      </trkpt>
      <trkpt lat="44.09443" lon="5.98856">
        <ele>545.8</ele>
        <time>2021-03-30T12:04:05.000Z</time>
      </trkpt>
      <trkpt lat="44.09443" lon="5.98856">
        <ele>545.6</ele>
        <time>2021-03-30T12:04:06.000Z</time>
      </trkpt>
      <trkpt lat="44.09443" lon="5.98856">
        <ele>545.2</ele>
        <time>2021-03-30T12:04:08.000Z</time>
      </trkpt>
      <trkpt lat="44.09443" lon="5.98856">
        <ele>545</ele>
        <time>2021-03-30T12:04:09.000Z</time>
      </trkpt>
      <trkpt lat="44.09443" lon="5.98856">
        <ele>544.6</ele>
        <time>2021-03-30T12:04:10.000Z</time>
      </trkpt>
      <trkpt lat="44.09443" lon="5.98856">
        <ele>544.2</ele>
        <time>2021-03-30T12:04:12.000Z</time>
      </trkpt>
      <trkpt lat="44.09443" lon="5.98856">
        <ele>544</ele>
        <time>2021-03-30T12:04:13.000Z</time>
      </trkpt>
      <trkpt lat="44.09443" lon="5.98856">
        <ele>543.6</ele>
        <time>2021-03-30T12:04:14.000Z</time>
      </trkpt>
      <trkpt lat="44.09443" lon="5.98856">
        <ele>543.2</ele>
        <time>2021-03-30T12:04:16.000Z</time>
      </trkpt>
      <trkpt lat="44.09443" lon="5.98856">
        <ele>543</ele>
        <time>2021-03-30T12:04:17.000Z</time>
      </trkpt>
      <trkpt lat="44.09443" lon="5.98856">
        <ele>542.6</ele>
        <time>2021-03-30T12:04:19.000Z</time>
      </trkpt>
      <trkpt lat="44.09443" lon="5.98856">
        <ele>542.4</ele>
        <time>2021-03-30T12:04:20.000Z</time>
      </trkpt>
      <trkpt lat="44.09443" lon="5.98856">
        <ele>542.2</ele>
        <time>2021-03-30T12:04:21.000Z</time>
      </trkpt>
      <trkpt lat="44.09443" lon="5.98856">
        <ele>541.8</ele>
        <time>2021-03-30T12:04:23.000Z</time>
      </trkpt>
      <trkpt lat="44.09443" lon="5.98856">
        <ele>541.6</ele>
        <time>2021-03-30T12:04:24.000Z</time>
      </trkpt>
      <trkpt lat="44.09443" lon="5.98856">
        <ele>541.4</ele>
        <time>2021-03-30T12:04:25.000Z</time>
      </trkpt>
      <trkpt lat="44.09443" lon="5.98856">
        <ele>541.2</ele>
        <time>2021-03-30T12:04:27.000Z</time>
      </trkpt>
      <trkpt lat="44.09443" lon="5.98856">
        <ele>540.8</ele>
        <time>2021-03-30T12:04:28.000Z</time>
      </trkpt>
      <trkpt lat="44.09443" lon="5.98856">
        <ele>540.6</ele>
        <time>2021-03-30T12:04:30.000Z</time>
      </trkpt>
      <trkpt lat="44.09443" lon="5.98856">
        <ele>540.4</ele>
        <time>2021-03-30T12:04:31.000Z</time>
      </trkpt>
      <trkpt lat="44.09443" lon="5.98856">
        <ele>540.2</ele>
        <time>2021-03-30T12:04:32.000Z</time>
      </trkpt>
      <trkpt lat="44.09443" lon="5.98856">
        <ele>540</ele>
        <time>2021-03-30T12:04:34.000Z</time>
      </trkpt>
      <trkpt lat="44.09443" lon="5.98856">
        <ele>539.8</ele>
        <time>2021-03-30T12:04:35.000Z</time>
      </trkpt>
      <trkpt lat="44.09443" lon="5.98856">
        <ele>539.6</ele>
        <time>2021-03-30T12:04:36.000Z</time>
      </trkpt>
      <trkpt lat="44.09443" lon="5.98856">
        <ele>539.2</ele>
        <time>2021-03-30T12:04:38.000Z</time>
      </trkpt>
      <trkpt lat="44.09443" lon="5.98856">
        <ele>539</ele>
        <time>2021-03-30T12:04:39.000Z</time>
      </trkpt>
      <trkpt lat="44.09443" lon="5.98856">
        <ele>538.6</ele>
        <time>2021-03-30T12:04:41.000Z</time>
      </trkpt>
      <trkpt lat="44.09443" lon="5.98856">
        <ele>538.4</ele>
        <time>2021-03-30T12:04:42.000Z</time>
      </trkpt>
      <trkpt lat="44.09443" lon="5.98856">
        <ele>538.2</ele>
        <time>2021-03-30T12:04:43.000Z</time>
      </trkpt>
      <trkpt lat="44.09443" lon="5.98856">
        <ele>537.8</ele>
        <time>2021-03-30T12:04:45.000Z</time>
      </trkpt>
      <trkpt lat="44.09443" lon="5.98856">
        <ele>537.6</ele>
        <time>2021-03-30T12:04:46.000Z</time>
      </trkpt>
      <trkpt lat="44.09443" lon="5.98856">
        <ele>537.4</ele>
        <time>2021-03-30T12:04:47.000Z</time>
      </trkpt>
      <trkpt lat="44.09443" lon="5.98856">
        <ele>536.8</ele>
        <time>2021-03-30T12:04:49.000Z</time>
      </trkpt>
      <trkpt lat="44.09443" lon="5.98856">
        <ele>536.6</ele>
        <time>2021-03-30T12:04:50.000Z</time>
      </trkpt>
      <trkpt lat="44.09443" lon="5.98856">
        <ele>536.4</ele>
        <time>2021-03-30T12:04:51.000Z</time>
      </trkpt>
      <trkpt lat="44.09443" lon="5.98856">
        <ele>535.8</ele>
        <time>2021-03-30T12:04:53.000Z</time>
      </trkpt>
      <trkpt lat="44.09443" lon="5.98856">
        <ele>535.6</ele>
        <time>2021-03-30T12:04:54.000Z</time>
      </trkpt>
      <trkpt lat="44.09443" lon="5.98856">
        <ele>534.8</ele>
        <time>2021-03-30T12:04:56.000Z</time>
      </trkpt>
      <trkpt lat="44.09443" lon="5.98856">
        <ele>534.4</ele>
        <time>2021-03-30T12:04:57.000Z</time>
      </trkpt>
      <trkpt lat="44.0944" lon="5.98856">
        <ele>534</ele>
        <time>2021-03-30T12:04:58.000Z</time>
      </trkpt>
      <trkpt lat="44.09434" lon="5.9886">
        <ele>533.6</ele>
        <time>2021-03-30T12:05:00.000Z</time>
      </trkpt>
      <trkpt lat="44.09432" lon="5.98863">
        <ele>533.4</ele>
        <time>2021-03-30T12:05:01.000Z</time>
      </trkpt>
      <trkpt lat="44.09429" lon="5.98865">
        <ele>533.2</ele>
        <time>2021-03-30T12:05:02.000Z</time>
      </trkpt>
      <trkpt lat="44.09421" lon="5.98871">
        <ele>533</ele>
        <time>2021-03-30T12:05:04.000Z</time>
      </trkpt>
      <trkpt lat="44.09417" lon="5.98874">
        <ele>533</ele>
        <time>2021-03-30T12:05:05.000Z</time>
      </trkpt>
      <trkpt lat="44.09407" lon="5.98883">
        <ele>532.8</ele>
        <time>2021-03-30T12:05:07.000Z</time>
      </trkpt>
      <trkpt lat="44.09402" lon="5.98888">
        <ele>532.6</ele>
        <time>2021-03-30T12:05:08.000Z</time>
      </trkpt>
      <trkpt lat="44.09397" lon="5.98893">
        <ele>532.6</ele>
        <time>2021-03-30T12:05:09.000Z</time>
      </trkpt>
      <trkpt lat="44.09388" lon="5.98903">
        <ele>532.6</ele>
        <time>2021-03-30T12:05:11.000Z</time>
      </trkpt>
      <trkpt lat="44.09384" lon="5.98909">
        <ele>532.6</ele>
        <time>2021-03-30T12:05:12.000Z</time>
      </trkpt>
      <trkpt lat="44.0938" lon="5.98914">
        <ele>532.6</ele>
        <time>2021-03-30T12:05:13.000Z</time>
      </trkpt>
      <trkpt lat="44.09372" lon="5.98921">
        <ele>532.6</ele>
        <time>2021-03-30T12:05:15.000Z</time>
      </trkpt>
      <trkpt lat="44.09366" lon="5.98923">
        <ele>532.8</ele>
        <time>2021-03-30T12:05:16.000Z</time>
      </trkpt>
      <trkpt lat="44.09354" lon="5.98926">
        <ele>532.6</ele>
        <time>2021-03-30T12:05:18.000Z</time>
      </trkpt>
      <trkpt lat="44.09348" lon="5.98928">
        <ele>532.6</ele>
        <time>2021-03-30T12:05:19.000Z</time>
      </trkpt>
      <trkpt lat="44.09341" lon="5.9893">
        <ele>532.6</ele>
        <time>2021-03-30T12:05:20.000Z</time>
      </trkpt>
      <trkpt lat="44.09328" lon="5.98937">
        <ele>532.6</ele>
        <time>2021-03-30T12:05:22.000Z</time>
      </trkpt>
      <trkpt lat="44.09322" lon="5.98941">
        <ele>532.4</ele>
        <time>2021-03-30T12:05:23.000Z</time>
      </trkpt>
      <trkpt lat="44.09317" lon="5.98945">
        <ele>532.4</ele>
        <time>2021-03-30T12:05:24.000Z</time>
      </trkpt>
      <trkpt lat="44.09306" lon="5.98948">
        <ele>532.2</ele>
        <time>2021-03-30T12:05:26.000Z</time>
      </trkpt>
      <trkpt lat="44.093" lon="5.98948">
        <ele>532</ele>
        <time>2021-03-30T12:05:27.000Z</time>
      </trkpt>
      <trkpt lat="44.09295" lon="5.98949">
        <ele>531.6</ele>
        <time>2021-03-30T12:05:28.000Z</time>
      </trkpt>
      <trkpt lat="44.09287" lon="5.98949">
        <ele>531.2</ele>
        <time>2021-03-30T12:05:30.000Z</time>
      </trkpt>
      <trkpt lat="44.09283" lon="5.98949">
        <ele>531</ele>
        <time>2021-03-30T12:05:31.000Z</time>
      </trkpt>
      <trkpt lat="44.09277" lon="5.98951">
        <ele>530.8</ele>
        <time>2021-03-30T12:05:33.000Z</time>
      </trkpt>
      <trkpt lat="44.09275" lon="5.98955">
        <ele>530.6</ele>
        <time>2021-03-30T12:05:34.000Z</time>
      </trkpt>
      <trkpt lat="44.09274" lon="5.98959">
        <ele>530.4</ele>
        <time>2021-03-30T12:05:35.000Z</time>
      </trkpt>
      <trkpt lat="44.09271" lon="5.98969">
        <ele>530.2</ele>
        <time>2021-03-30T12:05:37.000Z</time>
      </trkpt>
      <trkpt lat="44.0927" lon="5.98974">
        <ele>530</ele>
        <time>2021-03-30T12:05:38.000Z</time>
      </trkpt>
      <trkpt lat="44.09269" lon="5.98979">
        <ele>529.8</ele>
        <time>2021-03-30T12:05:39.000Z</time>
      </trkpt>
      <trkpt lat="44.09267" lon="5.9899">
        <ele>529.6</ele>
        <time>2021-03-30T12:05:41.000Z</time>
      </trkpt>
      <trkpt lat="44.09267" lon="5.98996">
        <ele>529.4</ele>
        <time>2021-03-30T12:05:42.000Z</time>
      </trkpt>
      <trkpt lat="44.09266" lon="5.99008">
        <ele>529.2</ele>
        <time>2021-03-30T12:05:44.000Z</time>
      </trkpt>
      <trkpt lat="44.09265" lon="5.99014">
        <ele>529.2</ele>
        <time>2021-03-30T12:05:45.000Z</time>
      </trkpt>
      <trkpt lat="44.09265" lon="5.9902">
        <ele>529.2</ele>
        <time>2021-03-30T12:05:46.000Z</time>
      </trkpt>
      <trkpt lat="44.09265" lon="5.99033">
        <ele>529</ele>
        <time>2021-03-30T12:05:48.000Z</time>
      </trkpt>
      <trkpt lat="44.09265" lon="5.99039">
        <ele>528.8</ele>
        <time>2021-03-30T12:05:49.000Z</time>
      </trkpt>
      <trkpt lat="44.09265" lon="5.99045">
        <ele>528.8</ele>
        <time>2021-03-30T12:05:50.000Z</time>
      </trkpt>
      <trkpt lat="44.09266" lon="5.99058">
        <ele>528.4</ele>
        <time>2021-03-30T12:05:52.000Z</time>
      </trkpt>
      <trkpt lat="44.09265" lon="5.99064">
        <ele>528.2</ele>
        <time>2021-03-30T12:05:53.000Z</time>
      </trkpt>
      <trkpt lat="44.09264" lon="5.99077">
        <ele>527.8</ele>
        <time>2021-03-30T12:05:55.000Z</time>
      </trkpt>
      <trkpt lat="44.09264" lon="5.99084">
        <ele>527.6</ele>
        <time>2021-03-30T12:05:56.000Z</time>
      </trkpt>
      <trkpt lat="44.09264" lon="5.9909">
        <ele>527.4</ele>
        <time>2021-03-30T12:05:57.000Z</time>
      </trkpt>
      <trkpt lat="44.09264" lon="5.99103">
        <ele>527</ele>
        <time>2021-03-30T12:05:59.000Z</time>
      </trkpt>
      <trkpt lat="44.09264" lon="5.99109">
        <ele>527</ele>
        <time>2021-03-30T12:06:00.000Z</time>
      </trkpt>
      <trkpt lat="44.09264" lon="5.99116">
        <ele>526.8</ele>
        <time>2021-03-30T12:06:01.000Z</time>
      </trkpt>
      <trkpt lat="44.09264" lon="5.9913">
        <ele>526.4</ele>
        <time>2021-03-30T12:06:03.000Z</time>
      </trkpt>
      <trkpt lat="44.09264" lon="5.99138">
        <ele>526.2</ele>
        <time>2021-03-30T12:06:04.000Z</time>
      </trkpt>
      <trkpt lat="44.09264" lon="5.99153">
        <ele>525.8</ele>
        <time>2021-03-30T12:06:06.000Z</time>
      </trkpt>
      <trkpt lat="44.09263" lon="5.9916">
        <ele>525.6</ele>
        <time>2021-03-30T12:06:07.000Z</time>
      </trkpt>
      <trkpt lat="44.09264" lon="5.99168">
        <ele>525.6</ele>
        <time>2021-03-30T12:06:08.000Z</time>
      </trkpt>
      <trkpt lat="44.09263" lon="5.99183">
        <ele>525.2</ele>
        <time>2021-03-30T12:06:10.000Z</time>
      </trkpt>
      <trkpt lat="44.09263" lon="5.9919">
        <ele>525.2</ele>
        <time>2021-03-30T12:06:11.000Z</time>
      </trkpt>
      <trkpt lat="44.09263" lon="5.99198">
        <ele>525</ele>
        <time>2021-03-30T12:06:12.000Z</time>
      </trkpt>
      <trkpt lat="44.09263" lon="5.99213">
        <ele>524.8</ele>
        <time>2021-03-30T12:06:14.000Z</time>
      </trkpt>
      <trkpt lat="44.09263" lon="5.99221">
        <ele>524.8</ele>
        <time>2021-03-30T12:06:15.000Z</time>
      </trkpt>
      <trkpt lat="44.09263" lon="5.99229">
        <ele>524.6</ele>
        <time>2021-03-30T12:06:16.000Z</time>
      </trkpt>
      <trkpt lat="44.09264" lon="5.99245">
        <ele>524.4</ele>
        <time>2021-03-30T12:06:18.000Z</time>
      </trkpt>
      <trkpt lat="44.09265" lon="5.99253">
        <ele>524.2</ele>
        <time>2021-03-30T12:06:19.000Z</time>
      </trkpt>
      <trkpt lat="44.09267" lon="5.99268">
        <ele>523.8</ele>
        <time>2021-03-30T12:06:21.000Z</time>
      </trkpt>
      <trkpt lat="44.09266" lon="5.99276">
        <ele>536.9</ele>
      </trkpt>
      <trkpt lat="44.09267" lon="5.99275">
        <ele>523.6</ele>
        <time>2021-03-30T12:06:22.000Z</time>
      </trkpt>
      <trkpt lat="44.09262" lon="5.99283">
        <ele>523.2</ele>
        <time>2021-03-30T12:06:24.000Z</time>
      </trkpt>
      <trkpt lat="44.09259" lon="5.99285">
        <ele>523</ele>
        <time>2021-03-30T12:06:25.000Z</time>
      </trkpt>
      <trkpt lat="44.09256" lon="5.99286">
        <ele>523</ele>
        <time>2021-03-30T12:06:26.000Z</time>
      </trkpt>
      <trkpt lat="44.09251" lon="5.99288">
        <ele>522.8</ele>
        <time>2021-03-30T12:06:28.000Z</time>
      </trkpt>
      <trkpt lat="44.09248" lon="5.9929">
        <ele>522.8</ele>
        <time>2021-03-30T12:06:29.000Z</time>
      </trkpt>
      <trkpt lat="44.09243" lon="5.99292">
        <ele>523.2</ele>
        <time>2021-03-30T12:06:31.000Z</time>
      </trkpt>
      <trkpt lat="44.0924" lon="5.99293">
        <ele>523.2</ele>
        <time>2021-03-30T12:06:32.000Z</time>
      </trkpt>
      <trkpt lat="44.09237" lon="5.99292">
        <ele>523.6</ele>
        <time>2021-03-30T12:06:33.000Z</time>
      </trkpt>
      <trkpt lat="44.09232" lon="5.9929">
        <ele>524</ele>
        <time>2021-03-30T12:06:35.000Z</time>
      </trkpt>
      <trkpt lat="44.09229" lon="5.99288">
        <ele>524.4</ele>
        <time>2021-03-30T12:06:36.000Z</time>
      </trkpt>
      <trkpt lat="44.09227" lon="5.99286">
        <ele>524.6</ele>
        <time>2021-03-30T12:06:37.000Z</time>
      </trkpt>
      <trkpt lat="44.09222" lon="5.99282">
        <ele>524.8</ele>
        <time>2021-03-30T12:06:39.000Z</time>
      </trkpt>
      <trkpt lat="44.09219" lon="5.99279">
        <ele>525</ele>
        <time>2021-03-30T12:06:40.000Z</time>
      </trkpt>
      <trkpt lat="44.09213" lon="5.99274">
        <ele>525.2</ele>
        <time>2021-03-30T12:06:42.000Z</time>
      </trkpt>
      <trkpt lat="44.0921" lon="5.99271">
        <ele>525.2</ele>
        <time>2021-03-30T12:06:43.000Z</time>
      </trkpt>
      <trkpt lat="44.09207" lon="5.99269">
        <ele>525.2</ele>
        <time>2021-03-30T12:06:44.000Z</time>
      </trkpt>
      <trkpt lat="44.092" lon="5.99264">
        <ele>525.4</ele>
        <time>2021-03-30T12:06:46.000Z</time>
      </trkpt>
      <trkpt lat="44.09196" lon="5.99261">
        <ele>525.4</ele>
        <time>2021-03-30T12:06:47.000Z</time>
      </trkpt>
      <trkpt lat="44.09192" lon="5.99259">
        <ele>525.6</ele>
        <time>2021-03-30T12:06:48.000Z</time>
      </trkpt>
      <trkpt lat="44.09185" lon="5.99253">
        <ele>525.6</ele>
        <time>2021-03-30T12:06:50.000Z</time>
      </trkpt>
      <trkpt lat="44.09182" lon="5.9925">
        <ele>525.8</ele>
        <time>2021-03-30T12:06:51.000Z</time>
      </trkpt>
      <trkpt lat="44.09177" lon="5.99248">
        <ele>525.8</ele>
        <time>2021-03-30T12:06:52.000Z</time>
      </trkpt>
      <trkpt lat="44.09169" lon="5.99245">
        <ele>526</ele>
        <time>2021-03-30T12:06:54.000Z</time>
      </trkpt>
      <trkpt lat="44.09164" lon="5.99243">
        <ele>526</ele>
        <time>2021-03-30T12:06:55.000Z</time>
      </trkpt>
      <trkpt lat="44.09155" lon="5.9924">
        <ele>526</ele>
        <time>2021-03-30T12:06:57.000Z</time>
      </trkpt>
      <trkpt lat="44.09151" lon="5.99239">
        <ele>526.2</ele>
        <time>2021-03-30T12:06:58.000Z</time>
      </trkpt>
      <trkpt lat="44.09147" lon="5.99238">
        <ele>526.2</ele>
        <time>2021-03-30T12:06:59.000Z</time>
      </trkpt>
      <trkpt lat="44.09137" lon="5.99235">
        <ele>526.2</ele>
        <time>2021-03-30T12:07:01.000Z</time>
      </trkpt>
      <trkpt lat="44.09132" lon="5.99234">
        <ele>526.2</ele>
        <time>2021-03-30T12:07:02.000Z</time>
      </trkpt>
      <trkpt lat="44.09128" lon="5.99233">
        <ele>526.2</ele>
        <time>2021-03-30T12:07:03.000Z</time>
      </trkpt>
      <trkpt lat="44.09119" lon="5.99232">
        <ele>526.2</ele>
        <time>2021-03-30T12:07:05.000Z</time>
      </trkpt>
      <trkpt lat="44.09113" lon="5.99232">
        <ele>526.2</ele>
        <time>2021-03-30T12:07:06.000Z</time>
      </trkpt>
      <trkpt lat="44.09103" lon="5.99232">
        <ele>526.2</ele>
        <time>2021-03-30T12:07:08.000Z</time>
      </trkpt>
      <trkpt lat="44.09098" lon="5.99232">
        <ele>526.2</ele>
        <time>2021-03-30T12:07:09.000Z</time>
      </trkpt>
      <trkpt lat="44.09094" lon="5.99231">
        <ele>526.2</ele>
        <time>2021-03-30T12:07:10.000Z</time>
      </trkpt>
      <trkpt lat="44.09083" lon="5.99231">
        <ele>526.2</ele>
        <time>2021-03-30T12:07:12.000Z</time>
      </trkpt>
      <trkpt lat="44.09078" lon="5.99231">
        <ele>526.2</ele>
        <time>2021-03-30T12:07:13.000Z</time>
      </trkpt>
      <trkpt lat="44.09073" lon="5.99231">
        <ele>526.2</ele>
        <time>2021-03-30T12:07:14.000Z</time>
      </trkpt>
      <trkpt lat="44.09062" lon="5.99232">
        <ele>526.2</ele>
        <time>2021-03-30T12:07:16.000Z</time>
      </trkpt>
      <trkpt lat="44.09057" lon="5.99232">
        <ele>526.2</ele>
        <time>2021-03-30T12:07:17.000Z</time>
      </trkpt>
      <trkpt lat="44.09047" lon="5.99233">
        <ele>526</ele>
        <time>2021-03-30T12:07:19.000Z</time>
      </trkpt>
      <trkpt lat="44.09042" lon="5.99233">
        <ele>525.8</ele>
        <time>2021-03-30T12:07:20.000Z</time>
      </trkpt>
      <trkpt lat="44.09036" lon="5.99233">
        <ele>525.8</ele>
        <time>2021-03-30T12:07:21.000Z</time>
      </trkpt>
      <trkpt lat="44.09025" lon="5.99235">
        <ele>525.6</ele>
        <time>2021-03-30T12:07:23.000Z</time>
      </trkpt>
      <trkpt lat="44.09019" lon="5.99236">
        <ele>525.4</ele>
        <time>2021-03-30T12:07:24.000Z</time>
      </trkpt>
      <trkpt lat="44.09013" lon="5.99237">
        <ele>525.2</ele>
        <time>2021-03-30T12:07:25.000Z</time>
      </trkpt>
      <trkpt lat="44.08999" lon="5.9924">
        <ele>525</ele>
        <time>2021-03-30T12:07:27.000Z</time>
      </trkpt>
      <trkpt lat="44.08993" lon="5.99242">
        <ele>525</ele>
        <time>2021-03-30T12:07:28.000Z</time>
      </trkpt>
      <trkpt lat="44.0898" lon="5.99244">
        <ele>525</ele>
        <time>2021-03-30T12:07:30.000Z</time>
      </trkpt>
      <trkpt lat="44.08974" lon="5.99244">
        <ele>524.8</ele>
        <time>2021-03-30T12:07:31.000Z</time>
      </trkpt>
      <trkpt lat="44.08969" lon="5.99243">
        <ele>524.8</ele>
        <time>2021-03-30T12:07:32.000Z</time>
      </trkpt>
      <trkpt lat="44.08958" lon="5.99243">
        <ele>524.6</ele>
        <time>2021-03-30T12:07:34.000Z</time>
      </trkpt>
      <trkpt lat="44.08954" lon="5.99244">
        <ele>524.4</ele>
        <time>2021-03-30T12:07:35.000Z</time>
      </trkpt>
      <trkpt lat="44.08949" lon="5.99244">
        <ele>524.2</ele>
        <time>2021-03-30T12:07:36.000Z</time>
      </trkpt>
      <trkpt lat="44.08938" lon="5.99245">
        <ele>524</ele>
        <time>2021-03-30T12:07:38.000Z</time>
      </trkpt>
      <trkpt lat="44.08933" lon="5.99245">
        <ele>524</ele>
        <time>2021-03-30T12:07:39.000Z</time>
      </trkpt>
      <trkpt lat="44.08927" lon="5.99245">
        <ele>523.8</ele>
        <time>2021-03-30T12:07:40.000Z</time>
      </trkpt>
      <trkpt lat="44.08916" lon="5.99246">
        <ele>523.6</ele>
        <time>2021-03-30T12:07:42.000Z</time>
      </trkpt>
      <trkpt lat="44.0891" lon="5.99247">
        <ele>523.4</ele>
        <time>2021-03-30T12:07:43.000Z</time>
      </trkpt>
      <trkpt lat="44.08899" lon="5.99249">
        <ele>523.2</ele>
        <time>2021-03-30T12:07:45.000Z</time>
      </trkpt>
      <trkpt lat="44.08892" lon="5.99251">
        <ele>523</ele>
        <time>2021-03-30T12:07:46.000Z</time>
      </trkpt>
      <trkpt lat="44.08887" lon="5.99252">
        <ele>523</ele>
        <time>2021-03-30T12:07:47.000Z</time>
      </trkpt>
      <trkpt lat="44.08877" lon="5.99255">
        <ele>522.6</ele>
        <time>2021-03-30T12:07:49.000Z</time>
      </trkpt>
      <trkpt lat="44.08872" lon="5.99257">
        <ele>522.6</ele>
        <time>2021-03-30T12:07:50.000Z</time>
      </trkpt>
      <trkpt lat="44.08867" lon="5.99259">
        <ele>522.4</ele>
        <time>2021-03-30T12:07:51.000Z</time>
      </trkpt>
      <trkpt lat="44.08858" lon="5.99263">
        <ele>522.2</ele>
        <time>2021-03-30T12:07:53.000Z</time>
      </trkpt>
      <trkpt lat="44.08854" lon="5.99265">
        <ele>522.2</ele>
        <time>2021-03-30T12:07:54.000Z</time>
      </trkpt>
      <trkpt lat="44.08844" lon="5.99269">
        <ele>522</ele>
        <time>2021-03-30T12:07:56.000Z</time>
      </trkpt>
      <trkpt lat="44.08839" lon="5.99271">
        <ele>522</ele>
        <time>2021-03-30T12:07:57.000Z</time>
      </trkpt>
      <trkpt lat="44.08835" lon="5.99273">
        <ele>521.8</ele>
        <time>2021-03-30T12:07:58.000Z</time>
      </trkpt>
      <trkpt lat="44.08825" lon="5.99277">
        <ele>521.6</ele>
        <time>2021-03-30T12:08:00.000Z</time>
      </trkpt>
      <trkpt lat="44.0882" lon="5.99278">
        <ele>521.6</ele>
        <time>2021-03-30T12:08:01.000Z</time>
      </trkpt>
      <trkpt lat="44.08815" lon="5.9928">
        <ele>521.4</ele>
        <time>2021-03-30T12:08:02.000Z</time>
      </trkpt>
      <trkpt lat="44.08806" lon="5.99284">
        <ele>521.2</ele>
        <time>2021-03-30T12:08:04.000Z</time>
      </trkpt>
      <trkpt lat="44.08801" lon="5.99285">
        <ele>521.2</ele>
        <time>2021-03-30T12:08:05.000Z</time>
      </trkpt>
      <trkpt lat="44.08793" lon="5.99288">
        <ele>521.2</ele>
        <time>2021-03-30T12:08:07.000Z</time>
      </trkpt>
      <trkpt lat="44.08789" lon="5.9929">
        <ele>521</ele>
        <time>2021-03-30T12:08:08.000Z</time>
      </trkpt>
      <trkpt lat="44.08785" lon="5.99291">
        <ele>521</ele>
        <time>2021-03-30T12:08:09.000Z</time>
      </trkpt>
      <trkpt lat="44.08777" lon="5.99294">
        <ele>520.8</ele>
        <time>2021-03-30T12:08:11.000Z</time>
      </trkpt>
      <trkpt lat="44.08774" lon="5.99294">
        <ele>520.8</ele>
        <time>2021-03-30T12:08:12.000Z</time>
      </trkpt>
      <trkpt lat="44.08772" lon="5.99293">
        <ele>520.8</ele>
        <time>2021-03-30T12:08:13.000Z</time>
      </trkpt>
      <trkpt lat="44.08769" lon="5.99291">
        <ele>521</ele>
        <time>2021-03-30T12:08:15.000Z</time>
      </trkpt>
      <trkpt lat="44.08769" lon="5.99291">
        <ele>521</ele>
        <time>2021-03-30T12:08:16.000Z</time>
      </trkpt>
      <trkpt lat="44.08769" lon="5.99291">
        <ele>521.2</ele>
        <time>2021-03-30T12:08:17.000Z</time>
      </trkpt>
      <trkpt lat="44.08769" lon="5.99291">
        <ele>521.6</ele>
        <time>2021-03-30T12:08:19.000Z</time>
      </trkpt>
      <trkpt lat="44.08769" lon="5.99291">
        <ele>521.8</ele>
        <time>2021-03-30T12:08:20.000Z</time>
      </trkpt>
      <trkpt lat="44.08769" lon="5.99291">
        <ele>522.2</ele>
        <time>2021-03-30T12:08:22.000Z</time>
      </trkpt>
      <trkpt lat="44.08769" lon="5.99291">
        <ele>522.4</ele>
        <time>2021-03-30T12:08:23.000Z</time>
      </trkpt>
      <trkpt lat="44.08769" lon="5.99291">
        <ele>522.6</ele>
        <time>2021-03-30T12:08:24.000Z</time>
      </trkpt>
      <trkpt lat="44.08769" lon="5.99291">
        <ele>523</ele>
        <time>2021-03-30T12:08:26.000Z</time>
      </trkpt>
      <trkpt lat="44.08769" lon="5.99291">
        <ele>523.2</ele>
        <time>2021-03-30T12:08:27.000Z</time>
      </trkpt>
      <trkpt lat="44.08769" lon="5.99291">
        <ele>523.4</ele>
        <time>2021-03-30T12:08:28.000Z</time>
      </trkpt>
      <trkpt lat="44.08769" lon="5.99291">
        <ele>523.8</ele>
        <time>2021-03-30T12:08:30.000Z</time>
      </trkpt>
      <trkpt lat="44.08769" lon="5.99291">
        <ele>524</ele>
        <time>2021-03-30T12:08:31.000Z</time>
      </trkpt>
      <trkpt lat="44.08769" lon="5.99291">
        <ele>524.6</ele>
        <time>2021-03-30T12:08:33.000Z</time>
      </trkpt>
      <trkpt lat="44.08769" lon="5.99291">
        <ele>524.8</ele>
        <time>2021-03-30T12:08:34.000Z</time>
      </trkpt>
      <trkpt lat="44.08769" lon="5.99291">
        <ele>525</ele>
        <time>2021-03-30T12:08:35.000Z</time>
      </trkpt>
      <trkpt lat="44.08769" lon="5.99291">
        <ele>525.4</ele>
        <time>2021-03-30T12:08:37.000Z</time>
      </trkpt>
      <trkpt lat="44.08769" lon="5.99291">
        <ele>525.6</ele>
        <time>2021-03-30T12:08:38.000Z</time>
      </trkpt>
      <trkpt lat="44.08769" lon="5.99291">
        <ele>525.8</ele>
        <time>2021-03-30T12:08:39.000Z</time>
      </trkpt>
      <trkpt lat="44.08769" lon="5.99291">
        <ele>526.2</ele>
        <time>2021-03-30T12:08:41.000Z</time>
      </trkpt>
      <trkpt lat="44.08769" lon="5.99291">
        <ele>526.4</ele>
        <time>2021-03-30T12:08:42.000Z</time>
      </trkpt>
      <trkpt lat="44.08769" lon="5.99291">
        <ele>526.6</ele>
        <time>2021-03-30T12:08:44.000Z</time>
      </trkpt>
      <trkpt lat="44.08769" lon="5.99291">
        <ele>526.8</ele>
        <time>2021-03-30T12:08:45.000Z</time>
      </trkpt>
      <trkpt lat="44.08769" lon="5.99291">
        <ele>527</ele>
        <time>2021-03-30T12:08:46.000Z</time>
      </trkpt>
      <trkpt lat="44.08769" lon="5.99291">
        <ele>527.4</ele>
        <time>2021-03-30T12:08:48.000Z</time>
      </trkpt>
      <trkpt lat="44.08769" lon="5.99291">
        <ele>527.4</ele>
        <time>2021-03-30T12:08:49.000Z</time>
      </trkpt>
      <trkpt lat="44.08769" lon="5.99291">
        <ele>527.6</ele>
        <time>2021-03-30T12:08:50.000Z</time>
      </trkpt>
      <trkpt lat="44.08769" lon="5.99291">
        <ele>528</ele>
        <time>2021-03-30T12:08:52.000Z</time>
      </trkpt>
      <trkpt lat="44.08769" lon="5.99291">
        <ele>528.2</ele>
        <time>2021-03-30T12:08:53.000Z</time>
      </trkpt>
      <trkpt lat="44.08769" lon="5.99291">
        <ele>528.2</ele>
        <time>2021-03-30T12:08:54.000Z</time>
      </trkpt>
      <trkpt lat="44.08769" lon="5.99291">
        <ele>528.6</ele>
        <time>2021-03-30T12:08:56.000Z</time>
      </trkpt>
      <trkpt lat="44.08769" lon="5.99291">
        <ele>528.8</ele>
        <time>2021-03-30T12:08:57.000Z</time>
      </trkpt>
      <trkpt lat="44.08769" lon="5.99289">
        <ele>529</ele>
        <time>2021-03-30T12:08:59.000Z</time>
      </trkpt>
      <trkpt lat="44.08768" lon="5.99286">
        <ele>529</ele>
        <time>2021-03-30T12:09:00.000Z</time>
      </trkpt>
      <trkpt lat="44.08768" lon="5.99283">
        <ele>529.2</ele>
        <time>2021-03-30T12:09:01.000Z</time>
      </trkpt>
      <trkpt lat="44.08769" lon="5.99279">
        <ele>529.2</ele>
        <time>2021-03-30T12:09:03.000Z</time>
      </trkpt>
      <trkpt lat="44.08769" lon="5.99279">
        <ele>529</ele>
        <time>2021-03-30T12:09:04.000Z</time>
      </trkpt>
      <trkpt lat="44.08769" lon="5.99279">
        <ele>528.8</ele>
        <time>2021-03-30T12:09:05.000Z</time>
      </trkpt>
      <trkpt lat="44.08769" lon="5.99279">
        <ele>528.6</ele>
        <time>2021-03-30T12:09:07.000Z</time>
      </trkpt>
      <trkpt lat="44.08769" lon="5.99279">
        <ele>528.8</ele>
        <time>2021-03-30T12:09:08.000Z</time>
      </trkpt>
      <trkpt lat="44.08769" lon="5.99279">
        <ele>528.4</ele>
        <time>2021-03-30T12:09:10.000Z</time>
      </trkpt>
      <trkpt lat="44.08769" lon="5.99279">
        <ele>528</ele>
        <time>2021-03-30T12:09:11.000Z</time>
      </trkpt>
      <trkpt lat="44.08769" lon="5.99279">
        <ele>527.4</ele>
        <time>2021-03-30T12:09:12.000Z</time>
      </trkpt>
      <trkpt lat="44.08769" lon="5.99279">
        <ele>527.4</ele>
        <time>2021-03-30T12:09:14.000Z</time>
      </trkpt>
      <trkpt lat="44.08769" lon="5.99279">
        <ele>527.4</ele>
        <time>2021-03-30T12:09:15.000Z</time>
      </trkpt>
      <trkpt lat="44.08769" lon="5.99279">
        <ele>527.4</ele>
        <time>2021-03-30T12:09:16.000Z</time>
      </trkpt>
      <trkpt lat="44.08769" lon="5.99279">
        <ele>527.2</ele>
        <time>2021-03-30T12:09:18.000Z</time>
      </trkpt>
      <trkpt lat="44.08769" lon="5.99274">
        <ele>527</ele>
        <time>2021-03-30T12:09:19.000Z</time>
      </trkpt>
      <trkpt lat="44.0877" lon="5.99263">
        <ele>526.2</ele>
        <time>2021-03-30T12:09:21.000Z</time>
      </trkpt>
      <trkpt lat="44.08769" lon="5.99257">
        <ele>525.8</ele>
        <time>2021-03-30T12:09:22.000Z</time>
      </trkpt>
      <trkpt lat="44.08768" lon="5.99253">
        <ele>525.4</ele>
        <time>2021-03-30T12:09:23.000Z</time>
      </trkpt>
      <trkpt lat="44.08765" lon="5.99244">
        <ele>524.8</ele>
        <time>2021-03-30T12:09:25.000Z</time>
      </trkpt>
      <trkpt lat="44.08765" lon="5.9924">
        <ele>524.6</ele>
        <time>2021-03-30T12:09:26.000Z</time>
      </trkpt>
      <trkpt lat="44.08766" lon="5.99236">
        <ele>524.4</ele>
        <time>2021-03-30T12:09:27.000Z</time>
      </trkpt>
      <trkpt lat="44.08771" lon="5.99231">
        <ele>523.8</ele>
        <time>2021-03-30T12:09:29.000Z</time>
      </trkpt>
      <trkpt lat="44.08774" lon="5.99229">
        <ele>523.6</ele>
        <time>2021-03-30T12:09:30.000Z</time>
      </trkpt>
      <trkpt lat="44.08781" lon="5.99223">
        <ele>523</ele>
        <time>2021-03-30T12:09:32.000Z</time>
      </trkpt>
      <trkpt lat="44.08784" lon="5.99219">
        <ele>522.6</ele>
        <time>2021-03-30T12:09:33.000Z</time>
      </trkpt>
      <trkpt lat="44.08785" lon="5.99215">
        <ele>522.4</ele>
        <time>2021-03-30T12:09:34.000Z</time>
      </trkpt>
      <trkpt lat="44.08784" lon="5.99205">
        <ele>521.6</ele>
        <time>2021-03-30T12:09:36.000Z</time>
      </trkpt>
      <trkpt lat="44.08785" lon="5.99201">
        <ele>521.2</ele>
        <time>2021-03-30T12:09:37.000Z</time>
      </trkpt>
      <trkpt lat="44.08785" lon="5.99197">
        <ele>521</ele>
        <time>2021-03-30T12:09:38.000Z</time>
      </trkpt>
      <trkpt lat="44.08787" lon="5.99185">
        <ele>520.4</ele>
        <time>2021-03-30T12:09:40.000Z</time>
      </trkpt>
      <trkpt lat="44.08786" lon="5.99178">
        <ele>520</ele>
        <time>2021-03-30T12:09:41.000Z</time>
      </trkpt>
      <trkpt lat="44.08785" lon="5.9917">
        <ele>519.8</ele>
        <time>2021-03-30T12:09:42.000Z</time>
      </trkpt>
      <trkpt lat="44.08785" lon="5.99153">
        <ele>518.8</ele>
        <time>2021-03-30T12:09:44.000Z</time>
      </trkpt>
      <trkpt lat="44.08785" lon="5.99145">
        <ele>518.2</ele>
        <time>2021-03-30T12:09:45.000Z</time>
      </trkpt>
      <trkpt lat="44.0879" lon="5.99131">
        <ele>517</ele>
        <time>2021-03-30T12:09:47.000Z</time>
      </trkpt>
      <trkpt lat="44.08794" lon="5.99127">
        <ele>516.4</ele>
        <time>2021-03-30T12:09:48.000Z</time>
      </trkpt>
      <trkpt lat="44.08798" lon="5.99123">
        <ele>515.8</ele>
        <time>2021-03-30T12:09:49.000Z</time>
      </trkpt>
      <trkpt lat="44.08804" lon="5.99121">
        <ele>515</ele>
        <time>2021-03-30T12:09:51.000Z</time>
      </trkpt>
      <trkpt lat="44.08808" lon="5.99121">
        <ele>514.8</ele>
        <time>2021-03-30T12:09:52.000Z</time>
      </trkpt>
      <trkpt lat="44.08812" lon="5.99122">
        <ele>514.4</ele>
        <time>2021-03-30T12:09:53.000Z</time>
      </trkpt>
      <trkpt lat="44.08822" lon="5.99122">
        <ele>514</ele>
        <time>2021-03-30T12:09:55.000Z</time>
      </trkpt>
      <trkpt lat="44.08826" lon="5.9912">
        <ele>513.6</ele>
        <time>2021-03-30T12:09:56.000Z</time>
      </trkpt>
      <trkpt lat="44.08834" lon="5.99111">
        <ele>512.4</ele>
        <time>2021-03-30T12:09:58.000Z</time>
      </trkpt>
      <trkpt lat="44.08838" lon="5.99107">
        <ele>511.8</ele>
        <time>2021-03-30T12:09:59.000Z</time>
      </trkpt>
      <trkpt lat="44.08841" lon="5.99104">
        <ele>511.4</ele>
        <time>2021-03-30T12:10:00.000Z</time>
      </trkpt>
      <trkpt lat="44.08845" lon="5.99095">
        <ele>510.4</ele>
        <time>2021-03-30T12:10:02.000Z</time>
      </trkpt>
      <trkpt lat="44.08845" lon="5.99091">
        <ele>509.8</ele>
        <time>2021-03-30T12:10:03.000Z</time>
      </trkpt>
      <trkpt lat="44.08843" lon="5.99087">
        <ele>509.2</ele>
        <time>2021-03-30T12:10:04.000Z</time>
      </trkpt>
      <trkpt lat="44.08838" lon="5.99083">
        <ele>508.4</ele>
        <time>2021-03-30T12:10:06.000Z</time>
      </trkpt>
      <trkpt lat="44.08835" lon="5.9908">
        <ele>507.8</ele>
        <time>2021-03-30T12:10:07.000Z</time>
      </trkpt>
      <trkpt lat="44.0883" lon="5.99074">
        <ele>507.2</ele>
        <time>2021-03-30T12:10:09.000Z</time>
      </trkpt>
      <trkpt lat="44.08828" lon="5.99073">
        <ele>507</ele>
        <time>2021-03-30T12:10:10.000Z</time>
      </trkpt>
      <trkpt lat="44.08826" lon="5.99071">
        <ele>506.8</ele>
        <time>2021-03-30T12:10:11.000Z</time>
      </trkpt>
      <trkpt lat="44.08822" lon="5.99068">
        <ele>506.6</ele>
        <time>2021-03-30T12:10:13.000Z</time>
      </trkpt>
      <trkpt lat="44.08819" lon="5.99066">
        <ele>506.4</ele>
        <time>2021-03-30T12:10:14.000Z</time>
      </trkpt>
      <trkpt lat="44.08817" lon="5.99066">
        <ele>506.2</ele>
        <time>2021-03-30T12:10:15.000Z</time>
      </trkpt>
      <trkpt lat="44.08809" lon="5.99064">
        <ele>505.8</ele>
        <time>2021-03-30T12:10:17.000Z</time>
      </trkpt>
      <trkpt lat="44.08805" lon="5.99063">
        <ele>505.6</ele>
        <time>2021-03-30T12:10:18.000Z</time>
      </trkpt>
      <trkpt lat="44.08802" lon="5.99063">
        <ele>505.4</ele>
        <time>2021-03-30T12:10:19.000Z</time>
      </trkpt>
      <trkpt lat="44.08798" lon="5.99065">
        <ele>504.8</ele>
        <time>2021-03-30T12:10:21.000Z</time>
      </trkpt>
      <trkpt lat="44.08795" lon="5.99067">
        <ele>504.6</ele>
        <time>2021-03-30T12:10:22.000Z</time>
      </trkpt>
      <trkpt lat="44.08789" lon="5.99068">
        <ele>504</ele>
        <time>2021-03-30T12:10:24.000Z</time>
      </trkpt>
      <trkpt lat="44.08786" lon="5.99068">
        <ele>503.8</ele>
        <time>2021-03-30T12:10:25.000Z</time>
      </trkpt>
      <trkpt lat="44.08782" lon="5.99067">
        <ele>503.6</ele>
        <time>2021-03-30T12:10:26.000Z</time>
      </trkpt>
      <trkpt lat="44.08773" lon="5.99066">
        <ele>503</ele>
        <time>2021-03-30T12:10:28.000Z</time>
      </trkpt>
      <trkpt lat="44.08769" lon="5.99065">
        <ele>502.8</ele>
        <time>2021-03-30T12:10:29.000Z</time>
      </trkpt>
      <trkpt lat="44.08766" lon="5.99065">
        <ele>502.8</ele>
        <time>2021-03-30T12:10:30.000Z</time>
      </trkpt>
      <trkpt lat="44.0876" lon="5.99068">
        <ele>502.4</ele>
        <time>2021-03-30T12:10:32.000Z</time>
      </trkpt>
      <trkpt lat="44.08757" lon="5.99068">
        <ele>502.4</ele>
        <time>2021-03-30T12:10:33.000Z</time>
      </trkpt>
      <trkpt lat="44.08749" lon="5.99072">
        <ele>502</ele>
        <time>2021-03-30T12:10:35.000Z</time>
      </trkpt>
      <trkpt lat="44.08744" lon="5.99073">
        <ele>501.8</ele>
        <time>2021-03-30T12:10:36.000Z</time>
      </trkpt>
      <trkpt lat="44.08739" lon="5.99073">
        <ele>501.6</ele>
        <time>2021-03-30T12:10:37.000Z</time>
      </trkpt>
      <trkpt lat="44.0873" lon="5.99072">
        <ele>501.2</ele>
        <time>2021-03-30T12:10:39.000Z</time>
      </trkpt>
      <trkpt lat="44.08725" lon="5.99071">
        <ele>500.8</ele>
        <time>2021-03-30T12:10:40.000Z</time>
      </trkpt>
      <trkpt lat="44.08721" lon="5.99071">
        <ele>500.6</ele>
        <time>2021-03-30T12:10:41.000Z</time>
      </trkpt>
      <trkpt lat="44.08714" lon="5.99074">
        <ele>499.8</ele>
        <time>2021-03-30T12:10:43.000Z</time>
      </trkpt>
      <trkpt lat="44.08711" lon="5.99075">
        <ele>499.6</ele>
        <time>2021-03-30T12:10:44.000Z</time>
      </trkpt>
      <trkpt lat="44.08705" lon="5.99075">
        <ele>499.2</ele>
        <time>2021-03-30T12:10:46.000Z</time>
      </trkpt>
      <trkpt lat="44.08702" lon="5.99075">
        <ele>499</ele>
        <time>2021-03-30T12:10:47.000Z</time>
      </trkpt>
      <trkpt lat="44.08699" lon="5.99074">
        <ele>498.8</ele>
        <time>2021-03-30T12:10:48.000Z</time>
      </trkpt>
      <trkpt lat="44.08693" lon="5.99073">
        <ele>498.2</ele>
        <time>2021-03-30T12:10:50.000Z</time>
      </trkpt>
      <trkpt lat="44.0869" lon="5.99073">
        <ele>497.8</ele>
        <time>2021-03-30T12:10:51.000Z</time>
      </trkpt>
      <trkpt lat="44.08688" lon="5.99074">
        <ele>497.4</ele>
        <time>2021-03-30T12:10:52.000Z</time>
      </trkpt>
      <trkpt lat="44.08685" lon="5.99075">
        <ele>496.6</ele>
        <time>2021-03-30T12:10:54.000Z</time>
      </trkpt>
      <trkpt lat="44.08685" lon="5.99075">
        <ele>496.4</ele>
        <time>2021-03-30T12:10:55.000Z</time>
      </trkpt>
      <trkpt lat="44.08685" lon="5.99075">
        <ele>496</ele>
        <time>2021-03-30T12:10:56.000Z</time>
      </trkpt>
      <trkpt lat="44.08685" lon="5.99075">
        <ele>495.2</ele>
        <time>2021-03-30T12:10:58.000Z</time>
      </trkpt>
      <trkpt lat="44.08685" lon="5.99075">
        <ele>494.6</ele>
        <time>2021-03-30T12:10:59.000Z</time>
      </trkpt>
      <trkpt lat="44.08685" lon="5.99075">
        <ele>493.8</ele>
        <time>2021-03-30T12:11:01.000Z</time>
      </trkpt>
      <trkpt lat="44.08685" lon="5.99075">
        <ele>493.4</ele>
        <time>2021-03-30T12:11:02.000Z</time>
      </trkpt>
      <trkpt lat="44.08685" lon="5.99075">
        <ele>493</ele>
        <time>2021-03-30T12:11:03.000Z</time>
      </trkpt>
      <trkpt lat="44.08685" lon="5.99075">
        <ele>492.2</ele>
        <time>2021-03-30T12:11:05.000Z</time>
      </trkpt>
      <trkpt lat="44.08685" lon="5.99075">
        <ele>491.8</ele>
        <time>2021-03-30T12:11:06.000Z</time>
      </trkpt>
      <trkpt lat="44.08685" lon="5.99075">
        <ele>491.4</ele>
        <time>2021-03-30T12:11:07.000Z</time>
      </trkpt>
      <trkpt lat="44.08685" lon="5.99075">
        <ele>490.4</ele>
        <time>2021-03-30T12:11:09.000Z</time>
      </trkpt>
      <trkpt lat="44.08685" lon="5.99075">
        <ele>490</ele>
        <time>2021-03-30T12:11:10.000Z</time>
      </trkpt>
      <trkpt lat="44.08685" lon="5.99075">
        <ele>489.2</ele>
        <time>2021-03-30T12:11:12.000Z</time>
      </trkpt>
      <trkpt lat="44.08685" lon="5.99075">
        <ele>488.8</ele>
        <time>2021-03-30T12:11:13.000Z</time>
      </trkpt>
      <trkpt lat="44.08685" lon="5.99075">
        <ele>488.4</ele>
        <time>2021-03-30T12:11:14.000Z</time>
      </trkpt>
      <trkpt lat="44.08685" lon="5.99075">
        <ele>487.6</ele>
        <time>2021-03-30T12:11:16.000Z</time>
      </trkpt>
      <trkpt lat="44.08685" lon="5.99075">
        <ele>487.2</ele>
        <time>2021-03-30T12:11:17.000Z</time>
      </trkpt>
      <trkpt lat="44.08685" lon="5.99075">
        <ele>486.8</ele>
        <time>2021-03-30T12:11:18.000Z</time>
      </trkpt>
      <trkpt lat="44.08685" lon="5.99075">
        <ele>486</ele>
        <time>2021-03-30T12:11:20.000Z</time>
      </trkpt>
      <trkpt lat="44.08683" lon="5.99073">
        <ele>485.6</ele>
        <time>2021-03-30T12:11:21.000Z</time>
      </trkpt>
      <trkpt lat="44.0868" lon="5.99068">
        <ele>484.6</ele>
        <time>2021-03-30T12:11:23.000Z</time>
      </trkpt>
      <trkpt lat="44.08678" lon="5.99065">
        <ele>484.2</ele>
        <time>2021-03-30T12:11:24.000Z</time>
      </trkpt>
      <trkpt lat="44.08676" lon="5.99063">
        <ele>483.8</ele>
        <time>2021-03-30T12:11:25.000Z</time>
      </trkpt>
      <trkpt lat="44.08671" lon="5.9906">
        <ele>483.4</ele>
        <time>2021-03-30T12:11:27.000Z</time>
      </trkpt>
      <trkpt lat="44.08668" lon="5.9906">
        <ele>483.2</ele>
        <time>2021-03-30T12:11:28.000Z</time>
      </trkpt>
      <trkpt lat="44.08665" lon="5.99059">
        <ele>483</ele>
        <time>2021-03-30T12:11:29.000Z</time>
      </trkpt>
      <trkpt lat="44.0866" lon="5.99059">
        <ele>482.8</ele>
        <time>2021-03-30T12:11:31.000Z</time>
      </trkpt>
      <trkpt lat="44.08659" lon="5.9906">
        <ele>482.8</ele>
        <time>2021-03-30T12:11:32.000Z</time>
      </trkpt>
      <trkpt lat="44.08656" lon="5.99065">
        <ele>482.4</ele>
        <time>2021-03-30T12:11:34.000Z</time>
      </trkpt>
      <trkpt lat="44.08652" lon="5.99067">
        <ele>482.4</ele>
        <time>2021-03-30T12:11:35.000Z</time>
      </trkpt>
      <trkpt lat="44.08648" lon="5.99066">
        <ele>482.2</ele>
        <time>2021-03-30T12:11:36.000Z</time>
      </trkpt>
      <trkpt lat="44.08642" lon="5.99061">
        <ele>482</ele>
        <time>2021-03-30T12:11:38.000Z</time>
      </trkpt>
      <trkpt lat="44.08638" lon="5.9906">
        <ele>482</ele>
        <time>2021-03-30T12:11:39.000Z</time>
      </trkpt>
      <trkpt lat="44.08635" lon="5.99062">
        <ele>482</ele>
        <time>2021-03-30T12:11:40.000Z</time>
      </trkpt>
      <trkpt lat="44.08632" lon="5.99067">
        <ele>482</ele>
        <time>2021-03-30T12:11:42.000Z</time>
      </trkpt>
      <trkpt lat="44.08629" lon="5.9907">
        <ele>482</ele>
        <time>2021-03-30T12:11:43.000Z</time>
      </trkpt>
      <trkpt lat="44.08627" lon="5.99073">
        <ele>482</ele>
        <time>2021-03-30T12:11:44.000Z</time>
      </trkpt>
      <trkpt lat="44.0862" lon="5.99078">
        <ele>482</ele>
        <time>2021-03-30T12:11:46.000Z</time>
      </trkpt>
      <trkpt lat="44.08615" lon="5.99081">
        <ele>482</ele>
        <time>2021-03-30T12:11:47.000Z</time>
      </trkpt>
      <trkpt lat="44.08608" lon="5.99088">
        <ele>482</ele>
        <time>2021-03-30T12:11:49.000Z</time>
      </trkpt>
      <trkpt lat="44.08605" lon="5.99094">
        <ele>482</ele>
        <time>2021-03-30T12:11:50.000Z</time>
      </trkpt>
      <trkpt lat="44.08603" lon="5.99097">
        <ele>482.2</ele>
        <time>2021-03-30T12:11:51.000Z</time>
      </trkpt>
      <trkpt lat="44.08597" lon="5.99099">
        <ele>482.4</ele>
        <time>2021-03-30T12:11:53.000Z</time>
      </trkpt>
      <trkpt lat="44.08593" lon="5.991">
        <ele>482.4</ele>
        <time>2021-03-30T12:11:54.000Z</time>
      </trkpt>
      <trkpt lat="44.0859" lon="5.991">
        <ele>482.4</ele>
        <time>2021-03-30T12:11:55.000Z</time>
      </trkpt>
      <trkpt lat="44.08582" lon="5.99101">
        <ele>482.4</ele>
        <time>2021-03-30T12:11:57.000Z</time>
      </trkpt>
      <trkpt lat="44.08578" lon="5.99102">
        <ele>482.4</ele>
        <time>2021-03-30T12:11:58.000Z</time>
      </trkpt>
      <trkpt lat="44.08574" lon="5.99104">
        <ele>482.4</ele>
        <time>2021-03-30T12:12:00.000Z</time>
      </trkpt>
      <trkpt lat="44.08572" lon="5.99105">
        <ele>482.4</ele>
        <time>2021-03-30T12:12:01.000Z</time>
      </trkpt>
      <trkpt lat="44.08567" lon="5.99107">
        <ele>482.6</ele>
        <time>2021-03-30T12:12:02.000Z</time>
      </trkpt>
      <trkpt lat="44.08559" lon="5.9911">
        <ele>482.8</ele>
        <time>2021-03-30T12:12:04.000Z</time>
      </trkpt>
      <trkpt lat="44.08555" lon="5.99109">
        <ele>483</ele>
        <time>2021-03-30T12:12:05.000Z</time>
      </trkpt>
      <trkpt lat="44.08551" lon="5.99109">
        <ele>483</ele>
        <time>2021-03-30T12:12:06.000Z</time>
      </trkpt>
      <trkpt lat="44.08541" lon="5.9911">
        <ele>483</ele>
        <time>2021-03-30T12:12:08.000Z</time>
      </trkpt>
      <trkpt lat="44.08536" lon="5.99109">
        <ele>483</ele>
        <time>2021-03-30T12:12:09.000Z</time>
      </trkpt>
      <trkpt lat="44.08527" lon="5.99107">
        <ele>483.2</ele>
        <time>2021-03-30T12:12:11.000Z</time>
      </trkpt>
      <trkpt lat="44.08522" lon="5.99106">
        <ele>483.2</ele>
        <time>2021-03-30T12:12:12.000Z</time>
      </trkpt>
      <trkpt lat="44.08518" lon="5.99104">
        <ele>483.2</ele>
        <time>2021-03-30T12:12:13.000Z</time>
      </trkpt>
      <trkpt lat="44.08508" lon="5.99101">
        <ele>483.2</ele>
        <time>2021-03-30T12:12:15.000Z</time>
      </trkpt>
      <trkpt lat="44.08504" lon="5.99098">
        <ele>483.4</ele>
        <time>2021-03-30T12:12:16.000Z</time>
      </trkpt>
      <trkpt lat="44.085" lon="5.99096">
        <ele>483.4</ele>
        <time>2021-03-30T12:12:17.000Z</time>
      </trkpt>
      <trkpt lat="44.08492" lon="5.99092">
        <ele>483.6</ele>
        <time>2021-03-30T12:12:19.000Z</time>
      </trkpt>
      <trkpt lat="44.08488" lon="5.99091">
        <ele>483.6</ele>
        <time>2021-03-30T12:12:20.000Z</time>
      </trkpt>
      <trkpt lat="44.08483" lon="5.99091">
        <ele>483.6</ele>
        <time>2021-03-30T12:12:21.000Z</time>
      </trkpt>
      <trkpt lat="44.08473" lon="5.99092">
        <ele>483.6</ele>
        <time>2021-03-30T12:12:23.000Z</time>
      </trkpt>
      <trkpt lat="44.08467" lon="5.99094">
        <ele>483.6</ele>
        <time>2021-03-30T12:12:24.000Z</time>
      </trkpt>
      <trkpt lat="44.08456" lon="5.99097">
        <ele>483.8</ele>
        <time>2021-03-30T12:12:26.000Z</time>
      </trkpt>
      <trkpt lat="44.08451" lon="5.99099">
        <ele>483.8</ele>
        <time>2021-03-30T12:12:27.000Z</time>
      </trkpt>
      <trkpt lat="44.08446" lon="5.99099">
        <ele>483.8</ele>
        <time>2021-03-30T12:12:28.000Z</time>
      </trkpt>
      <trkpt lat="44.08439" lon="5.99096">
        <ele>483.8</ele>
        <time>2021-03-30T12:12:30.000Z</time>
      </trkpt>
      <trkpt lat="44.08435" lon="5.99093">
        <ele>484</ele>
        <time>2021-03-30T12:12:31.000Z</time>
      </trkpt>
      <trkpt lat="44.08432" lon="5.9909">
        <ele>484</ele>
        <time>2021-03-30T12:12:32.000Z</time>
      </trkpt>
      <trkpt lat="44.08425" lon="5.99084">
        <ele>484.2</ele>
        <time>2021-03-30T12:12:34.000Z</time>
      </trkpt>
      <trkpt lat="44.08422" lon="5.99082">
        <ele>484.2</ele>
        <time>2021-03-30T12:12:35.000Z</time>
      </trkpt>
      <trkpt lat="44.08413" lon="5.99081">
        <ele>484.4</ele>
        <time>2021-03-30T12:12:37.000Z</time>
      </trkpt>
      <trkpt lat="44.08409" lon="5.99081">
        <ele>484.2</ele>
        <time>2021-03-30T12:12:38.000Z</time>
      </trkpt>
      <trkpt lat="44.08406" lon="5.99081">
        <ele>484.2</ele>
        <time>2021-03-30T12:12:39.000Z</time>
      </trkpt>
      <trkpt lat="44.08399" lon="5.9908">
        <ele>484</ele>
        <time>2021-03-30T12:12:41.000Z</time>
      </trkpt>
      <trkpt lat="44.08396" lon="5.99078">
        <ele>484</ele>
        <time>2021-03-30T12:12:42.000Z</time>
      </trkpt>
      <trkpt lat="44.08393" lon="5.99076">
        <ele>484</ele>
        <time>2021-03-30T12:12:43.000Z</time>
      </trkpt>
      <trkpt lat="44.08389" lon="5.99071">
        <ele>483.8</ele>
        <time>2021-03-30T12:12:45.000Z</time>
      </trkpt>
      <trkpt lat="44.08387" lon="5.99067">
        <ele>483.8</ele>
        <time>2021-03-30T12:12:46.000Z</time>
      </trkpt>
      <trkpt lat="44.08384" lon="5.9906">
        <ele>483.8</ele>
        <time>2021-03-30T12:12:48.000Z</time>
      </trkpt>
      <trkpt lat="44.08384" lon="5.99057">
        <ele>483.8</ele>
        <time>2021-03-30T12:12:49.000Z</time>
      </trkpt>
      <trkpt lat="44.08382" lon="5.99054">
        <ele>483.8</ele>
        <time>2021-03-30T12:12:50.000Z</time>
      </trkpt>
      <trkpt lat="44.08378" lon="5.9905">
        <ele>483.8</ele>
        <time>2021-03-30T12:12:52.000Z</time>
      </trkpt>
      <trkpt lat="44.08377" lon="5.99049">
        <ele>483.8</ele>
        <time>2021-03-30T12:12:53.000Z</time>
      </trkpt>
      <trkpt lat="44.08375" lon="5.99049">
        <ele>483.8</ele>
        <time>2021-03-30T12:12:54.000Z</time>
      </trkpt>
      <trkpt lat="44.08373" lon="5.99051">
        <ele>483.8</ele>
        <time>2021-03-30T12:12:56.000Z</time>
      </trkpt>
      <trkpt lat="44.08371" lon="5.99052">
        <ele>483.8</ele>
        <time>2021-03-30T12:12:57.000Z</time>
      </trkpt>
      <trkpt lat="44.08369" lon="5.99051">
        <ele>483.8</ele>
        <time>2021-03-30T12:12:58.000Z</time>
      </trkpt>
      <trkpt lat="44.08366" lon="5.9905">
        <ele>483.8</ele>
        <time>2021-03-30T12:13:00.000Z</time>
      </trkpt>
      <trkpt lat="44.08365" lon="5.99049">
        <ele>483.6</ele>
        <time>2021-03-30T12:13:01.000Z</time>
      </trkpt>
      <trkpt lat="44.08361" lon="5.99049">
        <ele>483.6</ele>
        <time>2021-03-30T12:13:03.000Z</time>
      </trkpt>
      <trkpt lat="44.0836" lon="5.99049">
        <ele>483.4</ele>
        <time>2021-03-30T12:13:04.000Z</time>
      </trkpt>
      <trkpt lat="44.08359" lon="5.99049">
        <ele>483.4</ele>
        <time>2021-03-30T12:13:05.000Z</time>
      </trkpt>
      <trkpt lat="44.08358" lon="5.99049">
        <ele>483</ele>
        <time>2021-03-30T12:13:07.000Z</time>
      </trkpt>
      <trkpt lat="44.08358" lon="5.99049">
        <ele>482.8</ele>
        <time>2021-03-30T12:13:08.000Z</time>
      </trkpt>
      <trkpt lat="44.08358" lon="5.99049">
        <ele>482.6</ele>
        <time>2021-03-30T12:13:09.000Z</time>
      </trkpt>
      <trkpt lat="44.08358" lon="5.99049">
        <ele>482</ele>
        <time>2021-03-30T12:13:11.000Z</time>
      </trkpt>
      <trkpt lat="44.08358" lon="5.99049">
        <ele>481.8</ele>
        <time>2021-03-30T12:13:12.000Z</time>
      </trkpt>
      <trkpt lat="44.08358" lon="5.99049">
        <ele>481.2</ele>
        <time>2021-03-30T12:13:14.000Z</time>
      </trkpt>
      <trkpt lat="44.08358" lon="5.99049">
        <ele>480.8</ele>
        <time>2021-03-30T12:13:15.000Z</time>
      </trkpt>
      <trkpt lat="44.08358" lon="5.99049">
        <ele>480.6</ele>
        <time>2021-03-30T12:13:16.000Z</time>
      </trkpt>
      <trkpt lat="44.08359" lon="5.99049">
        <ele>480</ele>
        <time>2021-03-30T12:13:18.000Z</time>
      </trkpt>
      <trkpt lat="44.0836" lon="5.99049">
        <ele>479.6</ele>
        <time>2021-03-30T12:13:19.000Z</time>
      </trkpt>
      <trkpt lat="44.0836" lon="5.99049">
        <ele>479.2</ele>
        <time>2021-03-30T12:13:20.000Z</time>
      </trkpt>
      <trkpt lat="44.0836" lon="5.99048">
        <ele>478.6</ele>
        <time>2021-03-30T12:13:22.000Z</time>
      </trkpt>
      <trkpt lat="44.0836" lon="5.99048">
        <ele>478.4</ele>
        <time>2021-03-30T12:13:23.000Z</time>
      </trkpt>
      <trkpt lat="44.0836" lon="5.99048">
        <ele>477.8</ele>
        <time>2021-03-30T12:13:25.000Z</time>
      </trkpt>
      <trkpt lat="44.0836" lon="5.99048">
        <ele>477.6</ele>
        <time>2021-03-30T12:13:26.000Z</time>
      </trkpt>
      <trkpt lat="44.0836" lon="5.99048">
        <ele>477.6</ele>
        <time>2021-03-30T12:13:27.000Z</time>
      </trkpt>
      <trkpt lat="44.08362" lon="5.99047">
        <ele>477.2</ele>
        <time>2021-03-30T12:13:29.000Z</time>
      </trkpt>
      <trkpt lat="44.08363" lon="5.99046">
        <ele>477</ele>
        <time>2021-03-30T12:13:30.000Z</time>
      </trkpt>
      <trkpt lat="44.08362" lon="5.99046">
        <ele>476.8</ele>
        <time>2021-03-30T12:13:31.000Z</time>
      </trkpt>
      <trkpt lat="44.08362" lon="5.99045">
        <ele>476.6</ele>
        <time>2021-03-30T12:13:33.000Z</time>
      </trkpt>
      <trkpt lat="44.08362" lon="5.99045">
        <ele>476.4</ele>
        <time>2021-03-30T12:13:34.000Z</time>
      </trkpt>
      <trkpt lat="44.08362" lon="5.99044">
        <ele>476.2</ele>
        <time>2021-03-30T12:13:36.000Z</time>
      </trkpt>
      <trkpt lat="44.08362" lon="5.99044">
        <ele>476</ele>
        <time>2021-03-30T12:13:37.000Z</time>
      </trkpt>
      <trkpt lat="44.08363" lon="5.99043">
        <ele>476</ele>
        <time>2021-03-30T12:13:38.000Z</time>
      </trkpt>
      <trkpt lat="44.08364" lon="5.99039">
        <ele>475.8</ele>
        <time>2021-03-30T12:13:40.000Z</time>
      </trkpt>
      <trkpt lat="44.08365" lon="5.99037">
        <ele>475.6</ele>
        <time>2021-03-30T12:13:41.000Z</time>
      </trkpt>
      <trkpt lat="44.08365" lon="5.99034">
        <ele>475.6</ele>
        <time>2021-03-30T12:13:42.000Z</time>
      </trkpt>
      <trkpt lat="44.08365" lon="5.99029">
        <ele>475.4</ele>
        <time>2021-03-30T12:13:44.000Z</time>
      </trkpt>
      <trkpt lat="44.08365" lon="5.99027">
        <ele>475.4</ele>
        <time>2021-03-30T12:13:45.000Z</time>
      </trkpt>
      <trkpt lat="44.08365" lon="5.99024">
        <ele>475.4</ele>
        <time>2021-03-30T12:13:46.000Z</time>
      </trkpt>
      <trkpt lat="44.08364" lon="5.99019">
        <ele>475.4</ele>
        <time>2021-03-30T12:13:48.000Z</time>
      </trkpt>
      <trkpt lat="44.08364" lon="5.99016">
        <ele>475.6</ele>
        <time>2021-03-30T12:13:49.000Z</time>
      </trkpt>
      <trkpt lat="44.08362" lon="5.99011">
        <ele>475.8</ele>
        <time>2021-03-30T12:13:51.000Z</time>
      </trkpt>
      <trkpt lat="44.08361" lon="5.99007">
        <ele>476</ele>
        <time>2021-03-30T12:13:52.000Z</time>
      </trkpt>
      <trkpt lat="44.0836" lon="5.99004">
        <ele>476.2</ele>
        <time>2021-03-30T12:13:53.000Z</time>
      </trkpt>
      <trkpt lat="44.08358" lon="5.98998">
        <ele>476.4</ele>
        <time>2021-03-30T12:13:55.000Z</time>
      </trkpt>
      <trkpt lat="44.08357" lon="5.98996">
        <ele>476.6</ele>
        <time>2021-03-30T12:13:56.000Z</time>
      </trkpt>
      <trkpt lat="44.08356" lon="5.98993">
        <ele>476.8</ele>
        <time>2021-03-30T12:13:57.000Z</time>
      </trkpt>
      <trkpt lat="44.08353" lon="5.98987">
        <ele>477</ele>
        <time>2021-03-30T12:13:59.000Z</time>
      </trkpt>
      <trkpt lat="44.08352" lon="5.98985">
        <ele>477.2</ele>
        <time>2021-03-30T12:14:00.000Z</time>
      </trkpt>
      <trkpt lat="44.08348" lon="5.98978">
        <ele>477.4</ele>
        <time>2021-03-30T12:14:02.000Z</time>
      </trkpt>
      <trkpt lat="44.08347" lon="5.98974">
        <ele>477.4</ele>
        <time>2021-03-30T12:14:03.000Z</time>
      </trkpt>
      <trkpt lat="44.08347" lon="5.98971">
        <ele>477.6</ele>
        <time>2021-03-30T12:14:04.000Z</time>
      </trkpt>
      <trkpt lat="44.08347" lon="5.98963">
        <ele>478</ele>
        <time>2021-03-30T12:14:06.000Z</time>
      </trkpt>
      <trkpt lat="44.08346" lon="5.98958">
        <ele>478.2</ele>
        <time>2021-03-30T12:14:07.000Z</time>
      </trkpt>
      <trkpt lat="44.08345" lon="5.98955">
        <ele>478.2</ele>
        <time>2021-03-30T12:14:08.000Z</time>
      </trkpt>
      <trkpt lat="44.08342" lon="5.98949">
        <ele>478.4</ele>
        <time>2021-03-30T12:14:10.000Z</time>
      </trkpt>
      <trkpt lat="44.08341" lon="5.98946">
        <ele>478.6</ele>
        <time>2021-03-30T12:14:11.000Z</time>
      </trkpt>
      <trkpt lat="44.08339" lon="5.98938">
        <ele>479.2</ele>
        <time>2021-03-30T12:14:13.000Z</time>
      </trkpt>
      <trkpt lat="44.08338" lon="5.98934">
        <ele>479.4</ele>
        <time>2021-03-30T12:14:14.000Z</time>
      </trkpt>
      <trkpt lat="44.08337" lon="5.98931">
        <ele>479.6</ele>
        <time>2021-03-30T12:14:15.000Z</time>
      </trkpt>
      <trkpt lat="44.08338" lon="5.98922">
        <ele>480.2</ele>
        <time>2021-03-30T12:14:17.000Z</time>
      </trkpt>
      <trkpt lat="44.08338" lon="5.98919">
        <ele>480.4</ele>
        <time>2021-03-30T12:14:18.000Z</time>
      </trkpt>
      <trkpt lat="44.08337" lon="5.98916">
        <ele>480.6</ele>
        <time>2021-03-30T12:14:19.000Z</time>
      </trkpt>
      <trkpt lat="44.08333" lon="5.98913">
        <ele>481</ele>
        <time>2021-03-30T12:14:21.000Z</time>
      </trkpt>
      <trkpt lat="44.08331" lon="5.98911">
        <ele>481.2</ele>
        <time>2021-03-30T12:14:22.000Z</time>
      </trkpt>
      <trkpt lat="44.0833" lon="5.98908">
        <ele>481.4</ele>
        <time>2021-03-30T12:14:23.000Z</time>
      </trkpt>
      <trkpt lat="44.08328" lon="5.98902">
        <ele>481.8</ele>
        <time>2021-03-30T12:14:25.000Z</time>
      </trkpt>
      <trkpt lat="44.08327" lon="5.98899">
        <ele>482</ele>
        <time>2021-03-30T12:14:26.000Z</time>
      </trkpt>
      <trkpt lat="44.08323" lon="5.98893">
        <ele>482.4</ele>
        <time>2021-03-30T12:14:28.000Z</time>
      </trkpt>
      <trkpt lat="44.08321" lon="5.98891">
        <ele>482.4</ele>
        <time>2021-03-30T12:14:29.000Z</time>
      </trkpt>
      <trkpt lat="44.08318" lon="5.98888">
        <ele>482.8</ele>
        <time>2021-03-30T12:14:30.000Z</time>
      </trkpt>
      <trkpt lat="44.08315" lon="5.98881">
        <ele>483.2</ele>
        <time>2021-03-30T12:14:32.000Z</time>
      </trkpt>
      <trkpt lat="44.08313" lon="5.98878">
        <ele>483.4</ele>
        <time>2021-03-30T12:14:33.000Z</time>
      </trkpt>
      <trkpt lat="44.08313" lon="5.98875">
        <ele>483.8</ele>
        <time>2021-03-30T12:14:34.000Z</time>
      </trkpt>
      <trkpt lat="44.08313" lon="5.98867">
        <ele>484.4</ele>
        <time>2021-03-30T12:14:36.000Z</time>
      </trkpt>
      <trkpt lat="44.08313" lon="5.98863">
        <ele>484.6</ele>
        <time>2021-03-30T12:14:37.000Z</time>
      </trkpt>
      <trkpt lat="44.08311" lon="5.98856">
        <ele>485.2</ele>
        <time>2021-03-30T12:14:39.000Z</time>
      </trkpt>
      <trkpt lat="44.0831" lon="5.98852">
        <ele>485.4</ele>
        <time>2021-03-30T12:14:40.000Z</time>
      </trkpt>
      <trkpt lat="44.0831" lon="5.98848">
        <ele>485.8</ele>
        <time>2021-03-30T12:14:41.000Z</time>
      </trkpt>
      <trkpt lat="44.08312" lon="5.98841">
        <ele>486.2</ele>
        <time>2021-03-30T12:14:43.000Z</time>
      </trkpt>
      <trkpt lat="44.08311" lon="5.98838">
        <ele>486.4</ele>
        <time>2021-03-30T12:14:44.000Z</time>
      </trkpt>
      <trkpt lat="44.0831" lon="5.98835">
        <ele>486.4</ele>
        <time>2021-03-30T12:14:45.000Z</time>
      </trkpt>
      <trkpt lat="44.08307" lon="5.98831">
        <ele>486.8</ele>
        <time>2021-03-30T12:14:47.000Z</time>
      </trkpt>
      <trkpt lat="44.08305" lon="5.98831">
        <ele>487</ele>
        <time>2021-03-30T12:14:48.000Z</time>
      </trkpt>
      <trkpt lat="44.083" lon="5.98829">
        <ele>487.2</ele>
        <time>2021-03-30T12:14:50.000Z</time>
      </trkpt>
      <trkpt lat="44.08299" lon="5.98826">
        <ele>487.2</ele>
        <time>2021-03-30T12:14:51.000Z</time>
      </trkpt>
      <trkpt lat="44.08297" lon="5.98823">
        <ele>487.4</ele>
        <time>2021-03-30T12:14:52.000Z</time>
      </trkpt>
      <trkpt lat="44.08295" lon="5.98816">
        <ele>487.8</ele>
        <time>2021-03-30T12:14:54.000Z</time>
      </trkpt>
      <trkpt lat="44.08294" lon="5.98812">
        <ele>487.8</ele>
        <time>2021-03-30T12:14:55.000Z</time>
      </trkpt>
      <trkpt lat="44.08294" lon="5.98808">
        <ele>487.8</ele>
        <time>2021-03-30T12:14:56.000Z</time>
      </trkpt>
      <trkpt lat="44.08297" lon="5.98801">
        <ele>488</ele>
        <time>2021-03-30T12:14:58.000Z</time>
      </trkpt>
      <trkpt lat="44.08299" lon="5.98798">
        <ele>487.8</ele>
        <time>2021-03-30T12:14:59.000Z</time>
      </trkpt>
      <trkpt lat="44.08301" lon="5.98795">
        <ele>487.8</ele>
        <time>2021-03-30T12:15:00.000Z</time>
      </trkpt>
      <trkpt lat="44.08303" lon="5.9879">
        <ele>488</ele>
        <time>2021-03-30T12:15:02.000Z</time>
      </trkpt>
      <trkpt lat="44.08301" lon="5.98788">
        <ele>488</ele>
        <time>2021-03-30T12:15:03.000Z</time>
      </trkpt>
      <trkpt lat="44.08297" lon="5.98786">
        <ele>488.2</ele>
        <time>2021-03-30T12:15:05.000Z</time>
      </trkpt>
      <trkpt lat="44.08294" lon="5.98785">
        <ele>488.4</ele>
        <time>2021-03-30T12:15:06.000Z</time>
      </trkpt>
      <trkpt lat="44.08292" lon="5.98783">
        <ele>488.6</ele>
        <time>2021-03-30T12:15:07.000Z</time>
      </trkpt>
      <trkpt lat="44.08287" lon="5.98778">
        <ele>488.6</ele>
        <time>2021-03-30T12:15:09.000Z</time>
      </trkpt>
      <trkpt lat="44.08284" lon="5.98774">
        <ele>488.8</ele>
        <time>2021-03-30T12:15:10.000Z</time>
      </trkpt>
      <trkpt lat="44.08282" lon="5.9877">
        <ele>488.8</ele>
        <time>2021-03-30T12:15:11.000Z</time>
      </trkpt>
      <trkpt lat="44.08279" lon="5.98762">
        <ele>489</ele>
        <time>2021-03-30T12:15:13.000Z</time>
      </trkpt>
      <trkpt lat="44.08279" lon="5.98758">
        <ele>489</ele>
        <time>2021-03-30T12:15:14.000Z</time>
      </trkpt>
      <trkpt lat="44.08282" lon="5.98752">
        <ele>489.2</ele>
        <time>2021-03-30T12:15:16.000Z</time>
      </trkpt>
      <trkpt lat="44.08283" lon="5.98747">
        <ele>489.4</ele>
        <time>2021-03-30T12:15:17.000Z</time>
      </trkpt>
      <trkpt lat="44.08283" lon="5.98743">
        <ele>489.6</ele>
        <time>2021-03-30T12:15:18.000Z</time>
      </trkpt>
      <trkpt lat="44.08284" lon="5.98735">
        <ele>490.2</ele>
        <time>2021-03-30T12:15:20.000Z</time>
      </trkpt>
      <trkpt lat="44.08283" lon="5.98731">
        <ele>490.2</ele>
        <time>2021-03-30T12:15:21.000Z</time>
      </trkpt>
      <trkpt lat="44.08281" lon="5.98727">
        <ele>490.4</ele>
        <time>2021-03-30T12:15:22.000Z</time>
      </trkpt>
      <trkpt lat="44.08277" lon="5.98726">
        <ele>490.8</ele>
        <time>2021-03-30T12:15:24.000Z</time>
      </trkpt>
      <trkpt lat="44.08275" lon="5.98725">
        <ele>491</ele>
        <time>2021-03-30T12:15:25.000Z</time>
      </trkpt>
      <trkpt lat="44.0827" lon="5.9872">
        <ele>491.2</ele>
        <time>2021-03-30T12:15:27.000Z</time>
      </trkpt>
      <trkpt lat="44.08267" lon="5.98717">
        <ele>491.4</ele>
        <time>2021-03-30T12:15:28.000Z</time>
      </trkpt>
      <trkpt lat="44.08265" lon="5.98713">
        <ele>491.4</ele>
        <time>2021-03-30T12:15:29.000Z</time>
      </trkpt>
      <trkpt lat="44.08262" lon="5.98704">
        <ele>491.6</ele>
        <time>2021-03-30T12:15:31.000Z</time>
      </trkpt>
      <trkpt lat="44.08262" lon="5.987">
        <ele>491.8</ele>
        <time>2021-03-30T12:15:32.000Z</time>
      </trkpt>
      <trkpt lat="44.08263" lon="5.98697">
        <ele>491.8</ele>
        <time>2021-03-30T12:15:33.000Z</time>
      </trkpt>
      <trkpt lat="44.08268" lon="5.98692">
        <ele>492</ele>
        <time>2021-03-30T12:15:35.000Z</time>
      </trkpt>
      <trkpt lat="44.0827" lon="5.98689">
        <ele>492</ele>
        <time>2021-03-30T12:15:36.000Z</time>
      </trkpt>
      <trkpt lat="44.08273" lon="5.98681">
        <ele>492</ele>
        <time>2021-03-30T12:15:38.000Z</time>
      </trkpt>
      <trkpt lat="44.08273" lon="5.98677">
        <ele>492.2</ele>
        <time>2021-03-30T12:15:39.000Z</time>
      </trkpt>
      <trkpt lat="44.08272" lon="5.98674">
        <ele>492.2</ele>
        <time>2021-03-30T12:15:40.000Z</time>
      </trkpt>
      <trkpt lat="44.0827" lon="5.98667">
        <ele>492.6</ele>
        <time>2021-03-30T12:15:42.000Z</time>
      </trkpt>
      <trkpt lat="44.08271" lon="5.98664">
        <ele>493</ele>
        <time>2021-03-30T12:15:43.000Z</time>
      </trkpt>
      <trkpt lat="44.0827" lon="5.98661">
        <ele>493.4</ele>
        <time>2021-03-30T12:15:44.000Z</time>
      </trkpt>
      <trkpt lat="44.0827" lon="5.98654">
        <ele>494</ele>
        <time>2021-03-30T12:15:46.000Z</time>
      </trkpt>
      <trkpt lat="44.0827" lon="5.9865">
        <ele>494.4</ele>
        <time>2021-03-30T12:15:47.000Z</time>
      </trkpt>
      <trkpt lat="44.08271" lon="5.98645">
        <ele>494.8</ele>
        <time>2021-03-30T12:15:48.000Z</time>
      </trkpt>
      <trkpt lat="44.08273" lon="5.98638">
        <ele>495.6</ele>
        <time>2021-03-30T12:15:50.000Z</time>
      </trkpt>
      <trkpt lat="44.08275" lon="5.98635">
        <ele>496</ele>
        <time>2021-03-30T12:15:51.000Z</time>
      </trkpt>
      <trkpt lat="44.08276" lon="5.98628">
        <ele>496.6</ele>
        <time>2021-03-30T12:15:53.000Z</time>
      </trkpt>
      <trkpt lat="44.08278" lon="5.98624">
        <ele>497.2</ele>
        <time>2021-03-30T12:15:54.000Z</time>
      </trkpt>
      <trkpt lat="44.08279" lon="5.98622">
        <ele>497.6</ele>
        <time>2021-03-30T12:15:55.000Z</time>
      </trkpt>
      <trkpt lat="44.08284" lon="5.9862">
        <ele>498.4</ele>
        <time>2021-03-30T12:15:57.000Z</time>
      </trkpt>
      <trkpt lat="44.08287" lon="5.98621">
        <ele>498.8</ele>
        <time>2021-03-30T12:15:58.000Z</time>
      </trkpt>
      <trkpt lat="44.08289" lon="5.98622">
        <ele>499.2</ele>
        <time>2021-03-30T12:15:59.000Z</time>
      </trkpt>
      <trkpt lat="44.08295" lon="5.98625">
        <ele>500.2</ele>
        <time>2021-03-30T12:16:01.000Z</time>
      </trkpt>
      <trkpt lat="44.08297" lon="5.98625">
        <ele>500.6</ele>
        <time>2021-03-30T12:16:02.000Z</time>
      </trkpt>
      <trkpt lat="44.083" lon="5.98622">
        <ele>501.2</ele>
        <time>2021-03-30T12:16:04.000Z</time>
      </trkpt>
      <trkpt lat="44.08299" lon="5.98619">
        <ele>501.6</ele>
        <time>2021-03-30T12:16:05.000Z</time>
      </trkpt>
      <trkpt lat="44.08298" lon="5.98617">
        <ele>501.8</ele>
        <time>2021-03-30T12:16:06.000Z</time>
      </trkpt>
      <trkpt lat="44.08294" lon="5.98613">
        <ele>502.6</ele>
        <time>2021-03-30T12:16:08.000Z</time>
      </trkpt>
      <trkpt lat="44.08291" lon="5.98611">
        <ele>503</ele>
        <time>2021-03-30T12:16:09.000Z</time>
      </trkpt>
      <trkpt lat="44.08289" lon="5.98608">
        <ele>503.4</ele>
        <time>2021-03-30T12:16:10.000Z</time>
      </trkpt>
      <trkpt lat="44.08287" lon="5.98601">
        <ele>504.2</ele>
        <time>2021-03-30T12:16:12.000Z</time>
      </trkpt>
      <trkpt lat="44.08287" lon="5.98598">
        <ele>504.6</ele>
        <time>2021-03-30T12:16:13.000Z</time>
      </trkpt>
      <trkpt lat="44.0829" lon="5.98592">
        <ele>505.6</ele>
        <time>2021-03-30T12:16:15.000Z</time>
      </trkpt>
      <trkpt lat="44.08291" lon="5.9859">
        <ele>506</ele>
        <time>2021-03-30T12:16:16.000Z</time>
      </trkpt>
      <trkpt lat="44.08292" lon="5.98587">
        <ele>506.4</ele>
        <time>2021-03-30T12:16:17.000Z</time>
      </trkpt>
      <trkpt lat="44.08292" lon="5.98581">
        <ele>507</ele>
        <time>2021-03-30T12:16:19.000Z</time>
      </trkpt>
      <trkpt lat="44.08291" lon="5.98578">
        <ele>507.4</ele>
        <time>2021-03-30T12:16:20.000Z</time>
      </trkpt>
      <trkpt lat="44.0829" lon="5.98575">
        <ele>507.8</ele>
        <time>2021-03-30T12:16:21.000Z</time>
      </trkpt>
      <trkpt lat="44.08289" lon="5.98568">
        <ele>508.8</ele>
        <time>2021-03-30T12:16:23.000Z</time>
      </trkpt>
      <trkpt lat="44.08287" lon="5.98566">
        <ele>509.2</ele>
        <time>2021-03-30T12:16:24.000Z</time>
      </trkpt>
      <trkpt lat="44.08285" lon="5.98563">
        <ele>509.6</ele>
        <time>2021-03-30T12:16:25.000Z</time>
      </trkpt>
      <trkpt lat="44.0828" lon="5.98561">
        <ele>510.4</ele>
        <time>2021-03-30T12:16:27.000Z</time>
      </trkpt>
      <trkpt lat="44.08278" lon="5.98561">
        <ele>510.8</ele>
        <time>2021-03-30T12:16:28.000Z</time>
      </trkpt>
      <trkpt lat="44.08279" lon="5.98565">
        <ele>511.4</ele>
        <time>2021-03-30T12:16:30.000Z</time>
      </trkpt>
      <trkpt lat="44.08279" lon="5.98567">
        <ele>511.8</ele>
        <time>2021-03-30T12:16:31.000Z</time>
      </trkpt>
      <trkpt lat="44.08278" lon="5.98569">
        <ele>512.2</ele>
        <time>2021-03-30T12:16:32.000Z</time>
      </trkpt>
      <trkpt lat="44.08273" lon="5.98572">
        <ele>512.6</ele>
        <time>2021-03-30T12:16:34.000Z</time>
      </trkpt>
      <trkpt lat="44.0827" lon="5.98572">
        <ele>513</ele>
        <time>2021-03-30T12:16:35.000Z</time>
      </trkpt>
      <trkpt lat="44.08268" lon="5.98571">
        <ele>513.4</ele>
        <time>2021-03-30T12:16:36.000Z</time>
      </trkpt>
      <trkpt lat="44.08263" lon="5.98568">
        <ele>514</ele>
        <time>2021-03-30T12:16:38.000Z</time>
      </trkpt>
      <trkpt lat="44.08261" lon="5.98565">
        <ele>514.4</ele>
        <time>2021-03-30T12:16:39.000Z</time>
      </trkpt>
      <trkpt lat="44.08258" lon="5.98558">
        <ele>515.2</ele>
        <time>2021-03-30T12:16:41.000Z</time>
      </trkpt>
      <trkpt lat="44.08257" lon="5.98554">
        <ele>515.4</ele>
        <time>2021-03-30T12:16:42.000Z</time>
      </trkpt>
      <trkpt lat="44.08257" lon="5.98551">
        <ele>515.6</ele>
        <time>2021-03-30T12:16:43.000Z</time>
      </trkpt>
      <trkpt lat="44.08253" lon="5.98545">
        <ele>516</ele>
        <time>2021-03-30T12:16:45.000Z</time>
      </trkpt>
      <trkpt lat="44.0825" lon="5.98543">
        <ele>516.2</ele>
        <time>2021-03-30T12:16:46.000Z</time>
      </trkpt>
      <trkpt lat="44.08246" lon="5.98543">
        <ele>516.4</ele>
        <time>2021-03-30T12:16:47.000Z</time>
      </trkpt>
      <trkpt lat="44.08239" lon="5.98544">
        <ele>516.4</ele>
        <time>2021-03-30T12:16:49.000Z</time>
      </trkpt>
      <trkpt lat="44.08234" lon="5.98545">
        <ele>516.4</ele>
        <time>2021-03-30T12:16:50.000Z</time>
      </trkpt>
      <trkpt lat="44.08225" lon="5.98541">
        <ele>516.2</ele>
        <time>2021-03-30T12:16:52.000Z</time>
      </trkpt>
      <trkpt lat="44.08221" lon="5.98537">
        <ele>516</ele>
        <time>2021-03-30T12:16:53.000Z</time>
      </trkpt>
      <trkpt lat="44.08217" lon="5.98532">
        <ele>516</ele>
        <time>2021-03-30T12:16:54.000Z</time>
      </trkpt>
      <trkpt lat="44.08214" lon="5.98521">
        <ele>516</ele>
        <time>2021-03-30T12:16:56.000Z</time>
      </trkpt>
      <trkpt lat="44.08215" lon="5.98517">
        <ele>516.2</ele>
        <time>2021-03-30T12:16:57.000Z</time>
      </trkpt>
      <trkpt lat="44.08215" lon="5.98514">
        <ele>516.4</ele>
        <time>2021-03-30T12:16:58.000Z</time>
      </trkpt>
      <trkpt lat="44.08212" lon="5.9851">
        <ele>516.8</ele>
        <time>2021-03-30T12:17:00.000Z</time>
      </trkpt>
      <trkpt lat="44.08209" lon="5.98509">
        <ele>516.8</ele>
        <time>2021-03-30T12:17:01.000Z</time>
      </trkpt>
      <trkpt lat="44.08206" lon="5.9851">
        <ele>517</ele>
        <time>2021-03-30T12:17:02.000Z</time>
      </trkpt>
      <trkpt lat="44.08199" lon="5.98507">
        <ele>517.2</ele>
        <time>2021-03-30T12:17:04.000Z</time>
      </trkpt>
      <trkpt lat="44.08196" lon="5.98503">
        <ele>517.4</ele>
        <time>2021-03-30T12:17:05.000Z</time>
      </trkpt>
      <trkpt lat="44.08193" lon="5.98494">
        <ele>517.8</ele>
        <time>2021-03-30T12:17:07.000Z</time>
      </trkpt>
      <trkpt lat="44.08193" lon="5.98491">
        <ele>517.8</ele>
        <time>2021-03-30T12:17:08.000Z</time>
      </trkpt>
      <trkpt lat="44.08193" lon="5.98488">
        <ele>517.8</ele>
        <time>2021-03-30T12:17:09.000Z</time>
      </trkpt>
      <trkpt lat="44.08192" lon="5.98483">
        <ele>518</ele>
        <time>2021-03-30T12:17:11.000Z</time>
      </trkpt>
      <trkpt lat="44.08191" lon="5.98483">
        <ele>518</ele>
        <time>2021-03-30T12:17:12.000Z</time>
      </trkpt>
      <trkpt lat="44.08189" lon="5.98483">
        <ele>518</ele>
        <time>2021-03-30T12:17:13.000Z</time>
      </trkpt>
      <trkpt lat="44.08188" lon="5.98489">
        <ele>518.2</ele>
        <time>2021-03-30T12:17:15.000Z</time>
      </trkpt>
      <trkpt lat="44.08186" lon="5.98492">
        <ele>518.2</ele>
        <time>2021-03-30T12:17:16.000Z</time>
      </trkpt>
      <trkpt lat="44.08183" lon="5.98497">
        <ele>518.2</ele>
        <time>2021-03-30T12:17:18.000Z</time>
      </trkpt>
      <trkpt lat="44.0818" lon="5.98498">
        <ele>518.2</ele>
        <time>2021-03-30T12:17:19.000Z</time>
      </trkpt>
      <trkpt lat="44.08177" lon="5.98498">
        <ele>518.4</ele>
        <time>2021-03-30T12:17:20.000Z</time>
      </trkpt>
      <trkpt lat="44.08173" lon="5.98497">
        <ele>518.4</ele>
        <time>2021-03-30T12:17:22.000Z</time>
      </trkpt>
      <trkpt lat="44.0817" lon="5.98496">
        <ele>518.4</ele>
        <time>2021-03-30T12:17:23.000Z</time>
      </trkpt>
      <trkpt lat="44.08168" lon="5.98495">
        <ele>518.6</ele>
        <time>2021-03-30T12:17:24.000Z</time>
      </trkpt>
      <trkpt lat="44.08161" lon="5.98493">
        <ele>518.8</ele>
        <time>2021-03-30T12:17:26.000Z</time>
      </trkpt>
      <trkpt lat="44.08158" lon="5.98492">
        <ele>518.8</ele>
        <time>2021-03-30T12:17:27.000Z</time>
      </trkpt>
      <trkpt lat="44.08151" lon="5.98489">
        <ele>519</ele>
        <time>2021-03-30T12:17:29.000Z</time>
      </trkpt>
      <trkpt lat="44.08147" lon="5.98488">
        <ele>519</ele>
        <time>2021-03-30T12:17:30.000Z</time>
      </trkpt>
      <trkpt lat="44.08144" lon="5.98486">
        <ele>519</ele>
        <time>2021-03-30T12:17:31.000Z</time>
      </trkpt>
      <trkpt lat="44.08138" lon="5.98481">
        <ele>519</ele>
        <time>2021-03-30T12:17:33.000Z</time>
      </trkpt>
      <trkpt lat="44.08135" lon="5.98479">
        <ele>519</ele>
        <time>2021-03-30T12:17:34.000Z</time>
      </trkpt>
      <trkpt lat="44.08132" lon="5.98476">
        <ele>519.2</ele>
        <time>2021-03-30T12:17:35.000Z</time>
      </trkpt>
      <trkpt lat="44.08125" lon="5.98473">
        <ele>519.2</ele>
        <time>2021-03-30T12:17:37.000Z</time>
      </trkpt>
      <trkpt lat="44.08122" lon="5.98471">
        <ele>519.2</ele>
        <time>2021-03-30T12:17:38.000Z</time>
      </trkpt>
      <trkpt lat="44.08117" lon="5.98469">
        <ele>519</ele>
        <time>2021-03-30T12:17:40.000Z</time>
      </trkpt>
      <trkpt lat="44.08115" lon="5.98469">
        <ele>519</ele>
        <time>2021-03-30T12:17:41.000Z</time>
      </trkpt>
      <trkpt lat="44.08112" lon="5.9847">
        <ele>519</ele>
        <time>2021-03-30T12:17:42.000Z</time>
      </trkpt>
      <trkpt lat="44.08109" lon="5.98474">
        <ele>519.2</ele>
        <time>2021-03-30T12:17:44.000Z</time>
      </trkpt>
      <trkpt lat="44.08107" lon="5.98476">
        <ele>519.2</ele>
        <time>2021-03-30T12:17:45.000Z</time>
      </trkpt>
      <trkpt lat="44.08105" lon="5.98477">
        <ele>519.2</ele>
        <time>2021-03-30T12:17:46.000Z</time>
      </trkpt>
      <trkpt lat="44.081" lon="5.98477">
        <ele>519.4</ele>
        <time>2021-03-30T12:17:48.000Z</time>
      </trkpt>
      <trkpt lat="44.08098" lon="5.98477">
        <ele>519.6</ele>
        <time>2021-03-30T12:17:49.000Z</time>
      </trkpt>
      <trkpt lat="44.08095" lon="5.98478">
        <ele>519.8</ele>
        <time>2021-03-30T12:17:50.000Z</time>
      </trkpt>
      <trkpt lat="44.08089" lon="5.98481">
        <ele>519.8</ele>
        <time>2021-03-30T12:17:52.000Z</time>
      </trkpt>
      <trkpt lat="44.08086" lon="5.98481">
        <ele>520</ele>
        <time>2021-03-30T12:17:53.000Z</time>
      </trkpt>
      <trkpt lat="44.0808" lon="5.9848">
        <ele>520.2</ele>
        <time>2021-03-30T12:17:55.000Z</time>
      </trkpt>
      <trkpt lat="44.08076" lon="5.9848">
        <ele>520.4</ele>
        <time>2021-03-30T12:17:56.000Z</time>
      </trkpt>
      <trkpt lat="44.08073" lon="5.9848">
        <ele>520.4</ele>
        <time>2021-03-30T12:17:57.000Z</time>
      </trkpt>
      <trkpt lat="44.08067" lon="5.98479">
        <ele>520.6</ele>
        <time>2021-03-30T12:17:59.000Z</time>
      </trkpt>
      <trkpt lat="44.08064" lon="5.98477">
        <ele>520.6</ele>
        <time>2021-03-30T12:18:00.000Z</time>
      </trkpt>
      <trkpt lat="44.08061" lon="5.98476">
        <ele>520.8</ele>
        <time>2021-03-30T12:18:01.000Z</time>
      </trkpt>
      <trkpt lat="44.08054" lon="5.98472">
        <ele>520.8</ele>
        <time>2021-03-30T12:18:03.000Z</time>
      </trkpt>
      <trkpt lat="44.08051" lon="5.98471">
        <ele>521</ele>
        <time>2021-03-30T12:18:04.000Z</time>
      </trkpt>
      <trkpt lat="44.08043" lon="5.98471">
        <ele>521.2</ele>
        <time>2021-03-30T12:18:06.000Z</time>
      </trkpt>
      <trkpt lat="44.0804" lon="5.98471">
        <ele>521.4</ele>
        <time>2021-03-30T12:18:07.000Z</time>
      </trkpt>
      <trkpt lat="44.08036" lon="5.98471">
        <ele>521.4</ele>
        <time>2021-03-30T12:18:08.000Z</time>
      </trkpt>
      <trkpt lat="44.0803" lon="5.9847">
        <ele>521.8</ele>
        <time>2021-03-30T12:18:10.000Z</time>
      </trkpt>
      <trkpt lat="44.08026" lon="5.9847">
        <ele>522</ele>
        <time>2021-03-30T12:18:11.000Z</time>
      </trkpt>
      <trkpt lat="44.08023" lon="5.9847">
        <ele>522.2</ele>
        <time>2021-03-30T12:18:12.000Z</time>
      </trkpt>
      <trkpt lat="44.08017" lon="5.9847">
        <ele>522.6</ele>
        <time>2021-03-30T12:18:14.000Z</time>
      </trkpt>
      <trkpt lat="44.08014" lon="5.9847">
        <ele>522.8</ele>
        <time>2021-03-30T12:18:15.000Z</time>
      </trkpt>
      <trkpt lat="44.08007" lon="5.98472">
        <ele>523.4</ele>
        <time>2021-03-30T12:18:17.000Z</time>
      </trkpt>
      <trkpt lat="44.08004" lon="5.98473">
        <ele>523.6</ele>
        <time>2021-03-30T12:18:18.000Z</time>
      </trkpt>
      <trkpt lat="44.08002" lon="5.98475">
        <ele>523.8</ele>
        <time>2021-03-30T12:18:19.000Z</time>
      </trkpt>
      <trkpt lat="44.07999" lon="5.98482">
        <ele>524.2</ele>
        <time>2021-03-30T12:18:21.000Z</time>
      </trkpt>
      <trkpt lat="44.07998" lon="5.98486">
        <ele>524.4</ele>
        <time>2021-03-30T12:18:22.000Z</time>
      </trkpt>
      <trkpt lat="44.07998" lon="5.9849">
        <ele>524.4</ele>
        <time>2021-03-30T12:18:23.000Z</time>
      </trkpt>
      <trkpt lat="44.07998" lon="5.98496">
        <ele>524.4</ele>
        <time>2021-03-30T12:18:25.000Z</time>
      </trkpt>
      <trkpt lat="44.07998" lon="5.98499">
        <ele>524.4</ele>
        <time>2021-03-30T12:18:26.000Z</time>
      </trkpt>
      <trkpt lat="44.07998" lon="5.98502">
        <ele>524.4</ele>
        <time>2021-03-30T12:18:27.000Z</time>
      </trkpt>
      <trkpt lat="44.07999" lon="5.98511">
        <ele>524.4</ele>
        <time>2021-03-30T12:18:29.000Z</time>
      </trkpt>
      <trkpt lat="44.08001" lon="5.98516">
        <ele>524.4</ele>
        <time>2021-03-30T12:18:30.000Z</time>
      </trkpt>
      <trkpt lat="44.08003" lon="5.98521">
        <ele>524.6</ele>
        <time>2021-03-30T12:18:32.000Z</time>
      </trkpt>
      <trkpt lat="44.08004" lon="5.98524">
        <ele>524.6</ele>
        <time>2021-03-30T12:18:33.000Z</time>
      </trkpt>
      <trkpt lat="44.08004" lon="5.98527">
        <ele>524.8</ele>
        <time>2021-03-30T12:18:34.000Z</time>
      </trkpt>
      <trkpt lat="44.08003" lon="5.98535">
        <ele>525</ele>
        <time>2021-03-30T12:18:36.000Z</time>
      </trkpt>
      <trkpt lat="44.08004" lon="5.9854">
        <ele>525</ele>
        <time>2021-03-30T12:18:37.000Z</time>
      </trkpt>
      <trkpt lat="44.08004" lon="5.98544">
        <ele>525</ele>
        <time>2021-03-30T12:18:38.000Z</time>
      </trkpt>
      <trkpt lat="44.08007" lon="5.9855">
        <ele>525</ele>
        <time>2021-03-30T12:18:40.000Z</time>
      </trkpt>
      <trkpt lat="44.08008" lon="5.98552">
        <ele>525.2</ele>
        <time>2021-03-30T12:18:41.000Z</time>
      </trkpt>
      <trkpt lat="44.08012" lon="5.98556">
        <ele>525.4</ele>
        <time>2021-03-30T12:18:43.000Z</time>
      </trkpt>
      <trkpt lat="44.08014" lon="5.98557">
        <ele>525.4</ele>
        <time>2021-03-30T12:18:44.000Z</time>
      </trkpt>
      <trkpt lat="44.08017" lon="5.98559">
        <ele>525.6</ele>
        <time>2021-03-30T12:18:45.000Z</time>
      </trkpt>
      <trkpt lat="44.08022" lon="5.98565">
        <ele>525.8</ele>
        <time>2021-03-30T12:18:47.000Z</time>
      </trkpt>
      <trkpt lat="44.08025" lon="5.98568">
        <ele>525.8</ele>
        <time>2021-03-30T12:18:48.000Z</time>
      </trkpt>
      <trkpt lat="44.08028" lon="5.98572">
        <ele>525.8</ele>
        <time>2021-03-30T12:18:49.000Z</time>
      </trkpt>
      <trkpt lat="44.08033" lon="5.98578">
        <ele>526</ele>
        <time>2021-03-30T12:18:51.000Z</time>
      </trkpt>
      <trkpt lat="44.08035" lon="5.98579">
        <ele>526</ele>
        <time>2021-03-30T12:18:52.000Z</time>
      </trkpt>
      <trkpt lat="44.08037" lon="5.98584">
        <ele>526.2</ele>
        <time>2021-03-30T12:18:54.000Z</time>
      </trkpt>
      <trkpt lat="44.0804" lon="5.98587">
        <ele>526.2</ele>
        <time>2021-03-30T12:18:55.000Z</time>
      </trkpt>
      <trkpt lat="44.08041" lon="5.98588">
        <ele>526.2</ele>
        <time>2021-03-30T12:18:56.000Z</time>
      </trkpt>
      <trkpt lat="44.08043" lon="5.98589">
        <ele>526.4</ele>
        <time>2021-03-30T12:18:58.000Z</time>
      </trkpt>
      <trkpt lat="44.08043" lon="5.98589">
        <ele>526.6</ele>
        <time>2021-03-30T12:18:59.000Z</time>
      </trkpt>
      <trkpt lat="44.08043" lon="5.98589">
        <ele>526.6</ele>
        <time>2021-03-30T12:19:00.000Z</time>
      </trkpt>
      <trkpt lat="44.08043" lon="5.98589">
        <ele>526.8</ele>
        <time>2021-03-30T12:19:02.000Z</time>
      </trkpt>
      <trkpt lat="44.08043" lon="5.98589">
        <ele>527</ele>
        <time>2021-03-30T12:19:03.000Z</time>
      </trkpt>
      <trkpt lat="44.08043" lon="5.98589">
        <ele>527</ele>
        <time>2021-03-30T12:19:04.000Z</time>
      </trkpt>
      <trkpt lat="44.08043" lon="5.98589">
        <ele>527.2</ele>
        <time>2021-03-30T12:19:06.000Z</time>
      </trkpt>
      <trkpt lat="44.08043" lon="5.98589">
        <ele>527.2</ele>
        <time>2021-03-30T12:19:07.000Z</time>
      </trkpt>
      <trkpt lat="44.08043" lon="5.98589">
        <ele>527.2</ele>
        <time>2021-03-30T12:19:09.000Z</time>
      </trkpt>
      <trkpt lat="44.08043" lon="5.98589">
        <ele>527.2</ele>
        <time>2021-03-30T12:19:10.000Z</time>
      </trkpt>
      <trkpt lat="44.08043" lon="5.98589">
        <ele>527.4</ele>
        <time>2021-03-30T12:19:11.000Z</time>
      </trkpt>
      <trkpt lat="44.08043" lon="5.98589">
        <ele>527.4</ele>
        <time>2021-03-30T12:19:13.000Z</time>
      </trkpt>
      <trkpt lat="44.08043" lon="5.98589">
        <ele>527.4</ele>
        <time>2021-03-30T12:19:14.000Z</time>
      </trkpt>
      <trkpt lat="44.08044" lon="5.9859">
        <ele>527.6</ele>
        <time>2021-03-30T12:19:15.000Z</time>
      </trkpt>
      <trkpt lat="44.08047" lon="5.98594">
        <ele>527.6</ele>
        <time>2021-03-30T12:19:17.000Z</time>
      </trkpt>
      <trkpt lat="44.08049" lon="5.98596">
        <ele>527.4</ele>
        <time>2021-03-30T12:19:18.000Z</time>
      </trkpt>
      <trkpt lat="44.08054" lon="5.98596">
        <ele>527.4</ele>
        <time>2021-03-30T12:19:20.000Z</time>
      </trkpt>
      <trkpt lat="44.08057" lon="5.98595">
        <ele>527.4</ele>
        <time>2021-03-30T12:19:21.000Z</time>
      </trkpt>
      <trkpt lat="44.08061" lon="5.98594">
        <ele>527.4</ele>
        <time>2021-03-30T12:19:22.000Z</time>
      </trkpt>
      <trkpt lat="44.08067" lon="5.98592">
        <ele>527.4</ele>
        <time>2021-03-30T12:19:24.000Z</time>
      </trkpt>
      <trkpt lat="44.0807" lon="5.98593">
        <ele>527.4</ele>
        <time>2021-03-30T12:19:25.000Z</time>
      </trkpt>
      <trkpt lat="44.08071" lon="5.98596">
        <ele>527.4</ele>
        <time>2021-03-30T12:19:26.000Z</time>
      </trkpt>
      <trkpt lat="44.08074" lon="5.986">
        <ele>527.2</ele>
        <time>2021-03-30T12:19:28.000Z</time>
      </trkpt>
      <trkpt lat="44.08075" lon="5.986">
        <ele>527.2</ele>
        <time>2021-03-30T12:19:29.000Z</time>
      </trkpt>
      <trkpt lat="44.0808" lon="5.98601">
        <ele>527</ele>
        <time>2021-03-30T12:19:31.000Z</time>
      </trkpt>
      <trkpt lat="44.08083" lon="5.98602">
        <ele>526.8</ele>
        <time>2021-03-30T12:19:32.000Z</time>
      </trkpt>
      <trkpt lat="44.08085" lon="5.98604">
        <ele>526.8</ele>
        <time>2021-03-30T12:19:33.000Z</time>
      </trkpt>
      <trkpt lat="44.08089" lon="5.9861">
        <ele>526.6</ele>
        <time>2021-03-30T12:19:35.000Z</time>
      </trkpt>
      <trkpt lat="44.08091" lon="5.98614">
        <ele>526.6</ele>
        <time>2021-03-30T12:19:36.000Z</time>
      </trkpt>
      <trkpt lat="44.08094" lon="5.98617">
        <ele>526.4</ele>
        <time>2021-03-30T12:19:37.000Z</time>
      </trkpt>
      <trkpt lat="44.081" lon="5.98624">
        <ele>526</ele>
        <time>2021-03-30T12:19:39.000Z</time>
      </trkpt>
      <trkpt lat="44.08103" lon="5.98628">
        <ele>525.8</ele>
        <time>2021-03-30T12:19:40.000Z</time>
      </trkpt>
      <trkpt lat="44.08109" lon="5.98635">
        <ele>525.4</ele>
        <time>2021-03-30T12:19:42.000Z</time>
      </trkpt>
      <trkpt lat="44.08112" lon="5.9864">
        <ele>525</ele>
        <time>2021-03-30T12:19:43.000Z</time>
      </trkpt>
      <trkpt lat="44.08114" lon="5.98645">
        <ele>524.8</ele>
        <time>2021-03-30T12:19:44.000Z</time>
      </trkpt>
      <trkpt lat="44.0812" lon="5.9865">
        <ele>524.2</ele>
        <time>2021-03-30T12:19:46.000Z</time>
      </trkpt>
      <trkpt lat="44.08123" lon="5.9865">
        <ele>524</ele>
        <time>2021-03-30T12:19:47.000Z</time>
      </trkpt>
      <trkpt lat="44.08125" lon="5.98648">
        <ele>523.8</ele>
        <time>2021-03-30T12:19:48.000Z</time>
      </trkpt>
      <trkpt lat="44.08128" lon="5.9865">
        <ele>523.2</ele>
        <time>2021-03-30T12:19:50.000Z</time>
      </trkpt>
      <trkpt lat="44.08131" lon="5.98652">
        <ele>523</ele>
        <time>2021-03-30T12:19:51.000Z</time>
      </trkpt>
      <trkpt lat="44.08134" lon="5.98654">
        <ele>522.8</ele>
        <time>2021-03-30T12:19:52.000Z</time>
      </trkpt>
      <trkpt lat="44.08141" lon="5.98655">
        <ele>522.4</ele>
        <time>2021-03-30T12:19:54.000Z</time>
      </trkpt>
      <trkpt lat="44.08145" lon="5.98657">
        <ele>522.2</ele>
        <time>2021-03-30T12:19:55.000Z</time>
      </trkpt>
      <trkpt lat="44.08149" lon="5.98664">
        <ele>521.8</ele>
        <time>2021-03-30T12:19:57.000Z</time>
      </trkpt>
      <trkpt lat="44.08149" lon="5.98668">
        <ele>521.6</ele>
        <time>2021-03-30T12:19:58.000Z</time>
      </trkpt>
      <trkpt lat="44.0815" lon="5.98671">
        <ele>521.4</ele>
        <time>2021-03-30T12:19:59.000Z</time>
      </trkpt>
      <trkpt lat="44.08154" lon="5.98678">
        <ele>521</ele>
        <time>2021-03-30T12:20:01.000Z</time>
      </trkpt>
      <trkpt lat="44.08156" lon="5.9868">
        <ele>521</ele>
        <time>2021-03-30T12:20:02.000Z</time>
      </trkpt>
      <trkpt lat="44.08158" lon="5.98682">
        <ele>520.8</ele>
        <time>2021-03-30T12:20:03.000Z</time>
      </trkpt>
      <trkpt lat="44.0816" lon="5.98683">
        <ele>520.8</ele>
        <time>2021-03-30T12:20:05.000Z</time>
      </trkpt>
      <trkpt lat="44.08162" lon="5.98684">
        <ele>520.6</ele>
        <time>2021-03-30T12:20:06.000Z</time>
      </trkpt>
      <trkpt lat="44.08164" lon="5.98686">
        <ele>520.4</ele>
        <time>2021-03-30T12:20:08.000Z</time>
      </trkpt>
      <trkpt lat="44.08165" lon="5.98688">
        <ele>520.2</ele>
        <time>2021-03-30T12:20:09.000Z</time>
      </trkpt>
      <trkpt lat="44.08167" lon="5.9869">
        <ele>520.2</ele>
        <time>2021-03-30T12:20:10.000Z</time>
      </trkpt>
      <trkpt lat="44.08167" lon="5.98693">
        <ele>519.6</ele>
        <time>2021-03-30T12:20:12.000Z</time>
      </trkpt>
      <trkpt lat="44.08166" lon="5.98694">
        <ele>519.4</ele>
        <time>2021-03-30T12:20:13.000Z</time>
      </trkpt>
      <trkpt lat="44.08164" lon="5.98695">
        <ele>519</ele>
        <time>2021-03-30T12:20:14.000Z</time>
      </trkpt>
      <trkpt lat="44.0816" lon="5.98696">
        <ele>518.4</ele>
        <time>2021-03-30T12:20:16.000Z</time>
      </trkpt>
      <trkpt lat="44.08158" lon="5.98696">
        <ele>518.2</ele>
        <time>2021-03-30T12:20:17.000Z</time>
      </trkpt>
      <trkpt lat="44.08154" lon="5.987">
        <ele>517.8</ele>
        <time>2021-03-30T12:20:19.000Z</time>
      </trkpt>
      <trkpt lat="44.08154" lon="5.98704">
        <ele>517.6</ele>
        <time>2021-03-30T12:20:20.000Z</time>
      </trkpt>
      <trkpt lat="44.08154" lon="5.98708">
        <ele>517.6</ele>
        <time>2021-03-30T12:20:21.000Z</time>
      </trkpt>
      <trkpt lat="44.08155" lon="5.98715">
        <ele>517.2</ele>
        <time>2021-03-30T12:20:23.000Z</time>
      </trkpt>
      <trkpt lat="44.08155" lon="5.98719">
        <ele>517.2</ele>
        <time>2021-03-30T12:20:24.000Z</time>
      </trkpt>
      <trkpt lat="44.08155" lon="5.98721">
        <ele>517.2</ele>
        <time>2021-03-30T12:20:25.000Z</time>
      </trkpt>
      <trkpt lat="44.08157" lon="5.98726">
        <ele>517</ele>
        <time>2021-03-30T12:20:27.000Z</time>
      </trkpt>
      <trkpt lat="44.08159" lon="5.98727">
        <ele>517</ele>
        <time>2021-03-30T12:20:28.000Z</time>
      </trkpt>
      <trkpt lat="44.0816" lon="5.98729">
        <ele>516.8</ele>
        <time>2021-03-30T12:20:29.000Z</time>
      </trkpt>
      <trkpt lat="44.0816" lon="5.98734">
        <ele>516.8</ele>
        <time>2021-03-30T12:20:31.000Z</time>
      </trkpt>
      <trkpt lat="44.0816" lon="5.98736">
        <ele>516.8</ele>
        <time>2021-03-30T12:20:32.000Z</time>
      </trkpt>
      <trkpt lat="44.08158" lon="5.9874">
        <ele>516.8</ele>
        <time>2021-03-30T12:20:34.000Z</time>
      </trkpt>
      <trkpt lat="44.08157" lon="5.98741">
        <ele>517</ele>
        <time>2021-03-30T12:20:35.000Z</time>
      </trkpt>
      <trkpt lat="44.08155" lon="5.9874">
        <ele>517.2</ele>
        <time>2021-03-30T12:20:36.000Z</time>
      </trkpt>
      <trkpt lat="44.08152" lon="5.9874">
        <ele>517.4</ele>
        <time>2021-03-30T12:20:38.000Z</time>
      </trkpt>
      <trkpt lat="44.08151" lon="5.98742">
        <ele>517.6</ele>
        <time>2021-03-30T12:20:39.000Z</time>
      </trkpt>
      <trkpt lat="44.08152" lon="5.98745">
        <ele>517.6</ele>
        <time>2021-03-30T12:20:40.000Z</time>
      </trkpt>
      <trkpt lat="44.08153" lon="5.98751">
        <ele>517.8</ele>
        <time>2021-03-30T12:20:42.000Z</time>
      </trkpt>
      <trkpt lat="44.08154" lon="5.98753">
        <ele>518</ele>
        <time>2021-03-30T12:20:43.000Z</time>
      </trkpt>
      <trkpt lat="44.08157" lon="5.98759">
        <ele>518</ele>
        <time>2021-03-30T12:20:45.000Z</time>
      </trkpt>
      <trkpt lat="44.08157" lon="5.98762">
        <ele>518</ele>
        <time>2021-03-30T12:20:46.000Z</time>
      </trkpt>
      <trkpt lat="44.08157" lon="5.98764">
        <ele>518</ele>
        <time>2021-03-30T12:20:47.000Z</time>
      </trkpt>
      <trkpt lat="44.08157" lon="5.98768">
        <ele>518</ele>
        <time>2021-03-30T12:20:49.000Z</time>
      </trkpt>
      <trkpt lat="44.08159" lon="5.98771">
        <ele>518.2</ele>
        <time>2021-03-30T12:20:50.000Z</time>
      </trkpt>
      <trkpt lat="44.0816" lon="5.98774">
        <ele>518.2</ele>
        <time>2021-03-30T12:20:51.000Z</time>
      </trkpt>
      <trkpt lat="44.08161" lon="5.9878">
        <ele>518.2</ele>
        <time>2021-03-30T12:20:53.000Z</time>
      </trkpt>
      <trkpt lat="44.08162" lon="5.98783">
        <ele>518.4</ele>
        <time>2021-03-30T12:20:54.000Z</time>
      </trkpt>
      <trkpt lat="44.08164" lon="5.98789">
        <ele>518.4</ele>
        <time>2021-03-30T12:20:56.000Z</time>
      </trkpt>
      <trkpt lat="44.08163" lon="5.9879">
        <ele>518.4</ele>
        <time>2021-03-30T12:20:57.000Z</time>
      </trkpt>
      <trkpt lat="44.08162" lon="5.9879">
        <ele>518.4</ele>
        <time>2021-03-30T12:20:58.000Z</time>
      </trkpt>
      <trkpt lat="44.0816" lon="5.98788">
        <ele>518.6</ele>
        <time>2021-03-30T12:21:00.000Z</time>
      </trkpt>
      <trkpt lat="44.08159" lon="5.98787">
        <ele>518.8</ele>
        <time>2021-03-30T12:21:01.000Z</time>
      </trkpt>
      <trkpt lat="44.08157" lon="5.98786">
        <ele>519</ele>
        <time>2021-03-30T12:21:02.000Z</time>
      </trkpt>
      <trkpt lat="44.08154" lon="5.98783">
        <ele>519.2</ele>
        <time>2021-03-30T12:21:04.000Z</time>
      </trkpt>
      <trkpt lat="44.08152" lon="5.98783">
        <ele>519.2</ele>
        <time>2021-03-30T12:21:05.000Z</time>
      </trkpt>
      <trkpt lat="44.0815" lon="5.98784">
        <ele>519.2</ele>
        <time>2021-03-30T12:21:06.000Z</time>
      </trkpt>
      <trkpt lat="44.0815" lon="5.98787">
        <ele>519.4</ele>
        <time>2021-03-30T12:21:08.000Z</time>
      </trkpt>
      <trkpt lat="44.0815" lon="5.98789">
        <ele>519.6</ele>
        <time>2021-03-30T12:21:09.000Z</time>
      </trkpt>
      <trkpt lat="44.0815" lon="5.98795">
        <ele>519.8</ele>
        <time>2021-03-30T12:21:11.000Z</time>
      </trkpt>
      <trkpt lat="44.08151" lon="5.98796">
        <ele>520</ele>
        <time>2021-03-30T12:21:12.000Z</time>
      </trkpt>
      <trkpt lat="44.08151" lon="5.98797">
        <ele>520</ele>
        <time>2021-03-30T12:21:13.000Z</time>
      </trkpt>
      <trkpt lat="44.08153" lon="5.98801">
        <ele>520.4</ele>
        <time>2021-03-30T12:21:15.000Z</time>
      </trkpt>
      <trkpt lat="44.08153" lon="5.98802">
        <ele>520.6</ele>
        <time>2021-03-30T12:21:16.000Z</time>
      </trkpt>
      <trkpt lat="44.08152" lon="5.98804">
        <ele>520.8</ele>
        <time>2021-03-30T12:21:17.000Z</time>
      </trkpt>
      <trkpt lat="44.08151" lon="5.98806">
        <ele>521.2</ele>
        <time>2021-03-30T12:21:19.000Z</time>
      </trkpt>
      <trkpt lat="44.08149" lon="5.98807">
        <ele>521.2</ele>
        <time>2021-03-30T12:21:20.000Z</time>
      </trkpt>
      <trkpt lat="44.08146" lon="5.98805">
        <ele>521.4</ele>
        <time>2021-03-30T12:21:22.000Z</time>
      </trkpt>
      <trkpt lat="44.08144" lon="5.98804">
        <ele>521.4</ele>
        <time>2021-03-30T12:21:23.000Z</time>
      </trkpt>
      <trkpt lat="44.08143" lon="5.98801">
        <ele>521.6</ele>
        <time>2021-03-30T12:21:24.000Z</time>
      </trkpt>
      <trkpt lat="44.08139" lon="5.98796">
        <ele>521.6</ele>
        <time>2021-03-30T12:21:26.000Z</time>
      </trkpt>
      <trkpt lat="44.08137" lon="5.98794">
        <ele>521.8</ele>
        <time>2021-03-30T12:21:27.000Z</time>
      </trkpt>
      <trkpt lat="44.08136" lon="5.98791">
        <ele>522</ele>
        <time>2021-03-30T12:21:28.000Z</time>
      </trkpt>
      <trkpt lat="44.08132" lon="5.98787">
        <ele>522.2</ele>
        <time>2021-03-30T12:21:30.000Z</time>
      </trkpt>
      <trkpt lat="44.0813" lon="5.98785">
        <ele>522.4</ele>
        <time>2021-03-30T12:21:31.000Z</time>
      </trkpt>
      <trkpt lat="44.08126" lon="5.98781">
        <ele>522.8</ele>
        <time>2021-03-30T12:21:33.000Z</time>
      </trkpt>
      <trkpt lat="44.08125" lon="5.98779">
        <ele>523</ele>
        <time>2021-03-30T12:21:34.000Z</time>
      </trkpt>
      <trkpt lat="44.08123" lon="5.98776">
        <ele>523</ele>
        <time>2021-03-30T12:21:35.000Z</time>
      </trkpt>
      <trkpt lat="44.0812" lon="5.98771">
        <ele>523.2</ele>
        <time>2021-03-30T12:21:37.000Z</time>
      </trkpt>
      <trkpt lat="44.08117" lon="5.98769">
        <ele>523.2</ele>
        <time>2021-03-30T12:21:38.000Z</time>
      </trkpt>
      <trkpt lat="44.08115" lon="5.98767">
        <ele>523.4</ele>
        <time>2021-03-30T12:21:39.000Z</time>
      </trkpt>
      <trkpt lat="44.08111" lon="5.98762">
        <ele>523.6</ele>
        <time>2021-03-30T12:21:41.000Z</time>
      </trkpt>
      <trkpt lat="44.08109" lon="5.9876">
        <ele>523.8</ele>
        <time>2021-03-30T12:21:42.000Z</time>
      </trkpt>
      <trkpt lat="44.08104" lon="5.98757">
        <ele>524</ele>
        <time>2021-03-30T12:21:44.000Z</time>
      </trkpt>
      <trkpt lat="44.08102" lon="5.98755">
        <ele>524.2</ele>
        <time>2021-03-30T12:21:45.000Z</time>
      </trkpt>
      <trkpt lat="44.08101" lon="5.98753">
        <ele>524.4</ele>
        <time>2021-03-30T12:21:46.000Z</time>
      </trkpt>
      <trkpt lat="44.08098" lon="5.98748">
        <ele>524.8</ele>
        <time>2021-03-30T12:21:48.000Z</time>
      </trkpt>
      <trkpt lat="44.08096" lon="5.98745">
        <ele>525</ele>
        <time>2021-03-30T12:21:49.000Z</time>
      </trkpt>
      <trkpt lat="44.08095" lon="5.98742">
        <ele>525.2</ele>
        <time>2021-03-30T12:21:50.000Z</time>
      </trkpt>
      <trkpt lat="44.08092" lon="5.98735">
        <ele>525.4</ele>
        <time>2021-03-30T12:21:52.000Z</time>
      </trkpt>
      <trkpt lat="44.08091" lon="5.98729">
        <ele>525.2</ele>
        <time>2021-03-30T12:21:53.000Z</time>
      </trkpt>
      <trkpt lat="44.0809" lon="5.98724">
        <ele>525.2</ele>
        <time>2021-03-30T12:21:54.000Z</time>
      </trkpt>
      <trkpt lat="44.08086" lon="5.98717">
        <ele>525</ele>
        <time>2021-03-30T12:21:56.000Z</time>
      </trkpt>
      <trkpt lat="44.08083" lon="5.98717">
        <ele>525</ele>
        <time>2021-03-30T12:21:57.000Z</time>
      </trkpt>
      <trkpt lat="44.08078" lon="5.98712">
        <ele>524.8</ele>
        <time>2021-03-30T12:21:59.000Z</time>
      </trkpt>
      <trkpt lat="44.08076" lon="5.9871">
        <ele>524.8</ele>
        <time>2021-03-30T12:22:00.000Z</time>
      </trkpt>
      <trkpt lat="44.08073" lon="5.98708">
        <ele>524.6</ele>
        <time>2021-03-30T12:22:01.000Z</time>
      </trkpt>
      <trkpt lat="44.08068" lon="5.98702">
        <ele>524.8</ele>
        <time>2021-03-30T12:22:03.000Z</time>
      </trkpt>
      <trkpt lat="44.08067" lon="5.987">
        <ele>524.8</ele>
        <time>2021-03-30T12:22:04.000Z</time>
      </trkpt>
      <trkpt lat="44.08065" lon="5.98698">
        <ele>524.8</ele>
        <time>2021-03-30T12:22:05.000Z</time>
      </trkpt>
      <trkpt lat="44.08066" lon="5.98694">
        <ele>525</ele>
        <time>2021-03-30T12:22:07.000Z</time>
      </trkpt>
      <trkpt lat="44.08066" lon="5.98692">
        <ele>525.2</ele>
        <time>2021-03-30T12:22:08.000Z</time>
      </trkpt>
      <trkpt lat="44.08064" lon="5.98686">
        <ele>525.2</ele>
        <time>2021-03-30T12:22:10.000Z</time>
      </trkpt>
      <trkpt lat="44.08062" lon="5.98683">
        <ele>525.2</ele>
        <time>2021-03-30T12:22:11.000Z</time>
      </trkpt>
      <trkpt lat="44.08061" lon="5.98681">
        <ele>525.2</ele>
        <time>2021-03-30T12:22:12.000Z</time>
      </trkpt>
      <trkpt lat="44.08059" lon="5.98677">
        <ele>525.2</ele>
        <time>2021-03-30T12:22:14.000Z</time>
      </trkpt>
      <trkpt lat="44.08057" lon="5.98675">
        <ele>525.4</ele>
        <time>2021-03-30T12:22:15.000Z</time>
      </trkpt>
      <trkpt lat="44.08056" lon="5.98672">
        <ele>525.4</ele>
        <time>2021-03-30T12:22:16.000Z</time>
      </trkpt>
      <trkpt lat="44.08054" lon="5.98665">
        <ele>525.6</ele>
        <time>2021-03-30T12:22:18.000Z</time>
      </trkpt>
      <trkpt lat="44.08053" lon="5.98662">
        <ele>525.6</ele>
        <time>2021-03-30T12:22:19.000Z</time>
      </trkpt>
      <trkpt lat="44.08051" lon="5.98657">
        <ele>525.8</ele>
        <time>2021-03-30T12:22:21.000Z</time>
      </trkpt>
      <trkpt lat="44.0805" lon="5.98655">
        <ele>526</ele>
        <time>2021-03-30T12:22:22.000Z</time>
      </trkpt>
      <trkpt lat="44.08049" lon="5.98652">
        <ele>526</ele>
        <time>2021-03-30T12:22:23.000Z</time>
      </trkpt>
      <trkpt lat="44.08046" lon="5.98646">
        <ele>526.4</ele>
        <time>2021-03-30T12:22:25.000Z</time>
      </trkpt>
      <trkpt lat="44.08044" lon="5.98644">
        <ele>526.6</ele>
        <time>2021-03-30T12:22:26.000Z</time>
      </trkpt>
      <trkpt lat="44.08043" lon="5.98642">
        <ele>526.8</ele>
        <time>2021-03-30T12:22:27.000Z</time>
      </trkpt>
      <trkpt lat="44.08038" lon="5.98638">
        <ele>527.2</ele>
        <time>2021-03-30T12:22:29.000Z</time>
      </trkpt>
      <trkpt lat="44.08035" lon="5.98636">
        <ele>527.4</ele>
        <time>2021-03-30T12:22:30.000Z</time>
      </trkpt>
      <trkpt lat="44.08033" lon="5.98635">
        <ele>527.4</ele>
        <time>2021-03-30T12:22:31.000Z</time>
      </trkpt>
      <trkpt lat="44.0803" lon="5.98634">
        <ele>527.8</ele>
        <time>2021-03-30T12:22:33.000Z</time>
      </trkpt>
      <trkpt lat="44.08028" lon="5.98633">
        <ele>528</ele>
        <time>2021-03-30T12:22:34.000Z</time>
      </trkpt>
      <trkpt lat="44.08024" lon="5.98725">
        <ele>547.5</ele>
      </trkpt>
      <trkpt lat="44.08025" lon="5.9873">
        <ele>547.2</ele>
      </trkpt>
      <trkpt lat="44.08018" lon="5.98723">
        <ele>548.2</ele>
      </trkpt>
      <trkpt lat="44.07964" lon="5.98717">
        <ele>551</ele>
      </trkpt>
      <trkpt lat="44.07943" lon="5.98712">
        <ele>561.6</ele>
        <time>2021-03-30T12:44:47.000Z</time>
      </trkpt>
      <trkpt lat="44.07949" lon="5.98715">
        <ele>561.4</ele>
        <time>2021-03-30T12:44:48.000Z</time>
      </trkpt>
      <trkpt lat="44.0796" lon="5.98722">
        <ele>560.8</ele>
        <time>2021-03-30T12:44:50.000Z</time>
      </trkpt>
      <trkpt lat="44.07965" lon="5.98726">
        <ele>560.6</ele>
        <time>2021-03-30T12:44:51.000Z</time>
      </trkpt>
      <trkpt lat="44.07972" lon="5.98734">
        <ele>560</ele>
        <time>2021-03-30T12:44:53.000Z</time>
      </trkpt>
      <trkpt lat="44.07977" lon="5.98737">
        <ele>559.8</ele>
        <time>2021-03-30T12:44:54.000Z</time>
      </trkpt>
      <trkpt lat="44.07981" lon="5.98741">
        <ele>559.2</ele>
        <time>2021-03-30T12:44:55.000Z</time>
      </trkpt>
      <trkpt lat="44.07991" lon="5.98748">
        <ele>558.6</ele>
        <time>2021-03-30T12:44:57.000Z</time>
      </trkpt>
      <trkpt lat="44.07996" lon="5.98752">
        <ele>558.2</ele>
        <time>2021-03-30T12:44:58.000Z</time>
      </trkpt>
      <trkpt lat="44.08" lon="5.98758">
        <ele>557.8</ele>
        <time>2021-03-30T12:44:59.000Z</time>
      </trkpt>
      <trkpt lat="44.0801" lon="5.9877">
        <ele>557.2</ele>
        <time>2021-03-30T12:45:01.000Z</time>
      </trkpt>
      <trkpt lat="44.08015" lon="5.98775">
        <ele>556.8</ele>
        <time>2021-03-30T12:45:02.000Z</time>
      </trkpt>
      <trkpt lat="44.08019" lon="5.98782">
        <ele>556</ele>
        <time>2021-03-30T12:45:04.000Z</time>
      </trkpt>
      <trkpt lat="44.08018" lon="5.98783">
        <ele>555.8</ele>
        <time>2021-03-30T12:45:05.000Z</time>
      </trkpt>
      <trkpt lat="44.08015" lon="5.98783">
        <ele>555.2</ele>
        <time>2021-03-30T12:45:06.000Z</time>
      </trkpt>
      <trkpt lat="44.0801" lon="5.98783">
        <ele>554.2</ele>
        <time>2021-03-30T12:45:08.000Z</time>
      </trkpt>
      <trkpt lat="44.08006" lon="5.98782">
        <ele>553.8</ele>
        <time>2021-03-30T12:45:09.000Z</time>
      </trkpt>
      <trkpt lat="44.08002" lon="5.98781">
        <ele>553.2</ele>
        <time>2021-03-30T12:45:10.000Z</time>
      </trkpt>
      <trkpt lat="44.07992" lon="5.98781">
        <ele>552.2</ele>
        <time>2021-03-30T12:45:12.000Z</time>
      </trkpt>
      <trkpt lat="44.07987" lon="5.9878">
        <ele>551.8</ele>
        <time>2021-03-30T12:45:13.000Z</time>
      </trkpt>
      <trkpt lat="44.07982" lon="5.98781">
        <ele>551.2</ele>
        <time>2021-03-30T12:45:14.000Z</time>
      </trkpt>
      <trkpt lat="44.07976" lon="5.98788">
        <ele>550.2</ele>
        <time>2021-03-30T12:45:16.000Z</time>
      </trkpt>
      <trkpt lat="44.07976" lon="5.98792">
        <ele>549.6</ele>
        <time>2021-03-30T12:45:17.000Z</time>
      </trkpt>
      <trkpt lat="44.07977" lon="5.98799">
        <ele>548.6</ele>
        <time>2021-03-30T12:45:19.000Z</time>
      </trkpt>
      <trkpt lat="44.0798" lon="5.98803">
        <ele>548</ele>
        <time>2021-03-30T12:45:20.000Z</time>
      </trkpt>
      <trkpt lat="44.07981" lon="5.98808">
        <ele>547.6</ele>
        <time>2021-03-30T12:45:21.000Z</time>
      </trkpt>
      <trkpt lat="44.07984" lon="5.98819">
        <ele>546.6</ele>
        <time>2021-03-30T12:45:23.000Z</time>
      </trkpt>
      <trkpt lat="44.07987" lon="5.98823">
        <ele>546</ele>
        <time>2021-03-30T12:45:24.000Z</time>
      </trkpt>
      <trkpt lat="44.0799" lon="5.98826">
        <ele>545.6</ele>
        <time>2021-03-30T12:45:25.000Z</time>
      </trkpt>
      <trkpt lat="44.07998" lon="5.98837">
        <ele>544.8</ele>
        <time>2021-03-30T12:45:27.000Z</time>
      </trkpt>
      <trkpt lat="44.08002" lon="5.98844">
        <ele>544.2</ele>
        <time>2021-03-30T12:45:28.000Z</time>
      </trkpt>
      <trkpt lat="44.08009" lon="5.98857">
        <ele>543.2</ele>
        <time>2021-03-30T12:45:30.000Z</time>
      </trkpt>
      <trkpt lat="44.08012" lon="5.98863">
        <ele>542.8</ele>
        <time>2021-03-30T12:45:31.000Z</time>
      </trkpt>
      <trkpt lat="44.08015" lon="5.98868">
        <ele>542.2</ele>
        <time>2021-03-30T12:45:32.000Z</time>
      </trkpt>
      <trkpt lat="44.08024" lon="5.98873">
        <ele>541.2</ele>
        <time>2021-03-30T12:45:34.000Z</time>
      </trkpt>
      <trkpt lat="44.08028" lon="5.98874">
        <ele>540.8</ele>
        <time>2021-03-30T12:45:35.000Z</time>
      </trkpt>
      <trkpt lat="44.08032" lon="5.98874">
        <ele>540.4</ele>
        <time>2021-03-30T12:45:36.000Z</time>
      </trkpt>
      <trkpt lat="44.0804" lon="5.98878">
        <ele>539.4</ele>
        <time>2021-03-30T12:45:38.000Z</time>
      </trkpt>
      <trkpt lat="44.08043" lon="5.98881">
        <ele>539</ele>
        <time>2021-03-30T12:45:39.000Z</time>
      </trkpt>
      <trkpt lat="44.08051" lon="5.98892">
        <ele>538.2</ele>
        <time>2021-03-30T12:45:41.000Z</time>
      </trkpt>
      <trkpt lat="44.08054" lon="5.98899">
        <ele>537.8</ele>
        <time>2021-03-30T12:45:42.000Z</time>
      </trkpt>
      <trkpt lat="44.08058" lon="5.98905">
        <ele>537.4</ele>
        <time>2021-03-30T12:45:43.000Z</time>
      </trkpt>
      <trkpt lat="44.08067" lon="5.98914">
        <ele>536.6</ele>
        <time>2021-03-30T12:45:45.000Z</time>
      </trkpt>
      <trkpt lat="44.08071" lon="5.98917">
        <ele>536.2</ele>
        <time>2021-03-30T12:45:46.000Z</time>
      </trkpt>
      <trkpt lat="44.08073" lon="5.9892">
        <ele>535.8</ele>
        <time>2021-03-30T12:45:47.000Z</time>
      </trkpt>
      <trkpt lat="44.08073" lon="5.98923">
        <ele>535.2</ele>
        <time>2021-03-30T12:45:49.000Z</time>
      </trkpt>
      <trkpt lat="44.08071" lon="5.98923">
        <ele>534.6</ele>
        <time>2021-03-30T12:45:50.000Z</time>
      </trkpt>
      <trkpt lat="44.08067" lon="5.98924">
        <ele>533.8</ele>
        <time>2021-03-30T12:45:52.000Z</time>
      </trkpt>
      <trkpt lat="44.08064" lon="5.98926">
        <ele>533.4</ele>
        <time>2021-03-30T12:45:53.000Z</time>
      </trkpt>
      <trkpt lat="44.08061" lon="5.98927">
        <ele>532.8</ele>
        <time>2021-03-30T12:45:54.000Z</time>
      </trkpt>
      <trkpt lat="44.08055" lon="5.98926">
        <ele>532</ele>
        <time>2021-03-30T12:45:56.000Z</time>
      </trkpt>
      <trkpt lat="44.08052" lon="5.98926">
        <ele>531.4</ele>
        <time>2021-03-30T12:45:57.000Z</time>
      </trkpt>
      <trkpt lat="44.08049" lon="5.98927">
        <ele>531</ele>
        <time>2021-03-30T12:45:58.000Z</time>
      </trkpt>
      <trkpt lat="44.08043" lon="5.98936">
        <ele>529.8</ele>
        <time>2021-03-30T12:46:00.000Z</time>
      </trkpt>
      <trkpt lat="44.08043" lon="5.98942">
        <ele>529</ele>
        <time>2021-03-30T12:46:01.000Z</time>
      </trkpt>
      <trkpt lat="44.08044" lon="5.98947">
        <ele>528.6</ele>
        <time>2021-03-30T12:46:02.000Z</time>
      </trkpt>
      <trkpt lat="44.08048" lon="5.98959">
        <ele>527.4</ele>
        <time>2021-03-30T12:46:04.000Z</time>
      </trkpt>
      <trkpt lat="44.08051" lon="5.98963">
        <ele>527</ele>
        <time>2021-03-30T12:46:05.000Z</time>
      </trkpt>
      <trkpt lat="44.08057" lon="5.98972">
        <ele>526.2</ele>
        <time>2021-03-30T12:46:07.000Z</time>
      </trkpt>
      <trkpt lat="44.08059" lon="5.98978">
        <ele>525.6</ele>
        <time>2021-03-30T12:46:08.000Z</time>
      </trkpt>
      <trkpt lat="44.0806" lon="5.98985">
        <ele>525.2</ele>
        <time>2021-03-30T12:46:09.000Z</time>
      </trkpt>
      <trkpt lat="44.08065" lon="5.98999">
        <ele>524</ele>
        <time>2021-03-30T12:46:11.000Z</time>
      </trkpt>
      <trkpt lat="44.08069" lon="5.99004">
        <ele>523.4</ele>
        <time>2021-03-30T12:46:12.000Z</time>
      </trkpt>
      <trkpt lat="44.08073" lon="5.99009">
        <ele>523</ele>
        <time>2021-03-30T12:46:13.000Z</time>
      </trkpt>
      <trkpt lat="44.0808" lon="5.99019">
        <ele>522</ele>
        <time>2021-03-30T12:46:15.000Z</time>
      </trkpt>
      <trkpt lat="44.08082" lon="5.99025">
        <ele>521.6</ele>
        <time>2021-03-30T12:46:16.000Z</time>
      </trkpt>
      <trkpt lat="44.08085" lon="5.99031">
        <ele>520.8</ele>
        <time>2021-03-30T12:46:18.000Z</time>
      </trkpt>
      <trkpt lat="44.08088" lon="5.99033">
        <ele>520.4</ele>
        <time>2021-03-30T12:46:19.000Z</time>
      </trkpt>
      <trkpt lat="44.08091" lon="5.99033">
        <ele>520</ele>
        <time>2021-03-30T12:46:20.000Z</time>
      </trkpt>
      <trkpt lat="44.08096" lon="5.99028">
        <ele>519</ele>
        <time>2021-03-30T12:46:22.000Z</time>
      </trkpt>
      <trkpt lat="44.08098" lon="5.99026">
        <ele>518.6</ele>
        <time>2021-03-30T12:46:23.000Z</time>
      </trkpt>
      <trkpt lat="44.08099" lon="5.99023">
        <ele>518.2</ele>
        <time>2021-03-30T12:46:24.000Z</time>
      </trkpt>
      <trkpt lat="44.08102" lon="5.99023">
        <ele>517.6</ele>
        <time>2021-03-30T12:46:26.000Z</time>
      </trkpt>
      <trkpt lat="44.08104" lon="5.99025">
        <ele>517.2</ele>
        <time>2021-03-30T12:46:27.000Z</time>
      </trkpt>
      <trkpt lat="44.08108" lon="5.9903">
        <ele>516.6</ele>
        <time>2021-03-30T12:46:29.000Z</time>
      </trkpt>
      <trkpt lat="44.0811" lon="5.99032">
        <ele>516.4</ele>
        <time>2021-03-30T12:46:30.000Z</time>
      </trkpt>
      <trkpt lat="44.08114" lon="5.99034">
        <ele>516</ele>
        <time>2021-03-30T12:46:31.000Z</time>
      </trkpt>
      <trkpt lat="44.08119" lon="5.99037">
        <ele>515.6</ele>
        <time>2021-03-30T12:46:33.000Z</time>
      </trkpt>
      <trkpt lat="44.08121" lon="5.99039">
        <ele>515.4</ele>
        <time>2021-03-30T12:46:34.000Z</time>
      </trkpt>
      <trkpt lat="44.08123" lon="5.99042">
        <ele>515.2</ele>
        <time>2021-03-30T12:46:35.000Z</time>
      </trkpt>
      <trkpt lat="44.08127" lon="5.99047">
        <ele>514.8</ele>
        <time>2021-03-30T12:46:37.000Z</time>
      </trkpt>
      <trkpt lat="44.0813" lon="5.9905">
        <ele>514.6</ele>
        <time>2021-03-30T12:46:38.000Z</time>
      </trkpt>
      <trkpt lat="44.08132" lon="5.99054">
        <ele>514.4</ele>
        <time>2021-03-30T12:46:39.000Z</time>
      </trkpt>
      <trkpt lat="44.08136" lon="5.99064">
        <ele>514</ele>
        <time>2021-03-30T12:46:41.000Z</time>
      </trkpt>
      <trkpt lat="44.08139" lon="5.9907">
        <ele>513.6</ele>
        <time>2021-03-30T12:46:42.000Z</time>
      </trkpt>
      <trkpt lat="44.08148" lon="5.99082">
        <ele>513.2</ele>
        <time>2021-03-30T12:46:44.000Z</time>
      </trkpt>
      <trkpt lat="44.08153" lon="5.99086">
        <ele>512.8</ele>
        <time>2021-03-30T12:46:45.000Z</time>
      </trkpt>
      <trkpt lat="44.08156" lon="5.99091">
        <ele>512.6</ele>
        <time>2021-03-30T12:46:46.000Z</time>
      </trkpt>
      <trkpt lat="44.0816" lon="5.99101">
        <ele>512</ele>
        <time>2021-03-30T12:46:48.000Z</time>
      </trkpt>
      <trkpt lat="44.08161" lon="5.99106">
        <ele>511.6</ele>
        <time>2021-03-30T12:46:49.000Z</time>
      </trkpt>
      <trkpt lat="44.08164" lon="5.99111">
        <ele>511.2</ele>
        <time>2021-03-30T12:46:50.000Z</time>
      </trkpt>
      <trkpt lat="44.0817" lon="5.99118">
        <ele>510.6</ele>
        <time>2021-03-30T12:46:52.000Z</time>
      </trkpt>
      <trkpt lat="44.08173" lon="5.99123">
        <ele>510.2</ele>
        <time>2021-03-30T12:46:53.000Z</time>
      </trkpt>
      <trkpt lat="44.08179" lon="5.99131">
        <ele>509.2</ele>
        <time>2021-03-30T12:46:55.000Z</time>
      </trkpt>
      <trkpt lat="44.08183" lon="5.99134">
        <ele>508.8</ele>
        <time>2021-03-30T12:46:56.000Z</time>
      </trkpt>
      <trkpt lat="44.08187" lon="5.99137">
        <ele>508.4</ele>
        <time>2021-03-30T12:46:57.000Z</time>
      </trkpt>
      <trkpt lat="44.08194" lon="5.9914">
        <ele>507.6</ele>
        <time>2021-03-30T12:46:59.000Z</time>
      </trkpt>
      <trkpt lat="44.08195" lon="5.99141">
        <ele>507</ele>
        <time>2021-03-30T12:47:00.000Z</time>
      </trkpt>
      <trkpt lat="44.08196" lon="5.99143">
        <ele>506.4</ele>
        <time>2021-03-30T12:47:01.000Z</time>
      </trkpt>
      <trkpt lat="44.08194" lon="5.99146">
        <ele>505</ele>
        <time>2021-03-30T12:47:03.000Z</time>
      </trkpt>
      <trkpt lat="44.08192" lon="5.99149">
        <ele>504.4</ele>
        <time>2021-03-30T12:47:04.000Z</time>
      </trkpt>
      <trkpt lat="44.08186" lon="5.99155">
        <ele>502.8</ele>
        <time>2021-03-30T12:47:06.000Z</time>
      </trkpt>
      <trkpt lat="44.08182" lon="5.99158">
        <ele>502.2</ele>
        <time>2021-03-30T12:47:07.000Z</time>
      </trkpt>
      <trkpt lat="44.08179" lon="5.99161">
        <ele>501.4</ele>
        <time>2021-03-30T12:47:08.000Z</time>
      </trkpt>
      <trkpt lat="44.08173" lon="5.99169">
        <ele>499.8</ele>
        <time>2021-03-30T12:47:10.000Z</time>
      </trkpt>
      <trkpt lat="44.08172" lon="5.99171">
        <ele>499</ele>
        <time>2021-03-30T12:47:11.000Z</time>
      </trkpt>
      <trkpt lat="44.0817" lon="5.99173">
        <ele>498.2</ele>
        <time>2021-03-30T12:47:12.000Z</time>
      </trkpt>
      <trkpt lat="44.08165" lon="5.99175">
        <ele>496.2</ele>
        <time>2021-03-30T12:47:14.000Z</time>
      </trkpt>
      <trkpt lat="44.08162" lon="5.99176">
        <ele>495.2</ele>
        <time>2021-03-30T12:47:15.000Z</time>
      </trkpt>
      <trkpt lat="44.08161" lon="5.99176">
        <ele>494.4</ele>
        <time>2021-03-30T12:47:16.000Z</time>
      </trkpt>
      <trkpt lat="44.0816" lon="5.99177">
        <ele>492.6</ele>
        <time>2021-03-30T12:47:18.000Z</time>
      </trkpt>
      <trkpt lat="44.0816" lon="5.99177">
        <ele>491.8</ele>
        <time>2021-03-30T12:47:19.000Z</time>
      </trkpt>
      <trkpt lat="44.0816" lon="5.99177">
        <ele>490.2</ele>
        <time>2021-03-30T12:47:21.000Z</time>
      </trkpt>
      <trkpt lat="44.0816" lon="5.99177">
        <ele>489.6</ele>
        <time>2021-03-30T12:47:22.000Z</time>
      </trkpt>
      <trkpt lat="44.0816" lon="5.99177">
        <ele>488.8</ele>
        <time>2021-03-30T12:47:23.000Z</time>
      </trkpt>
      <trkpt lat="44.08159" lon="5.99181">
        <ele>487.4</ele>
        <time>2021-03-30T12:47:25.000Z</time>
      </trkpt>
      <trkpt lat="44.08158" lon="5.99183">
        <ele>486.6</ele>
        <time>2021-03-30T12:47:26.000Z</time>
      </trkpt>
      <trkpt lat="44.08159" lon="5.99185">
        <ele>490.5</ele>
      </trkpt>
      <trkpt lat="44.08156" lon="5.9919">
        <ele>490.4</ele>
      </trkpt>
      <trkpt lat="44.08156" lon="5.99193">
        <ele>490.2</ele>
      </trkpt>
      <trkpt lat="44.08152" lon="5.99208">
        <ele>489.4</ele>
      </trkpt>
      <trkpt lat="44.08149" lon="5.99212">
        <ele>489.1</ele>
      </trkpt>
      <trkpt lat="44.08148" lon="5.99214">
        <ele>489.1</ele>
      </trkpt>
      <trkpt lat="44.08139" lon="5.99222">
        <ele>488.6</ele>
      </trkpt>
      <trkpt lat="44.08132" lon="5.99225">
        <ele>488.3</ele>
      </trkpt>
      <trkpt lat="44.08116" lon="5.9923">
        <ele>487.9</ele>
      </trkpt>
      <trkpt lat="44.08091" lon="5.99237">
        <ele>487</ele>
      </trkpt>
      <trkpt lat="44.08088" lon="5.99237">
        <ele>486.9</ele>
      </trkpt>
      <trkpt lat="44.08075" lon="5.99242">
        <ele>486.5</ele>
      </trkpt>
      <trkpt lat="44.08073" lon="5.99245">
        <ele>486.2</ele>
      </trkpt>
      <trkpt lat="44.08071" lon="5.99245">
        <ele>484.6</ele>
        <time>2021-03-30T12:51:06.000Z</time>
      </trkpt>
      <trkpt lat="44.08072" lon="5.99254">
        <ele>484</ele>
        <time>2021-03-30T12:51:08.000Z</time>
      </trkpt>
      <trkpt lat="44.08072" lon="5.99257">
        <ele>483.8</ele>
        <time>2021-03-30T12:51:09.000Z</time>
      </trkpt>
      <trkpt lat="44.08071" lon="5.9926">
        <ele>483.4</ele>
        <time>2021-03-30T12:51:10.000Z</time>
      </trkpt>
      <trkpt lat="44.08069" lon="5.99264">
        <ele>482.6</ele>
        <time>2021-03-30T12:51:12.000Z</time>
      </trkpt>
      <trkpt lat="44.08068" lon="5.99265">
        <ele>482.2</ele>
        <time>2021-03-30T12:51:13.000Z</time>
      </trkpt>
      <trkpt lat="44.08064" lon="5.99266">
        <ele>481.6</ele>
        <time>2021-03-30T12:51:15.000Z</time>
      </trkpt>
      <trkpt lat="44.08061" lon="5.99267">
        <ele>481.2</ele>
        <time>2021-03-30T12:51:16.000Z</time>
      </trkpt>
      <trkpt lat="44.08059" lon="5.99268">
        <ele>481</ele>
        <time>2021-03-30T12:51:17.000Z</time>
      </trkpt>
      <trkpt lat="44.08055" lon="5.99273">
        <ele>480.2</ele>
        <time>2021-03-30T12:51:19.000Z</time>
      </trkpt>
      <trkpt lat="44.08054" lon="5.99276">
        <ele>480</ele>
        <time>2021-03-30T12:51:20.000Z</time>
      </trkpt>
      <trkpt lat="44.08052" lon="5.9928">
        <ele>479.6</ele>
        <time>2021-03-30T12:51:21.000Z</time>
      </trkpt>
      <trkpt lat="44.08051" lon="5.99288">
        <ele>479.2</ele>
        <time>2021-03-30T12:51:23.000Z</time>
      </trkpt>
      <trkpt lat="44.0805" lon="5.99292">
        <ele>478.8</ele>
        <time>2021-03-30T12:51:24.000Z</time>
      </trkpt>
      <trkpt lat="44.08049" lon="5.99297">
        <ele>478.6</ele>
        <time>2021-03-30T12:51:25.000Z</time>
      </trkpt>
      <trkpt lat="44.08047" lon="5.99307">
        <ele>478</ele>
        <time>2021-03-30T12:51:27.000Z</time>
      </trkpt>
      <trkpt lat="44.08045" lon="5.99312">
        <ele>477.6</ele>
        <time>2021-03-30T12:51:28.000Z</time>
      </trkpt>
      <trkpt lat="44.08043" lon="5.9932">
        <ele>477</ele>
        <time>2021-03-30T12:51:30.000Z</time>
      </trkpt>
      <trkpt lat="44.08041" lon="5.99324">
        <ele>476.6</ele>
        <time>2021-03-30T12:51:31.000Z</time>
      </trkpt>
      <trkpt lat="44.08039" lon="5.99328">
        <ele>476.4</ele>
        <time>2021-03-30T12:51:32.000Z</time>
      </trkpt>
      <trkpt lat="44.08035" lon="5.99335">
        <ele>476</ele>
        <time>2021-03-30T12:51:34.000Z</time>
      </trkpt>
      <trkpt lat="44.08033" lon="5.99338">
        <ele>475.6</ele>
        <time>2021-03-30T12:51:35.000Z</time>
      </trkpt>
      <trkpt lat="44.08031" lon="5.99342">
        <ele>475.4</ele>
        <time>2021-03-30T12:51:36.000Z</time>
      </trkpt>
      <trkpt lat="44.08028" lon="5.99348">
        <ele>475</ele>
        <time>2021-03-30T12:51:38.000Z</time>
      </trkpt>
      <trkpt lat="44.08027" lon="5.99352">
        <ele>474.8</ele>
        <time>2021-03-30T12:51:39.000Z</time>
      </trkpt>
      <trkpt lat="44.08024" lon="5.99359">
        <ele>474.6</ele>
        <time>2021-03-30T12:51:41.000Z</time>
      </trkpt>
      <trkpt lat="44.08023" lon="5.99363">
        <ele>474.6</ele>
        <time>2021-03-30T12:51:42.000Z</time>
      </trkpt>
      <trkpt lat="44.08022" lon="5.99366">
        <ele>474.4</ele>
        <time>2021-03-30T12:51:43.000Z</time>
      </trkpt>
      <trkpt lat="44.08019" lon="5.99374">
        <ele>474.4</ele>
        <time>2021-03-30T12:51:45.000Z</time>
      </trkpt>
      <trkpt lat="44.08018" lon="5.99378">
        <ele>474.4</ele>
        <time>2021-03-30T12:51:46.000Z</time>
      </trkpt>
      <trkpt lat="44.08017" lon="5.99381">
        <ele>474.4</ele>
        <time>2021-03-30T12:51:47.000Z</time>
      </trkpt>
      <trkpt lat="44.08014" lon="5.99389">
        <ele>474.6</ele>
        <time>2021-03-30T12:51:49.000Z</time>
      </trkpt>
      <trkpt lat="44.08013" lon="5.99393">
        <ele>474.6</ele>
        <time>2021-03-30T12:51:50.000Z</time>
      </trkpt>
      <trkpt lat="44.08012" lon="5.99401">
        <ele>474.8</ele>
        <time>2021-03-30T12:51:52.000Z</time>
      </trkpt>
      <trkpt lat="44.08011" lon="5.99405">
        <ele>475</ele>
        <time>2021-03-30T12:51:53.000Z</time>
      </trkpt>
      <trkpt lat="44.08012" lon="5.99409">
        <ele>475</ele>
        <time>2021-03-30T12:51:54.000Z</time>
      </trkpt>
      <trkpt lat="44.08013" lon="5.99418">
        <ele>475</ele>
        <time>2021-03-30T12:51:56.000Z</time>
      </trkpt>
      <trkpt lat="44.08013" lon="5.99422">
        <ele>475</ele>
        <time>2021-03-30T12:51:57.000Z</time>
      </trkpt>
      <trkpt lat="44.08014" lon="5.99426">
        <ele>475.2</ele>
        <time>2021-03-30T12:51:58.000Z</time>
      </trkpt>
      <trkpt lat="44.08015" lon="5.99433">
        <ele>475.2</ele>
        <time>2021-03-30T12:52:00.000Z</time>
      </trkpt>
      <trkpt lat="44.08015" lon="5.99437">
        <ele>475.4</ele>
        <time>2021-03-30T12:52:01.000Z</time>
      </trkpt>
      <trkpt lat="44.08015" lon="5.9944">
        <ele>475.4</ele>
        <time>2021-03-30T12:52:02.000Z</time>
      </trkpt>
      <trkpt lat="44.08015" lon="5.99448">
        <ele>475.6</ele>
        <time>2021-03-30T12:52:04.000Z</time>
      </trkpt>
      <trkpt lat="44.08015" lon="5.99452">
        <ele>475.8</ele>
        <time>2021-03-30T12:52:05.000Z</time>
      </trkpt>
      <trkpt lat="44.08015" lon="5.99459">
        <ele>476</ele>
        <time>2021-03-30T12:52:07.000Z</time>
      </trkpt>
      <trkpt lat="44.08016" lon="5.99463">
        <ele>476.2</ele>
        <time>2021-03-30T12:52:08.000Z</time>
      </trkpt>
      <trkpt lat="44.08016" lon="5.99467">
        <ele>476.4</ele>
        <time>2021-03-30T12:52:09.000Z</time>
      </trkpt>
      <trkpt lat="44.0802" lon="5.99473">
        <ele>476.6</ele>
        <time>2021-03-30T12:52:11.000Z</time>
      </trkpt>
      <trkpt lat="44.08022" lon="5.99476">
        <ele>476.8</ele>
        <time>2021-03-30T12:52:12.000Z</time>
      </trkpt>
      <trkpt lat="44.08024" lon="5.99479">
        <ele>476.8</ele>
        <time>2021-03-30T12:52:13.000Z</time>
      </trkpt>
      <trkpt lat="44.08028" lon="5.99485">
        <ele>477.2</ele>
        <time>2021-03-30T12:52:15.000Z</time>
      </trkpt>
      <trkpt lat="44.0803" lon="5.99488">
        <ele>477.4</ele>
        <time>2021-03-30T12:52:16.000Z</time>
      </trkpt>
      <trkpt lat="44.08034" lon="5.99495">
        <ele>477.8</ele>
        <time>2021-03-30T12:52:18.000Z</time>
      </trkpt>
      <trkpt lat="44.08036" lon="5.99498">
        <ele>478</ele>
        <time>2021-03-30T12:52:19.000Z</time>
      </trkpt>
      <trkpt lat="44.08038" lon="5.99501">
        <ele>478.2</ele>
        <time>2021-03-30T12:52:20.000Z</time>
      </trkpt>
      <trkpt lat="44.08042" lon="5.99507">
        <ele>478.6</ele>
        <time>2021-03-30T12:52:22.000Z</time>
      </trkpt>
      <trkpt lat="44.08044" lon="5.99511">
        <ele>478.8</ele>
        <time>2021-03-30T12:52:23.000Z</time>
      </trkpt>
      <trkpt lat="44.08046" lon="5.99514">
        <ele>479</ele>
        <time>2021-03-30T12:52:24.000Z</time>
      </trkpt>
      <trkpt lat="44.0805" lon="5.99521">
        <ele>479.4</ele>
        <time>2021-03-30T12:52:26.000Z</time>
      </trkpt>
      <trkpt lat="44.08052" lon="5.99525">
        <ele>479.6</ele>
        <time>2021-03-30T12:52:27.000Z</time>
      </trkpt>
      <trkpt lat="44.08056" lon="5.99532">
        <ele>479.8</ele>
        <time>2021-03-30T12:52:29.000Z</time>
      </trkpt>
      <trkpt lat="44.08058" lon="5.99535">
        <ele>480</ele>
        <time>2021-03-30T12:52:30.000Z</time>
      </trkpt>
      <trkpt lat="44.0806" lon="5.99539">
        <ele>480</ele>
        <time>2021-03-30T12:52:31.000Z</time>
      </trkpt>
      <trkpt lat="44.08062" lon="5.99545">
        <ele>480.2</ele>
        <time>2021-03-30T12:52:33.000Z</time>
      </trkpt>
      <trkpt lat="44.08063" lon="5.99548">
        <ele>480.2</ele>
        <time>2021-03-30T12:52:34.000Z</time>
      </trkpt>
      <trkpt lat="44.08064" lon="5.99551">
        <ele>480</ele>
        <time>2021-03-30T12:52:35.000Z</time>
      </trkpt>
      <trkpt lat="44.08065" lon="5.99556">
        <ele>479.6</ele>
        <time>2021-03-30T12:52:37.000Z</time>
      </trkpt>
      <trkpt lat="44.08065" lon="5.99558">
        <ele>479.2</ele>
        <time>2021-03-30T12:52:38.000Z</time>
      </trkpt>
      <trkpt lat="44.08066" lon="5.99559">
        <ele>479</ele>
        <time>2021-03-30T12:52:39.000Z</time>
      </trkpt>
      <trkpt lat="44.08067" lon="5.9956">
        <ele>478.6</ele>
        <time>2021-03-30T12:52:41.000Z</time>
      </trkpt>
      <trkpt lat="44.08067" lon="5.9956">
        <ele>478.4</ele>
        <time>2021-03-30T12:52:42.000Z</time>
      </trkpt>
      <trkpt lat="44.08067" lon="5.9956">
        <ele>478</ele>
        <time>2021-03-30T12:52:44.000Z</time>
      </trkpt>
      <trkpt lat="44.08067" lon="5.9956">
        <ele>477.8</ele>
        <time>2021-03-30T12:52:45.000Z</time>
      </trkpt>
      <trkpt lat="44.08067" lon="5.9956">
        <ele>477.6</ele>
        <time>2021-03-30T12:52:46.000Z</time>
      </trkpt>
      <trkpt lat="44.08067" lon="5.9956">
        <ele>477.2</ele>
        <time>2021-03-30T12:52:48.000Z</time>
      </trkpt>
      <trkpt lat="44.08067" lon="5.9956">
        <ele>477</ele>
        <time>2021-03-30T12:52:49.000Z</time>
      </trkpt>
      <trkpt lat="44.08067" lon="5.9956">
        <ele>476.8</ele>
        <time>2021-03-30T12:52:50.000Z</time>
      </trkpt>
      <trkpt lat="44.08067" lon="5.9956">
        <ele>476.6</ele>
        <time>2021-03-30T12:52:52.000Z</time>
      </trkpt>
      <trkpt lat="44.08067" lon="5.9956">
        <ele>476.4</ele>
        <time>2021-03-30T12:52:53.000Z</time>
      </trkpt>
      <trkpt lat="44.08067" lon="5.9956">
        <ele>476.2</ele>
        <time>2021-03-30T12:52:55.000Z</time>
      </trkpt>
      <trkpt lat="44.08067" lon="5.9956">
        <ele>476</ele>
        <time>2021-03-30T12:52:56.000Z</time>
      </trkpt>
      <trkpt lat="44.08067" lon="5.9956">
        <ele>476</ele>
        <time>2021-03-30T12:52:57.000Z</time>
      </trkpt>
      <trkpt lat="44.08067" lon="5.9956">
        <ele>475.6</ele>
        <time>2021-03-30T12:52:59.000Z</time>
      </trkpt>
      <trkpt lat="44.08067" lon="5.9956">
        <ele>475.6</ele>
        <time>2021-03-30T12:53:00.000Z</time>
      </trkpt>
      <trkpt lat="44.08067" lon="5.9956">
        <ele>475.4</ele>
        <time>2021-03-30T12:53:01.000Z</time>
      </trkpt>
      <trkpt lat="44.08067" lon="5.9956">
        <ele>475</ele>
        <time>2021-03-30T12:53:03.000Z</time>
      </trkpt>
      <trkpt lat="44.08067" lon="5.9956">
        <ele>475</ele>
        <time>2021-03-30T12:53:04.000Z</time>
      </trkpt>
      <trkpt lat="44.08067" lon="5.9956">
        <ele>474.6</ele>
        <time>2021-03-30T12:53:06.000Z</time>
      </trkpt>
      <trkpt lat="44.08067" lon="5.9956">
        <ele>474.6</ele>
        <time>2021-03-30T12:53:07.000Z</time>
      </trkpt>
      <trkpt lat="44.08067" lon="5.9956">
        <ele>474.4</ele>
        <time>2021-03-30T12:53:08.000Z</time>
      </trkpt>
      <trkpt lat="44.08067" lon="5.9956">
        <ele>474.2</ele>
        <time>2021-03-30T12:53:10.000Z</time>
      </trkpt>
      <trkpt lat="44.08067" lon="5.9956">
        <ele>474.2</ele>
        <time>2021-03-30T12:53:11.000Z</time>
      </trkpt>
      <trkpt lat="44.08067" lon="5.9956">
        <ele>474</ele>
        <time>2021-03-30T12:53:12.000Z</time>
      </trkpt>
      <trkpt lat="44.08067" lon="5.9956">
        <ele>474</ele>
        <time>2021-03-30T12:53:14.000Z</time>
      </trkpt>
      <trkpt lat="44.08067" lon="5.9956">
        <ele>474</ele>
        <time>2021-03-30T12:53:15.000Z</time>
      </trkpt>
      <trkpt lat="44.08067" lon="5.9956">
        <ele>474</ele>
        <time>2021-03-30T12:53:17.000Z</time>
      </trkpt>
      <trkpt lat="44.08067" lon="5.9956">
        <ele>474</ele>
        <time>2021-03-30T12:53:18.000Z</time>
      </trkpt>
      <trkpt lat="44.08067" lon="5.9956">
        <ele>474</ele>
        <time>2021-03-30T12:53:19.000Z</time>
      </trkpt>
      <trkpt lat="44.08067" lon="5.9956">
        <ele>473.8</ele>
        <time>2021-03-30T12:53:21.000Z</time>
      </trkpt>
      <trkpt lat="44.08067" lon="5.9956">
        <ele>473.8</ele>
        <time>2021-03-30T12:53:22.000Z</time>
      </trkpt>
      <trkpt lat="44.08067" lon="5.9956">
        <ele>473.8</ele>
        <time>2021-03-30T12:53:23.000Z</time>
      </trkpt>
      <trkpt lat="44.08067" lon="5.9956">
        <ele>473.8</ele>
        <time>2021-03-30T12:53:25.000Z</time>
      </trkpt>
      <trkpt lat="44.08067" lon="5.9956">
        <ele>473.8</ele>
        <time>2021-03-30T12:53:26.000Z</time>
      </trkpt>
      <trkpt lat="44.08067" lon="5.9956">
        <ele>473.8</ele>
        <time>2021-03-30T12:53:27.000Z</time>
      </trkpt>
      <trkpt lat="44.08067" lon="5.9956">
        <ele>473.8</ele>
        <time>2021-03-30T12:53:29.000Z</time>
      </trkpt>
      <trkpt lat="44.08067" lon="5.9956">
        <ele>473.8</ele>
        <time>2021-03-30T12:53:30.000Z</time>
      </trkpt>
      <trkpt lat="44.08067" lon="5.9956">
        <ele>473.8</ele>
        <time>2021-03-30T12:53:32.000Z</time>
      </trkpt>
      <trkpt lat="44.08067" lon="5.9956">
        <ele>474</ele>
        <time>2021-03-30T12:53:33.000Z</time>
      </trkpt>
      <trkpt lat="44.08067" lon="5.9956">
        <ele>474</ele>
        <time>2021-03-30T12:53:34.000Z</time>
      </trkpt>
      <trkpt lat="44.08067" lon="5.9956">
        <ele>474</ele>
        <time>2021-03-30T12:53:36.000Z</time>
      </trkpt>
      <trkpt lat="44.08067" lon="5.9956">
        <ele>474</ele>
        <time>2021-03-30T12:53:37.000Z</time>
      </trkpt>
      <trkpt lat="44.08067" lon="5.9956">
        <ele>474</ele>
        <time>2021-03-30T12:53:38.000Z</time>
      </trkpt>
      <trkpt lat="44.08067" lon="5.9956">
        <ele>474.2</ele>
        <time>2021-03-30T12:53:40.000Z</time>
      </trkpt>
      <trkpt lat="44.08067" lon="5.9956">
        <ele>474.2</ele>
        <time>2021-03-30T12:53:41.000Z</time>
      </trkpt>
      <trkpt lat="44.0807" lon="5.99561">
        <ele>474.2</ele>
        <time>2021-03-30T12:53:43.000Z</time>
      </trkpt>
      <trkpt lat="44.08072" lon="5.99562">
        <ele>474.2</ele>
        <time>2021-03-30T12:53:44.000Z</time>
      </trkpt>
      <trkpt lat="44.08074" lon="5.99562">
        <ele>474.4</ele>
        <time>2021-03-30T12:53:45.000Z</time>
      </trkpt>
      <trkpt lat="44.08078" lon="5.99562">
        <ele>474.2</ele>
        <time>2021-03-30T12:53:47.000Z</time>
      </trkpt>
      <trkpt lat="44.08081" lon="5.99562">
        <ele>474</ele>
        <time>2021-03-30T12:53:48.000Z</time>
      </trkpt>
      <trkpt lat="44.08083" lon="5.99562">
        <ele>474</ele>
        <time>2021-03-30T12:53:49.000Z</time>
      </trkpt>
      <trkpt lat="44.08088" lon="5.99564">
        <ele>474</ele>
        <time>2021-03-30T12:53:51.000Z</time>
      </trkpt>
      <trkpt lat="44.08091" lon="5.99565">
        <ele>474.2</ele>
        <time>2021-03-30T12:53:52.000Z</time>
      </trkpt>
      <trkpt lat="44.08096" lon="5.99568">
        <ele>474.6</ele>
        <time>2021-03-30T12:53:54.000Z</time>
      </trkpt>
      <trkpt lat="44.08098" lon="5.9957">
        <ele>474.8</ele>
        <time>2021-03-30T12:53:55.000Z</time>
      </trkpt>
      <trkpt lat="44.081" lon="5.99573">
        <ele>475.2</ele>
        <time>2021-03-30T12:53:56.000Z</time>
      </trkpt>
      <trkpt lat="44.08105" lon="5.99579">
        <ele>475.6</ele>
        <time>2021-03-30T12:53:58.000Z</time>
      </trkpt>
      <trkpt lat="44.08108" lon="5.99582">
        <ele>475.8</ele>
        <time>2021-03-30T12:53:59.000Z</time>
      </trkpt>
      <trkpt lat="44.0811" lon="5.99585">
        <ele>476</ele>
        <time>2021-03-30T12:54:00.000Z</time>
      </trkpt>
      <trkpt lat="44.08116" lon="5.99591">
        <ele>476.4</ele>
        <time>2021-03-30T12:54:02.000Z</time>
      </trkpt>
      <trkpt lat="44.08118" lon="5.99594">
        <ele>476.6</ele>
        <time>2021-03-30T12:54:03.000Z</time>
      </trkpt>
      <trkpt lat="44.08121" lon="5.99598">
        <ele>476.8</ele>
        <time>2021-03-30T12:54:04.000Z</time>
      </trkpt>
      <trkpt lat="44.08126" lon="5.99604">
        <ele>477.2</ele>
        <time>2021-03-30T12:54:06.000Z</time>
      </trkpt>
      <trkpt lat="44.08129" lon="5.99607">
        <ele>477.4</ele>
        <time>2021-03-30T12:54:07.000Z</time>
      </trkpt>
      <trkpt lat="44.08135" lon="5.99612">
        <ele>478</ele>
        <time>2021-03-30T12:54:09.000Z</time>
      </trkpt>
      <trkpt lat="44.08138" lon="5.99613">
        <ele>478.2</ele>
        <time>2021-03-30T12:54:10.000Z</time>
      </trkpt>
      <trkpt lat="44.08142" lon="5.99612">
        <ele>478.4</ele>
        <time>2021-03-30T12:54:11.000Z</time>
      </trkpt>
      <trkpt lat="44.08148" lon="5.99607">
        <ele>478.4</ele>
        <time>2021-03-30T12:54:13.000Z</time>
      </trkpt>
      <trkpt lat="44.08151" lon="5.99604">
        <ele>478.4</ele>
        <time>2021-03-30T12:54:14.000Z</time>
      </trkpt>
      <trkpt lat="44.08154" lon="5.99603">
        <ele>478.4</ele>
        <time>2021-03-30T12:54:15.000Z</time>
      </trkpt>
      <trkpt lat="44.08162" lon="5.99604">
        <ele>478.6</ele>
        <time>2021-03-30T12:54:17.000Z</time>
      </trkpt>
      <trkpt lat="44.08165" lon="5.99606">
        <ele>478.6</ele>
        <time>2021-03-30T12:54:18.000Z</time>
      </trkpt>
      <trkpt lat="44.08173" lon="5.9961">
        <ele>479.2</ele>
        <time>2021-03-30T12:54:20.000Z</time>
      </trkpt>
      <trkpt lat="44.08178" lon="5.99612">
        <ele>479.4</ele>
        <time>2021-03-30T12:54:21.000Z</time>
      </trkpt>
      <trkpt lat="44.08182" lon="5.99613">
        <ele>479.8</ele>
        <time>2021-03-30T12:54:22.000Z</time>
      </trkpt>
      <trkpt lat="44.08187" lon="5.99616">
        <ele>480.4</ele>
        <time>2021-03-30T12:54:24.000Z</time>
      </trkpt>
      <trkpt lat="44.08189" lon="5.99618">
        <ele>481</ele>
        <time>2021-03-30T12:54:25.000Z</time>
      </trkpt>
      <trkpt lat="44.08192" lon="5.99621">
        <ele>481.2</ele>
        <time>2021-03-30T12:54:26.000Z</time>
      </trkpt>
      <trkpt lat="44.08198" lon="5.99625">
        <ele>482</ele>
        <time>2021-03-30T12:54:28.000Z</time>
      </trkpt>
      <trkpt lat="44.08201" lon="5.99627">
        <ele>482.4</ele>
        <time>2021-03-30T12:54:29.000Z</time>
      </trkpt>
      <trkpt lat="44.08207" lon="5.99629">
        <ele>483.2</ele>
        <time>2021-03-30T12:54:31.000Z</time>
      </trkpt>
      <trkpt lat="44.0821" lon="5.99629">
        <ele>483.6</ele>
        <time>2021-03-30T12:54:32.000Z</time>
      </trkpt>
      <trkpt lat="44.08213" lon="5.99628">
        <ele>484</ele>
        <time>2021-03-30T12:54:33.000Z</time>
      </trkpt>
      <trkpt lat="44.08218" lon="5.99626">
        <ele>484.6</ele>
        <time>2021-03-30T12:54:35.000Z</time>
      </trkpt>
      <trkpt lat="44.08219" lon="5.99624">
        <ele>484.8</ele>
        <time>2021-03-30T12:54:36.000Z</time>
      </trkpt>
      <trkpt lat="44.08221" lon="5.99623">
        <ele>485</ele>
        <time>2021-03-30T12:54:37.000Z</time>
      </trkpt>
      <trkpt lat="44.08223" lon="5.99622">
        <ele>485.4</ele>
        <time>2021-03-30T12:54:39.000Z</time>
      </trkpt>
      <trkpt lat="44.08224" lon="5.99623">
        <ele>485.8</ele>
        <time>2021-03-30T12:54:40.000Z</time>
      </trkpt>
      <trkpt lat="44.08225" lon="5.99624">
        <ele>486</ele>
        <time>2021-03-30T12:54:41.000Z</time>
      </trkpt>
      <trkpt lat="44.08227" lon="5.9963">
        <ele>486.4</ele>
        <time>2021-03-30T12:54:43.000Z</time>
      </trkpt>
      <trkpt lat="44.08228" lon="5.99633">
        <ele>486.8</ele>
        <time>2021-03-30T12:54:44.000Z</time>
      </trkpt>
      <trkpt lat="44.08228" lon="5.9964">
        <ele>487.2</ele>
        <time>2021-03-30T12:54:46.000Z</time>
      </trkpt>
      <trkpt lat="44.08228" lon="5.99644">
        <ele>487.4</ele>
        <time>2021-03-30T12:54:47.000Z</time>
      </trkpt>
      <trkpt lat="44.08227" lon="5.99649">
        <ele>487.4</ele>
        <time>2021-03-30T12:54:48.000Z</time>
      </trkpt>
      <trkpt lat="44.08227" lon="5.99657">
        <ele>487.8</ele>
        <time>2021-03-30T12:54:50.000Z</time>
      </trkpt>
      <trkpt lat="44.08226" lon="5.99662">
        <ele>487.8</ele>
        <time>2021-03-30T12:54:51.000Z</time>
      </trkpt>
      <trkpt lat="44.08227" lon="5.99667">
        <ele>488</ele>
        <time>2021-03-30T12:54:52.000Z</time>
      </trkpt>
      <trkpt lat="44.08232" lon="5.99675">
        <ele>488.2</ele>
        <time>2021-03-30T12:54:54.000Z</time>
      </trkpt>
      <trkpt lat="44.08236" lon="5.99677">
        <ele>488.2</ele>
        <time>2021-03-30T12:54:55.000Z</time>
      </trkpt>
      <trkpt lat="44.0824" lon="5.99681">
        <ele>488.6</ele>
        <time>2021-03-30T12:54:57.000Z</time>
      </trkpt>
      <trkpt lat="44.08242" lon="5.99682">
        <ele>488.8</ele>
        <time>2021-03-30T12:54:58.000Z</time>
      </trkpt>
      <trkpt lat="44.08244" lon="5.99682">
        <ele>489</ele>
        <time>2021-03-30T12:54:59.000Z</time>
      </trkpt>
      <trkpt lat="44.08249" lon="5.99684">
        <ele>489.2</ele>
        <time>2021-03-30T12:55:01.000Z</time>
      </trkpt>
      <trkpt lat="44.0825" lon="5.99685">
        <ele>489.4</ele>
        <time>2021-03-30T12:55:02.000Z</time>
      </trkpt>
      <trkpt lat="44.08252" lon="5.99687">
        <ele>489.6</ele>
        <time>2021-03-30T12:55:03.000Z</time>
      </trkpt>
      <trkpt lat="44.08257" lon="5.99689">
        <ele>490.2</ele>
        <time>2021-03-30T12:55:05.000Z</time>
      </trkpt>
      <trkpt lat="44.0826" lon="5.9969">
        <ele>490.4</ele>
        <time>2021-03-30T12:55:06.000Z</time>
      </trkpt>
      <trkpt lat="44.08264" lon="5.99691">
        <ele>491</ele>
        <time>2021-03-30T12:55:08.000Z</time>
      </trkpt>
      <trkpt lat="44.08266" lon="5.99691">
        <ele>491.2</ele>
        <time>2021-03-30T12:55:09.000Z</time>
      </trkpt>
      <trkpt lat="44.08268" lon="5.99691">
        <ele>491.6</ele>
        <time>2021-03-30T12:55:10.000Z</time>
      </trkpt>
      <trkpt lat="44.08273" lon="5.99693">
        <ele>492</ele>
        <time>2021-03-30T12:55:12.000Z</time>
      </trkpt>
      <trkpt lat="44.08275" lon="5.99693">
        <ele>492.4</ele>
        <time>2021-03-30T12:55:13.000Z</time>
      </trkpt>
      <trkpt lat="44.08277" lon="5.99695">
        <ele>492.6</ele>
        <time>2021-03-30T12:55:14.000Z</time>
      </trkpt>
      <trkpt lat="44.08282" lon="5.99699">
        <ele>493.2</ele>
        <time>2021-03-30T12:55:16.000Z</time>
      </trkpt>
      <trkpt lat="44.08285" lon="5.99701">
        <ele>493.4</ele>
        <time>2021-03-30T12:55:17.000Z</time>
      </trkpt>
      <trkpt lat="44.08289" lon="5.99704">
        <ele>494</ele>
        <time>2021-03-30T12:55:19.000Z</time>
      </trkpt>
      <trkpt lat="44.08292" lon="5.99705">
        <ele>494.2</ele>
        <time>2021-03-30T12:55:20.000Z</time>
      </trkpt>
      <trkpt lat="44.08295" lon="5.99705">
        <ele>494.6</ele>
        <time>2021-03-30T12:55:21.000Z</time>
      </trkpt>
      <trkpt lat="44.083" lon="5.99703">
        <ele>495</ele>
        <time>2021-03-30T12:55:23.000Z</time>
      </trkpt>
      <trkpt lat="44.08303" lon="5.99702">
        <ele>495.4</ele>
        <time>2021-03-30T12:55:24.000Z</time>
      </trkpt>
      <trkpt lat="44.08307" lon="5.99701">
        <ele>495.6</ele>
        <time>2021-03-30T12:55:25.000Z</time>
      </trkpt>
      <trkpt lat="44.08312" lon="5.99701">
        <ele>496.2</ele>
        <time>2021-03-30T12:55:27.000Z</time>
      </trkpt>
      <trkpt lat="44.08315" lon="5.99701">
        <ele>496.4</ele>
        <time>2021-03-30T12:55:28.000Z</time>
      </trkpt>
      <trkpt lat="44.08318" lon="5.99701">
        <ele>496.8</ele>
        <time>2021-03-30T12:55:29.000Z</time>
      </trkpt>
      <trkpt lat="44.08323" lon="5.99701">
        <ele>497.2</ele>
        <time>2021-03-30T12:55:31.000Z</time>
      </trkpt>
      <trkpt lat="44.08326" lon="5.99701">
        <ele>497.6</ele>
        <time>2021-03-30T12:55:32.000Z</time>
      </trkpt>
      <trkpt lat="44.08332" lon="5.99703">
        <ele>498.2</ele>
        <time>2021-03-30T12:55:34.000Z</time>
      </trkpt>
      <trkpt lat="44.08335" lon="5.99703">
        <ele>498.4</ele>
        <time>2021-03-30T12:55:35.000Z</time>
      </trkpt>
      <trkpt lat="44.08337" lon="5.99703">
        <ele>498.6</ele>
        <time>2021-03-30T12:55:36.000Z</time>
      </trkpt>
      <trkpt lat="44.08343" lon="5.99701">
        <ele>499</ele>
        <time>2021-03-30T12:55:38.000Z</time>
      </trkpt>
      <trkpt lat="44.08345" lon="5.997">
        <ele>499</ele>
        <time>2021-03-30T12:55:39.000Z</time>
      </trkpt>
      <trkpt lat="44.08348" lon="5.99699">
        <ele>499.2</ele>
        <time>2021-03-30T12:55:40.000Z</time>
      </trkpt>
      <trkpt lat="44.08354" lon="5.99698">
        <ele>499.2</ele>
        <time>2021-03-30T12:55:42.000Z</time>
      </trkpt>
      <trkpt lat="44.08356" lon="5.99697">
        <ele>499.4</ele>
        <time>2021-03-30T12:55:43.000Z</time>
      </trkpt>
      <trkpt lat="44.08357" lon="5.99696">
        <ele>499.8</ele>
        <time>2021-03-30T12:55:45.000Z</time>
      </trkpt>
      <trkpt lat="44.08357" lon="5.99696">
        <ele>500</ele>
        <time>2021-03-30T12:55:46.000Z</time>
      </trkpt>
      <trkpt lat="44.08357" lon="5.99696">
        <ele>500.2</ele>
        <time>2021-03-30T12:55:47.000Z</time>
      </trkpt>
      <trkpt lat="44.08357" lon="5.99696">
        <ele>500.4</ele>
        <time>2021-03-30T12:55:49.000Z</time>
      </trkpt>
      <trkpt lat="44.08357" lon="5.99696">
        <ele>500.6</ele>
        <time>2021-03-30T12:55:50.000Z</time>
      </trkpt>
      <trkpt lat="44.08357" lon="5.99696">
        <ele>500.6</ele>
        <time>2021-03-30T12:55:51.000Z</time>
      </trkpt>
      <trkpt lat="44.08357" lon="5.99696">
        <ele>500.8</ele>
        <time>2021-03-30T12:55:53.000Z</time>
      </trkpt>
      <trkpt lat="44.08357" lon="5.99696">
        <ele>501</ele>
        <time>2021-03-30T12:55:54.000Z</time>
      </trkpt>
      <trkpt lat="44.08357" lon="5.99696">
        <ele>501.2</ele>
        <time>2021-03-30T12:55:56.000Z</time>
      </trkpt>
      <trkpt lat="44.08357" lon="5.99696">
        <ele>501.4</ele>
        <time>2021-03-30T12:55:57.000Z</time>
      </trkpt>
      <trkpt lat="44.08357" lon="5.99696">
        <ele>501.4</ele>
        <time>2021-03-30T12:55:58.000Z</time>
      </trkpt>
      <trkpt lat="44.08357" lon="5.99696">
        <ele>501.6</ele>
        <time>2021-03-30T12:56:00.000Z</time>
      </trkpt>
      <trkpt lat="44.08357" lon="5.99696">
        <ele>501.6</ele>
        <time>2021-03-30T12:56:01.000Z</time>
      </trkpt>
      <trkpt lat="44.08357" lon="5.99696">
        <ele>501.8</ele>
        <time>2021-03-30T12:56:02.000Z</time>
      </trkpt>
      <trkpt lat="44.08357" lon="5.99696">
        <ele>502</ele>
        <time>2021-03-30T12:56:04.000Z</time>
      </trkpt>
      <trkpt lat="44.08357" lon="5.99696">
        <ele>502.2</ele>
        <time>2021-03-30T12:56:05.000Z</time>
      </trkpt>
      <trkpt lat="44.08357" lon="5.99696">
        <ele>502.4</ele>
        <time>2021-03-30T12:56:06.000Z</time>
      </trkpt>
      <trkpt lat="44.08357" lon="5.99696">
        <ele>502.4</ele>
        <time>2021-03-30T12:56:08.000Z</time>
      </trkpt>
      <trkpt lat="44.08357" lon="5.99696">
        <ele>502.6</ele>
        <time>2021-03-30T12:56:09.000Z</time>
      </trkpt>
      <trkpt lat="44.08357" lon="5.99696">
        <ele>502.8</ele>
        <time>2021-03-30T12:56:11.000Z</time>
      </trkpt>
      <trkpt lat="44.08357" lon="5.99696">
        <ele>502.6</ele>
        <time>2021-03-30T12:56:12.000Z</time>
      </trkpt>
      <trkpt lat="44.08357" lon="5.99696">
        <ele>502.6</ele>
        <time>2021-03-30T12:56:13.000Z</time>
      </trkpt>
      <trkpt lat="44.08357" lon="5.99696">
        <ele>502.8</ele>
        <time>2021-03-30T12:56:15.000Z</time>
      </trkpt>
      <trkpt lat="44.08357" lon="5.99696">
        <ele>502.6</ele>
        <time>2021-03-30T12:56:16.000Z</time>
      </trkpt>
      <trkpt lat="44.08357" lon="5.99696">
        <ele>502.4</ele>
        <time>2021-03-30T12:56:17.000Z</time>
      </trkpt>
      <trkpt lat="44.08357" lon="5.99696">
        <ele>503.2</ele>
        <time>2021-03-30T12:56:19.000Z</time>
      </trkpt>
      <trkpt lat="44.08357" lon="5.99696">
        <ele>503.2</ele>
        <time>2021-03-30T12:56:20.000Z</time>
      </trkpt>
      <trkpt lat="44.08357" lon="5.99696">
        <ele>503.2</ele>
        <time>2021-03-30T12:56:22.000Z</time>
      </trkpt>
      <trkpt lat="44.08357" lon="5.99696">
        <ele>503.2</ele>
        <time>2021-03-30T12:56:23.000Z</time>
      </trkpt>
      <trkpt lat="44.08357" lon="5.99696">
        <ele>503.4</ele>
        <time>2021-03-30T12:56:24.000Z</time>
      </trkpt>
      <trkpt lat="44.08362" lon="5.99697">
        <ele>503.4</ele>
        <time>2021-03-30T12:56:26.000Z</time>
      </trkpt>
      <trkpt lat="44.08366" lon="5.99699">
        <ele>503.4</ele>
        <time>2021-03-30T12:56:27.000Z</time>
      </trkpt>
      <trkpt lat="44.08368" lon="5.99702">
        <ele>503.4</ele>
        <time>2021-03-30T12:56:28.000Z</time>
      </trkpt>
      <trkpt lat="44.08372" lon="5.99706">
        <ele>503.6</ele>
        <time>2021-03-30T12:56:30.000Z</time>
      </trkpt>
      <trkpt lat="44.08374" lon="5.99707">
        <ele>503.6</ele>
        <time>2021-03-30T12:56:31.000Z</time>
      </trkpt>
      <trkpt lat="44.08378" lon="5.99707">
        <ele>503.8</ele>
        <time>2021-03-30T12:56:33.000Z</time>
      </trkpt>
      <trkpt lat="44.0838" lon="5.99706">
        <ele>503.6</ele>
        <time>2021-03-30T12:56:34.000Z</time>
      </trkpt>
      <trkpt lat="44.08381" lon="5.99706">
        <ele>503.6</ele>
        <time>2021-03-30T12:56:35.000Z</time>
      </trkpt>
      <trkpt lat="44.08385" lon="5.99706">
        <ele>503.6</ele>
        <time>2021-03-30T12:56:37.000Z</time>
      </trkpt>
      <trkpt lat="44.08387" lon="5.99704">
        <ele>503.4</ele>
        <time>2021-03-30T12:56:38.000Z</time>
      </trkpt>
      <trkpt lat="44.08389" lon="5.99703">
        <ele>503.4</ele>
        <time>2021-03-30T12:56:39.000Z</time>
      </trkpt>
      <trkpt lat="44.08392" lon="5.99699">
        <ele>503.2</ele>
        <time>2021-03-30T12:56:41.000Z</time>
      </trkpt>
      <trkpt lat="44.08393" lon="5.99697">
        <ele>503.2</ele>
        <time>2021-03-30T12:56:42.000Z</time>
      </trkpt>
      <trkpt lat="44.08394" lon="5.99696">
        <ele>503.2</ele>
        <time>2021-03-30T12:56:43.000Z</time>
      </trkpt>
      <trkpt lat="44.08398" lon="5.99693">
        <ele>503</ele>
        <time>2021-03-30T12:56:45.000Z</time>
      </trkpt>
      <trkpt lat="44.084" lon="5.99692">
        <ele>502.8</ele>
        <time>2021-03-30T12:56:46.000Z</time>
      </trkpt>
      <trkpt lat="44.08404" lon="5.9969">
        <ele>502.6</ele>
        <time>2021-03-30T12:56:48.000Z</time>
      </trkpt>
      <trkpt lat="44.08406" lon="5.99688">
        <ele>502.6</ele>
        <time>2021-03-30T12:56:49.000Z</time>
      </trkpt>
      <trkpt lat="44.08408" lon="5.99686">
        <ele>502.6</ele>
        <time>2021-03-30T12:56:50.000Z</time>
      </trkpt>
      <trkpt lat="44.08411" lon="5.99682">
        <ele>502.8</ele>
        <time>2021-03-30T12:56:52.000Z</time>
      </trkpt>
      <trkpt lat="44.08412" lon="5.99681">
        <ele>503</ele>
        <time>2021-03-30T12:56:53.000Z</time>
      </trkpt>
      <trkpt lat="44.08414" lon="5.9968">
        <ele>503.2</ele>
        <time>2021-03-30T12:56:54.000Z</time>
      </trkpt>
      <trkpt lat="44.08417" lon="5.99679">
        <ele>503.6</ele>
        <time>2021-03-30T12:56:56.000Z</time>
      </trkpt>
      <trkpt lat="44.08419" lon="5.99679">
        <ele>503.8</ele>
        <time>2021-03-30T12:56:57.000Z</time>
      </trkpt>
      <trkpt lat="44.08424" lon="5.99678">
        <ele>504.4</ele>
        <time>2021-03-30T12:56:59.000Z</time>
      </trkpt>
      <trkpt lat="44.08425" lon="5.99676">
        <ele>504.6</ele>
        <time>2021-03-30T12:57:00.000Z</time>
      </trkpt>
      <trkpt lat="44.08427" lon="5.99675">
        <ele>504.8</ele>
        <time>2021-03-30T12:57:01.000Z</time>
      </trkpt>
      <trkpt lat="44.08431" lon="5.99673">
        <ele>505.2</ele>
        <time>2021-03-30T12:57:03.000Z</time>
      </trkpt>
      <trkpt lat="44.08432" lon="5.99672">
        <ele>505.2</ele>
        <time>2021-03-30T12:57:04.000Z</time>
      </trkpt>
      <trkpt lat="44.08434" lon="5.9967">
        <ele>505.4</ele>
        <time>2021-03-30T12:57:05.000Z</time>
      </trkpt>
      <trkpt lat="44.08438" lon="5.99667">
        <ele>505.6</ele>
        <time>2021-03-30T12:57:07.000Z</time>
      </trkpt>
      <trkpt lat="44.08439" lon="5.99667">
        <ele>505.8</ele>
        <time>2021-03-30T12:57:08.000Z</time>
      </trkpt>
      <trkpt lat="44.08441" lon="5.99667">
        <ele>506.4</ele>
        <time>2021-03-30T12:57:10.000Z</time>
      </trkpt>
      <trkpt lat="44.08441" lon="5.99667">
        <ele>506.6</ele>
        <time>2021-03-30T12:57:11.000Z</time>
      </trkpt>
      <trkpt lat="44.08441" lon="5.99667">
        <ele>506.8</ele>
        <time>2021-03-30T12:57:12.000Z</time>
      </trkpt>
      <trkpt lat="44.08441" lon="5.99667">
        <ele>507.4</ele>
        <time>2021-03-30T12:57:14.000Z</time>
      </trkpt>
      <trkpt lat="44.08441" lon="5.99667">
        <ele>507.6</ele>
        <time>2021-03-30T12:57:15.000Z</time>
      </trkpt>
      <trkpt lat="44.08441" lon="5.99667">
        <ele>507.8</ele>
        <time>2021-03-30T12:57:16.000Z</time>
      </trkpt>
      <trkpt lat="44.08441" lon="5.99667">
        <ele>508.2</ele>
        <time>2021-03-30T12:57:18.000Z</time>
      </trkpt>
      <trkpt lat="44.08441" lon="5.99667">
        <ele>508.6</ele>
        <time>2021-03-30T12:57:19.000Z</time>
      </trkpt>
      <trkpt lat="44.08441" lon="5.99667">
        <ele>509</ele>
        <time>2021-03-30T12:57:21.000Z</time>
      </trkpt>
      <trkpt lat="44.08441" lon="5.99667">
        <ele>509.2</ele>
        <time>2021-03-30T12:57:22.000Z</time>
      </trkpt>
      <trkpt lat="44.08441" lon="5.99667">
        <ele>509.6</ele>
        <time>2021-03-30T12:57:23.000Z</time>
      </trkpt>
      <trkpt lat="44.08441" lon="5.99667">
        <ele>510.2</ele>
        <time>2021-03-30T12:57:25.000Z</time>
      </trkpt>
      <trkpt lat="44.08441" lon="5.99667">
        <ele>510.4</ele>
        <time>2021-03-30T12:57:26.000Z</time>
      </trkpt>
      <trkpt lat="44.08441" lon="5.99667">
        <ele>510.6</ele>
        <time>2021-03-30T12:57:27.000Z</time>
      </trkpt>
      <trkpt lat="44.08446" lon="5.99657">
        <ele>511.2</ele>
        <time>2021-03-30T12:57:29.000Z</time>
      </trkpt>
      <trkpt lat="44.08445" lon="5.99655">
        <ele>511.6</ele>
        <time>2021-03-30T12:57:30.000Z</time>
      </trkpt>
      <trkpt lat="44.08444" lon="5.99653">
        <ele>512</ele>
        <time>2021-03-30T12:57:31.000Z</time>
      </trkpt>
      <trkpt lat="44.08443" lon="5.9965">
        <ele>512.6</ele>
        <time>2021-03-30T12:57:33.000Z</time>
      </trkpt>
      <trkpt lat="44.08442" lon="5.99648">
        <ele>513</ele>
        <time>2021-03-30T12:57:34.000Z</time>
      </trkpt>
      <trkpt lat="44.08444" lon="5.99643">
        <ele>513.8</ele>
        <time>2021-03-30T12:57:36.000Z</time>
      </trkpt>
      <trkpt lat="44.08445" lon="5.99642">
        <ele>514.2</ele>
        <time>2021-03-30T12:57:37.000Z</time>
      </trkpt>
      <trkpt lat="44.08448" lon="5.99642">
        <ele>514.4</ele>
        <time>2021-03-30T12:57:38.000Z</time>
      </trkpt>
      <trkpt lat="44.08452" lon="5.99639">
        <ele>515</ele>
        <time>2021-03-30T12:57:40.000Z</time>
      </trkpt>
      <trkpt lat="44.08454" lon="5.99637">
        <ele>515.4</ele>
        <time>2021-03-30T12:57:41.000Z</time>
      </trkpt>
      <trkpt lat="44.08456" lon="5.99636">
        <ele>515.6</ele>
        <time>2021-03-30T12:57:42.000Z</time>
      </trkpt>
      <trkpt lat="44.08461" lon="5.99632">
        <ele>516</ele>
        <time>2021-03-30T12:57:44.000Z</time>
      </trkpt>
      <trkpt lat="44.08463" lon="5.99629">
        <ele>516</ele>
        <time>2021-03-30T12:57:45.000Z</time>
      </trkpt>
      <trkpt lat="44.08467" lon="5.99624">
        <ele>516</ele>
        <time>2021-03-30T12:57:47.000Z</time>
      </trkpt>
      <trkpt lat="44.08469" lon="5.99622">
        <ele>516</ele>
        <time>2021-03-30T12:57:48.000Z</time>
      </trkpt>
      <trkpt lat="44.08471" lon="5.9962">
        <ele>516.2</ele>
        <time>2021-03-30T12:57:49.000Z</time>
      </trkpt>
      <trkpt lat="44.08476" lon="5.99618">
        <ele>516.4</ele>
        <time>2021-03-30T12:57:51.000Z</time>
      </trkpt>
      <trkpt lat="44.08479" lon="5.99617">
        <ele>516.6</ele>
        <time>2021-03-30T12:57:52.000Z</time>
      </trkpt>
      <trkpt lat="44.08482" lon="5.99616">
        <ele>516.8</ele>
        <time>2021-03-30T12:57:53.000Z</time>
      </trkpt>
      <trkpt lat="44.08486" lon="5.99615">
        <ele>517.2</ele>
        <time>2021-03-30T12:57:55.000Z</time>
      </trkpt>
      <trkpt lat="44.08489" lon="5.99614">
        <ele>517.4</ele>
        <time>2021-03-30T12:57:56.000Z</time>
      </trkpt>
      <trkpt lat="44.08494" lon="5.9961">
        <ele>517.8</ele>
        <time>2021-03-30T12:57:58.000Z</time>
      </trkpt>
      <trkpt lat="44.08496" lon="5.99609">
        <ele>517.8</ele>
        <time>2021-03-30T12:57:59.000Z</time>
      </trkpt>
      <trkpt lat="44.08498" lon="5.99608">
        <ele>517.8</ele>
        <time>2021-03-30T12:58:00.000Z</time>
      </trkpt>
      <trkpt lat="44.08504" lon="5.99607">
        <ele>517.8</ele>
        <time>2021-03-30T12:58:02.000Z</time>
      </trkpt>
      <trkpt lat="44.08507" lon="5.99607">
        <ele>517.8</ele>
        <time>2021-03-30T12:58:03.000Z</time>
      </trkpt>
      <trkpt lat="44.08509" lon="5.99607">
        <ele>517.8</ele>
        <time>2021-03-30T12:58:04.000Z</time>
      </trkpt>
      <trkpt lat="44.08514" lon="5.99606">
        <ele>518.2</ele>
        <time>2021-03-30T12:58:06.000Z</time>
      </trkpt>
      <trkpt lat="44.08517" lon="5.99607">
        <ele>518.4</ele>
        <time>2021-03-30T12:58:07.000Z</time>
      </trkpt>
      <trkpt lat="44.08519" lon="5.99607">
        <ele>518.6</ele>
        <time>2021-03-30T12:58:08.000Z</time>
      </trkpt>
      <trkpt lat="44.08524" lon="5.99608">
        <ele>519</ele>
        <time>2021-03-30T12:58:10.000Z</time>
      </trkpt>
      <trkpt lat="44.08527" lon="5.99608">
        <ele>519.2</ele>
        <time>2021-03-30T12:58:11.000Z</time>
      </trkpt>
      <trkpt lat="44.08531" lon="5.99608">
        <ele>519.4</ele>
        <time>2021-03-30T12:58:13.000Z</time>
      </trkpt>
      <trkpt lat="44.08534" lon="5.99608">
        <ele>519.8</ele>
        <time>2021-03-30T12:58:14.000Z</time>
      </trkpt>
      <trkpt lat="44.08537" lon="5.99608">
        <ele>520</ele>
        <time>2021-03-30T12:58:15.000Z</time>
      </trkpt>
      <trkpt lat="44.08542" lon="5.99607">
        <ele>520.8</ele>
        <time>2021-03-30T12:58:17.000Z</time>
      </trkpt>
      <trkpt lat="44.08545" lon="5.99608">
        <ele>521</ele>
        <time>2021-03-30T12:58:18.000Z</time>
      </trkpt>
      <trkpt lat="44.08547" lon="5.99609">
        <ele>521.4</ele>
        <time>2021-03-30T12:58:19.000Z</time>
      </trkpt>
      <trkpt lat="44.08551" lon="5.99611">
        <ele>522.4</ele>
        <time>2021-03-30T12:58:21.000Z</time>
      </trkpt>
      <trkpt lat="44.08553" lon="5.99611">
        <ele>522.8</ele>
        <time>2021-03-30T12:58:22.000Z</time>
      </trkpt>
      <trkpt lat="44.08556" lon="5.99609">
        <ele>523.2</ele>
        <time>2021-03-30T12:58:24.000Z</time>
      </trkpt>
      <trkpt lat="44.08558" lon="5.99609">
        <ele>523.4</ele>
        <time>2021-03-30T12:58:25.000Z</time>
      </trkpt>
      <trkpt lat="44.08559" lon="5.99608">
        <ele>523.6</ele>
        <time>2021-03-30T12:58:26.000Z</time>
      </trkpt>
      <trkpt lat="44.0856" lon="5.99603">
        <ele>524</ele>
        <time>2021-03-30T12:58:28.000Z</time>
      </trkpt>
      <trkpt lat="44.0856" lon="5.99599">
        <ele>524</ele>
        <time>2021-03-30T12:58:29.000Z</time>
      </trkpt>
      <trkpt lat="44.08561" lon="5.99593">
        <ele>524.2</ele>
        <time>2021-03-30T12:58:30.000Z</time>
      </trkpt>
      <trkpt lat="44.08571" lon="5.9958">
        <ele>526</ele>
        <time>2021-03-30T12:58:47.000Z</time>
      </trkpt>
      <trkpt lat="44.08573" lon="5.99581">
        <ele>526.4</ele>
        <time>2021-03-30T12:58:48.000Z</time>
      </trkpt>
      <trkpt lat="44.08577" lon="5.99584">
        <ele>526.8</ele>
        <time>2021-03-30T12:58:50.000Z</time>
      </trkpt>
      <trkpt lat="44.0858" lon="5.99585">
        <ele>527</ele>
        <time>2021-03-30T12:58:51.000Z</time>
      </trkpt>
      <trkpt lat="44.08582" lon="5.99586">
        <ele>527.4</ele>
        <time>2021-03-30T12:58:52.000Z</time>
      </trkpt>
      <trkpt lat="44.08586" lon="5.99588">
        <ele>527.8</ele>
        <time>2021-03-30T12:58:54.000Z</time>
      </trkpt>
      <trkpt lat="44.08587" lon="5.99589">
        <ele>528</ele>
        <time>2021-03-30T12:58:55.000Z</time>
      </trkpt>
      <trkpt lat="44.08589" lon="5.99591">
        <ele>528.4</ele>
        <time>2021-03-30T12:58:56.000Z</time>
      </trkpt>
      <trkpt lat="44.08592" lon="5.99596">
        <ele>528.6</ele>
        <time>2021-03-30T12:58:58.000Z</time>
      </trkpt>
      <trkpt lat="44.08593" lon="5.99599">
        <ele>528.8</ele>
        <time>2021-03-30T12:58:59.000Z</time>
      </trkpt>
      <trkpt lat="44.08594" lon="5.996">
        <ele>529</ele>
        <time>2021-03-30T12:59:00.000Z</time>
      </trkpt>
      <trkpt lat="44.08598" lon="5.99602">
        <ele>529.6</ele>
        <time>2021-03-30T12:59:02.000Z</time>
      </trkpt>
      <trkpt lat="44.08599" lon="5.99601">
        <ele>529.8</ele>
        <time>2021-03-30T12:59:03.000Z</time>
      </trkpt>
      <trkpt lat="44.08602" lon="5.99598">
        <ele>530.4</ele>
        <time>2021-03-30T12:59:05.000Z</time>
      </trkpt>
      <trkpt lat="44.08603" lon="5.99596">
        <ele>530.6</ele>
        <time>2021-03-30T12:59:06.000Z</time>
      </trkpt>
      <trkpt lat="44.08604" lon="5.99593">
        <ele>530.8</ele>
        <time>2021-03-30T12:59:07.000Z</time>
      </trkpt>
      <trkpt lat="44.08608" lon="5.99586">
        <ele>531</ele>
        <time>2021-03-30T12:59:09.000Z</time>
      </trkpt>
      <trkpt lat="44.0861" lon="5.99582">
        <ele>531</ele>
        <time>2021-03-30T12:59:10.000Z</time>
      </trkpt>
      <trkpt lat="44.08613" lon="5.99579">
        <ele>531.2</ele>
        <time>2021-03-30T12:59:11.000Z</time>
      </trkpt>
      <trkpt lat="44.0862" lon="5.99573">
        <ele>531.4</ele>
        <time>2021-03-30T12:59:13.000Z</time>
      </trkpt>
      <trkpt lat="44.08624" lon="5.99572">
        <ele>531.4</ele>
        <time>2021-03-30T12:59:14.000Z</time>
      </trkpt>
      <trkpt lat="44.0863" lon="5.99569">
        <ele>531.4</ele>
        <time>2021-03-30T12:59:16.000Z</time>
      </trkpt>
      <trkpt lat="44.08633" lon="5.99567">
        <ele>531.4</ele>
        <time>2021-03-30T12:59:17.000Z</time>
      </trkpt>
      <trkpt lat="44.08635" lon="5.99566">
        <ele>531.4</ele>
        <time>2021-03-30T12:59:18.000Z</time>
      </trkpt>
      <trkpt lat="44.0864" lon="5.99564">
        <ele>531.4</ele>
        <time>2021-03-30T12:59:20.000Z</time>
      </trkpt>
      <trkpt lat="44.08643" lon="5.99563">
        <ele>531.4</ele>
        <time>2021-03-30T12:59:21.000Z</time>
      </trkpt>
      <trkpt lat="44.08645" lon="5.99562">
        <ele>531.2</ele>
        <time>2021-03-30T12:59:22.000Z</time>
      </trkpt>
      <trkpt lat="44.08649" lon="5.9956">
        <ele>531</ele>
        <time>2021-03-30T12:59:24.000Z</time>
      </trkpt>
      <trkpt lat="44.08652" lon="5.99559">
        <ele>531</ele>
        <time>2021-03-30T12:59:25.000Z</time>
      </trkpt>
      <trkpt lat="44.08657" lon="5.99559">
        <ele>531.2</ele>
        <time>2021-03-30T12:59:27.000Z</time>
      </trkpt>
      <trkpt lat="44.08659" lon="5.99559">
        <ele>531.4</ele>
        <time>2021-03-30T12:59:28.000Z</time>
      </trkpt>
      <trkpt lat="44.08661" lon="5.9956">
        <ele>531.4</ele>
        <time>2021-03-30T12:59:29.000Z</time>
      </trkpt>
      <trkpt lat="44.08665" lon="5.9956">
        <ele>531.8</ele>
        <time>2021-03-30T12:59:31.000Z</time>
      </trkpt>
      <trkpt lat="44.08667" lon="5.9956">
        <ele>532.2</ele>
        <time>2021-03-30T12:59:32.000Z</time>
      </trkpt>
      <trkpt lat="44.08669" lon="5.99559">
        <ele>532.4</ele>
        <time>2021-03-30T12:59:33.000Z</time>
      </trkpt>
      <trkpt lat="44.08673" lon="5.99557">
        <ele>532.6</ele>
        <time>2021-03-30T12:59:35.000Z</time>
      </trkpt>
      <trkpt lat="44.08675" lon="5.99556">
        <ele>532.8</ele>
        <time>2021-03-30T12:59:36.000Z</time>
      </trkpt>
      <trkpt lat="44.08679" lon="5.99557">
        <ele>533</ele>
        <time>2021-03-30T12:59:38.000Z</time>
      </trkpt>
      <trkpt lat="44.08681" lon="5.99557">
        <ele>533.2</ele>
        <time>2021-03-30T12:59:39.000Z</time>
      </trkpt>
      <trkpt lat="44.08683" lon="5.99557">
        <ele>533.4</ele>
        <time>2021-03-30T12:59:40.000Z</time>
      </trkpt>
      <trkpt lat="44.08687" lon="5.99557">
        <ele>533.8</ele>
        <time>2021-03-30T12:59:42.000Z</time>
      </trkpt>
      <trkpt lat="44.08689" lon="5.99556">
        <ele>534</ele>
        <time>2021-03-30T12:59:43.000Z</time>
      </trkpt>
      <trkpt lat="44.08691" lon="5.99555">
        <ele>534.2</ele>
        <time>2021-03-30T12:59:44.000Z</time>
      </trkpt>
      <trkpt lat="44.08694" lon="5.99554">
        <ele>534.6</ele>
        <time>2021-03-30T12:59:46.000Z</time>
      </trkpt>
      <trkpt lat="44.08695" lon="5.99554">
        <ele>534.8</ele>
        <time>2021-03-30T12:59:47.000Z</time>
      </trkpt>
      <trkpt lat="44.08697" lon="5.99555">
        <ele>535.2</ele>
        <time>2021-03-30T12:59:48.000Z</time>
      </trkpt>
      <trkpt lat="44.087" lon="5.99557">
        <ele>535.8</ele>
        <time>2021-03-30T12:59:50.000Z</time>
      </trkpt>
      <trkpt lat="44.08701" lon="5.99558">
        <ele>536</ele>
        <time>2021-03-30T12:59:51.000Z</time>
      </trkpt>
      <trkpt lat="44.08705" lon="5.9956">
        <ele>536.8</ele>
        <time>2021-03-30T12:59:53.000Z</time>
      </trkpt>
      <trkpt lat="44.08707" lon="5.99561">
        <ele>537</ele>
        <time>2021-03-30T12:59:54.000Z</time>
      </trkpt>
      <trkpt lat="44.08709" lon="5.99562">
        <ele>537.4</ele>
        <time>2021-03-30T12:59:55.000Z</time>
      </trkpt>
      <trkpt lat="44.08714" lon="5.99563">
        <ele>538</ele>
        <time>2021-03-30T12:59:57.000Z</time>
      </trkpt>
      <trkpt lat="44.08715" lon="5.99563">
        <ele>538.2</ele>
        <time>2021-03-30T12:59:58.000Z</time>
      </trkpt>
      <trkpt lat="44.08717" lon="5.99563">
        <ele>538.6</ele>
        <time>2021-03-30T12:59:59.000Z</time>
      </trkpt>
      <trkpt lat="44.08721" lon="5.99563">
        <ele>539</ele>
        <time>2021-03-30T13:00:01.000Z</time>
      </trkpt>
      <trkpt lat="44.08723" lon="5.99563">
        <ele>539</ele>
        <time>2021-03-30T13:00:02.000Z</time>
      </trkpt>
      <trkpt lat="44.08727" lon="5.99562">
        <ele>539.2</ele>
        <time>2021-03-30T13:00:04.000Z</time>
      </trkpt>
      <trkpt lat="44.08728" lon="5.99561">
        <ele>539.4</ele>
        <time>2021-03-30T13:00:05.000Z</time>
      </trkpt>
      <trkpt lat="44.0873" lon="5.9956">
        <ele>539.6</ele>
        <time>2021-03-30T13:00:06.000Z</time>
      </trkpt>
      <trkpt lat="44.08733" lon="5.99559">
        <ele>540</ele>
        <time>2021-03-30T13:00:08.000Z</time>
      </trkpt>
      <trkpt lat="44.08735" lon="5.99559">
        <ele>540</ele>
        <time>2021-03-30T13:00:09.000Z</time>
      </trkpt>
      <trkpt lat="44.08737" lon="5.99558">
        <ele>540.2</ele>
        <time>2021-03-30T13:00:10.000Z</time>
      </trkpt>
      <trkpt lat="44.0874" lon="5.99554">
        <ele>540.8</ele>
        <time>2021-03-30T13:00:12.000Z</time>
      </trkpt>
      <trkpt lat="44.08741" lon="5.99552">
        <ele>541</ele>
        <time>2021-03-30T13:00:13.000Z</time>
      </trkpt>
      <trkpt lat="44.08744" lon="5.99549">
        <ele>541.8</ele>
        <time>2021-03-30T13:00:15.000Z</time>
      </trkpt>
      <trkpt lat="44.08745" lon="5.99547">
        <ele>542</ele>
        <time>2021-03-30T13:00:16.000Z</time>
      </trkpt>
      <trkpt lat="44.08747" lon="5.99547">
        <ele>542.4</ele>
        <time>2021-03-30T13:00:17.000Z</time>
      </trkpt>
      <trkpt lat="44.08751" lon="5.99547">
        <ele>543.2</ele>
        <time>2021-03-30T13:00:19.000Z</time>
      </trkpt>
      <trkpt lat="44.08752" lon="5.99548">
        <ele>543.8</ele>
        <time>2021-03-30T13:00:20.000Z</time>
      </trkpt>
      <trkpt lat="44.08754" lon="5.99549">
        <ele>544.2</ele>
        <time>2021-03-30T13:00:21.000Z</time>
      </trkpt>
      <trkpt lat="44.08757" lon="5.99549">
        <ele>545.2</ele>
        <time>2021-03-30T13:00:23.000Z</time>
      </trkpt>
      <trkpt lat="44.08759" lon="5.99549">
        <ele>545.6</ele>
        <time>2021-03-30T13:00:24.000Z</time>
      </trkpt>
      <trkpt lat="44.08761" lon="5.9955">
        <ele>546</ele>
        <time>2021-03-30T13:00:25.000Z</time>
      </trkpt>
      <trkpt lat="44.08766" lon="5.99551">
        <ele>547</ele>
        <time>2021-03-30T13:00:27.000Z</time>
      </trkpt>
      <trkpt lat="44.08768" lon="5.99552">
        <ele>547.6</ele>
        <time>2021-03-30T13:00:28.000Z</time>
      </trkpt>
      <trkpt lat="44.08772" lon="5.99555">
        <ele>548.6</ele>
        <time>2021-03-30T13:00:30.000Z</time>
      </trkpt>
      <trkpt lat="44.08773" lon="5.99556">
        <ele>549</ele>
        <time>2021-03-30T13:00:31.000Z</time>
      </trkpt>
      <trkpt lat="44.08774" lon="5.99557">
        <ele>549.4</ele>
        <time>2021-03-30T13:00:32.000Z</time>
      </trkpt>
      <trkpt lat="44.08777" lon="5.99559">
        <ele>550.4</ele>
        <time>2021-03-30T13:00:34.000Z</time>
      </trkpt>
      <trkpt lat="44.08778" lon="5.99558">
        <ele>550.8</ele>
        <time>2021-03-30T13:00:35.000Z</time>
      </trkpt>
      <trkpt lat="44.0878" lon="5.99557">
        <ele>551.2</ele>
        <time>2021-03-30T13:00:36.000Z</time>
      </trkpt>
      <trkpt lat="44.08784" lon="5.99555">
        <ele>551.8</ele>
        <time>2021-03-30T13:00:38.000Z</time>
      </trkpt>
      <trkpt lat="44.08786" lon="5.99554">
        <ele>552</ele>
        <time>2021-03-30T13:00:39.000Z</time>
      </trkpt>
      <trkpt lat="44.08793" lon="5.99552">
        <ele>552.6</ele>
        <time>2021-03-30T13:00:41.000Z</time>
      </trkpt>
      <trkpt lat="44.08796" lon="5.99552">
        <ele>553</ele>
        <time>2021-03-30T13:00:42.000Z</time>
      </trkpt>
      <trkpt lat="44.08799" lon="5.99552">
        <ele>553.2</ele>
        <time>2021-03-30T13:00:43.000Z</time>
      </trkpt>
      <trkpt lat="44.08803" lon="5.9955">
        <ele>553.8</ele>
        <time>2021-03-30T13:00:45.000Z</time>
      </trkpt>
      <trkpt lat="44.08806" lon="5.99549">
        <ele>554.2</ele>
        <time>2021-03-30T13:00:46.000Z</time>
      </trkpt>
      <trkpt lat="44.08809" lon="5.99549">
        <ele>554.4</ele>
        <time>2021-03-30T13:00:47.000Z</time>
      </trkpt>
      <trkpt lat="44.08816" lon="5.99551">
        <ele>554.8</ele>
        <time>2021-03-30T13:00:49.000Z</time>
      </trkpt>
      <trkpt lat="44.08818" lon="5.99552">
        <ele>555.2</ele>
        <time>2021-03-30T13:00:50.000Z</time>
      </trkpt>
      <trkpt lat="44.08824" lon="5.99554">
        <ele>556</ele>
        <time>2021-03-30T13:00:52.000Z</time>
      </trkpt>
      <trkpt lat="44.08826" lon="5.99555">
        <ele>556.4</ele>
        <time>2021-03-30T13:00:53.000Z</time>
      </trkpt>
      <trkpt lat="44.08828" lon="5.99556">
        <ele>556.8</ele>
        <time>2021-03-30T13:00:54.000Z</time>
      </trkpt>
      <trkpt lat="44.08833" lon="5.99556">
        <ele>557.6</ele>
        <time>2021-03-30T13:00:56.000Z</time>
      </trkpt>
      <trkpt lat="44.08836" lon="5.99556">
        <ele>558</ele>
        <time>2021-03-30T13:00:57.000Z</time>
      </trkpt>
      <trkpt lat="44.08839" lon="5.99557">
        <ele>558.2</ele>
        <time>2021-03-30T13:00:58.000Z</time>
      </trkpt>
      <trkpt lat="44.08845" lon="5.99557">
        <ele>559</ele>
        <time>2021-03-30T13:01:00.000Z</time>
      </trkpt>
      <trkpt lat="44.08848" lon="5.99558">
        <ele>559.2</ele>
        <time>2021-03-30T13:01:01.000Z</time>
      </trkpt>
      <trkpt lat="44.08851" lon="5.99558">
        <ele>559.6</ele>
        <time>2021-03-30T13:01:02.000Z</time>
      </trkpt>
      <trkpt lat="44.08854" lon="5.99561">
        <ele>560.2</ele>
        <time>2021-03-30T13:01:04.000Z</time>
      </trkpt>
      <trkpt lat="44.08856" lon="5.99562">
        <ele>560.6</ele>
        <time>2021-03-30T13:01:05.000Z</time>
      </trkpt>
      <trkpt lat="44.0886" lon="5.99564">
        <ele>561.4</ele>
        <time>2021-03-30T13:01:07.000Z</time>
      </trkpt>
      <trkpt lat="44.08862" lon="5.99565">
        <ele>561.6</ele>
        <time>2021-03-30T13:01:08.000Z</time>
      </trkpt>
      <trkpt lat="44.08865" lon="5.99566">
        <ele>562</ele>
        <time>2021-03-30T13:01:09.000Z</time>
      </trkpt>
      <trkpt lat="44.08871" lon="5.99568">
        <ele>562.6</ele>
        <time>2021-03-30T13:01:11.000Z</time>
      </trkpt>
      <trkpt lat="44.08873" lon="5.99569">
        <ele>563</ele>
        <time>2021-03-30T13:01:12.000Z</time>
      </trkpt>
      <trkpt lat="44.08876" lon="5.9957">
        <ele>563.2</ele>
        <time>2021-03-30T13:01:13.000Z</time>
      </trkpt>
      <trkpt lat="44.08881" lon="5.99573">
        <ele>563.8</ele>
        <time>2021-03-30T13:01:15.000Z</time>
      </trkpt>
      <trkpt lat="44.08883" lon="5.99574">
        <ele>564.2</ele>
        <time>2021-03-30T13:01:16.000Z</time>
      </trkpt>
      <trkpt lat="44.08887" lon="5.99575">
        <ele>564.8</ele>
        <time>2021-03-30T13:01:18.000Z</time>
      </trkpt>
      <trkpt lat="44.08889" lon="5.99575">
        <ele>565</ele>
        <time>2021-03-30T13:01:19.000Z</time>
      </trkpt>
      <trkpt lat="44.08891" lon="5.99576">
        <ele>565.4</ele>
        <time>2021-03-30T13:01:20.000Z</time>
      </trkpt>
      <trkpt lat="44.08895" lon="5.99576">
        <ele>566</ele>
        <time>2021-03-30T13:01:22.000Z</time>
      </trkpt>
      <trkpt lat="44.08897" lon="5.99577">
        <ele>566.2</ele>
        <time>2021-03-30T13:01:23.000Z</time>
      </trkpt>
      <trkpt lat="44.08899" lon="5.99578">
        <ele>566.6</ele>
        <time>2021-03-30T13:01:24.000Z</time>
      </trkpt>
      <trkpt lat="44.08902" lon="5.9958">
        <ele>567.2</ele>
        <time>2021-03-30T13:01:26.000Z</time>
      </trkpt>
      <trkpt lat="44.08904" lon="5.9958">
        <ele>567.6</ele>
        <time>2021-03-30T13:01:27.000Z</time>
      </trkpt>
      <trkpt lat="44.08909" lon="5.99582">
        <ele>568.2</ele>
        <time>2021-03-30T13:01:29.000Z</time>
      </trkpt>
      <trkpt lat="44.08911" lon="5.99583">
        <ele>568.4</ele>
        <time>2021-03-30T13:01:30.000Z</time>
      </trkpt>
      <trkpt lat="44.08913" lon="5.99582">
        <ele>568.8</ele>
        <time>2021-03-30T13:01:31.000Z</time>
      </trkpt>
      <trkpt lat="44.08918" lon="5.99581">
        <ele>569.2</ele>
        <time>2021-03-30T13:01:33.000Z</time>
      </trkpt>
      <trkpt lat="44.0892" lon="5.9958">
        <ele>569.2</ele>
        <time>2021-03-30T13:01:34.000Z</time>
      </trkpt>
      <trkpt lat="44.08923" lon="5.9958">
        <ele>569.2</ele>
        <time>2021-03-30T13:01:35.000Z</time>
      </trkpt>
      <trkpt lat="44.08929" lon="5.99579">
        <ele>569.6</ele>
        <time>2021-03-30T13:01:37.000Z</time>
      </trkpt>
      <trkpt lat="44.08931" lon="5.99579">
        <ele>569.8</ele>
        <time>2021-03-30T13:01:38.000Z</time>
      </trkpt>
      <trkpt lat="44.08935" lon="5.9958">
        <ele>570</ele>
        <time>2021-03-30T13:01:40.000Z</time>
      </trkpt>
      <trkpt lat="44.08937" lon="5.9958">
        <ele>570.4</ele>
        <time>2021-03-30T13:01:41.000Z</time>
      </trkpt>
      <trkpt lat="44.08939" lon="5.9958">
        <ele>570.6</ele>
        <time>2021-03-30T13:01:42.000Z</time>
      </trkpt>
      <trkpt lat="44.08945" lon="5.99578">
        <ele>570.6</ele>
        <time>2021-03-30T13:01:44.000Z</time>
      </trkpt>
      <trkpt lat="44.08948" lon="5.99577">
        <ele>570.6</ele>
        <time>2021-03-30T13:01:45.000Z</time>
      </trkpt>
      <trkpt lat="44.08951" lon="5.99575">
        <ele>570.6</ele>
        <time>2021-03-30T13:01:46.000Z</time>
      </trkpt>
      <trkpt lat="44.08957" lon="5.9957">
        <ele>570.6</ele>
        <time>2021-03-30T13:01:48.000Z</time>
      </trkpt>
      <trkpt lat="44.08961" lon="5.99568">
        <ele>570.6</ele>
        <time>2021-03-30T13:01:49.000Z</time>
      </trkpt>
      <trkpt lat="44.08965" lon="5.99567">
        <ele>570.6</ele>
        <time>2021-03-30T13:01:50.000Z</time>
      </trkpt>
      <trkpt lat="44.08972" lon="5.99566">
        <ele>570.6</ele>
        <time>2021-03-30T13:01:52.000Z</time>
      </trkpt>
      <trkpt lat="44.08975" lon="5.99565">
        <ele>570.8</ele>
        <time>2021-03-30T13:01:53.000Z</time>
      </trkpt>
      <trkpt lat="44.08981" lon="5.99564">
        <ele>571</ele>
        <time>2021-03-30T13:01:55.000Z</time>
      </trkpt>
      <trkpt lat="44.08985" lon="5.99563">
        <ele>571</ele>
        <time>2021-03-30T13:01:56.000Z</time>
      </trkpt>
      <trkpt lat="44.08988" lon="5.99563">
        <ele>571.2</ele>
        <time>2021-03-30T13:01:57.000Z</time>
      </trkpt>
      <trkpt lat="44.08994" lon="5.99561">
        <ele>571.6</ele>
        <time>2021-03-30T13:01:59.000Z</time>
      </trkpt>
      <trkpt lat="44.08997" lon="5.99561">
        <ele>571.6</ele>
        <time>2021-03-30T13:02:00.000Z</time>
      </trkpt>
      <trkpt lat="44.09002" lon="5.99561">
        <ele>571.8</ele>
        <time>2021-03-30T13:02:01.000Z</time>
      </trkpt>
      <trkpt lat="44.0901" lon="5.99557">
        <ele>572.2</ele>
        <time>2021-03-30T13:02:03.000Z</time>
      </trkpt>
      <trkpt lat="44.09014" lon="5.99553">
        <ele>572.2</ele>
        <time>2021-03-30T13:02:04.000Z</time>
      </trkpt>
      <trkpt lat="44.09023" lon="5.99547">
        <ele>572.4</ele>
        <time>2021-03-30T13:02:06.000Z</time>
      </trkpt>
      <trkpt lat="44.09026" lon="5.99545">
        <ele>572.4</ele>
        <time>2021-03-30T13:02:07.000Z</time>
      </trkpt>
      <trkpt lat="44.09029" lon="5.99545">
        <ele>572.4</ele>
        <time>2021-03-30T13:02:08.000Z</time>
      </trkpt>
      <trkpt lat="44.09036" lon="5.99546">
        <ele>572.8</ele>
        <time>2021-03-30T13:02:10.000Z</time>
      </trkpt>
      <trkpt lat="44.0904" lon="5.99547">
        <ele>572.8</ele>
        <time>2021-03-30T13:02:11.000Z</time>
      </trkpt>
      <trkpt lat="44.09044" lon="5.99548">
        <ele>573</ele>
        <time>2021-03-30T13:02:12.000Z</time>
      </trkpt>
      <trkpt lat="44.09052" lon="5.99549">
        <ele>573.6</ele>
        <time>2021-03-30T13:02:14.000Z</time>
      </trkpt>
      <trkpt lat="44.09056" lon="5.9955">
        <ele>573.8</ele>
        <time>2021-03-30T13:02:15.000Z</time>
      </trkpt>
      <trkpt lat="44.09065" lon="5.9955">
        <ele>574.2</ele>
        <time>2021-03-30T13:02:17.000Z</time>
      </trkpt>
      <trkpt lat="44.0907" lon="5.9955">
        <ele>574.2</ele>
        <time>2021-03-30T13:02:18.000Z</time>
      </trkpt>
      <trkpt lat="44.09074" lon="5.9955">
        <ele>574.4</ele>
        <time>2021-03-30T13:02:19.000Z</time>
      </trkpt>
      <trkpt lat="44.09086" lon="5.99548">
        <ele>574.6</ele>
        <time>2021-03-30T13:02:21.000Z</time>
      </trkpt>
      <trkpt lat="44.09091" lon="5.9955">
        <ele>574.6</ele>
        <time>2021-03-30T13:02:22.000Z</time>
      </trkpt>
      <trkpt lat="44.09097" lon="5.99552">
        <ele>574.8</ele>
        <time>2021-03-30T13:02:23.000Z</time>
      </trkpt>
      <trkpt lat="44.09107" lon="5.99557">
        <ele>574.6</ele>
        <time>2021-03-30T13:02:25.000Z</time>
      </trkpt>
      <trkpt lat="44.09111" lon="5.9956">
        <ele>574.6</ele>
        <time>2021-03-30T13:02:26.000Z</time>
      </trkpt>
      <trkpt lat="44.09115" lon="5.99563">
        <ele>574.6</ele>
        <time>2021-03-30T13:02:27.000Z</time>
      </trkpt>
      <trkpt lat="44.09124" lon="5.99567">
        <ele>574.4</ele>
        <time>2021-03-30T13:02:29.000Z</time>
      </trkpt>
      <trkpt lat="44.09128" lon="5.9957">
        <ele>574.4</ele>
        <time>2021-03-30T13:02:30.000Z</time>
      </trkpt>
      <trkpt lat="44.09139" lon="5.99579">
        <ele>574.2</ele>
        <time>2021-03-30T13:02:32.000Z</time>
      </trkpt>
      <trkpt lat="44.09145" lon="5.99583">
        <ele>574</ele>
        <time>2021-03-30T13:02:33.000Z</time>
      </trkpt>
      <trkpt lat="44.09151" lon="5.99586">
        <ele>574</ele>
        <time>2021-03-30T13:02:34.000Z</time>
      </trkpt>
      <trkpt lat="44.09163" lon="5.99591">
        <ele>573.8</ele>
        <time>2021-03-30T13:02:36.000Z</time>
      </trkpt>
      <trkpt lat="44.09169" lon="5.99593">
        <ele>573.6</ele>
        <time>2021-03-30T13:02:37.000Z</time>
      </trkpt>
      <trkpt lat="44.09174" lon="5.99592">
        <ele>573.4</ele>
        <time>2021-03-30T13:02:38.000Z</time>
      </trkpt>
      <trkpt lat="44.09182" lon="5.99588">
        <ele>573.2</ele>
        <time>2021-03-30T13:02:40.000Z</time>
      </trkpt>
      <trkpt lat="44.09186" lon="5.99588">
        <ele>573</ele>
        <time>2021-03-30T13:02:41.000Z</time>
      </trkpt>
      <trkpt lat="44.09192" lon="5.99589">
        <ele>572.6</ele>
        <time>2021-03-30T13:02:43.000Z</time>
      </trkpt>
      <trkpt lat="44.09195" lon="5.99591">
        <ele>572.6</ele>
        <time>2021-03-30T13:02:44.000Z</time>
      </trkpt>
      <trkpt lat="44.09197" lon="5.99592">
        <ele>572.4</ele>
        <time>2021-03-30T13:02:45.000Z</time>
      </trkpt>
      <trkpt lat="44.09198" lon="5.99591">
        <ele>572.2</ele>
        <time>2021-03-30T13:02:47.000Z</time>
      </trkpt>
      <trkpt lat="44.09198" lon="5.99591">
        <ele>572.2</ele>
        <time>2021-03-30T13:02:48.000Z</time>
      </trkpt>
      <trkpt lat="44.09198" lon="5.99591">
        <ele>572.2</ele>
        <time>2021-03-30T13:02:49.000Z</time>
      </trkpt>
      <trkpt lat="44.092" lon="5.9959">
        <ele>572.2</ele>
        <time>2021-03-30T13:02:51.000Z</time>
      </trkpt>
      <trkpt lat="44.09202" lon="5.9959">
        <ele>572</ele>
        <time>2021-03-30T13:02:52.000Z</time>
      </trkpt>
      <trkpt lat="44.09208" lon="5.99585">
        <ele>571.6</ele>
        <time>2021-03-30T13:02:54.000Z</time>
      </trkpt>
      <trkpt lat="44.09211" lon="5.99584">
        <ele>571.4</ele>
        <time>2021-03-30T13:02:55.000Z</time>
      </trkpt>
      <trkpt lat="44.09213" lon="5.99585">
        <ele>571.2</ele>
        <time>2021-03-30T13:02:56.000Z</time>
      </trkpt>
      <trkpt lat="44.09212" lon="5.99595">
        <ele>570.6</ele>
        <time>2021-03-30T13:02:58.000Z</time>
      </trkpt>
      <trkpt lat="44.09213" lon="5.99599">
        <ele>570.4</ele>
        <time>2021-03-30T13:02:59.000Z</time>
      </trkpt>
      <trkpt lat="44.09215" lon="5.99601">
        <ele>570</ele>
        <time>2021-03-30T13:03:00.000Z</time>
      </trkpt>
      <trkpt lat="44.09218" lon="5.99607">
        <ele>569.4</ele>
        <time>2021-03-30T13:03:02.000Z</time>
      </trkpt>
      <trkpt lat="44.09219" lon="5.9961">
        <ele>569.2</ele>
        <time>2021-03-30T13:03:03.000Z</time>
      </trkpt>
      <trkpt lat="44.09221" lon="5.99614">
        <ele>568.8</ele>
        <time>2021-03-30T13:03:04.000Z</time>
      </trkpt>
      <trkpt lat="44.09223" lon="5.99619">
        <ele>568.2</ele>
        <time>2021-03-30T13:03:06.000Z</time>
      </trkpt>
      <trkpt lat="44.09224" lon="5.9962">
        <ele>568</ele>
        <time>2021-03-30T13:03:07.000Z</time>
      </trkpt>
      <trkpt lat="44.09227" lon="5.99626">
        <ele>567.4</ele>
        <time>2021-03-30T13:03:09.000Z</time>
      </trkpt>
      <trkpt lat="44.0923" lon="5.99632">
        <ele>567</ele>
        <time>2021-03-30T13:03:10.000Z</time>
      </trkpt>
      <trkpt lat="44.09232" lon="5.99637">
        <ele>566.8</ele>
        <time>2021-03-30T13:03:11.000Z</time>
      </trkpt>
      <trkpt lat="44.09238" lon="5.99642">
        <ele>566.2</ele>
        <time>2021-03-30T13:03:13.000Z</time>
      </trkpt>
      <trkpt lat="44.09241" lon="5.99645">
        <ele>566</ele>
        <time>2021-03-30T13:03:14.000Z</time>
      </trkpt>
      <trkpt lat="44.09242" lon="5.99648">
        <ele>565.6</ele>
        <time>2021-03-30T13:03:15.000Z</time>
      </trkpt>
      <trkpt lat="44.09246" lon="5.99654">
        <ele>565</ele>
        <time>2021-03-30T13:03:17.000Z</time>
      </trkpt>
      <trkpt lat="44.09247" lon="5.99657">
        <ele>564.8</ele>
        <time>2021-03-30T13:03:18.000Z</time>
      </trkpt>
      <trkpt lat="44.09252" lon="5.99662">
        <ele>564.2</ele>
        <time>2021-03-30T13:03:20.000Z</time>
      </trkpt>
      <trkpt lat="44.09255" lon="5.99662">
        <ele>564</ele>
        <time>2021-03-30T13:03:21.000Z</time>
      </trkpt>
      <trkpt lat="44.0926" lon="5.99661">
        <ele>563.6</ele>
        <time>2021-03-30T13:03:22.000Z</time>
      </trkpt>
      <trkpt lat="44.09267" lon="5.99661">
        <ele>562.8</ele>
        <time>2021-03-30T13:03:24.000Z</time>
      </trkpt>
      <trkpt lat="44.0927" lon="5.99663">
        <ele>562.6</ele>
        <time>2021-03-30T13:03:25.000Z</time>
      </trkpt>
      <trkpt lat="44.09272" lon="5.99667">
        <ele>562.2</ele>
        <time>2021-03-30T13:03:26.000Z</time>
      </trkpt>
      <trkpt lat="44.09273" lon="5.9968">
        <ele>561.4</ele>
        <time>2021-03-30T13:03:28.000Z</time>
      </trkpt>
      <trkpt lat="44.09275" lon="5.99686">
        <ele>561</ele>
        <time>2021-03-30T13:03:29.000Z</time>
      </trkpt>
      <trkpt lat="44.0928" lon="5.99695">
        <ele>560.2</ele>
        <time>2021-03-30T13:03:31.000Z</time>
      </trkpt>
      <trkpt lat="44.09282" lon="5.99696">
        <ele>560</ele>
        <time>2021-03-30T13:03:32.000Z</time>
      </trkpt>
      <trkpt lat="44.09283" lon="5.99696">
        <ele>559.6</ele>
        <time>2021-03-30T13:03:33.000Z</time>
      </trkpt>
      <trkpt lat="44.09288" lon="5.99697">
        <ele>558.8</ele>
        <time>2021-03-30T13:03:35.000Z</time>
      </trkpt>
      <trkpt lat="44.09289" lon="5.99698">
        <ele>558.6</ele>
        <time>2021-03-30T13:03:36.000Z</time>
      </trkpt>
      <trkpt lat="44.09291" lon="5.99698">
        <ele>558.4</ele>
        <time>2021-03-30T13:03:37.000Z</time>
      </trkpt>
      <trkpt lat="44.09297" lon="5.997">
        <ele>557.8</ele>
        <time>2021-03-30T13:03:39.000Z</time>
      </trkpt>
      <trkpt lat="44.093" lon="5.99702">
        <ele>557.4</ele>
        <time>2021-03-30T13:03:40.000Z</time>
      </trkpt>
      <trkpt lat="44.09303" lon="5.99709">
        <ele>556.8</ele>
        <time>2021-03-30T13:03:42.000Z</time>
      </trkpt>
      <trkpt lat="44.09304" lon="5.99714">
        <ele>556.4</ele>
        <time>2021-03-30T13:03:43.000Z</time>
      </trkpt>
      <trkpt lat="44.09304" lon="5.9972">
        <ele>556</ele>
        <time>2021-03-30T13:03:44.000Z</time>
      </trkpt>
      <trkpt lat="44.09306" lon="5.99727">
        <ele>555.4</ele>
        <time>2021-03-30T13:03:46.000Z</time>
      </trkpt>
      <trkpt lat="44.09309" lon="5.99729">
        <ele>555.2</ele>
        <time>2021-03-30T13:03:47.000Z</time>
      </trkpt>
      <trkpt lat="44.09311" lon="5.99729">
        <ele>555</ele>
        <time>2021-03-30T13:03:48.000Z</time>
      </trkpt>
      <trkpt lat="44.09315" lon="5.99725">
        <ele>554.4</ele>
        <time>2021-03-30T13:03:50.000Z</time>
      </trkpt>
      <trkpt lat="44.09318" lon="5.99722">
        <ele>554</ele>
        <time>2021-03-30T13:03:51.000Z</time>
      </trkpt>
      <trkpt lat="44.09321" lon="5.99718">
        <ele>553.6</ele>
        <time>2021-03-30T13:03:52.000Z</time>
      </trkpt>
      <trkpt lat="44.09324" lon="5.99719">
        <ele>552.8</ele>
        <time>2021-03-30T13:03:54.000Z</time>
      </trkpt>
      <trkpt lat="44.09325" lon="5.99722">
        <ele>552.4</ele>
        <time>2021-03-30T13:03:55.000Z</time>
      </trkpt>
      <trkpt lat="44.09326" lon="5.99731">
        <ele>551.6</ele>
        <time>2021-03-30T13:03:57.000Z</time>
      </trkpt>
      <trkpt lat="44.09327" lon="5.99733">
        <ele>551.4</ele>
        <time>2021-03-30T13:03:58.000Z</time>
      </trkpt>
      <trkpt lat="44.09329" lon="5.99734">
        <ele>551.2</ele>
        <time>2021-03-30T13:03:59.000Z</time>
      </trkpt>
      <trkpt lat="44.09333" lon="5.99735">
        <ele>550.6</ele>
        <time>2021-03-30T13:04:01.000Z</time>
      </trkpt>
      <trkpt lat="44.09336" lon="5.99735">
        <ele>550.2</ele>
        <time>2021-03-30T13:04:02.000Z</time>
      </trkpt>
      <trkpt lat="44.09338" lon="5.99737">
        <ele>549.8</ele>
        <time>2021-03-30T13:04:03.000Z</time>
      </trkpt>
      <trkpt lat="44.09343" lon="5.99746">
        <ele>549.2</ele>
        <time>2021-03-30T13:04:05.000Z</time>
      </trkpt>
      <trkpt lat="44.09346" lon="5.99749">
        <ele>549</ele>
        <time>2021-03-30T13:04:06.000Z</time>
      </trkpt>
      <trkpt lat="44.09348" lon="5.99753">
        <ele>548.4</ele>
        <time>2021-03-30T13:04:08.000Z</time>
      </trkpt>
      <trkpt lat="44.09349" lon="5.99754">
        <ele>548.2</ele>
        <time>2021-03-30T13:04:09.000Z</time>
      </trkpt>
      <trkpt lat="44.09351" lon="5.99756">
        <ele>548</ele>
        <time>2021-03-30T13:04:10.000Z</time>
      </trkpt>
      <trkpt lat="44.09355" lon="5.99759">
        <ele>547.4</ele>
        <time>2021-03-30T13:04:12.000Z</time>
      </trkpt>
      <trkpt lat="44.09359" lon="5.9976">
        <ele>547.2</ele>
        <time>2021-03-30T13:04:13.000Z</time>
      </trkpt>
      <trkpt lat="44.09364" lon="5.99761">
        <ele>547</ele>
        <time>2021-03-30T13:04:14.000Z</time>
      </trkpt>
      <trkpt lat="44.0937" lon="5.99768">
        <ele>546.4</ele>
        <time>2021-03-30T13:04:16.000Z</time>
      </trkpt>
      <trkpt lat="44.09371" lon="5.99773">
        <ele>546</ele>
        <time>2021-03-30T13:04:17.000Z</time>
      </trkpt>
      <trkpt lat="44.09372" lon="5.99781">
        <ele>545.6</ele>
        <time>2021-03-30T13:04:19.000Z</time>
      </trkpt>
      <trkpt lat="44.09373" lon="5.99786">
        <ele>545.2</ele>
        <time>2021-03-30T13:04:20.000Z</time>
      </trkpt>
      <trkpt lat="44.09374" lon="5.9979">
        <ele>545</ele>
        <time>2021-03-30T13:04:21.000Z</time>
      </trkpt>
      <trkpt lat="44.09378" lon="5.99799">
        <ele>544.2</ele>
        <time>2021-03-30T13:04:23.000Z</time>
      </trkpt>
      <trkpt lat="44.09381" lon="5.99803">
        <ele>544</ele>
        <time>2021-03-30T13:04:24.000Z</time>
      </trkpt>
      <trkpt lat="44.09383" lon="5.99808">
        <ele>543.6</ele>
        <time>2021-03-30T13:04:25.000Z</time>
      </trkpt>
      <trkpt lat="44.09389" lon="5.99818">
        <ele>543</ele>
        <time>2021-03-30T13:04:27.000Z</time>
      </trkpt>
      <trkpt lat="44.09391" lon="5.99823">
        <ele>542.6</ele>
        <time>2021-03-30T13:04:28.000Z</time>
      </trkpt>
      <trkpt lat="44.09394" lon="5.99829">
        <ele>542.2</ele>
        <time>2021-03-30T13:04:29.000Z</time>
      </trkpt>
      <trkpt lat="44.09395" lon="5.99844">
        <ele>541.4</ele>
        <time>2021-03-30T13:04:31.000Z</time>
      </trkpt>
      <trkpt lat="44.09395" lon="5.99853">
        <ele>541</ele>
        <time>2021-03-30T13:04:32.000Z</time>
      </trkpt>
      <trkpt lat="44.09397" lon="5.99868">
        <ele>540.4</ele>
        <time>2021-03-30T13:04:34.000Z</time>
      </trkpt>
      <trkpt lat="44.09398" lon="5.99877">
        <ele>540</ele>
        <time>2021-03-30T13:04:35.000Z</time>
      </trkpt>
      <trkpt lat="44.094" lon="5.99887">
        <ele>539.6</ele>
        <time>2021-03-30T13:04:36.000Z</time>
      </trkpt>
      <trkpt lat="44.09407" lon="5.99898">
        <ele>538.6</ele>
        <time>2021-03-30T13:04:38.000Z</time>
      </trkpt>
      <trkpt lat="44.09411" lon="5.999">
        <ele>538.2</ele>
        <time>2021-03-30T13:04:39.000Z</time>
      </trkpt>
      <trkpt lat="44.09416" lon="5.999">
        <ele>537.6</ele>
        <time>2021-03-30T13:04:40.000Z</time>
      </trkpt>
      <trkpt lat="44.09423" lon="5.99901">
        <ele>536.6</ele>
        <time>2021-03-30T13:04:42.000Z</time>
      </trkpt>
      <trkpt lat="44.09427" lon="5.99904">
        <ele>536.2</ele>
        <time>2021-03-30T13:04:43.000Z</time>
      </trkpt>
      <trkpt lat="44.09439" lon="5.9991">
        <ele>535.2</ele>
        <time>2021-03-30T13:04:45.000Z</time>
      </trkpt>
      <trkpt lat="44.09448" lon="5.99914">
        <ele>534.6</ele>
        <time>2021-03-30T13:04:46.000Z</time>
      </trkpt>
      <trkpt lat="44.09458" lon="5.99918">
        <ele>534</ele>
        <time>2021-03-30T13:04:47.000Z</time>
      </trkpt>
      <trkpt lat="44.09476" lon="5.99931">
        <ele>533</ele>
        <time>2021-03-30T13:04:49.000Z</time>
      </trkpt>
      <trkpt lat="44.09486" lon="5.99938">
        <ele>532.6</ele>
        <time>2021-03-30T13:04:50.000Z</time>
      </trkpt>
      <trkpt lat="44.09493" lon="5.99944">
        <ele>532</ele>
        <time>2021-03-30T13:04:51.000Z</time>
      </trkpt>
      <trkpt lat="44.09505" lon="5.99949">
        <ele>530.8</ele>
        <time>2021-03-30T13:04:53.000Z</time>
      </trkpt>
      <trkpt lat="44.0951" lon="5.9995">
        <ele>530.2</ele>
        <time>2021-03-30T13:04:54.000Z</time>
      </trkpt>
      <trkpt lat="44.09518" lon="5.99946">
        <ele>529</ele>
        <time>2021-03-30T13:04:56.000Z</time>
      </trkpt>
      <trkpt lat="44.09522" lon="5.99942">
        <ele>528.2</ele>
        <time>2021-03-30T13:04:57.000Z</time>
      </trkpt>
      <trkpt lat="44.09523" lon="5.99938">
        <ele>527.4</ele>
        <time>2021-03-30T13:04:58.000Z</time>
      </trkpt>
      <trkpt lat="44.09521" lon="5.9993">
        <ele>526</ele>
        <time>2021-03-30T13:05:00.000Z</time>
      </trkpt>
      <trkpt lat="44.09519" lon="5.99927">
        <ele>525.4</ele>
        <time>2021-03-30T13:05:01.000Z</time>
      </trkpt>
      <trkpt lat="44.09517" lon="5.99924">
        <ele>524.8</ele>
        <time>2021-03-30T13:05:02.000Z</time>
      </trkpt>
      <trkpt lat="44.09514" lon="5.99917">
        <ele>523.8</ele>
        <time>2021-03-30T13:05:04.000Z</time>
      </trkpt>
      <trkpt lat="44.09512" lon="5.99913">
        <ele>523.2</ele>
        <time>2021-03-30T13:05:05.000Z</time>
      </trkpt>
      <trkpt lat="44.09509" lon="5.9991">
        <ele>522.8</ele>
        <time>2021-03-30T13:05:06.000Z</time>
      </trkpt>
      <trkpt lat="44.09506" lon="5.99904">
        <ele>521.8</ele>
        <time>2021-03-30T13:05:08.000Z</time>
      </trkpt>
      <trkpt lat="44.09504" lon="5.99901">
        <ele>521.4</ele>
        <time>2021-03-30T13:05:09.000Z</time>
      </trkpt>
      <trkpt lat="44.09501" lon="5.99894">
        <ele>520.6</ele>
        <time>2021-03-30T13:05:11.000Z</time>
      </trkpt>
      <trkpt lat="44.09499" lon="5.99891">
        <ele>520.4</ele>
        <time>2021-03-30T13:05:12.000Z</time>
      </trkpt>
      <trkpt lat="44.09497" lon="5.99887">
        <ele>520</ele>
        <time>2021-03-30T13:05:13.000Z</time>
      </trkpt>
      <trkpt lat="44.09493" lon="5.9988">
        <ele>519.6</ele>
        <time>2021-03-30T13:05:15.000Z</time>
      </trkpt>
      <trkpt lat="44.09491" lon="5.99876">
        <ele>519.4</ele>
        <time>2021-03-30T13:05:16.000Z</time>
      </trkpt>
      <trkpt lat="44.09489" lon="5.99873">
        <ele>519.2</ele>
        <time>2021-03-30T13:05:17.000Z</time>
      </trkpt>
      <trkpt lat="44.09488" lon="5.99867">
        <ele>519</ele>
        <time>2021-03-30T13:05:19.000Z</time>
      </trkpt>
      <trkpt lat="44.09488" lon="5.99864">
        <ele>518.6</ele>
        <time>2021-03-30T13:05:20.000Z</time>
      </trkpt>
      <trkpt lat="44.09488" lon="5.99858">
        <ele>518.6</ele>
        <time>2021-03-30T13:05:22.000Z</time>
      </trkpt>
      <trkpt lat="44.09487" lon="5.99855">
        <ele>518.4</ele>
        <time>2021-03-30T13:05:23.000Z</time>
      </trkpt>
      <trkpt lat="44.09488" lon="5.99852">
        <ele>518.4</ele>
        <time>2021-03-30T13:05:24.000Z</time>
      </trkpt>
      <trkpt lat="44.09489" lon="5.99844">
        <ele>518</ele>
        <time>2021-03-30T13:05:26.000Z</time>
      </trkpt>
    </trkseg>
  </trk>
</gpx>